<?xml version='1.0' encoding='UTF-8'?><gpx version="1.1" creator="JPX - https://github.com/jenetics/jpx" xmlns="http://www.topografix.com/GPX/1/1"><trk><trkseg><trkpt lat="53.35042916323734" lon="14.848520293671083"><ele>33.0</ele><time>2026-04-12T09:25:36.005Z</time></trkpt><trkpt lat="53.35035857039949" lon="14.848608172291348"><ele>33.0</ele><time>2026-04-12T09:25:38.005Z</time></trkpt><trkpt lat="53.35032248351951" lon="14.848705438968986"><ele>33.0</ele><time>2026-04-12T09:25:40.005Z</time></trkpt><trkpt lat="53.350338785567274" lon="14.84885665671846"><ele>33.0</ele><time>2026-04-12T09:25:43.005Z</time></trkpt><trkpt lat="53.3504115584566" lon="14.848904365754647"><ele>33.0</ele><time>2026-04-12T09:25:46.005Z</time></trkpt><trkpt lat="53.35046909397514" lon="14.848982058433284"><ele>33.0</ele><time>2026-04-12T09:25:48.005Z</time></trkpt><trkpt lat="53.35054877156761" lon="14.849019472883773"><ele>33.0</ele><time>2026-04-12T09:26:38.006Z</time></trkpt><trkpt lat="53.35065563241239" lon="14.849079275176228"><ele>33.0</ele><time>2026-04-12T09:26:45.005Z</time></trkpt><trkpt lat="53.35067255911031" lon="14.849269742243273"><ele>33.0</ele><time>2026-04-12T09:26:47.005Z</time></trkpt><trkpt lat="53.3506568992041" lon="14.849386818505243"><ele>33.0</ele><time>2026-04-12T09:26:48.005Z</time></trkpt><trkpt lat="53.35073768203434" lon="14.849513818466917"><ele>33.0</ele><time>2026-04-12T09:26:50.005Z</time></trkpt><trkpt lat="53.35084521017196" lon="14.849551740077498"><ele>33.0</ele><time>2026-04-12T09:26:51.005Z</time></trkpt><trkpt lat="53.350982908565335" lon="14.849582684478513"><ele>33.0</ele><time>2026-04-12T09:26:52.005Z</time></trkpt><trkpt lat="53.35111369280868" lon="14.849609111125108"><ele>33.0</ele><time>2026-04-12T09:26:53.005Z</time></trkpt><trkpt lat="53.351249053624386" lon="14.849636687382135"><ele>33.0</ele><time>2026-04-12T09:26:54.005Z</time></trkpt><trkpt lat="53.35138847408506" lon="14.849663177282046"><ele>33.0</ele><time>2026-04-12T09:26:55.005Z</time></trkpt><trkpt lat="53.35152443786765" lon="14.849691084952"><ele>33.0</ele><time>2026-04-12T09:26:56.005Z</time></trkpt><trkpt lat="53.35166719007316" lon="14.849726381793891"><ele>33.0</ele><time>2026-04-12T09:26:57.005Z</time></trkpt><trkpt lat="53.351844761545976" lon="14.849760805857601"><ele>33.0</ele><time>2026-04-12T09:26:58.005Z</time></trkpt><trkpt lat="53.35201834111415" lon="14.849795497534918"><ele>33.0</ele><time>2026-04-12T09:26:59.005Z</time></trkpt><trkpt lat="53.35220648027033" lon="14.84983954854472"><ele>33.0</ele><time>2026-04-12T09:27:00.005Z</time></trkpt><trkpt lat="53.35241320626453" lon="14.849890999039854"><ele>32.666666666666664</ele><time>2026-04-12T09:27:01.005Z</time></trkpt><trkpt lat="53.352615607025875" lon="14.849950680791917"><ele>32.33333333333333</ele><time>2026-04-12T09:27:02.005Z</time></trkpt><trkpt lat="53.35281162736535" lon="14.850017927229592"><ele>32.0</ele><time>2026-04-12T09:27:03.005Z</time></trkpt><trkpt lat="53.353000288385495" lon="14.850095481820656"><ele>32.0</ele><time>2026-04-12T09:27:04.005Z</time></trkpt><trkpt lat="53.35317688669308" lon="14.850190648329205"><ele>32.0</ele><time>2026-04-12T09:27:05.005Z</time></trkpt><trkpt lat="53.35334256194224" lon="14.85029252138579"><ele>32.0</ele><time>2026-04-12T09:27:06.005Z</time></trkpt><trkpt lat="53.353500924248905" lon="14.850392134004036"><ele>32.0</ele><time>2026-04-12T09:27:07.005Z</time></trkpt><trkpt lat="53.35365602252626" lon="14.850485118257566"><ele>32.0</ele><time>2026-04-12T09:27:08.005Z</time></trkpt><trkpt lat="53.3538044359543" lon="14.85057404619986"><ele>32.0</ele><time>2026-04-12T09:27:09.005Z</time></trkpt><trkpt lat="53.35395919992511" lon="14.850674695309097"><ele>32.0</ele><time>2026-04-12T09:27:10.005Z</time></trkpt><trkpt lat="53.354095264747535" lon="14.850770294713078"><ele>32.0</ele><time>2026-04-12T09:27:11.005Z</time></trkpt><trkpt lat="53.354212363317814" lon="14.850851253685283"><ele>32.0</ele><time>2026-04-12T09:27:12.005Z</time></trkpt><trkpt lat="53.354319556817025" lon="14.85093299483022"><ele>32.0</ele><time>2026-04-12T09:27:13.005Z</time></trkpt><trkpt lat="53.35442008249918" lon="14.851006260828983"><ele>32.2</ele><time>2026-04-12T09:27:14.005Z</time></trkpt><trkpt lat="53.35452016176563" lon="14.85106748825329"><ele>32.400000000000006</ele><time>2026-04-12T09:27:15.005Z</time></trkpt><trkpt lat="53.354621036265435" lon="14.851143785764037"><ele>32.599999999999994</ele><time>2026-04-12T09:27:16.005Z</time></trkpt><trkpt lat="53.3547286464245" lon="14.851218273878349"><ele>32.8</ele><time>2026-04-12T09:27:17.005Z</time></trkpt><trkpt lat="53.35483537589138" lon="14.851287550644743"><ele>33.0</ele><time>2026-04-12T09:27:18.005Z</time></trkpt><trkpt lat="53.35491879394843" lon="14.851346303905995"><ele>33.0</ele><time>2026-04-12T09:27:19.005Z</time></trkpt><trkpt lat="53.35498039212627" lon="14.851397012819614"><ele>33.0</ele><time>2026-04-12T09:27:20.006Z</time></trkpt><trkpt lat="53.355052639619814" lon="14.851494635117001"><ele>33.0</ele><time>2026-04-12T09:27:22.006Z</time></trkpt><trkpt lat="53.3551212253911" lon="14.851308398288998"><ele>33.0</ele><time>2026-04-12T09:27:25.006Z</time></trkpt><trkpt lat="53.35514801866681" lon="14.851130135513513"><ele>33.0</ele><time>2026-04-12T09:27:27.006Z</time></trkpt><trkpt lat="53.35516745966734" lon="14.851013102704462"><ele>33.0</ele><time>2026-04-12T09:27:28.006Z</time></trkpt><trkpt lat="53.355186782491145" lon="14.850897573118612"><ele>33.0</ele><time>2026-04-12T09:27:29.006Z</time></trkpt><trkpt lat="53.35521294536791" lon="14.850765896980555"><ele>33.0</ele><time>2026-04-12T09:27:30.006Z</time></trkpt><trkpt lat="53.35524363056247" lon="14.850624053175132"><ele>33.0</ele><time>2026-04-12T09:27:31.006Z</time></trkpt><trkpt lat="53.35526975965051" lon="14.850474105872065"><ele>33.0</ele><time>2026-04-12T09:27:32.006Z</time></trkpt><trkpt lat="53.355293823701345" lon="14.850317639227313"><ele>33.0</ele><time>2026-04-12T09:27:33.006Z</time></trkpt><trkpt lat="53.35533684735156" lon="14.850164500717979"><ele>32.8</ele><time>2026-04-12T09:27:34.006Z</time></trkpt><trkpt lat="53.35536644015757" lon="14.849994127490772"><ele>32.599999999999994</ele><time>2026-04-12T09:27:35.006Z</time></trkpt><trkpt lat="53.355397371741674" lon="14.849820883138317"><ele>32.400000000000006</ele><time>2026-04-12T09:27:36.006Z</time></trkpt><trkpt lat="53.35542980880654" lon="14.849641338336648"><ele>32.2</ele><time>2026-04-12T09:27:37.006Z</time></trkpt><trkpt lat="53.355460480404034" lon="14.849464307922544"><ele>32.0</ele><time>2026-04-12T09:27:38.006Z</time></trkpt><trkpt lat="53.35549115304338" lon="14.849288290103832"><ele>32.0</ele><time>2026-04-12T09:27:39.006Z</time></trkpt><trkpt lat="53.355522836671874" lon="14.849112341595472"><ele>32.0</ele><time>2026-04-12T09:27:40.006Z</time></trkpt><trkpt lat="53.35555062714978" lon="14.848939312515634"><ele>32.0</ele><time>2026-04-12T09:27:41.006Z</time></trkpt><trkpt lat="53.355575929652595" lon="14.848775128894598"><ele>32.0</ele><time>2026-04-12T09:27:42.006Z</time></trkpt><trkpt lat="53.35559951695386" lon="14.848638765439787"><ele>32.0</ele><time>2026-04-12T09:27:43.006Z</time></trkpt><trkpt lat="53.35563021907983" lon="14.8485056402943"><ele>31.75</ele><time>2026-04-12T09:27:44.006Z</time></trkpt><trkpt lat="53.355652445249184" lon="14.848362329714616"><ele>31.5</ele><time>2026-04-12T09:27:45.006Z</time></trkpt><trkpt lat="53.355678416856534" lon="14.84820407209673"><ele>31.25</ele><time>2026-04-12T09:27:46.006Z</time></trkpt><trkpt lat="53.35572454785583" lon="14.848022267343103"><ele>31.0</ele><time>2026-04-12T09:27:47.006Z</time></trkpt><trkpt lat="53.35576981057868" lon="14.84777486741452"><ele>31.0</ele><time>2026-04-12T09:27:48.006Z</time></trkpt><trkpt lat="53.355820021698094" lon="14.847502464162552"><ele>31.0</ele><time>2026-04-12T09:27:49.006Z</time></trkpt><trkpt lat="53.35586195554268" lon="14.847204738176917"><ele>31.0</ele><time>2026-04-12T09:27:50.006Z</time></trkpt><trkpt lat="53.35592021920274" lon="14.846925289440872"><ele>30.333333333333336</ele><time>2026-04-12T09:27:51.006Z</time></trkpt><trkpt lat="53.35597273108909" lon="14.846604795769643"><ele>29.666666666666664</ele><time>2026-04-12T09:27:52.006Z</time></trkpt><trkpt lat="53.35602410324225" lon="14.846281533051643"><ele>29.0</ele><time>2026-04-12T09:27:53.006Z</time></trkpt><trkpt lat="53.35608003094732" lon="14.845991530518505"><ele>29.0</ele><time>2026-04-12T09:27:54.006Z</time></trkpt><trkpt lat="53.35612776732219" lon="14.845718500125011"><ele>29.0</ele><time>2026-04-12T09:27:55.006Z</time></trkpt><trkpt lat="53.35616312546975" lon="14.845464827029845"><ele>29.0</ele><time>2026-04-12T09:27:56.006Z</time></trkpt><trkpt lat="53.35617770443323" lon="14.845219989595465"><ele>29.333333333333332</ele><time>2026-04-12T09:27:57.006Z</time></trkpt><trkpt lat="53.35615159991383" lon="14.844977517279695"><ele>29.666666666666664</ele><time>2026-04-12T09:27:58.006Z</time></trkpt><trkpt lat="53.35609049021275" lon="14.84474944626589"><ele>30.0</ele><time>2026-04-12T09:27:59.006Z</time></trkpt><trkpt lat="53.35601549425494" lon="14.844524642979334"><ele>30.0</ele><time>2026-04-12T09:28:00.006Z</time></trkpt><trkpt lat="53.355940537618686" lon="14.844312953635503"><ele>30.0</ele><time>2026-04-12T09:28:01.006Z</time></trkpt><trkpt lat="53.35589245760811" lon="14.844089609483547"><ele>30.0</ele><time>2026-04-12T09:28:02.006Z</time></trkpt><trkpt lat="53.355901686377955" lon="14.843876313101603"><ele>30.0</ele><time>2026-04-12T09:28:03.006Z</time></trkpt><trkpt lat="53.35590440321098" lon="14.843657480303728"><ele>30.0</ele><time>2026-04-12T09:28:04.006Z</time></trkpt><trkpt lat="53.356009335933535" lon="14.84350539607715"><ele>30.0</ele><time>2026-04-12T09:28:05.006Z</time></trkpt><trkpt lat="53.35610503235281" lon="14.843323852052409"><ele>30.0</ele><time>2026-04-12T09:28:06.006Z</time></trkpt><trkpt lat="53.35622136336287" lon="14.843106366143388"><ele>29.666666666666664</ele><time>2026-04-12T09:28:07.006Z</time></trkpt><trkpt lat="53.35632720941662" lon="14.842850872377282"><ele>29.333333333333332</ele><time>2026-04-12T09:28:08.006Z</time></trkpt><trkpt lat="53.35643161571674" lon="14.842583458008223"><ele>29.0</ele><time>2026-04-12T09:28:09.006Z</time></trkpt><trkpt lat="53.35653397120512" lon="14.842284310185612"><ele>29.0</ele><time>2026-04-12T09:28:10.006Z</time></trkpt><trkpt lat="53.35663939161835" lon="14.841968114012149"><ele>29.0</ele><time>2026-04-12T09:28:11.007Z</time></trkpt><trkpt lat="53.356731005481166" lon="14.841650692658629"><ele>29.0</ele><time>2026-04-12T09:28:12.007Z</time></trkpt><trkpt lat="53.35681263693468" lon="14.841330761694143"><ele>29.666666666666664</ele><time>2026-04-12T09:28:13.007Z</time></trkpt><trkpt lat="53.35688607275004" lon="14.841052534501742"><ele>30.333333333333336</ele><time>2026-04-12T09:28:14.007Z</time></trkpt><trkpt lat="53.35696060160794" lon="14.840789366784263"><ele>31.0</ele><time>2026-04-12T09:28:15.007Z</time></trkpt><trkpt lat="53.357040041530034" lon="14.840557733256516"><ele>31.666666666666668</ele><time>2026-04-12T09:28:16.007Z</time></trkpt><trkpt lat="53.35710600836282" lon="14.840332917858696"><ele>32.333333333333336</ele><time>2026-04-12T09:28:17.007Z</time></trkpt><trkpt lat="53.35715414146421" lon="14.840099776101043"><ele>33.0</ele><time>2026-04-12T09:28:18.007Z</time></trkpt><trkpt lat="53.35724038256272" lon="14.839854863946458"><ele>32.333333333333336</ele><time>2026-04-12T09:28:19.007Z</time></trkpt><trkpt lat="53.35730192951036" lon="14.83957649115179"><ele>31.666666666666668</ele><time>2026-04-12T09:28:20.007Z</time></trkpt><trkpt lat="53.35738683064814" lon="14.839286413115108"><ele>31.0</ele><time>2026-04-12T09:28:21.007Z</time></trkpt><trkpt lat="53.357465796662126" lon="14.83898745208161"><ele>31.0</ele><time>2026-04-12T09:28:22.007Z</time></trkpt><trkpt lat="53.35755669642688" lon="14.83869536835499"><ele>31.0</ele><time>2026-04-12T09:28:23.007Z</time></trkpt><trkpt lat="53.3576236482189" lon="14.838390081792927"><ele>31.0</ele><time>2026-04-12T09:28:24.007Z</time></trkpt><trkpt lat="53.35767176217694" lon="14.838082965186182"><ele>32.66666666666667</ele><time>2026-04-12T09:28:25.007Z</time></trkpt><trkpt lat="53.35770343671577" lon="14.837778452244509"><ele>34.333333333333336</ele><time>2026-04-12T09:28:26.007Z</time></trkpt><trkpt lat="53.35774514938563" lon="14.837497806584876"><ele>36.0</ele><time>2026-04-12T09:28:27.007Z</time></trkpt><trkpt lat="53.35779036484403" lon="14.837228063204961"><ele>36.333333333333336</ele><time>2026-04-12T09:28:28.007Z</time></trkpt><trkpt lat="53.35783102159984" lon="14.836969650978787"><ele>36.66666666666667</ele><time>2026-04-12T09:28:29.007Z</time></trkpt><trkpt lat="53.35788137382262" lon="14.836734564131868"><ele>37.0</ele><time>2026-04-12T09:28:30.007Z</time></trkpt><trkpt lat="53.35793854425013" lon="14.836504288957657"><ele>37.0</ele><time>2026-04-12T09:28:31.007Z</time></trkpt><trkpt lat="53.35800178499513" lon="14.83626870129848"><ele>37.0</ele><time>2026-04-12T09:28:32.007Z</time></trkpt><trkpt lat="53.35808594663187" lon="14.83599922124444"><ele>37.0</ele><time>2026-04-12T09:28:33.007Z</time></trkpt><trkpt lat="53.358165949795165" lon="14.83572049657702"><ele>36.333333333333336</ele><time>2026-04-12T09:28:34.007Z</time></trkpt><trkpt lat="53.35825303482997" lon="14.835430907054974"><ele>35.666666666666664</ele><time>2026-04-12T09:28:35.007Z</time></trkpt><trkpt lat="53.35835244442746" lon="14.835112457414805"><ele>35.0</ele><time>2026-04-12T09:28:36.007Z</time></trkpt><trkpt lat="53.358453907937765" lon="14.834786900626215"><ele>35.0</ele><time>2026-04-12T09:28:37.007Z</time></trkpt><trkpt lat="53.35855011866659" lon="14.834464143596636"><ele>35.0</ele><time>2026-04-12T09:28:38.006Z</time></trkpt><trkpt lat="53.35864439828894" lon="14.834117195352375"><ele>35.0</ele><time>2026-04-12T09:28:39.006Z</time></trkpt><trkpt lat="53.358719462823174" lon="14.833782743735197"><ele>35.33333333333333</ele><time>2026-04-12T09:28:40.006Z</time></trkpt><trkpt lat="53.35879826803838" lon="14.83346633733874"><ele>35.666666666666664</ele><time>2026-04-12T09:28:41.007Z</time></trkpt><trkpt lat="53.3588450985001" lon="14.833156837010982"><ele>36.0</ele><time>2026-04-12T09:28:42.006Z</time></trkpt><trkpt lat="53.35887823362695" lon="14.832879246585664"><ele>34.333333333333336</ele><time>2026-04-12T09:28:43.006Z</time></trkpt><trkpt lat="53.35892616976194" lon="14.83261311754063"><ele>32.66666666666667</ele><time>2026-04-12T09:28:44.006Z</time></trkpt><trkpt lat="53.35898370329832" lon="14.832384141089097"><ele>31.0</ele><time>2026-04-12T09:28:45.006Z</time></trkpt><trkpt lat="53.35907102028055" lon="14.832210231275296"><ele>31.0</ele><time>2026-04-12T09:28:46.007Z</time></trkpt><trkpt lat="53.35919670392792" lon="14.832105253146288"><ele>31.0</ele><time>2026-04-12T09:28:47.006Z</time></trkpt><trkpt lat="53.359346835834124" lon="14.8319846960215"><ele>31.0</ele><time>2026-04-12T09:28:48.006Z</time></trkpt><trkpt lat="53.35951684408105" lon="14.831826857677765"><ele>30.0</ele><time>2026-04-12T09:28:49.006Z</time></trkpt><trkpt lat="53.35968785469564" lon="14.83169860487898"><ele>29.0</ele><time>2026-04-12T09:28:50.007Z</time></trkpt><trkpt lat="53.35986381916673" lon="14.831550849383017"><ele>28.0</ele><time>2026-04-12T09:28:51.007Z</time></trkpt><trkpt lat="53.36005003309293" lon="14.831414822411983"><ele>27.0</ele><time>2026-04-12T09:28:52.007Z</time></trkpt><trkpt lat="53.36024771588885" lon="14.83127320506595"><ele>26.0</ele><time>2026-04-12T09:28:53.007Z</time></trkpt><trkpt lat="53.36044640412925" lon="14.83112515372222"><ele>25.0</ele><time>2026-04-12T09:28:54.007Z</time></trkpt><trkpt lat="53.36063541329174" lon="14.830978087069488"><ele>25.333333333333336</ele><time>2026-04-12T09:28:55.007Z</time></trkpt><trkpt lat="53.360826988985394" lon="14.830824621526968"><ele>25.666666666666664</ele><time>2026-04-12T09:28:56.007Z</time></trkpt><trkpt lat="53.36101456154138" lon="14.83067509008646"><ele>26.0</ele><time>2026-04-12T09:28:57.007Z</time></trkpt><trkpt lat="53.36121802333638" lon="14.830520373603653"><ele>23.5</ele><time>2026-04-12T09:28:58.007Z</time></trkpt><trkpt lat="53.36142192880941" lon="14.830356309186968"><ele>21.0</ele><time>2026-04-12T09:28:59.007Z</time></trkpt><trkpt lat="53.361624158096994" lon="14.830197153686507"><ele>21.0</ele><time>2026-04-12T09:29:00.007Z</time></trkpt><trkpt lat="53.36181757223167" lon="14.830044936769053"><ele>21.0</ele><time>2026-04-12T09:29:01.007Z</time></trkpt><trkpt lat="53.36200174367322" lon="14.82990145013566"><ele>21.0</ele><time>2026-04-12T09:29:02.007Z</time></trkpt><trkpt lat="53.36218108754297" lon="14.829763953606761"><ele>21.0</ele><time>2026-04-12T09:29:03.007Z</time></trkpt><trkpt lat="53.362356538050236" lon="14.82963355877047"><ele>21.0</ele><time>2026-04-12T09:29:04.007Z</time></trkpt><trkpt lat="53.36251820814357" lon="14.829511725722988"><ele>21.0</ele><time>2026-04-12T09:29:05.007Z</time></trkpt><trkpt lat="53.3626814422723" lon="14.829380234344294"><ele>21.0</ele><time>2026-04-12T09:29:06.007Z</time></trkpt><trkpt lat="53.36284346042112" lon="14.829222284002382"><ele>21.0</ele><time>2026-04-12T09:29:07.007Z</time></trkpt><trkpt lat="53.36298631382182" lon="14.829004156288512"><ele>21.0</ele><time>2026-04-12T09:29:08.007Z</time></trkpt><trkpt lat="53.36311401118175" lon="14.828744414795707"><ele>21.333333333333332</ele><time>2026-04-12T09:29:09.007Z</time></trkpt><trkpt lat="53.36325362725316" lon="14.828503185194252"><ele>21.666666666666664</ele><time>2026-04-12T09:29:10.007Z</time></trkpt><trkpt lat="53.363387003980094" lon="14.828264922486747"><ele>22.0</ele><time>2026-04-12T09:29:11.007Z</time></trkpt><trkpt lat="53.36350752929309" lon="14.828039473650739"><ele>22.0</ele><time>2026-04-12T09:29:12.007Z</time></trkpt><trkpt lat="53.36363441703431" lon="14.827830329093795"><ele>22.0</ele><time>2026-04-12T09:29:13.007Z</time></trkpt><trkpt lat="53.363760720207225" lon="14.827613019364621"><ele>22.0</ele><time>2026-04-12T09:29:14.007Z</time></trkpt><trkpt lat="53.36388964812528" lon="14.827399939635912"><ele>22.0</ele><time>2026-04-12T09:29:15.007Z</time></trkpt><trkpt lat="53.3640223375601" lon="14.82717304009395"><ele>22.0</ele><time>2026-04-12T09:29:16.007Z</time></trkpt><trkpt lat="53.36415242391142" lon="14.826942592039861"><ele>22.0</ele><time>2026-04-12T09:29:17.007Z</time></trkpt><trkpt lat="53.36427362733365" lon="14.82671847050411"><ele>22.0</ele><time>2026-04-12T09:29:18.007Z</time></trkpt><trkpt lat="53.36438950145603" lon="14.826504912075077"><ele>22.0</ele><time>2026-04-12T09:29:19.007Z</time></trkpt><trkpt lat="53.3645038988431" lon="14.826295720153016"><ele>22.0</ele><time>2026-04-12T09:29:20.007Z</time></trkpt><trkpt lat="53.3646114188788" lon="14.826106748882241"><ele>21.75</ele><time>2026-04-12T09:29:21.007Z</time></trkpt><trkpt lat="53.3647148952311" lon="14.82592610462997"><ele>21.5</ele><time>2026-04-12T09:29:22.007Z</time></trkpt><trkpt lat="53.36480531810433" lon="14.82578261523799"><ele>21.25</ele><time>2026-04-12T09:29:23.007Z</time></trkpt><trkpt lat="53.364879822667305" lon="14.82565891323551"><ele>21.0</ele><time>2026-04-12T09:29:24.007Z</time></trkpt><trkpt lat="53.36494525362505" lon="14.825553467278404"><ele>21.0</ele><time>2026-04-12T09:29:25.007Z</time></trkpt><trkpt lat="53.365012904013334" lon="14.825459049893189"><ele>21.0</ele><time>2026-04-12T09:29:26.007Z</time></trkpt><trkpt lat="53.36508717464113" lon="14.82538948309453"><ele>21.0</ele><time>2026-04-12T09:29:27.007Z</time></trkpt><trkpt lat="53.36516050782789" lon="14.825318070071791"><ele>21.0</ele><time>2026-04-12T09:29:28.007Z</time></trkpt><trkpt lat="53.365202873162076" lon="14.825082556408137"><ele>21.0</ele><time>2026-04-12T09:29:29.007Z</time></trkpt><trkpt lat="53.36522021193246" lon="14.8249261079754"><ele>21.0</ele><time>2026-04-12T09:29:30.007Z</time></trkpt><trkpt lat="53.365261231027965" lon="14.82471007745986"><ele>21.0</ele><time>2026-04-12T09:29:31.007Z</time></trkpt><trkpt lat="53.365301555555355" lon="14.824456624514939"><ele>21.0</ele><time>2026-04-12T09:29:32.007Z</time></trkpt><trkpt lat="53.36534570185716" lon="14.824192587383507"><ele>21.333333333333332</ele><time>2026-04-12T09:29:33.007Z</time></trkpt><trkpt lat="53.36538608450045" lon="14.823938221395972"><ele>21.666666666666664</ele><time>2026-04-12T09:29:34.007Z</time></trkpt><trkpt lat="53.36542755117935" lon="14.823706473506476"><ele>22.0</ele><time>2026-04-12T09:29:35.007Z</time></trkpt><trkpt lat="53.36546654610909" lon="14.823454318819492"><ele>22.0</ele><time>2026-04-12T09:29:36.008Z</time></trkpt><trkpt lat="53.365496140457466" lon="14.823209539361464"><ele>22.0</ele><time>2026-04-12T09:29:37.008Z</time></trkpt><trkpt lat="53.365531820973" lon="14.822969488124771"><ele>22.0</ele><time>2026-04-12T09:29:38.008Z</time></trkpt><trkpt lat="53.36557701040425" lon="14.822705866283162"><ele>22.0</ele><time>2026-04-12T09:29:39.008Z</time></trkpt><trkpt lat="53.36561891018661" lon="14.822434198749072"><ele>22.0</ele><time>2026-04-12T09:29:40.008Z</time></trkpt><trkpt lat="53.3656591345643" lon="14.822145848199428"><ele>22.0</ele><time>2026-04-12T09:29:41.008Z</time></trkpt><trkpt lat="53.36569921567939" lon="14.821842427296476"><ele>22.333333333333332</ele><time>2026-04-12T09:29:42.008Z</time></trkpt><trkpt lat="53.36575809780486" lon="14.8215352480957"><ele>22.666666666666668</ele><time>2026-04-12T09:29:43.008Z</time></trkpt><trkpt lat="53.36580113283442" lon="14.821240993248662"><ele>23.0</ele><time>2026-04-12T09:29:44.008Z</time></trkpt><trkpt lat="53.36585392908522" lon="14.820931300085514"><ele>23.0</ele><time>2026-04-12T09:29:45.008Z</time></trkpt><trkpt lat="53.36590800578793" lon="14.820672812261563"><ele>23.0</ele><time>2026-04-12T09:29:46.008Z</time></trkpt><trkpt lat="53.3659515958254" lon="14.820407557354935"><ele>23.0</ele><time>2026-04-12T09:29:47.008Z</time></trkpt><trkpt lat="53.365995332626156" lon="14.820164033671094"><ele>22.75</ele><time>2026-04-12T09:29:48.008Z</time></trkpt><trkpt lat="53.366038770930786" lon="14.819918708554624"><ele>22.5</ele><time>2026-04-12T09:29:49.008Z</time></trkpt><trkpt lat="53.36607967985184" lon="14.81967915947256"><ele>22.25</ele><time>2026-04-12T09:29:50.008Z</time></trkpt><trkpt lat="53.366123667235364" lon="14.81946075222652"><ele>22.0</ele><time>2026-04-12T09:29:51.008Z</time></trkpt><trkpt lat="53.366161376236" lon="14.819243507080683"><ele>22.0</ele><time>2026-04-12T09:29:52.008Z</time></trkpt><trkpt lat="53.36619265580637" lon="14.819066708604641"><ele>22.0</ele><time>2026-04-12T09:29:53.008Z</time></trkpt><trkpt lat="53.36622795065468" lon="14.818884420408853"><ele>22.0</ele><time>2026-04-12T09:29:54.008Z</time></trkpt><trkpt lat="53.36626442069822" lon="14.818673083519743"><ele>22.0</ele><time>2026-04-12T09:29:55.008Z</time></trkpt><trkpt lat="53.366315932536295" lon="14.818420776583629"><ele>21.333333333333332</ele><time>2026-04-12T09:29:56.008Z</time></trkpt><trkpt lat="53.36637822478569" lon="14.818147354127403"><ele>20.666666666666668</ele><time>2026-04-12T09:29:57.008Z</time></trkpt><trkpt lat="53.36645162808453" lon="14.817866891630587"><ele>20.0</ele><time>2026-04-12T09:29:58.008Z</time></trkpt><trkpt lat="53.366532852423106" lon="14.817611343908604"><ele>21.333333333333336</ele><time>2026-04-12T09:29:59.008Z</time></trkpt><trkpt lat="53.366632350543895" lon="14.817335715481004"><ele>22.666666666666668</ele><time>2026-04-12T09:30:00.008Z</time></trkpt><trkpt lat="53.3667402607838" lon="14.817083454169767"><ele>24.0</ele><time>2026-04-12T09:30:01.008Z</time></trkpt><trkpt lat="53.366853681745866" lon="14.816818752594605"><ele>25.666666666666664</ele><time>2026-04-12T09:30:02.008Z</time></trkpt><trkpt lat="53.36696807839641" lon="14.816520253695503"><ele>27.333333333333332</ele><time>2026-04-12T09:30:03.008Z</time></trkpt><trkpt lat="53.367079518761436" lon="14.816259997347464"><ele>29.0</ele><time>2026-04-12T09:30:04.008Z</time></trkpt><trkpt lat="53.3671887528576" lon="14.815984493275055"><ele>28.666666666666664</ele><time>2026-04-12T09:30:05.008Z</time></trkpt><trkpt lat="53.36730383896844" lon="14.815699694589542"><ele>28.333333333333336</ele><time>2026-04-12T09:30:06.008Z</time></trkpt><trkpt lat="53.3674327974603" lon="14.81543226336028"><ele>28.0</ele><time>2026-04-12T09:30:07.008Z</time></trkpt><trkpt lat="53.36754909627569" lon="14.815150388985966"><ele>28.0</ele><time>2026-04-12T09:30:08.008Z</time></trkpt><trkpt lat="53.367647961179884" lon="14.814863128344975"><ele>28.0</ele><time>2026-04-12T09:30:09.008Z</time></trkpt><trkpt lat="53.36777156020294" lon="14.814578800920481"><ele>28.0</ele><time>2026-04-12T09:30:10.008Z</time></trkpt><trkpt lat="53.367894560306496" lon="14.814281429261019"><ele>28.333333333333336</ele><time>2026-04-12T09:30:11.008Z</time></trkpt><trkpt lat="53.3680152105781" lon="14.81399633128957"><ele>28.666666666666664</ele><time>2026-04-12T09:30:12.008Z</time></trkpt><trkpt lat="53.368135766244116" lon="14.813705671491832"><ele>29.0</ele><time>2026-04-12T09:30:13.008Z</time></trkpt><trkpt lat="53.36823945991439" lon="14.81345203994707"><ele>28.666666666666664</ele><time>2026-04-12T09:30:14.008Z</time></trkpt><trkpt lat="53.36835759598778" lon="14.813165428604014"><ele>28.333333333333336</ele><time>2026-04-12T09:30:15.008Z</time></trkpt><trkpt lat="53.3684752946451" lon="14.812889629081866"><ele>28.0</ele><time>2026-04-12T09:30:16.008Z</time></trkpt><trkpt lat="53.36858801585349" lon="14.812633139879473"><ele>28.0</ele><time>2026-04-12T09:30:17.008Z</time></trkpt><trkpt lat="53.368702281174016" lon="14.812354830604717"><ele>28.0</ele><time>2026-04-12T09:30:18.008Z</time></trkpt><trkpt lat="53.36881494992673" lon="14.812069329101119"><ele>28.0</ele><time>2026-04-12T09:30:19.008Z</time></trkpt><trkpt lat="53.36892072076068" lon="14.81179048900177"><ele>26.333333333333336</ele><time>2026-04-12T09:30:20.008Z</time></trkpt><trkpt lat="53.36904637589918" lon="14.811523384846671"><ele>24.666666666666668</ele><time>2026-04-12T09:30:21.008Z</time></trkpt><trkpt lat="53.36915684779027" lon="14.811253963768761"><ele>23.0</ele><time>2026-04-12T09:30:22.008Z</time></trkpt><trkpt lat="53.36926278366417" lon="14.810996792794501"><ele>23.333333333333336</ele><time>2026-04-12T09:30:23.008Z</time></trkpt><trkpt lat="53.36937252678624" lon="14.81073017964593"><ele>23.666666666666668</ele><time>2026-04-12T09:30:24.008Z</time></trkpt><trkpt lat="53.36947390626449" lon="14.810484044900726"><ele>24.0</ele><time>2026-04-12T09:30:25.008Z</time></trkpt><trkpt lat="53.36958270904746" lon="14.810219443816834"><ele>23.0</ele><time>2026-04-12T09:30:26.009Z</time></trkpt><trkpt lat="53.369695791183744" lon="14.809945001859038"><ele>22.0</ele><time>2026-04-12T09:30:27.009Z</time></trkpt><trkpt lat="53.3698120139526" lon="14.809662466709725"><ele>21.0</ele><time>2026-04-12T09:30:28.009Z</time></trkpt><trkpt lat="53.369924176040165" lon="14.809390185031347"><ele>21.333333333333332</ele><time>2026-04-12T09:30:29.009Z</time></trkpt><trkpt lat="53.370016057848176" lon="14.809114848526649"><ele>21.666666666666664</ele><time>2026-04-12T09:30:30.009Z</time></trkpt><trkpt lat="53.37011993425941" lon="14.80889128842063"><ele>22.0</ele><time>2026-04-12T09:30:31.009Z</time></trkpt><trkpt lat="53.37020427072257" lon="14.808637225662759"><ele>22.333333333333332</ele><time>2026-04-12T09:30:32.009Z</time></trkpt><trkpt lat="53.37030199965138" lon="14.808420957172494"><ele>22.666666666666668</ele><time>2026-04-12T09:30:33.009Z</time></trkpt><trkpt lat="53.37039098248004" lon="14.808193861701923"><ele>23.0</ele><time>2026-04-12T09:30:34.009Z</time></trkpt><trkpt lat="53.370475997335554" lon="14.80794261470522"><ele>22.333333333333336</ele><time>2026-04-12T09:30:35.009Z</time></trkpt><trkpt lat="53.37054351146585" lon="14.807660640227514"><ele>21.666666666666668</ele><time>2026-04-12T09:30:36.009Z</time></trkpt><trkpt lat="53.37061790651857" lon="14.80736950170646"><ele>21.0</ele><time>2026-04-12T09:30:37.009Z</time></trkpt><trkpt lat="53.37069607365008" lon="14.80707132032284"><ele>22.0</ele><time>2026-04-12T09:30:38.009Z</time></trkpt><trkpt lat="53.37078688123626" lon="14.80676906823042"><ele>23.0</ele><time>2026-04-12T09:30:39.009Z</time></trkpt><trkpt lat="53.37091377199822" lon="14.806504368155508"><ele>24.0</ele><time>2026-04-12T09:30:40.009Z</time></trkpt><trkpt lat="53.37105159301549" lon="14.80624783435597"><ele>24.0</ele><time>2026-04-12T09:30:41.009Z</time></trkpt><trkpt lat="53.37121666023545" lon="14.806032035507348"><ele>24.0</ele><time>2026-04-12T09:30:42.009Z</time></trkpt><trkpt lat="53.371406995526215" lon="14.80581938476582"><ele>24.0</ele><time>2026-04-12T09:30:43.009Z</time></trkpt><trkpt lat="53.37160741203521" lon="14.805588035499536"><ele>24.0</ele><time>2026-04-12T09:30:44.007Z</time></trkpt><trkpt lat="53.371821732914064" lon="14.805355786854664"><ele>24.0</ele><time>2026-04-12T09:30:45.007Z</time></trkpt><trkpt lat="53.372023167204524" lon="14.805083030954261"><ele>23.333333333333332</ele><time>2026-04-12T09:30:46.007Z</time></trkpt><trkpt lat="53.37218562688144" lon="14.804838964165608"><ele>22.666666666666664</ele><time>2026-04-12T09:30:47.008Z</time></trkpt><trkpt lat="53.37231506845331" lon="14.804639445477212"><ele>22.0</ele><time>2026-04-12T09:30:48.008Z</time></trkpt><trkpt lat="53.37242293504397" lon="14.804474830466852"><ele>23.75</ele><time>2026-04-12T09:30:49.008Z</time></trkpt><trkpt lat="53.372540245376555" lon="14.804317825387868"><ele>25.5</ele><time>2026-04-12T09:30:50.008Z</time></trkpt><trkpt lat="53.37264025615961" lon="14.80417444828609"><ele>27.25</ele><time>2026-04-12T09:30:51.008Z</time></trkpt><trkpt lat="53.37275202055811" lon="14.804015987767409"><ele>29.0</ele><time>2026-04-12T09:30:52.008Z</time></trkpt><trkpt lat="53.372877097657415" lon="14.803851624559737"><ele>29.0</ele><time>2026-04-12T09:30:53.008Z</time></trkpt><trkpt lat="53.373003272849886" lon="14.803662724492616"><ele>29.0</ele><time>2026-04-12T09:30:54.008Z</time></trkpt><trkpt lat="53.373137361589855" lon="14.803464964822977"><ele>29.0</ele><time>2026-04-12T09:30:55.008Z</time></trkpt><trkpt lat="53.373261280930116" lon="14.803260076280752"><ele>28.666666666666664</ele><time>2026-04-12T09:30:56.007Z</time></trkpt><trkpt lat="53.37337481828367" lon="14.803054887602796"><ele>28.333333333333336</ele><time>2026-04-12T09:30:57.008Z</time></trkpt><trkpt lat="53.37348518400945" lon="14.802845964499236"><ele>28.0</ele><time>2026-04-12T09:30:58.008Z</time></trkpt><trkpt lat="53.373594954737214" lon="14.80262108780655"><ele>27.333333333333336</ele><time>2026-04-12T09:30:59.008Z</time></trkpt><trkpt lat="53.373698116992905" lon="14.802386082868972"><ele>26.666666666666664</ele><time>2026-04-12T09:31:00.008Z</time></trkpt><trkpt lat="53.373797941909444" lon="14.80214052728017"><ele>26.0</ele><time>2026-04-12T09:31:01.008Z</time></trkpt><trkpt lat="53.373895304602264" lon="14.801873954831798"><ele>27.666666666666664</ele><time>2026-04-12T09:31:02.008Z</time></trkpt><trkpt lat="53.374003918918156" lon="14.801613924739236"><ele>29.333333333333336</ele><time>2026-04-12T09:31:03.008Z</time></trkpt><trkpt lat="53.374106690917344" lon="14.80133547842692"><ele>31.0</ele><time>2026-04-12T09:31:04.008Z</time></trkpt><trkpt lat="53.37420689520015" lon="14.801047905208861"><ele>31.333333333333336</ele><time>2026-04-12T09:31:05.008Z</time></trkpt><trkpt lat="53.374310850774926" lon="14.800736538880495"><ele>31.666666666666664</ele><time>2026-04-12T09:31:06.008Z</time></trkpt><trkpt lat="53.37441707943818" lon="14.800410341433151"><ele>32.0</ele><time>2026-04-12T09:31:07.008Z</time></trkpt><trkpt lat="53.37452611652207" lon="14.800070758289804"><ele>32.5</ele><time>2026-04-12T09:31:08.008Z</time></trkpt><trkpt lat="53.374637726948436" lon="14.799731113402842"><ele>33.0</ele><time>2026-04-12T09:31:09.008Z</time></trkpt><trkpt lat="53.374746247731366" lon="14.799407685672975"><ele>31.333333333333336</ele><time>2026-04-12T09:31:10.008Z</time></trkpt><trkpt lat="53.374849480473266" lon="14.79909930158296"><ele>29.666666666666668</ele><time>2026-04-12T09:31:11.008Z</time></trkpt><trkpt lat="53.374947383670694" lon="14.798811030643312"><ele>28.0</ele><time>2026-04-12T09:31:12.008Z</time></trkpt><trkpt lat="53.37504113814282" lon="14.798534028928378"><ele>28.666666666666668</ele><time>2026-04-12T09:31:13.008Z</time></trkpt><trkpt lat="53.3751354492533" lon="14.798257755234927"><ele>29.333333333333336</ele><time>2026-04-12T09:31:14.008Z</time></trkpt><trkpt lat="53.375230447361744" lon="14.79798307792772"><ele>30.0</ele><time>2026-04-12T09:31:15.008Z</time></trkpt><trkpt lat="53.375325676121086" lon="14.797707829050873"><ele>30.333333333333336</ele><time>2026-04-12T09:31:16.008Z</time></trkpt><trkpt lat="53.37541627915976" lon="14.797451185742545"><ele>30.666666666666668</ele><time>2026-04-12T09:31:17.008Z</time></trkpt><trkpt lat="53.37550290130989" lon="14.79722513278804"><ele>31.0</ele><time>2026-04-12T09:31:18.008Z</time></trkpt><trkpt lat="53.375589885654676" lon="14.797011733761169"><ele>30.5</ele><time>2026-04-12T09:31:19.008Z</time></trkpt><trkpt lat="53.37566781349997" lon="14.796811106676689"><ele>30.0</ele><time>2026-04-12T09:31:20.008Z</time></trkpt><trkpt lat="53.37576773097767" lon="14.796646801173111"><ele>29.5</ele><time>2026-04-12T09:31:21.008Z</time></trkpt><trkpt lat="53.37582832892721" lon="14.796504819141413"><ele>29.0</ele><time>2026-04-12T09:31:22.008Z</time></trkpt><trkpt lat="53.37613749727517" lon="14.795897269412325"><ele>29.0</ele><time>2026-04-12T09:31:23.008Z</time></trkpt><trkpt lat="53.37625516460529" lon="14.795724859819607"><ele>29.0</ele><time>2026-04-12T09:31:24.008Z</time></trkpt><trkpt lat="53.376357766007935" lon="14.795577560779083"><ele>29.0</ele><time>2026-04-12T09:31:25.008Z</time></trkpt><trkpt lat="53.37645148587522" lon="14.795441916615854"><ele>29.0</ele><time>2026-04-12T09:31:26.008Z</time></trkpt><trkpt lat="53.37653278181662" lon="14.795320281450831"><ele>28.666666666666664</ele><time>2026-04-12T09:31:27.008Z</time></trkpt><trkpt lat="53.3766091426991" lon="14.795205104951867"><ele>28.333333333333332</ele><time>2026-04-12T09:31:28.008Z</time></trkpt><trkpt lat="53.37666570768547" lon="14.795119809909542"><ele>28.0</ele><time>2026-04-12T09:31:29.008Z</time></trkpt><trkpt lat="53.37671914491142" lon="14.795000260226749"><ele>27.666666666666664</ele><time>2026-04-12T09:31:31.008Z</time></trkpt><trkpt lat="53.37678501544363" lon="14.7949966965399"><ele>27.333333333333332</ele><time>2026-04-12T09:31:33.008Z</time></trkpt><trkpt lat="53.37679551244782" lon="14.794872085592207"><ele>27.0</ele><time>2026-04-12T09:33:14.009Z</time></trkpt><trkpt lat="53.37687621576331" lon="14.794761433008"><ele>27.0</ele><time>2026-04-12T09:33:16.009Z</time></trkpt><trkpt lat="53.37693267208192" lon="14.794700908835354"><ele>27.000000000000004</ele><time>2026-04-12T09:33:17.009Z</time></trkpt><trkpt lat="53.37696652373611" lon="14.794611864855101"><ele>27.000000000000004</ele><time>2026-04-12T09:33:18.009Z</time></trkpt><trkpt lat="53.377040755441875" lon="14.794457460162793"><ele>27.0</ele><time>2026-04-12T09:33:20.009Z</time></trkpt><trkpt lat="53.37708667427137" lon="14.79432699705908"><ele>27.0</ele><time>2026-04-12T09:33:22.009Z</time></trkpt><trkpt lat="53.37714968721115" lon="14.794147555097702"><ele>27.6</ele><time>2026-04-12T09:33:24.009Z</time></trkpt><trkpt lat="53.37718246207036" lon="14.794036185938376"><ele>28.200000000000003</ele><time>2026-04-12T09:33:25.009Z</time></trkpt><trkpt lat="53.377206813657146" lon="14.793908094710345"><ele>28.8</ele><time>2026-04-12T09:33:26.009Z</time></trkpt><trkpt lat="53.3772262265924" lon="14.793766870806973"><ele>29.4</ele><time>2026-04-12T09:33:27.009Z</time></trkpt><trkpt lat="53.37724646137887" lon="14.793580932430114"><ele>30.0</ele><time>2026-04-12T09:33:28.009Z</time></trkpt><trkpt lat="53.37727701494459" lon="14.793420508511609"><ele>30.0</ele><time>2026-04-12T09:33:29.009Z</time></trkpt><trkpt lat="53.37730870700007" lon="14.793269714751903"><ele>30.0</ele><time>2026-04-12T09:33:30.009Z</time></trkpt><trkpt lat="53.3773335017017" lon="14.793052704221902"><ele>30.0</ele><time>2026-04-12T09:33:32.009Z</time></trkpt><trkpt lat="53.37735641459021" lon="14.792882761085778"><ele>30.0</ele><time>2026-04-12T09:33:33.009Z</time></trkpt><trkpt lat="53.37796734521394" lon="14.792674299812187"><ele>29.75</ele><time>2026-04-12T09:33:34.01Z</time></trkpt><trkpt lat="53.378052272726066" lon="14.79242392923681"><ele>29.5</ele><time>2026-04-12T09:33:35.01Z</time></trkpt><trkpt lat="53.37811980377434" lon="14.792228768497086"><ele>29.25</ele><time>2026-04-12T09:33:36.01Z</time></trkpt><trkpt lat="53.37820076146871" lon="14.79204211842432"><ele>29.0</ele><time>2026-04-12T09:33:37.01Z</time></trkpt><trkpt lat="53.37827374132751" lon="14.791869062819838"><ele>29.0</ele><time>2026-04-12T09:33:38.01Z</time></trkpt><trkpt lat="53.37836292583488" lon="14.791699256620227"><ele>29.0</ele><time>2026-04-12T09:33:39.01Z</time></trkpt><trkpt lat="53.37844050760802" lon="14.791511437654085"><ele>29.0</ele><time>2026-04-12T09:33:40.01Z</time></trkpt><trkpt lat="53.378518275494635" lon="14.791298628052276"><ele>29.0</ele><time>2026-04-12T09:33:41.01Z</time></trkpt><trkpt lat="53.378592511126364" lon="14.791095817604923"><ele>29.0</ele><time>2026-04-12T09:33:42.01Z</time></trkpt><trkpt lat="53.37866457181412" lon="14.790885790416228"><ele>29.0</ele><time>2026-04-12T09:33:43.01Z</time></trkpt><trkpt lat="53.37872659676304" lon="14.790702161017032"><ele>29.0</ele><time>2026-04-12T09:33:44.01Z</time></trkpt><trkpt lat="53.37881066815071" lon="14.790492132993005"><ele>29.0</ele><time>2026-04-12T09:33:45.01Z</time></trkpt><trkpt lat="53.37888509506235" lon="14.790318411623309"><ele>29.25</ele><time>2026-04-12T09:33:46.01Z</time></trkpt><trkpt lat="53.37895880091748" lon="14.790149747782415"><ele>29.5</ele><time>2026-04-12T09:33:47.01Z</time></trkpt><trkpt lat="53.37900312644815" lon="14.789991862246595"><ele>29.75</ele><time>2026-04-12T09:33:48.01Z</time></trkpt><trkpt lat="53.37902540968526" lon="14.789804796247765"><ele>30.0</ele><time>2026-04-12T09:33:49.01Z</time></trkpt><trkpt lat="53.3790468446749" lon="14.789581646367798"><ele>30.0</ele><time>2026-04-12T09:33:50.01Z</time></trkpt><trkpt lat="53.37906783113315" lon="14.789379953079388"><ele>30.0</ele><time>2026-04-12T09:33:51.01Z</time></trkpt><trkpt lat="53.379077815806994" lon="14.78919263260005"><ele>30.0</ele><time>2026-04-12T09:33:52.01Z</time></trkpt><trkpt lat="53.37909544385771" lon="14.789021858659028"><ele>30.0</ele><time>2026-04-12T09:33:53.01Z</time></trkpt><trkpt lat="53.37913859896756" lon="14.788819636918777"><ele>29.75</ele><time>2026-04-12T09:33:54.01Z</time></trkpt><trkpt lat="53.37920633182132" lon="14.788594250243227"><ele>29.5</ele><time>2026-04-12T09:33:55.01Z</time></trkpt><trkpt lat="53.37927463603627" lon="14.788385402630079"><ele>29.25</ele><time>2026-04-12T09:33:56.01Z</time></trkpt><trkpt lat="53.37933291620156" lon="14.788151118196536"><ele>29.0</ele><time>2026-04-12T09:33:57.01Z</time></trkpt><trkpt lat="53.37938877016568" lon="14.78787883415872"><ele>29.0</ele><time>2026-04-12T09:33:58.01Z</time></trkpt><trkpt lat="53.37942928068169" lon="14.787646188698691"><ele>29.0</ele><time>2026-04-12T09:33:59.01Z</time></trkpt><trkpt lat="53.37946581452318" lon="14.787404720990668"><ele>29.0</ele><time>2026-04-12T09:34:00.01Z</time></trkpt><trkpt lat="53.37949554620283" lon="14.787160840540652"><ele>29.0</ele><time>2026-04-12T09:34:01.01Z</time></trkpt><trkpt lat="53.37952546135043" lon="14.786910897304516"><ele>28.75</ele><time>2026-04-12T09:34:02.01Z</time></trkpt><trkpt lat="53.37956895221326" lon="14.786671902766052"><ele>28.5</ele><time>2026-04-12T09:34:03.01Z</time></trkpt><trkpt lat="53.379615566372145" lon="14.78642686184209"><ele>28.25</ele><time>2026-04-12T09:34:04.01Z</time></trkpt><trkpt lat="53.37965930996371" lon="14.78623316406167"><ele>28.0</ele><time>2026-04-12T09:34:05.01Z</time></trkpt><trkpt lat="53.37970508052499" lon="14.786046679320359"><ele>27.75</ele><time>2026-04-12T09:34:06.01Z</time></trkpt><trkpt lat="53.379756844711174" lon="14.785822862334767"><ele>27.5</ele><time>2026-04-12T09:34:07.01Z</time></trkpt><trkpt lat="53.37981956105788" lon="14.785589440127259"><ele>27.25</ele><time>2026-04-12T09:34:08.01Z</time></trkpt><trkpt lat="53.37989088442365" lon="14.785388717774405"><ele>27.0</ele><time>2026-04-12T09:34:09.01Z</time></trkpt><trkpt lat="53.37994362834121" lon="14.785214222656954"><ele>27.5</ele><time>2026-04-12T09:34:10.01Z</time></trkpt><trkpt lat="53.37998167928554" lon="14.785029152358657"><ele>28.0</ele><time>2026-04-12T09:34:11.01Z</time></trkpt><trkpt lat="53.37998258914438" lon="14.784843116275852"><ele>28.5</ele><time>2026-04-12T09:34:12.01Z</time></trkpt><trkpt lat="53.38001156308934" lon="14.784632790918625"><ele>29.0</ele><time>2026-04-12T09:34:13.01Z</time></trkpt><trkpt lat="53.38000976506606" lon="14.784414917294448"><ele>29.0</ele><time>2026-04-12T09:34:14.01Z</time></trkpt><trkpt lat="53.380017618403045" lon="14.784180383785653"><ele>29.0</ele><time>2026-04-12T09:34:15.01Z</time></trkpt><trkpt lat="53.380037434892394" lon="14.784005998642773"><ele>29.0</ele><time>2026-04-12T09:34:16.01Z</time></trkpt><trkpt lat="53.38007631586171" lon="14.783833673265992"><ele>29.0</ele><time>2026-04-12T09:34:17.01Z</time></trkpt><trkpt lat="53.38013119182016" lon="14.78368768639377"><ele>29.0</ele><time>2026-04-12T09:34:18.01Z</time></trkpt><trkpt lat="53.38020847878556" lon="14.783525676873028"><ele>29.0</ele><time>2026-04-12T09:34:19.01Z</time></trkpt><trkpt lat="53.38029553404298" lon="14.783342579058687"><ele>29.0</ele><time>2026-04-12T09:34:20.01Z</time></trkpt><trkpt lat="53.380359907182466" lon="14.783109621851079"><ele>29.0</ele><time>2026-04-12T09:34:21.01Z</time></trkpt><trkpt lat="53.38041670965582" lon="14.782908420123778"><ele>28.5</ele><time>2026-04-12T09:34:22.01Z</time></trkpt><trkpt lat="53.38047269866594" lon="14.782705564435714"><ele>28.0</ele><time>2026-04-12T09:34:23.01Z</time></trkpt><trkpt lat="53.380530928642955" lon="14.782507499247806"><ele>27.5</ele><time>2026-04-12T09:34:24.011Z</time></trkpt><trkpt lat="53.38059676911028" lon="14.782338211158343"><ele>27.0</ele><time>2026-04-12T09:34:25.011Z</time></trkpt><trkpt lat="53.38067338365128" lon="14.78215036475096"><ele>26.75</ele><time>2026-04-12T09:34:26.011Z</time></trkpt><trkpt lat="53.38073983762963" lon="14.781962728303974"><ele>26.5</ele><time>2026-04-12T09:34:27.011Z</time></trkpt><trkpt lat="53.380796213655934" lon="14.781765216961446"><ele>26.25</ele><time>2026-04-12T09:34:28.011Z</time></trkpt><trkpt lat="53.38082392993273" lon="14.781557104717233"><ele>26.0</ele><time>2026-04-12T09:34:29.011Z</time></trkpt><trkpt lat="53.38084056502791" lon="14.781296872094716"><ele>26.0</ele><time>2026-04-12T09:34:30.011Z</time></trkpt><trkpt lat="53.38086726112179" lon="14.781074416114059"><ele>26.0</ele><time>2026-04-12T09:34:31.011Z</time></trkpt><trkpt lat="53.38088947406527" lon="14.780826131369201"><ele>26.0</ele><time>2026-04-12T09:34:32.011Z</time></trkpt><trkpt lat="53.380909609769205" lon="14.78058892301478"><ele>26.0</ele><time>2026-04-12T09:34:33.011Z</time></trkpt><trkpt lat="53.38094651042564" lon="14.7803790372141"><ele>26.0</ele><time>2026-04-12T09:34:34.011Z</time></trkpt><trkpt lat="53.38096745435068" lon="14.780152304849262"><ele>26.0</ele><time>2026-04-12T09:34:35.011Z</time></trkpt><trkpt lat="53.380986441543996" lon="14.779925580029316"><ele>26.0</ele><time>2026-04-12T09:34:36.011Z</time></trkpt><trkpt lat="53.381010760065685" lon="14.779661295349763"><ele>26.0</ele><time>2026-04-12T09:34:37.011Z</time></trkpt><trkpt lat="53.3810383416596" lon="14.779391908667472"><ele>26.25</ele><time>2026-04-12T09:34:38.011Z</time></trkpt><trkpt lat="53.381064744559" lon="14.779104851930681"><ele>26.5</ele><time>2026-04-12T09:34:39.011Z</time></trkpt><trkpt lat="53.381088888413956" lon="14.778893208227387"><ele>26.75</ele><time>2026-04-12T09:34:40.011Z</time></trkpt><trkpt lat="53.38111523588109" lon="14.778685484267882"><ele>27.0</ele><time>2026-04-12T09:34:41.011Z</time></trkpt><trkpt lat="53.38113279259839" lon="14.778449991027111"><ele>27.0</ele><time>2026-04-12T09:34:42.011Z</time></trkpt><trkpt lat="53.381138966277305" lon="14.778220205558915"><ele>27.0</ele><time>2026-04-12T09:34:43.011Z</time></trkpt><trkpt lat="53.38114870643999" lon="14.777984195984885"><ele>27.0</ele><time>2026-04-12T09:34:44.011Z</time></trkpt><trkpt lat="53.38116930023213" lon="14.77774208666381"><ele>27.0</ele><time>2026-04-12T09:34:45.011Z</time></trkpt><trkpt lat="53.38118966966312" lon="14.777505557680433"><ele>26.333333333333336</ele><time>2026-04-12T09:34:46.011Z</time></trkpt><trkpt lat="53.38121535948545" lon="14.777267151390069"><ele>25.666666666666668</ele><time>2026-04-12T09:34:47.011Z</time></trkpt><trkpt lat="53.38124683386396" lon="14.776999066414552"><ele>25.0</ele><time>2026-04-12T09:34:48.011Z</time></trkpt><trkpt lat="53.38127272667484" lon="14.776747082541398"><ele>25.0</ele><time>2026-04-12T09:34:49.011Z</time></trkpt><trkpt lat="53.3812971905629" lon="14.776484488433688"><ele>25.0</ele><time>2026-04-12T09:34:50.011Z</time></trkpt><trkpt lat="53.381322669141724" lon="14.776238319848058"><ele>25.0</ele><time>2026-04-12T09:34:51.011Z</time></trkpt><trkpt lat="53.38134622855166" lon="14.775993705211857"><ele>23.666666666666668</ele><time>2026-04-12T09:34:52.011Z</time></trkpt><trkpt lat="53.38137941590761" lon="14.775753631060518"><ele>22.333333333333336</ele><time>2026-04-12T09:34:53.011Z</time></trkpt><trkpt lat="53.38140982013915" lon="14.775506314064566"><ele>21.0</ele><time>2026-04-12T09:34:54.011Z</time></trkpt><trkpt lat="53.381439743648535" lon="14.77524717727721"><ele>22.25</ele><time>2026-04-12T09:34:55.011Z</time></trkpt><trkpt lat="53.38146356688914" lon="14.775021576725566"><ele>23.5</ele><time>2026-04-12T09:34:56.01Z</time></trkpt><trkpt lat="53.38149042215057" lon="14.774777340060284"><ele>24.75</ele><time>2026-04-12T09:34:57.011Z</time></trkpt><trkpt lat="53.381515682624986" lon="14.77452229875352"><ele>26.0</ele><time>2026-04-12T09:34:58.011Z</time></trkpt><trkpt lat="53.3815402360121" lon="14.774268515517408"><ele>27.0</ele><time>2026-04-12T09:34:59.011Z</time></trkpt><trkpt lat="53.3815669695521" lon="14.773987801468532"><ele>28.0</ele><time>2026-04-12T09:35:00.01Z</time></trkpt><trkpt lat="53.38160257327149" lon="14.773712879508098"><ele>29.0</ele><time>2026-04-12T09:35:01.01Z</time></trkpt><trkpt lat="53.381630093841885" lon="14.77347304085045"><ele>29.0</ele><time>2026-04-12T09:35:02.011Z</time></trkpt><trkpt lat="53.381648194804626" lon="14.77326635970297"><ele>29.0</ele><time>2026-04-12T09:35:03.01Z</time></trkpt><trkpt lat="53.38166484534109" lon="14.773051095926206"><ele>29.0</ele><time>2026-04-12T09:35:04.01Z</time></trkpt><trkpt lat="53.38169080761579" lon="14.772842397926363"><ele>29.0</ele><time>2026-04-12T09:35:05.01Z</time></trkpt><trkpt lat="53.381717874206814" lon="14.772650185638105"><ele>28.75</ele><time>2026-04-12T09:35:06.011Z</time></trkpt><trkpt lat="53.381734744740264" lon="14.772466049632186"><ele>28.5</ele><time>2026-04-12T09:35:07.011Z</time></trkpt><trkpt lat="53.38175532140919" lon="14.772262297717262"><ele>28.25</ele><time>2026-04-12T09:35:08.011Z</time></trkpt><trkpt lat="53.38178589540345" lon="14.772058314762585"><ele>28.0</ele><time>2026-04-12T09:35:09.01Z</time></trkpt><trkpt lat="53.381799265045274" lon="14.771847417041547"><ele>27.25</ele><time>2026-04-12T09:35:10.01Z</time></trkpt><trkpt lat="53.38181873456979" lon="14.771623825050508"><ele>26.5</ele><time>2026-04-12T09:35:11.01Z</time></trkpt><trkpt lat="53.381838402713406" lon="14.771389351637291"><ele>25.75</ele><time>2026-04-12T09:35:12.01Z</time></trkpt><trkpt lat="53.38185987066206" lon="14.771153066110392"><ele>25.0</ele><time>2026-04-12T09:35:13.01Z</time></trkpt><trkpt lat="53.381894059240814" lon="14.770940977816156"><ele>25.0</ele><time>2026-04-12T09:35:14.01Z</time></trkpt><trkpt lat="53.381904928260894" lon="14.770739091017024"><ele>25.0</ele><time>2026-04-12T09:35:15.01Z</time></trkpt><trkpt lat="53.38190844370173" lon="14.770571041987806"><ele>25.0</ele><time>2026-04-12T09:35:16.01Z</time></trkpt><trkpt lat="53.38191040134599" lon="14.770364034689727"><ele>25.0</ele><time>2026-04-12T09:35:17.01Z</time></trkpt><trkpt lat="53.38190826127039" lon="14.770157669418516"><ele>25.5</ele><time>2026-04-12T09:35:18.01Z</time></trkpt><trkpt lat="53.38192395443687" lon="14.769945437020198"><ele>26.0</ele><time>2026-04-12T09:35:19.01Z</time></trkpt><trkpt lat="53.38195091013028" lon="14.769715865787173"><ele>26.5</ele><time>2026-04-12T09:35:20.01Z</time></trkpt><trkpt lat="53.381976539304674" lon="14.769466386263797"><ele>27.0</ele><time>2026-04-12T09:35:21.01Z</time></trkpt><trkpt lat="53.381990467038364" lon="14.76919760140672"><ele>27.0</ele><time>2026-04-12T09:35:22.01Z</time></trkpt><trkpt lat="53.38198519206485" lon="14.768975241610123"><ele>27.000000000000004</ele><time>2026-04-12T09:35:23.01Z</time></trkpt><trkpt lat="53.381986256979275" lon="14.768799013056272"><ele>27.000000000000004</ele><time>2026-04-12T09:35:24.01Z</time></trkpt><trkpt lat="53.381985393988366" lon="14.768629574118158"><ele>27.0</ele><time>2026-04-12T09:35:25.01Z</time></trkpt><trkpt lat="53.382001273584585" lon="14.768483672422786"><ele>27.0</ele><time>2026-04-12T09:35:26.01Z</time></trkpt><trkpt lat="53.382055276763076" lon="14.76831495501909"><ele>27.25</ele><time>2026-04-12T09:35:27.01Z</time></trkpt><trkpt lat="53.38212421634456" lon="14.768167077692155"><ele>27.5</ele><time>2026-04-12T09:35:28.01Z</time></trkpt><trkpt lat="53.38221432729227" lon="14.76800820666395"><ele>27.75</ele><time>2026-04-12T09:35:29.01Z</time></trkpt><trkpt lat="53.38228389678747" lon="14.767815491887479"><ele>28.0</ele><time>2026-04-12T09:35:30.01Z</time></trkpt><trkpt lat="53.38233391351211" lon="14.767619875366076"><ele>25.75</ele><time>2026-04-12T09:35:31.01Z</time></trkpt><trkpt lat="53.38238072786548" lon="14.767376727883804"><ele>23.5</ele><time>2026-04-12T09:35:32.01Z</time></trkpt><trkpt lat="53.382434661255935" lon="14.767155507162654"><ele>21.25</ele><time>2026-04-12T09:35:33.01Z</time></trkpt><trkpt lat="53.382481305395935" lon="14.766964416343544"><ele>19.0</ele><time>2026-04-12T09:35:34.01Z</time></trkpt><trkpt lat="53.382525720067235" lon="14.766815390038992"><ele>19.0</ele><time>2026-04-12T09:35:35.01Z</time></trkpt><trkpt lat="53.38255827929757" lon="14.766647486595314"><ele>19.0</ele><time>2026-04-12T09:35:36.01Z</time></trkpt><trkpt lat="53.38257064534272" lon="14.76646531092563"><ele>19.0</ele><time>2026-04-12T09:35:37.01Z</time></trkpt><trkpt lat="53.38258316264474" lon="14.766269522323201"><ele>19.0</ele><time>2026-04-12T09:35:38.01Z</time></trkpt><trkpt lat="53.38257431135966" lon="14.766068743349988"><ele>18.833333333333332</ele><time>2026-04-12T09:35:39.01Z</time></trkpt><trkpt lat="53.3825757652991" lon="14.765933134828074"><ele>18.666666666666664</ele><time>2026-04-12T09:35:40.01Z</time></trkpt><trkpt lat="53.38258011416424" lon="14.765745127896682"><ele>18.5</ele><time>2026-04-12T09:35:42.01Z</time></trkpt><trkpt lat="53.38254348751219" lon="14.765628894999226"><ele>18.333333333333332</ele><time>2026-04-12T09:35:44.01Z</time></trkpt><trkpt lat="53.3825724123867" lon="14.765515978568585"><ele>18.166666666666668</ele><time>2026-04-12T09:35:47.011Z</time></trkpt><trkpt lat="53.3826586023643" lon="14.76546102221027"><ele>18.0</ele><time>2026-04-12T09:35:49.011Z</time></trkpt><trkpt lat="53.38274119934435" lon="14.765396382936517"><ele>18.0</ele><time>2026-04-12T09:35:50.011Z</time></trkpt><trkpt lat="53.382853640581494" lon="14.765383743264668"><ele>18.0</ele><time>2026-04-12T09:35:51.011Z</time></trkpt><trkpt lat="53.382987128340815" lon="14.76539670265428"><ele>18.0</ele><time>2026-04-12T09:35:52.011Z</time></trkpt><trkpt lat="53.38309381726855" lon="14.765414248941779"><ele>18.0</ele><time>2026-04-12T09:35:53.011Z</time></trkpt><trkpt lat="53.38317987327343" lon="14.765416798816394"><ele>18.0</ele><time>2026-04-12T09:35:54.011Z</time></trkpt><trkpt lat="53.383261270687576" lon="14.765482921331698"><ele>17.8</ele><time>2026-04-12T09:35:56.011Z</time></trkpt><trkpt lat="53.383271554582024" lon="14.765615185503806"><ele>17.6</ele><time>2026-04-12T09:35:59.011Z</time></trkpt><trkpt lat="53.38324109363402" lon="14.76573192216388"><ele>17.4</ele><time>2026-04-12T09:36:02.011Z</time></trkpt><trkpt lat="53.383234439658246" lon="14.765874677134383"><ele>17.2</ele><time>2026-04-12T09:36:38.012Z</time></trkpt><trkpt lat="53.38324835175822" lon="14.766024750552845"><ele>17.0</ele><time>2026-04-12T09:36:40.012Z</time></trkpt><trkpt lat="53.38323654567323" lon="14.766224239685599"><ele>18.0</ele><time>2026-04-12T09:36:42.012Z</time></trkpt><trkpt lat="53.38321959122353" lon="14.766334080963976"><ele>19.0</ele><time>2026-04-12T09:36:43.012Z</time></trkpt><trkpt lat="53.38318853955492" lon="14.766522950417457"><ele>20.0</ele><time>2026-04-12T09:36:44.012Z</time></trkpt><trkpt lat="53.38315919040993" lon="14.766690472923225"><ele>21.0</ele><time>2026-04-12T09:36:45.012Z</time></trkpt><trkpt lat="53.38312154699026" lon="14.76687439184323"><ele>22.0</ele><time>2026-04-12T09:36:46.012Z</time></trkpt><trkpt lat="53.383081919266026" lon="14.767054409417913"><ele>22.5</ele><time>2026-04-12T09:36:47.012Z</time></trkpt><trkpt lat="53.383051609215585" lon="14.767238269826215"><ele>23.0</ele><time>2026-04-12T09:36:48.012Z</time></trkpt><trkpt lat="53.38302109929644" lon="14.767395213161315"><ele>23.5</ele><time>2026-04-12T09:36:49.012Z</time></trkpt><trkpt lat="53.382988737419744" lon="14.767578716051698"><ele>24.0</ele><time>2026-04-12T09:36:50.012Z</time></trkpt><trkpt lat="53.38294932404096" lon="14.767779283105025"><ele>23.5</ele><time>2026-04-12T09:36:51.012Z</time></trkpt><trkpt lat="53.382920503219495" lon="14.767981776242143"><ele>23.0</ele><time>2026-04-12T09:36:52.012Z</time></trkpt><trkpt lat="53.38289694342831" lon="14.768225781567242"><ele>22.5</ele><time>2026-04-12T09:36:53.012Z</time></trkpt><trkpt lat="53.382868361528786" lon="14.768435250825961"><ele>22.0</ele><time>2026-04-12T09:36:54.012Z</time></trkpt><trkpt lat="53.38285188011579" lon="14.768695155628652"><ele>22.0</ele><time>2026-04-12T09:36:55.012Z</time></trkpt><trkpt lat="53.38282017172982" lon="14.768929605304747"><ele>22.0</ele><time>2026-04-12T09:36:56.012Z</time></trkpt><trkpt lat="53.38280022571598" lon="14.769187136925082"><ele>22.0</ele><time>2026-04-12T09:36:57.012Z</time></trkpt><trkpt lat="53.382768897376664" lon="14.769446367571105"><ele>22.0</ele><time>2026-04-12T09:36:58.012Z</time></trkpt><trkpt lat="53.38275349894595" lon="14.769728349347274"><ele>22.0</ele><time>2026-04-12T09:36:59.012Z</time></trkpt><trkpt lat="53.38272317262666" lon="14.76998067683739"><ele>22.0</ele><time>2026-04-12T09:37:00.012Z</time></trkpt><trkpt lat="53.38269374478412" lon="14.770205900647444"><ele>21.75</ele><time>2026-04-12T09:37:01.012Z</time></trkpt><trkpt lat="53.38267808812813" lon="14.770447842731091"><ele>21.5</ele><time>2026-04-12T09:37:02.011Z</time></trkpt><trkpt lat="53.38265419144249" lon="14.770676867921457"><ele>21.25</ele><time>2026-04-12T09:37:03.012Z</time></trkpt><trkpt lat="53.3826299019915" lon="14.77091933773603"><ele>21.0</ele><time>2026-04-12T09:37:04.012Z</time></trkpt><trkpt lat="53.382597278012994" lon="14.771148882035948"><ele>21.0</ele><time>2026-04-12T09:37:05.012Z</time></trkpt><trkpt lat="53.382560717912355" lon="14.771391348742425"><ele>21.0</ele><time>2026-04-12T09:37:06.012Z</time></trkpt><trkpt lat="53.38251258790895" lon="14.771648342552393"><ele>21.0</ele><time>2026-04-12T09:37:07.012Z</time></trkpt><trkpt lat="53.382487125647856" lon="14.771892028762023"><ele>21.25</ele><time>2026-04-12T09:37:08.012Z</time></trkpt><trkpt lat="53.382463589823836" lon="14.772155050317005"><ele>21.5</ele><time>2026-04-12T09:37:09.011Z</time></trkpt><trkpt lat="53.38243990060751" lon="14.772413969790554"><ele>21.75</ele><time>2026-04-12T09:37:10.011Z</time></trkpt><trkpt lat="53.38242024259706" lon="14.77262135710111"><ele>22.0</ele><time>2026-04-12T09:37:11.012Z</time></trkpt><trkpt lat="53.38239288148531" lon="14.772869790603638"><ele>22.333333333333332</ele><time>2026-04-12T09:37:12.011Z</time></trkpt><trkpt lat="53.38236107401688" lon="14.77314513065338"><ele>22.666666666666668</ele><time>2026-04-12T09:37:13.011Z</time></trkpt><trkpt lat="53.382332509226785" lon="14.773386166481757"><ele>23.0</ele><time>2026-04-12T09:37:14.012Z</time></trkpt><trkpt lat="53.382297545991634" lon="14.773681899472544"><ele>23.333333333333336</ele><time>2026-04-12T09:37:15.011Z</time></trkpt><trkpt lat="53.382278793523106" lon="14.773952661080324"><ele>23.666666666666668</ele><time>2026-04-12T09:37:16.011Z</time></trkpt><trkpt lat="53.38225128177835" lon="14.774187262931193"><ele>24.0</ele><time>2026-04-12T09:37:17.011Z</time></trkpt><trkpt lat="53.38221173159707" lon="14.77443905916635"><ele>24.25</ele><time>2026-04-12T09:37:18.012Z</time></trkpt><trkpt lat="53.382185306660105" lon="14.774700429550345"><ele>24.5</ele><time>2026-04-12T09:37:19.012Z</time></trkpt><trkpt lat="53.38216621388141" lon="14.774942026587283"><ele>24.75</ele><time>2026-04-12T09:37:20.012Z</time></trkpt><trkpt lat="53.38214638751892" lon="14.775173930824307"><ele>25.0</ele><time>2026-04-12T09:37:21.012Z</time></trkpt><trkpt lat="53.38212452495818" lon="14.775403398721158"><ele>23.666666666666668</ele><time>2026-04-12T09:37:22.012Z</time></trkpt><trkpt lat="53.382087406830436" lon="14.77565535859631"><ele>22.333333333333336</ele><time>2026-04-12T09:37:23.012Z</time></trkpt><trkpt lat="53.38206670386673" lon="14.775919452747749"><ele>21.0</ele><time>2026-04-12T09:37:24.012Z</time></trkpt><trkpt lat="53.38203478884709" lon="14.776186332186661"><ele>21.0</ele><time>2026-04-12T09:37:25.012Z</time></trkpt><trkpt lat="53.38198945665202" lon="14.776505376455278"><ele>21.0</ele><time>2026-04-12T09:37:26.012Z</time></trkpt><trkpt lat="53.38196591412655" lon="14.776766688550824"><ele>21.0</ele><time>2026-04-12T09:37:27.012Z</time></trkpt><trkpt lat="53.38194038126202" lon="14.777015118579024"><ele>21.5</ele><time>2026-04-12T09:37:28.012Z</time></trkpt><trkpt lat="53.38191786873457" lon="14.777246497261304"><ele>22.0</ele><time>2026-04-12T09:37:29.012Z</time></trkpt><trkpt lat="53.38189567648587" lon="14.7774922878891"><ele>22.5</ele><time>2026-04-12T09:37:30.012Z</time></trkpt><trkpt lat="53.38186860401151" lon="14.777725498779619"><ele>23.0</ele><time>2026-04-12T09:37:31.012Z</time></trkpt><trkpt lat="53.38184465000014" lon="14.777951161678125"><ele>23.25</ele><time>2026-04-12T09:37:32.012Z</time></trkpt><trkpt lat="53.381821753115105" lon="14.778174119784902"><ele>23.5</ele><time>2026-04-12T09:37:33.012Z</time></trkpt><trkpt lat="53.3817980274555" lon="14.778393673402238"><ele>23.75</ele><time>2026-04-12T09:37:34.012Z</time></trkpt><trkpt lat="53.381772364069406" lon="14.778611867588774"><ele>24.0</ele><time>2026-04-12T09:37:35.012Z</time></trkpt><trkpt lat="53.38175105278681" lon="14.778813340632729"><ele>24.0</ele><time>2026-04-12T09:37:36.012Z</time></trkpt><trkpt lat="53.38173023079855" lon="14.778979795905292"><ele>24.0</ele><time>2026-04-12T09:37:37.012Z</time></trkpt><trkpt lat="53.38170283528" lon="14.77918850659405"><ele>24.0</ele><time>2026-04-12T09:37:38.012Z</time></trkpt><trkpt lat="53.381682013171485" lon="14.7793811296592"><ele>24.0</ele><time>2026-04-12T09:37:39.012Z</time></trkpt><trkpt lat="53.38166360428548" lon="14.779555785617609"><ele>24.0</ele><time>2026-04-12T09:37:40.012Z</time></trkpt><trkpt lat="53.38163642549971" lon="14.779738983943608"><ele>24.0</ele><time>2026-04-12T09:37:41.012Z</time></trkpt><trkpt lat="53.38161689177509" lon="14.779916599098035"><ele>24.0</ele><time>2026-04-12T09:37:42.012Z</time></trkpt><trkpt lat="53.38159814748004" lon="14.780064226294307"><ele>24.0</ele><time>2026-04-12T09:37:43.012Z</time></trkpt><trkpt lat="53.38156726255821" lon="14.780258951339631"><ele>24.0</ele><time>2026-04-12T09:37:45.012Z</time></trkpt><trkpt lat="53.38157312433776" lon="14.78037678288785"><ele>23.666666666666668</ele><time>2026-04-12T09:37:46.012Z</time></trkpt><trkpt lat="53.381610720821755" lon="14.780462436474858"><ele>23.333333333333332</ele><time>2026-04-12T09:37:47.012Z</time></trkpt><trkpt lat="53.38171193525069" lon="14.780494810764552"><ele>23.0</ele><time>2026-04-12T09:37:49.012Z</time></trkpt><trkpt lat="53.38180572089678" lon="14.780547001096213"><ele>22.666666666666664</ele><time>2026-04-12T09:37:51.012Z</time></trkpt><trkpt lat="53.38188123774545" lon="14.780563582771759"><ele>22.333333333333332</ele><time>2026-04-12T09:38:47.013Z</time></trkpt><trkpt lat="53.381949335081245" lon="14.780549936220527"><ele>22.0</ele><time>2026-04-12T09:38:48.013Z</time></trkpt><trkpt lat="53.38205794470783" lon="14.780530162081549"><ele>22.0</ele><time>2026-04-12T09:38:50.013Z</time></trkpt><trkpt lat="53.38213212741737" lon="14.780540743660275"><ele>22.0</ele><time>2026-04-12T09:38:51.013Z</time></trkpt><trkpt lat="53.38221441276917" lon="14.780555142495881"><ele>22.0</ele><time>2026-04-12T09:38:52.013Z</time></trkpt><trkpt lat="53.382303388057814" lon="14.780544790466404"><ele>22.0</ele><time>2026-04-12T09:38:53.013Z</time></trkpt><trkpt lat="53.38237068916406" lon="14.780532427183637"><ele>22.0</ele><time>2026-04-12T09:38:54.013Z</time></trkpt><trkpt lat="53.38246508312425" lon="14.78051849394815"><ele>22.0</ele><time>2026-04-12T09:38:55.013Z</time></trkpt><trkpt lat="53.382563247904905" lon="14.780501639915721"><ele>23.0</ele><time>2026-04-12T09:38:56.013Z</time></trkpt><trkpt lat="53.38267033957052" lon="14.780506120140721"><ele>24.0</ele><time>2026-04-12T09:38:57.013Z</time></trkpt><trkpt lat="53.38276295737894" lon="14.780497807616609"><ele>25.000000000000004</ele><time>2026-04-12T09:38:58.013Z</time></trkpt><trkpt lat="53.382860110388435" lon="14.780492754578441"><ele>26.0</ele><time>2026-04-12T09:38:59.014Z</time></trkpt><trkpt lat="53.38294668157785" lon="14.780483749311614"><ele>27.0</ele><time>2026-04-12T09:39:00.014Z</time></trkpt><trkpt lat="53.38303292863277" lon="14.780473952275"><ele>27.0</ele><time>2026-04-12T09:39:01.014Z</time></trkpt><trkpt lat="53.38313083330105" lon="14.780469540761386"><ele>27.000000000000004</ele><time>2026-04-12T09:39:02.014Z</time></trkpt><trkpt lat="53.38321958347301" lon="14.780477866484365"><ele>27.000000000000004</ele><time>2026-04-12T09:39:03.014Z</time></trkpt><trkpt lat="53.38331300180513" lon="14.780486443786167"><ele>27.0</ele><time>2026-04-12T09:39:04.014Z</time></trkpt><trkpt lat="53.38341149541207" lon="14.78046949505006"><ele>27.0</ele><time>2026-04-12T09:39:05.014Z</time></trkpt><trkpt lat="53.38349979758932" lon="14.780437053773817"><ele>27.0</ele><time>2026-04-12T09:39:06.014Z</time></trkpt><trkpt lat="53.38356631249852" lon="14.780436329612337"><ele>27.0</ele><time>2026-04-12T09:39:07.014Z</time></trkpt><trkpt lat="53.38363661127472" lon="14.780435993468323"><ele>27.0</ele><time>2026-04-12T09:39:08.013Z</time></trkpt><trkpt lat="53.38370176656209" lon="14.780431150282938"><ele>27.0</ele><time>2026-04-12T09:39:09.013Z</time></trkpt><trkpt lat="53.3837682881566" lon="14.780441632655547"><ele>27.0</ele><time>2026-04-12T09:39:11.013Z</time></trkpt><trkpt lat="53.38380279375703" lon="14.78063520753844"><ele>27.0</ele><time>2026-04-12T09:39:13.012Z</time></trkpt><trkpt lat="53.383799351240214" lon="14.78080499756175"><ele>27.0</ele><time>2026-04-12T09:39:14.013Z</time></trkpt><trkpt lat="53.38379049756473" lon="14.780966492297665"><ele>27.000000000000004</ele><time>2026-04-12T09:39:15.013Z</time></trkpt><trkpt lat="53.38379202351524" lon="14.781144096870122"><ele>27.000000000000004</ele><time>2026-04-12T09:39:16.013Z</time></trkpt><trkpt lat="53.383802423777524" lon="14.781314582556401"><ele>27.0</ele><time>2026-04-12T09:39:17.013Z</time></trkpt><trkpt lat="53.3838017626413" lon="14.781457475082595"><ele>27.0</ele><time>2026-04-12T09:39:18.012Z</time></trkpt><trkpt lat="53.38380543273233" lon="14.781613099768053"><ele>27.0</ele><time>2026-04-12T09:39:19.012Z</time></trkpt><trkpt lat="53.38381611087994" lon="14.781785698871426"><ele>27.0</ele><time>2026-04-12T09:39:20.013Z</time></trkpt><trkpt lat="53.38381744531149" lon="14.781969877062398"><ele>27.0</ele><time>2026-04-12T09:39:21.013Z</time></trkpt><trkpt lat="53.38382746176683" lon="14.782174985449572"><ele>27.0</ele><time>2026-04-12T09:39:22.013Z</time></trkpt><trkpt lat="53.383834844732924" lon="14.782367959245326"><ele>27.0</ele><time>2026-04-12T09:39:23.013Z</time></trkpt><trkpt lat="53.38383935950209" lon="14.782606233113173"><ele>27.0</ele><time>2026-04-12T09:39:24.013Z</time></trkpt><trkpt lat="53.383840416735794" lon="14.782848293614332"><ele>27.0</ele><time>2026-04-12T09:39:25.013Z</time></trkpt><trkpt lat="53.38385096333312" lon="14.783057504463486"><ele>27.0</ele><time>2026-04-12T09:39:26.013Z</time></trkpt><trkpt lat="53.38385877187461" lon="14.783312758682985"><ele>27.25</ele><time>2026-04-12T09:39:27.013Z</time></trkpt><trkpt lat="53.3838624953234" lon="14.78352546177018"><ele>27.5</ele><time>2026-04-12T09:39:28.013Z</time></trkpt><trkpt lat="53.383860219837025" lon="14.783743519601519"><ele>27.75</ele><time>2026-04-12T09:39:29.013Z</time></trkpt><trkpt lat="53.383873276236585" lon="14.78395858505802"><ele>28.0</ele><time>2026-04-12T09:39:30.013Z</time></trkpt><trkpt lat="53.38387648599362" lon="14.784172608964777"><ele>28.0</ele><time>2026-04-12T09:39:31.013Z</time></trkpt><trkpt lat="53.383872894661714" lon="14.784358145616187"><ele>28.0</ele><time>2026-04-12T09:39:32.013Z</time></trkpt><trkpt lat="53.38387334084056" lon="14.784553329483602"><ele>28.0</ele><time>2026-04-12T09:39:33.013Z</time></trkpt><trkpt lat="53.38388543255901" lon="14.784743350110778"><ele>28.0</ele><time>2026-04-12T09:39:34.013Z</time></trkpt><trkpt lat="53.38389407676876" lon="14.784994056393641"><ele>27.75</ele><time>2026-04-12T09:39:35.013Z</time></trkpt><trkpt lat="53.3838892239402" lon="14.785244881180693"><ele>27.5</ele><time>2026-04-12T09:39:36.013Z</time></trkpt><trkpt lat="53.38389070158572" lon="14.785444250828265"><ele>27.25</ele><time>2026-04-12T09:39:37.013Z</time></trkpt><trkpt lat="53.3838990965589" lon="14.785647928973795"><ele>27.0</ele><time>2026-04-12T09:39:38.013Z</time></trkpt><trkpt lat="53.38390787371795" lon="14.785846878370176"><ele>27.0</ele><time>2026-04-12T09:39:39.013Z</time></trkpt><trkpt lat="53.383917665805654" lon="14.78605300161439"><ele>27.000000000000004</ele><time>2026-04-12T09:39:40.013Z</time></trkpt><trkpt lat="53.38391942674131" lon="14.786232883984098"><ele>27.000000000000004</ele><time>2026-04-12T09:39:41.013Z</time></trkpt><trkpt lat="53.383923322181424" lon="14.78642782882518"><ele>27.0</ele><time>2026-04-12T09:39:42.013Z</time></trkpt><trkpt lat="53.383934886179546" lon="14.786570043591054"><ele>27.0</ele><time>2026-04-12T09:39:43.013Z</time></trkpt><trkpt lat="53.383940371498866" lon="14.786708808521759"><ele>27.0</ele><time>2026-04-12T09:39:45.013Z</time></trkpt><trkpt lat="53.38402154784301" lon="14.786710124112268"><ele>27.0</ele><time>2026-04-12T09:39:47.013Z</time></trkpt><trkpt lat="53.384083300774805" lon="14.786666072689144"><ele>27.0</ele><time>2026-04-12T09:39:48.013Z</time></trkpt><trkpt lat="53.38413432777725" lon="14.786595697485428"><ele>27.0</ele><time>2026-04-12T09:39:49.013Z</time></trkpt><trkpt lat="53.384192999103526" lon="14.786508914435894"><ele>27.0</ele><time>2026-04-12T09:39:50.013Z</time></trkpt><trkpt lat="53.38427682383032" lon="14.786380181210124"><ele>27.0</ele><time>2026-04-12T09:39:51.013Z</time></trkpt><trkpt lat="53.38435544100071" lon="14.786252983488222"><ele>27.0</ele><time>2026-04-12T09:39:52.013Z</time></trkpt><trkpt lat="53.38443258965561" lon="14.78614087579969"><ele>27.000000000000004</ele><time>2026-04-12T09:39:53.013Z</time></trkpt><trkpt lat="53.384486433610874" lon="14.786029880526689"><ele>27.000000000000004</ele><time>2026-04-12T09:39:54.013Z</time></trkpt><trkpt lat="53.38457097893432" lon="14.785879962108414"><ele>27.0</ele><time>2026-04-12T09:39:55.013Z</time></trkpt><trkpt lat="53.38466372423603" lon="14.785713970485077"><ele>27.0</ele><time>2026-04-12T09:39:56.013Z</time></trkpt><trkpt lat="53.38475013373944" lon="14.785570687581895"><ele>27.0</ele><time>2026-04-12T09:39:57.013Z</time></trkpt><trkpt lat="53.38482069982433" lon="14.7854397507937"><ele>27.000000000000004</ele><time>2026-04-12T09:39:58.013Z</time></trkpt><trkpt lat="53.384891392232475" lon="14.785333787901148"><ele>27.000000000000004</ele><time>2026-04-12T09:39:59.013Z</time></trkpt><trkpt lat="53.38497183498254" lon="14.785185790344487"><ele>27.0</ele><time>2026-04-12T09:40:00.013Z</time></trkpt><trkpt lat="53.38503988105307" lon="14.785061333357813"><ele>27.0</ele><time>2026-04-12T09:40:01.013Z</time></trkpt><trkpt lat="53.385095840577534" lon="14.784960559256573"><ele>27.0</ele><time>2026-04-12T09:40:02.013Z</time></trkpt><trkpt lat="53.38514709906491" lon="14.784866195367997"><ele>27.000000000000004</ele><time>2026-04-12T09:40:03.013Z</time></trkpt><trkpt lat="53.3852050042274" lon="14.784738059317641"><ele>27.000000000000004</ele><time>2026-04-12T09:40:04.013Z</time></trkpt><trkpt lat="53.38527222067067" lon="14.784600583702067"><ele>27.0</ele><time>2026-04-12T09:40:05.013Z</time></trkpt><trkpt lat="53.38534642881556" lon="14.784466025120349"><ele>27.0</ele><time>2026-04-12T09:40:06.013Z</time></trkpt><trkpt lat="53.38541891814339" lon="14.784319188734955"><ele>27.0</ele><time>2026-04-12T09:40:07.014Z</time></trkpt><trkpt lat="53.385505109074344" lon="14.78415331775715"><ele>27.0</ele><time>2026-04-12T09:40:08.014Z</time></trkpt><trkpt lat="53.38559547151106" lon="14.783989941294928"><ele>27.0</ele><time>2026-04-12T09:40:09.014Z</time></trkpt><trkpt lat="53.38569660188865" lon="14.783810096469518"><ele>27.0</ele><time>2026-04-12T09:40:10.014Z</time></trkpt><trkpt lat="53.38577538453268" lon="14.783675224415509"><ele>27.0</ele><time>2026-04-12T09:40:11.014Z</time></trkpt><trkpt lat="53.38586411519727" lon="14.783529371048319"><ele>27.0</ele><time>2026-04-12T09:40:12.014Z</time></trkpt><trkpt lat="53.38596090164228" lon="14.783405985967883"><ele>27.0</ele><time>2026-04-12T09:40:13.014Z</time></trkpt><trkpt lat="53.38606908923035" lon="14.783285459711797"><ele>27.0</ele><time>2026-04-12T09:40:14.014Z</time></trkpt><trkpt lat="53.38617763712472" lon="14.783184602899082"><ele>27.25</ele><time>2026-04-12T09:40:15.014Z</time></trkpt><trkpt lat="53.38629799843548" lon="14.783107821089969"><ele>27.5</ele><time>2026-04-12T09:40:16.014Z</time></trkpt><trkpt lat="53.38643799383706" lon="14.783052783728621"><ele>27.75</ele><time>2026-04-12T09:40:17.014Z</time></trkpt><trkpt lat="53.386604801493476" lon="14.783015500568183"><ele>28.0</ele><time>2026-04-12T09:40:18.014Z</time></trkpt><trkpt lat="53.38673350126932" lon="14.782976771703087"><ele>28.25</ele><time>2026-04-12T09:40:19.014Z</time></trkpt><trkpt lat="53.38684678562759" lon="14.782930652187277"><ele>28.5</ele><time>2026-04-12T09:40:20.014Z</time></trkpt><trkpt lat="53.386978446388426" lon="14.7828586699016"><ele>28.75</ele><time>2026-04-12T09:40:21.014Z</time></trkpt><trkpt lat="53.38711000057341" lon="14.78276896913289"><ele>29.0</ele><time>2026-04-12T09:40:22.014Z</time></trkpt><trkpt lat="53.387243881211646" lon="14.782674970987815"><ele>29.0</ele><time>2026-04-12T09:40:23.014Z</time></trkpt><trkpt lat="53.387381002345116" lon="14.782541079832656"><ele>29.0</ele><time>2026-04-12T09:40:24.014Z</time></trkpt><trkpt lat="53.38748174537804" lon="14.782435970343265"><ele>29.0</ele><time>2026-04-12T09:40:25.014Z</time></trkpt><trkpt lat="53.38759704822901" lon="14.782310396776197"><ele>29.0</ele><time>2026-04-12T09:40:26.014Z</time></trkpt><trkpt lat="53.38772361590601" lon="14.782174392174035"><ele>29.0</ele><time>2026-04-12T09:40:27.014Z</time></trkpt><trkpt lat="53.38784325642039" lon="14.782040428251468"><ele>29.0</ele><time>2026-04-12T09:40:28.014Z</time></trkpt><trkpt lat="53.38797558461583" lon="14.781897989815327"><ele>29.0</ele><time>2026-04-12T09:40:29.014Z</time></trkpt><trkpt lat="53.388092468665036" lon="14.7817674459924"><ele>29.0</ele><time>2026-04-12T09:40:30.014Z</time></trkpt><trkpt lat="53.38820054578606" lon="14.781638695944311"><ele>29.25</ele><time>2026-04-12T09:40:31.014Z</time></trkpt><trkpt lat="53.388333117559725" lon="14.781520717694503"><ele>29.5</ele><time>2026-04-12T09:40:32.014Z</time></trkpt><trkpt lat="53.38843782548712" lon="14.781409278487407"><ele>29.75</ele><time>2026-04-12T09:40:33.014Z</time></trkpt><trkpt lat="53.38852768574641" lon="14.78129454785135"><ele>30.0</ele><time>2026-04-12T09:40:34.014Z</time></trkpt><trkpt lat="53.38863789064424" lon="14.781179842254293"><ele>30.0</ele><time>2026-04-12T09:40:35.014Z</time></trkpt><trkpt lat="53.38876233424993" lon="14.781043293941272"><ele>30.0</ele><time>2026-04-12T09:40:36.014Z</time></trkpt><trkpt lat="53.3888657349498" lon="14.780923603646151"><ele>30.0</ele><time>2026-04-12T09:40:37.014Z</time></trkpt><trkpt lat="53.388988249572314" lon="14.780790266196531"><ele>30.0</ele><time>2026-04-12T09:40:38.014Z</time></trkpt><trkpt lat="53.389112161888136" lon="14.780654532479957"><ele>29.8</ele><time>2026-04-12T09:40:39.014Z</time></trkpt><trkpt lat="53.38920538501619" lon="14.78056063020929"><ele>29.6</ele><time>2026-04-12T09:40:40.014Z</time></trkpt><trkpt lat="53.38928978621795" lon="14.780457916517527"><ele>29.4</ele><time>2026-04-12T09:40:41.014Z</time></trkpt><trkpt lat="53.38938977344369" lon="14.780374915704312"><ele>29.2</ele><time>2026-04-12T09:40:42.014Z</time></trkpt><trkpt lat="53.38947351427434" lon="14.780279308931382"><ele>29.0</ele><time>2026-04-12T09:40:43.014Z</time></trkpt><trkpt lat="53.38956252364127" lon="14.780200260381934"><ele>29.2</ele><time>2026-04-12T09:40:44.014Z</time></trkpt><trkpt lat="53.38965458271886" lon="14.780098198750046"><ele>29.4</ele><time>2026-04-12T09:40:45.014Z</time></trkpt><trkpt lat="53.38975429272814" lon="14.77999833765569"><ele>29.6</ele><time>2026-04-12T09:40:46.014Z</time></trkpt><trkpt lat="53.389838197374694" lon="14.7798931949808"><ele>29.8</ele><time>2026-04-12T09:40:47.014Z</time></trkpt><trkpt lat="53.38989672234714" lon="14.779838164492201"><ele>30.0</ele><time>2026-04-12T09:40:48.014Z</time></trkpt><trkpt lat="53.38995851622593" lon="14.779789535639413"><ele>29.0</ele><time>2026-04-12T09:40:49.014Z</time></trkpt><trkpt lat="53.3900185596315" lon="14.779717726523133"><ele>28.0</ele><time>2026-04-12T09:40:50.014Z</time></trkpt><trkpt lat="53.3900907851948" lon="14.779690544253887"><ele>27.0</ele><time>2026-04-12T09:40:51.014Z</time></trkpt><trkpt lat="53.39023494539657" lon="14.779985280292248"><ele>26.0</ele><time>2026-04-12T09:40:56.014Z</time></trkpt><trkpt lat="53.39028342028194" lon="14.78012369493463"><ele>26.4</ele><time>2026-04-12T09:40:58.015Z</time></trkpt><trkpt lat="53.39033468588856" lon="14.780261410325268"><ele>26.8</ele><time>2026-04-12T09:41:00.015Z</time></trkpt><trkpt lat="53.39036677272405" lon="14.780384815126421"><ele>27.199999999999996</ele><time>2026-04-12T09:41:02.015Z</time></trkpt><trkpt lat="53.390424093304084" lon="14.780521691200532"><ele>27.599999999999998</ele><time>2026-04-12T09:41:04.015Z</time></trkpt><trkpt lat="53.390473260521674" lon="14.780661077128848"><ele>28.0</ele><time>2026-04-12T09:41:06.015Z</time></trkpt><trkpt lat="53.39052790365742" lon="14.780811776965471"><ele>26.799999999999997</ele><time>2026-04-12T09:41:08.015Z</time></trkpt><trkpt lat="53.39058328559606" lon="14.780931789107157"><ele>25.599999999999998</ele><time>2026-04-12T09:41:10.015Z</time></trkpt><trkpt lat="53.39064875677126" lon="14.78108196748926"><ele>24.4</ele><time>2026-04-12T09:41:12.015Z</time></trkpt><trkpt lat="53.390726994146064" lon="14.781248128422636"><ele>23.200000000000003</ele><time>2026-04-12T09:41:14.013Z</time></trkpt><trkpt lat="53.390768426249515" lon="14.781332787034"><ele>22.0</ele><time>2026-04-12T09:41:15.013Z</time></trkpt><trkpt lat="53.39081022947827" lon="14.78144664724909"><ele>22.0</ele><time>2026-04-12T09:41:16.013Z</time></trkpt><trkpt lat="53.39085153582457" lon="14.781543755520326"><ele>22.0</ele><time>2026-04-12T09:41:17.014Z</time></trkpt><trkpt lat="53.390924174015936" lon="14.781725942565783"><ele>22.0</ele><time>2026-04-12T09:41:19.014Z</time></trkpt><trkpt lat="53.39095251740134" lon="14.781831658428707"><ele>22.0</ele><time>2026-04-12T09:41:20.013Z</time></trkpt><trkpt lat="53.391000990150076" lon="14.78193718764534"><ele>22.0</ele><time>2026-04-12T09:41:21.014Z</time></trkpt><trkpt lat="53.39105046710447" lon="14.782045013648196"><ele>22.0</ele><time>2026-04-12T09:41:22.014Z</time></trkpt><trkpt lat="53.39110498070307" lon="14.782164094588008"><ele>21.5</ele><time>2026-04-12T09:41:23.013Z</time></trkpt><trkpt lat="53.39114968786964" lon="14.782264741002212"><ele>21.0</ele><time>2026-04-12T09:41:24.014Z</time></trkpt><trkpt lat="53.39119363446416" lon="14.782375272035486"><ele>20.5</ele><time>2026-04-12T09:41:25.014Z</time></trkpt><trkpt lat="53.391232553288305" lon="14.782480453533315"><ele>20.0</ele><time>2026-04-12T09:41:26.013Z</time></trkpt><trkpt lat="53.39127266982767" lon="14.782589337668446"><ele>19.5</ele><time>2026-04-12T09:41:27.014Z</time></trkpt><trkpt lat="53.39133062079418" lon="14.7826957764204"><ele>19.0</ele><time>2026-04-12T09:41:28.014Z</time></trkpt><trkpt lat="53.391372659492106" lon="14.78281170683901"><ele>19.0</ele><time>2026-04-12T09:41:29.014Z</time></trkpt><trkpt lat="53.39142171001842" lon="14.782946533970588"><ele>19.0</ele><time>2026-04-12T09:41:30.014Z</time></trkpt><trkpt lat="53.391461364100515" lon="14.783073370426374"><ele>19.0</ele><time>2026-04-12T09:41:31.014Z</time></trkpt><trkpt lat="53.391508009215556" lon="14.783180425296983"><ele>19.0</ele><time>2026-04-12T09:41:32.014Z</time></trkpt><trkpt lat="53.391557470852554" lon="14.783298149955357"><ele>19.0</ele><time>2026-04-12T09:41:33.014Z</time></trkpt><trkpt lat="53.39159424230812" lon="14.783428606785368"><ele>19.0</ele><time>2026-04-12T09:41:34.014Z</time></trkpt><trkpt lat="53.39163013921376" lon="14.783531877084881"><ele>19.666666666666664</ele><time>2026-04-12T09:41:35.014Z</time></trkpt><trkpt lat="53.39167151893458" lon="14.783626840842516"><ele>20.333333333333332</ele><time>2026-04-12T09:41:36.014Z</time></trkpt><trkpt lat="53.39170296665838" lon="14.783722831724196"><ele>21.0</ele><time>2026-04-12T09:41:37.014Z</time></trkpt><trkpt lat="53.39174440471299" lon="14.783832043473822"><ele>21.666666666666668</ele><time>2026-04-12T09:41:38.014Z</time></trkpt><trkpt lat="53.39179732895041" lon="14.783920388014055"><ele>22.333333333333336</ele><time>2026-04-12T09:41:39.014Z</time></trkpt><trkpt lat="53.39184690392887" lon="14.784044794954314"><ele>23.0</ele><time>2026-04-12T09:41:40.014Z</time></trkpt><trkpt lat="53.3918801940476" lon="14.784171754866211"><ele>23.0</ele><time>2026-04-12T09:41:41.014Z</time></trkpt><trkpt lat="53.391946060123374" lon="14.784293530912452"><ele>23.0</ele><time>2026-04-12T09:41:42.014Z</time></trkpt><trkpt lat="53.39199327340969" lon="14.78439287293308"><ele>23.0</ele><time>2026-04-12T09:41:43.014Z</time></trkpt><trkpt lat="53.39203225969488" lon="14.784511733560313"><ele>23.0</ele><time>2026-04-12T09:41:44.014Z</time></trkpt><trkpt lat="53.39208038873166" lon="14.78464982841055"><ele>23.0</ele><time>2026-04-12T09:41:45.014Z</time></trkpt><trkpt lat="53.392130582892975" lon="14.784795385834084"><ele>23.0</ele><time>2026-04-12T09:41:46.014Z</time></trkpt><trkpt lat="53.39217994771371" lon="14.784932912584807"><ele>23.0</ele><time>2026-04-12T09:41:47.014Z</time></trkpt><trkpt lat="53.39223749559533" lon="14.785062850552691"><ele>23.0</ele><time>2026-04-12T09:41:48.014Z</time></trkpt><trkpt lat="53.39228486990435" lon="14.785195372629875"><ele>23.0</ele><time>2026-04-12T09:41:49.014Z</time></trkpt><trkpt lat="53.392328823503114" lon="14.785298630835026"><ele>23.0</ele><time>2026-04-12T09:41:50.014Z</time></trkpt><trkpt lat="53.39238814103146" lon="14.785418415570268"><ele>23.4</ele><time>2026-04-12T09:41:51.014Z</time></trkpt><trkpt lat="53.392441651029635" lon="14.785559115943991"><ele>23.799999999999997</ele><time>2026-04-12T09:41:52.014Z</time></trkpt><trkpt lat="53.3924952092795" lon="14.785698007535206"><ele>24.2</ele><time>2026-04-12T09:41:53.014Z</time></trkpt><trkpt lat="53.39254949030097" lon="14.785833165049151"><ele>24.6</ele><time>2026-04-12T09:41:54.014Z</time></trkpt><trkpt lat="53.39260412212384" lon="14.78597726611154"><ele>25.0</ele><time>2026-04-12T09:41:55.014Z</time></trkpt><trkpt lat="53.39265388627889" lon="14.786125155985815"><ele>25.2</ele><time>2026-04-12T09:41:56.014Z</time></trkpt><trkpt lat="53.39272508935026" lon="14.786263387534959"><ele>25.4</ele><time>2026-04-12T09:41:57.014Z</time></trkpt><trkpt lat="53.39277823508118" lon="14.786397667690176"><ele>25.6</ele><time>2026-04-12T09:41:58.014Z</time></trkpt><trkpt lat="53.39282872147555" lon="14.786525228666457"><ele>25.8</ele><time>2026-04-12T09:41:59.014Z</time></trkpt><trkpt lat="53.39288629246644" lon="14.78667038218839"><ele>26.0</ele><time>2026-04-12T09:42:00.014Z</time></trkpt><trkpt lat="53.392947342643936" lon="14.7868379605747"><ele>24.5</ele><time>2026-04-12T09:42:01.014Z</time></trkpt><trkpt lat="53.39301943971026" lon="14.786999931701578"><ele>23.0</ele><time>2026-04-12T09:42:02.014Z</time></trkpt><trkpt lat="53.39309543761512" lon="14.787138564949883"><ele>21.5</ele><time>2026-04-12T09:42:03.015Z</time></trkpt><trkpt lat="53.39315355051081" lon="14.787321300843132"><ele>20.0</ele><time>2026-04-12T09:42:04.015Z</time></trkpt><trkpt lat="53.3932088897063" lon="14.787461224847045"><ele>20.0</ele><time>2026-04-12T09:42:05.015Z</time></trkpt><trkpt lat="53.39325769734665" lon="14.787583726352947"><ele>20.0</ele><time>2026-04-12T09:42:06.015Z</time></trkpt><trkpt lat="53.39331315247103" lon="14.787723602814562"><ele>20.0</ele><time>2026-04-12T09:42:07.015Z</time></trkpt><trkpt lat="53.393360820821165" lon="14.787843490967305"><ele>20.0</ele><time>2026-04-12T09:42:08.015Z</time></trkpt><trkpt lat="53.393404689546884" lon="14.787953817553769"><ele>20.0</ele><time>2026-04-12T09:42:09.015Z</time></trkpt><trkpt lat="53.393457843680196" lon="14.788090190701038"><ele>20.8</ele><time>2026-04-12T09:42:10.015Z</time></trkpt><trkpt lat="53.393511500632016" lon="14.788225146066212"><ele>21.6</ele><time>2026-04-12T09:42:11.015Z</time></trkpt><trkpt lat="53.39356388966907" lon="14.788356912448979"><ele>22.4</ele><time>2026-04-12T09:42:12.015Z</time></trkpt><trkpt lat="53.39361229667319" lon="14.788478663735162"><ele>23.2</ele><time>2026-04-12T09:42:13.015Z</time></trkpt><trkpt lat="53.39366619232972" lon="14.78861421985494"><ele>24.0</ele><time>2026-04-12T09:42:14.015Z</time></trkpt><trkpt lat="53.39372170910553" lon="14.788753853339175"><ele>23.666666666666668</ele><time>2026-04-12T09:42:15.015Z</time></trkpt><trkpt lat="53.39379617283663" lon="14.78886409902771"><ele>23.333333333333332</ele><time>2026-04-12T09:42:16.015Z</time></trkpt><trkpt lat="53.39386342516884" lon="14.7889727108097"><ele>23.0</ele><time>2026-04-12T09:42:17.015Z</time></trkpt><trkpt lat="53.39391255981412" lon="14.78906478622245"><ele>22.666666666666664</ele><time>2026-04-12T09:42:18.015Z</time></trkpt><trkpt lat="53.39396273445388" lon="14.789166454133557"><ele>22.333333333333332</ele><time>2026-04-12T09:42:19.015Z</time></trkpt><trkpt lat="53.3940152301184" lon="14.78930178170413"><ele>22.0</ele><time>2026-04-12T09:42:20.015Z</time></trkpt><trkpt lat="53.39405499626563" lon="14.78942792112156"><ele>22.0</ele><time>2026-04-12T09:42:21.015Z</time></trkpt><trkpt lat="53.394098012365994" lon="14.789530046130894"><ele>22.0</ele><time>2026-04-12T09:42:22.015Z</time></trkpt><trkpt lat="53.39415111630831" lon="14.789632419147459"><ele>22.0</ele><time>2026-04-12T09:42:23.015Z</time></trkpt><trkpt lat="53.3942312307655" lon="14.78974845660823"><ele>22.0</ele><time>2026-04-12T09:42:24.015Z</time></trkpt><trkpt lat="53.39431540413519" lon="14.789939187977632"><ele>22.0</ele><time>2026-04-12T09:42:26.015Z</time></trkpt><trkpt lat="53.39434363085041" lon="14.790046231001769"><ele>22.0</ele><time>2026-04-12T09:42:27.015Z</time></trkpt><trkpt lat="53.39438153609287" lon="14.790178595037196"><ele>22.0</ele><time>2026-04-12T09:42:29.015Z</time></trkpt><trkpt lat="53.39444879300887" lon="14.79024573226205"><ele>22.0</ele><time>2026-04-12T09:42:31.015Z</time></trkpt><trkpt lat="53.394560913857084" lon="14.790159091094736"><ele>22.0</ele><time>2026-04-12T09:42:33.015Z</time></trkpt><trkpt lat="53.3946546863813" lon="14.790060511249548"><ele>22.0</ele><time>2026-04-12T09:42:34.015Z</time></trkpt><trkpt lat="53.394763608690326" lon="14.789968699003769"><ele>20.6</ele><time>2026-04-12T09:42:35.015Z</time></trkpt><trkpt lat="53.39486067545485" lon="14.789915932447212"><ele>19.200000000000003</ele><time>2026-04-12T09:42:36.015Z</time></trkpt><trkpt lat="53.39495532952337" lon="14.789843501300593"><ele>17.8</ele><time>2026-04-12T09:42:37.015Z</time></trkpt><trkpt lat="53.39504470826288" lon="14.789762708431072"><ele>16.4</ele><time>2026-04-12T09:42:38.015Z</time></trkpt><trkpt lat="53.39511442670664" lon="14.789677147580417"><ele>15.0</ele><time>2026-04-12T09:42:39.015Z</time></trkpt><trkpt lat="53.39518327429321" lon="14.789589024227833"><ele>15.0</ele><time>2026-04-12T09:42:40.015Z</time></trkpt><trkpt lat="53.395250921757956" lon="14.789506857216729"><ele>15.0</ele><time>2026-04-12T09:42:41.015Z</time></trkpt><trkpt lat="53.39532348705369" lon="14.789455424377637"><ele>15.0</ele><time>2026-04-12T09:42:42.015Z</time></trkpt><trkpt lat="53.39540492969032" lon="14.789386649776505"><ele>15.0</ele><time>2026-04-12T09:42:43.015Z</time></trkpt><trkpt lat="53.39547459942265" lon="14.789287508075056"><ele>15.0</ele><time>2026-04-12T09:42:44.015Z</time></trkpt><trkpt lat="53.39554705743185" lon="14.789189836861516"><ele>15.0</ele><time>2026-04-12T09:42:45.015Z</time></trkpt><trkpt lat="53.39563316378842" lon="14.789096947794484"><ele>15.75</ele><time>2026-04-12T09:42:46.015Z</time></trkpt><trkpt lat="53.395731811978074" lon="14.789000052224754"><ele>16.5</ele><time>2026-04-12T09:42:47.015Z</time></trkpt><trkpt lat="53.39584303131331" lon="14.788919303664839"><ele>17.25</ele><time>2026-04-12T09:42:48.015Z</time></trkpt><trkpt lat="53.39594908558001" lon="14.788838197809138"><ele>18.0</ele><time>2026-04-12T09:42:49.015Z</time></trkpt><trkpt lat="53.396049914772995" lon="14.78874581398585"><ele>18.0</ele><time>2026-04-12T09:42:50.015Z</time></trkpt><trkpt lat="53.396159515227055" lon="14.788647780120955"><ele>18.0</ele><time>2026-04-12T09:42:51.015Z</time></trkpt><trkpt lat="53.39626350096848" lon="14.788553709608395"><ele>18.0</ele><time>2026-04-12T09:42:52.015Z</time></trkpt><trkpt lat="53.3963804364383" lon="14.788460262976162"><ele>18.0</ele><time>2026-04-12T09:42:53.015Z</time></trkpt><trkpt lat="53.39649579676917" lon="14.788358493555952"><ele>19.4</ele><time>2026-04-12T09:42:54.016Z</time></trkpt><trkpt lat="53.396593136975675" lon="14.788261934891816"><ele>20.8</ele><time>2026-04-12T09:42:55.016Z</time></trkpt><trkpt lat="53.39668301628647" lon="14.788168732962195"><ele>22.2</ele><time>2026-04-12T09:42:56.016Z</time></trkpt><trkpt lat="53.39675737108334" lon="14.788076806740417"><ele>23.6</ele><time>2026-04-12T09:42:57.016Z</time></trkpt><trkpt lat="53.396834656306694" lon="14.787976239182845"><ele>25.0</ele><time>2026-04-12T09:42:58.016Z</time></trkpt><trkpt lat="53.39692038839914" lon="14.787877029163967"><ele>25.0</ele><time>2026-04-12T09:42:59.016Z</time></trkpt><trkpt lat="53.39699631662747" lon="14.787805855888228"><ele>25.0</ele><time>2026-04-12T09:43:00.016Z</time></trkpt><trkpt lat="53.397091120528245" lon="14.787741227752674"><ele>25.0</ele><time>2026-04-12T09:43:01.016Z</time></trkpt><trkpt lat="53.39719999537748" lon="14.787631180203682"><ele>25.0</ele><time>2026-04-12T09:43:02.016Z</time></trkpt><trkpt lat="53.397280783838" lon="14.78753751706853"><ele>25.0</ele><time>2026-04-12T09:43:03.016Z</time></trkpt><trkpt lat="53.39735936273814" lon="14.787457093614822"><ele>24.5</ele><time>2026-04-12T09:43:04.016Z</time></trkpt><trkpt lat="53.39744348140513" lon="14.787344311887333"><ele>24.0</ele><time>2026-04-12T09:43:06.016Z</time></trkpt><trkpt lat="53.39751070168351" lon="14.787277252632217"><ele>23.5</ele><time>2026-04-12T09:43:08.016Z</time></trkpt><trkpt lat="53.3977240752377" lon="14.787062122188573"><ele>23.0</ele><time>2026-04-12T09:43:11.016Z</time></trkpt><trkpt lat="53.39779852179411" lon="14.786995624241618"><ele>23.0</ele><time>2026-04-12T09:43:12.016Z</time></trkpt><trkpt lat="53.397868315098975" lon="14.7869163270606"><ele>23.0</ele><time>2026-04-12T09:43:13.016Z</time></trkpt><trkpt lat="53.39796235606282" lon="14.786814891710975"><ele>23.0</ele><time>2026-04-12T09:43:14.016Z</time></trkpt><trkpt lat="53.39805875553684" lon="14.786714928773685"><ele>23.0</ele><time>2026-04-12T09:43:15.016Z</time></trkpt><trkpt lat="53.39815970576525" lon="14.786613260753892"><ele>23.0</ele><time>2026-04-12T09:43:16.016Z</time></trkpt><trkpt lat="53.398248581373736" lon="14.786512848838788"><ele>23.2</ele><time>2026-04-12T09:43:17.016Z</time></trkpt><trkpt lat="53.398348787606565" lon="14.786427201659192"><ele>23.4</ele><time>2026-04-12T09:43:18.016Z</time></trkpt><trkpt lat="53.39845516272866" lon="14.786345166678993"><ele>23.599999999999998</ele><time>2026-04-12T09:43:19.016Z</time></trkpt><trkpt lat="53.39854387301883" lon="14.786252308445066"><ele>23.799999999999997</ele><time>2026-04-12T09:43:20.015Z</time></trkpt><trkpt lat="53.3986364776318" lon="14.78614245354502"><ele>24.0</ele><time>2026-04-12T09:43:21.015Z</time></trkpt><trkpt lat="53.39872702217286" lon="14.786037295850209"><ele>24.0</ele><time>2026-04-12T09:43:22.015Z</time></trkpt><trkpt lat="53.39882191175134" lon="14.785951587845473"><ele>24.0</ele><time>2026-04-12T09:43:23.015Z</time></trkpt><trkpt lat="53.398917460172285" lon="14.785883654994073"><ele>24.0</ele><time>2026-04-12T09:43:24.015Z</time></trkpt><trkpt lat="53.398999339301355" lon="14.785817023153047"><ele>24.0</ele><time>2026-04-12T09:43:25.015Z</time></trkpt><trkpt lat="53.39908919247521" lon="14.785730998532475"><ele>24.0</ele><time>2026-04-12T09:43:26.015Z</time></trkpt><trkpt lat="53.39919232790572" lon="14.785640047618903"><ele>24.0</ele><time>2026-04-12T09:43:27.015Z</time></trkpt><trkpt lat="53.399274488457934" lon="14.785574746817442"><ele>24.0</ele><time>2026-04-12T09:43:28.015Z</time></trkpt><trkpt lat="53.39936716097335" lon="14.785488394776813"><ele>24.0</ele><time>2026-04-12T09:43:29.015Z</time></trkpt><trkpt lat="53.39946498438395" lon="14.785394354303829"><ele>24.0</ele><time>2026-04-12T09:43:30.015Z</time></trkpt><trkpt lat="53.39957037488945" lon="14.78532000402883"><ele>24.0</ele><time>2026-04-12T09:43:31.015Z</time></trkpt><trkpt lat="53.399675886276846" lon="14.785284703405216"><ele>24.2</ele><time>2026-04-12T09:43:32.015Z</time></trkpt><trkpt lat="53.39976774497429" lon="14.785247195710522"><ele>24.4</ele><time>2026-04-12T09:43:33.015Z</time></trkpt><trkpt lat="53.39986182934382" lon="14.78519969627187"><ele>24.6</ele><time>2026-04-12T09:43:34.015Z</time></trkpt><trkpt lat="53.39997014703081" lon="14.78513201121974"><ele>24.8</ele><time>2026-04-12T09:43:35.015Z</time></trkpt><trkpt lat="53.40007726827356" lon="14.785071798921768"><ele>25.0</ele><time>2026-04-12T09:43:36.015Z</time></trkpt><trkpt lat="53.40019280496459" lon="14.78497593641774"><ele>25.0</ele><time>2026-04-12T09:43:37.015Z</time></trkpt><trkpt lat="53.40030558581173" lon="14.78487722315367"><ele>25.0</ele><time>2026-04-12T09:43:38.015Z</time></trkpt><trkpt lat="53.40041587478345" lon="14.78479991396709"><ele>25.0</ele><time>2026-04-12T09:43:39.016Z</time></trkpt><trkpt lat="53.400525818534064" lon="14.78473437569146"><ele>25.0</ele><time>2026-04-12T09:43:40.016Z</time></trkpt><trkpt lat="53.400633102239304" lon="14.784667732528066"><ele>25.25</ele><time>2026-04-12T09:43:41.016Z</time></trkpt><trkpt lat="53.400736338911756" lon="14.784590425589203"><ele>25.5</ele><time>2026-04-12T09:43:42.016Z</time></trkpt><trkpt lat="53.40083886229202" lon="14.784504594886299"><ele>25.75</ele><time>2026-04-12T09:43:43.016Z</time></trkpt><trkpt lat="53.4009540939033" lon="14.784409689111563"><ele>26.0</ele><time>2026-04-12T09:43:44.016Z</time></trkpt><trkpt lat="53.40106832827862" lon="14.784325006525696"><ele>26.25</ele><time>2026-04-12T09:43:45.016Z</time></trkpt><trkpt lat="53.401184084260265" lon="14.784243282891977"><ele>26.5</ele><time>2026-04-12T09:43:46.016Z</time></trkpt><trkpt lat="53.40130046674625" lon="14.78415844859999"><ele>26.75</ele><time>2026-04-12T09:43:47.016Z</time></trkpt><trkpt lat="53.40141599761541" lon="14.784065168616564"><ele>27.0</ele><time>2026-04-12T09:43:48.016Z</time></trkpt><trkpt lat="53.40151971699452" lon="14.783994399755645"><ele>27.0</ele><time>2026-04-12T09:43:49.016Z</time></trkpt><trkpt lat="53.40161366008729" lon="14.783915680599758"><ele>27.000000000000004</ele><time>2026-04-12T09:43:50.016Z</time></trkpt><trkpt lat="53.40171158820924" lon="14.783844891989327"><ele>27.000000000000004</ele><time>2026-04-12T09:43:51.016Z</time></trkpt><trkpt lat="53.4018007556894" lon="14.78377773173239"><ele>27.0</ele><time>2026-04-12T09:43:52.016Z</time></trkpt><trkpt lat="53.40190718409596" lon="14.783698172179065"><ele>27.0</ele><time>2026-04-12T09:43:53.016Z</time></trkpt><trkpt lat="53.402008268751885" lon="14.783598463193787"><ele>27.0</ele><time>2026-04-12T09:43:54.016Z</time></trkpt><trkpt lat="53.40211666847448" lon="14.783504456247728"><ele>27.0</ele><time>2026-04-12T09:43:55.016Z</time></trkpt><trkpt lat="53.40223110376829" lon="14.783417040409141"><ele>27.0</ele><time>2026-04-12T09:43:56.016Z</time></trkpt><trkpt lat="53.40232290421052" lon="14.783350214519825"><ele>27.0</ele><time>2026-04-12T09:43:57.016Z</time></trkpt><trkpt lat="53.40243281451528" lon="14.783290026139996"><ele>26.666666666666664</ele><time>2026-04-12T09:43:58.016Z</time></trkpt><trkpt lat="53.40256671255402" lon="14.783235224368399"><ele>26.333333333333332</ele><time>2026-04-12T09:43:59.016Z</time></trkpt><trkpt lat="53.40272487203042" lon="14.783186343824413"><ele>26.0</ele><time>2026-04-12T09:44:00.016Z</time></trkpt><trkpt lat="53.40288756787092" lon="14.783124083424676"><ele>26.0</ele><time>2026-04-12T09:44:01.016Z</time></trkpt><trkpt lat="53.40303618537418" lon="14.78303851386278"><ele>26.0</ele><time>2026-04-12T09:44:02.016Z</time></trkpt><trkpt lat="53.4031712450239" lon="14.782929661112739"><ele>26.0</ele><time>2026-04-12T09:44:03.016Z</time></trkpt><trkpt lat="53.40329886103892" lon="14.78281420749158"><ele>26.0</ele><time>2026-04-12T09:44:04.016Z</time></trkpt><trkpt lat="53.40342880515573" lon="14.78272286899849"><ele>26.0</ele><time>2026-04-12T09:44:05.016Z</time></trkpt><trkpt lat="53.40354578122834" lon="14.782626756350984"><ele>26.0</ele><time>2026-04-12T09:44:06.016Z</time></trkpt><trkpt lat="53.403668388975795" lon="14.782526784765803"><ele>26.0</ele><time>2026-04-12T09:44:07.016Z</time></trkpt><trkpt lat="53.40379523840578" lon="14.78244430343583"><ele>25.5</ele><time>2026-04-12T09:44:08.016Z</time></trkpt><trkpt lat="53.40392651011303" lon="14.78235437010914"><ele>25.0</ele><time>2026-04-12T09:44:09.016Z</time></trkpt><trkpt lat="53.404063902828504" lon="14.782272271753282"><ele>24.5</ele><time>2026-04-12T09:44:10.016Z</time></trkpt><trkpt lat="53.404207250605694" lon="14.782162784397888"><ele>24.0</ele><time>2026-04-12T09:44:11.016Z</time></trkpt><trkpt lat="53.40435585423233" lon="14.7820550042971"><ele>24.0</ele><time>2026-04-12T09:44:12.016Z</time></trkpt><trkpt lat="53.40448412198077" lon="14.781960971751824"><ele>24.0</ele><time>2026-04-12T09:44:13.016Z</time></trkpt><trkpt lat="53.40461774345841" lon="14.78187154319597"><ele>24.0</ele><time>2026-04-12T09:44:14.016Z</time></trkpt><trkpt lat="53.4047368690568" lon="14.781781404726038"><ele>24.0</ele><time>2026-04-12T09:44:15.016Z</time></trkpt><trkpt lat="53.40484829908122" lon="14.781697911179"><ele>23.799999999999997</ele><time>2026-04-12T09:44:16.016Z</time></trkpt><trkpt lat="53.40494809298843" lon="14.781625141952112"><ele>23.599999999999998</ele><time>2026-04-12T09:44:17.016Z</time></trkpt><trkpt lat="53.40503908629655" lon="14.781546645593664"><ele>23.4</ele><time>2026-04-12T09:44:18.016Z</time></trkpt><trkpt lat="53.40510984928779" lon="14.781475517335048"><ele>23.2</ele><time>2026-04-12T09:44:19.016Z</time></trkpt><trkpt lat="53.40519999899979" lon="14.781393760702047"><ele>23.0</ele><time>2026-04-12T09:44:21.016Z</time></trkpt><trkpt lat="53.40529483528734" lon="14.781248143799106"><ele>23.0</ele><time>2026-04-12T09:45:01.017Z</time></trkpt><trkpt lat="53.40528371828563" lon="14.781127490313795"><ele>23.0</ele><time>2026-04-12T09:45:05.017Z</time></trkpt><trkpt lat="53.405232042663485" lon="14.781042971967487"><ele>23.0</ele><time>2026-04-12T09:45:07.017Z</time></trkpt><trkpt lat="53.40516881210517" lon="14.780971923842166"><ele>23.0</ele><time>2026-04-12T09:45:08.017Z</time></trkpt><trkpt lat="53.40508943085198" lon="14.780955160861872"><ele>23.0</ele><time>2026-04-12T09:45:09.017Z</time></trkpt><trkpt lat="53.40503333466686" lon="14.780868074167048"><ele>23.0</ele><time>2026-04-12T09:45:10.017Z</time></trkpt><trkpt lat="53.404976877310304" lon="14.780751089832123"><ele>23.166666666666668</ele><time>2026-04-12T09:45:11.017Z</time></trkpt><trkpt lat="53.40490443016754" lon="14.78067692006992"><ele>23.333333333333336</ele><time>2026-04-12T09:45:12.017Z</time></trkpt><trkpt lat="53.404842136283804" lon="14.780587854897844"><ele>23.5</ele><time>2026-04-12T09:45:13.017Z</time></trkpt><trkpt lat="53.40477968232949" lon="14.780499395151736"><ele>23.666666666666668</ele><time>2026-04-12T09:45:14.017Z</time></trkpt><trkpt lat="53.40471699279834" lon="14.780402961800046"><ele>23.833333333333332</ele><time>2026-04-12T09:45:15.017Z</time></trkpt><trkpt lat="53.40465230015948" lon="14.780297343283335"><ele>24.0</ele><time>2026-04-12T09:45:16.017Z</time></trkpt><trkpt lat="53.404584638303305" lon="14.780214142655193"><ele>24.0</ele><time>2026-04-12T09:45:17.017Z</time></trkpt><trkpt lat="53.40452943775283" lon="14.780132040627477"><ele>24.0</ele><time>2026-04-12T09:45:18.017Z</time></trkpt><trkpt lat="53.4044666360915" lon="14.780041835819809"><ele>24.0</ele><time>2026-04-12T09:45:19.017Z</time></trkpt><trkpt lat="53.40440132188292" lon="14.779938085366279"><ele>24.0</ele><time>2026-04-12T09:45:20.017Z</time></trkpt><trkpt lat="53.404326612600165" lon="14.779824833090728"><ele>24.0</ele><time>2026-04-12T09:45:21.018Z</time></trkpt><trkpt lat="53.40426379615063" lon="14.77969662042034"><ele>24.0</ele><time>2026-04-12T09:45:22.018Z</time></trkpt><trkpt lat="53.40418352691382" lon="14.779591729011091"><ele>24.0</ele><time>2026-04-12T09:45:23.018Z</time></trkpt><trkpt lat="53.4041063360705" lon="14.779450860703"><ele>24.0</ele><time>2026-04-12T09:45:24.018Z</time></trkpt><trkpt lat="53.404030118770066" lon="14.779331336938258"><ele>24.0</ele><time>2026-04-12T09:45:25.018Z</time></trkpt><trkpt lat="53.40396526309196" lon="14.77923081967464"><ele>24.0</ele><time>2026-04-12T09:45:26.016Z</time></trkpt><trkpt lat="53.403897330357346" lon="14.779125047964898"><ele>24.0</ele><time>2026-04-12T09:45:27.016Z</time></trkpt><trkpt lat="53.40382805115128" lon="14.779016898170587"><ele>24.4</ele><time>2026-04-12T09:45:28.016Z</time></trkpt><trkpt lat="53.40374916362225" lon="14.778894307503773"><ele>24.799999999999997</ele><time>2026-04-12T09:45:29.017Z</time></trkpt><trkpt lat="53.40366801715372" lon="14.77876820064589"><ele>25.200000000000003</ele><time>2026-04-12T09:45:30.016Z</time></trkpt><trkpt lat="53.40359238289533" lon="14.778650209480206"><ele>25.6</ele><time>2026-04-12T09:45:31.016Z</time></trkpt><trkpt lat="53.403526281746046" lon="14.778547053846983"><ele>26.0</ele><time>2026-04-12T09:45:32.016Z</time></trkpt><trkpt lat="53.403456044913476" lon="14.778436330131647"><ele>26.0</ele><time>2026-04-12T09:45:33.016Z</time></trkpt><trkpt lat="53.40338225765826" lon="14.778317244351612"><ele>26.0</ele><time>2026-04-12T09:45:34.016Z</time></trkpt><trkpt lat="53.40330238722617" lon="14.778213347394884"><ele>26.0</ele><time>2026-04-12T09:45:35.017Z</time></trkpt><trkpt lat="53.40322230877505" lon="14.778099598697825"><ele>26.0</ele><time>2026-04-12T09:45:36.016Z</time></trkpt><trkpt lat="53.403149585600694" lon="14.777980095641333"><ele>26.0</ele><time>2026-04-12T09:45:37.016Z</time></trkpt><trkpt lat="53.40306109746842" lon="14.777857854490378"><ele>25.200000000000003</ele><time>2026-04-12T09:45:38.016Z</time></trkpt><trkpt lat="53.40299561154872" lon="14.77774107292473"><ele>24.400000000000002</ele><time>2026-04-12T09:45:39.015Z</time></trkpt><trkpt lat="53.402910196592494" lon="14.777623054787606"><ele>23.6</ele><time>2026-04-12T09:45:40.015Z</time></trkpt><trkpt lat="53.40283929882553" lon="14.777476615225876"><ele>22.8</ele><time>2026-04-12T09:45:41.016Z</time></trkpt><trkpt lat="53.40273686301463" lon="14.777356689238387"><ele>22.0</ele><time>2026-04-12T09:45:42.016Z</time></trkpt><trkpt lat="53.40266759209102" lon="14.777210363683261"><ele>21.0</ele><time>2026-04-12T09:45:43.016Z</time></trkpt><trkpt lat="53.40257252593062" lon="14.777075781942099"><ele>20.0</ele><time>2026-04-12T09:45:44.016Z</time></trkpt><trkpt lat="53.40246745373751" lon="14.776930141375571"><ele>19.0</ele><time>2026-04-12T09:45:45.016Z</time></trkpt><trkpt lat="53.402356757167176" lon="14.776811514210623"><ele>18.0</ele><time>2026-04-12T09:45:46.016Z</time></trkpt><trkpt lat="53.402239424598065" lon="14.77664021290779"><ele>16.333333333333332</ele><time>2026-04-12T09:45:47.016Z</time></trkpt><trkpt lat="53.4021165346001" lon="14.776422385809902"><ele>14.666666666666666</ele><time>2026-04-12T09:45:48.016Z</time></trkpt><trkpt lat="53.40198565959796" lon="14.776242434209838"><ele>13.0</ele><time>2026-04-12T09:45:49.016Z</time></trkpt><trkpt lat="53.40187123668289" lon="14.7760773006747"><ele>12.75</ele><time>2026-04-12T09:45:50.016Z</time></trkpt><trkpt lat="53.40176144830453" lon="14.775922408754958"><ele>12.5</ele><time>2026-04-12T09:45:51.016Z</time></trkpt><trkpt lat="53.40165155046537" lon="14.77576703466017"><ele>12.25</ele><time>2026-04-12T09:45:52.016Z</time></trkpt><trkpt lat="53.40154775053094" lon="14.775619798321411"><ele>12.0</ele><time>2026-04-12T09:45:53.016Z</time></trkpt><trkpt lat="53.40145667757556" lon="14.775473796947821"><ele>12.0</ele><time>2026-04-12T09:45:54.016Z</time></trkpt><trkpt lat="53.40136723607207" lon="14.77534639193001"><ele>12.0</ele><time>2026-04-12T09:45:55.016Z</time></trkpt><trkpt lat="53.40128031459453" lon="14.775220596769453"><ele>12.0</ele><time>2026-04-12T09:45:56.016Z</time></trkpt><trkpt lat="53.40119788547516" lon="14.775104079681567"><ele>12.0</ele><time>2026-04-12T09:45:57.016Z</time></trkpt><trkpt lat="53.40111285972823" lon="14.774992186833604"><ele>12.0</ele><time>2026-04-12T09:45:58.016Z</time></trkpt><trkpt lat="53.40103767323146" lon="14.77485877520025"><ele>12.0</ele><time>2026-04-12T09:45:59.016Z</time></trkpt><trkpt lat="53.400954957656396" lon="14.774731266908681"><ele>12.0</ele><time>2026-04-12T09:46:00.016Z</time></trkpt><trkpt lat="53.4008749245082" lon="14.774609662920703"><ele>12.0</ele><time>2026-04-12T09:46:01.016Z</time></trkpt><trkpt lat="53.400783916691154" lon="14.774494950489919"><ele>12.0</ele><time>2026-04-12T09:46:02.016Z</time></trkpt><trkpt lat="53.400688113628775" lon="14.774398318840749"><ele>12.0</ele><time>2026-04-12T09:46:03.016Z</time></trkpt><trkpt lat="53.40060082729056" lon="14.774311187252806"><ele>12.0</ele><time>2026-04-12T09:46:04.016Z</time></trkpt><trkpt lat="53.40051397273845" lon="14.774226097985228"><ele>12.0</ele><time>2026-04-12T09:46:05.016Z</time></trkpt><trkpt lat="53.40042988658934" lon="14.77414263720631"><ele>12.0</ele><time>2026-04-12T09:46:06.016Z</time></trkpt><trkpt lat="53.400337190312655" lon="14.774074984723953"><ele>12.0</ele><time>2026-04-12T09:46:07.016Z</time></trkpt><trkpt lat="53.400276464387204" lon="14.77395071675982"><ele>12.0</ele><time>2026-04-12T09:46:08.016Z</time></trkpt><trkpt lat="53.40021176482303" lon="14.773833974840885"><ele>12.0</ele><time>2026-04-12T09:46:09.016Z</time></trkpt><trkpt lat="53.40015075771442" lon="14.77372030424083"><ele>12.0</ele><time>2026-04-12T09:46:10.016Z</time></trkpt><trkpt lat="53.40010599669565" lon="14.773589195100914"><ele>12.0</ele><time>2026-04-12T09:46:11.016Z</time></trkpt><trkpt lat="53.40005391784713" lon="14.773504418950358"><ele>12.0</ele><time>2026-04-12T09:46:12.016Z</time></trkpt><trkpt lat="53.399998631342605" lon="14.773433620331165"><ele>12.0</ele><time>2026-04-12T09:46:13.016Z</time></trkpt><trkpt lat="53.39991117521849" lon="14.77331605524506"><ele>12.0</ele><time>2026-04-12T09:46:15.016Z</time></trkpt><trkpt lat="53.39987304253008" lon="14.773221927521147"><ele>12.0</ele><time>2026-04-12T09:46:17.016Z</time></trkpt><trkpt lat="53.39981758612691" lon="14.773169429852427"><ele>12.0</ele><time>2026-04-12T09:46:20.016Z</time></trkpt><trkpt lat="53.400101392297024" lon="14.773143686963412"><ele>12.0</ele><time>2026-04-12T09:46:21.016Z</time></trkpt><trkpt lat="53.4001990214983" lon="14.773124022695745"><ele>12.0</ele><time>2026-04-12T09:46:22.016Z</time></trkpt><trkpt lat="53.40029786587571" lon="14.77313885623182"><ele>12.0</ele><time>2026-04-12T09:46:23.016Z</time></trkpt><trkpt lat="53.40040383835128" lon="14.773145842683213"><ele>12.0</ele><time>2026-04-12T09:46:24.016Z</time></trkpt><trkpt lat="53.40050056928832" lon="14.773139820463362"><ele>12.0</ele><time>2026-04-12T09:46:25.016Z</time></trkpt><trkpt lat="53.40058450480644" lon="14.773132344985589"><ele>12.0</ele><time>2026-04-12T09:46:26.016Z</time></trkpt><trkpt lat="53.400654602257795" lon="14.773131150563831"><ele>12.0</ele><time>2026-04-12T09:46:27.016Z</time></trkpt><trkpt lat="53.40072257327989" lon="14.773130076628128"><ele>12.0</ele><time>2026-04-12T09:46:28.016Z</time></trkpt><trkpt lat="53.40079042431899" lon="14.773125698622135"><ele>12.0</ele><time>2026-04-12T09:46:29.016Z</time></trkpt><trkpt lat="53.40090742573722" lon="14.77313224112271"><ele>12.0</ele><time>2026-04-12T09:46:31.016Z</time></trkpt><trkpt lat="53.40097087683113" lon="14.773136754563494"><ele>12.0</ele><time>2026-04-12T09:46:33.017Z</time></trkpt><trkpt lat="53.400844072323366" lon="14.773050106150881"><ele>12.0</ele><time>2026-04-12T09:46:39.017Z</time></trkpt><trkpt lat="53.40075978378249" lon="14.773067869760292"><ele>12.0</ele><time>2026-04-12T09:46:40.017Z</time></trkpt><trkpt lat="53.40063912991728" lon="14.773077810726178"><ele>12.0</ele><time>2026-04-12T09:46:41.017Z</time></trkpt><trkpt lat="53.400510053858746" lon="14.773081619766891"><ele>12.0</ele><time>2026-04-12T09:46:42.017Z</time></trkpt><trkpt lat="53.40038185511341" lon="14.773089206857641"><ele>12.0</ele><time>2026-04-12T09:46:43.017Z</time></trkpt><trkpt lat="53.400276871681115" lon="14.773094712354391"><ele>12.0</ele><time>2026-04-12T09:46:44.017Z</time></trkpt><trkpt lat="53.40018142896113" lon="14.773095418079167"><ele>12.0</ele><time>2026-04-12T09:46:45.017Z</time></trkpt><trkpt lat="53.40009302654028" lon="14.773099116075777"><ele>12.0</ele><time>2026-04-12T09:46:46.017Z</time></trkpt><trkpt lat="53.40000446822656" lon="14.773100039837141"><ele>12.0</ele><time>2026-04-12T09:46:47.017Z</time></trkpt><trkpt lat="53.39990921763434" lon="14.773097588911266"><ele>12.0</ele><time>2026-04-12T09:46:48.017Z</time></trkpt><trkpt lat="53.39983287324656" lon="14.77307686766394"><ele>12.0</ele><time>2026-04-12T09:46:49.017Z</time></trkpt><trkpt lat="53.39974735517293" lon="14.773044142838804"><ele>12.0</ele><time>2026-04-12T09:46:50.017Z</time></trkpt><trkpt lat="53.39967499812721" lon="14.77298130946447"><ele>12.0</ele><time>2026-04-12T09:46:51.017Z</time></trkpt><trkpt lat="53.399606588574095" lon="14.772893380743433"><ele>12.0</ele><time>2026-04-12T09:46:52.017Z</time></trkpt><trkpt lat="53.39952296849826" lon="14.772798387696227"><ele>12.0</ele><time>2026-04-12T09:46:53.017Z</time></trkpt><trkpt lat="53.39944010065236" lon="14.77269086337313"><ele>12.0</ele><time>2026-04-12T09:46:54.017Z</time></trkpt><trkpt lat="53.39935596830215" lon="14.772580226689742"><ele>12.0</ele><time>2026-04-12T09:46:55.017Z</time></trkpt><trkpt lat="53.39927372669575" lon="14.772462623700491"><ele>11.8</ele><time>2026-04-12T09:46:56.017Z</time></trkpt><trkpt lat="53.3991860338925" lon="14.772346577577848"><ele>11.6</ele><time>2026-04-12T09:46:57.017Z</time></trkpt><trkpt lat="53.39910009937143" lon="14.772226433308905"><ele>11.4</ele><time>2026-04-12T09:46:58.017Z</time></trkpt><trkpt lat="53.399019478015795" lon="14.772120246451122"><ele>11.200000000000001</ele><time>2026-04-12T09:46:59.017Z</time></trkpt><trkpt lat="53.39894092100717" lon="14.772002822154827"><ele>11.0</ele><time>2026-04-12T09:47:00.017Z</time></trkpt><trkpt lat="53.39886443856998" lon="14.771894672184514"><ele>11.200000000000001</ele><time>2026-04-12T09:47:01.017Z</time></trkpt><trkpt lat="53.398787756955144" lon="14.771783603414532"><ele>11.4</ele><time>2026-04-12T09:47:02.017Z</time></trkpt><trkpt lat="53.398708911007034" lon="14.77167274413663"><ele>11.6</ele><time>2026-04-12T09:47:03.017Z</time></trkpt><trkpt lat="53.39863725590296" lon="14.771565823751287"><ele>11.8</ele><time>2026-04-12T09:47:04.017Z</time></trkpt><trkpt lat="53.39856568602388" lon="14.771464121973338"><ele>12.0</ele><time>2026-04-12T09:47:05.017Z</time></trkpt><trkpt lat="53.39849636783451" lon="14.771366693406254"><ele>12.0</ele><time>2026-04-12T09:47:06.017Z</time></trkpt><trkpt lat="53.39842545831636" lon="14.771271238154133"><ele>12.0</ele><time>2026-04-12T09:47:07.017Z</time></trkpt><trkpt lat="53.39835015527721" lon="14.771169296974334"><ele>12.0</ele><time>2026-04-12T09:47:08.017Z</time></trkpt><trkpt lat="53.39827260734225" lon="14.771055258044665"><ele>12.0</ele><time>2026-04-12T09:47:09.017Z</time></trkpt><trkpt lat="53.39820153058778" lon="14.770954675342882"><ele>12.0</ele><time>2026-04-12T09:47:10.017Z</time></trkpt><trkpt lat="53.398129672542" lon="14.770849320767592"><ele>12.0</ele><time>2026-04-12T09:47:11.017Z</time></trkpt><trkpt lat="53.39806079701445" lon="14.770740440904065"><ele>12.0</ele><time>2026-04-12T09:47:12.017Z</time></trkpt><trkpt lat="53.397989127332934" lon="14.770640610623916"><ele>12.0</ele><time>2026-04-12T09:47:13.017Z</time></trkpt><trkpt lat="53.39792366357285" lon="14.77054622921339"><ele>12.0</ele><time>2026-04-12T09:47:14.017Z</time></trkpt><trkpt lat="53.39786070229156" lon="14.77045809566442"><ele>12.0</ele><time>2026-04-12T09:47:15.017Z</time></trkpt><trkpt lat="53.39779727847179" lon="14.770364940737558"><ele>12.0</ele><time>2026-04-12T09:47:16.017Z</time></trkpt><trkpt lat="53.39773073188614" lon="14.770264050038284"><ele>11.8</ele><time>2026-04-12T09:47:17.017Z</time></trkpt><trkpt lat="53.39765255692535" lon="14.770161914647318"><ele>11.6</ele><time>2026-04-12T09:47:18.017Z</time></trkpt><trkpt lat="53.39757423065393" lon="14.770055867987637"><ele>11.4</ele><time>2026-04-12T09:47:19.017Z</time></trkpt><trkpt lat="53.3974967889027" lon="14.769952475382832"><ele>11.200000000000001</ele><time>2026-04-12T09:47:20.017Z</time></trkpt><trkpt lat="53.39742287543723" lon="14.769851638181697"><ele>11.0</ele><time>2026-04-12T09:47:21.017Z</time></trkpt><trkpt lat="53.39734738191398" lon="14.76975004335448"><ele>11.0</ele><time>2026-04-12T09:47:22.018Z</time></trkpt><trkpt lat="53.39727707121955" lon="14.769654630943826"><ele>11.0</ele><time>2026-04-12T09:47:23.018Z</time></trkpt><trkpt lat="53.39722432765434" lon="14.769585028229958"><ele>11.0</ele><time>2026-04-12T09:47:24.018Z</time></trkpt><trkpt lat="53.397184310631935" lon="14.769478977845095"><ele>11.0</ele><time>2026-04-12T09:47:26.018Z</time></trkpt><trkpt lat="53.39729686095844" lon="14.769284433068364"><ele>11.0</ele><time>2026-04-12T09:47:28.018Z</time></trkpt><trkpt lat="53.39735823032626" lon="14.769131257109214"><ele>11.0</ele><time>2026-04-12T09:47:29.018Z</time></trkpt><trkpt lat="53.397444316747794" lon="14.7690005617531"><ele>11.0</ele><time>2026-04-12T09:47:30.018Z</time></trkpt><trkpt lat="53.39750440911615" lon="14.768881172162978"><ele>11.0</ele><time>2026-04-12T09:47:31.018Z</time></trkpt><trkpt lat="53.397547870255174" lon="14.768753538701487"><ele>11.0</ele><time>2026-04-12T09:47:32.018Z</time></trkpt><trkpt lat="53.397622073862856" lon="14.768630269387488"><ele>11.0</ele><time>2026-04-12T09:47:33.017Z</time></trkpt><trkpt lat="53.397695355025" lon="14.768477390159141"><ele>11.0</ele><time>2026-04-12T09:47:34.017Z</time></trkpt><trkpt lat="53.39777342992823" lon="14.768323148191232"><ele>11.0</ele><time>2026-04-12T09:47:35.017Z</time></trkpt><trkpt lat="53.397849326387906" lon="14.768167546913958"><ele>11.0</ele><time>2026-04-12T09:47:36.017Z</time></trkpt><trkpt lat="53.39792991109025" lon="14.768012504559866"><ele>11.0</ele><time>2026-04-12T09:47:37.017Z</time></trkpt><trkpt lat="53.39801952027425" lon="14.767893765297455"><ele>11.0</ele><time>2026-04-12T09:47:38.018Z</time></trkpt><trkpt lat="53.3980859548171" lon="14.767743729939934"><ele>11.0</ele><time>2026-04-12T09:47:39.017Z</time></trkpt><trkpt lat="53.39817652705199" lon="14.767612346409877"><ele>11.0</ele><time>2026-04-12T09:47:40.017Z</time></trkpt><trkpt lat="53.39826902641856" lon="14.767485067269764"><ele>11.0</ele><time>2026-04-12T09:47:41.017Z</time></trkpt><trkpt lat="53.39836162372326" lon="14.767340864115816"><ele>10.5</ele><time>2026-04-12T09:47:42.017Z</time></trkpt><trkpt lat="53.398466003626254" lon="14.767204608555945"><ele>10.0</ele><time>2026-04-12T09:47:43.017Z</time></trkpt><trkpt lat="53.3985689569725" lon="14.767064111544794"><ele>9.5</ele><time>2026-04-12T09:47:44.017Z</time></trkpt><trkpt lat="53.39867478245134" lon="14.766925218451847"><ele>9.0</ele><time>2026-04-12T09:47:45.017Z</time></trkpt><trkpt lat="53.39877416309343" lon="14.7667950791815"><ele>8.75</ele><time>2026-04-12T09:47:46.017Z</time></trkpt><trkpt lat="53.39887504793237" lon="14.766661645572256"><ele>8.5</ele><time>2026-04-12T09:47:47.017Z</time></trkpt><trkpt lat="53.39897175701297" lon="14.766532027786575"><ele>8.25</ele><time>2026-04-12T09:47:48.017Z</time></trkpt><trkpt lat="53.39907331737383" lon="14.766401302053445"><ele>8.0</ele><time>2026-04-12T09:47:49.017Z</time></trkpt><trkpt lat="53.39918093536688" lon="14.766262024002161"><ele>8.0</ele><time>2026-04-12T09:47:50.017Z</time></trkpt><trkpt lat="53.39929195892692" lon="14.766115671145476"><ele>8.0</ele><time>2026-04-12T09:47:51.017Z</time></trkpt><trkpt lat="53.39940553226993" lon="14.76596428699099"><ele>8.0</ele><time>2026-04-12T09:47:52.017Z</time></trkpt><trkpt lat="53.399510444265616" lon="14.76582148472876"><ele>8.0</ele><time>2026-04-12T09:47:53.017Z</time></trkpt><trkpt lat="53.39962368380251" lon="14.76570116497571"><ele>8.0</ele><time>2026-04-12T09:47:54.017Z</time></trkpt><trkpt lat="53.39972769506837" lon="14.765564294137397"><ele>8.0</ele><time>2026-04-12T09:47:55.017Z</time></trkpt><trkpt lat="53.39982212160091" lon="14.765404047616801"><ele>8.0</ele><time>2026-04-12T09:47:56.017Z</time></trkpt><trkpt lat="53.39993793058557" lon="14.76526065189217"><ele>8.0</ele><time>2026-04-12T09:47:57.017Z</time></trkpt><trkpt lat="53.4000408623668" lon="14.765113667842648"><ele>8.0</ele><time>2026-04-12T09:47:58.017Z</time></trkpt><trkpt lat="53.400150305620244" lon="14.76496592253235"><ele>8.0</ele><time>2026-04-12T09:47:59.017Z</time></trkpt><trkpt lat="53.40026865519808" lon="14.764798443848633"><ele>8.0</ele><time>2026-04-12T09:48:00.018Z</time></trkpt><trkpt lat="53.40038035627501" lon="14.764643895720885"><ele>8.0</ele><time>2026-04-12T09:48:01.018Z</time></trkpt><trkpt lat="53.40049393705016" lon="14.764488800531565"><ele>7.75</ele><time>2026-04-12T09:48:02.018Z</time></trkpt><trkpt lat="53.40060860628821" lon="14.764330696842338"><ele>7.5</ele><time>2026-04-12T09:48:03.018Z</time></trkpt><trkpt lat="53.400710409423674" lon="14.764187729617792"><ele>7.25</ele><time>2026-04-12T09:48:04.018Z</time></trkpt><trkpt lat="53.40082199099888" lon="14.764023616630327"><ele>7.0</ele><time>2026-04-12T09:48:05.018Z</time></trkpt><trkpt lat="53.400925972516355" lon="14.763887561177334"><ele>7.0</ele><time>2026-04-12T09:48:06.018Z</time></trkpt><trkpt lat="53.401013848639515" lon="14.763736051824775"><ele>7.0</ele><time>2026-04-12T09:48:07.018Z</time></trkpt><trkpt lat="53.401108237999786" lon="14.763597500881602"><ele>7.0</ele><time>2026-04-12T09:48:08.018Z</time></trkpt><trkpt lat="53.40120672700393" lon="14.763451568956057"><ele>7.0</ele><time>2026-04-12T09:48:09.018Z</time></trkpt><trkpt lat="53.40130872459887" lon="14.763303965341828"><ele>7.5</ele><time>2026-04-12T09:48:10.018Z</time></trkpt><trkpt lat="53.40141722542282" lon="14.763163361866681"><ele>8.0</ele><time>2026-04-12T09:48:11.018Z</time></trkpt><trkpt lat="53.40151478612919" lon="14.763036994486047"><ele>8.5</ele><time>2026-04-12T09:48:12.018Z</time></trkpt><trkpt lat="53.40159564070568" lon="14.762908467903108"><ele>9.0</ele><time>2026-04-12T09:48:13.018Z</time></trkpt><trkpt lat="53.40167673873215" lon="14.762791299274763"><ele>9.4</ele><time>2026-04-12T09:48:14.018Z</time></trkpt><trkpt lat="53.401760176914884" lon="14.76266912329325"><ele>9.8</ele><time>2026-04-12T09:48:15.018Z</time></trkpt><trkpt lat="53.40184069137431" lon="14.762555512037663"><ele>10.200000000000001</ele><time>2026-04-12T09:48:16.018Z</time></trkpt><trkpt lat="53.401918693610305" lon="14.76243426638239"><ele>10.600000000000001</ele><time>2026-04-12T09:48:17.018Z</time></trkpt><trkpt lat="53.40199984047331" lon="14.762303311115359"><ele>11.0</ele><time>2026-04-12T09:48:18.018Z</time></trkpt><trkpt lat="53.4020453090887" lon="14.762182262189816"><ele>11.0</ele><time>2026-04-12T09:48:19.018Z</time></trkpt><trkpt lat="53.40216145564978" lon="14.762131477427557"><ele>11.0</ele><time>2026-04-12T09:48:20.018Z</time></trkpt><trkpt lat="53.40225296053646" lon="14.762040083397904"><ele>11.0</ele><time>2026-04-12T09:48:21.018Z</time></trkpt><trkpt lat="53.40234865601597" lon="14.761960489118593"><ele>11.0</ele><time>2026-04-12T09:48:22.018Z</time></trkpt><trkpt lat="53.40245388418813" lon="14.761889628202024"><ele>11.0</ele><time>2026-04-12T09:48:23.018Z</time></trkpt><trkpt lat="53.40254270338831" lon="14.761804287100713"><ele>12.600000000000001</ele><time>2026-04-12T09:48:24.018Z</time></trkpt><trkpt lat="53.40263863257423" lon="14.761738010630266"><ele>14.2</ele><time>2026-04-12T09:48:25.018Z</time></trkpt><trkpt lat="53.40273147986037" lon="14.761679922056414"><ele>15.799999999999999</ele><time>2026-04-12T09:48:26.018Z</time></trkpt><trkpt lat="53.40282508668414" lon="14.761610029138954"><ele>17.4</ele><time>2026-04-12T09:48:27.018Z</time></trkpt><trkpt lat="53.40293026657742" lon="14.761567587310953"><ele>19.0</ele><time>2026-04-12T09:48:28.018Z</time></trkpt><trkpt lat="53.40302204992738" lon="14.761505299303062"><ele>19.6</ele><time>2026-04-12T09:48:29.018Z</time></trkpt><trkpt lat="53.40310774741221" lon="14.761426733279194"><ele>20.2</ele><time>2026-04-12T09:48:30.018Z</time></trkpt><trkpt lat="53.40320902906457" lon="14.761365171143858"><ele>20.8</ele><time>2026-04-12T09:48:31.018Z</time></trkpt><trkpt lat="53.40330832435863" lon="14.761299242878247"><ele>21.400000000000002</ele><time>2026-04-12T09:48:32.018Z</time></trkpt><trkpt lat="53.40341262287852" lon="14.76123153780193"><ele>22.0</ele><time>2026-04-12T09:48:33.018Z</time></trkpt><trkpt lat="53.4035248960172" lon="14.761158564064589"><ele>22.0</ele><time>2026-04-12T09:48:34.018Z</time></trkpt><trkpt lat="53.40363415935539" lon="14.76108878809633"><ele>22.0</ele><time>2026-04-12T09:48:35.018Z</time></trkpt><trkpt lat="53.40373659269829" lon="14.761024949010043"><ele>22.0</ele><time>2026-04-12T09:48:36.018Z</time></trkpt><trkpt lat="53.40383053789998" lon="14.760941488574945"><ele>22.0</ele><time>2026-04-12T09:48:37.018Z</time></trkpt><trkpt lat="53.40393110027961" lon="14.760881192236155"><ele>22.0</ele><time>2026-04-12T09:48:38.018Z</time></trkpt><trkpt lat="53.40404223627143" lon="14.760818283196745"><ele>22.25</ele><time>2026-04-12T09:48:39.018Z</time></trkpt><trkpt lat="53.40415135550104" lon="14.760769531123524"><ele>22.5</ele><time>2026-04-12T09:48:40.018Z</time></trkpt><trkpt lat="53.404266429305565" lon="14.760725338200572"><ele>22.75</ele><time>2026-04-12T09:48:41.018Z</time></trkpt><trkpt lat="53.404376850496895" lon="14.760667610746612"><ele>23.0</ele><time>2026-04-12T09:48:42.018Z</time></trkpt><trkpt lat="53.40448476618089" lon="14.76059052123888"><ele>23.0</ele><time>2026-04-12T09:48:43.018Z</time></trkpt><trkpt lat="53.40460199220895" lon="14.760460651147225"><ele>23.0</ele><time>2026-04-12T09:48:44.018Z</time></trkpt><trkpt lat="53.40472130668303" lon="14.760284749780562"><ele>23.0</ele><time>2026-04-12T09:48:45.018Z</time></trkpt><trkpt lat="53.40483330342653" lon="14.760124467503061"><ele>23.0</ele><time>2026-04-12T09:48:46.018Z</time></trkpt><trkpt lat="53.40494193871059" lon="14.759972185698182"><ele>22.25</ele><time>2026-04-12T09:48:47.018Z</time></trkpt><trkpt lat="53.40503930997756" lon="14.759835835946443"><ele>21.5</ele><time>2026-04-12T09:48:48.018Z</time></trkpt><trkpt lat="53.40514283682846" lon="14.759687708255294"><ele>20.75</ele><time>2026-04-12T09:48:49.018Z</time></trkpt><trkpt lat="53.40525265369567" lon="14.759529617294488"><ele>20.0</ele><time>2026-04-12T09:48:50.018Z</time></trkpt><trkpt lat="53.40534500731524" lon="14.759410777829647"><ele>20.25</ele><time>2026-04-12T09:48:51.019Z</time></trkpt><trkpt lat="53.40543090070599" lon="14.759277838372054"><ele>20.5</ele><time>2026-04-12T09:48:52.019Z</time></trkpt><trkpt lat="53.405517724635644" lon="14.759134669626533"><ele>20.75</ele><time>2026-04-12T09:48:53.019Z</time></trkpt><trkpt lat="53.40563148205257" lon="14.758989125773182"><ele>21.0</ele><time>2026-04-12T09:48:54.019Z</time></trkpt><trkpt lat="53.4057350836033" lon="14.758830134920299"><ele>21.0</ele><time>2026-04-12T09:48:55.019Z</time></trkpt><trkpt lat="53.40583243778268" lon="14.758643154309942"><ele>21.0</ele><time>2026-04-12T09:48:56.019Z</time></trkpt><trkpt lat="53.40592421321087" lon="14.758503001593958"><ele>21.0</ele><time>2026-04-12T09:48:57.019Z</time></trkpt><trkpt lat="53.40601843042211" lon="14.758364733192204"><ele>21.0</ele><time>2026-04-12T09:48:58.019Z</time></trkpt><trkpt lat="53.40610617699248" lon="14.758232942247739"><ele>21.75</ele><time>2026-04-12T09:48:59.019Z</time></trkpt><trkpt lat="53.406188718989725" lon="14.758097330994765"><ele>22.5</ele><time>2026-04-12T09:49:00.019Z</time></trkpt><trkpt lat="53.4062704845109" lon="14.757971363779221"><ele>23.25</ele><time>2026-04-12T09:49:01.019Z</time></trkpt><trkpt lat="53.40636259533791" lon="14.757836247423418"><ele>24.0</ele><time>2026-04-12T09:49:02.019Z</time></trkpt><trkpt lat="53.40644608398299" lon="14.757739316066457"><ele>24.0</ele><time>2026-04-12T09:49:03.019Z</time></trkpt><trkpt lat="53.40648897087096" lon="14.75761194714087"><ele>24.0</ele><time>2026-04-12T09:49:04.019Z</time></trkpt><trkpt lat="53.40654048418927" lon="14.75752863480926"><ele>24.0</ele><time>2026-04-12T09:49:05.019Z</time></trkpt><trkpt lat="53.40659094154964" lon="14.75746120725756"><ele>24.0</ele><time>2026-04-12T09:49:06.019Z</time></trkpt><trkpt lat="53.40667191085608" lon="14.757385202606553"><ele>24.0</ele><time>2026-04-12T09:49:08.019Z</time></trkpt><trkpt lat="53.40678674446402" lon="14.75723072356749"><ele>24.0</ele><time>2026-04-12T09:52:43.02Z</time></trkpt><trkpt lat="53.40685724357136" lon="14.757148622822896"><ele>24.0</ele><time>2026-04-12T09:52:44.02Z</time></trkpt><trkpt lat="53.406929768647565" lon="14.757086284274513"><ele>24.0</ele><time>2026-04-12T09:52:45.02Z</time></trkpt><trkpt lat="53.40700744529879" lon="14.757043908947486"><ele>24.0</ele><time>2026-04-12T09:52:46.02Z</time></trkpt><trkpt lat="53.407095677672835" lon="14.756937066340084"><ele>24.0</ele><time>2026-04-12T09:52:47.02Z</time></trkpt><trkpt lat="53.407198143572295" lon="14.756862647879952"><ele>23.6</ele><time>2026-04-12T09:52:48.02Z</time></trkpt><trkpt lat="53.40730297357473" lon="14.756766496876907"><ele>23.2</ele><time>2026-04-12T09:52:49.02Z</time></trkpt><trkpt lat="53.407392183222214" lon="14.756694169124406"><ele>22.8</ele><time>2026-04-12T09:52:50.02Z</time></trkpt><trkpt lat="53.407471033011596" lon="14.756647757257284"><ele>22.400000000000002</ele><time>2026-04-12T09:52:51.02Z</time></trkpt><trkpt lat="53.407547658706676" lon="14.756556423419942"><ele>22.0</ele><time>2026-04-12T09:52:52.02Z</time></trkpt><trkpt lat="53.40762016476788" lon="14.756476302367252"><ele>22.0</ele><time>2026-04-12T09:52:53.02Z</time></trkpt><trkpt lat="53.40769958285289" lon="14.756421302263957"><ele>22.0</ele><time>2026-04-12T09:52:54.02Z</time></trkpt><trkpt lat="53.40778273971098" lon="14.756341731088634"><ele>22.0</ele><time>2026-04-12T09:52:55.02Z</time></trkpt><trkpt lat="53.407857915424685" lon="14.756276148955985"><ele>22.0</ele><time>2026-04-12T09:52:56.02Z</time></trkpt><trkpt lat="53.40792185081592" lon="14.756225022921845"><ele>22.0</ele><time>2026-04-12T09:52:57.02Z</time></trkpt><trkpt lat="53.407979350311805" lon="14.756164379393233"><ele>22.0</ele><time>2026-04-12T09:52:58.02Z</time></trkpt><trkpt lat="53.40802932382849" lon="14.75609869860591"><ele>21.833333333333332</ele><time>2026-04-12T09:52:59.02Z</time></trkpt><trkpt lat="53.40808885693786" lon="14.756035266968757"><ele>21.666666666666664</ele><time>2026-04-12T09:53:02.02Z</time></trkpt><trkpt lat="53.408164928853445" lon="14.755975402704081"><ele>21.5</ele><time>2026-04-12T09:53:07.02Z</time></trkpt><trkpt lat="53.40826298085752" lon="14.755899934363159"><ele>21.333333333333332</ele><time>2026-04-12T09:53:09.02Z</time></trkpt><trkpt lat="53.40832239379663" lon="14.755848395822762"><ele>21.166666666666668</ele><time>2026-04-12T09:53:10.02Z</time></trkpt><trkpt lat="53.408380830029984" lon="14.755798528106375"><ele>21.0</ele><time>2026-04-12T09:53:11.02Z</time></trkpt><trkpt lat="53.408451356266376" lon="14.755735539377003"><ele>21.0</ele><time>2026-04-12T09:53:12.02Z</time></trkpt><trkpt lat="53.40852456787932" lon="14.755667767335927"><ele>21.0</ele><time>2026-04-12T09:53:13.02Z</time></trkpt><trkpt lat="53.40858991076542" lon="14.755622245891292"><ele>21.0</ele><time>2026-04-12T09:53:14.02Z</time></trkpt><trkpt lat="53.40866293546517" lon="14.755553699112937"><ele>21.0</ele><time>2026-04-12T09:53:15.02Z</time></trkpt><trkpt lat="53.40873840424076" lon="14.755478911844941"><ele>21.0</ele><time>2026-04-12T09:53:16.02Z</time></trkpt><trkpt lat="53.408818608083074" lon="14.755389275123992"><ele>21.0</ele><time>2026-04-12T09:53:17.02Z</time></trkpt><trkpt lat="53.408897936659834" lon="14.755300694252512"><ele>20.400000000000002</ele><time>2026-04-12T09:53:18.02Z</time></trkpt><trkpt lat="53.408978722167525" lon="14.75521481981081"><ele>19.8</ele><time>2026-04-12T09:53:19.02Z</time></trkpt><trkpt lat="53.409066746705975" lon="14.75514455925497"><ele>19.200000000000003</ele><time>2026-04-12T09:53:20.02Z</time></trkpt><trkpt lat="53.40915175240599" lon="14.755070905957874"><ele>18.6</ele><time>2026-04-12T09:53:21.02Z</time></trkpt><trkpt lat="53.409251963808764" lon="14.754980660542216"><ele>18.0</ele><time>2026-04-12T09:53:22.021Z</time></trkpt><trkpt lat="53.40936427589927" lon="14.754865446597037"><ele>17.8</ele><time>2026-04-12T09:53:23.021Z</time></trkpt><trkpt lat="53.40945733266603" lon="14.75478237898348"><ele>17.6</ele><time>2026-04-12T09:53:24.021Z</time></trkpt><trkpt lat="53.40955705628577" lon="14.754690865688481"><ele>17.4</ele><time>2026-04-12T09:53:25.021Z</time></trkpt><trkpt lat="53.409649875515804" lon="14.754646863395537"><ele>17.2</ele><time>2026-04-12T09:53:26.021Z</time></trkpt><trkpt lat="53.40973113135001" lon="14.754568966195423"><ele>17.0</ele><time>2026-04-12T09:53:27.021Z</time></trkpt><trkpt lat="53.40980602720598" lon="14.754504682892357"><ele>16.8</ele><time>2026-04-12T09:53:28.021Z</time></trkpt><trkpt lat="53.409886761121065" lon="14.754421531755963"><ele>16.6</ele><time>2026-04-12T09:53:29.021Z</time></trkpt><trkpt lat="53.40996477386896" lon="14.754340978270537"><ele>16.400000000000002</ele><time>2026-04-12T09:53:30.021Z</time></trkpt><trkpt lat="53.410030341739464" lon="14.754254686318507"><ele>16.2</ele><time>2026-04-12T09:53:31.021Z</time></trkpt><trkpt lat="53.41011722646395" lon="14.754154422006165"><ele>16.0</ele><time>2026-04-12T09:53:32.021Z</time></trkpt><trkpt lat="53.41021296457594" lon="14.754071210389547"><ele>16.0</ele><time>2026-04-12T09:53:33.021Z</time></trkpt><trkpt lat="53.41030473641138" lon="14.753980514466768"><ele>16.0</ele><time>2026-04-12T09:53:34.021Z</time></trkpt><trkpt lat="53.41039452990802" lon="14.753891703034023"><ele>16.0</ele><time>2026-04-12T09:53:35.021Z</time></trkpt><trkpt lat="53.41049704978017" lon="14.753802688639839"><ele>16.0</ele><time>2026-04-12T09:53:36.021Z</time></trkpt><trkpt lat="53.41059665232293" lon="14.753716244303918"><ele>16.0</ele><time>2026-04-12T09:53:37.021Z</time></trkpt><trkpt lat="53.410691220627115" lon="14.75363129304121"><ele>16.0</ele><time>2026-04-12T09:53:38.021Z</time></trkpt><trkpt lat="53.41077713763852" lon="14.753548278069077"><ele>16.0</ele><time>2026-04-12T09:53:39.021Z</time></trkpt><trkpt lat="53.41085152025846" lon="14.753477457460214"><ele>16.0</ele><time>2026-04-12T09:53:40.021Z</time></trkpt><trkpt lat="53.410927516909794" lon="14.753411966179511"><ele>16.0</ele><time>2026-04-12T09:53:41.021Z</time></trkpt><trkpt lat="53.4110142036963" lon="14.753330945255481"><ele>16.0</ele><time>2026-04-12T09:53:42.021Z</time></trkpt><trkpt lat="53.4111247648055" lon="14.753255012732692"><ele>16.2</ele><time>2026-04-12T09:53:43.021Z</time></trkpt><trkpt lat="53.41122059971477" lon="14.753179037385562"><ele>16.400000000000002</ele><time>2026-04-12T09:53:44.021Z</time></trkpt><trkpt lat="53.41130417695284" lon="14.753076515912582"><ele>16.6</ele><time>2026-04-12T09:53:45.021Z</time></trkpt><trkpt lat="53.411379182428306" lon="14.752993919492882"><ele>16.8</ele><time>2026-04-12T09:53:46.021Z</time></trkpt><trkpt lat="53.41147606830564" lon="14.752896764119976"><ele>17.0</ele><time>2026-04-12T09:53:47.021Z</time></trkpt><trkpt lat="53.411580664029856" lon="14.752798240096679"><ele>17.2</ele><time>2026-04-12T09:53:48.021Z</time></trkpt><trkpt lat="53.411672952717424" lon="14.75270293963416"><ele>17.4</ele><time>2026-04-12T09:53:49.021Z</time></trkpt><trkpt lat="53.411774518179804" lon="14.752612724573217"><ele>17.6</ele><time>2026-04-12T09:53:50.021Z</time></trkpt><trkpt lat="53.411874035308664" lon="14.752540245977723"><ele>17.8</ele><time>2026-04-12T09:53:51.02Z</time></trkpt><trkpt lat="53.41198130623606" lon="14.752467547467507"><ele>18.0</ele><time>2026-04-12T09:53:52.02Z</time></trkpt><trkpt lat="53.412060045258045" lon="14.752405538015125"><ele>18.0</ele><time>2026-04-12T09:53:53.021Z</time></trkpt><trkpt lat="53.41212605955419" lon="14.752359851999413"><ele>18.0</ele><time>2026-04-12T09:53:54.021Z</time></trkpt><trkpt lat="53.412193782024886" lon="14.752293427269654"><ele>18.0</ele><time>2026-04-12T09:53:55.021Z</time></trkpt><trkpt lat="53.41225661935162" lon="14.752210699165058"><ele>18.0</ele><time>2026-04-12T09:53:56.02Z</time></trkpt><trkpt lat="53.41230846622161" lon="14.75210882744774"><ele>18.0</ele><time>2026-04-12T09:53:57.02Z</time></trkpt><trkpt lat="53.41235695582433" lon="14.75202345773702"><ele>18.0</ele><time>2026-04-12T09:53:58.02Z</time></trkpt><trkpt lat="53.41242531280737" lon="14.751963542810897"><ele>18.0</ele><time>2026-04-12T09:53:59.021Z</time></trkpt><trkpt lat="53.412509512871615" lon="14.751880792177039"><ele>18.0</ele><time>2026-04-12T09:54:00.02Z</time></trkpt><trkpt lat="53.41260963580757" lon="14.751796431529728"><ele>18.0</ele><time>2026-04-12T09:54:01.02Z</time></trkpt><trkpt lat="53.41270608601991" lon="14.751711145210303"><ele>18.0</ele><time>2026-04-12T09:54:02.021Z</time></trkpt><trkpt lat="53.41279298022789" lon="14.751632946692013"><ele>18.0</ele><time>2026-04-12T09:54:03.02Z</time></trkpt><trkpt lat="53.41288454943579" lon="14.75156139252462"><ele>18.2</ele><time>2026-04-12T09:54:04.02Z</time></trkpt><trkpt lat="53.41298137553218" lon="14.75146971714548"><ele>18.4</ele><time>2026-04-12T09:54:05.02Z</time></trkpt><trkpt lat="53.41308296379669" lon="14.751366376697472"><ele>18.599999999999998</ele><time>2026-04-12T09:54:06.02Z</time></trkpt><trkpt lat="53.41318130863294" lon="14.751268999255"><ele>18.8</ele><time>2026-04-12T09:54:07.02Z</time></trkpt><trkpt lat="53.413270729474974" lon="14.751193866854386"><ele>19.0</ele><time>2026-04-12T09:54:08.02Z</time></trkpt><trkpt lat="53.41335629949129" lon="14.751118252399603"><ele>19.0</ele><time>2026-04-12T09:54:09.02Z</time></trkpt><trkpt lat="53.413430414547456" lon="14.751043770002537"><ele>19.0</ele><time>2026-04-12T09:54:10.02Z</time></trkpt><trkpt lat="53.41353544270179" lon="14.750945102721984"><ele>19.0</ele><time>2026-04-12T09:54:11.02Z</time></trkpt><trkpt lat="53.41362504576201" lon="14.750874684043362"><ele>19.0</ele><time>2026-04-12T09:54:12.02Z</time></trkpt><trkpt lat="53.41371138418544" lon="14.75078920629802"><ele>19.0</ele><time>2026-04-12T09:54:13.02Z</time></trkpt><trkpt lat="53.413796448754326" lon="14.75071040437238"><ele>19.4</ele><time>2026-04-12T09:54:14.02Z</time></trkpt><trkpt lat="53.41388685933063" lon="14.750631453866644"><ele>19.799999999999997</ele><time>2026-04-12T09:54:15.02Z</time></trkpt><trkpt lat="53.413985001355705" lon="14.750570568287431"><ele>20.200000000000003</ele><time>2026-04-12T09:54:16.02Z</time></trkpt><trkpt lat="53.414063714969245" lon="14.750491360716804"><ele>20.6</ele><time>2026-04-12T09:54:17.02Z</time></trkpt><trkpt lat="53.4141407425826" lon="14.750409325193145"><ele>21.0</ele><time>2026-04-12T09:54:18.02Z</time></trkpt><trkpt lat="53.41420101052347" lon="14.750345060804662"><ele>21.0</ele><time>2026-04-12T09:54:19.02Z</time></trkpt><trkpt lat="53.41427442756476" lon="14.750265889069391"><ele>21.0</ele><time>2026-04-12T09:54:20.02Z</time></trkpt><trkpt lat="53.41435119752198" lon="14.750179405329215"><ele>21.0</ele><time>2026-04-12T09:54:21.02Z</time></trkpt><trkpt lat="53.41444070094423" lon="14.75009471273002"><ele>21.0</ele><time>2026-04-12T09:54:22.02Z</time></trkpt><trkpt lat="53.41452017949958" lon="14.75001333969961"><ele>21.0</ele><time>2026-04-12T09:54:23.021Z</time></trkpt><trkpt lat="53.41459590770638" lon="14.74994580981495"><ele>21.166666666666668</ele><time>2026-04-12T09:54:24.021Z</time></trkpt><trkpt lat="53.41465759403517" lon="14.749899313092833"><ele>21.333333333333332</ele><time>2026-04-12T09:54:25.021Z</time></trkpt><trkpt lat="53.41472396759006" lon="14.749827623780064"><ele>21.5</ele><time>2026-04-12T09:54:26.021Z</time></trkpt><trkpt lat="53.41481709638031" lon="14.749745643072892"><ele>21.666666666666664</ele><time>2026-04-12T09:54:27.021Z</time></trkpt><trkpt lat="53.41489229373795" lon="14.749662398204597"><ele>21.833333333333332</ele><time>2026-04-12T09:54:28.021Z</time></trkpt><trkpt lat="53.41497402278168" lon="14.749578278030109"><ele>22.0</ele><time>2026-04-12T09:54:29.021Z</time></trkpt><trkpt lat="53.415053775741804" lon="14.749498716956618"><ele>22.0</ele><time>2026-04-12T09:54:30.021Z</time></trkpt><trkpt lat="53.415155758417654" lon="14.749409586436371"><ele>22.0</ele><time>2026-04-12T09:54:31.021Z</time></trkpt><trkpt lat="53.415246468164774" lon="14.74931653250877"><ele>22.0</ele><time>2026-04-12T09:54:32.021Z</time></trkpt><trkpt lat="53.415351455486395" lon="14.749226514163144"><ele>22.0</ele><time>2026-04-12T09:54:33.021Z</time></trkpt><trkpt lat="53.41545995480649" lon="14.749135005719214"><ele>21.75</ele><time>2026-04-12T09:54:34.021Z</time></trkpt><trkpt lat="53.41557266455299" lon="14.749045322758084"><ele>21.5</ele><time>2026-04-12T09:54:35.021Z</time></trkpt><trkpt lat="53.41567262214966" lon="14.748953904070374"><ele>21.25</ele><time>2026-04-12T09:54:36.021Z</time></trkpt><trkpt lat="53.41578057296504" lon="14.748849252699664"><ele>21.0</ele><time>2026-04-12T09:54:37.021Z</time></trkpt><trkpt lat="53.415887189795846" lon="14.74875017780325"><ele>21.0</ele><time>2026-04-12T09:54:38.021Z</time></trkpt><trkpt lat="53.41599447297539" lon="14.748655420530149"><ele>21.0</ele><time>2026-04-12T09:54:39.021Z</time></trkpt><trkpt lat="53.41611268592927" lon="14.748551357492664"><ele>21.0</ele><time>2026-04-12T09:54:40.021Z</time></trkpt><trkpt lat="53.41622690249201" lon="14.748458507112684"><ele>21.0</ele><time>2026-04-12T09:54:41.021Z</time></trkpt><trkpt lat="53.416325368718724" lon="14.748380550256696"><ele>20.0</ele><time>2026-04-12T09:54:42.021Z</time></trkpt><trkpt lat="53.41643640212755" lon="14.748297459986691"><ele>19.0</ele><time>2026-04-12T09:54:43.021Z</time></trkpt><trkpt lat="53.4165619547204" lon="14.748189546191895"><ele>18.0</ele><time>2026-04-12T09:54:44.021Z</time></trkpt><trkpt lat="53.41667490503353" lon="14.748086384472431"><ele>17.0</ele><time>2026-04-12T09:54:45.021Z</time></trkpt><trkpt lat="53.41679136039538" lon="14.747980658739996"><ele>17.0</ele><time>2026-04-12T09:54:46.021Z</time></trkpt><trkpt lat="53.41690158740502" lon="14.747884259506389"><ele>17.0</ele><time>2026-04-12T09:54:47.021Z</time></trkpt><trkpt lat="53.4170081578159" lon="14.74780356118248"><ele>17.0</ele><time>2026-04-12T09:54:48.021Z</time></trkpt><trkpt lat="53.417116789997344" lon="14.747708754411125"><ele>17.0</ele><time>2026-04-12T09:54:49.021Z</time></trkpt><trkpt lat="53.41723875157687" lon="14.747589401707483"><ele>17.75</ele><time>2026-04-12T09:54:50.021Z</time></trkpt><trkpt lat="53.41735989902911" lon="14.747479933541419"><ele>18.5</ele><time>2026-04-12T09:54:51.021Z</time></trkpt><trkpt lat="53.41749694181483" lon="14.747378505471023"><ele>19.25</ele><time>2026-04-12T09:54:52.021Z</time></trkpt><trkpt lat="53.41762034754825" lon="14.74725958421888"><ele>20.0</ele><time>2026-04-12T09:54:53.021Z</time></trkpt><trkpt lat="53.41774840094833" lon="14.747144869497053"><ele>20.0</ele><time>2026-04-12T09:54:54.021Z</time></trkpt><trkpt lat="53.41787605578258" lon="14.747023395315447"><ele>20.0</ele><time>2026-04-12T09:54:55.021Z</time></trkpt><trkpt lat="53.41800572418161" lon="14.746885092240783"><ele>20.0</ele><time>2026-04-12T09:54:56.021Z</time></trkpt><trkpt lat="53.418126179223414" lon="14.746766358918913"><ele>20.0</ele><time>2026-04-12T09:54:57.021Z</time></trkpt><trkpt lat="53.418226733121045" lon="14.746660822944216"><ele>19.75</ele><time>2026-04-12T09:54:58.021Z</time></trkpt><trkpt lat="53.41832446656034" lon="14.74655141782269"><ele>19.5</ele><time>2026-04-12T09:54:59.021Z</time></trkpt><trkpt lat="53.41844659340866" lon="14.74644396762045"><ele>19.25</ele><time>2026-04-12T09:55:00.021Z</time></trkpt><trkpt lat="53.41855330215288" lon="14.746329645636278"><ele>19.0</ele><time>2026-04-12T09:55:01.021Z</time></trkpt><trkpt lat="53.41865471267438" lon="14.746225740886329"><ele>19.0</ele><time>2026-04-12T09:55:02.021Z</time></trkpt><trkpt lat="53.41873660638753" lon="14.746137982011499"><ele>19.0</ele><time>2026-04-12T09:55:03.021Z</time></trkpt><trkpt lat="53.418828302456006" lon="14.746047297135606"><ele>19.0</ele><time>2026-04-12T09:55:04.021Z</time></trkpt><trkpt lat="53.41891554913441" lon="14.745945193055384"><ele>19.0</ele><time>2026-04-12T09:55:05.021Z</time></trkpt><trkpt lat="53.41900359589462" lon="14.74585543703475"><ele>19.0</ele><time>2026-04-12T09:55:06.021Z</time></trkpt><trkpt lat="53.41910368661259" lon="14.745769170409734"><ele>19.0</ele><time>2026-04-12T09:55:07.021Z</time></trkpt><trkpt lat="53.41920043118871" lon="14.745672792054888"><ele>19.0</ele><time>2026-04-12T09:55:08.021Z</time></trkpt><trkpt lat="53.419291230872034" lon="14.745592500735997"><ele>19.0</ele><time>2026-04-12T09:55:09.021Z</time></trkpt><trkpt lat="53.4193932138304" lon="14.745491490305984"><ele>19.0</ele><time>2026-04-12T09:55:10.021Z</time></trkpt><trkpt lat="53.41949605894674" lon="14.745402213058004"><ele>19.0</ele><time>2026-04-12T09:55:11.021Z</time></trkpt><trkpt lat="53.41959318574884" lon="14.74531141243111"><ele>18.5</ele><time>2026-04-12T09:55:12.021Z</time></trkpt><trkpt lat="53.41970634485639" lon="14.745201396100747"><ele>18.0</ele><time>2026-04-12T09:55:13.021Z</time></trkpt><trkpt lat="53.419815004363045" lon="14.745094192355598"><ele>17.5</ele><time>2026-04-12T09:55:14.022Z</time></trkpt><trkpt lat="53.41990577941197" lon="14.745002105958086"><ele>17.0</ele><time>2026-04-12T09:55:15.022Z</time></trkpt><trkpt lat="53.42000763097611" lon="14.744902492372798"><ele>17.0</ele><time>2026-04-12T09:55:16.022Z</time></trkpt><trkpt lat="53.42012263140851" lon="14.744808687689336"><ele>17.0</ele><time>2026-04-12T09:55:17.022Z</time></trkpt><trkpt lat="53.42023328042141" lon="14.74472092658441"><ele>17.0</ele><time>2026-04-12T09:55:18.022Z</time></trkpt><trkpt lat="53.42033263501593" lon="14.744636017192015"><ele>17.0</ele><time>2026-04-12T09:55:19.022Z</time></trkpt><trkpt lat="53.42044502378006" lon="14.744535657829056"><ele>17.25</ele><time>2026-04-12T09:55:20.022Z</time></trkpt><trkpt lat="53.420557581546426" lon="14.74443079813886"><ele>17.5</ele><time>2026-04-12T09:55:21.022Z</time></trkpt><trkpt lat="53.42066741935733" lon="14.744327855442572"><ele>17.75</ele><time>2026-04-12T09:55:22.022Z</time></trkpt><trkpt lat="53.42078265190422" lon="14.74421322659497"><ele>18.0</ele><time>2026-04-12T09:55:23.022Z</time></trkpt><trkpt lat="53.42089421753516" lon="14.744116178791586"><ele>17.4</ele><time>2026-04-12T09:55:24.022Z</time></trkpt><trkpt lat="53.420982317608164" lon="14.744029914764598"><ele>16.8</ele><time>2026-04-12T09:55:25.022Z</time></trkpt><trkpt lat="53.42107146384005" lon="14.743943099962424"><ele>16.2</ele><time>2026-04-12T09:55:26.022Z</time></trkpt><trkpt lat="53.42117330179507" lon="14.743848249776553"><ele>15.6</ele><time>2026-04-12T09:55:27.022Z</time></trkpt><trkpt lat="53.4212592169944" lon="14.743765206587994"><ele>15.0</ele><time>2026-04-12T09:55:28.022Z</time></trkpt><trkpt lat="53.421348355048224" lon="14.74368073677468"><ele>15.4</ele><time>2026-04-12T09:55:29.022Z</time></trkpt><trkpt lat="53.421436006002764" lon="14.743606346097419"><ele>15.8</ele><time>2026-04-12T09:55:30.022Z</time></trkpt><trkpt lat="53.42153180256055" lon="14.743515743694832"><ele>16.2</ele><time>2026-04-12T09:55:31.022Z</time></trkpt><trkpt lat="53.42162309074722" lon="14.743429380787235"><ele>16.6</ele><time>2026-04-12T09:55:32.022Z</time></trkpt><trkpt lat="53.421716763761275" lon="14.743332235023423"><ele>17.0</ele><time>2026-04-12T09:55:33.022Z</time></trkpt><trkpt lat="53.42181846836149" lon="14.743232660245134"><ele>17.0</ele><time>2026-04-12T09:55:34.022Z</time></trkpt><trkpt lat="53.42193842136353" lon="14.743137570981713"><ele>17.0</ele><time>2026-04-12T09:55:35.022Z</time></trkpt><trkpt lat="53.42204108111697" lon="14.743036227292933"><ele>17.0</ele><time>2026-04-12T09:55:36.022Z</time></trkpt><trkpt lat="53.422148330907625" lon="14.74294543124116"><ele>17.0</ele><time>2026-04-12T09:55:37.022Z</time></trkpt><trkpt lat="53.42224749789523" lon="14.742857807165011"><ele>16.8</ele><time>2026-04-12T09:55:38.022Z</time></trkpt><trkpt lat="53.42234623641294" lon="14.74275799122723"><ele>16.6</ele><time>2026-04-12T09:55:39.022Z</time></trkpt><trkpt lat="53.42242276377968" lon="14.742670874407551"><ele>16.400000000000002</ele><time>2026-04-12T09:55:40.022Z</time></trkpt><trkpt lat="53.42250636669659" lon="14.742580450246907"><ele>16.2</ele><time>2026-04-12T09:55:41.022Z</time></trkpt><trkpt lat="53.42259395567433" lon="14.742492020345937"><ele>16.0</ele><time>2026-04-12T09:55:42.022Z</time></trkpt><trkpt lat="53.422663450817204" lon="14.742434444387884"><ele>15.999999999999998</ele><time>2026-04-12T09:55:43.022Z</time></trkpt><trkpt lat="53.422743485157994" lon="14.742485872197209"><ele>16.0</ele><time>2026-04-12T09:55:44.022Z</time></trkpt><trkpt lat="53.42280865297468" lon="14.742395157114503"><ele>16.0</ele><time>2026-04-12T09:55:46.022Z</time></trkpt><trkpt lat="53.422879105988685" lon="14.742364027357658"><ele>16.0</ele><time>2026-04-12T09:55:47.022Z</time></trkpt><trkpt lat="53.42295756095087" lon="14.742324174708441"><ele>15.999999999999998</ele><time>2026-04-12T09:55:48.022Z</time></trkpt><trkpt lat="53.42303741919844" lon="14.742218782904246"><ele>16.0</ele><time>2026-04-12T09:55:49.022Z</time></trkpt><trkpt lat="53.4231444404739" lon="14.742119434841173"><ele>16.0</ele><time>2026-04-12T09:55:50.022Z</time></trkpt><trkpt lat="53.42324843525401" lon="14.742018257267343"><ele>16.0</ele><time>2026-04-12T09:55:51.022Z</time></trkpt><trkpt lat="53.4233436588353" lon="14.74191521904145"><ele>16.0</ele><time>2026-04-12T09:55:52.022Z</time></trkpt><trkpt lat="53.423441449086866" lon="14.741786017660345"><ele>16.0</ele><time>2026-04-12T09:55:53.022Z</time></trkpt><trkpt lat="53.42353077481565" lon="14.74169698096992"><ele>16.2</ele><time>2026-04-12T09:55:54.022Z</time></trkpt><trkpt lat="53.42362644926939" lon="14.741628713311005"><ele>16.400000000000002</ele><time>2026-04-12T09:55:55.022Z</time></trkpt><trkpt lat="53.42371562865431" lon="14.741531358872662"><ele>16.6</ele><time>2026-04-12T09:55:56.021Z</time></trkpt><trkpt lat="53.4238113804336" lon="14.7414355974689"><ele>16.8</ele><time>2026-04-12T09:55:57.022Z</time></trkpt><trkpt lat="53.423917335101244" lon="14.741363979704142"><ele>17.0</ele><time>2026-04-12T09:55:58.022Z</time></trkpt><trkpt lat="53.424019300213" lon="14.741262971798719"><ele>17.0</ele><time>2026-04-12T09:55:59.022Z</time></trkpt><trkpt lat="53.42411722284612" lon="14.741133304647466"><ele>17.0</ele><time>2026-04-12T09:56:00.021Z</time></trkpt><trkpt lat="53.424249666981844" lon="14.7410364025605"><ele>17.0</ele><time>2026-04-12T09:56:01.021Z</time></trkpt><trkpt lat="53.42437298809968" lon="14.740900159934721"><ele>17.0</ele><time>2026-04-12T09:56:02.022Z</time></trkpt><trkpt lat="53.42450597303267" lon="14.740785421018407"><ele>17.0</ele><time>2026-04-12T09:56:03.022Z</time></trkpt><trkpt lat="53.424617684092446" lon="14.740680393188882"><ele>17.0</ele><time>2026-04-12T09:56:04.022Z</time></trkpt><trkpt lat="53.42472806567567" lon="14.740604008044974"><ele>17.0</ele><time>2026-04-12T09:56:05.022Z</time></trkpt><trkpt lat="53.42483044781174" lon="14.740497638570687"><ele>17.0</ele><time>2026-04-12T09:56:06.022Z</time></trkpt><trkpt lat="53.424944834887626" lon="14.740394455469948"><ele>16.75</ele><time>2026-04-12T09:56:07.022Z</time></trkpt><trkpt lat="53.4250681788119" lon="14.740275987634629"><ele>16.5</ele><time>2026-04-12T09:56:08.022Z</time></trkpt><trkpt lat="53.42518746181803" lon="14.740162653432177"><ele>16.25</ele><time>2026-04-12T09:56:09.022Z</time></trkpt><trkpt lat="53.425302470004844" lon="14.740056212228378"><ele>16.0</ele><time>2026-04-12T09:56:10.022Z</time></trkpt><trkpt lat="53.425406865099305" lon="14.73996462747242"><ele>16.0</ele><time>2026-04-12T09:56:11.022Z</time></trkpt><trkpt lat="53.42550640384606" lon="14.739872590251284"><ele>16.0</ele><time>2026-04-12T09:56:12.022Z</time></trkpt><trkpt lat="53.42559828416318" lon="14.739780532109293"><ele>16.0</ele><time>2026-04-12T09:56:13.022Z</time></trkpt><trkpt lat="53.425695112596124" lon="14.739682459534048"><ele>16.0</ele><time>2026-04-12T09:56:14.022Z</time></trkpt><trkpt lat="53.42579437308664" lon="14.739617565503737"><ele>16.0</ele><time>2026-04-12T09:56:15.022Z</time></trkpt><trkpt lat="53.42589168422396" lon="14.739529914751973"><ele>16.0</ele><time>2026-04-12T09:56:16.022Z</time></trkpt><trkpt lat="53.42598335484213" lon="14.739440084113472"><ele>16.0</ele><time>2026-04-12T09:56:17.022Z</time></trkpt><trkpt lat="53.42608120079234" lon="14.739340353496472"><ele>16.0</ele><time>2026-04-12T09:56:18.022Z</time></trkpt><trkpt lat="53.42617698944857" lon="14.739253952298144"><ele>16.0</ele><time>2026-04-12T09:56:19.022Z</time></trkpt><trkpt lat="53.426262795406366" lon="14.739178812308062"><ele>16.0</ele><time>2026-04-12T09:56:20.022Z</time></trkpt><trkpt lat="53.42633165023836" lon="14.739107437529924"><ele>15.166666666666666</ele><time>2026-04-12T09:56:21.022Z</time></trkpt><trkpt lat="53.426409365857225" lon="14.739029106019574"><ele>14.333333333333332</ele><time>2026-04-12T09:56:22.022Z</time></trkpt><trkpt lat="53.426480146213216" lon="14.738963918410267"><ele>13.5</ele><time>2026-04-12T09:56:23.022Z</time></trkpt><trkpt lat="53.426553118963554" lon="14.738919862370338"><ele>12.666666666666666</ele><time>2026-04-12T09:56:24.022Z</time></trkpt><trkpt lat="53.426673361666566" lon="14.73892196526072"><ele>11.833333333333332</ele><time>2026-04-12T09:56:26.022Z</time></trkpt><trkpt lat="53.42673706246067" lon="14.738934925215826"><ele>11.0</ele><time>2026-04-12T09:56:27.022Z</time></trkpt><trkpt lat="53.42675050031978" lon="14.739069893339233"><ele>11.0</ele><time>2026-04-12T09:56:29.022Z</time></trkpt><trkpt lat="53.42679499019118" lon="14.739149277909837"><ele>11.0</ele><time>2026-04-12T09:56:31.023Z</time></trkpt><trkpt lat="53.42684807072716" lon="14.739229272856626"><ele>11.0</ele><time>2026-04-12T09:56:34.023Z</time></trkpt><trkpt lat="53.42690220057518" lon="14.739305514433171"><ele>11.0</ele><time>2026-04-12T09:56:36.023Z</time></trkpt><trkpt lat="53.42696945325181" lon="14.73936581795146"><ele>11.0</ele><time>2026-04-12T09:56:41.023Z</time></trkpt><trkpt lat="53.42702097380052" lon="14.739459997833436"><ele>11.0</ele><time>2026-04-12T09:56:47.023Z</time></trkpt><trkpt lat="53.42710965593056" lon="14.739586850361455"><ele>11.166666666666666</ele><time>2026-04-12T09:56:50.023Z</time></trkpt><trkpt lat="53.42716718251614" lon="14.739687159047046"><ele>11.333333333333332</ele><time>2026-04-12T09:56:51.023Z</time></trkpt><trkpt lat="53.42722713323285" lon="14.739779212163493"><ele>11.5</ele><time>2026-04-12T09:56:52.023Z</time></trkpt><trkpt lat="53.427290057666575" lon="14.73987663776872"><ele>11.666666666666666</ele><time>2026-04-12T09:56:53.023Z</time></trkpt><trkpt lat="53.427351897524176" lon="14.739972387304814"><ele>11.833333333333334</ele><time>2026-04-12T09:56:54.023Z</time></trkpt><trkpt lat="53.42741580642837" lon="14.74007497879673"><ele>12.0</ele><time>2026-04-12T09:56:55.023Z</time></trkpt><trkpt lat="53.427471018832826" lon="14.740185156422239"><ele>12.0</ele><time>2026-04-12T09:56:56.023Z</time></trkpt><trkpt lat="53.42753697788335" lon="14.740288058385152"><ele>12.0</ele><time>2026-04-12T09:56:57.023Z</time></trkpt><trkpt lat="53.4276105099671" lon="14.740402774886176"><ele>12.0</ele><time>2026-04-12T09:56:58.023Z</time></trkpt><trkpt lat="53.42768221770624" lon="14.740514295692195"><ele>12.0</ele><time>2026-04-12T09:56:59.023Z</time></trkpt><trkpt lat="53.42774315617128" lon="14.74060906086811"><ele>12.0</ele><time>2026-04-12T09:57:00.023Z</time></trkpt><trkpt lat="53.42781138139913" lon="14.740715157679823"><ele>12.0</ele><time>2026-04-12T09:57:01.023Z</time></trkpt><trkpt lat="53.427907932549736" lon="14.74081828971672"><ele>12.0</ele><time>2026-04-12T09:57:02.023Z</time></trkpt><trkpt lat="53.42798733717695" lon="14.740932850218563"><ele>12.0</ele><time>2026-04-12T09:57:03.023Z</time></trkpt><trkpt lat="53.42805668800959" lon="14.741047831558038"><ele>12.0</ele><time>2026-04-12T09:57:04.023Z</time></trkpt><trkpt lat="53.42813402006467" lon="14.741172425456256"><ele>12.0</ele><time>2026-04-12T09:57:05.023Z</time></trkpt><trkpt lat="53.42821091991661" lon="14.741288116093996"><ele>11.5</ele><time>2026-04-12T09:57:06.023Z</time></trkpt><trkpt lat="53.42826455953873" lon="14.741360524622303"><ele>11.0</ele><time>2026-04-12T09:57:07.023Z</time></trkpt><trkpt lat="53.42833624174269" lon="14.741470421384658"><ele>10.5</ele><time>2026-04-12T09:57:08.023Z</time></trkpt><trkpt lat="53.42836749829149" lon="14.741576383688997"><ele>10.0</ele><time>2026-04-12T09:57:09.023Z</time></trkpt><trkpt lat="53.42844635723276" lon="14.741688769482227"><ele>9.5</ele><time>2026-04-12T09:57:11.023Z</time></trkpt><trkpt lat="53.428511087284875" lon="14.741742919374213"><ele>9.0</ele><time>2026-04-12T09:57:13.023Z</time></trkpt><trkpt lat="53.428526167031535" lon="14.741923615087916"><ele>9.0</ele><time>2026-04-12T09:57:15.023Z</time></trkpt><trkpt lat="53.42854152290868" lon="14.742036961094549"><ele>9.0</ele><time>2026-04-12T09:57:16.023Z</time></trkpt><trkpt lat="53.42858317400386" lon="14.742138139477833"><ele>9.0</ele><time>2026-04-12T09:57:17.023Z</time></trkpt><trkpt lat="53.42863257345245" lon="14.742218146241772"><ele>9.0</ele><time>2026-04-12T09:57:18.023Z</time></trkpt><trkpt lat="53.4287287610098" lon="14.742347709239278"><ele>9.0</ele><time>2026-04-12T09:57:20.023Z</time></trkpt><trkpt lat="53.42884231195295" lon="14.742389000853176"><ele>9.4</ele><time>2026-04-12T09:57:22.024Z</time></trkpt><trkpt lat="53.42894926960942" lon="14.742458718261469"><ele>9.8</ele><time>2026-04-12T09:57:24.024Z</time></trkpt><trkpt lat="53.42900584073644" lon="14.742551438182744"><ele>10.200000000000001</ele><time>2026-04-12T09:57:25.024Z</time></trkpt><trkpt lat="53.42906515136271" lon="14.742745762187631"><ele>10.600000000000001</ele><time>2026-04-12T09:57:27.024Z</time></trkpt><trkpt lat="53.42909158317702" lon="14.742870826116235"><ele>11.0</ele><time>2026-04-12T09:57:28.024Z</time></trkpt><trkpt lat="53.42912998787186" lon="14.743015005375229"><ele>11.0</ele><time>2026-04-12T09:57:29.024Z</time></trkpt><trkpt lat="53.42917374476896" lon="14.743134669488784"><ele>11.0</ele><time>2026-04-12T09:57:30.024Z</time></trkpt><trkpt lat="53.42921570624012" lon="14.743248406074109"><ele>11.0</ele><time>2026-04-12T09:57:31.024Z</time></trkpt><trkpt lat="53.429266603939645" lon="14.743356866200372"><ele>11.0</ele><time>2026-04-12T09:57:32.024Z</time></trkpt><trkpt lat="53.42932773219172" lon="14.74346528184023"><ele>11.0</ele><time>2026-04-12T09:57:33.024Z</time></trkpt><trkpt lat="53.42938846389211" lon="14.743559151186442"><ele>11.0</ele><time>2026-04-12T09:57:34.024Z</time></trkpt><trkpt lat="53.429457113065475" lon="14.74366611615269"><ele>11.333333333333332</ele><time>2026-04-12T09:57:35.024Z</time></trkpt><trkpt lat="53.429511114179576" lon="14.743753644957431"><ele>11.666666666666666</ele><time>2026-04-12T09:57:36.024Z</time></trkpt><trkpt lat="53.429574054048516" lon="14.743871498685085"><ele>12.0</ele><time>2026-04-12T09:57:37.024Z</time></trkpt><trkpt lat="53.429623425344616" lon="14.74395555391003"><ele>12.333333333333332</ele><time>2026-04-12T09:57:38.024Z</time></trkpt><trkpt lat="53.42969396730988" lon="14.744063099252879"><ele>12.666666666666666</ele><time>2026-04-12T09:57:39.024Z</time></trkpt><trkpt lat="53.42975923847987" lon="14.744180361475031"><ele>13.0</ele><time>2026-04-12T09:57:40.024Z</time></trkpt><trkpt lat="53.429828012069564" lon="14.744290349731589"><ele>12.833333333333332</ele><time>2026-04-12T09:57:41.024Z</time></trkpt><trkpt lat="53.42989487414696" lon="14.744394698165253"><ele>12.666666666666666</ele><time>2026-04-12T09:57:42.024Z</time></trkpt><trkpt lat="53.4299544444316" lon="14.744488367444221"><ele>12.5</ele><time>2026-04-12T09:57:43.024Z</time></trkpt><trkpt lat="53.43001749331914" lon="14.744581856547487"><ele>12.333333333333332</ele><time>2026-04-12T09:57:44.024Z</time></trkpt><trkpt lat="53.43008667673952" lon="14.744677955480963"><ele>12.166666666666666</ele><time>2026-04-12T09:57:45.024Z</time></trkpt><trkpt lat="53.43015661286642" lon="14.744768529357597"><ele>12.0</ele><time>2026-04-12T09:57:46.024Z</time></trkpt><trkpt lat="53.43022100914394" lon="14.744878898614598"><ele>12.0</ele><time>2026-04-12T09:57:47.024Z</time></trkpt><trkpt lat="53.43028720494908" lon="14.744988049905176"><ele>12.0</ele><time>2026-04-12T09:57:48.024Z</time></trkpt><trkpt lat="53.430346391565784" lon="14.745104972909639"><ele>12.0</ele><time>2026-04-12T09:57:49.024Z</time></trkpt><trkpt lat="53.43040433183191" lon="14.745214246362101"><ele>12.0</ele><time>2026-04-12T09:57:50.024Z</time></trkpt><trkpt lat="53.4304735719245" lon="14.74531687690144"><ele>12.0</ele><time>2026-04-12T09:57:51.024Z</time></trkpt><trkpt lat="53.43054281627465" lon="14.745427516361282"><ele>12.2</ele><time>2026-04-12T09:57:52.024Z</time></trkpt><trkpt lat="53.430626098303065" lon="14.745539978035954"><ele>12.399999999999999</ele><time>2026-04-12T09:57:53.024Z</time></trkpt><trkpt lat="53.430689642350764" lon="14.745682861364235"><ele>12.600000000000001</ele><time>2026-04-12T09:57:54.024Z</time></trkpt><trkpt lat="53.43076709027351" lon="14.745802816204437"><ele>12.8</ele><time>2026-04-12T09:57:55.024Z</time></trkpt><trkpt lat="53.430840731074895" lon="14.745915204824263"><ele>13.0</ele><time>2026-04-12T09:57:56.024Z</time></trkpt><trkpt lat="53.43092239997939" lon="14.746014235603152"><ele>12.8</ele><time>2026-04-12T09:57:57.024Z</time></trkpt><trkpt lat="53.43099167487698" lon="14.746124845078157"><ele>12.600000000000001</ele><time>2026-04-12T09:57:58.024Z</time></trkpt><trkpt lat="53.431074083264505" lon="14.746238295393866"><ele>12.399999999999999</ele><time>2026-04-12T09:57:59.024Z</time></trkpt><trkpt lat="53.431135865389045" lon="14.746385808286597"><ele>12.2</ele><time>2026-04-12T09:58:00.024Z</time></trkpt><trkpt lat="53.43122075357389" lon="14.746518633957697"><ele>12.0</ele><time>2026-04-12T09:58:01.024Z</time></trkpt><trkpt lat="53.43129664541704" lon="14.746638732584657"><ele>11.8</ele><time>2026-04-12T09:58:02.022Z</time></trkpt><trkpt lat="53.431370393493495" lon="14.746753096936402"><ele>11.6</ele><time>2026-04-12T09:58:03.023Z</time></trkpt><trkpt lat="53.43144142611334" lon="14.746858017358393"><ele>11.4</ele><time>2026-04-12T09:58:04.023Z</time></trkpt><trkpt lat="53.43152099184983" lon="14.746976492700004"><ele>11.200000000000001</ele><time>2026-04-12T09:58:05.023Z</time></trkpt><trkpt lat="53.43159940884065" lon="14.747106973244207"><ele>11.0</ele><time>2026-04-12T09:58:06.023Z</time></trkpt><trkpt lat="53.43168182243757" lon="14.747241685816123"><ele>11.0</ele><time>2026-04-12T09:58:07.023Z</time></trkpt><trkpt lat="53.43176050400922" lon="14.747369908160469"><ele>11.0</ele><time>2026-04-12T09:58:08.023Z</time></trkpt><trkpt lat="53.431850581396766" lon="14.747485464782107"><ele>11.0</ele><time>2026-04-12T09:58:09.023Z</time></trkpt><trkpt lat="53.431928688898886" lon="14.747598300374053"><ele>11.0</ele><time>2026-04-12T09:58:10.023Z</time></trkpt><trkpt lat="53.43200376247868" lon="14.747705479711048"><ele>11.0</ele><time>2026-04-12T09:58:11.023Z</time></trkpt><trkpt lat="53.432069751328285" lon="14.747807177155078"><ele>11.0</ele><time>2026-04-12T09:58:12.023Z</time></trkpt><trkpt lat="53.43213825763254" lon="14.74793684431813"><ele>11.0</ele><time>2026-04-12T09:58:13.023Z</time></trkpt><trkpt lat="53.432195464131155" lon="14.74805986237968"><ele>11.0</ele><time>2026-04-12T09:58:14.023Z</time></trkpt><trkpt lat="53.43225991465025" lon="14.74817728944645"><ele>11.0</ele><time>2026-04-12T09:58:15.023Z</time></trkpt><trkpt lat="53.43232855339718" lon="14.748293197636285"><ele>11.0</ele><time>2026-04-12T09:58:16.023Z</time></trkpt><trkpt lat="53.43239780129813" lon="14.74840434314733"><ele>11.0</ele><time>2026-04-12T09:58:17.023Z</time></trkpt><trkpt lat="53.43247231072599" lon="14.748507268716128"><ele>11.0</ele><time>2026-04-12T09:58:18.023Z</time></trkpt><trkpt lat="53.43256103023728" lon="14.748633343601076"><ele>11.0</ele><time>2026-04-12T09:58:19.023Z</time></trkpt><trkpt lat="53.43264057804397" lon="14.748751107093465"><ele>11.0</ele><time>2026-04-12T09:58:20.023Z</time></trkpt><trkpt lat="53.432719817032954" lon="14.748874559506397"><ele>11.0</ele><time>2026-04-12T09:58:21.023Z</time></trkpt><trkpt lat="53.43278412820782" lon="14.74897891156621"><ele>11.0</ele><time>2026-04-12T09:58:22.023Z</time></trkpt><trkpt lat="53.43284832548529" lon="14.74911114873243"><ele>11.0</ele><time>2026-04-12T09:58:23.023Z</time></trkpt><trkpt lat="53.43294045424006" lon="14.749216650260273"><ele>11.0</ele><time>2026-04-12T09:58:24.023Z</time></trkpt><trkpt lat="53.43302232915479" lon="14.749363848985269"><ele>11.0</ele><time>2026-04-12T09:58:25.023Z</time></trkpt><trkpt lat="53.43312133166868" lon="14.749503202233198"><ele>10.25</ele><time>2026-04-12T09:58:26.023Z</time></trkpt><trkpt lat="53.433216752044586" lon="14.749647063463538"><ele>9.5</ele><time>2026-04-12T09:58:27.023Z</time></trkpt><trkpt lat="53.43331317616375" lon="14.749785378903933"><ele>8.75</ele><time>2026-04-12T09:58:28.023Z</time></trkpt><trkpt lat="53.43341062205854" lon="14.749927997949014"><ele>8.0</ele><time>2026-04-12T09:58:29.023Z</time></trkpt><trkpt lat="53.433494897760525" lon="14.750082156104124"><ele>8.0</ele><time>2026-04-12T09:58:30.023Z</time></trkpt><trkpt lat="53.43357901829646" lon="14.750186130412082"><ele>8.0</ele><time>2026-04-12T09:58:31.023Z</time></trkpt><trkpt lat="53.43366366170322" lon="14.750321456672673"><ele>8.0</ele><time>2026-04-12T09:58:32.023Z</time></trkpt><trkpt lat="53.43373149070824" lon="14.750426024418438"><ele>8.0</ele><time>2026-04-12T09:58:33.023Z</time></trkpt><trkpt lat="53.43380378541894" lon="14.750532739952243"><ele>8.0</ele><time>2026-04-12T09:58:34.023Z</time></trkpt><trkpt lat="53.43386868662504" lon="14.750674000024521"><ele>7.800000000000001</ele><time>2026-04-12T09:58:35.023Z</time></trkpt><trkpt lat="53.433934605897456" lon="14.750778228883572"><ele>7.6000000000000005</ele><time>2026-04-12T09:58:36.023Z</time></trkpt><trkpt lat="53.43400773151523" lon="14.75089385220107"><ele>7.3999999999999995</ele><time>2026-04-12T09:58:37.023Z</time></trkpt><trkpt lat="53.43406872976128" lon="14.7509903000632"><ele>7.199999999999999</ele><time>2026-04-12T09:58:38.023Z</time></trkpt><trkpt lat="53.43414865502829" lon="14.751086435420005"><ele>7.0</ele><time>2026-04-12T09:58:39.023Z</time></trkpt><trkpt lat="53.43420214866499" lon="14.751187007524168"><ele>7.6</ele><time>2026-04-12T09:58:40.023Z</time></trkpt><trkpt lat="53.4342797507395" lon="14.751300411786628"><ele>8.2</ele><time>2026-04-12T09:58:41.023Z</time></trkpt><trkpt lat="53.434343701204575" lon="14.751395675455388"><ele>8.8</ele><time>2026-04-12T09:58:42.023Z</time></trkpt><trkpt lat="53.43442014401731" lon="14.751479928219577"><ele>9.4</ele><time>2026-04-12T09:58:43.023Z</time></trkpt><trkpt lat="53.43449293902969" lon="14.751592000682836"><ele>10.0</ele><time>2026-04-12T09:58:44.023Z</time></trkpt><trkpt lat="53.43455073203135" lon="14.751717173752366"><ele>10.0</ele><time>2026-04-12T09:58:45.023Z</time></trkpt><trkpt lat="53.43462494562809" lon="14.75183811439963"><ele>10.0</ele><time>2026-04-12T09:58:46.024Z</time></trkpt><trkpt lat="53.43469282927156" lon="14.751948964753254"><ele>10.0</ele><time>2026-04-12T09:58:47.024Z</time></trkpt><trkpt lat="53.43474900862784" lon="14.752041352125897"><ele>10.0</ele><time>2026-04-12T09:58:48.024Z</time></trkpt><trkpt lat="53.434801031727325" lon="14.752126658336637"><ele>10.0</ele><time>2026-04-12T09:58:49.024Z</time></trkpt><trkpt lat="53.43486078297901" lon="14.752225199795468"><ele>10.0</ele><time>2026-04-12T09:58:50.024Z</time></trkpt><trkpt lat="53.4349255164694" lon="14.752337926058415"><ele>9.8</ele><time>2026-04-12T09:58:51.024Z</time></trkpt><trkpt lat="53.434985829171026" lon="14.752426857770168"><ele>9.6</ele><time>2026-04-12T09:58:52.024Z</time></trkpt><trkpt lat="53.43508936634669" lon="14.752588622264197"><ele>9.4</ele><time>2026-04-12T09:58:54.024Z</time></trkpt><trkpt lat="53.43514844601051" lon="14.752680796312019"><ele>9.2</ele><time>2026-04-12T09:58:55.024Z</time></trkpt><trkpt lat="53.43521655096553" lon="14.752786589355093"><ele>9.0</ele><time>2026-04-12T09:58:56.024Z</time></trkpt><trkpt lat="53.43528016710368" lon="14.752885831741818"><ele>9.6</ele><time>2026-04-12T09:58:57.024Z</time></trkpt><trkpt lat="53.435365990896216" lon="14.753019718466708"><ele>10.2</ele><time>2026-04-12T09:58:58.024Z</time></trkpt><trkpt lat="53.435450651681776" lon="14.753151750175089"><ele>10.799999999999999</ele><time>2026-04-12T09:58:59.024Z</time></trkpt><trkpt lat="53.43552408472885" lon="14.75326709681131"><ele>11.4</ele><time>2026-04-12T09:59:00.024Z</time></trkpt><trkpt lat="53.43560859821539" lon="14.753362141183537"><ele>12.0</ele><time>2026-04-12T09:59:01.024Z</time></trkpt><trkpt lat="53.43568005316957" lon="14.7534835968985"><ele>11.5</ele><time>2026-04-12T09:59:02.024Z</time></trkpt><trkpt lat="53.435751210661124" lon="14.753607574844501"><ele>11.0</ele><time>2026-04-12T09:59:03.024Z</time></trkpt><trkpt lat="53.43579768338361" lon="14.753705466526997"><ele>10.5</ele><time>2026-04-12T09:59:04.024Z</time></trkpt><trkpt lat="53.435912785010274" lon="14.753761845024497"><ele>10.0</ele><time>2026-04-12T09:59:06.024Z</time></trkpt><trkpt lat="53.43598471459818" lon="14.753760290096539"><ele>9.5</ele><time>2026-04-12T09:59:07.024Z</time></trkpt><trkpt lat="53.436049723301885" lon="14.753774174602071"><ele>9.0</ele><time>2026-04-12T09:59:08.024Z</time></trkpt><trkpt lat="53.43612419710588" lon="14.753934143155552"><ele>9.0</ele><time>2026-04-12T09:59:10.024Z</time></trkpt><trkpt lat="53.436203826898954" lon="14.754025238743198"><ele>9.0</ele><time>2026-04-12T09:59:11.024Z</time></trkpt><trkpt lat="53.43626541287597" lon="14.754125313337799"><ele>9.0</ele><time>2026-04-12T09:59:12.024Z</time></trkpt><trkpt lat="53.43631734837703" lon="14.754193723378707"><ele>9.0</ele><time>2026-04-12T09:59:13.024Z</time></trkpt><trkpt lat="53.43636961848016" lon="14.754270219129792"><ele>9.0</ele><time>2026-04-12T09:59:14.024Z</time></trkpt><trkpt lat="53.43644165957315" lon="14.754378642176649"><ele>9.0</ele><time>2026-04-12T09:59:15.024Z</time></trkpt><trkpt lat="53.4365410614021" lon="14.754513163614183"><ele>8.5</ele><time>2026-04-12T09:59:16.024Z</time></trkpt><trkpt lat="53.43662808812807" lon="14.754661593494319"><ele>8.0</ele><time>2026-04-12T09:59:17.024Z</time></trkpt><trkpt lat="53.43671417121685" lon="14.754811402506093"><ele>7.5</ele><time>2026-04-12T09:59:18.024Z</time></trkpt><trkpt lat="53.43679827357209" lon="14.75496491650138"><ele>7.0</ele><time>2026-04-12T09:59:19.024Z</time></trkpt><trkpt lat="53.436865553265946" lon="14.755093787452937"><ele>7.0</ele><time>2026-04-12T09:59:20.024Z</time></trkpt><trkpt lat="53.436912590878265" lon="14.755214597922386"><ele>6.999999999999999</ele><time>2026-04-12T09:59:21.024Z</time></trkpt><trkpt lat="53.43698824147774" lon="14.755341823792808"><ele>6.999999999999999</ele><time>2026-04-12T09:59:22.024Z</time></trkpt><trkpt lat="53.43708714013285" lon="14.755437874227487"><ele>7.0</ele><time>2026-04-12T09:59:23.024Z</time></trkpt><trkpt lat="53.437202821575134" lon="14.755561484153795"><ele>7.0</ele><time>2026-04-12T09:59:24.024Z</time></trkpt><trkpt lat="53.4372705892219" lon="14.755723896246344"><ele>7.0</ele><time>2026-04-12T09:59:25.024Z</time></trkpt><trkpt lat="53.437367289046406" lon="14.75589963165162"><ele>7.0</ele><time>2026-04-12T09:59:26.024Z</time></trkpt><trkpt lat="53.43746892242356" lon="14.756048659174077"><ele>7.0</ele><time>2026-04-12T09:59:27.024Z</time></trkpt><trkpt lat="53.43756809993861" lon="14.756209432008891"><ele>7.0</ele><time>2026-04-12T09:59:28.024Z</time></trkpt><trkpt lat="53.437661355974214" lon="14.756354483971695"><ele>7.0</ele><time>2026-04-12T09:59:29.024Z</time></trkpt><trkpt lat="53.437755081328675" lon="14.756505996266636"><ele>7.0</ele><time>2026-04-12T09:59:30.024Z</time></trkpt><trkpt lat="53.43784963254259" lon="14.756665116178304"><ele>7.0</ele><time>2026-04-12T09:59:31.024Z</time></trkpt><trkpt lat="53.43794739422106" lon="14.756846590029824"><ele>7.0</ele><time>2026-04-12T09:59:32.024Z</time></trkpt><trkpt lat="53.438037701918674" lon="14.756991272552845"><ele>7.0</ele><time>2026-04-12T09:59:33.024Z</time></trkpt><trkpt lat="53.43813939536423" lon="14.757169484320965"><ele>7.0</ele><time>2026-04-12T09:59:34.024Z</time></trkpt><trkpt lat="53.4382232175524" lon="14.75731023657538"><ele>7.0</ele><time>2026-04-12T09:59:35.024Z</time></trkpt><trkpt lat="53.43831902017222" lon="14.757455910236148"><ele>7.0</ele><time>2026-04-12T09:59:36.024Z</time></trkpt><trkpt lat="53.4384078506555" lon="14.757587718722329"><ele>7.6</ele><time>2026-04-12T09:59:37.025Z</time></trkpt><trkpt lat="53.43849097694416" lon="14.757707424083458"><ele>8.2</ele><time>2026-04-12T09:59:38.025Z</time></trkpt><trkpt lat="53.43856932014117" lon="14.757830816243722"><ele>8.8</ele><time>2026-04-12T09:59:39.025Z</time></trkpt><trkpt lat="53.43862823376337" lon="14.757957454916962"><ele>9.4</ele><time>2026-04-12T09:59:40.025Z</time></trkpt><trkpt lat="53.438669156349405" lon="14.7581007878608"><ele>10.0</ele><time>2026-04-12T09:59:41.025Z</time></trkpt><trkpt lat="53.43872442154125" lon="14.758239859069432"><ele>10.6</ele><time>2026-04-12T09:59:42.025Z</time></trkpt><trkpt lat="53.43880482412812" lon="14.758351880790029"><ele>11.2</ele><time>2026-04-12T09:59:43.025Z</time></trkpt><trkpt lat="53.43886701122656" lon="14.75848633962171"><ele>11.8</ele><time>2026-04-12T09:59:44.025Z</time></trkpt><trkpt lat="53.438946358716045" lon="14.758597280491086"><ele>12.4</ele><time>2026-04-12T09:59:45.025Z</time></trkpt><trkpt lat="53.43902257764357" lon="14.758716657193325"><ele>13.0</ele><time>2026-04-12T09:59:46.025Z</time></trkpt><trkpt lat="53.43911175242193" lon="14.758860191167395"><ele>13.0</ele><time>2026-04-12T09:59:47.025Z</time></trkpt><trkpt lat="53.439207230842975" lon="14.759010260070761"><ele>13.0</ele><time>2026-04-12T09:59:48.025Z</time></trkpt><trkpt lat="53.43931270713493" lon="14.759168279636073"><ele>13.0</ele><time>2026-04-12T09:59:49.025Z</time></trkpt><trkpt lat="53.439424919607596" lon="14.75933219256779"><ele>13.0</ele><time>2026-04-12T09:59:50.025Z</time></trkpt><trkpt lat="53.43953805863114" lon="14.759512268690075"><ele>13.0</ele><time>2026-04-12T09:59:51.025Z</time></trkpt><trkpt lat="53.43962466505066" lon="14.759643232975213"><ele>13.0</ele><time>2026-04-12T09:59:52.025Z</time></trkpt><trkpt lat="53.43969184226009" lon="14.75978827808989"><ele>13.0</ele><time>2026-04-12T09:59:53.025Z</time></trkpt><trkpt lat="53.439774125829764" lon="14.759924174060743"><ele>13.0</ele><time>2026-04-12T09:59:54.025Z</time></trkpt><trkpt lat="53.43986956760309" lon="14.760054004131094"><ele>12.75</ele><time>2026-04-12T09:59:55.025Z</time></trkpt><trkpt lat="53.43997139455304" lon="14.760211410825434"><ele>12.5</ele><time>2026-04-12T09:59:56.025Z</time></trkpt><trkpt lat="53.440068257424244" lon="14.760356728162556"><ele>12.25</ele><time>2026-04-12T09:59:57.025Z</time></trkpt><trkpt lat="53.440161684694786" lon="14.76050034638076"><ele>12.0</ele><time>2026-04-12T09:59:58.025Z</time></trkpt><trkpt lat="53.44027284493281" lon="14.760661394635061"><ele>12.0</ele><time>2026-04-12T09:59:59.025Z</time></trkpt><trkpt lat="53.44036199225334" lon="14.76080079983396"><ele>12.0</ele><time>2026-04-12T10:00:00.025Z</time></trkpt><trkpt lat="53.44044379566591" lon="14.760928458604"><ele>12.0</ele><time>2026-04-12T10:00:01.025Z</time></trkpt><trkpt lat="53.44051899738579" lon="14.76103613740553"><ele>12.0</ele><time>2026-04-12T10:00:02.025Z</time></trkpt><trkpt lat="53.44060512720709" lon="14.761159221358454"><ele>12.0</ele><time>2026-04-12T10:00:03.025Z</time></trkpt><trkpt lat="53.44068325145661" lon="14.76128301919781"><ele>11.75</ele><time>2026-04-12T10:00:04.025Z</time></trkpt><trkpt lat="53.44075339376701" lon="14.76144321786274"><ele>11.5</ele><time>2026-04-12T10:00:05.025Z</time></trkpt><trkpt lat="53.44083844463228" lon="14.76158514759252"><ele>11.25</ele><time>2026-04-12T10:00:06.025Z</time></trkpt><trkpt lat="53.440925489308555" lon="14.761729894902189"><ele>11.0</ele><time>2026-04-12T10:00:07.023Z</time></trkpt><trkpt lat="53.44101222788918" lon="14.761846207642808"><ele>11.25</ele><time>2026-04-12T10:00:08.023Z</time></trkpt><trkpt lat="53.44108770197838" lon="14.761991395020209"><ele>11.5</ele><time>2026-04-12T10:00:09.023Z</time></trkpt><trkpt lat="53.44118030690749" lon="14.762134124927679"><ele>11.75</ele><time>2026-04-12T10:00:10.024Z</time></trkpt><trkpt lat="53.44126521695906" lon="14.762262574075011"><ele>12.0</ele><time>2026-04-12T10:00:11.023Z</time></trkpt><trkpt lat="53.441355727731846" lon="14.762402925833795"><ele>12.0</ele><time>2026-04-12T10:00:12.023Z</time></trkpt><trkpt lat="53.441445964892175" lon="14.762552332689944"><ele>12.0</ele><time>2026-04-12T10:00:13.023Z</time></trkpt><trkpt lat="53.441546757524954" lon="14.762700100928797"><ele>12.0</ele><time>2026-04-12T10:00:14.024Z</time></trkpt><trkpt lat="53.44165563975898" lon="14.762851937660631"><ele>12.0</ele><time>2026-04-12T10:00:15.023Z</time></trkpt><trkpt lat="53.44174334577806" lon="14.76300133652884"><ele>12.5</ele><time>2026-04-12T10:00:16.023Z</time></trkpt><trkpt lat="53.441839725555006" lon="14.76315608199019"><ele>13.0</ele><time>2026-04-12T10:00:17.024Z</time></trkpt><trkpt lat="53.44192656016426" lon="14.763303115110379"><ele>13.5</ele><time>2026-04-12T10:00:18.023Z</time></trkpt><trkpt lat="53.44202285659059" lon="14.763451640763138"><ele>14.0</ele><time>2026-04-12T10:00:19.022Z</time></trkpt><trkpt lat="53.44210500052401" lon="14.763596651800214"><ele>12.75</ele><time>2026-04-12T10:00:20.023Z</time></trkpt><trkpt lat="53.44218900447227" lon="14.763711619481567"><ele>11.5</ele><time>2026-04-12T10:00:21.023Z</time></trkpt><trkpt lat="53.44227875872627" lon="14.763837365255124"><ele>10.25</ele><time>2026-04-12T10:00:22.023Z</time></trkpt><trkpt lat="53.44237222504749" lon="14.763965101533765"><ele>9.0</ele><time>2026-04-12T10:00:23.023Z</time></trkpt><trkpt lat="53.44246077603073" lon="14.764099897427673"><ele>9.0</ele><time>2026-04-12T10:00:24.022Z</time></trkpt><trkpt lat="53.442545487226475" lon="14.76423201680121"><ele>9.0</ele><time>2026-04-12T10:00:25.022Z</time></trkpt><trkpt lat="53.4426145864888" lon="14.764359945920999"><ele>9.0</ele><time>2026-04-12T10:00:26.022Z</time></trkpt><trkpt lat="53.442687815405954" lon="14.764471895093896"><ele>9.0</ele><time>2026-04-12T10:00:27.022Z</time></trkpt><trkpt lat="53.44276833839135" lon="14.764597825228954"><ele>9.0</ele><time>2026-04-12T10:00:28.022Z</time></trkpt><trkpt lat="53.44285206933801" lon="14.764728708889232"><ele>9.25</ele><time>2026-04-12T10:00:29.022Z</time></trkpt><trkpt lat="53.44294508948616" lon="14.764874113841039"><ele>9.5</ele><time>2026-04-12T10:00:30.022Z</time></trkpt><trkpt lat="53.44302907883236" lon="14.764972499067557"><ele>9.75</ele><time>2026-04-12T10:00:31.022Z</time></trkpt><trkpt lat="53.4431097856231" lon="14.765100354198282"><ele>10.0</ele><time>2026-04-12T10:00:32.022Z</time></trkpt><trkpt lat="53.44319157518315" lon="14.76523210782517"><ele>10.0</ele><time>2026-04-12T10:00:33.022Z</time></trkpt><trkpt lat="53.44328783222088" lon="14.765380465530791"><ele>10.0</ele><time>2026-04-12T10:00:34.022Z</time></trkpt><trkpt lat="53.44338691091385" lon="14.765539545769323"><ele>10.0</ele><time>2026-04-12T10:00:35.022Z</time></trkpt><trkpt lat="53.44348767476546" lon="14.765704567350014"><ele>10.0</ele><time>2026-04-12T10:00:36.022Z</time></trkpt><trkpt lat="53.443591095672495" lon="14.765861922836098"><ele>10.0</ele><time>2026-04-12T10:00:37.022Z</time></trkpt><trkpt lat="53.4436794293884" lon="14.766008716113856"><ele>10.0</ele><time>2026-04-12T10:00:38.022Z</time></trkpt><trkpt lat="53.44377403759468" lon="14.766159585975277"><ele>10.0</ele><time>2026-04-12T10:00:39.022Z</time></trkpt><trkpt lat="53.44386225922563" lon="14.766290306808616"><ele>10.0</ele><time>2026-04-12T10:00:40.022Z</time></trkpt><trkpt lat="53.443952468440365" lon="14.766438837290766"><ele>9.75</ele><time>2026-04-12T10:00:41.022Z</time></trkpt><trkpt lat="53.44404673554359" lon="14.766584900623256"><ele>9.5</ele><time>2026-04-12T10:00:42.022Z</time></trkpt><trkpt lat="53.44414039640512" lon="14.76673329380368"><ele>9.25</ele><time>2026-04-12T10:00:43.022Z</time></trkpt><trkpt lat="53.44422446688058" lon="14.766868047557693"><ele>9.0</ele><time>2026-04-12T10:00:44.022Z</time></trkpt><trkpt lat="53.44430940571205" lon="14.7669919616247"><ele>9.75</ele><time>2026-04-12T10:00:45.022Z</time></trkpt><trkpt lat="53.44439801509381" lon="14.767135578355537"><ele>10.5</ele><time>2026-04-12T10:00:46.022Z</time></trkpt><trkpt lat="53.444489658988296" lon="14.767282568784475"><ele>11.25</ele><time>2026-04-12T10:00:47.022Z</time></trkpt><trkpt lat="53.44457539970228" lon="14.767413781103858"><ele>12.0</ele><time>2026-04-12T10:00:48.022Z</time></trkpt><trkpt lat="53.44466302286708" lon="14.767552219982077"><ele>12.25</ele><time>2026-04-12T10:00:49.022Z</time></trkpt><trkpt lat="53.44475735455624" lon="14.767695626951278"><ele>12.5</ele><time>2026-04-12T10:00:50.022Z</time></trkpt><trkpt lat="53.444845139707816" lon="14.767835535795397"><ele>12.75</ele><time>2026-04-12T10:00:51.022Z</time></trkpt><trkpt lat="53.444922934131334" lon="14.767966488932577"><ele>13.0</ele><time>2026-04-12T10:00:52.022Z</time></trkpt><trkpt lat="53.44502585683549" lon="14.768124517645733"><ele>13.0</ele><time>2026-04-12T10:00:53.022Z</time></trkpt><trkpt lat="53.445131356370894" lon="14.768277104265936"><ele>13.0</ele><time>2026-04-12T10:00:54.022Z</time></trkpt><trkpt lat="53.44522089273009" lon="14.768423763824748"><ele>13.0</ele><time>2026-04-12T10:00:55.022Z</time></trkpt><trkpt lat="53.44531460052897" lon="14.768604032399063"><ele>13.0</ele><time>2026-04-12T10:00:56.022Z</time></trkpt><trkpt lat="53.445419022139134" lon="14.768770351383745"><ele>13.25</ele><time>2026-04-12T10:00:57.022Z</time></trkpt><trkpt lat="53.44552147762492" lon="14.768934214098199"><ele>13.5</ele><time>2026-04-12T10:00:58.022Z</time></trkpt><trkpt lat="53.44562096018903" lon="14.769093393915627"><ele>13.75</ele><time>2026-04-12T10:00:59.022Z</time></trkpt><trkpt lat="53.44570908419812" lon="14.76923482607857"><ele>14.0</ele><time>2026-04-12T10:01:00.022Z</time></trkpt><trkpt lat="53.445811933998954" lon="14.769359676471595"><ele>14.0</ele><time>2026-04-12T10:01:01.022Z</time></trkpt><trkpt lat="53.445909107150555" lon="14.76952016100456"><ele>14.0</ele><time>2026-04-12T10:01:02.022Z</time></trkpt><trkpt lat="53.44600761610754" lon="14.769681073727162"><ele>14.0</ele><time>2026-04-12T10:01:03.022Z</time></trkpt><trkpt lat="53.44611501888011" lon="14.769847513410092"><ele>14.0</ele><time>2026-04-12T10:01:04.022Z</time></trkpt><trkpt lat="53.446226289625955" lon="14.770029561960799"><ele>14.5</ele><time>2026-04-12T10:01:05.022Z</time></trkpt><trkpt lat="53.44632808509886" lon="14.77019475053338"><ele>15.0</ele><time>2026-04-12T10:01:06.022Z</time></trkpt><trkpt lat="53.446429895934806" lon="14.770342050138384"><ele>15.5</ele><time>2026-04-12T10:01:07.022Z</time></trkpt><trkpt lat="53.44652841641294" lon="14.770505048868637"><ele>16.0</ele><time>2026-04-12T10:01:08.022Z</time></trkpt><trkpt lat="53.446631978913544" lon="14.770680707305784"><ele>16.0</ele><time>2026-04-12T10:01:09.022Z</time></trkpt><trkpt lat="53.446737578418634" lon="14.770842738542719"><ele>16.0</ele><time>2026-04-12T10:01:10.022Z</time></trkpt><trkpt lat="53.44684568309428" lon="14.771009330867631"><ele>16.0</ele><time>2026-04-12T10:01:11.022Z</time></trkpt><trkpt lat="53.446944140838326" lon="14.771171690506675"><ele>16.0</ele><time>2026-04-12T10:01:12.022Z</time></trkpt><trkpt lat="53.44705326746656" lon="14.771334926631631"><ele>16.25</ele><time>2026-04-12T10:01:13.022Z</time></trkpt><trkpt lat="53.44715330729837" lon="14.771495841883658"><ele>16.5</ele><time>2026-04-12T10:01:14.022Z</time></trkpt><trkpt lat="53.44726085751551" lon="14.771636539001191"><ele>16.75</ele><time>2026-04-12T10:01:15.022Z</time></trkpt><trkpt lat="53.44735872964976" lon="14.771771792324925"><ele>17.0</ele><time>2026-04-12T10:01:16.022Z</time></trkpt><trkpt lat="53.44744962248621" lon="14.771921333190333"><ele>17.0</ele><time>2026-04-12T10:01:17.022Z</time></trkpt><trkpt lat="53.44754699102462" lon="14.772081425502579"><ele>17.0</ele><time>2026-04-12T10:01:18.022Z</time></trkpt><trkpt lat="53.44764125061212" lon="14.772227480725165"><ele>17.0</ele><time>2026-04-12T10:01:19.022Z</time></trkpt><trkpt lat="53.44773975646229" lon="14.77237301578176"><ele>17.0</ele><time>2026-04-12T10:01:20.022Z</time></trkpt><trkpt lat="53.44782133508947" lon="14.772504892009776"><ele>17.0</ele><time>2026-04-12T10:01:21.022Z</time></trkpt><trkpt lat="53.44791156576212" lon="14.77264534220663"><ele>17.0</ele><time>2026-04-12T10:01:22.022Z</time></trkpt><trkpt lat="53.448012005900466" lon="14.772787749681441"><ele>17.0</ele><time>2026-04-12T10:01:23.022Z</time></trkpt><trkpt lat="53.448097253165884" lon="14.772929327786294"><ele>17.0</ele><time>2026-04-12T10:01:24.022Z</time></trkpt><trkpt lat="53.44816227341832" lon="14.773077916021691"><ele>17.25</ele><time>2026-04-12T10:01:25.022Z</time></trkpt><trkpt lat="53.4482381232136" lon="14.773193515633151"><ele>17.5</ele><time>2026-04-12T10:01:26.022Z</time></trkpt><trkpt lat="53.44832905834941" lon="14.773294082373534"><ele>17.75</ele><time>2026-04-12T10:01:27.022Z</time></trkpt><trkpt lat="53.44840737864257" lon="14.773444174214672"><ele>18.0</ele><time>2026-04-12T10:01:28.022Z</time></trkpt><trkpt lat="53.44849633978186" lon="14.773592173737242"><ele>18.0</ele><time>2026-04-12T10:01:29.022Z</time></trkpt><trkpt lat="53.44859716294096" lon="14.773741211638685"><ele>18.0</ele><time>2026-04-12T10:01:30.022Z</time></trkpt><trkpt lat="53.44870241349284" lon="14.773896758807298"><ele>18.0</ele><time>2026-04-12T10:01:31.022Z</time></trkpt><trkpt lat="53.44878817716457" lon="14.774045306958213"><ele>18.0</ele><time>2026-04-12T10:01:32.022Z</time></trkpt><trkpt lat="53.44888655513506" lon="14.774176746902247"><ele>17.75</ele><time>2026-04-12T10:01:33.022Z</time></trkpt><trkpt lat="53.44898736879552" lon="14.77430765202998"><ele>17.5</ele><time>2026-04-12T10:01:34.022Z</time></trkpt><trkpt lat="53.449073982850166" lon="14.774429816807908"><ele>17.25</ele><time>2026-04-12T10:01:35.022Z</time></trkpt><trkpt lat="53.44914850373251" lon="14.774553716769232"><ele>17.0</ele><time>2026-04-12T10:01:36.022Z</time></trkpt><trkpt lat="53.44923948634091" lon="14.774712004748038"><ele>17.0</ele><time>2026-04-12T10:01:37.022Z</time></trkpt><trkpt lat="53.44932822897942" lon="14.774858016201772"><ele>17.0</ele><time>2026-04-12T10:01:38.022Z</time></trkpt><trkpt lat="53.44943918835765" lon="14.775023292582773"><ele>17.0</ele><time>2026-04-12T10:01:39.022Z</time></trkpt><trkpt lat="53.44953877170688" lon="14.775181517212264"><ele>17.0</ele><time>2026-04-12T10:01:40.022Z</time></trkpt><trkpt lat="53.44964093140106" lon="14.775341772455336"><ele>17.0</ele><time>2026-04-12T10:01:41.022Z</time></trkpt><trkpt lat="53.449745457643075" lon="14.775500673096735"><ele>17.0</ele><time>2026-04-12T10:01:42.022Z</time></trkpt><trkpt lat="53.44984693580164" lon="14.775651251803765"><ele>17.0</ele><time>2026-04-12T10:01:43.022Z</time></trkpt><trkpt lat="53.44993335009028" lon="14.775816132216281"><ele>17.0</ele><time>2026-04-12T10:01:44.022Z</time></trkpt><trkpt lat="53.45002209111393" lon="14.775955139018027"><ele>17.5</ele><time>2026-04-12T10:01:45.022Z</time></trkpt><trkpt lat="53.45011404880145" lon="14.776098460454095"><ele>18.0</ele><time>2026-04-12T10:01:46.022Z</time></trkpt><trkpt lat="53.45021477900487" lon="14.77625628663923"><ele>18.5</ele><time>2026-04-12T10:01:47.022Z</time></trkpt><trkpt lat="53.45031481987195" lon="14.776413108319012"><ele>19.0</ele><time>2026-04-12T10:01:48.022Z</time></trkpt><trkpt lat="53.450416625411336" lon="14.776552528706288"><ele>18.75</ele><time>2026-04-12T10:01:49.022Z</time></trkpt><trkpt lat="53.45051520541943" lon="14.77671001227161"><ele>18.5</ele><time>2026-04-12T10:01:50.022Z</time></trkpt><trkpt lat="53.45062046227826" lon="14.776851056749779"><ele>18.25</ele><time>2026-04-12T10:01:51.022Z</time></trkpt><trkpt lat="53.450713610927025" lon="14.776989839769046"><ele>18.0</ele><time>2026-04-12T10:01:52.022Z</time></trkpt><trkpt lat="53.45080684603493" lon="14.777131066509225"><ele>18.0</ele><time>2026-04-12T10:01:53.022Z</time></trkpt><trkpt lat="53.450890983735015" lon="14.777268817970077"><ele>18.0</ele><time>2026-04-12T10:01:54.022Z</time></trkpt><trkpt lat="53.450966168028934" lon="14.777389768216173"><ele>18.0</ele><time>2026-04-12T10:01:55.022Z</time></trkpt><trkpt lat="53.45105715688697" lon="14.777507417314869"><ele>18.0</ele><time>2026-04-12T10:01:56.022Z</time></trkpt><trkpt lat="53.451149136842666" lon="14.777659678591057"><ele>18.75</ele><time>2026-04-12T10:01:57.022Z</time></trkpt><trkpt lat="53.451245802462324" lon="14.777818953589557"><ele>19.5</ele><time>2026-04-12T10:01:58.023Z</time></trkpt><trkpt lat="53.45134685233865" lon="14.777968963246474"><ele>20.25</ele><time>2026-04-12T10:01:59.023Z</time></trkpt><trkpt lat="53.451454761806595" lon="14.778128952565364"><ele>21.0</ele><time>2026-04-12T10:02:00.023Z</time></trkpt><trkpt lat="53.45156329002491" lon="14.778289229592156"><ele>21.0</ele><time>2026-04-12T10:02:01.023Z</time></trkpt><trkpt lat="53.451685793211496" lon="14.778465626306872"><ele>21.0</ele><time>2026-04-12T10:02:02.023Z</time></trkpt><trkpt lat="53.45180863402591" lon="14.77864177482087"><ele>21.0</ele><time>2026-04-12T10:02:03.023Z</time></trkpt><trkpt lat="53.451939712533566" lon="14.778827585797886"><ele>20.666666666666668</ele><time>2026-04-12T10:02:04.023Z</time></trkpt><trkpt lat="53.4520686868522" lon="14.779008793996978"><ele>20.333333333333336</ele><time>2026-04-12T10:02:05.023Z</time></trkpt><trkpt lat="53.45219710761196" lon="14.779186994889836"><ele>20.0</ele><time>2026-04-12T10:02:06.023Z</time></trkpt><trkpt lat="53.452307959719214" lon="14.77935902364591"><ele>20.5</ele><time>2026-04-12T10:02:07.023Z</time></trkpt><trkpt lat="53.45243178942019" lon="14.779509413845723"><ele>21.0</ele><time>2026-04-12T10:02:08.023Z</time></trkpt><trkpt lat="53.45253262911964" lon="14.779629174793833"><ele>21.5</ele><time>2026-04-12T10:02:09.023Z</time></trkpt><trkpt lat="53.452632934679535" lon="14.779745889986081"><ele>22.0</ele><time>2026-04-12T10:02:10.023Z</time></trkpt><trkpt lat="53.45272910412044" lon="14.77985442219681"><ele>22.0</ele><time>2026-04-12T10:02:11.023Z</time></trkpt><trkpt lat="53.45282424354691" lon="14.779934808273753"><ele>22.0</ele><time>2026-04-12T10:02:12.023Z</time></trkpt><trkpt lat="53.45291440390773" lon="14.780024350268244"><ele>22.0</ele><time>2026-04-12T10:02:13.021Z</time></trkpt><trkpt lat="53.45300642881257" lon="14.780115879699117"><ele>22.0</ele><time>2026-04-12T10:02:14.021Z</time></trkpt><trkpt lat="53.453089501472235" lon="14.780201404858559"><ele>22.0</ele><time>2026-04-12T10:02:15.021Z</time></trkpt><trkpt lat="53.45317900890037" lon="14.780295245897637"><ele>21.200000000000003</ele><time>2026-04-12T10:02:16.021Z</time></trkpt><trkpt lat="53.453262935428064" lon="14.780383956246704"><ele>20.400000000000002</ele><time>2026-04-12T10:02:17.021Z</time></trkpt><trkpt lat="53.45335973455555" lon="14.780468170387682"><ele>19.6</ele><time>2026-04-12T10:02:18.021Z</time></trkpt><trkpt lat="53.45344025324421" lon="14.78052832920305"><ele>18.8</ele><time>2026-04-12T10:02:19.021Z</time></trkpt><trkpt lat="53.4535190968017" lon="14.780599263613126"><ele>18.0</ele><time>2026-04-12T10:02:20.021Z</time></trkpt><trkpt lat="53.45359247301681" lon="14.780687106009477"><ele>18.0</ele><time>2026-04-12T10:02:21.021Z</time></trkpt><trkpt lat="53.45368081203946" lon="14.780761745305794"><ele>18.0</ele><time>2026-04-12T10:02:22.021Z</time></trkpt><trkpt lat="53.45376946258965" lon="14.780827832176735"><ele>18.0</ele><time>2026-04-12T10:02:23.021Z</time></trkpt><trkpt lat="53.45384990156757" lon="14.780874906044954"><ele>18.0</ele><time>2026-04-12T10:02:24.021Z</time></trkpt><trkpt lat="53.45392780943056" lon="14.780936943088006"><ele>18.0</ele><time>2026-04-12T10:02:25.021Z</time></trkpt><trkpt lat="53.45401532668947" lon="14.781015038176779"><ele>17.2</ele><time>2026-04-12T10:02:26.022Z</time></trkpt><trkpt lat="53.45411694650253" lon="14.78109379786984"><ele>16.4</ele><time>2026-04-12T10:02:27.022Z</time></trkpt><trkpt lat="53.454211364705074" lon="14.781159724272756"><ele>15.599999999999998</ele><time>2026-04-12T10:02:28.022Z</time></trkpt><trkpt lat="53.45430311315651" lon="14.781226112958437"><ele>14.799999999999999</ele><time>2026-04-12T10:02:29.022Z</time></trkpt><trkpt lat="53.45439241848655" lon="14.781275124351987"><ele>14.0</ele><time>2026-04-12T10:02:30.022Z</time></trkpt><trkpt lat="53.45449546467354" lon="14.781316888993267"><ele>14.0</ele><time>2026-04-12T10:02:31.022Z</time></trkpt><trkpt lat="53.45461916123117" lon="14.781379335624267"><ele>13.999999999999998</ele><time>2026-04-12T10:02:32.022Z</time></trkpt><trkpt lat="53.45470182189674" lon="14.781414328539304"><ele>13.999999999999998</ele><time>2026-04-12T10:02:33.022Z</time></trkpt><trkpt lat="53.454799004965444" lon="14.78145975808334"><ele>14.0</ele><time>2026-04-12T10:02:34.022Z</time></trkpt><trkpt lat="53.45490683459713" lon="14.781525347256185"><ele>14.0</ele><time>2026-04-12T10:02:35.022Z</time></trkpt><trkpt lat="53.45502050733021" lon="14.781593430525731"><ele>13.25</ele><time>2026-04-12T10:02:36.022Z</time></trkpt><trkpt lat="53.455144709286415" lon="14.781647325048297"><ele>12.5</ele><time>2026-04-12T10:02:37.022Z</time></trkpt><trkpt lat="53.4552851400553" lon="14.781716391374038"><ele>11.75</ele><time>2026-04-12T10:02:38.022Z</time></trkpt><trkpt lat="53.45543246273906" lon="14.781775106226934"><ele>11.0</ele><time>2026-04-12T10:02:39.022Z</time></trkpt><trkpt lat="53.455594825339446" lon="14.781842731041253"><ele>11.333333333333332</ele><time>2026-04-12T10:02:40.022Z</time></trkpt><trkpt lat="53.45575692998997" lon="14.781899174032718"><ele>11.666666666666666</ele><time>2026-04-12T10:02:41.022Z</time></trkpt><trkpt lat="53.45591454870842" lon="14.7819559537272"><ele>12.0</ele><time>2026-04-12T10:02:42.022Z</time></trkpt><trkpt lat="53.456042988131266" lon="14.78200493293397"><ele>12.0</ele><time>2026-04-12T10:02:43.022Z</time></trkpt><trkpt lat="53.45615015073285" lon="14.782044638344805"><ele>12.0</ele><time>2026-04-12T10:02:44.022Z</time></trkpt><trkpt lat="53.45626839085893" lon="14.782059583380313"><ele>12.0</ele><time>2026-04-12T10:02:45.022Z</time></trkpt><trkpt lat="53.45639711287072" lon="14.78212923473243"><ele>12.0</ele><time>2026-04-12T10:02:46.022Z</time></trkpt><trkpt lat="53.4565218503971" lon="14.782144504414788"><ele>11.6</ele><time>2026-04-12T10:02:47.022Z</time></trkpt><trkpt lat="53.45663555473815" lon="14.782207575208368"><ele>11.2</ele><time>2026-04-12T10:02:48.022Z</time></trkpt><trkpt lat="53.4567440952772" lon="14.78224219285692"><ele>10.8</ele><time>2026-04-12T10:02:49.022Z</time></trkpt><trkpt lat="53.45683779452056" lon="14.782271726753669"><ele>10.4</ele><time>2026-04-12T10:02:50.022Z</time></trkpt><trkpt lat="53.45691860224149" lon="14.782297019347197"><ele>10.0</ele><time>2026-04-12T10:02:51.022Z</time></trkpt><trkpt lat="53.457004186435555" lon="14.782325845153695"><ele>10.0</ele><time>2026-04-12T10:02:52.022Z</time></trkpt><trkpt lat="53.45707203936074" lon="14.782322518443408"><ele>10.0</ele><time>2026-04-12T10:02:53.022Z</time></trkpt><trkpt lat="53.457137389398966" lon="14.782350793138386"><ele>10.0</ele><time>2026-04-12T10:02:54.022Z</time></trkpt><trkpt lat="53.4571964443319" lon="14.78239548934662"><ele>10.0</ele><time>2026-04-12T10:02:55.022Z</time></trkpt><trkpt lat="53.45728252727148" lon="14.782426570415502"><ele>10.0</ele><time>2026-04-12T10:02:57.022Z</time></trkpt><trkpt lat="53.4573944300365" lon="14.782467197327993"><ele>10.0</ele><time>2026-04-12T10:02:59.022Z</time></trkpt><trkpt lat="53.45751814473307" lon="14.782512744292868"><ele>10.0</ele><time>2026-04-12T10:03:01.022Z</time></trkpt><trkpt lat="53.4575895494629" lon="14.78253903275631"><ele>10.0</ele><time>2026-04-12T10:03:02.022Z</time></trkpt><trkpt lat="53.457652559811045" lon="14.782562230592726"><ele>10.0</ele><time>2026-04-12T10:03:03.022Z</time></trkpt><trkpt lat="53.45771836247538" lon="14.782586456565964"><ele>10.0</ele><time>2026-04-12T10:03:04.022Z</time></trkpt><trkpt lat="53.45778929116869" lon="14.782612569810048"><ele>10.0</ele><time>2026-04-12T10:03:05.022Z</time></trkpt><trkpt lat="53.4579229569532" lon="14.78266178797374"><ele>10.0</ele><time>2026-04-12T10:03:07.022Z</time></trkpt><trkpt lat="53.45801265429658" lon="14.782694823793118"><ele>10.0</ele><time>2026-04-12T10:03:08.022Z</time></trkpt><trkpt lat="53.45810842581816" lon="14.782730096649438"><ele>10.0</ele><time>2026-04-12T10:03:09.022Z</time></trkpt><trkpt lat="53.45817089925598" lon="14.78275310573254"><ele>10.0</ele><time>2026-04-12T10:03:10.022Z</time></trkpt><trkpt lat="53.45823760391249" lon="14.782785257643406"><ele>10.0</ele><time>2026-04-12T10:03:11.022Z</time></trkpt><trkpt lat="53.4583520348819" lon="14.78280669524208"><ele>10.0</ele><time>2026-04-12T10:03:12.022Z</time></trkpt><trkpt lat="53.458430883613325" lon="14.782832979522485"><ele>10.0</ele><time>2026-04-12T10:03:13.022Z</time></trkpt><trkpt lat="53.45850591008568" lon="14.782861216437505"><ele>10.0</ele><time>2026-04-12T10:03:14.022Z</time></trkpt><trkpt lat="53.458576011100476" lon="14.782888059682282"><ele>10.0</ele><time>2026-04-12T10:03:15.022Z</time></trkpt><trkpt lat="53.458676677214896" lon="14.78292548396392"><ele>10.0</ele><time>2026-04-12T10:03:16.022Z</time></trkpt><trkpt lat="53.458766016544715" lon="14.782958284785535"><ele>10.0</ele><time>2026-04-12T10:03:17.022Z</time></trkpt><trkpt lat="53.45884931429111" lon="14.782993370980972"><ele>10.0</ele><time>2026-04-12T10:03:18.022Z</time></trkpt><trkpt lat="53.45894947548248" lon="14.783012209491087"><ele>10.0</ele><time>2026-04-12T10:03:19.022Z</time></trkpt><trkpt lat="53.45903241341296" lon="14.783067851173236"><ele>10.0</ele><time>2026-04-12T10:03:20.023Z</time></trkpt><trkpt lat="53.459129201904524" lon="14.78306809026268"><ele>10.0</ele><time>2026-04-12T10:03:21.023Z</time></trkpt><trkpt lat="53.459224829690804" lon="14.783109361371165"><ele>10.0</ele><time>2026-04-12T10:03:22.023Z</time></trkpt><trkpt lat="53.45931134484183" lon="14.783146501971386"><ele>10.0</ele><time>2026-04-12T10:03:23.023Z</time></trkpt><trkpt lat="53.45941347933421" lon="14.78313499531651"><ele>10.0</ele><time>2026-04-12T10:03:24.023Z</time></trkpt><trkpt lat="53.45950789594739" lon="14.783171635501642"><ele>10.0</ele><time>2026-04-12T10:03:25.023Z</time></trkpt><trkpt lat="53.45959836050892" lon="14.783184081383006"><ele>10.0</ele><time>2026-04-12T10:03:26.023Z</time></trkpt><trkpt lat="53.45969468909198" lon="14.783204207905515"><ele>10.0</ele><time>2026-04-12T10:03:27.023Z</time></trkpt><trkpt lat="53.45980138222235" lon="14.783245947486364"><ele>10.0</ele><time>2026-04-12T10:03:28.023Z</time></trkpt><trkpt lat="53.459881590878595" lon="14.783391338633185"><ele>10.0</ele><time>2026-04-12T10:03:29.023Z</time></trkpt><trkpt lat="53.46000097870741" lon="14.78346374366482"><ele>10.0</ele><time>2026-04-12T10:03:30.023Z</time></trkpt><trkpt lat="53.460124697041294" lon="14.783518353836959"><ele>10.0</ele><time>2026-04-12T10:03:31.023Z</time></trkpt><trkpt lat="53.460230757699655" lon="14.783561996518356"><ele>10.0</ele><time>2026-04-12T10:03:32.023Z</time></trkpt><trkpt lat="53.46032447798416" lon="14.783599131818072"><ele>10.0</ele><time>2026-04-12T10:03:33.023Z</time></trkpt><trkpt lat="53.46041334067562" lon="14.783628551248178"><ele>10.0</ele><time>2026-04-12T10:03:34.023Z</time></trkpt><trkpt lat="53.46049791927494" lon="14.78365153384921"><ele>10.0</ele><time>2026-04-12T10:03:35.023Z</time></trkpt><trkpt lat="53.46059534463841" lon="14.78367164645858"><ele>10.0</ele><time>2026-04-12T10:03:36.023Z</time></trkpt><trkpt lat="53.460693015236274" lon="14.783686633833439"><ele>10.0</ele><time>2026-04-12T10:03:37.023Z</time></trkpt><trkpt lat="53.46080794009529" lon="14.783701954899037"><ele>10.0</ele><time>2026-04-12T10:03:38.023Z</time></trkpt><trkpt lat="53.46090642309753" lon="14.783722448464024"><ele>10.0</ele><time>2026-04-12T10:03:39.023Z</time></trkpt><trkpt lat="53.46098747093237" lon="14.783742309880752"><ele>10.0</ele><time>2026-04-12T10:03:40.023Z</time></trkpt><trkpt lat="53.46105676380593" lon="14.78376322663662"><ele>10.0</ele><time>2026-04-12T10:03:41.023Z</time></trkpt><trkpt lat="53.46112258212165" lon="14.78378175678108"><ele>10.0</ele><time>2026-04-12T10:03:42.023Z</time></trkpt><trkpt lat="53.46118775964641" lon="14.783800103236452"><ele>10.0</ele><time>2026-04-12T10:03:43.023Z</time></trkpt><trkpt lat="53.46125307455805" lon="14.783818488572376"><ele>9.857142857142858</ele><time>2026-04-12T10:03:44.023Z</time></trkpt><trkpt lat="53.46132120190753" lon="14.783835434130168"><ele>9.714285714285715</ele><time>2026-04-12T10:03:45.023Z</time></trkpt><trkpt lat="53.461386785558645" lon="14.783828631007484"><ele>9.571428571428573</ele><time>2026-04-12T10:03:46.023Z</time></trkpt><trkpt lat="53.46144904960541" lon="14.78385650871451"><ele>9.428571428571429</ele><time>2026-04-12T10:03:47.023Z</time></trkpt><trkpt lat="53.461548194295325" lon="14.78389820760012"><ele>9.285714285714286</ele><time>2026-04-12T10:03:49.023Z</time></trkpt><trkpt lat="53.461619273825704" lon="14.783922407068102"><ele>9.142857142857144</ele><time>2026-04-12T10:03:51.023Z</time></trkpt><trkpt lat="53.46167833201338" lon="14.783964363536354"><ele>9.0</ele><time>2026-04-12T10:03:53.023Z</time></trkpt><trkpt lat="53.46175118465331" lon="14.783975584354533"><ele>9.0</ele><time>2026-04-12T10:03:56.023Z</time></trkpt><trkpt lat="53.46171438437275" lon="14.784148411756375"><ele>9.0</ele><time>2026-04-12T10:03:57.023Z</time></trkpt><trkpt lat="53.46194977001418" lon="14.784232348125418"><ele>9.0</ele><time>2026-04-12T10:04:00.023Z</time></trkpt><trkpt lat="53.46202614511833" lon="14.78425078934464"><ele>9.0</ele><time>2026-04-12T10:04:01.023Z</time></trkpt><trkpt lat="53.46210664699804" lon="14.784280400238412"><ele>9.166666666666666</ele><time>2026-04-12T10:04:02.023Z</time></trkpt><trkpt lat="53.46218897589174" lon="14.78431410142032"><ele>9.333333333333334</ele><time>2026-04-12T10:04:03.023Z</time></trkpt><trkpt lat="53.462284612155024" lon="14.784342378178717"><ele>9.5</ele><time>2026-04-12T10:04:04.023Z</time></trkpt><trkpt lat="53.46237279807818" lon="14.784375367212972"><ele>9.666666666666668</ele><time>2026-04-12T10:04:05.023Z</time></trkpt><trkpt lat="53.4624578007246" lon="14.784414472310399"><ele>9.833333333333334</ele><time>2026-04-12T10:04:06.023Z</time></trkpt><trkpt lat="53.462541089194836" lon="14.784453006803457"><ele>10.0</ele><time>2026-04-12T10:04:07.023Z</time></trkpt><trkpt lat="53.46263251227597" lon="14.784484510054071"><ele>10.0</ele><time>2026-04-12T10:04:08.023Z</time></trkpt><trkpt lat="53.46272172544546" lon="14.78453108607976"><ele>10.0</ele><time>2026-04-12T10:04:09.023Z</time></trkpt><trkpt lat="53.462790366879034" lon="14.784879156339453"><ele>10.0</ele><time>2026-04-12T10:04:10.023Z</time></trkpt><trkpt lat="53.46288459389975" lon="14.784902756219187"><ele>10.0</ele><time>2026-04-12T10:04:11.023Z</time></trkpt><trkpt lat="53.462976435984004" lon="14.784925758929333"><ele>10.2</ele><time>2026-04-12T10:04:12.023Z</time></trkpt><trkpt lat="53.46306705080384" lon="14.784957394682245"><ele>10.4</ele><time>2026-04-12T10:04:13.023Z</time></trkpt><trkpt lat="53.463171344236926" lon="14.784991301603096"><ele>10.600000000000001</ele><time>2026-04-12T10:04:14.023Z</time></trkpt><trkpt lat="53.46327907796648" lon="14.785026326977734"><ele>10.8</ele><time>2026-04-12T10:04:15.023Z</time></trkpt><trkpt lat="53.4633873471633" lon="14.785061526454708"><ele>11.0</ele><time>2026-04-12T10:04:16.024Z</time></trkpt><trkpt lat="53.463497936586776" lon="14.785097622210676"><ele>11.0</ele><time>2026-04-12T10:04:17.024Z</time></trkpt><trkpt lat="53.463597593113086" lon="14.78513009304526"><ele>11.0</ele><time>2026-04-12T10:04:18.024Z</time></trkpt><trkpt lat="53.46369234448145" lon="14.785160618982944"><ele>11.0</ele><time>2026-04-12T10:04:19.022Z</time></trkpt><trkpt lat="53.46379681236274" lon="14.785193905412923"><ele>11.0</ele><time>2026-04-12T10:04:20.022Z</time></trkpt><trkpt lat="53.46389785154383" lon="14.785227547237897"><ele>11.0</ele><time>2026-04-12T10:04:21.022Z</time></trkpt><trkpt lat="53.46400003323705" lon="14.78525996899489"><ele>11.0</ele><time>2026-04-12T10:04:22.022Z</time></trkpt><trkpt lat="53.464110833203414" lon="14.785296587056898"><ele>11.0</ele><time>2026-04-12T10:04:23.021Z</time></trkpt><trkpt lat="53.4642160277087" lon="14.78533061851083"><ele>11.0</ele><time>2026-04-12T10:04:24.021Z</time></trkpt><trkpt lat="53.464328849211604" lon="14.785367117923272"><ele>11.0</ele><time>2026-04-12T10:04:25.022Z</time></trkpt><trkpt lat="53.464420329721605" lon="14.785425931761187"><ele>11.0</ele><time>2026-04-12T10:04:26.022Z</time></trkpt><trkpt lat="53.464532679376944" lon="14.78547426137678"><ele>11.600000000000001</ele><time>2026-04-12T10:04:27.022Z</time></trkpt><trkpt lat="53.464652454445805" lon="14.785522433247174"><ele>12.2</ele><time>2026-04-12T10:04:28.022Z</time></trkpt><trkpt lat="53.4647662199132" lon="14.785567000120224"><ele>12.799999999999999</ele><time>2026-04-12T10:04:29.021Z</time></trkpt><trkpt lat="53.464898464247035" lon="14.785608365726823"><ele>13.399999999999999</ele><time>2026-04-12T10:04:30.021Z</time></trkpt><trkpt lat="53.46497035935597" lon="14.785644061893153"><ele>14.0</ele><time>2026-04-12T10:04:31.022Z</time></trkpt><trkpt lat="53.46505466220037" lon="14.78571044017762"><ele>14.0</ele><time>2026-04-12T10:04:32.022Z</time></trkpt><trkpt lat="53.465128104739776" lon="14.785804359321187"><ele>14.0</ele><time>2026-04-12T10:04:33.022Z</time></trkpt><trkpt lat="53.46540804371484" lon="14.785454030535577"><ele>14.0</ele><time>2026-04-12T10:04:34.022Z</time></trkpt><trkpt lat="53.465546991496105" lon="14.785523802992694"><ele>15.0</ele><time>2026-04-12T10:04:35.022Z</time></trkpt><trkpt lat="53.465705444535885" lon="14.785602174067357"><ele>16.0</ele><time>2026-04-12T10:04:36.022Z</time></trkpt><trkpt lat="53.46585010242329" lon="14.785658426784211"><ele>17.0</ele><time>2026-04-12T10:04:37.022Z</time></trkpt><trkpt lat="53.465998755224724" lon="14.785711929889331"><ele>17.0</ele><time>2026-04-12T10:04:38.022Z</time></trkpt><trkpt lat="53.46613818808008" lon="14.78575983352378"><ele>17.0</ele><time>2026-04-12T10:04:39.022Z</time></trkpt><trkpt lat="53.46627742661081" lon="14.785813765165146"><ele>17.0</ele><time>2026-04-12T10:04:40.022Z</time></trkpt><trkpt lat="53.46642673061761" lon="14.78586672832933"><ele>17.0</ele><time>2026-04-12T10:04:41.022Z</time></trkpt><trkpt lat="53.466564380234985" lon="14.785915125564665"><ele>16.75</ele><time>2026-04-12T10:04:42.022Z</time></trkpt><trkpt lat="53.46670524078473" lon="14.785964370803907"><ele>16.5</ele><time>2026-04-12T10:04:43.022Z</time></trkpt><trkpt lat="53.46683163974282" lon="14.786012777315332"><ele>16.25</ele><time>2026-04-12T10:04:44.022Z</time></trkpt><trkpt lat="53.46697272718736" lon="14.786071658468382"><ele>16.0</ele><time>2026-04-12T10:04:45.022Z</time></trkpt><trkpt lat="53.467087855824744" lon="14.786104608636235"><ele>15.5</ele><time>2026-04-12T10:04:46.022Z</time></trkpt><trkpt lat="53.46718851801323" lon="14.786147030133948"><ele>15.0</ele><time>2026-04-12T10:04:47.022Z</time></trkpt><trkpt lat="53.467298507487456" lon="14.78618782571988"><ele>14.5</ele><time>2026-04-12T10:04:48.022Z</time></trkpt><trkpt lat="53.467417261611544" lon="14.786231471275167"><ele>14.0</ele><time>2026-04-12T10:04:49.022Z</time></trkpt><trkpt lat="53.46753339870119" lon="14.786265964207452"><ele>14.0</ele><time>2026-04-12T10:04:50.022Z</time></trkpt><trkpt lat="53.467645618435334" lon="14.786311479700387"><ele>14.0</ele><time>2026-04-12T10:04:51.022Z</time></trkpt><trkpt lat="53.467769707345" lon="14.786361148192112"><ele>14.0</ele><time>2026-04-12T10:04:52.022Z</time></trkpt><trkpt lat="53.467878770760635" lon="14.786403667133078"><ele>14.0</ele><time>2026-04-12T10:04:53.022Z</time></trkpt><trkpt lat="53.468003715628484" lon="14.786441970331962"><ele>14.0</ele><time>2026-04-12T10:04:54.022Z</time></trkpt><trkpt lat="53.468129781818426" lon="14.786482928611214"><ele>14.0</ele><time>2026-04-12T10:04:55.022Z</time></trkpt><trkpt lat="53.46826144637894" lon="14.786519175722873"><ele>14.0</ele><time>2026-04-12T10:04:56.022Z</time></trkpt><trkpt lat="53.468383902744385" lon="14.786562562527047"><ele>14.0</ele><time>2026-04-12T10:04:57.022Z</time></trkpt><trkpt lat="53.468509704782065" lon="14.786592831469507"><ele>14.0</ele><time>2026-04-12T10:04:58.022Z</time></trkpt><trkpt lat="53.46864612342743" lon="14.786642518547044"><ele>14.0</ele><time>2026-04-12T10:04:59.023Z</time></trkpt><trkpt lat="53.468794117113205" lon="14.786683060842702"><ele>14.0</ele><time>2026-04-12T10:05:00.023Z</time></trkpt><trkpt lat="53.46893443593198" lon="14.786736017373547"><ele>14.0</ele><time>2026-04-12T10:05:01.023Z</time></trkpt><trkpt lat="53.46910256045233" lon="14.786779725852975"><ele>14.25</ele><time>2026-04-12T10:05:02.023Z</time></trkpt><trkpt lat="53.4692379061769" lon="14.786827549817648"><ele>14.5</ele><time>2026-04-12T10:05:03.023Z</time></trkpt><trkpt lat="53.46937307034208" lon="14.786870908721378"><ele>14.75</ele><time>2026-04-12T10:05:04.023Z</time></trkpt><trkpt lat="53.46952034142202" lon="14.786915470331017"><ele>15.0</ele><time>2026-04-12T10:05:05.023Z</time></trkpt><trkpt lat="53.469668881393495" lon="14.786979811540022"><ele>15.333333333333332</ele><time>2026-04-12T10:05:06.023Z</time></trkpt><trkpt lat="53.469810950638816" lon="14.787043931020985"><ele>15.666666666666666</ele><time>2026-04-12T10:05:07.023Z</time></trkpt><trkpt lat="53.469971804748894" lon="14.78710594047918"><ele>16.0</ele><time>2026-04-12T10:05:08.023Z</time></trkpt><trkpt lat="53.47014121323406" lon="14.78716601336955"><ele>16.0</ele><time>2026-04-12T10:05:09.023Z</time></trkpt><trkpt lat="53.470319443044765" lon="14.787237748768126"><ele>16.0</ele><time>2026-04-12T10:05:10.023Z</time></trkpt><trkpt lat="53.47049152372832" lon="14.787305375250787"><ele>16.0</ele><time>2026-04-12T10:05:11.023Z</time></trkpt><trkpt lat="53.47064042883844" lon="14.787366739655555"><ele>16.0</ele><time>2026-04-12T10:05:12.023Z</time></trkpt><trkpt lat="53.47078756174762" lon="14.787405076061672"><ele>16.0</ele><time>2026-04-12T10:05:13.023Z</time></trkpt><trkpt lat="53.47091874334409" lon="14.787448301669725"><ele>16.0</ele><time>2026-04-12T10:05:14.023Z</time></trkpt><trkpt lat="53.471055883194815" lon="14.787502408156055"><ele>16.0</ele><time>2026-04-12T10:05:15.023Z</time></trkpt><trkpt lat="53.4712051704131" lon="14.787562242778122"><ele>16.0</ele><time>2026-04-12T10:05:16.023Z</time></trkpt><trkpt lat="53.47136032268281" lon="14.787626822613422"><ele>16.0</ele><time>2026-04-12T10:05:17.023Z</time></trkpt><trkpt lat="53.471532865350866" lon="14.787687452745729"><ele>16.0</ele><time>2026-04-12T10:05:18.023Z</time></trkpt><trkpt lat="53.471713454174605" lon="14.7877497741908"><ele>16.0</ele><time>2026-04-12T10:05:19.023Z</time></trkpt><trkpt lat="53.47188139382859" lon="14.787799291707795"><ele>16.0</ele><time>2026-04-12T10:05:20.023Z</time></trkpt><trkpt lat="53.472020072587824" lon="14.787857084042159"><ele>16.0</ele><time>2026-04-12T10:05:21.023Z</time></trkpt><trkpt lat="53.47215034990821" lon="14.787894124126673"><ele>16.0</ele><time>2026-04-12T10:05:22.023Z</time></trkpt><trkpt lat="53.47226849272744" lon="14.787939679251235"><ele>15.8</ele><time>2026-04-12T10:05:23.023Z</time></trkpt><trkpt lat="53.47237196104895" lon="14.78798017244203"><ele>15.600000000000001</ele><time>2026-04-12T10:05:24.023Z</time></trkpt><trkpt lat="53.47248177641566" lon="14.788020045996646"><ele>15.4</ele><time>2026-04-12T10:05:25.023Z</time></trkpt><trkpt lat="53.472594276356155" lon="14.788056947518173"><ele>15.2</ele><time>2026-04-12T10:05:26.023Z</time></trkpt><trkpt lat="53.47270005878829" lon="14.788098816965599"><ele>15.0</ele><time>2026-04-12T10:05:27.023Z</time></trkpt><trkpt lat="53.47280320757282" lon="14.78814314174476"><ele>15.0</ele><time>2026-04-12T10:05:28.023Z</time></trkpt><trkpt lat="53.47289255248537" lon="14.788181519246656"><ele>15.0</ele><time>2026-04-12T10:05:29.023Z</time></trkpt><trkpt lat="53.472997190898234" lon="14.788226337563488"><ele>15.0</ele><time>2026-04-12T10:05:30.023Z</time></trkpt><trkpt lat="53.47310438884103" lon="14.788258801967647"><ele>15.0</ele><time>2026-04-12T10:05:31.023Z</time></trkpt><trkpt lat="53.47321285698621" lon="14.788296058126562"><ele>15.0</ele><time>2026-04-12T10:05:32.023Z</time></trkpt><trkpt lat="53.473313827013385" lon="14.788339622223038"><ele>15.4</ele><time>2026-04-12T10:05:33.023Z</time></trkpt><trkpt lat="53.473411550480854" lon="14.788376405605309"><ele>15.8</ele><time>2026-04-12T10:05:34.023Z</time></trkpt><trkpt lat="53.47350923513407" lon="14.788398377173545"><ele>16.2</ele><time>2026-04-12T10:05:35.023Z</time></trkpt><trkpt lat="53.4736157291428" lon="14.78843253143741"><ele>16.6</ele><time>2026-04-12T10:05:36.023Z</time></trkpt><trkpt lat="53.47373055723465" lon="14.78846909883534"><ele>17.0</ele><time>2026-04-12T10:05:37.023Z</time></trkpt><trkpt lat="53.473851801453044" lon="14.788511213003167"><ele>15.75</ele><time>2026-04-12T10:05:38.023Z</time></trkpt><trkpt lat="53.47399247342493" lon="14.788561037252402"><ele>14.5</ele><time>2026-04-12T10:05:39.023Z</time></trkpt><trkpt lat="53.47412846208801" lon="14.788620805439095"><ele>13.25</ele><time>2026-04-12T10:05:40.023Z</time></trkpt><trkpt lat="53.47428734856422" lon="14.788662150566518"><ele>12.0</ele><time>2026-04-12T10:05:41.023Z</time></trkpt><trkpt lat="53.47442886602061" lon="14.788714845567474"><ele>12.0</ele><time>2026-04-12T10:05:42.023Z</time></trkpt><trkpt lat="53.47456113932511" lon="14.788761893171605"><ele>12.0</ele><time>2026-04-12T10:05:43.023Z</time></trkpt><trkpt lat="53.474682657588424" lon="14.788807619286704"><ele>12.0</ele><time>2026-04-12T10:05:44.023Z</time></trkpt><trkpt lat="53.47479998686536" lon="14.788845026452709"><ele>12.0</ele><time>2026-04-12T10:05:45.023Z</time></trkpt><trkpt lat="53.47491533717363" lon="14.788894812416807"><ele>12.6</ele><time>2026-04-12T10:05:46.023Z</time></trkpt><trkpt lat="53.47503662067484" lon="14.788942609600852"><ele>13.2</ele><time>2026-04-12T10:05:47.023Z</time></trkpt><trkpt lat="53.47513655016848" lon="14.788989356747472"><ele>13.8</ele><time>2026-04-12T10:05:48.023Z</time></trkpt><trkpt lat="53.475242918055535" lon="14.789034979258085"><ele>14.4</ele><time>2026-04-12T10:05:49.023Z</time></trkpt><trkpt lat="53.47531745490743" lon="14.789064830979381"><ele>15.0</ele><time>2026-04-12T10:05:50.023Z</time></trkpt><trkpt lat="53.47539522414918" lon="14.789096564247894"><ele>15.6</ele><time>2026-04-12T10:05:51.023Z</time></trkpt><trkpt lat="53.47546613759932" lon="14.789139531758304"><ele>16.2</ele><time>2026-04-12T10:05:52.023Z</time></trkpt><trkpt lat="53.4755618553754" lon="14.789179821074386"><ele>16.8</ele><time>2026-04-12T10:05:53.023Z</time></trkpt><trkpt lat="53.47566855137228" lon="14.789223567651458"><ele>17.4</ele><time>2026-04-12T10:05:54.023Z</time></trkpt><trkpt lat="53.475798927480696" lon="14.789276549298256"><ele>18.0</ele><time>2026-04-12T10:05:55.024Z</time></trkpt><trkpt lat="53.47592557877333" lon="14.789327927513318"><ele>17.75</ele><time>2026-04-12T10:05:56.024Z</time></trkpt><trkpt lat="53.476047625537404" lon="14.789368803313536"><ele>17.5</ele><time>2026-04-12T10:05:57.024Z</time></trkpt><trkpt lat="53.476174286212164" lon="14.78941260956879"><ele>17.25</ele><time>2026-04-12T10:05:58.024Z</time></trkpt><trkpt lat="53.476294220643744" lon="14.78944977225142"><ele>17.0</ele><time>2026-04-12T10:05:59.024Z</time></trkpt><trkpt lat="53.47642240783057" lon="14.789496969548038"><ele>17.0</ele><time>2026-04-12T10:06:00.024Z</time></trkpt><trkpt lat="53.47654998950847" lon="14.789550804370416"><ele>17.0</ele><time>2026-04-12T10:06:01.024Z</time></trkpt><trkpt lat="53.47666607870725" lon="14.789601090318252"><ele>17.0</ele><time>2026-04-12T10:06:02.024Z</time></trkpt><trkpt lat="53.47676867968039" lon="14.789637382569236"><ele>17.0</ele><time>2026-04-12T10:06:03.024Z</time></trkpt><trkpt lat="53.4768636373008" lon="14.78967625968763"><ele>17.0</ele><time>2026-04-12T10:06:04.024Z</time></trkpt><trkpt lat="53.47697429223013" lon="14.789705036023204"><ele>17.0</ele><time>2026-04-12T10:06:05.024Z</time></trkpt><trkpt lat="53.477085502765924" lon="14.789753768673808"><ele>17.0</ele><time>2026-04-12T10:06:06.024Z</time></trkpt><trkpt lat="53.47719206111964" lon="14.789810352145482"><ele>17.0</ele><time>2026-04-12T10:06:07.024Z</time></trkpt><trkpt lat="53.477291641823186" lon="14.78983996276675"><ele>17.0</ele><time>2026-04-12T10:06:08.024Z</time></trkpt><trkpt lat="53.47741439176372" lon="14.789902334571309"><ele>17.0</ele><time>2026-04-12T10:06:10.024Z</time></trkpt><trkpt lat="53.47749940572271" lon="14.78992711292879"><ele>17.0</ele><time>2026-04-12T10:06:11.024Z</time></trkpt><trkpt lat="53.477578111144574" lon="14.789950784122725"><ele>17.0</ele><time>2026-04-12T10:06:12.024Z</time></trkpt><trkpt lat="53.47766910581468" lon="14.789997880434614"><ele>17.0</ele><time>2026-04-12T10:06:13.024Z</time></trkpt><trkpt lat="53.47777066928438" lon="14.790037247137152"><ele>17.0</ele><time>2026-04-12T10:06:14.024Z</time></trkpt><trkpt lat="53.4778736995734" lon="14.79006901756548"><ele>17.0</ele><time>2026-04-12T10:06:15.024Z</time></trkpt><trkpt lat="53.477976583993055" lon="14.790108410088905"><ele>17.0</ele><time>2026-04-12T10:06:16.024Z</time></trkpt><trkpt lat="53.47808519312348" lon="14.79015349391361"><ele>17.0</ele><time>2026-04-12T10:06:17.024Z</time></trkpt><trkpt lat="53.47819690583297" lon="14.790187260938353"><ele>17.0</ele><time>2026-04-12T10:06:18.024Z</time></trkpt><trkpt lat="53.47828641911114" lon="14.790212431799585"><ele>17.0</ele><time>2026-04-12T10:06:19.024Z</time></trkpt><trkpt lat="53.47836977569784" lon="14.790242313998075"><ele>17.2</ele><time>2026-04-12T10:06:20.024Z</time></trkpt><trkpt lat="53.47845210371522" lon="14.790274971058736"><ele>17.4</ele><time>2026-04-12T10:06:21.024Z</time></trkpt><trkpt lat="53.47854281284498" lon="14.790310135967728"><ele>17.6</ele><time>2026-04-12T10:06:22.024Z</time></trkpt><trkpt lat="53.47863890886134" lon="14.790355684192308"><ele>17.8</ele><time>2026-04-12T10:06:23.024Z</time></trkpt><trkpt lat="53.47874630764449" lon="14.790394371200684"><ele>18.0</ele><time>2026-04-12T10:06:24.024Z</time></trkpt><trkpt lat="53.47886908128189" lon="14.790431283781144"><ele>17.5</ele><time>2026-04-12T10:06:25.023Z</time></trkpt><trkpt lat="53.4789750798007" lon="14.790472143761834"><ele>17.0</ele><time>2026-04-12T10:06:26.022Z</time></trkpt><trkpt lat="53.47908805871832" lon="14.790511484488253"><ele>16.5</ele><time>2026-04-12T10:06:27.022Z</time></trkpt><trkpt lat="53.47920723184354" lon="14.790552180436915"><ele>16.0</ele><time>2026-04-12T10:06:28.023Z</time></trkpt><trkpt lat="53.479332942110204" lon="14.790589215579942"><ele>16.0</ele><time>2026-04-12T10:06:29.022Z</time></trkpt><trkpt lat="53.47945257081464" lon="14.79062873483392"><ele>16.0</ele><time>2026-04-12T10:06:30.022Z</time></trkpt><trkpt lat="53.47955253693398" lon="14.790667518903632"><ele>16.0</ele><time>2026-04-12T10:06:31.022Z</time></trkpt><trkpt lat="53.47965068184426" lon="14.790691265744773"><ele>16.0</ele><time>2026-04-12T10:06:32.022Z</time></trkpt><trkpt lat="53.47973688732743" lon="14.790714002586444"><ele>16.0</ele><time>2026-04-12T10:06:33.022Z</time></trkpt><trkpt lat="53.47985279053561" lon="14.790748476125358"><ele>15.600000000000001</ele><time>2026-04-12T10:06:34.022Z</time></trkpt><trkpt lat="53.479972672440546" lon="14.790787014821916"><ele>15.200000000000001</ele><time>2026-04-12T10:06:35.022Z</time></trkpt><trkpt lat="53.48006958585371" lon="14.79082628722085"><ele>14.799999999999999</ele><time>2026-04-12T10:06:36.022Z</time></trkpt><trkpt lat="53.480170970139255" lon="14.790858940983378"><ele>14.399999999999999</ele><time>2026-04-12T10:06:37.022Z</time></trkpt><trkpt lat="53.48027114425981" lon="14.790890503220822"><ele>14.0</ele><time>2026-04-12T10:06:38.022Z</time></trkpt><trkpt lat="53.48037410078133" lon="14.790925981219143"><ele>14.399999999999999</ele><time>2026-04-12T10:06:39.022Z</time></trkpt><trkpt lat="53.48048628878874" lon="14.79097021319408"><ele>14.799999999999999</ele><time>2026-04-12T10:06:40.022Z</time></trkpt><trkpt lat="53.48057422805914" lon="14.791005975821014"><ele>15.200000000000001</ele><time>2026-04-12T10:06:41.022Z</time></trkpt><trkpt lat="53.48067173205836" lon="14.79104220367421"><ele>15.600000000000001</ele><time>2026-04-12T10:06:42.022Z</time></trkpt><trkpt lat="53.48076855609508" lon="14.79106822357489"><ele>16.0</ele><time>2026-04-12T10:06:43.022Z</time></trkpt><trkpt lat="53.48086458853874" lon="14.791100007454991"><ele>15.600000000000001</ele><time>2026-04-12T10:06:44.022Z</time></trkpt><trkpt lat="53.48095574054455" lon="14.791137323479335"><ele>15.200000000000001</ele><time>2026-04-12T10:06:45.022Z</time></trkpt><trkpt lat="53.48105233519561" lon="14.791171486966704"><ele>14.799999999999999</ele><time>2026-04-12T10:06:46.022Z</time></trkpt><trkpt lat="53.48116673773595" lon="14.791212524724447"><ele>14.399999999999999</ele><time>2026-04-12T10:06:47.022Z</time></trkpt><trkpt lat="53.48125720120344" lon="14.791254218587932"><ele>14.0</ele><time>2026-04-12T10:06:48.023Z</time></trkpt><trkpt lat="53.48135091719722" lon="14.791282682654947"><ele>14.0</ele><time>2026-04-12T10:06:49.023Z</time></trkpt><trkpt lat="53.48144418612204" lon="14.79131660786512"><ele>13.999999999999998</ele><time>2026-04-12T10:06:50.023Z</time></trkpt><trkpt lat="53.48152643979514" lon="14.791354386814756"><ele>13.999999999999998</ele><time>2026-04-12T10:06:51.023Z</time></trkpt><trkpt lat="53.4816317368136" lon="14.791384757147219"><ele>14.0</ele><time>2026-04-12T10:06:52.023Z</time></trkpt><trkpt lat="53.48171620562028" lon="14.791430532178067"><ele>14.0</ele><time>2026-04-12T10:06:53.023Z</time></trkpt><trkpt lat="53.48182103488587" lon="14.791468100664307"><ele>14.0</ele><time>2026-04-12T10:06:54.023Z</time></trkpt><trkpt lat="53.48191218721003" lon="14.79152203429163"><ele>13.999999999999998</ele><time>2026-04-12T10:06:55.023Z</time></trkpt><trkpt lat="53.482007643927595" lon="14.791552100793464"><ele>13.999999999999998</ele><time>2026-04-12T10:06:56.023Z</time></trkpt><trkpt lat="53.48210284803537" lon="14.791579020561914"><ele>14.0</ele><time>2026-04-12T10:06:57.023Z</time></trkpt><trkpt lat="53.48218858017361" lon="14.791608125283734"><ele>14.0</ele><time>2026-04-12T10:06:58.023Z</time></trkpt><trkpt lat="53.48228542694213" lon="14.79165367412989"><ele>14.399999999999999</ele><time>2026-04-12T10:06:59.023Z</time></trkpt><trkpt lat="53.4823739030456" lon="14.791693564889789"><ele>14.799999999999999</ele><time>2026-04-12T10:07:00.023Z</time></trkpt><trkpt lat="53.48246802227904" lon="14.791726410466323"><ele>15.200000000000001</ele><time>2026-04-12T10:07:01.023Z</time></trkpt><trkpt lat="53.482546798570496" lon="14.791747949274624"><ele>15.600000000000001</ele><time>2026-04-12T10:07:02.023Z</time></trkpt><trkpt lat="53.4826276431013" lon="14.791784423286602"><ele>16.0</ele><time>2026-04-12T10:07:03.023Z</time></trkpt><trkpt lat="53.482727688589286" lon="14.79181650272632"><ele>15.8</ele><time>2026-04-12T10:07:04.023Z</time></trkpt><trkpt lat="53.482836603237" lon="14.791849435805014"><ele>15.600000000000001</ele><time>2026-04-12T10:07:05.023Z</time></trkpt><trkpt lat="53.48292232460359" lon="14.79188093039873"><ele>15.4</ele><time>2026-04-12T10:07:06.023Z</time></trkpt><trkpt lat="53.483003424599566" lon="14.791906382202288"><ele>15.2</ele><time>2026-04-12T10:07:07.023Z</time></trkpt><trkpt lat="53.483087864720005" lon="14.79193361166275"><ele>15.0</ele><time>2026-04-12T10:07:08.023Z</time></trkpt><trkpt lat="53.48319524641605" lon="14.791973246390283"><ele>15.0</ele><time>2026-04-12T10:07:09.023Z</time></trkpt><trkpt lat="53.483320910298275" lon="14.79202171965534"><ele>15.0</ele><time>2026-04-12T10:07:10.023Z</time></trkpt><trkpt lat="53.48341403206964" lon="14.792049650753626"><ele>15.0</ele><time>2026-04-12T10:07:11.023Z</time></trkpt><trkpt lat="53.48349936969137" lon="14.79208822513126"><ele>15.0</ele><time>2026-04-12T10:07:12.023Z</time></trkpt><trkpt lat="53.48357145455309" lon="14.792124855711823"><ele>15.0</ele><time>2026-04-12T10:07:13.023Z</time></trkpt><trkpt lat="53.483659693313854" lon="14.792157522880478"><ele>15.0</ele><time>2026-04-12T10:07:14.023Z</time></trkpt><trkpt lat="53.483734424500426" lon="14.792178924047715"><ele>15.0</ele><time>2026-04-12T10:07:15.023Z</time></trkpt><trkpt lat="53.48381631907557" lon="14.792203251777417"><ele>15.0</ele><time>2026-04-12T10:07:16.023Z</time></trkpt><trkpt lat="53.483905333125485" lon="14.792237251033646"><ele>15.0</ele><time>2026-04-12T10:07:17.023Z</time></trkpt><trkpt lat="53.48401572751043" lon="14.79228432480785"><ele>15.0</ele><time>2026-04-12T10:07:18.023Z</time></trkpt><trkpt lat="53.48410338561418" lon="14.792325278299973"><ele>15.4</ele><time>2026-04-12T10:07:19.023Z</time></trkpt><trkpt lat="53.484195447726634" lon="14.792355941294002"><ele>15.8</ele><time>2026-04-12T10:07:20.023Z</time></trkpt><trkpt lat="53.48429808494199" lon="14.792393075366999"><ele>16.2</ele><time>2026-04-12T10:07:21.023Z</time></trkpt><trkpt lat="53.48438880689947" lon="14.792427383473779"><ele>16.6</ele><time>2026-04-12T10:07:22.023Z</time></trkpt><trkpt lat="53.48448517720855" lon="14.792453568629877"><ele>17.0</ele><time>2026-04-12T10:07:23.023Z</time></trkpt><trkpt lat="53.48457590409958" lon="14.792483194546632"><ele>16.833333333333336</ele><time>2026-04-12T10:07:24.023Z</time></trkpt><trkpt lat="53.4846499507133" lon="14.792510740130718"><ele>16.666666666666668</ele><time>2026-04-12T10:07:25.023Z</time></trkpt><trkpt lat="53.484724276793884" lon="14.792535695648443"><ele>16.5</ele><time>2026-04-12T10:07:26.023Z</time></trkpt><trkpt lat="53.484837961840064" lon="14.79257735929851"><ele>16.333333333333332</ele><time>2026-04-12T10:07:28.023Z</time></trkpt><trkpt lat="53.48492024563711" lon="14.792611346765392"><ele>16.166666666666664</ele><time>2026-04-12T10:07:30.023Z</time></trkpt><trkpt lat="53.48498747151928" lon="14.792605264986562"><ele>16.0</ele><time>2026-04-12T10:08:19.024Z</time></trkpt><trkpt lat="53.48513243068906" lon="14.79264028570251"><ele>15.600000000000001</ele><time>2026-04-12T10:22:27.03Z</time></trkpt><trkpt lat="53.4852247889369" lon="14.792702000417746"><ele>15.200000000000001</ele><time>2026-04-12T10:22:31.03Z</time></trkpt><trkpt lat="53.48533021313551" lon="14.792738089593547"><ele>14.799999999999999</ele><time>2026-04-12T10:22:33.03Z</time></trkpt><trkpt lat="53.485445677213825" lon="14.792771815072754"><ele>14.399999999999999</ele><time>2026-04-12T10:22:35.03Z</time></trkpt><trkpt lat="53.48552858200085" lon="14.792805551520624"><ele>14.0</ele><time>2026-04-12T10:22:36.03Z</time></trkpt><trkpt lat="53.485614215620636" lon="14.792835127902729"><ele>14.000000000000002</ele><time>2026-04-12T10:22:37.03Z</time></trkpt><trkpt lat="53.48570870028448" lon="14.792867343411865"><ele>14.0</ele><time>2026-04-12T10:22:38.03Z</time></trkpt><trkpt lat="53.48578807381932" lon="14.792900471290274"><ele>14.0</ele><time>2026-04-12T10:22:39.03Z</time></trkpt><trkpt lat="53.485875277057076" lon="14.792939004868277"><ele>14.0</ele><time>2026-04-12T10:22:40.03Z</time></trkpt><trkpt lat="53.48595133457099" lon="14.792963436677287"><ele>14.000000000000002</ele><time>2026-04-12T10:22:41.03Z</time></trkpt><trkpt lat="53.48602729398745" lon="14.792991528396506"><ele>14.0</ele><time>2026-04-12T10:22:42.03Z</time></trkpt><trkpt lat="53.48611676345775" lon="14.79301690530576"><ele>14.0</ele><time>2026-04-12T10:22:43.03Z</time></trkpt><trkpt lat="53.48619667330696" lon="14.793036747139208"><ele>13.999999999999998</ele><time>2026-04-12T10:22:44.03Z</time></trkpt><trkpt lat="53.48628493900869" lon="14.793070398304145"><ele>13.999999999999998</ele><time>2026-04-12T10:22:45.03Z</time></trkpt><trkpt lat="53.486373118071825" lon="14.793100702721695"><ele>14.0</ele><time>2026-04-12T10:22:46.03Z</time></trkpt><trkpt lat="53.48647527601189" lon="14.79314206435706"><ele>14.0</ele><time>2026-04-12T10:22:47.03Z</time></trkpt><trkpt lat="53.48656769129125" lon="14.793170080541996"><ele>14.2</ele><time>2026-04-12T10:22:48.03Z</time></trkpt><trkpt lat="53.48665668749918" lon="14.793210698633661"><ele>14.399999999999999</ele><time>2026-04-12T10:22:49.03Z</time></trkpt><trkpt lat="53.486771365993604" lon="14.793248585955"><ele>14.6</ele><time>2026-04-12T10:22:50.03Z</time></trkpt><trkpt lat="53.4868701928975" lon="14.79327849761679"><ele>14.8</ele><time>2026-04-12T10:22:51.03Z</time></trkpt><trkpt lat="53.48697335963196" lon="14.793326880681512"><ele>15.0</ele><time>2026-04-12T10:22:52.03Z</time></trkpt><trkpt lat="53.48707416948454" lon="14.793366166975781"><ele>15.0</ele><time>2026-04-12T10:22:53.03Z</time></trkpt><trkpt lat="53.487149460209885" lon="14.793405441684051"><ele>15.0</ele><time>2026-04-12T10:22:54.03Z</time></trkpt><trkpt lat="53.48725424430275" lon="14.793448038630872"><ele>15.0</ele><time>2026-04-12T10:22:55.03Z</time></trkpt><trkpt lat="53.487360274113314" lon="14.793477648431926"><ele>15.0</ele><time>2026-04-12T10:22:56.03Z</time></trkpt><trkpt lat="53.4874379251485" lon="14.793509788832136"><ele>15.0</ele><time>2026-04-12T10:22:57.03Z</time></trkpt><trkpt lat="53.48750490215416" lon="14.793536306313216"><ele>15.0</ele><time>2026-04-12T10:22:58.03Z</time></trkpt><trkpt lat="53.487598536269125" lon="14.793538732723743"><ele>15.0</ele><time>2026-04-12T10:23:00.03Z</time></trkpt><trkpt lat="53.48766749159801" lon="14.79350815755923"><ele>15.0</ele><time>2026-04-12T10:23:02.03Z</time></trkpt><trkpt lat="53.48774098937013" lon="14.793504076586999"><ele>15.0</ele><time>2026-04-12T10:23:04.03Z</time></trkpt><trkpt lat="53.48780560259721" lon="14.793557117811279"><ele>15.0</ele><time>2026-04-12T10:23:08.03Z</time></trkpt><trkpt lat="53.48787724347661" lon="14.793587503010794"><ele>15.0</ele><time>2026-04-12T10:23:10.03Z</time></trkpt><trkpt lat="53.48798157511175" lon="14.793612501157988"><ele>15.0</ele><time>2026-04-12T10:23:12.03Z</time></trkpt><trkpt lat="53.488058319570094" lon="14.793617821921789"><ele>14.8</ele><time>2026-04-12T10:23:14.03Z</time></trkpt><trkpt lat="53.48815871390787" lon="14.793655258266453"><ele>14.6</ele><time>2026-04-12T10:23:16.03Z</time></trkpt><trkpt lat="53.48823145302778" lon="14.793683361029702"><ele>14.399999999999999</ele><time>2026-04-12T10:23:17.03Z</time></trkpt><trkpt lat="53.488300243292855" lon="14.793709912787683"><ele>14.2</ele><time>2026-04-12T10:23:18.03Z</time></trkpt><trkpt lat="53.48841136399402" lon="14.793753387428525"><ele>14.0</ele><time>2026-04-12T10:23:20.029Z</time></trkpt><trkpt lat="53.4885194416574" lon="14.793807291748335"><ele>14.000000000000002</ele><time>2026-04-12T10:23:22.03Z</time></trkpt><trkpt lat="53.48860025321638" lon="14.793850334222787"><ele>14.0</ele><time>2026-04-12T10:23:24.03Z</time></trkpt><trkpt lat="53.48870871095437" lon="14.793889745517095"><ele>14.0</ele><time>2026-04-12T10:23:26.03Z</time></trkpt><trkpt lat="53.48880683655931" lon="14.793921641238615"><ele>14.0</ele><time>2026-04-12T10:23:28.03Z</time></trkpt><trkpt lat="53.48887760635536" lon="14.793950229367772"><ele>14.000000000000002</ele><time>2026-04-12T10:23:29.03Z</time></trkpt><trkpt lat="53.488947220632184" lon="14.793969453003884"><ele>14.0</ele><time>2026-04-12T10:23:30.03Z</time></trkpt><trkpt lat="53.489012203457264" lon="14.793997504263068"><ele>14.0</ele><time>2026-04-12T10:23:31.03Z</time></trkpt><trkpt lat="53.489096787306615" lon="14.794034123694749"><ele>13.999999999999998</ele><time>2026-04-12T10:23:33.03Z</time></trkpt><trkpt lat="53.48921061377166" lon="14.794078684453645"><ele>13.999999999999998</ele><time>2026-04-12T10:23:35.03Z</time></trkpt><trkpt lat="53.48930528947588" lon="14.794124825359988"><ele>14.0</ele><time>2026-04-12T10:23:37.03Z</time></trkpt><trkpt lat="53.48942613557657" lon="14.794167107682119"><ele>14.0</ele><time>2026-04-12T10:23:39.03Z</time></trkpt><trkpt lat="53.48949946658374" lon="14.794192224333056"><ele>14.000000000000002</ele><time>2026-04-12T10:23:41.03Z</time></trkpt><trkpt lat="53.489634642144416" lon="14.794240232333896"><ele>14.0</ele><time>2026-04-12T10:23:43.03Z</time></trkpt><trkpt lat="53.48972992700926" lon="14.794250238882245"><ele>14.0</ele><time>2026-04-12T10:23:45.03Z</time></trkpt><trkpt lat="53.48978828881878" lon="14.794210354432087"><ele>14.0</ele><time>2026-04-12T10:23:47.03Z</time></trkpt><trkpt lat="53.489825991849" lon="14.794106072208573"><ele>14.000000000000002</ele><time>2026-04-12T10:23:50.03Z</time></trkpt><trkpt lat="53.48983981545388" lon="14.793983543413807"><ele>14.0</ele><time>2026-04-12T10:23:52.03Z</time></trkpt><trkpt lat="53.48989664600566" lon="14.793918260556703"><ele>14.000000000000002</ele><time>2026-04-12T10:23:54.03Z</time></trkpt><trkpt lat="53.48997623595989" lon="14.793899276582664"><ele>14.0</ele><time>2026-04-12T10:23:55.03Z</time></trkpt><trkpt lat="53.49004774248167" lon="14.793886339421215"><ele>14.0</ele><time>2026-04-12T10:23:56.03Z</time></trkpt><trkpt lat="53.49011640949678" lon="14.79385403636224"><ele>14.0</ele><time>2026-04-12T10:23:57.03Z</time></trkpt><trkpt lat="53.490181401267016" lon="14.793804439016695"><ele>14.000000000000002</ele><time>2026-04-12T10:23:59.03Z</time></trkpt><trkpt lat="53.49021893355566" lon="14.793684472262957"><ele>14.0</ele><time>2026-04-12T10:24:02.03Z</time></trkpt><trkpt lat="53.49029171690902" lon="14.793602463151277"><ele>14.0</ele><time>2026-04-12T10:28:47.93Z</time></trkpt><trkpt lat="53.49038689305626" lon="14.793560540171306"><ele>13.999999999999998</ele><time>2026-04-12T10:28:49.93Z</time></trkpt><trkpt lat="53.490479859371696" lon="14.793539028350562"><ele>13.999999999999998</ele><time>2026-04-12T10:28:50.93Z</time></trkpt><trkpt lat="53.49057729235621" lon="14.793509712743125"><ele>14.0</ele><time>2026-04-12T10:28:51.93Z</time></trkpt><trkpt lat="53.49067770235456" lon="14.79347868285718"><ele>14.0</ele><time>2026-04-12T10:28:52.93Z</time></trkpt><trkpt lat="53.490761750734" lon="14.793440657800875"><ele>13.714285714285714</ele><time>2026-04-12T10:28:53.93Z</time></trkpt><trkpt lat="53.49082771782697" lon="14.79341859047808"><ele>13.428571428571429</ele><time>2026-04-12T10:28:54.93Z</time></trkpt><trkpt lat="53.49090051589712" lon="14.793398804141656"><ele>13.142857142857142</ele><time>2026-04-12T10:28:55.93Z</time></trkpt><trkpt lat="53.490970992341715" lon="14.793384396061688"><ele>12.857142857142858</ele><time>2026-04-12T10:28:56.93Z</time></trkpt><trkpt lat="53.49103928029291" lon="14.79336076807298"><ele>12.571428571428571</ele><time>2026-04-12T10:28:57.93Z</time></trkpt><trkpt lat="53.49110636992373" lon="14.793331414917489"><ele>12.285714285714285</ele><time>2026-04-12T10:28:58.93Z</time></trkpt><trkpt lat="53.491201361612184" lon="14.793309414877797"><ele>12.0</ele><time>2026-04-12T10:29:00.93Z</time></trkpt><trkpt lat="53.491276877951755" lon="14.79332780863218"><ele>11.833333333333334</ele><time>2026-04-12T10:29:02.93Z</time></trkpt><trkpt lat="53.49132744919444" lon="14.793405510400492"><ele>11.666666666666666</ele><time>2026-04-12T10:29:04.93Z</time></trkpt><trkpt lat="53.49136679894711" lon="14.79349458714042"><ele>11.5</ele><time>2026-04-12T10:29:06.93Z</time></trkpt><trkpt lat="53.49138576789206" lon="14.793677330688475"><ele>11.333333333333332</ele><time>2026-04-12T10:29:08.93Z</time></trkpt><trkpt lat="53.49136803402872" lon="14.793819501262789"><ele>11.166666666666666</ele><time>2026-04-12T10:29:09.93Z</time></trkpt><trkpt lat="53.49135881276014" lon="14.793938882174624"><ele>11.0</ele><time>2026-04-12T10:29:10.93Z</time></trkpt><trkpt lat="53.49134351795473" lon="14.794056842877724"><ele>10.600000000000001</ele><time>2026-04-12T10:29:11.93Z</time></trkpt><trkpt lat="53.49132353771458" lon="14.794236671704246"><ele>10.200000000000001</ele><time>2026-04-12T10:29:13.93Z</time></trkpt><trkpt lat="53.491306600023215" lon="14.794346534034567"><ele>9.8</ele><time>2026-04-12T10:29:14.93Z</time></trkpt><trkpt lat="53.4912835945443" lon="14.794547272505952"><ele>9.4</ele><time>2026-04-12T10:29:16.93Z</time></trkpt><trkpt lat="53.49130413090045" lon="14.794693069749956"><ele>9.0</ele><time>2026-04-12T10:29:18.93Z</time></trkpt><trkpt lat="53.491349381312574" lon="14.794821985718281"><ele>9.0</ele><time>2026-04-12T10:29:20.93Z</time></trkpt><trkpt lat="53.491419682801116" lon="14.794889943754292"><ele>9.0</ele><time>2026-04-12T10:29:22.93Z</time></trkpt><trkpt lat="53.49150288131668" lon="14.794919042581602"><ele>9.0</ele><time>2026-04-12T10:29:24.93Z</time></trkpt><trkpt lat="53.4915659776954" lon="14.79495172922468"><ele>9.0</ele><time>2026-04-12T10:29:25.93Z</time></trkpt><trkpt lat="53.491688904947935" lon="14.795003135007232"><ele>9.0</ele><time>2026-04-12T10:29:27.93Z</time></trkpt><trkpt lat="53.49177530298771" lon="14.795023169297348"><ele>9.0</ele><time>2026-04-12T10:29:29.929Z</time></trkpt><trkpt lat="53.49187825506363" lon="14.79508110371669"><ele>9.0</ele><time>2026-04-12T10:29:31.93Z</time></trkpt><trkpt lat="53.491995349280145" lon="14.79513110766942"><ele>9.0</ele><time>2026-04-12T10:29:33.929Z</time></trkpt><trkpt lat="53.49212673270502" lon="14.79516549673834"><ele>9.0</ele><time>2026-04-12T10:29:35.93Z</time></trkpt><trkpt lat="53.492226044439214" lon="14.795203304024852"><ele>9.0</ele><time>2026-04-12T10:29:36.929Z</time></trkpt><trkpt lat="53.49232544830006" lon="14.79525575142436"><ele>9.4</ele><time>2026-04-12T10:29:37.929Z</time></trkpt><trkpt lat="53.492443433822544" lon="14.795307355038405"><ele>9.8</ele><time>2026-04-12T10:29:38.93Z</time></trkpt><trkpt lat="53.492534536239276" lon="14.795335547191295"><ele>10.200000000000001</ele><time>2026-04-12T10:29:39.93Z</time></trkpt><trkpt lat="53.4926125508106" lon="14.79536143391994"><ele>10.600000000000001</ele><time>2026-04-12T10:29:40.93Z</time></trkpt><trkpt lat="53.49270939556743" lon="14.795399565762429"><ele>11.0</ele><time>2026-04-12T10:29:41.929Z</time></trkpt><trkpt lat="53.49280505167053" lon="14.795424475566671"><ele>11.0</ele><time>2026-04-12T10:29:42.929Z</time></trkpt><trkpt lat="53.49290734669985" lon="14.795458476544022"><ele>11.0</ele><time>2026-04-12T10:29:43.929Z</time></trkpt><trkpt lat="53.49300271490207" lon="14.795486485400334"><ele>11.0</ele><time>2026-04-12T10:29:44.929Z</time></trkpt><trkpt lat="53.49309686051642" lon="14.795489386820726"><ele>11.0</ele><time>2026-04-12T10:29:45.929Z</time></trkpt><trkpt lat="53.493201326014834" lon="14.79548777396818"><ele>11.0</ele><time>2026-04-12T10:29:46.929Z</time></trkpt><trkpt lat="53.49331557829635" lon="14.795486266485636"><ele>11.0</ele><time>2026-04-12T10:29:47.929Z</time></trkpt><trkpt lat="53.49341421555315" lon="14.795492597047073"><ele>11.0</ele><time>2026-04-12T10:29:48.929Z</time></trkpt><trkpt lat="53.493490317373414" lon="14.795497277990474"><ele>11.0</ele><time>2026-04-12T10:29:49.929Z</time></trkpt><trkpt lat="53.49358463427542" lon="14.795482688833799"><ele>11.0</ele><time>2026-04-12T10:29:50.929Z</time></trkpt><trkpt lat="53.49366158067554" lon="14.795411509951384"><ele>11.0</ele><time>2026-04-12T10:29:51.929Z</time></trkpt><trkpt lat="53.49377593732341" lon="14.79535138919067"><ele>11.200000000000001</ele><time>2026-04-12T10:29:53.929Z</time></trkpt><trkpt lat="53.49384292284866" lon="14.795372433571593"><ele>11.4</ele><time>2026-04-12T10:29:54.929Z</time></trkpt><trkpt lat="53.493931390593076" lon="14.795427857930955"><ele>11.6</ele><time>2026-04-12T10:29:55.929Z</time></trkpt><trkpt lat="53.49404436446049" lon="14.795507999332832"><ele>11.8</ele><time>2026-04-12T10:29:56.929Z</time></trkpt><trkpt lat="53.494136891814094" lon="14.795569685398933"><ele>12.0</ele><time>2026-04-12T10:29:57.929Z</time></trkpt><trkpt lat="53.4942379014315" lon="14.795594678443058"><ele>12.0</ele><time>2026-04-12T10:29:58.929Z</time></trkpt><trkpt lat="53.4943483769649" lon="14.795622611328366"><ele>12.0</ele><time>2026-04-12T10:29:59.929Z</time></trkpt><trkpt lat="53.494455080034015" lon="14.795673989267783"><ele>12.0</ele><time>2026-04-12T10:30:00.929Z</time></trkpt><trkpt lat="53.49455669996478" lon="14.795720119010186"><ele>12.0</ele><time>2026-04-12T10:30:01.929Z</time></trkpt><trkpt lat="53.494641173441316" lon="14.795746297239663"><ele>12.0</ele><time>2026-04-12T10:30:02.929Z</time></trkpt><trkpt lat="53.49473993632271" lon="14.79578343053278"><ele>12.8</ele><time>2026-04-12T10:30:03.929Z</time></trkpt><trkpt lat="53.494851350382554" lon="14.795833150871548"><ele>13.6</ele><time>2026-04-12T10:30:04.929Z</time></trkpt><trkpt lat="53.49496348919198" lon="14.795882042759498"><ele>14.400000000000002</ele><time>2026-04-12T10:30:05.929Z</time></trkpt><trkpt lat="53.495065867880314" lon="14.795914690753902"><ele>15.200000000000001</ele><time>2026-04-12T10:30:06.929Z</time></trkpt><trkpt lat="53.49516379666933" lon="14.795947539996364"><ele>16.0</ele><time>2026-04-12T10:30:07.929Z</time></trkpt><trkpt lat="53.49527239495935" lon="14.795984670102781"><ele>15.8</ele><time>2026-04-12T10:30:08.929Z</time></trkpt><trkpt lat="53.49536442161585" lon="14.796025534180188"><ele>15.600000000000001</ele><time>2026-04-12T10:30:09.929Z</time></trkpt><trkpt lat="53.49546188836638" lon="14.796070149101496"><ele>15.4</ele><time>2026-04-12T10:30:10.929Z</time></trkpt><trkpt lat="53.495564772684595" lon="14.79611756813306"><ele>15.2</ele><time>2026-04-12T10:30:11.929Z</time></trkpt><trkpt lat="53.49565931749732" lon="14.796174628688432"><ele>15.0</ele><time>2026-04-12T10:30:12.929Z</time></trkpt><trkpt lat="53.49577382700935" lon="14.796208492298335"><ele>14.75</ele><time>2026-04-12T10:30:13.929Z</time></trkpt><trkpt lat="53.49589154238091" lon="14.796226619080503"><ele>14.5</ele><time>2026-04-12T10:30:14.929Z</time></trkpt><trkpt lat="53.496007602205786" lon="14.796268609903109"><ele>14.25</ele><time>2026-04-12T10:30:15.929Z</time></trkpt><trkpt lat="53.49612001402948" lon="14.796314664911725"><ele>14.0</ele><time>2026-04-12T10:30:16.929Z</time></trkpt><trkpt lat="53.49623319695214" lon="14.79635471716424"><ele>14.2</ele><time>2026-04-12T10:30:17.929Z</time></trkpt><trkpt lat="53.49633800262104" lon="14.796395557565583"><ele>14.399999999999999</ele><time>2026-04-12T10:30:18.929Z</time></trkpt><trkpt lat="53.496432919921034" lon="14.79641925334635"><ele>14.6</ele><time>2026-04-12T10:30:19.929Z</time></trkpt><trkpt lat="53.49652160462039" lon="14.796455261204292"><ele>14.8</ele><time>2026-04-12T10:30:20.929Z</time></trkpt><trkpt lat="53.49661095756497" lon="14.796495540133995"><ele>15.0</ele><time>2026-04-12T10:30:21.929Z</time></trkpt><trkpt lat="53.49671850003594" lon="14.796536657116729"><ele>15.0</ele><time>2026-04-12T10:30:22.929Z</time></trkpt><trkpt lat="53.49681466359139" lon="14.79657822698728"><ele>15.0</ele><time>2026-04-12T10:30:23.929Z</time></trkpt><trkpt lat="53.49690235329113" lon="14.796615455754864"><ele>15.0</ele><time>2026-04-12T10:30:24.929Z</time></trkpt><trkpt lat="53.49701190276835" lon="14.796657897256505"><ele>15.0</ele><time>2026-04-12T10:30:25.929Z</time></trkpt><trkpt lat="53.49713734383015" lon="14.796709425857358"><ele>15.0</ele><time>2026-04-12T10:30:26.929Z</time></trkpt><trkpt lat="53.497250114317296" lon="14.796742948032282"><ele>15.166666666666666</ele><time>2026-04-12T10:30:27.929Z</time></trkpt><trkpt lat="53.497343644916825" lon="14.79677506441408"><ele>15.333333333333332</ele><time>2026-04-12T10:30:28.929Z</time></trkpt><trkpt lat="53.49743676840073" lon="14.796804216729354"><ele>15.5</ele><time>2026-04-12T10:30:29.929Z</time></trkpt><trkpt lat="53.49750131851553" lon="14.796817873672921"><ele>15.666666666666666</ele><time>2026-04-12T10:30:30.929Z</time></trkpt><trkpt lat="53.49757471544243" lon="14.796789598434994"><ele>15.833333333333332</ele><time>2026-04-12T10:30:31.929Z</time></trkpt><trkpt lat="53.497666302297745" lon="14.796720193226736"><ele>16.0</ele><time>2026-04-12T10:30:32.928Z</time></trkpt><trkpt lat="53.49777544683227" lon="14.796653429074599"><ele>16.0</ele><time>2026-04-12T10:30:33.928Z</time></trkpt><trkpt lat="53.49787861558634" lon="14.796603938313119"><ele>16.0</ele><time>2026-04-12T10:30:34.928Z</time></trkpt><trkpt lat="53.49799979734323" lon="14.79658326107263"><ele>16.0</ele><time>2026-04-12T10:30:35.928Z</time></trkpt><trkpt lat="53.49813069567827" lon="14.796553206218706"><ele>16.0</ele><time>2026-04-12T10:30:36.928Z</time></trkpt><trkpt lat="53.49825075280787" lon="14.796518569232521"><ele>15.75</ele><time>2026-04-12T10:30:37.928Z</time></trkpt><trkpt lat="53.4983790905701" lon="14.796479191870741"><ele>15.5</ele><time>2026-04-12T10:30:38.928Z</time></trkpt><trkpt lat="53.49849392693935" lon="14.796438662354724"><ele>15.25</ele><time>2026-04-12T10:30:39.928Z</time></trkpt><trkpt lat="53.49860904530166" lon="14.796392333357824"><ele>15.0</ele><time>2026-04-12T10:30:40.928Z</time></trkpt><trkpt lat="53.49871874428787" lon="14.796343534145503"><ele>14.75</ele><time>2026-04-12T10:30:41.928Z</time></trkpt><trkpt lat="53.49881825559994" lon="14.796295760945792"><ele>14.5</ele><time>2026-04-12T10:30:42.928Z</time></trkpt><trkpt lat="53.498938076337666" lon="14.79626694946546"><ele>14.25</ele><time>2026-04-12T10:30:43.928Z</time></trkpt><trkpt lat="53.49906079355414" lon="14.796224694018184"><ele>14.0</ele><time>2026-04-12T10:30:44.928Z</time></trkpt><trkpt lat="53.49918457092672" lon="14.796177721125636"><ele>14.0</ele><time>2026-04-12T10:30:45.928Z</time></trkpt><trkpt lat="53.49931054125399" lon="14.7961281660859"><ele>14.0</ele><time>2026-04-12T10:30:46.928Z</time></trkpt><trkpt lat="53.499434853755666" lon="14.796080503775249"><ele>14.0</ele><time>2026-04-12T10:30:47.928Z</time></trkpt><trkpt lat="53.49954725671027" lon="14.796049335037763"><ele>14.0</ele><time>2026-04-12T10:30:48.928Z</time></trkpt><trkpt lat="53.49967029105325" lon="14.796008284512702"><ele>14.25</ele><time>2026-04-12T10:30:49.928Z</time></trkpt><trkpt lat="53.499786167611106" lon="14.79595532493239"><ele>14.5</ele><time>2026-04-12T10:30:50.928Z</time></trkpt><trkpt lat="53.49990770763021" lon="14.795919233156818"><ele>14.75</ele><time>2026-04-12T10:30:51.928Z</time></trkpt><trkpt lat="53.50002357520211" lon="14.795898428376194"><ele>15.0</ele><time>2026-04-12T10:30:52.928Z</time></trkpt><trkpt lat="53.50013675108086" lon="14.795876347402652"><ele>15.0</ele><time>2026-04-12T10:30:53.928Z</time></trkpt><trkpt lat="53.50024055319391" lon="14.795824363178179"><ele>15.0</ele><time>2026-04-12T10:30:54.928Z</time></trkpt><trkpt lat="53.50036123695875" lon="14.795777450783513"><ele>15.0</ele><time>2026-04-12T10:30:55.928Z</time></trkpt><trkpt lat="53.50048376829364" lon="14.79573554820012"><ele>15.0</ele><time>2026-04-12T10:30:56.928Z</time></trkpt><trkpt lat="53.5006172749498" lon="14.795685610940724"><ele>14.5</ele><time>2026-04-12T10:30:57.928Z</time></trkpt><trkpt lat="53.500753985338754" lon="14.795642666907385"><ele>14.0</ele><time>2026-04-12T10:30:58.928Z</time></trkpt><trkpt lat="53.50087235513402" lon="14.795605826100394"><ele>13.5</ele><time>2026-04-12T10:30:59.928Z</time></trkpt><trkpt lat="53.50097696908037" lon="14.795579129181439"><ele>13.0</ele><time>2026-04-12T10:31:00.928Z</time></trkpt><trkpt lat="53.50108648301301" lon="14.795546555650672"><ele>13.0</ele><time>2026-04-12T10:31:01.928Z</time></trkpt><trkpt lat="53.501200398095605" lon="14.795507239234603"><ele>13.0</ele><time>2026-04-12T10:31:02.928Z</time></trkpt><trkpt lat="53.50132905389646" lon="14.795462067710947"><ele>13.0</ele><time>2026-04-12T10:31:03.928Z</time></trkpt><trkpt lat="53.50145235656011" lon="14.795418420614357"><ele>13.0</ele><time>2026-04-12T10:31:04.928Z</time></trkpt><trkpt lat="53.501565141545484" lon="14.79538431032613"><ele>13.4</ele><time>2026-04-12T10:31:05.928Z</time></trkpt><trkpt lat="53.501669363454205" lon="14.795354854236907"><ele>13.8</ele><time>2026-04-12T10:31:06.928Z</time></trkpt><trkpt lat="53.50176594047288" lon="14.795329414218225"><ele>14.2</ele><time>2026-04-12T10:31:07.928Z</time></trkpt><trkpt lat="53.50187585331566" lon="14.795306378924192"><ele>14.6</ele><time>2026-04-12T10:31:08.928Z</time></trkpt><trkpt lat="53.50199201168423" lon="14.795284027069423"><ele>15.0</ele><time>2026-04-12T10:31:09.928Z</time></trkpt><trkpt lat="53.50211372667383" lon="14.79522361886291"><ele>15.75</ele><time>2026-04-12T10:31:10.928Z</time></trkpt><trkpt lat="53.50223452832125" lon="14.795181311039169"><ele>16.5</ele><time>2026-04-12T10:31:11.928Z</time></trkpt><trkpt lat="53.5023722022955" lon="14.795134729108359"><ele>17.25</ele><time>2026-04-12T10:31:12.928Z</time></trkpt><trkpt lat="53.502527749065095" lon="14.795082773112412"><ele>18.0</ele><time>2026-04-12T10:31:13.928Z</time></trkpt><trkpt lat="53.50266215652168" lon="14.795048546268024"><ele>18.0</ele><time>2026-04-12T10:31:14.928Z</time></trkpt><trkpt lat="53.502800898261796" lon="14.795013356143684"><ele>18.0</ele><time>2026-04-12T10:31:15.928Z</time></trkpt><trkpt lat="53.502937925428476" lon="14.794983856620082"><ele>18.0</ele><time>2026-04-12T10:31:16.928Z</time></trkpt><trkpt lat="53.50306234538065" lon="14.794934775698854"><ele>18.0</ele><time>2026-04-12T10:31:17.928Z</time></trkpt><trkpt lat="53.503181411261785" lon="14.79488691159969"><ele>18.0</ele><time>2026-04-12T10:31:18.928Z</time></trkpt><trkpt lat="53.50330746305277" lon="14.794838387231767"><ele>18.0</ele><time>2026-04-12T10:31:19.928Z</time></trkpt><trkpt lat="53.50343849101921" lon="14.794801178759757"><ele>18.0</ele><time>2026-04-12T10:31:20.928Z</time></trkpt><trkpt lat="53.50356319620096" lon="14.794757505906233"><ele>18.0</ele><time>2026-04-12T10:31:21.928Z</time></trkpt><trkpt lat="53.50367921522325" lon="14.794722234570653"><ele>18.25</ele><time>2026-04-12T10:31:22.928Z</time></trkpt><trkpt lat="53.50379504703112" lon="14.794689670136963"><ele>18.5</ele><time>2026-04-12T10:31:23.928Z</time></trkpt><trkpt lat="53.50391350782926" lon="14.794662396637927"><ele>18.75</ele><time>2026-04-12T10:31:24.928Z</time></trkpt><trkpt lat="53.50403757861117" lon="14.794626657550998"><ele>19.0</ele><time>2026-04-12T10:31:25.928Z</time></trkpt><trkpt lat="53.50415584789564" lon="14.79458208873752"><ele>19.0</ele><time>2026-04-12T10:31:26.928Z</time></trkpt><trkpt lat="53.504264667167256" lon="14.794538990995232"><ele>19.0</ele><time>2026-04-12T10:31:27.928Z</time></trkpt><trkpt lat="53.50437445146715" lon="14.79449829385343"><ele>19.0</ele><time>2026-04-12T10:31:28.928Z</time></trkpt><trkpt lat="53.504468527885095" lon="14.794448907951585"><ele>19.0</ele><time>2026-04-12T10:31:29.928Z</time></trkpt><trkpt lat="53.504571398324124" lon="14.794421819862848"><ele>19.0</ele><time>2026-04-12T10:31:30.928Z</time></trkpt><trkpt lat="53.5046886781044" lon="14.794381919006804"><ele>20.75</ele><time>2026-04-12T10:31:31.928Z</time></trkpt><trkpt lat="53.50479817349451" lon="14.7943333948592"><ele>22.5</ele><time>2026-04-12T10:31:32.928Z</time></trkpt><trkpt lat="53.50492208423399" lon="14.794288023180336"><ele>24.25</ele><time>2026-04-12T10:31:33.928Z</time></trkpt><trkpt lat="53.50503194951778" lon="14.794250691611598"><ele>26.0</ele><time>2026-04-12T10:31:34.928Z</time></trkpt><trkpt lat="53.505142854146776" lon="14.794202784379031"><ele>26.0</ele><time>2026-04-12T10:31:35.927Z</time></trkpt><trkpt lat="53.50526359251359" lon="14.794156875470346"><ele>26.0</ele><time>2026-04-12T10:31:36.927Z</time></trkpt><trkpt lat="53.505371206696964" lon="14.794132983162422"><ele>26.0</ele><time>2026-04-12T10:31:37.927Z</time></trkpt><trkpt lat="53.50547493585242" lon="14.794123838413034"><ele>26.0</ele><time>2026-04-12T10:31:38.928Z</time></trkpt><trkpt lat="53.50559118184776" lon="14.794111627687464"><ele>25.75</ele><time>2026-04-12T10:31:39.927Z</time></trkpt><trkpt lat="53.505718345272186" lon="14.79407774987321"><ele>25.5</ele><time>2026-04-12T10:31:40.927Z</time></trkpt><trkpt lat="53.50583919703006" lon="14.794034778940489"><ele>25.25</ele><time>2026-04-12T10:31:41.927Z</time></trkpt><trkpt lat="53.50596074046535" lon="14.79398684002193"><ele>25.0</ele><time>2026-04-12T10:31:42.927Z</time></trkpt><trkpt lat="53.506072564404995" lon="14.793947120149634"><ele>25.0</ele><time>2026-04-12T10:31:43.927Z</time></trkpt><trkpt lat="53.50618345734715" lon="14.793918837466533"><ele>25.0</ele><time>2026-04-12T10:31:44.927Z</time></trkpt><trkpt lat="53.506310238368656" lon="14.793871430191722"><ele>25.0</ele><time>2026-04-12T10:31:45.927Z</time></trkpt><trkpt lat="53.50643553018022" lon="14.79382168300291"><ele>25.0</ele><time>2026-04-12T10:31:46.927Z</time></trkpt><trkpt lat="53.50655877940703" lon="14.793771174433545"><ele>24.5</ele><time>2026-04-12T10:31:47.927Z</time></trkpt><trkpt lat="53.50667509331415" lon="14.793736683094437"><ele>24.0</ele><time>2026-04-12T10:31:48.927Z</time></trkpt><trkpt lat="53.50677943946306" lon="14.793700095094726"><ele>23.5</ele><time>2026-04-12T10:31:49.927Z</time></trkpt><trkpt lat="53.50689215672771" lon="14.793662874303813"><ele>23.0</ele><time>2026-04-12T10:31:50.927Z</time></trkpt><trkpt lat="53.50700400891629" lon="14.793621711690047"><ele>22.75</ele><time>2026-04-12T10:31:51.927Z</time></trkpt><trkpt lat="53.507129144472984" lon="14.793579169633418"><ele>22.5</ele><time>2026-04-12T10:31:52.927Z</time></trkpt><trkpt lat="53.507258341443624" lon="14.793529624221488"><ele>22.25</ele><time>2026-04-12T10:31:53.927Z</time></trkpt><trkpt lat="53.50738360280488" lon="14.793483074426362"><ele>22.0</ele><time>2026-04-12T10:31:54.927Z</time></trkpt><trkpt lat="53.50749066116865" lon="14.793442001150726"><ele>22.0</ele><time>2026-04-12T10:31:55.927Z</time></trkpt><trkpt lat="53.50759754249183" lon="14.793393445014859"><ele>22.0</ele><time>2026-04-12T10:31:56.927Z</time></trkpt><trkpt lat="53.50770192088215" lon="14.793353723780143"><ele>22.0</ele><time>2026-04-12T10:31:57.927Z</time></trkpt><trkpt lat="53.50779196607269" lon="14.793324530790603"><ele>22.0</ele><time>2026-04-12T10:31:58.927Z</time></trkpt><trkpt lat="53.50789352861225" lon="14.793290158933395"><ele>22.0</ele><time>2026-04-12T10:31:59.927Z</time></trkpt><trkpt lat="53.50800154492813" lon="14.793262543632215"><ele>22.200000000000003</ele><time>2026-04-12T10:32:00.927Z</time></trkpt><trkpt lat="53.508119861309424" lon="14.79324216591881"><ele>22.4</ele><time>2026-04-12T10:32:01.927Z</time></trkpt><trkpt lat="53.50823463693734" lon="14.793200811995746"><ele>22.6</ele><time>2026-04-12T10:32:02.927Z</time></trkpt><trkpt lat="53.50832901014434" lon="14.79318383588476"><ele>22.799999999999997</ele><time>2026-04-12T10:32:03.927Z</time></trkpt><trkpt lat="53.508441702079956" lon="14.79314672714321"><ele>23.0</ele><time>2026-04-12T10:32:04.927Z</time></trkpt><trkpt lat="53.50853007681104" lon="14.793125475404103"><ele>23.0</ele><time>2026-04-12T10:32:05.927Z</time></trkpt><trkpt lat="53.508630789591585" lon="14.79308901718932"><ele>23.0</ele><time>2026-04-12T10:32:06.927Z</time></trkpt><trkpt lat="53.50873948318644" lon="14.793063313101635"><ele>23.0</ele><time>2026-04-12T10:32:07.927Z</time></trkpt><trkpt lat="53.50884798672112" lon="14.79303405752534"><ele>23.0</ele><time>2026-04-12T10:32:08.927Z</time></trkpt><trkpt lat="53.508954572363656" lon="14.793002356189875"><ele>23.0</ele><time>2026-04-12T10:32:09.927Z</time></trkpt><trkpt lat="53.5090508249955" lon="14.792991179201413"><ele>23.166666666666668</ele><time>2026-04-12T10:32:10.927Z</time></trkpt><trkpt lat="53.509138187936166" lon="14.792971054796407"><ele>23.333333333333336</ele><time>2026-04-12T10:32:11.927Z</time></trkpt><trkpt lat="53.50922131597852" lon="14.792942888147056"><ele>23.5</ele><time>2026-04-12T10:32:12.927Z</time></trkpt><trkpt lat="53.50931461696621" lon="14.792905317655798"><ele>23.666666666666668</ele><time>2026-04-12T10:32:13.927Z</time></trkpt><trkpt lat="53.5094039340386" lon="14.79288115541701"><ele>23.833333333333332</ele><time>2026-04-12T10:32:14.927Z</time></trkpt><trkpt lat="53.50949081332481" lon="14.792853208882422"><ele>24.0</ele><time>2026-04-12T10:32:15.927Z</time></trkpt><trkpt lat="53.5095760579539" lon="14.79284277020418"><ele>24.0</ele><time>2026-04-12T10:32:16.927Z</time></trkpt><trkpt lat="53.509642678689566" lon="14.792818113183083"><ele>24.0</ele><time>2026-04-12T10:32:17.927Z</time></trkpt><trkpt lat="53.5097130787593" lon="14.792790672577047"><ele>24.0</ele><time>2026-04-12T10:32:18.927Z</time></trkpt><trkpt lat="53.509790186326626" lon="14.792757785971219"><ele>24.0</ele><time>2026-04-12T10:32:19.927Z</time></trkpt><trkpt lat="53.50988231139556" lon="14.792725928976209"><ele>24.0</ele><time>2026-04-12T10:32:20.927Z</time></trkpt><trkpt lat="53.50998872677185" lon="14.792696165135284"><ele>24.0</ele><time>2026-04-12T10:32:21.927Z</time></trkpt><trkpt lat="53.5100890030108" lon="14.792675856702893"><ele>23.666666666666668</ele><time>2026-04-12T10:32:22.927Z</time></trkpt><trkpt lat="53.51017969464274" lon="14.792647042762766"><ele>23.333333333333332</ele><time>2026-04-12T10:32:23.927Z</time></trkpt><trkpt lat="53.51024301612818" lon="14.792625645207924"><ele>23.0</ele><time>2026-04-12T10:32:24.927Z</time></trkpt><trkpt lat="53.510305453374706" lon="14.792585416061705"><ele>22.666666666666664</ele><time>2026-04-12T10:32:25.927Z</time></trkpt><trkpt lat="53.5103966262326" lon="14.792574302231209"><ele>22.333333333333332</ele><time>2026-04-12T10:32:27.927Z</time></trkpt><trkpt lat="53.51047275870104" lon="14.792594280335983"><ele>22.0</ele><time>2026-04-12T10:32:29.927Z</time></trkpt><trkpt lat="53.51054543528874" lon="14.792669978291038"><ele>21.833333333333332</ele><time>2026-04-12T10:32:31.927Z</time></trkpt><trkpt lat="53.51059316834451" lon="14.792755137531731"><ele>21.666666666666664</ele><time>2026-04-12T10:32:32.927Z</time></trkpt><trkpt lat="53.510638779029726" lon="14.792861044415707"><ele>21.5</ele><time>2026-04-12T10:32:33.927Z</time></trkpt><trkpt lat="53.5106887258674" lon="14.792984487431214"><ele>21.333333333333332</ele><time>2026-04-12T10:32:34.927Z</time></trkpt><trkpt lat="53.510745113855144" lon="14.793111442309371"><ele>21.166666666666668</ele><time>2026-04-12T10:32:35.927Z</time></trkpt><trkpt lat="53.51079668592178" lon="14.793231887282799"><ele>21.0</ele><time>2026-04-12T10:32:36.927Z</time></trkpt><trkpt lat="53.51084811807545" lon="14.793345712430888"><ele>21.0</ele><time>2026-04-12T10:32:37.927Z</time></trkpt><trkpt lat="53.510897941367" lon="14.793466880084834"><ele>21.0</ele><time>2026-04-12T10:32:38.927Z</time></trkpt><trkpt lat="53.51095076957716" lon="14.793639520208481"><ele>21.0</ele><time>2026-04-12T10:32:39.927Z</time></trkpt><trkpt lat="53.51102862109006" lon="14.793780848655787"><ele>21.0</ele><time>2026-04-12T10:32:40.927Z</time></trkpt><trkpt lat="53.51109232802838" lon="14.793939981574926"><ele>21.0</ele><time>2026-04-12T10:32:41.927Z</time></trkpt><trkpt lat="53.511150421000366" lon="14.794078913714676"><ele>21.4</ele><time>2026-04-12T10:32:42.927Z</time></trkpt><trkpt lat="53.51120559513382" lon="14.794228314059241"><ele>21.8</ele><time>2026-04-12T10:32:43.927Z</time></trkpt><trkpt lat="53.51125720442575" lon="14.794344335381536"><ele>22.2</ele><time>2026-04-12T10:32:44.927Z</time></trkpt><trkpt lat="53.511294537100284" lon="14.794486642093336"><ele>22.599999999999998</ele><time>2026-04-12T10:32:45.927Z</time></trkpt><trkpt lat="53.51134954693492" lon="14.794624421587647"><ele>23.0</ele><time>2026-04-12T10:32:46.927Z</time></trkpt><trkpt lat="53.51141429096407" lon="14.79473883217709"><ele>23.4</ele><time>2026-04-12T10:32:47.927Z</time></trkpt><trkpt lat="53.511463298164486" lon="14.794876122735406"><ele>23.799999999999997</ele><time>2026-04-12T10:32:48.927Z</time></trkpt><trkpt lat="53.511523688621054" lon="14.7950263839406"><ele>24.2</ele><time>2026-04-12T10:32:49.927Z</time></trkpt><trkpt lat="53.511589314883736" lon="14.795187211522252"><ele>24.6</ele><time>2026-04-12T10:32:50.927Z</time></trkpt><trkpt lat="53.51164042818578" lon="14.795304072788287"><ele>25.0</ele><time>2026-04-12T10:32:51.927Z</time></trkpt><trkpt lat="53.511676249981875" lon="14.79543392965675"><ele>25.6</ele><time>2026-04-12T10:32:52.927Z</time></trkpt><trkpt lat="53.51174299650379" lon="14.795548320626732"><ele>26.2</ele><time>2026-04-12T10:32:53.927Z</time></trkpt><trkpt lat="53.51178888458155" lon="14.795706617080725"><ele>26.799999999999997</ele><time>2026-04-12T10:32:54.927Z</time></trkpt><trkpt lat="53.51185971199804" lon="14.795828707182244"><ele>27.4</ele><time>2026-04-12T10:32:55.926Z</time></trkpt><trkpt lat="53.51191441513665" lon="14.79596706202595"><ele>28.0</ele><time>2026-04-12T10:32:56.926Z</time></trkpt><trkpt lat="53.51197030817751" lon="14.7961018745801"><ele>28.2</ele><time>2026-04-12T10:32:57.926Z</time></trkpt><trkpt lat="53.51201943076098" lon="14.79625432410775"><ele>28.4</ele><time>2026-04-12T10:32:58.926Z</time></trkpt><trkpt lat="53.5120808945649" lon="14.79639735170724"><ele>28.599999999999998</ele><time>2026-04-12T10:32:59.926Z</time></trkpt><trkpt lat="53.51214269983808" lon="14.796510149671608"><ele>28.799999999999997</ele><time>2026-04-12T10:33:00.926Z</time></trkpt><trkpt lat="53.51219481935969" lon="14.796623206577253"><ele>29.0</ele><time>2026-04-12T10:33:01.926Z</time></trkpt><trkpt lat="53.512252481676" lon="14.796794330215624"><ele>28.166666666666664</ele><time>2026-04-12T10:33:02.926Z</time></trkpt><trkpt lat="53.512314927736156" lon="14.796895339421168"><ele>27.333333333333332</ele><time>2026-04-12T10:33:03.926Z</time></trkpt><trkpt lat="53.512385373213384" lon="14.79706831811142"><ele>26.5</ele><time>2026-04-12T10:33:05.926Z</time></trkpt><trkpt lat="53.5124276284864" lon="14.797152834299581"><ele>25.666666666666664</ele><time>2026-04-12T10:33:06.926Z</time></trkpt><trkpt lat="53.51245947868332" lon="14.797264591536301"><ele>24.833333333333332</ele><time>2026-04-12T10:33:07.926Z</time></trkpt><trkpt lat="53.512501209128146" lon="14.797357272093043"><ele>24.0</ele><time>2026-04-12T10:33:08.926Z</time></trkpt><trkpt lat="53.51256636205845" lon="14.79747458338393"><ele>24.0</ele><time>2026-04-12T10:33:10.926Z</time></trkpt><trkpt lat="53.51262440668037" lon="14.797593540507245"><ele>24.0</ele><time>2026-04-12T10:33:12.926Z</time></trkpt><trkpt lat="53.512687413765086" lon="14.797717066974414"><ele>24.0</ele><time>2026-04-12T10:33:14.926Z</time></trkpt><trkpt lat="53.51272240632334" lon="14.797831711194059"><ele>24.0</ele><time>2026-04-12T10:33:17.926Z</time></trkpt><trkpt lat="53.512783450658816" lon="14.797794062616912"><ele>24.0</ele><time>2026-04-12T10:33:49.924Z</time></trkpt><trkpt lat="53.51286119182083" lon="14.797868639558404"><ele>24.0</ele><time>2026-04-12T10:33:50.924Z</time></trkpt><trkpt lat="53.51287434914408" lon="14.798118940776025"><ele>22.8</ele><time>2026-04-12T10:33:52.924Z</time></trkpt><trkpt lat="53.512970341006685" lon="14.798275255483961"><ele>21.599999999999998</ele><time>2026-04-12T10:33:54.924Z</time></trkpt><trkpt lat="53.5130286684892" lon="14.798363542726864"><ele>20.4</ele><time>2026-04-12T10:33:55.924Z</time></trkpt><trkpt lat="53.51313938876563" lon="14.798504480425745"><ele>19.2</ele><time>2026-04-12T10:33:57.924Z</time></trkpt><trkpt lat="53.51320017648007" lon="14.798606563582014"><ele>18.0</ele><time>2026-04-12T10:33:58.924Z</time></trkpt><trkpt lat="53.513279043244474" lon="14.798731637438815"><ele>18.0</ele><time>2026-04-12T10:33:59.924Z</time></trkpt><trkpt lat="53.51335963271096" lon="14.798856141964613"><ele>18.0</ele><time>2026-04-12T10:34:00.924Z</time></trkpt><trkpt lat="53.513431853688935" lon="14.79894964951894"><ele>18.0</ele><time>2026-04-12T10:34:01.924Z</time></trkpt><trkpt lat="53.51350832127865" lon="14.799024353202922"><ele>18.0</ele><time>2026-04-12T10:34:02.924Z</time></trkpt><trkpt lat="53.51360364388108" lon="14.799116145196594"><ele>18.0</ele><time>2026-04-12T10:34:03.924Z</time></trkpt><trkpt lat="53.51369329070598" lon="14.799185205415295"><ele>17.8</ele><time>2026-04-12T10:34:04.924Z</time></trkpt><trkpt lat="53.51378777660045" lon="14.799246714557079"><ele>17.6</ele><time>2026-04-12T10:34:05.924Z</time></trkpt><trkpt lat="53.51389919551509" lon="14.79930096562411"><ele>17.4</ele><time>2026-04-12T10:34:06.924Z</time></trkpt><trkpt lat="53.51396140831494" lon="14.799344151610379"><ele>17.2</ele><time>2026-04-12T10:34:07.924Z</time></trkpt><trkpt lat="53.51404366704892" lon="14.799407574556701"><ele>17.0</ele><time>2026-04-12T10:34:08.924Z</time></trkpt><trkpt lat="53.51413980229126" lon="14.799486871024076"><ele>17.4</ele><time>2026-04-12T10:34:09.924Z</time></trkpt><trkpt lat="53.5142541473303" lon="14.799562051342237"><ele>17.799999999999997</ele><time>2026-04-12T10:34:10.924Z</time></trkpt><trkpt lat="53.51435393484825" lon="14.799653934216128"><ele>18.2</ele><time>2026-04-12T10:34:11.924Z</time></trkpt><trkpt lat="53.514428740331475" lon="14.799736113085244"><ele>18.599999999999998</ele><time>2026-04-12T10:34:12.924Z</time></trkpt><trkpt lat="53.51451265067797" lon="14.799768161664026"><ele>19.0</ele><time>2026-04-12T10:34:13.924Z</time></trkpt><trkpt lat="53.51460482792227" lon="14.79977188643998"><ele>18.0</ele><time>2026-04-12T10:34:14.924Z</time></trkpt><trkpt lat="53.51472204199521" lon="14.799758797471178"><ele>17.0</ele><time>2026-04-12T10:34:15.924Z</time></trkpt><trkpt lat="53.514842778118336" lon="14.799747837832518"><ele>16.0</ele><time>2026-04-12T10:34:16.924Z</time></trkpt><trkpt lat="53.51494976659093" lon="14.799764749327075"><ele>15.0</ele><time>2026-04-12T10:34:17.924Z</time></trkpt><trkpt lat="53.51506347994223" lon="14.799788784068635"><ele>15.0</ele><time>2026-04-12T10:34:18.924Z</time></trkpt><trkpt lat="53.515187287332715" lon="14.799814927061753"><ele>15.0</ele><time>2026-04-12T10:34:19.924Z</time></trkpt><trkpt lat="53.515312257066256" lon="14.79983445810305"><ele>15.0</ele><time>2026-04-12T10:34:20.924Z</time></trkpt><trkpt lat="53.515415441542444" lon="14.799850953197344"><ele>15.0</ele><time>2026-04-12T10:34:21.924Z</time></trkpt><trkpt lat="53.51550135598761" lon="14.79987367021843"><ele>15.0</ele><time>2026-04-12T10:34:22.924Z</time></trkpt><trkpt lat="53.51560630120397" lon="14.799879793026022"><ele>15.333333333333334</ele><time>2026-04-12T10:34:23.924Z</time></trkpt><trkpt lat="53.515677424053166" lon="14.7998745061032"><ele>15.666666666666668</ele><time>2026-04-12T10:34:24.924Z</time></trkpt><trkpt lat="53.51575886676908" lon="14.799862811422617"><ele>16.0</ele><time>2026-04-12T10:34:25.924Z</time></trkpt><trkpt lat="53.515821435265224" lon="14.799824664724461"><ele>16.333333333333336</ele><time>2026-04-12T10:34:26.924Z</time></trkpt><trkpt lat="53.51589616509025" lon="14.799681981435734"><ele>16.666666666666668</ele><time>2026-04-12T10:34:27.924Z</time></trkpt><trkpt lat="53.51598696404635" lon="14.799648768030643"><ele>17.0</ele><time>2026-04-12T10:34:28.924Z</time></trkpt><trkpt lat="53.51605355435213" lon="14.799634138045889"><ele>17.0</ele><time>2026-04-12T10:34:29.924Z</time></trkpt><trkpt lat="53.51615136236284" lon="14.7995560209884"><ele>17.0</ele><time>2026-04-12T10:34:30.924Z</time></trkpt><trkpt lat="53.516279248395115" lon="14.799495353386751"><ele>17.0</ele><time>2026-04-12T10:34:31.924Z</time></trkpt><trkpt lat="53.516408588797134" lon="14.799453406055358"><ele>17.0</ele><time>2026-04-12T10:34:32.924Z</time></trkpt><trkpt lat="53.51653113837849" lon="14.799390769638824"><ele>17.5</ele><time>2026-04-12T10:34:33.924Z</time></trkpt><trkpt lat="53.51664356688203" lon="14.79930460808002"><ele>18.0</ele><time>2026-04-12T10:34:34.924Z</time></trkpt><trkpt lat="53.51675120869428" lon="14.79926533514025"><ele>18.5</ele><time>2026-04-12T10:34:35.924Z</time></trkpt><trkpt lat="53.51686099892574" lon="14.799201763895878"><ele>19.0</ele><time>2026-04-12T10:34:36.924Z</time></trkpt><trkpt lat="53.51698617159695" lon="14.79913718318029"><ele>19.75</ele><time>2026-04-12T10:34:37.924Z</time></trkpt><trkpt lat="53.51712216861374" lon="14.799066692786772"><ele>20.5</ele><time>2026-04-12T10:34:38.924Z</time></trkpt><trkpt lat="53.51724820112078" lon="14.799002864511758"><ele>21.25</ele><time>2026-04-12T10:34:39.924Z</time></trkpt><trkpt lat="53.517368723902905" lon="14.798940770233763"><ele>22.0</ele><time>2026-04-12T10:34:40.924Z</time></trkpt><trkpt lat="53.517484318669865" lon="14.798880294943784"><ele>22.0</ele><time>2026-04-12T10:34:41.924Z</time></trkpt><trkpt lat="53.51759976233359" lon="14.798818516313105"><ele>22.0</ele><time>2026-04-12T10:34:42.924Z</time></trkpt><trkpt lat="53.51772471371361" lon="14.798755326190843"><ele>22.0</ele><time>2026-04-12T10:34:43.924Z</time></trkpt><trkpt lat="53.51786224128512" lon="14.798681871448165"><ele>22.0</ele><time>2026-04-12T10:34:44.924Z</time></trkpt><trkpt lat="53.51800963389738" lon="14.798604531019443"><ele>22.25</ele><time>2026-04-12T10:34:45.924Z</time></trkpt><trkpt lat="53.518151337896306" lon="14.798533423189737"><ele>22.5</ele><time>2026-04-12T10:34:46.924Z</time></trkpt><trkpt lat="53.51829695649452" lon="14.798487596155551"><ele>22.75</ele><time>2026-04-12T10:34:47.924Z</time></trkpt><trkpt lat="53.51844100555444" lon="14.798420857165437"><ele>23.0</ele><time>2026-04-12T10:34:48.924Z</time></trkpt><trkpt lat="53.51858237416111" lon="14.798358888530826"><ele>23.0</ele><time>2026-04-12T10:34:49.924Z</time></trkpt><trkpt lat="53.51872350942384" lon="14.798295407220454"><ele>23.0</ele><time>2026-04-12T10:34:50.924Z</time></trkpt><trkpt lat="53.518864977310855" lon="14.79822617224179"><ele>23.0</ele><time>2026-04-12T10:34:51.924Z</time></trkpt><trkpt lat="53.518995949160434" lon="14.798160139477634"><ele>23.0</ele><time>2026-04-12T10:34:52.924Z</time></trkpt><trkpt lat="53.51913809368978" lon="14.79806092242327"><ele>21.0</ele><time>2026-04-12T10:34:53.924Z</time></trkpt><trkpt lat="53.51926572546848" lon="14.798001584964698"><ele>19.0</ele><time>2026-04-12T10:34:54.924Z</time></trkpt><trkpt lat="53.51940883283625" lon="14.797956852087536"><ele>17.0</ele><time>2026-04-12T10:34:55.924Z</time></trkpt><trkpt lat="53.51953039161319" lon="14.79789332535613"><ele>15.0</ele><time>2026-04-12T10:34:56.924Z</time></trkpt><trkpt lat="53.51963658829887" lon="14.797806669113765"><ele>15.0</ele><time>2026-04-12T10:34:57.924Z</time></trkpt><trkpt lat="53.51975765164231" lon="14.797739090897517"><ele>15.0</ele><time>2026-04-12T10:34:58.924Z</time></trkpt><trkpt lat="53.519864050737034" lon="14.797694559801712"><ele>15.0</ele><time>2026-04-12T10:34:59.924Z</time></trkpt><trkpt lat="53.51997890047332" lon="14.797622451709028"><ele>15.0</ele><time>2026-04-12T10:35:00.924Z</time></trkpt><trkpt lat="53.52008001857776" lon="14.797641811260437"><ele>14.8</ele><time>2026-04-12T10:35:01.924Z</time></trkpt><trkpt lat="53.520173364010496" lon="14.797632961304734"><ele>14.6</ele><time>2026-04-12T10:35:02.924Z</time></trkpt><trkpt lat="53.52027253710096" lon="14.79762018492509"><ele>14.399999999999999</ele><time>2026-04-12T10:35:03.924Z</time></trkpt><trkpt lat="53.52037964768796" lon="14.797606167874443"><ele>14.2</ele><time>2026-04-12T10:35:04.924Z</time></trkpt><trkpt lat="53.52049523063314" lon="14.797581306120227"><ele>14.0</ele><time>2026-04-12T10:35:05.924Z</time></trkpt><trkpt lat="53.520608718350196" lon="14.797536947507727"><ele>14.000000000000002</ele><time>2026-04-12T10:35:06.924Z</time></trkpt><trkpt lat="53.520702254037765" lon="14.79750175898423"><ele>14.0</ele><time>2026-04-12T10:35:07.924Z</time></trkpt><trkpt lat="53.52078346691906" lon="14.797435201428872"><ele>14.0</ele><time>2026-04-12T10:35:08.924Z</time></trkpt><trkpt lat="53.52085853516455" lon="14.797359254848233"><ele>14.0</ele><time>2026-04-12T10:35:09.924Z</time></trkpt><trkpt lat="53.520926696852705" lon="14.797238954736493"><ele>14.000000000000002</ele><time>2026-04-12T10:35:10.924Z</time></trkpt><trkpt lat="53.5209721901678" lon="14.79713895479379"><ele>14.0</ele><time>2026-04-12T10:35:11.924Z</time></trkpt><trkpt lat="53.52104892130365" lon="14.797094103987119"><ele>14.0</ele><time>2026-04-12T10:35:12.924Z</time></trkpt><trkpt lat="53.52112987252539" lon="14.797045155973416"><ele>13.999999999999998</ele><time>2026-04-12T10:35:13.924Z</time></trkpt><trkpt lat="53.521235015128646" lon="14.797026625226595"><ele>13.999999999999998</ele><time>2026-04-12T10:35:14.924Z</time></trkpt><trkpt lat="53.52134844778794" lon="14.796940716970374"><ele>14.0</ele><time>2026-04-12T10:35:15.924Z</time></trkpt><trkpt lat="53.521462400877425" lon="14.796902270230705"><ele>14.0</ele><time>2026-04-12T10:35:16.924Z</time></trkpt><trkpt lat="53.5215572774293" lon="14.796850879283179"><ele>13.799999999999999</ele><time>2026-04-12T10:35:17.924Z</time></trkpt><trkpt lat="53.521657753889905" lon="14.79678628152468"><ele>13.599999999999998</ele><time>2026-04-12T10:35:18.924Z</time></trkpt><trkpt lat="53.521759368154214" lon="14.796709560409601"><ele>13.4</ele><time>2026-04-12T10:35:19.924Z</time></trkpt><trkpt lat="53.52183944625937" lon="14.7966676379527"><ele>13.2</ele><time>2026-04-12T10:35:20.924Z</time></trkpt><trkpt lat="53.52193589029216" lon="14.796624759718174"><ele>13.0</ele><time>2026-04-12T10:35:21.924Z</time></trkpt><trkpt lat="53.52202876402709" lon="14.796604167305192"><ele>13.8</ele><time>2026-04-12T10:35:22.924Z</time></trkpt><trkpt lat="53.522121705093895" lon="14.796576257114753"><ele>14.600000000000001</ele><time>2026-04-12T10:35:23.924Z</time></trkpt><trkpt lat="53.52220921179969" lon="14.796572449809481"><ele>15.399999999999999</ele><time>2026-04-12T10:35:24.924Z</time></trkpt><trkpt lat="53.52230755077996" lon="14.796564803561573"><ele>16.2</ele><time>2026-04-12T10:35:25.924Z</time></trkpt><trkpt lat="53.52239779604915" lon="14.79652015849441"><ele>17.0</ele><time>2026-04-12T10:35:26.924Z</time></trkpt><trkpt lat="53.52247180810104" lon="14.796479003086326"><ele>17.0</ele><time>2026-04-12T10:35:27.924Z</time></trkpt><trkpt lat="53.52258065153164" lon="14.796374627503967"><ele>17.0</ele><time>2026-04-12T10:35:28.924Z</time></trkpt><trkpt lat="53.52268284083583" lon="14.796263484321123"><ele>17.0</ele><time>2026-04-12T10:35:29.924Z</time></trkpt><trkpt lat="53.52278612621617" lon="14.796220343713722"><ele>17.0</ele><time>2026-04-12T10:35:30.924Z</time></trkpt><trkpt lat="53.52288248403955" lon="14.796155462797039"><ele>16.75</ele><time>2026-04-12T10:35:31.924Z</time></trkpt><trkpt lat="53.52298500871721" lon="14.796089423722762"><ele>16.5</ele><time>2026-04-12T10:35:32.924Z</time></trkpt><trkpt lat="53.523107646769574" lon="14.796014898852315"><ele>16.25</ele><time>2026-04-12T10:35:33.924Z</time></trkpt><trkpt lat="53.523221745987485" lon="14.795949445720305"><ele>16.0</ele><time>2026-04-12T10:35:34.924Z</time></trkpt><trkpt lat="53.523324452726506" lon="14.795904901855593"><ele>16.0</ele><time>2026-04-12T10:35:35.924Z</time></trkpt><trkpt lat="53.523428674132944" lon="14.79585421935145"><ele>16.0</ele><time>2026-04-12T10:35:36.924Z</time></trkpt><trkpt lat="53.52353230044748" lon="14.795789557679702"><ele>16.0</ele><time>2026-04-12T10:35:37.924Z</time></trkpt><trkpt lat="53.52366341084354" lon="14.795711470655268"><ele>16.0</ele><time>2026-04-12T10:35:38.924Z</time></trkpt><trkpt lat="53.523796629317566" lon="14.79563171719876"><ele>16.25</ele><time>2026-04-12T10:35:39.924Z</time></trkpt><trkpt lat="53.523927713447094" lon="14.795551929757185"><ele>16.5</ele><time>2026-04-12T10:35:40.923Z</time></trkpt><trkpt lat="53.52408632835289" lon="14.795497085351434"><ele>16.75</ele><time>2026-04-12T10:35:41.923Z</time></trkpt><trkpt lat="53.524197487767765" lon="14.795419073115985"><ele>17.0</ele><time>2026-04-12T10:35:42.923Z</time></trkpt><trkpt lat="53.524290808008736" lon="14.795369956934904"><ele>17.0</ele><time>2026-04-12T10:35:43.923Z</time></trkpt><trkpt lat="53.52436690195663" lon="14.795345292885582"><ele>17.0</ele><time>2026-04-12T10:35:44.923Z</time></trkpt><trkpt lat="53.52443209746311" lon="14.795321669787244"><ele>17.0</ele><time>2026-04-12T10:35:45.923Z</time></trkpt><trkpt lat="53.524508229194375" lon="14.795304661643007"><ele>17.0</ele><time>2026-04-12T10:37:11.921Z</time></trkpt><trkpt lat="53.52460258289087" lon="14.795384042356076"><ele>17.0</ele><time>2026-04-12T10:37:13.921Z</time></trkpt><trkpt lat="53.52464733280751" lon="14.795481234049722"><ele>17.0</ele><time>2026-04-12T10:37:14.921Z</time></trkpt><trkpt lat="53.52468603526073" lon="14.79557435108678"><ele>16.6</ele><time>2026-04-12T10:37:15.921Z</time></trkpt><trkpt lat="53.52472991813214" lon="14.795670569425523"><ele>16.2</ele><time>2026-04-12T10:37:16.921Z</time></trkpt><trkpt lat="53.524782142176555" lon="14.795772522925603"><ele>15.8</ele><time>2026-04-12T10:37:17.921Z</time></trkpt><trkpt lat="53.52484678832036" lon="14.795925406634247"><ele>15.4</ele><time>2026-04-12T10:37:18.921Z</time></trkpt><trkpt lat="53.52493405098648" lon="14.796090137546251"><ele>15.0</ele><time>2026-04-12T10:37:19.921Z</time></trkpt><trkpt lat="53.525035894091666" lon="14.796271298466133"><ele>15.0</ele><time>2026-04-12T10:37:20.921Z</time></trkpt><trkpt lat="53.525131352856" lon="14.796499647869766"><ele>15.0</ele><time>2026-04-12T10:37:21.921Z</time></trkpt><trkpt lat="53.525225272816215" lon="14.79669598611413"><ele>15.0</ele><time>2026-04-12T10:37:22.921Z</time></trkpt><trkpt lat="53.525312494854624" lon="14.796877246954477"><ele>14.75</ele><time>2026-04-12T10:37:23.921Z</time></trkpt><trkpt lat="53.525394208946274" lon="14.797049785422438"><ele>14.5</ele><time>2026-04-12T10:37:24.921Z</time></trkpt><trkpt lat="53.525468421790684" lon="14.797214820329232"><ele>14.25</ele><time>2026-04-12T10:37:25.921Z</time></trkpt><trkpt lat="53.52554581290393" lon="14.79736621354038"><ele>14.0</ele><time>2026-04-12T10:37:26.921Z</time></trkpt><trkpt lat="53.52562059635452" lon="14.79752043510026"><ele>12.75</ele><time>2026-04-12T10:37:27.921Z</time></trkpt><trkpt lat="53.52570876558352" lon="14.797690969913292"><ele>11.5</ele><time>2026-04-12T10:37:28.921Z</time></trkpt><trkpt lat="53.52580448752967" lon="14.797872191838534"><ele>10.25</ele><time>2026-04-12T10:37:29.921Z</time></trkpt><trkpt lat="53.525902887624454" lon="14.79806911678124"><ele>9.0</ele><time>2026-04-12T10:37:30.921Z</time></trkpt><trkpt lat="53.52600804049975" lon="14.7982714074145"><ele>9.0</ele><time>2026-04-12T10:37:31.921Z</time></trkpt><trkpt lat="53.52611251687144" lon="14.798487165208094"><ele>9.0</ele><time>2026-04-12T10:37:32.921Z</time></trkpt><trkpt lat="53.526220791365176" lon="14.798698317067975"><ele>9.0</ele><time>2026-04-12T10:37:33.921Z</time></trkpt><trkpt lat="53.52632345462363" lon="14.798902082401192"><ele>9.0</ele><time>2026-04-12T10:37:34.921Z</time></trkpt><trkpt lat="53.52642022062479" lon="14.799085394498258"><ele>9.0</ele><time>2026-04-12T10:37:35.921Z</time></trkpt><trkpt lat="53.52650614742338" lon="14.799256253896898"><ele>9.0</ele><time>2026-04-12T10:37:36.921Z</time></trkpt><trkpt lat="53.526589915278244" lon="14.79943100948957"><ele>9.0</ele><time>2026-04-12T10:37:37.921Z</time></trkpt><trkpt lat="53.52667793010501" lon="14.799613679917723"><ele>9.0</ele><time>2026-04-12T10:37:38.921Z</time></trkpt><trkpt lat="53.52675278171916" lon="14.799809531123897"><ele>9.0</ele><time>2026-04-12T10:37:39.921Z</time></trkpt><trkpt lat="53.52684620242536" lon="14.799997282831884"><ele>9.0</ele><time>2026-04-12T10:37:40.921Z</time></trkpt><trkpt lat="53.52694458644223" lon="14.800190571109965"><ele>9.0</ele><time>2026-04-12T10:37:41.921Z</time></trkpt><trkpt lat="53.52704316135241" lon="14.800376630107422"><ele>9.25</ele><time>2026-04-12T10:37:42.921Z</time></trkpt><trkpt lat="53.527137342502066" lon="14.80055840566701"><ele>9.5</ele><time>2026-04-12T10:37:43.921Z</time></trkpt><trkpt lat="53.52722890783708" lon="14.800738324521529"><ele>9.75</ele><time>2026-04-12T10:37:44.921Z</time></trkpt><trkpt lat="53.52732271679787" lon="14.80091986240235"><ele>10.0</ele><time>2026-04-12T10:37:45.921Z</time></trkpt><trkpt lat="53.527412527123715" lon="14.801095973089994"><ele>10.0</ele><time>2026-04-12T10:37:46.921Z</time></trkpt><trkpt lat="53.52749551366809" lon="14.801259404169382"><ele>10.0</ele><time>2026-04-12T10:37:47.921Z</time></trkpt><trkpt lat="53.527570488279785" lon="14.801420797644527"><ele>10.0</ele><time>2026-04-12T10:37:48.921Z</time></trkpt><trkpt lat="53.52764069499622" lon="14.80159600886349"><ele>10.0</ele><time>2026-04-12T10:37:49.921Z</time></trkpt><trkpt lat="53.52772613731567" lon="14.801759760119447"><ele>9.75</ele><time>2026-04-12T10:37:50.921Z</time></trkpt><trkpt lat="53.527812060624605" lon="14.801933636724842"><ele>9.5</ele><time>2026-04-12T10:37:51.921Z</time></trkpt><trkpt lat="53.52789947916163" lon="14.802100074592815"><ele>9.25</ele><time>2026-04-12T10:37:52.921Z</time></trkpt><trkpt lat="53.52797968965084" lon="14.80225760508492"><ele>9.0</ele><time>2026-04-12T10:37:53.92Z</time></trkpt><trkpt lat="53.52805515860177" lon="14.802403382735777"><ele>9.0</ele><time>2026-04-12T10:37:54.92Z</time></trkpt><trkpt lat="53.52812064073423" lon="14.802562865513453"><ele>9.0</ele><time>2026-04-12T10:37:55.92Z</time></trkpt><trkpt lat="53.528195137540465" lon="14.802682306398852"><ele>9.0</ele><time>2026-04-12T10:37:56.92Z</time></trkpt><trkpt lat="53.528254756611" lon="14.802806142132646"><ele>9.0</ele><time>2026-04-12T10:37:57.92Z</time></trkpt><trkpt lat="53.52830964623701" lon="14.802909183587065"><ele>9.0</ele><time>2026-04-12T10:37:58.92Z</time></trkpt><trkpt lat="53.52835037341468" lon="14.803024188128921"><ele>9.75</ele><time>2026-04-12T10:37:59.92Z</time></trkpt><trkpt lat="53.52842596494984" lon="14.80316093235355"><ele>10.5</ele><time>2026-04-12T10:38:01.92Z</time></trkpt><trkpt lat="53.52847425773394" lon="14.803289449118763"><ele>11.25</ele><time>2026-04-12T10:38:03.919Z</time></trkpt><trkpt lat="53.5286461876852" lon="14.803152463620076"><ele>12.0</ele><time>2026-04-12T10:38:05.92Z</time></trkpt><trkpt lat="53.528776218084595" lon="14.803051205837352"><ele>9.666666666666666</ele><time>2026-04-12T10:38:06.919Z</time></trkpt><trkpt lat="53.52891692449165" lon="14.802998392180314"><ele>7.333333333333334</ele><time>2026-04-12T10:38:07.919Z</time></trkpt><trkpt lat="53.52906797321875" lon="14.802944420651297"><ele>5.0</ele><time>2026-04-12T10:38:08.919Z</time></trkpt><trkpt lat="53.52922957438957" lon="14.802856240305285"><ele>5.0</ele><time>2026-04-12T10:38:09.919Z</time></trkpt><trkpt lat="53.529391493157505" lon="14.802796172899903"><ele>5.0</ele><time>2026-04-12T10:38:10.919Z</time></trkpt><trkpt lat="53.52958128431133" lon="14.802717746313665"><ele>5.0</ele><time>2026-04-12T10:38:11.919Z</time></trkpt><trkpt lat="53.52978159676946" lon="14.802616998923545"><ele>5.0</ele><time>2026-04-12T10:38:12.919Z</time></trkpt><trkpt lat="53.529996783827464" lon="14.80251519034704"><ele>5.0</ele><time>2026-04-12T10:38:13.919Z</time></trkpt><trkpt lat="53.530206483067715" lon="14.80241722114004"><ele>5.0</ele><time>2026-04-12T10:38:14.919Z</time></trkpt><trkpt lat="53.53042718133792" lon="14.80230528329324"><ele>5.0</ele><time>2026-04-12T10:38:15.919Z</time></trkpt><trkpt lat="53.53065059976834" lon="14.802190368907185"><ele>5.0</ele><time>2026-04-12T10:38:16.919Z</time></trkpt><trkpt lat="53.53086869116818" lon="14.802077644934474"><ele>5.0</ele><time>2026-04-12T10:38:17.919Z</time></trkpt><trkpt lat="53.53106847850816" lon="14.801974107871974"><ele>5.0</ele><time>2026-04-12T10:38:18.919Z</time></trkpt><trkpt lat="53.531261823259655" lon="14.801875752956892"><ele>5.0</ele><time>2026-04-12T10:38:19.919Z</time></trkpt><trkpt lat="53.531456636997504" lon="14.801778997702797"><ele>4.666666666666667</ele><time>2026-04-12T10:38:20.919Z</time></trkpt><trkpt lat="53.53165496065612" lon="14.801677678865982"><ele>4.333333333333333</ele><time>2026-04-12T10:38:21.919Z</time></trkpt><trkpt lat="53.53185513895581" lon="14.801573609227091"><ele>4.0</ele><time>2026-04-12T10:38:22.919Z</time></trkpt><trkpt lat="53.53206465358776" lon="14.80146435442459"><ele>3.6666666666666665</ele><time>2026-04-12T10:38:23.919Z</time></trkpt><trkpt lat="53.532278187719996" lon="14.80136061360069"><ele>3.333333333333333</ele><time>2026-04-12T10:38:24.919Z</time></trkpt><trkpt lat="53.532482343768436" lon="14.801260467844779"><ele>3.0</ele><time>2026-04-12T10:38:25.919Z</time></trkpt><trkpt lat="53.532678447952" lon="14.801163132631128"><ele>3.0</ele><time>2026-04-12T10:38:26.919Z</time></trkpt><trkpt lat="53.532874761301585" lon="14.801067213436971"><ele>3.0</ele><time>2026-04-12T10:38:27.919Z</time></trkpt><trkpt lat="53.533074764067294" lon="14.800968385715601"><ele>3.0</ele><time>2026-04-12T10:38:28.919Z</time></trkpt><trkpt lat="53.53327289237725" lon="14.80087052636042"><ele>3.0</ele><time>2026-04-12T10:38:29.919Z</time></trkpt><trkpt lat="53.53346624032142" lon="14.800770639730835"><ele>3.0</ele><time>2026-04-12T10:38:30.919Z</time></trkpt><trkpt lat="53.53366121712597" lon="14.800668634705685"><ele>3.0</ele><time>2026-04-12T10:38:31.919Z</time></trkpt><trkpt lat="53.53386480094879" lon="14.80056937258346"><ele>2.6666666666666665</ele><time>2026-04-12T10:38:32.919Z</time></trkpt><trkpt lat="53.5340760288473" lon="14.800469181994941"><ele>2.333333333333333</ele><time>2026-04-12T10:38:33.919Z</time></trkpt><trkpt lat="53.53428442729242" lon="14.800365246563896"><ele>2.0</ele><time>2026-04-12T10:38:34.919Z</time></trkpt><trkpt lat="53.534499993596775" lon="14.800258059093323"><ele>2.333333333333333</ele><time>2026-04-12T10:38:35.919Z</time></trkpt><trkpt lat="53.53471474483002" lon="14.800150745104961"><ele>2.6666666666666665</ele><time>2026-04-12T10:38:36.919Z</time></trkpt><trkpt lat="53.53492741405074" lon="14.80004057346255"><ele>3.0</ele><time>2026-04-12T10:38:37.919Z</time></trkpt><trkpt lat="53.53514096821708" lon="14.799932570489176"><ele>3.0</ele><time>2026-04-12T10:38:38.919Z</time></trkpt><trkpt lat="53.53534075108007" lon="14.79983442278804"><ele>3.0</ele><time>2026-04-12T10:38:39.919Z</time></trkpt><trkpt lat="53.53554096272433" lon="14.799730667871456"><ele>3.0</ele><time>2026-04-12T10:38:40.919Z</time></trkpt><trkpt lat="53.535744246837645" lon="14.799626601416549"><ele>3.0</ele><time>2026-04-12T10:38:41.919Z</time></trkpt><trkpt lat="53.535943376286525" lon="14.799525098034787"><ele>3.0</ele><time>2026-04-12T10:38:42.919Z</time></trkpt><trkpt lat="53.53614827164675" lon="14.799417753557977"><ele>3.0</ele><time>2026-04-12T10:38:43.919Z</time></trkpt><trkpt lat="53.53635271093781" lon="14.79931230281128"><ele>3.0</ele><time>2026-04-12T10:38:44.919Z</time></trkpt><trkpt lat="53.53656424148349" lon="14.79920739180163"><ele>3.0</ele><time>2026-04-12T10:38:45.919Z</time></trkpt><trkpt lat="53.53677702460502" lon="14.799102911417167"><ele>3.0</ele><time>2026-04-12T10:38:46.919Z</time></trkpt><trkpt lat="53.53699402925887" lon="14.798995075270632"><ele>3.0</ele><time>2026-04-12T10:38:47.919Z</time></trkpt><trkpt lat="53.537209095630836" lon="14.798883861119672"><ele>3.0</ele><time>2026-04-12T10:38:48.919Z</time></trkpt><trkpt lat="53.53742749245606" lon="14.798776032995008"><ele>3.0</ele><time>2026-04-12T10:38:49.919Z</time></trkpt><trkpt lat="53.5376495329161" lon="14.7986646531346"><ele>3.0</ele><time>2026-04-12T10:38:50.919Z</time></trkpt><trkpt lat="53.537874386367335" lon="14.798550488681022"><ele>3.0</ele><time>2026-04-12T10:38:51.919Z</time></trkpt><trkpt lat="53.5380974934421" lon="14.798439971091707"><ele>3.0</ele><time>2026-04-12T10:38:52.919Z</time></trkpt><trkpt lat="53.53832021334709" lon="14.798324961558528"><ele>3.0</ele><time>2026-04-12T10:38:53.919Z</time></trkpt><trkpt lat="53.5385364727678" lon="14.798213333154239"><ele>3.0</ele><time>2026-04-12T10:38:54.919Z</time></trkpt><trkpt lat="53.53875521892675" lon="14.79810391925676"><ele>2.0</ele><time>2026-04-12T10:38:55.919Z</time></trkpt><trkpt lat="53.53897041745473" lon="14.797994939918114"><ele>1.0</ele><time>2026-04-12T10:38:56.919Z</time></trkpt><trkpt lat="53.5391929719502" lon="14.797887634664496"><ele>1.0</ele><time>2026-04-12T10:38:57.919Z</time></trkpt><trkpt lat="53.539405243856436" lon="14.797773993954971"><ele>1.0</ele><time>2026-04-12T10:38:58.919Z</time></trkpt><trkpt lat="53.53963010218945" lon="14.797662142321682"><ele>1.6666666666666665</ele><time>2026-04-12T10:38:59.919Z</time></trkpt><trkpt lat="53.53984647004406" lon="14.797553401504029"><ele>2.3333333333333335</ele><time>2026-04-12T10:39:00.919Z</time></trkpt><trkpt lat="53.54005918856231" lon="14.797445930531357"><ele>3.0</ele><time>2026-04-12T10:39:01.919Z</time></trkpt><trkpt lat="53.54027482966618" lon="14.797339544651686"><ele>3.0</ele><time>2026-04-12T10:39:02.919Z</time></trkpt><trkpt lat="53.54048497773259" lon="14.797230044261823"><ele>3.0</ele><time>2026-04-12T10:39:03.919Z</time></trkpt><trkpt lat="53.54069612383575" lon="14.7971205184402"><ele>3.0</ele><time>2026-04-12T10:39:04.919Z</time></trkpt><trkpt lat="53.54089703737379" lon="14.797018730958266"><ele>3.0</ele><time>2026-04-12T10:39:05.919Z</time></trkpt><trkpt lat="53.541097015208585" lon="14.796916835049366"><ele>3.0</ele><time>2026-04-12T10:39:06.919Z</time></trkpt><trkpt lat="53.541295490250235" lon="14.79681216285301"><ele>3.0</ele><time>2026-04-12T10:39:07.919Z</time></trkpt><trkpt lat="53.541495589863445" lon="14.796709160034101"><ele>3.0</ele><time>2026-04-12T10:39:08.919Z</time></trkpt><trkpt lat="53.54170519194712" lon="14.796603422497185"><ele>3.0</ele><time>2026-04-12T10:39:09.919Z</time></trkpt><trkpt lat="53.54192037566016" lon="14.796493708832948"><ele>3.0</ele><time>2026-04-12T10:39:10.919Z</time></trkpt><trkpt lat="53.54213622188452" lon="14.796387159010639"><ele>2.5</ele><time>2026-04-12T10:39:11.919Z</time></trkpt><trkpt lat="53.54234973516701" lon="14.796271064677498"><ele>2.0</ele><time>2026-04-12T10:39:12.919Z</time></trkpt><trkpt lat="53.54256586767189" lon="14.79616173163874"><ele>2.0</ele><time>2026-04-12T10:39:13.919Z</time></trkpt><trkpt lat="53.54278262612688" lon="14.796049603219197"><ele>2.0</ele><time>2026-04-12T10:39:14.919Z</time></trkpt><trkpt lat="53.54300029281511" lon="14.795939878545216"><ele>1.5</ele><time>2026-04-12T10:39:15.919Z</time></trkpt><trkpt lat="53.5432197885572" lon="14.795831562251932"><ele>1.0</ele><time>2026-04-12T10:39:16.919Z</time></trkpt><trkpt lat="53.543439969577484" lon="14.795724892681969"><ele>1.0</ele><time>2026-04-12T10:39:17.919Z</time></trkpt><trkpt lat="53.5436561688054" lon="14.795620803989099"><ele>1.0</ele><time>2026-04-12T10:39:18.919Z</time></trkpt><trkpt lat="53.54386777428452" lon="14.79551630115373"><ele>1.0</ele><time>2026-04-12T10:39:19.919Z</time></trkpt><trkpt lat="53.544088448963244" lon="14.795401714475078"><ele>2.0</ele><time>2026-04-12T10:39:20.919Z</time></trkpt><trkpt lat="53.54431258727306" lon="14.795288691542492"><ele>3.0</ele><time>2026-04-12T10:39:21.919Z</time></trkpt><trkpt lat="53.54452823392953" lon="14.79518027374075"><ele>3.333333333333333</ele><time>2026-04-12T10:39:22.919Z</time></trkpt><trkpt lat="53.54473906663738" lon="14.79507332593946"><ele>3.6666666666666665</ele><time>2026-04-12T10:39:23.919Z</time></trkpt><trkpt lat="53.544951757416015" lon="14.794967603789956"><ele>4.0</ele><time>2026-04-12T10:39:24.919Z</time></trkpt><trkpt lat="53.545172191960376" lon="14.794860545731254"><ele>4.0</ele><time>2026-04-12T10:39:25.919Z</time></trkpt><trkpt lat="53.54537651031229" lon="14.794761167824053"><ele>4.0</ele><time>2026-04-12T10:39:26.919Z</time></trkpt><trkpt lat="53.5455857091671" lon="14.794656439886033"><ele>4.0</ele><time>2026-04-12T10:39:27.919Z</time></trkpt><trkpt lat="53.545795619954056" lon="14.79454443599798"><ele>3.5</ele><time>2026-04-12T10:39:28.919Z</time></trkpt><trkpt lat="53.5460136526382" lon="14.794432920382725"><ele>3.0</ele><time>2026-04-12T10:39:29.919Z</time></trkpt><trkpt lat="53.546227081267936" lon="14.79432772557525"><ele>3.0</ele><time>2026-04-12T10:39:30.919Z</time></trkpt><trkpt lat="53.546439655393414" lon="14.794216435604472"><ele>3.0</ele><time>2026-04-12T10:39:31.919Z</time></trkpt><trkpt lat="53.54665773954428" lon="14.794115757838838"><ele>3.0</ele><time>2026-04-12T10:39:32.919Z</time></trkpt><trkpt lat="53.54687527045992" lon="14.794003859519687"><ele>2.5</ele><time>2026-04-12T10:39:33.919Z</time></trkpt><trkpt lat="53.54710150214344" lon="14.793894726518094"><ele>2.0</ele><time>2026-04-12T10:39:34.919Z</time></trkpt><trkpt lat="53.54732174128272" lon="14.793785346080682"><ele>2.0</ele><time>2026-04-12T10:39:35.919Z</time></trkpt><trkpt lat="53.54753676264429" lon="14.793671041112828"><ele>2.0</ele><time>2026-04-12T10:39:36.919Z</time></trkpt><trkpt lat="53.54775588659958" lon="14.793561650582634"><ele>2.333333333333333</ele><time>2026-04-12T10:39:37.919Z</time></trkpt><trkpt lat="53.54797231690032" lon="14.793451284712992"><ele>2.6666666666666665</ele><time>2026-04-12T10:39:38.919Z</time></trkpt><trkpt lat="53.54818417573835" lon="14.793341461651682"><ele>3.0</ele><time>2026-04-12T10:39:39.919Z</time></trkpt><trkpt lat="53.54839955311919" lon="14.793231128257762"><ele>3.0</ele><time>2026-04-12T10:39:40.919Z</time></trkpt><trkpt lat="53.54861848758915" lon="14.793122741297996"><ele>3.0</ele><time>2026-04-12T10:39:41.919Z</time></trkpt><trkpt lat="53.54883890080455" lon="14.793011388091085"><ele>3.0</ele><time>2026-04-12T10:39:42.919Z</time></trkpt><trkpt lat="53.54906267495497" lon="14.79289588586251"><ele>3.0</ele><time>2026-04-12T10:39:43.919Z</time></trkpt><trkpt lat="53.54928788502072" lon="14.792776500589962"><ele>3.5</ele><time>2026-04-12T10:39:44.919Z</time></trkpt><trkpt lat="53.549516418548954" lon="14.792660786833293"><ele>4.0</ele><time>2026-04-12T10:39:45.919Z</time></trkpt><trkpt lat="53.54974162449568" lon="14.792549241765432"><ele>4.0</ele><time>2026-04-12T10:39:46.919Z</time></trkpt><trkpt lat="53.54997023601259" lon="14.792437588044862"><ele>4.0</ele><time>2026-04-12T10:39:47.919Z</time></trkpt><trkpt lat="53.55020900861241" lon="14.792323104115377"><ele>4.0</ele><time>2026-04-12T10:39:48.919Z</time></trkpt><trkpt lat="53.55044470609722" lon="14.79220457056016"><ele>4.0</ele><time>2026-04-12T10:39:49.919Z</time></trkpt><trkpt lat="53.550683754717724" lon="14.792090760643841"><ele>4.0</ele><time>2026-04-12T10:39:50.919Z</time></trkpt><trkpt lat="53.55091129173963" lon="14.791979106762973"><ele>4.0</ele><time>2026-04-12T10:39:51.919Z</time></trkpt><trkpt lat="53.55113519969043" lon="14.791873683637743"><ele>4.0</ele><time>2026-04-12T10:39:52.919Z</time></trkpt><trkpt lat="53.551346956344865" lon="14.791766515554805"><ele>4.0</ele><time>2026-04-12T10:39:53.919Z</time></trkpt><trkpt lat="53.551552905862046" lon="14.791661899232782"><ele>4.0</ele><time>2026-04-12T10:39:54.919Z</time></trkpt><trkpt lat="53.551750438237185" lon="14.791566923183138"><ele>4.0</ele><time>2026-04-12T10:39:55.919Z</time></trkpt><trkpt lat="53.55194191994607" lon="14.791470172528047"><ele>4.0</ele><time>2026-04-12T10:39:56.919Z</time></trkpt><trkpt lat="53.5521353108037" lon="14.791375088192249"><ele>4.0</ele><time>2026-04-12T10:39:57.919Z</time></trkpt><trkpt lat="53.55232462832241" lon="14.791283371215554"><ele>4.0</ele><time>2026-04-12T10:39:58.919Z</time></trkpt><trkpt lat="53.55249682301764" lon="14.791192459241408"><ele>4.0</ele><time>2026-04-12T10:39:59.917Z</time></trkpt><trkpt lat="53.55266406287058" lon="14.791107260255474"><ele>4.0</ele><time>2026-04-12T10:40:00.918Z</time></trkpt><trkpt lat="53.55282066081496" lon="14.791035733628881"><ele>3.75</ele><time>2026-04-12T10:40:01.917Z</time></trkpt><trkpt lat="53.55296735564113" lon="14.790960157443935"><ele>3.5</ele><time>2026-04-12T10:40:02.918Z</time></trkpt><trkpt lat="53.55310096588601" lon="14.790888054543595"><ele>3.25</ele><time>2026-04-12T10:40:03.917Z</time></trkpt><trkpt lat="53.553222195211504" lon="14.79081672969824"><ele>3.0</ele><time>2026-04-12T10:40:04.917Z</time></trkpt><trkpt lat="53.55334514777097" lon="14.790755664124204"><ele>3.0</ele><time>2026-04-12T10:40:05.918Z</time></trkpt><trkpt lat="53.55347803344519" lon="14.790691626255605"><ele>3.0</ele><time>2026-04-12T10:40:06.917Z</time></trkpt><trkpt lat="53.55361567039958" lon="14.790620677485572"><ele>3.0</ele><time>2026-04-12T10:40:07.917Z</time></trkpt><trkpt lat="53.55375330381513" lon="14.7905461489053"><ele>3.0</ele><time>2026-04-12T10:40:08.917Z</time></trkpt><trkpt lat="53.553882251018436" lon="14.790470123807534"><ele>3.0</ele><time>2026-04-12T10:40:09.917Z</time></trkpt><trkpt lat="53.554008304595456" lon="14.790390370660486"><ele>3.0</ele><time>2026-04-12T10:40:10.917Z</time></trkpt><trkpt lat="53.55413034378279" lon="14.790302861690902"><ele>3.0</ele><time>2026-04-12T10:40:11.917Z</time></trkpt><trkpt lat="53.5542455012161" lon="14.790217550320552"><ele>3.0</ele><time>2026-04-12T10:40:12.917Z</time></trkpt><trkpt lat="53.554350162127015" lon="14.790133883707972"><ele>3.0</ele><time>2026-04-12T10:40:13.917Z</time></trkpt><trkpt lat="53.55444246165013" lon="14.790058704589786"><ele>3.0</ele><time>2026-04-12T10:40:14.917Z</time></trkpt><trkpt lat="53.55451917291846" lon="14.789990360615544"><ele>3.0</ele><time>2026-04-12T10:40:15.917Z</time></trkpt><trkpt lat="53.55458513890038" lon="14.789934919854964"><ele>3.0</ele><time>2026-04-12T10:40:16.917Z</time></trkpt><trkpt lat="53.55469143473179" lon="14.78985178887465"><ele>3.0</ele><time>2026-04-12T10:40:18.917Z</time></trkpt><trkpt lat="53.554784368474664" lon="14.78978490663118"><ele>4.75</ele><time>2026-04-12T10:40:20.917Z</time></trkpt><trkpt lat="53.55485822356834" lon="14.789740448755861"><ele>6.5</ele><time>2026-04-12T10:40:21.917Z</time></trkpt><trkpt lat="53.55496270446307" lon="14.789678509830386"><ele>8.25</ele><time>2026-04-12T10:40:22.917Z</time></trkpt><trkpt lat="53.55509183504938" lon="14.789608474054292"><ele>10.0</ele><time>2026-04-12T10:40:23.917Z</time></trkpt><trkpt lat="53.55523438761588" lon="14.789536908366992"><ele>11.333333333333334</ele><time>2026-04-12T10:40:24.917Z</time></trkpt><trkpt lat="53.555393018345676" lon="14.78945493926134"><ele>12.666666666666668</ele><time>2026-04-12T10:40:25.917Z</time></trkpt><trkpt lat="53.55556557554104" lon="14.789366608218574"><ele>14.0</ele><time>2026-04-12T10:40:26.917Z</time></trkpt><trkpt lat="53.555762339347694" lon="14.789292150326613"><ele>14.5</ele><time>2026-04-12T10:40:27.917Z</time></trkpt><trkpt lat="53.55596828135828" lon="14.789160051800772"><ele>15.0</ele><time>2026-04-12T10:40:28.917Z</time></trkpt><trkpt lat="53.55619818846955" lon="14.789070123952673"><ele>13.5</ele><time>2026-04-12T10:40:29.917Z</time></trkpt><trkpt lat="53.55641998703904" lon="14.788956376852214"><ele>12.0</ele><time>2026-04-12T10:40:30.917Z</time></trkpt><trkpt lat="53.55665519509125" lon="14.788804591676898"><ele>12.0</ele><time>2026-04-12T10:40:31.917Z</time></trkpt><trkpt lat="53.55689632233808" lon="14.788669542948533"><ele>12.0</ele><time>2026-04-12T10:40:32.917Z</time></trkpt><trkpt lat="53.55713597436005" lon="14.788521380027635"><ele>13.0</ele><time>2026-04-12T10:40:33.917Z</time></trkpt><trkpt lat="53.557375678193154" lon="14.788358766374056"><ele>14.0</ele><time>2026-04-12T10:40:34.917Z</time></trkpt><trkpt lat="53.55761267541663" lon="14.788181373165049"><ele>14.0</ele><time>2026-04-12T10:40:35.917Z</time></trkpt><trkpt lat="53.557845134132606" lon="14.787991307183264"><ele>14.0</ele><time>2026-04-12T10:40:36.917Z</time></trkpt><trkpt lat="53.55807324875795" lon="14.787798142775015"><ele>14.0</ele><time>2026-04-12T10:40:37.917Z</time></trkpt><trkpt lat="53.55829895308742" lon="14.787593709906234"><ele>14.0</ele><time>2026-04-12T10:40:38.917Z</time></trkpt><trkpt lat="53.55852326244473" lon="14.787383109960892"><ele>13.0</ele><time>2026-04-12T10:40:39.917Z</time></trkpt><trkpt lat="53.55874060996025" lon="14.787152841034992"><ele>12.0</ele><time>2026-04-12T10:40:40.917Z</time></trkpt><trkpt lat="53.55894962402603" lon="14.786911148062694"><ele>13.0</ele><time>2026-04-12T10:40:41.917Z</time></trkpt><trkpt lat="53.559162054923675" lon="14.786674934694915"><ele>14.0</ele><time>2026-04-12T10:40:42.917Z</time></trkpt><trkpt lat="53.55936788177497" lon="14.786442465256346"><ele>13.5</ele><time>2026-04-12T10:40:43.917Z</time></trkpt><trkpt lat="53.559569373831735" lon="14.786219027702057"><ele>13.0</ele><time>2026-04-12T10:40:44.917Z</time></trkpt><trkpt lat="53.55976205320685" lon="14.785999793385265"><ele>13.0</ele><time>2026-04-12T10:40:45.917Z</time></trkpt><trkpt lat="53.55994975621544" lon="14.785783813614428"><ele>13.0</ele><time>2026-04-12T10:40:46.917Z</time></trkpt><trkpt lat="53.56013186386097" lon="14.785580424007076"><ele>13.0</ele><time>2026-04-12T10:40:47.917Z</time></trkpt><trkpt lat="53.56030687070989" lon="14.785384968556567"><ele>12.666666666666666</ele><time>2026-04-12T10:40:48.917Z</time></trkpt><trkpt lat="53.56048292618817" lon="14.785187736880921"><ele>12.333333333333332</ele><time>2026-04-12T10:40:49.917Z</time></trkpt><trkpt lat="53.560659073436" lon="14.784996619120003"><ele>12.0</ele><time>2026-04-12T10:40:50.917Z</time></trkpt><trkpt lat="53.56083651889527" lon="14.784820541043665"><ele>12.666666666666668</ele><time>2026-04-12T10:40:51.917Z</time></trkpt><trkpt lat="53.561019200583765" lon="14.784658900056074"><ele>13.333333333333334</ele><time>2026-04-12T10:40:52.917Z</time></trkpt><trkpt lat="53.561195524743425" lon="14.784497329437613"><ele>14.0</ele><time>2026-04-12T10:40:53.917Z</time></trkpt><trkpt lat="53.56137993610793" lon="14.78435219930525"><ele>14.666666666666668</ele><time>2026-04-12T10:40:54.917Z</time></trkpt><trkpt lat="53.561568815078225" lon="14.784213344410535"><ele>15.333333333333332</ele><time>2026-04-12T10:40:55.917Z</time></trkpt><trkpt lat="53.56176549766741" lon="14.784096301632179"><ele>16.0</ele><time>2026-04-12T10:40:56.917Z</time></trkpt><trkpt lat="53.56196977423808" lon="14.783989119155617"><ele>13.666666666666666</ele><time>2026-04-12T10:40:57.916Z</time></trkpt><trkpt lat="53.56217738031384" lon="14.783901416448886"><ele>11.333333333333332</ele><time>2026-04-12T10:40:58.916Z</time></trkpt><trkpt lat="53.56238569439976" lon="14.783827438668133"><ele>9.0</ele><time>2026-04-12T10:40:59.916Z</time></trkpt><trkpt lat="53.56259074507947" lon="14.783769671206667"><ele>9.0</ele><time>2026-04-12T10:41:00.916Z</time></trkpt><trkpt lat="53.56279774346843" lon="14.783727015176831"><ele>9.0</ele><time>2026-04-12T10:41:01.916Z</time></trkpt><trkpt lat="53.563002355366095" lon="14.78370809294752"><ele>9.0</ele><time>2026-04-12T10:41:02.916Z</time></trkpt><trkpt lat="53.56321276121232" lon="14.783702603327825"><ele>6.666666666666667</ele><time>2026-04-12T10:41:03.916Z</time></trkpt><trkpt lat="53.56342465760351" lon="14.783717480014191"><ele>4.333333333333333</ele><time>2026-04-12T10:41:04.916Z</time></trkpt><trkpt lat="53.563637075093204" lon="14.78374277241369"><ele>2.0</ele><time>2026-04-12T10:41:05.916Z</time></trkpt><trkpt lat="53.56384886077224" lon="14.783788583011122"><ele>1.0</ele><time>2026-04-12T10:41:06.916Z</time></trkpt><trkpt lat="53.56406125789025" lon="14.783849001082622"><ele>0.0</ele><time>2026-04-12T10:41:07.916Z</time></trkpt><trkpt lat="53.564270346031684" lon="14.783921311111973"><ele>-1.0</ele><time>2026-04-12T10:41:08.916Z</time></trkpt><trkpt lat="53.56448282247634" lon="14.784014868011043"><ele>-0.5</ele><time>2026-04-12T10:41:09.916Z</time></trkpt><trkpt lat="53.56469778303968" lon="14.784120787334086"><ele>0.0</ele><time>2026-04-12T10:41:10.916Z</time></trkpt><trkpt lat="53.56491550659791" lon="14.784231790195758"><ele>1.0</ele><time>2026-04-12T10:41:11.916Z</time></trkpt><trkpt lat="53.565134475094936" lon="14.784347821943781"><ele>2.0</ele><time>2026-04-12T10:41:12.916Z</time></trkpt><trkpt lat="53.56534820042979" lon="14.784481562832616"><ele>1.6666666666666665</ele><time>2026-04-12T10:41:13.916Z</time></trkpt><trkpt lat="53.565561345874904" lon="14.784596276918242"><ele>1.3333333333333333</ele><time>2026-04-12T10:41:14.916Z</time></trkpt><trkpt lat="53.56576957456096" lon="14.784705820685103"><ele>1.0</ele><time>2026-04-12T10:41:15.916Z</time></trkpt><trkpt lat="53.56597897034634" lon="14.78481348730168"><ele>1.0</ele><time>2026-04-12T10:41:16.916Z</time></trkpt><trkpt lat="53.56618972257683" lon="14.78492602367917"><ele>1.0</ele><time>2026-04-12T10:41:17.916Z</time></trkpt><trkpt lat="53.5664047620779" lon="14.785044084211341"><ele>1.0</ele><time>2026-04-12T10:41:18.916Z</time></trkpt><trkpt lat="53.5666168784854" lon="14.785165505864404"><ele>0.5</ele><time>2026-04-12T10:41:19.916Z</time></trkpt><trkpt lat="53.566827684136285" lon="14.785299417305607"><ele>0.0</ele><time>2026-04-12T10:41:20.916Z</time></trkpt><trkpt lat="53.56703522279538" lon="14.785443834809628"><ele>0.0</ele><time>2026-04-12T10:41:21.916Z</time></trkpt><trkpt lat="53.567245918304025" lon="14.785596922146526"><ele>0.0</ele><time>2026-04-12T10:41:22.916Z</time></trkpt><trkpt lat="53.56745206431329" lon="14.785761599767133"><ele>0.0</ele><time>2026-04-12T10:41:23.916Z</time></trkpt><trkpt lat="53.56765730858818" lon="14.785930708759789"><ele>0.0</ele><time>2026-04-12T10:41:24.916Z</time></trkpt><trkpt lat="53.56785822756296" lon="14.78611158761499"><ele>1.0</ele><time>2026-04-12T10:41:25.916Z</time></trkpt><trkpt lat="53.568056647378086" lon="14.786298224435999"><ele>2.0</ele><time>2026-04-12T10:41:26.916Z</time></trkpt><trkpt lat="53.56825163004761" lon="14.786476533619545"><ele>3.0</ele><time>2026-04-12T10:41:27.916Z</time></trkpt><trkpt lat="53.56844486381967" lon="14.786652510502984"><ele>3.0</ele><time>2026-04-12T10:41:28.916Z</time></trkpt><trkpt lat="53.56863913260044" lon="14.786822791973478"><ele>3.0</ele><time>2026-04-12T10:41:29.916Z</time></trkpt><trkpt lat="53.568834570605205" lon="14.786976732924439"><ele>3.0</ele><time>2026-04-12T10:41:30.916Z</time></trkpt><trkpt lat="53.56903545123734" lon="14.787125908717238"><ele>6.0</ele><time>2026-04-12T10:41:31.916Z</time></trkpt><trkpt lat="53.56923564084879" lon="14.787271994441069"><ele>9.0</ele><time>2026-04-12T10:41:32.916Z</time></trkpt><trkpt lat="53.56943573037122" lon="14.787412847878661"><ele>12.0</ele><time>2026-04-12T10:41:33.916Z</time></trkpt><trkpt lat="53.569642299146494" lon="14.787551949873556"><ele>12.0</ele><time>2026-04-12T10:41:34.916Z</time></trkpt><trkpt lat="53.56984883674414" lon="14.787697606778117"><ele>12.0</ele><time>2026-04-12T10:41:35.916Z</time></trkpt><trkpt lat="53.570062862636085" lon="14.787839296298296"><ele>12.0</ele><time>2026-04-12T10:41:36.916Z</time></trkpt><trkpt lat="53.570273604751165" lon="14.787985778513894"><ele>12.0</ele><time>2026-04-12T10:41:37.916Z</time></trkpt><trkpt lat="53.57048912037046" lon="14.78813341240814"><ele>14.0</ele><time>2026-04-12T10:41:38.916Z</time></trkpt><trkpt lat="53.57070478110824" lon="14.788286885939854"><ele>16.0</ele><time>2026-04-12T10:41:39.916Z</time></trkpt><trkpt lat="53.57091657703966" lon="14.78843071316883"><ele>16.333333333333332</ele><time>2026-04-12T10:41:40.916Z</time></trkpt><trkpt lat="53.5711132700174" lon="14.788564041229534"><ele>16.666666666666668</ele><time>2026-04-12T10:41:41.916Z</time></trkpt><trkpt lat="53.57129378529682" lon="14.78869298149795"><ele>17.0</ele><time>2026-04-12T10:41:42.916Z</time></trkpt><trkpt lat="53.571461487623424" lon="14.788812781899553"><ele>17.333333333333336</ele><time>2026-04-12T10:41:43.916Z</time></trkpt><trkpt lat="53.57162563343419" lon="14.788929015596255"><ele>17.666666666666668</ele><time>2026-04-12T10:41:44.916Z</time></trkpt><trkpt lat="53.571775002197704" lon="14.789036970386737"><ele>18.0</ele><time>2026-04-12T10:41:45.916Z</time></trkpt><trkpt lat="53.57191847267805" lon="14.789136839465643"><ele>17.5</ele><time>2026-04-12T10:41:46.916Z</time></trkpt><trkpt lat="53.57205474335204" lon="14.789231527060434"><ele>17.0</ele><time>2026-04-12T10:41:47.916Z</time></trkpt><trkpt lat="53.57217311484569" lon="14.789312063118137"><ele>16.5</ele><time>2026-04-12T10:41:48.916Z</time></trkpt><trkpt lat="53.572285395361455" lon="14.789391361481123"><ele>16.0</ele><time>2026-04-12T10:41:49.916Z</time></trkpt><trkpt lat="53.572394589541084" lon="14.789475456914332"><ele>15.499999999999998</ele><time>2026-04-12T10:41:50.916Z</time></trkpt><trkpt lat="53.57249940709257" lon="14.789545037738973"><ele>15.0</ele><time>2026-04-12T10:41:51.916Z</time></trkpt><trkpt lat="53.57258759847984" lon="14.789613868958838"><ele>14.5</ele><time>2026-04-12T10:41:52.916Z</time></trkpt><trkpt lat="53.57266333371979" lon="14.789666350563675"><ele>14.0</ele><time>2026-04-12T10:41:53.916Z</time></trkpt><trkpt lat="53.572739139658346" lon="14.7897173623727"><ele>13.499999999999998</ele><time>2026-04-12T10:41:54.916Z</time></trkpt><trkpt lat="53.572809257030535" lon="14.789766828099497"><ele>13.0</ele><time>2026-04-12T10:41:55.916Z</time></trkpt><trkpt lat="53.572872821519105" lon="14.789816811781394"><ele>13.857142857142858</ele><time>2026-04-12T10:41:56.916Z</time></trkpt><trkpt lat="53.572927464788215" lon="14.789870297665441"><ele>14.714285714285715</ele><time>2026-04-12T10:41:57.916Z</time></trkpt><trkpt lat="53.572998736478866" lon="14.789931945933011"><ele>15.571428571428571</ele><time>2026-04-12T10:41:59.916Z</time></trkpt><trkpt lat="53.57305558187091" lon="14.789979072903723"><ele>16.42857142857143</ele><time>2026-04-12T10:42:02.916Z</time></trkpt><trkpt lat="53.57312916228139" lon="14.790027149068083"><ele>17.28571428571429</ele><time>2026-04-12T10:42:05.915Z</time></trkpt><trkpt lat="53.57317045031289" lon="14.790143239648357"><ele>18.142857142857142</ele><time>2026-04-12T10:42:07.915Z</time></trkpt><trkpt lat="53.573142517328215" lon="14.790255915929407"><ele>19.0</ele><time>2026-04-12T10:42:08.915Z</time></trkpt><trkpt lat="53.573091419290186" lon="14.790385009867167"><ele>19.25</ele><time>2026-04-12T10:42:09.915Z</time></trkpt><trkpt lat="53.57305541686635" lon="14.79052835082251"><ele>19.5</ele><time>2026-04-12T10:42:10.915Z</time></trkpt><trkpt lat="53.573004931481506" lon="14.790733513031332"><ele>19.75</ele><time>2026-04-12T10:42:11.915Z</time></trkpt><trkpt lat="53.57294940127671" lon="14.790958112922482"><ele>20.0</ele><time>2026-04-12T10:42:12.915Z</time></trkpt><trkpt lat="53.57288690357777" lon="14.791211349087531"><ele>18.666666666666668</ele><time>2026-04-12T10:42:13.915Z</time></trkpt><trkpt lat="53.57281909792732" lon="14.79150103116612"><ele>17.333333333333332</ele><time>2026-04-12T10:42:14.915Z</time></trkpt><trkpt lat="53.57274690320623" lon="14.791809587958097"><ele>16.0</ele><time>2026-04-12T10:42:15.915Z</time></trkpt><trkpt lat="53.57266872041274" lon="14.792130045456354"><ele>16.0</ele><time>2026-04-12T10:42:16.915Z</time></trkpt><trkpt lat="53.57258865299258" lon="14.792443376378737"><ele>16.0</ele><time>2026-04-12T10:42:17.915Z</time></trkpt><trkpt lat="53.57251305360402" lon="14.792746616266106"><ele>16.0</ele><time>2026-04-12T10:42:18.915Z</time></trkpt><trkpt lat="53.57244228269486" lon="14.793035381607062"><ele>16.0</ele><time>2026-04-12T10:42:19.915Z</time></trkpt><trkpt lat="53.57237661470057" lon="14.793306999148527"><ele>16.0</ele><time>2026-04-12T10:42:20.915Z</time></trkpt><trkpt lat="53.57231628530992" lon="14.793559901373447"><ele>16.0</ele><time>2026-04-12T10:42:21.915Z</time></trkpt><trkpt lat="53.57225804664677" lon="14.793795275922223"><ele>16.666666666666664</ele><time>2026-04-12T10:42:22.915Z</time></trkpt><trkpt lat="53.57219893537051" lon="14.794041933338622"><ele>17.333333333333332</ele><time>2026-04-12T10:42:23.915Z</time></trkpt><trkpt lat="53.57211269973506" lon="14.794280372221264"><ele>18.0</ele><time>2026-04-12T10:42:24.915Z</time></trkpt><trkpt lat="53.572053535294415" lon="14.794517841050787"><ele>17.75</ele><time>2026-04-12T10:42:25.915Z</time></trkpt><trkpt lat="53.57199835107105" lon="14.794740382526289"><ele>17.5</ele><time>2026-04-12T10:42:26.915Z</time></trkpt><trkpt lat="53.57194429748901" lon="14.794957409994593"><ele>17.25</ele><time>2026-04-12T10:42:27.915Z</time></trkpt><trkpt lat="53.571892507989816" lon="14.79516371703136"><ele>17.0</ele><time>2026-04-12T10:42:28.915Z</time></trkpt><trkpt lat="53.571845944565084" lon="14.795349544264381"><ele>17.0</ele><time>2026-04-12T10:42:29.915Z</time></trkpt><trkpt lat="53.57180169868683" lon="14.795527025717934"><ele>17.0</ele><time>2026-04-12T10:42:30.915Z</time></trkpt><trkpt lat="53.57176387999751" lon="14.795679646627041"><ele>17.0</ele><time>2026-04-12T10:42:31.915Z</time></trkpt><trkpt lat="53.571730510408514" lon="14.79581445806059"><ele>17.0</ele><time>2026-04-12T10:42:32.915Z</time></trkpt><trkpt lat="53.57168893123314" lon="14.795982435826868"><ele>17.0</ele><time>2026-04-12T10:42:34.915Z</time></trkpt><trkpt lat="53.57165397331442" lon="14.796123664051093"><ele>17.75</ele><time>2026-04-12T10:42:36.915Z</time></trkpt><trkpt lat="53.571618877760486" lon="14.79626544867443"><ele>18.5</ele><time>2026-04-12T10:42:38.915Z</time></trkpt><trkpt lat="53.57174442979853" lon="14.79632867677594"><ele>19.25</ele><time>2026-04-12T10:42:39.915Z</time></trkpt><trkpt lat="53.57183891926343" lon="14.796397387434247"><ele>20.0</ele><time>2026-04-12T10:42:40.915Z</time></trkpt><trkpt lat="53.57195776756308" lon="14.796463904000394"><ele>19.25</ele><time>2026-04-12T10:42:41.915Z</time></trkpt><trkpt lat="53.57206442333499" lon="14.796569352576789"><ele>18.5</ele><time>2026-04-12T10:42:42.915Z</time></trkpt><trkpt lat="53.57215871162113" lon="14.796732670360866"><ele>17.75</ele><time>2026-04-12T10:42:43.915Z</time></trkpt><trkpt lat="53.57222996539237" lon="14.796953192047587"><ele>17.0</ele><time>2026-04-12T10:42:44.915Z</time></trkpt><trkpt lat="53.5722397945377" lon="14.797229948825692"><ele>15.5</ele><time>2026-04-12T10:42:45.915Z</time></trkpt><trkpt lat="53.572233778177605" lon="14.797487781941838"><ele>14.0</ele><time>2026-04-12T10:42:46.915Z</time></trkpt><trkpt lat="53.572224690244596" lon="14.797745404060631"><ele>12.5</ele><time>2026-04-12T10:42:47.915Z</time></trkpt><trkpt lat="53.57221607360368" lon="14.797975755759134"><ele>11.0</ele><time>2026-04-12T10:42:48.915Z</time></trkpt><trkpt lat="53.5722086515069" lon="14.798200702327394"><ele>11.0</ele><time>2026-04-12T10:42:49.915Z</time></trkpt><trkpt lat="53.572215761004095" lon="14.798432181404374"><ele>11.0</ele><time>2026-04-12T10:42:50.915Z</time></trkpt><trkpt lat="53.572195684542145" lon="14.798670817211345"><ele>11.0</ele><time>2026-04-12T10:42:51.915Z</time></trkpt><trkpt lat="53.57218652304173" lon="14.798910712833642"><ele>11.0</ele><time>2026-04-12T10:42:52.915Z</time></trkpt><trkpt lat="53.572190238621786" lon="14.799158141579445"><ele>12.666666666666666</ele><time>2026-04-12T10:42:53.915Z</time></trkpt><trkpt lat="53.5722108096361" lon="14.799404448460715"><ele>14.333333333333332</ele><time>2026-04-12T10:42:54.915Z</time></trkpt><trkpt lat="53.57226248821625" lon="14.799643978125882"><ele>16.0</ele><time>2026-04-12T10:42:55.915Z</time></trkpt><trkpt lat="53.57234053709568" lon="14.799881165951772"><ele>16.0</ele><time>2026-04-12T10:42:56.915Z</time></trkpt><trkpt lat="53.57244570970837" lon="14.800093435765556"><ele>16.0</ele><time>2026-04-12T10:42:57.915Z</time></trkpt><trkpt lat="53.572583830305994" lon="14.800286702769887"><ele>16.0</ele><time>2026-04-12T10:42:58.915Z</time></trkpt><trkpt lat="53.57274397133971" lon="14.800455724001173"><ele>16.333333333333332</ele><time>2026-04-12T10:42:59.915Z</time></trkpt><trkpt lat="53.572914326273825" lon="14.800605616266589"><ele>16.666666666666668</ele><time>2026-04-12T10:43:00.915Z</time></trkpt><trkpt lat="53.573086489557724" lon="14.800768161179965"><ele>17.0</ele><time>2026-04-12T10:43:01.915Z</time></trkpt><trkpt lat="53.573254505029475" lon="14.800935657060444"><ele>16.666666666666668</ele><time>2026-04-12T10:43:02.915Z</time></trkpt><trkpt lat="53.573424783570985" lon="14.801091050701498"><ele>16.333333333333332</ele><time>2026-04-12T10:43:03.915Z</time></trkpt><trkpt lat="53.57359547952781" lon="14.801242884747843"><ele>16.0</ele><time>2026-04-12T10:43:04.914Z</time></trkpt><trkpt lat="53.573762581040796" lon="14.801396505332265"><ele>15.666666666666666</ele><time>2026-04-12T10:43:05.914Z</time></trkpt><trkpt lat="53.573922973964336" lon="14.801543009941348"><ele>15.333333333333332</ele><time>2026-04-12T10:43:06.914Z</time></trkpt><trkpt lat="53.5740818295155" lon="14.801677822612996"><ele>15.0</ele><time>2026-04-12T10:43:07.914Z</time></trkpt><trkpt lat="53.57424832577674" lon="14.801786530693436"><ele>14.333333333333332</ele><time>2026-04-12T10:43:08.914Z</time></trkpt><trkpt lat="53.574421253464614" lon="14.801852248849347"><ele>13.666666666666666</ele><time>2026-04-12T10:43:09.914Z</time></trkpt><trkpt lat="53.57460070176748" lon="14.801854574977439"><ele>13.0</ele><time>2026-04-12T10:43:10.914Z</time></trkpt><trkpt lat="53.574784925940854" lon="14.801811376231283"><ele>13.0</ele><time>2026-04-12T10:43:11.914Z</time></trkpt><trkpt lat="53.574972430169645" lon="14.801711246219122"><ele>13.0</ele><time>2026-04-12T10:43:12.914Z</time></trkpt><trkpt lat="53.575162677460185" lon="14.80159427332582"><ele>13.0</ele><time>2026-04-12T10:43:13.914Z</time></trkpt><trkpt lat="53.57535902642063" lon="14.8014840105656"><ele>12.333333333333332</ele><time>2026-04-12T10:43:14.914Z</time></trkpt><trkpt lat="53.5755616335027" lon="14.801350728452324"><ele>11.666666666666666</ele><time>2026-04-12T10:43:15.914Z</time></trkpt><trkpt lat="53.575767257079406" lon="14.801218376680653"><ele>11.0</ele><time>2026-04-12T10:43:16.914Z</time></trkpt><trkpt lat="53.575975869541836" lon="14.801090142568524"><ele>11.666666666666666</ele><time>2026-04-12T10:43:17.914Z</time></trkpt><trkpt lat="53.57618444343644" lon="14.800960126865723"><ele>12.333333333333332</ele><time>2026-04-12T10:43:18.914Z</time></trkpt><trkpt lat="53.576376731832916" lon="14.800835023987522"><ele>13.0</ele><time>2026-04-12T10:43:19.914Z</time></trkpt><trkpt lat="53.57655785744255" lon="14.800726140198135"><ele>13.0</ele><time>2026-04-12T10:43:20.914Z</time></trkpt><trkpt lat="53.576736442746856" lon="14.800623032344426"><ele>13.0</ele><time>2026-04-12T10:43:21.914Z</time></trkpt><trkpt lat="53.57691049525648" lon="14.800515453335574"><ele>13.0</ele><time>2026-04-12T10:43:22.914Z</time></trkpt><trkpt lat="53.577088916297406" lon="14.800403201536472"><ele>12.666666666666666</ele><time>2026-04-12T10:43:23.914Z</time></trkpt><trkpt lat="53.57727409034827" lon="14.800293749255985"><ele>12.333333333333332</ele><time>2026-04-12T10:43:24.914Z</time></trkpt><trkpt lat="53.57746571772212" lon="14.800204413795047"><ele>12.0</ele><time>2026-04-12T10:43:25.914Z</time></trkpt><trkpt lat="53.57766330653536" lon="14.800157185431468"><ele>10.333333333333334</ele><time>2026-04-12T10:43:26.914Z</time></trkpt><trkpt lat="53.57786102282492" lon="14.800134417907774"><ele>8.666666666666668</ele><time>2026-04-12T10:43:27.914Z</time></trkpt><trkpt lat="53.57806625880205" lon="14.800129143228824"><ele>7.0</ele><time>2026-04-12T10:43:28.914Z</time></trkpt><trkpt lat="53.578270207380434" lon="14.80012113679053"><ele>7.0</ele><time>2026-04-12T10:43:29.914Z</time></trkpt><trkpt lat="53.578465601762545" lon="14.800106949499698"><ele>7.0</ele><time>2026-04-12T10:43:30.914Z</time></trkpt><trkpt lat="53.57865205012023" lon="14.80009509395996"><ele>7.0</ele><time>2026-04-12T10:43:31.914Z</time></trkpt><trkpt lat="53.57883185631614" lon="14.800078537046732"><ele>7.0</ele><time>2026-04-12T10:43:32.914Z</time></trkpt><trkpt lat="53.578999637719654" lon="14.80006571896079"><ele>7.0</ele><time>2026-04-12T10:43:33.914Z</time></trkpt><trkpt lat="53.57915416936526" lon="14.800051100206623"><ele>7.0</ele><time>2026-04-12T10:43:34.914Z</time></trkpt><trkpt lat="53.57929507518612" lon="14.800028524764755"><ele>7.0</ele><time>2026-04-12T10:43:35.914Z</time></trkpt><trkpt lat="53.57942411577572" lon="14.800011102757676"><ele>7.0</ele><time>2026-04-12T10:43:36.914Z</time></trkpt><trkpt lat="53.57956652013934" lon="14.800002686869755"><ele>7.0</ele><time>2026-04-12T10:43:37.914Z</time></trkpt><trkpt lat="53.57971833422698" lon="14.799991948546404"><ele>7.0</ele><time>2026-04-12T10:43:38.914Z</time></trkpt><trkpt lat="53.57984594053317" lon="14.7999817424652"><ele>7.333333333333334</ele><time>2026-04-12T10:43:39.914Z</time></trkpt><trkpt lat="53.579962076472064" lon="14.799984593326059"><ele>7.666666666666667</ele><time>2026-04-12T10:43:40.914Z</time></trkpt><trkpt lat="53.58005476462232" lon="14.799992703757319"><ele>8.0</ele><time>2026-04-12T10:43:41.914Z</time></trkpt><trkpt lat="53.58013801037773" lon="14.800012721672816"><ele>8.333333333333334</ele><time>2026-04-12T10:43:42.914Z</time></trkpt><trkpt lat="53.58021756724667" lon="14.800040618644644"><ele>8.666666666666666</ele><time>2026-04-12T10:43:43.914Z</time></trkpt><trkpt lat="53.58028336552261" lon="14.800071177922764"><ele>9.0</ele><time>2026-04-12T10:43:44.914Z</time></trkpt><trkpt lat="53.58039539165251" lon="14.80012190552606"><ele>9.0</ele><time>2026-04-12T10:43:46.914Z</time></trkpt><trkpt lat="53.58047486968934" lon="14.800156733781835"><ele>9.0</ele><time>2026-04-12T10:43:48.914Z</time></trkpt><trkpt lat="53.58054298493143" lon="14.800192858607645"><ele>9.0</ele><time>2026-04-12T10:43:51.914Z</time></trkpt><trkpt lat="53.58060300777628" lon="14.800244625076708"><ele>9.0</ele><time>2026-04-12T10:44:09.914Z</time></trkpt><trkpt lat="53.58065948346517" lon="14.800309884205694"><ele>9.0</ele><time>2026-04-12T10:44:11.912Z</time></trkpt><trkpt lat="53.580760950740945" lon="14.800103274650864"><ele>9.0</ele><time>2026-04-12T10:44:12.912Z</time></trkpt><trkpt lat="53.5808322512127" lon="14.799974263166876"><ele>9.0</ele><time>2026-04-12T10:44:13.912Z</time></trkpt><trkpt lat="53.5809153864085" lon="14.799823954795352"><ele>9.0</ele><time>2026-04-12T10:44:14.912Z</time></trkpt><trkpt lat="53.58100193180493" lon="14.79966443330501"><ele>9.0</ele><time>2026-04-12T10:44:15.912Z</time></trkpt><trkpt lat="53.58109514856837" lon="14.79950144563273"><ele>9.0</ele><time>2026-04-12T10:44:16.912Z</time></trkpt><trkpt lat="53.58118473656524" lon="14.799349101822466"><ele>9.25</ele><time>2026-04-12T10:44:17.912Z</time></trkpt><trkpt lat="53.58127721618804" lon="14.799185392227646"><ele>9.5</ele><time>2026-04-12T10:44:18.912Z</time></trkpt><trkpt lat="53.58136918548572" lon="14.799016984770349"><ele>9.75</ele><time>2026-04-12T10:44:19.912Z</time></trkpt><trkpt lat="53.581463411277156" lon="14.798849889973697"><ele>10.0</ele><time>2026-04-12T10:44:20.912Z</time></trkpt><trkpt lat="53.58155871054454" lon="14.798685411282662"><ele>10.0</ele><time>2026-04-12T10:44:21.912Z</time></trkpt><trkpt lat="53.58165145964981" lon="14.798520010170739"><ele>10.0</ele><time>2026-04-12T10:44:22.912Z</time></trkpt><trkpt lat="53.58174008698187" lon="14.798360299069572"><ele>10.0</ele><time>2026-04-12T10:44:23.912Z</time></trkpt><trkpt lat="53.58183767041728" lon="14.798194338863384"><ele>10.0</ele><time>2026-04-12T10:44:24.912Z</time></trkpt><trkpt lat="53.581942184959054" lon="14.798015762160745"><ele>9.333333333333334</ele><time>2026-04-12T10:44:25.912Z</time></trkpt><trkpt lat="53.58204371710297" lon="14.797833167255742"><ele>8.666666666666666</ele><time>2026-04-12T10:44:26.912Z</time></trkpt><trkpt lat="53.58214741715196" lon="14.797645457171628"><ele>8.0</ele><time>2026-04-12T10:44:27.912Z</time></trkpt><trkpt lat="53.5822509111278" lon="14.79745585121053"><ele>8.0</ele><time>2026-04-12T10:44:28.912Z</time></trkpt><trkpt lat="53.58235526689699" lon="14.797270912672877"><ele>8.0</ele><time>2026-04-12T10:44:29.912Z</time></trkpt><trkpt lat="53.582461282214986" lon="14.79708463728744"><ele>8.0</ele><time>2026-04-12T10:44:30.912Z</time></trkpt><trkpt lat="53.58256612018583" lon="14.79689998095132"><ele>8.25</ele><time>2026-04-12T10:44:31.912Z</time></trkpt><trkpt lat="53.58266669988227" lon="14.796724365238275"><ele>8.5</ele><time>2026-04-12T10:44:32.912Z</time></trkpt><trkpt lat="53.58276375836619" lon="14.796549917993115"><ele>8.75</ele><time>2026-04-12T10:44:33.912Z</time></trkpt><trkpt lat="53.58285788806442" lon="14.79638263635782"><ele>9.0</ele><time>2026-04-12T10:44:34.912Z</time></trkpt><trkpt lat="53.58295290607644" lon="14.796218562343107"><ele>9.0</ele><time>2026-04-12T10:44:35.912Z</time></trkpt><trkpt lat="53.58305060600618" lon="14.796051560151222"><ele>9.0</ele><time>2026-04-12T10:44:36.912Z</time></trkpt><trkpt lat="53.58315028846035" lon="14.795878725819254"><ele>9.0</ele><time>2026-04-12T10:44:37.912Z</time></trkpt><trkpt lat="53.58325302415319" lon="14.795703447568389"><ele>9.0</ele><time>2026-04-12T10:44:38.912Z</time></trkpt><trkpt lat="53.58335784824052" lon="14.795529554870239"><ele>9.0</ele><time>2026-04-12T10:44:39.912Z</time></trkpt><trkpt lat="53.583458467622286" lon="14.795345920995816"><ele>9.0</ele><time>2026-04-12T10:44:40.912Z</time></trkpt><trkpt lat="53.58355744385013" lon="14.795167177658652"><ele>9.0</ele><time>2026-04-12T10:44:41.912Z</time></trkpt><trkpt lat="53.5836547814798" lon="14.79500120216557"><ele>9.0</ele><time>2026-04-12T10:44:42.912Z</time></trkpt><trkpt lat="53.583746456211976" lon="14.794836011270895"><ele>9.0</ele><time>2026-04-12T10:44:43.912Z</time></trkpt><trkpt lat="53.58384172943579" lon="14.794661646777168"><ele>9.0</ele><time>2026-04-12T10:44:44.912Z</time></trkpt><trkpt lat="53.58394124876894" lon="14.794480346213282"><ele>9.0</ele><time>2026-04-12T10:44:45.912Z</time></trkpt><trkpt lat="53.58404839073661" lon="14.794299746671852"><ele>9.0</ele><time>2026-04-12T10:44:46.912Z</time></trkpt><trkpt lat="53.58415247005112" lon="14.794129268563324"><ele>8.75</ele><time>2026-04-12T10:44:47.912Z</time></trkpt><trkpt lat="53.58425862018837" lon="14.793970160047872"><ele>8.5</ele><time>2026-04-12T10:44:48.912Z</time></trkpt><trkpt lat="53.584367582716034" lon="14.793822593503167"><ele>8.25</ele><time>2026-04-12T10:44:49.912Z</time></trkpt><trkpt lat="53.58448394347154" lon="14.793682093022342"><ele>8.0</ele><time>2026-04-12T10:44:50.912Z</time></trkpt><trkpt lat="53.584607691177034" lon="14.793549198987739"><ele>8.0</ele><time>2026-04-12T10:44:51.912Z</time></trkpt><trkpt lat="53.584737183891136" lon="14.793432851042027"><ele>8.0</ele><time>2026-04-12T10:44:52.912Z</time></trkpt><trkpt lat="53.58487528959498" lon="14.793336232671283"><ele>8.0</ele><time>2026-04-12T10:44:53.912Z</time></trkpt><trkpt lat="53.58501912795454" lon="14.79325424795238"><ele>8.0</ele><time>2026-04-12T10:44:54.912Z</time></trkpt><trkpt lat="53.58516287217577" lon="14.793193671230735"><ele>8.0</ele><time>2026-04-12T10:44:55.912Z</time></trkpt><trkpt lat="53.58530860423793" lon="14.793150391934187"><ele>8.0</ele><time>2026-04-12T10:44:56.912Z</time></trkpt><trkpt lat="53.5854538219003" lon="14.793114984753103"><ele>8.0</ele><time>2026-04-12T10:44:57.912Z</time></trkpt><trkpt lat="53.58559983911601" lon="14.793092685022854"><ele>8.0</ele><time>2026-04-12T10:44:58.912Z</time></trkpt><trkpt lat="53.58574864639582" lon="14.793087928159414"><ele>8.0</ele><time>2026-04-12T10:44:59.912Z</time></trkpt><trkpt lat="53.58590008678092" lon="14.79309576312768"><ele>8.0</ele><time>2026-04-12T10:45:00.912Z</time></trkpt><trkpt lat="53.58605610835309" lon="14.793118883639229"><ele>8.0</ele><time>2026-04-12T10:45:01.912Z</time></trkpt><trkpt lat="53.586211776688316" lon="14.793144593280049"><ele>8.0</ele><time>2026-04-12T10:45:02.912Z</time></trkpt><trkpt lat="53.586360434774434" lon="14.793164219762446"><ele>8.0</ele><time>2026-04-12T10:45:03.912Z</time></trkpt><trkpt lat="53.58650805791105" lon="14.793185152713583"><ele>8.0</ele><time>2026-04-12T10:45:04.912Z</time></trkpt><trkpt lat="53.58665410589408" lon="14.793213339905071"><ele>8.0</ele><time>2026-04-12T10:45:05.912Z</time></trkpt><trkpt lat="53.5867980634339" lon="14.793235607756557"><ele>8.0</ele><time>2026-04-12T10:45:06.912Z</time></trkpt><trkpt lat="53.58694512578056" lon="14.793258863817227"><ele>8.0</ele><time>2026-04-12T10:45:07.912Z</time></trkpt><trkpt lat="53.58708854484581" lon="14.793280136640542"><ele>8.0</ele><time>2026-04-12T10:45:08.912Z</time></trkpt><trkpt lat="53.58723163552552" lon="14.79330153968521"><ele>8.0</ele><time>2026-04-12T10:45:09.912Z</time></trkpt><trkpt lat="53.58738453111057" lon="14.793324409037767"><ele>8.0</ele><time>2026-04-12T10:45:10.912Z</time></trkpt><trkpt lat="53.58754254410223" lon="14.793345457889824"><ele>8.0</ele><time>2026-04-12T10:45:11.912Z</time></trkpt><trkpt lat="53.58770616791552" lon="14.793372314544024"><ele>8.0</ele><time>2026-04-12T10:45:12.912Z</time></trkpt><trkpt lat="53.5878766809525" lon="14.793399189637931"><ele>8.0</ele><time>2026-04-12T10:45:13.912Z</time></trkpt><trkpt lat="53.58804910258459" lon="14.793425565698064"><ele>8.0</ele><time>2026-04-12T10:45:14.912Z</time></trkpt><trkpt lat="53.588213114656085" lon="14.793447026900582"><ele>8.0</ele><time>2026-04-12T10:45:15.912Z</time></trkpt><trkpt lat="53.58836451404642" lon="14.793471676558564"><ele>8.0</ele><time>2026-04-12T10:45:16.912Z</time></trkpt><trkpt lat="53.58851261880907" lon="14.793493371829882"><ele>8.0</ele><time>2026-04-12T10:45:17.912Z</time></trkpt><trkpt lat="53.58865768858103" lon="14.793510778840075"><ele>8.0</ele><time>2026-04-12T10:45:18.912Z</time></trkpt><trkpt lat="53.58879169185424" lon="14.793533496250658"><ele>8.0</ele><time>2026-04-12T10:45:19.912Z</time></trkpt><trkpt lat="53.58891995781977" lon="14.793554248547366"><ele>8.25</ele><time>2026-04-12T10:45:20.912Z</time></trkpt><trkpt lat="53.58904312382194" lon="14.79357534953616"><ele>8.5</ele><time>2026-04-12T10:45:21.912Z</time></trkpt><trkpt lat="53.589161138669255" lon="14.79359210441118"><ele>8.75</ele><time>2026-04-12T10:45:22.912Z</time></trkpt><trkpt lat="53.58927745256978" lon="14.793607755479968"><ele>9.0</ele><time>2026-04-12T10:45:23.912Z</time></trkpt><trkpt lat="53.589397938734635" lon="14.79362444940738"><ele>8.75</ele><time>2026-04-12T10:45:24.912Z</time></trkpt><trkpt lat="53.589521808112735" lon="14.793642246491848"><ele>8.5</ele><time>2026-04-12T10:45:25.912Z</time></trkpt><trkpt lat="53.589645437737126" lon="14.79366103542394"><ele>8.25</ele><time>2026-04-12T10:45:26.912Z</time></trkpt><trkpt lat="53.5897669512977" lon="14.793681400229746"><ele>8.0</ele><time>2026-04-12T10:45:27.912Z</time></trkpt><trkpt lat="53.589887606025606" lon="14.793697377916411"><ele>8.0</ele><time>2026-04-12T10:45:28.912Z</time></trkpt><trkpt lat="53.59001374579882" lon="14.793742024695156"><ele>8.0</ele><time>2026-04-12T10:45:29.912Z</time></trkpt><trkpt lat="53.590143201635485" lon="14.793763371508781"><ele>8.0</ele><time>2026-04-12T10:45:30.912Z</time></trkpt><trkpt lat="53.59026641723203" lon="14.79378310877941"><ele>8.0</ele><time>2026-04-12T10:45:31.912Z</time></trkpt><trkpt lat="53.590390117535165" lon="14.793800490169629"><ele>8.25</ele><time>2026-04-12T10:45:32.912Z</time></trkpt><trkpt lat="53.59052536744874" lon="14.793818483002402"><ele>8.5</ele><time>2026-04-12T10:45:33.912Z</time></trkpt><trkpt lat="53.59067393829091" lon="14.793837448801966"><ele>8.75</ele><time>2026-04-12T10:45:34.912Z</time></trkpt><trkpt lat="53.590833689696815" lon="14.79383363612544"><ele>9.0</ele><time>2026-04-12T10:45:35.912Z</time></trkpt><trkpt lat="53.59099416906185" lon="14.793869722261482"><ele>9.0</ele><time>2026-04-12T10:45:36.912Z</time></trkpt><trkpt lat="53.591155314669614" lon="14.793894244800855"><ele>9.0</ele><time>2026-04-12T10:45:37.912Z</time></trkpt><trkpt lat="53.591317182206595" lon="14.793921033747196"><ele>9.0</ele><time>2026-04-12T10:45:38.912Z</time></trkpt><trkpt lat="53.5914804593705" lon="14.793941103802538"><ele>9.0</ele><time>2026-04-12T10:45:39.912Z</time></trkpt><trkpt lat="53.59164720460429" lon="14.793962528860765"><ele>9.0</ele><time>2026-04-12T10:45:40.912Z</time></trkpt><trkpt lat="53.59179974800193" lon="14.793986370980774"><ele>9.0</ele><time>2026-04-12T10:45:41.912Z</time></trkpt><trkpt lat="53.59194647876602" lon="14.794010819548594"><ele>9.25</ele><time>2026-04-12T10:45:42.912Z</time></trkpt><trkpt lat="53.59208341912659" lon="14.79404024973175"><ele>9.5</ele><time>2026-04-12T10:45:43.912Z</time></trkpt><trkpt lat="53.59221296929831" lon="14.794056408537523"><ele>9.75</ele><time>2026-04-12T10:45:44.912Z</time></trkpt><trkpt lat="53.59234760944138" lon="14.794067283352009"><ele>10.0</ele><time>2026-04-12T10:45:45.912Z</time></trkpt><trkpt lat="53.59248582767778" lon="14.794087776597248"><ele>10.0</ele><time>2026-04-12T10:45:46.912Z</time></trkpt><trkpt lat="53.59263094337669" lon="14.794107390161933"><ele>10.0</ele><time>2026-04-12T10:45:47.912Z</time></trkpt><trkpt lat="53.592767667431175" lon="14.794121740405297"><ele>10.0</ele><time>2026-04-12T10:45:48.912Z</time></trkpt><trkpt lat="53.592902148719574" lon="14.794138435376446"><ele>10.0</ele><time>2026-04-12T10:45:49.912Z</time></trkpt><trkpt lat="53.59303923799779" lon="14.794153870616308"><ele>11.0</ele><time>2026-04-12T10:45:50.912Z</time></trkpt><trkpt lat="53.59317117822769" lon="14.79416746141901"><ele>12.0</ele><time>2026-04-12T10:45:51.912Z</time></trkpt><trkpt lat="53.5932962649941" lon="14.794181399015882"><ele>13.0</ele><time>2026-04-12T10:45:52.912Z</time></trkpt><trkpt lat="53.593419493432044" lon="14.794192544337017"><ele>14.0</ele><time>2026-04-12T10:45:53.912Z</time></trkpt><trkpt lat="53.593526050154615" lon="14.794203372987973"><ele>14.000000000000002</ele><time>2026-04-12T10:45:54.912Z</time></trkpt><trkpt lat="53.593627118125774" lon="14.794252727187098"><ele>14.0</ele><time>2026-04-12T10:45:55.912Z</time></trkpt><trkpt lat="53.59371246011832" lon="14.794295413834494"><ele>14.0</ele><time>2026-04-12T10:45:56.912Z</time></trkpt><trkpt lat="53.59377278921208" lon="14.79436773750423"><ele>14.0</ele><time>2026-04-12T10:45:57.912Z</time></trkpt><trkpt lat="53.59377077586138" lon="14.794514782348138"><ele>14.000000000000002</ele><time>2026-04-12T10:45:58.912Z</time></trkpt><trkpt lat="53.59371811411574" lon="14.794638125749474"><ele>14.0</ele><time>2026-04-12T10:45:59.912Z</time></trkpt><trkpt lat="53.59369062561239" lon="14.794802820281111"><ele>14.5</ele><time>2026-04-12T10:46:00.912Z</time></trkpt><trkpt lat="53.59365128203135" lon="14.795016973086861"><ele>15.0</ele><time>2026-04-12T10:46:01.912Z</time></trkpt><trkpt lat="53.59361368242589" lon="14.795231879431043"><ele>15.5</ele><time>2026-04-12T10:46:02.912Z</time></trkpt><trkpt lat="53.59357375107224" lon="14.795480443414835"><ele>16.0</ele><time>2026-04-12T10:46:03.912Z</time></trkpt><trkpt lat="53.59353460479485" lon="14.79574486570841"><ele>16.666666666666664</ele><time>2026-04-12T10:46:04.912Z</time></trkpt><trkpt lat="53.59349475645026" lon="14.796026950879375"><ele>17.333333333333332</ele><time>2026-04-12T10:46:05.912Z</time></trkpt><trkpt lat="53.593453737347915" lon="14.796321494568181"><ele>18.0</ele><time>2026-04-12T10:46:06.912Z</time></trkpt><trkpt lat="53.59341045913166" lon="14.796636574013332"><ele>18.666666666666668</ele><time>2026-04-12T10:46:07.912Z</time></trkpt><trkpt lat="53.59336724991437" lon="14.796954343554516"><ele>19.333333333333336</ele><time>2026-04-12T10:46:08.912Z</time></trkpt><trkpt lat="53.59332570827953" lon="14.79726225260439"><ele>20.0</ele><time>2026-04-12T10:46:09.912Z</time></trkpt><trkpt lat="53.59328273850764" lon="14.797580246229868"><ele>20.0</ele><time>2026-04-12T10:46:10.912Z</time></trkpt><trkpt lat="53.593239135516036" lon="14.79790762339605"><ele>20.0</ele><time>2026-04-12T10:46:11.912Z</time></trkpt><trkpt lat="53.59319392949986" lon="14.798248127869092"><ele>20.0</ele><time>2026-04-12T10:46:12.912Z</time></trkpt><trkpt lat="53.59315031907723" lon="14.798590390980872"><ele>20.0</ele><time>2026-04-12T10:46:13.912Z</time></trkpt><trkpt lat="53.593111850674376" lon="14.798911106497995"><ele>20.0</ele><time>2026-04-12T10:46:14.912Z</time></trkpt><trkpt lat="53.593074632816794" lon="14.799225734732989"><ele>20.0</ele><time>2026-04-12T10:46:15.912Z</time></trkpt><trkpt lat="53.593037299112694" lon="14.799540236239501"><ele>20.0</ele><time>2026-04-12T10:46:16.912Z</time></trkpt><trkpt lat="53.59300069992759" lon="14.799854707467228"><ele>20.0</ele><time>2026-04-12T10:46:17.91Z</time></trkpt><trkpt lat="53.592965149216205" lon="14.800166523935948"><ele>20.0</ele><time>2026-04-12T10:46:18.909Z</time></trkpt><trkpt lat="53.59292984428204" lon="14.800477364617299"><ele>19.666666666666668</ele><time>2026-04-12T10:46:19.909Z</time></trkpt><trkpt lat="53.59289374704623" lon="14.800794487745392"><ele>19.333333333333332</ele><time>2026-04-12T10:46:20.91Z</time></trkpt><trkpt lat="53.592856740861215" lon="14.801105530026398"><ele>19.0</ele><time>2026-04-12T10:46:21.91Z</time></trkpt><trkpt lat="53.592828153384694" lon="14.801414266005855"><ele>19.0</ele><time>2026-04-12T10:46:22.911Z</time></trkpt><trkpt lat="53.59277922220918" lon="14.801705188721778"><ele>19.0</ele><time>2026-04-12T10:46:23.911Z</time></trkpt><trkpt lat="53.59274594209813" lon="14.802003843737259"><ele>19.0</ele><time>2026-04-12T10:46:24.911Z</time></trkpt><trkpt lat="53.59270998772396" lon="14.802260214213844"><ele>18.75</ele><time>2026-04-12T10:46:25.912Z</time></trkpt><trkpt lat="53.5926761775363" lon="14.802509448551787"><ele>18.5</ele><time>2026-04-12T10:46:26.913Z</time></trkpt><trkpt lat="53.59264167413771" lon="14.802736627031026"><ele>18.25</ele><time>2026-04-12T10:46:27.913Z</time></trkpt><trkpt lat="53.59260684622464" lon="14.80295026923823"><ele>18.0</ele><time>2026-04-12T10:46:28.914Z</time></trkpt><trkpt lat="53.592572736940234" lon="14.803150979128388"><ele>18.0</ele><time>2026-04-12T10:46:29.914Z</time></trkpt><trkpt lat="53.59254283256094" lon="14.803340805068094"><ele>18.0</ele><time>2026-04-12T10:46:30.914Z</time></trkpt><trkpt lat="53.59248683384229" lon="14.803498603635388"><ele>18.0</ele><time>2026-04-12T10:46:31.915Z</time></trkpt><trkpt lat="53.59246235482969" lon="14.803645206521168"><ele>18.0</ele><time>2026-04-12T10:46:32.915Z</time></trkpt><trkpt lat="53.592440289569815" lon="14.803775687512491"><ele>18.0</ele><time>2026-04-12T10:46:33.915Z</time></trkpt><trkpt lat="53.59241831070021" lon="14.803903567901767"><ele>18.0</ele><time>2026-04-12T10:46:34.915Z</time></trkpt><trkpt lat="53.59239048212377" lon="14.804068468344408"><ele>18.0</ele><time>2026-04-12T10:46:35.916Z</time></trkpt><trkpt lat="53.59237302457253" lon="14.80422340052199"><ele>18.0</ele><time>2026-04-12T10:46:36.916Z</time></trkpt><trkpt lat="53.59233881824239" lon="14.804388989593747"><ele>18.0</ele><time>2026-04-12T10:46:37.916Z</time></trkpt><trkpt lat="53.59231066571807" lon="14.804546096504295"><ele>18.0</ele><time>2026-04-12T10:46:38.916Z</time></trkpt><trkpt lat="53.59228725433145" lon="14.804693956780197"><ele>18.4</ele><time>2026-04-12T10:46:39.916Z</time></trkpt><trkpt lat="53.592259587558566" lon="14.804859517627353"><ele>18.8</ele><time>2026-04-12T10:46:40.917Z</time></trkpt><trkpt lat="53.59223124238601" lon="14.805041157194873"><ele>19.2</ele><time>2026-04-12T10:46:41.917Z</time></trkpt><trkpt lat="53.59220928189259" lon="14.805205730864524"><ele>19.6</ele><time>2026-04-12T10:46:42.917Z</time></trkpt><trkpt lat="53.592189593037375" lon="14.805367067799015"><ele>20.0</ele><time>2026-04-12T10:46:43.917Z</time></trkpt><trkpt lat="53.59218609991201" lon="14.8055194372961"><ele>21.0</ele><time>2026-04-12T10:46:44.917Z</time></trkpt><trkpt lat="53.592185103100746" lon="14.805697326664077"><ele>22.0</ele><time>2026-04-12T10:46:45.917Z</time></trkpt><trkpt lat="53.592185630689485" lon="14.805866232387132"><ele>23.0</ele><time>2026-04-12T10:46:46.917Z</time></trkpt><trkpt lat="53.592193152512294" lon="14.806017045111155"><ele>24.0</ele><time>2026-04-12T10:46:47.917Z</time></trkpt><trkpt lat="53.59218544948713" lon="14.806180730094006"><ele>25.0</ele><time>2026-04-12T10:46:48.918Z</time></trkpt><trkpt lat="53.592169029572176" lon="14.806371851241648"><ele>25.6</ele><time>2026-04-12T10:46:49.918Z</time></trkpt><trkpt lat="53.59216123363487" lon="14.806566704171951"><ele>26.2</ele><time>2026-04-12T10:46:50.918Z</time></trkpt><trkpt lat="53.59215509082145" lon="14.806741391574063"><ele>26.799999999999997</ele><time>2026-04-12T10:46:51.918Z</time></trkpt><trkpt lat="53.59212534646321" lon="14.806929532158112"><ele>27.4</ele><time>2026-04-12T10:46:52.918Z</time></trkpt><trkpt lat="53.5921011143037" lon="14.807101474351734"><ele>28.0</ele><time>2026-04-12T10:46:53.918Z</time></trkpt><trkpt lat="53.59208851260487" lon="14.807281193784085"><ele>28.0</ele><time>2026-04-12T10:46:54.918Z</time></trkpt><trkpt lat="53.59206795134331" lon="14.80746742975395"><ele>27.999999999999996</ele><time>2026-04-12T10:46:55.918Z</time></trkpt><trkpt lat="53.592046098859626" lon="14.807646475677155"><ele>27.999999999999996</ele><time>2026-04-12T10:46:56.918Z</time></trkpt><trkpt lat="53.59202694533767" lon="14.807839601204838"><ele>28.0</ele><time>2026-04-12T10:46:57.918Z</time></trkpt><trkpt lat="53.59200945076639" lon="14.807983916430326"><ele>28.0</ele><time>2026-04-12T10:46:58.918Z</time></trkpt><trkpt lat="53.591999454144634" lon="14.808162085509409"><ele>27.799999999999997</ele><time>2026-04-12T10:46:59.918Z</time></trkpt><trkpt lat="53.59198344147514" lon="14.808358980528352"><ele>27.599999999999998</ele><time>2026-04-12T10:47:00.918Z</time></trkpt><trkpt lat="53.59196050919156" lon="14.808536757163065"><ele>27.400000000000002</ele><time>2026-04-12T10:47:01.918Z</time></trkpt><trkpt lat="53.59193353774608" lon="14.808704564491006"><ele>27.200000000000003</ele><time>2026-04-12T10:47:02.918Z</time></trkpt><trkpt lat="53.59189761692878" lon="14.808877716437111"><ele>27.0</ele><time>2026-04-12T10:47:03.918Z</time></trkpt><trkpt lat="53.59186068153938" lon="14.809038339491819"><ele>27.0</ele><time>2026-04-12T10:47:04.918Z</time></trkpt><trkpt lat="53.59182835320348" lon="14.809218883067958"><ele>27.0</ele><time>2026-04-12T10:47:05.918Z</time></trkpt><trkpt lat="53.591795488112076" lon="14.809464168985873"><ele>27.0</ele><time>2026-04-12T10:47:06.919Z</time></trkpt><trkpt lat="53.59176063198517" lon="14.809738206656892"><ele>27.0</ele><time>2026-04-12T10:47:07.919Z</time></trkpt><trkpt lat="53.591729464581086" lon="14.809995338533579"><ele>27.25</ele><time>2026-04-12T10:47:08.919Z</time></trkpt><trkpt lat="53.59169850609283" lon="14.810237787569845"><ele>27.5</ele><time>2026-04-12T10:47:09.919Z</time></trkpt><trkpt lat="53.591680392982994" lon="14.810454967272104"><ele>27.75</ele><time>2026-04-12T10:47:10.919Z</time></trkpt><trkpt lat="53.5916414216225" lon="14.810657905217093"><ele>28.0</ele><time>2026-04-12T10:47:11.919Z</time></trkpt><trkpt lat="53.59161184910134" lon="14.810862046116926"><ele>27.799999999999997</ele><time>2026-04-12T10:47:12.919Z</time></trkpt><trkpt lat="53.591607404884755" lon="14.811045058412256"><ele>27.599999999999998</ele><time>2026-04-12T10:47:13.919Z</time></trkpt><trkpt lat="53.5915909321657" lon="14.81123734516244"><ele>27.400000000000002</ele><time>2026-04-12T10:47:14.919Z</time></trkpt><trkpt lat="53.59156719978505" lon="14.811424817961054"><ele>27.200000000000003</ele><time>2026-04-12T10:47:15.919Z</time></trkpt><trkpt lat="53.59152655103727" lon="14.811579491138968"><ele>27.0</ele><time>2026-04-12T10:47:16.919Z</time></trkpt><trkpt lat="53.591473544903806" lon="14.81173462048289"><ele>26.6</ele><time>2026-04-12T10:47:17.919Z</time></trkpt><trkpt lat="53.591428057608056" lon="14.811917994997506"><ele>26.200000000000003</ele><time>2026-04-12T10:47:18.919Z</time></trkpt><trkpt lat="53.59140908696737" lon="14.812064090918332"><ele>25.8</ele><time>2026-04-12T10:47:19.919Z</time></trkpt><trkpt lat="53.59139763592878" lon="14.81225352989132"><ele>25.4</ele><time>2026-04-12T10:47:20.919Z</time></trkpt><trkpt lat="53.59138618419245" lon="14.81244492689405"><ele>25.0</ele><time>2026-04-12T10:47:21.919Z</time></trkpt><trkpt lat="53.59138686666079" lon="14.812643471262266"><ele>25.0</ele><time>2026-04-12T10:47:22.919Z</time></trkpt><trkpt lat="53.591378665145584" lon="14.812836919057927"><ele>25.0</ele><time>2026-04-12T10:47:23.919Z</time></trkpt><trkpt lat="53.59135772817611" lon="14.813042823998128"><ele>25.0</ele><time>2026-04-12T10:47:24.919Z</time></trkpt><trkpt lat="53.59133199803339" lon="14.813201613767282"><ele>25.0</ele><time>2026-04-12T10:47:25.919Z</time></trkpt><trkpt lat="53.59131507144659" lon="14.813368729557936"><ele>25.0</ele><time>2026-04-12T10:47:26.919Z</time></trkpt><trkpt lat="53.591295633172265" lon="14.813541232490063"><ele>25.2</ele><time>2026-04-12T10:47:27.919Z</time></trkpt><trkpt lat="53.59126502134458" lon="14.813722005697276"><ele>25.4</ele><time>2026-04-12T10:47:28.919Z</time></trkpt><trkpt lat="53.59124843717793" lon="14.813908928034092"><ele>25.6</ele><time>2026-04-12T10:47:29.919Z</time></trkpt><trkpt lat="53.591229334280115" lon="14.814094220665675"><ele>25.8</ele><time>2026-04-12T10:47:30.919Z</time></trkpt><trkpt lat="53.59120230422615" lon="14.814266748595031"><ele>26.0</ele><time>2026-04-12T10:47:31.919Z</time></trkpt><trkpt lat="53.591182086874774" lon="14.814463506560617"><ele>25.75</ele><time>2026-04-12T10:47:32.919Z</time></trkpt><trkpt lat="53.59117320101222" lon="14.814657328544854"><ele>25.5</ele><time>2026-04-12T10:47:33.919Z</time></trkpt><trkpt lat="53.59114996259246" lon="14.814877423657995"><ele>25.25</ele><time>2026-04-12T10:47:34.919Z</time></trkpt><trkpt lat="53.591123356346415" lon="14.815083206647493"><ele>25.0</ele><time>2026-04-12T10:47:35.919Z</time></trkpt><trkpt lat="53.59109291010291" lon="14.815279401361407"><ele>25.5</ele><time>2026-04-12T10:47:36.919Z</time></trkpt><trkpt lat="53.5910643982349" lon="14.815475639471678"><ele>26.0</ele><time>2026-04-12T10:47:37.919Z</time></trkpt><trkpt lat="53.59104064379697" lon="14.815683974954664"><ele>26.5</ele><time>2026-04-12T10:47:38.919Z</time></trkpt><trkpt lat="53.59102215436301" lon="14.81588600921247"><ele>27.0</ele><time>2026-04-12T10:47:39.919Z</time></trkpt><trkpt lat="53.591005361912465" lon="14.81608377195388"><ele>27.200000000000003</ele><time>2026-04-12T10:47:40.919Z</time></trkpt><trkpt lat="53.59099092329437" lon="14.81626520977572"><ele>27.400000000000002</ele><time>2026-04-12T10:47:41.919Z</time></trkpt><trkpt lat="53.590973065675065" lon="14.816439520252677"><ele>27.599999999999998</ele><time>2026-04-12T10:47:42.919Z</time></trkpt><trkpt lat="53.59095972365284" lon="14.81661692048054"><ele>27.799999999999997</ele><time>2026-04-12T10:47:43.919Z</time></trkpt><trkpt lat="53.59094662388502" lon="14.816760828409958"><ele>28.0</ele><time>2026-04-12T10:47:44.919Z</time></trkpt><trkpt lat="53.59092376765023" lon="14.816893055602376"><ele>28.4</ele><time>2026-04-12T10:47:45.919Z</time></trkpt><trkpt lat="53.590886718119684" lon="14.817043593278102"><ele>28.799999999999997</ele><time>2026-04-12T10:47:46.919Z</time></trkpt><trkpt lat="53.59088157032316" lon="14.817207591910497"><ele>29.2</ele><time>2026-04-12T10:47:47.919Z</time></trkpt><trkpt lat="53.590866727998225" lon="14.817356095011903"><ele>29.6</ele><time>2026-04-12T10:47:48.919Z</time></trkpt><trkpt lat="53.59086149936949" lon="14.81754674895752"><ele>30.0</ele><time>2026-04-12T10:47:49.919Z</time></trkpt><trkpt lat="53.59084755462762" lon="14.817715742801465"><ele>30.166666666666668</ele><time>2026-04-12T10:47:50.919Z</time></trkpt><trkpt lat="53.59084424622029" lon="14.817893639675145"><ele>30.333333333333336</ele><time>2026-04-12T10:47:51.919Z</time></trkpt><trkpt lat="53.59082977970459" lon="14.818037865888636"><ele>30.5</ele><time>2026-04-12T10:47:52.919Z</time></trkpt><trkpt lat="53.59082291125384" lon="14.818162577748064"><ele>30.666666666666668</ele><time>2026-04-12T10:47:53.919Z</time></trkpt><trkpt lat="53.590827798467075" lon="14.818292624459342"><ele>30.833333333333336</ele><time>2026-04-12T10:47:54.919Z</time></trkpt><trkpt lat="53.59083252381564" lon="14.81841375513652"><ele>31.0</ele><time>2026-04-12T10:47:55.919Z</time></trkpt><trkpt lat="53.59081667361711" lon="14.818558159699975"><ele>31.000000000000004</ele><time>2026-04-12T10:47:56.919Z</time></trkpt><trkpt lat="53.590815716659414" lon="14.818687937554312"><ele>31.0</ele><time>2026-04-12T10:47:57.919Z</time></trkpt><trkpt lat="53.590773859345006" lon="14.818858448604749"><ele>31.0</ele><time>2026-04-12T10:47:58.919Z</time></trkpt><trkpt lat="53.59073880859098" lon="14.819021135826638"><ele>31.0</ele><time>2026-04-12T10:47:59.918Z</time></trkpt><trkpt lat="53.59073727970563" lon="14.819144104455106"><ele>31.000000000000004</ele><time>2026-04-12T10:48:00.918Z</time></trkpt><trkpt lat="53.59075184687773" lon="14.819261801311486"><ele>31.0</ele><time>2026-04-12T10:48:01.918Z</time></trkpt><trkpt lat="53.59074575143329" lon="14.819383547573874"><ele>30.6</ele><time>2026-04-12T10:48:02.918Z</time></trkpt><trkpt lat="53.59076115566015" lon="14.81952165942461"><ele>30.200000000000003</ele><time>2026-04-12T10:48:03.918Z</time></trkpt><trkpt lat="53.59076986711724" lon="14.819682837768763"><ele>29.799999999999997</ele><time>2026-04-12T10:48:04.918Z</time></trkpt><trkpt lat="53.59072925928898" lon="14.819897904255935"><ele>29.4</ele><time>2026-04-12T10:48:05.918Z</time></trkpt><trkpt lat="53.590718654348464" lon="14.820085204018989"><ele>29.0</ele><time>2026-04-12T10:48:06.918Z</time></trkpt><trkpt lat="53.59071362885261" lon="14.820267369602778"><ele>28.799999999999997</ele><time>2026-04-12T10:48:07.918Z</time></trkpt><trkpt lat="53.59070682305398" lon="14.820411067326177"><ele>28.599999999999998</ele><time>2026-04-12T10:48:08.918Z</time></trkpt><trkpt lat="53.59070979526118" lon="14.820623236451276"><ele>28.4</ele><time>2026-04-12T10:48:10.918Z</time></trkpt><trkpt lat="53.59069060629757" lon="14.820839215492937"><ele>28.2</ele><time>2026-04-12T10:48:12.918Z</time></trkpt><trkpt lat="53.59066264635613" lon="14.82098946672303"><ele>28.0</ele><time>2026-04-12T10:48:13.918Z</time></trkpt><trkpt lat="53.5906298386487" lon="14.821123759479727"><ele>27.799999999999997</ele><time>2026-04-12T10:48:14.918Z</time></trkpt><trkpt lat="53.59059714657865" lon="14.821284258476533"><ele>27.599999999999998</ele><time>2026-04-12T10:48:16.918Z</time></trkpt><trkpt lat="53.59061264969989" lon="14.821452041262841"><ele>27.400000000000002</ele><time>2026-04-12T10:48:19.918Z</time></trkpt><trkpt lat="53.59062991020647" lon="14.821557901504503"><ele>27.200000000000003</ele><time>2026-04-12T10:48:20.918Z</time></trkpt><trkpt lat="53.590643532269716" lon="14.821723069616601"><ele>27.0</ele><time>2026-04-12T10:48:22.918Z</time></trkpt><trkpt lat="53.59065997160158" lon="14.821866390388792"><ele>27.0</ele><time>2026-04-12T10:48:24.917Z</time></trkpt><trkpt lat="53.590719840376536" lon="14.821966341700788"><ele>27.000000000000004</ele><time>2026-04-12T10:48:26.917Z</time></trkpt><trkpt lat="53.59082407504265" lon="14.821975881289125"><ele>27.000000000000004</ele><time>2026-04-12T10:48:28.917Z</time></trkpt><trkpt lat="53.59091577190633" lon="14.821929358215604"><ele>27.0</ele><time>2026-04-12T10:48:30.917Z</time></trkpt><trkpt lat="53.59102250752626" lon="14.821881275604262"><ele>27.0</ele><time>2026-04-12T10:48:32.917Z</time></trkpt><trkpt lat="53.59112590824926" lon="14.821806356466805"><ele>26.8</ele><time>2026-04-12T10:48:34.916Z</time></trkpt><trkpt lat="53.5912334088385" lon="14.821750108468402"><ele>26.6</ele><time>2026-04-12T10:48:36.916Z</time></trkpt><trkpt lat="53.59132005359657" lon="14.821717980782871"><ele>26.400000000000002</ele><time>2026-04-12T10:48:38.916Z</time></trkpt><trkpt lat="53.59142420534953" lon="14.821659032173917"><ele>26.200000000000003</ele><time>2026-04-12T10:48:40.916Z</time></trkpt><trkpt lat="53.591528113982335" lon="14.821604560691643"><ele>26.0</ele><time>2026-04-12T10:48:42.916Z</time></trkpt><trkpt lat="53.59163021562782" lon="14.82156288617774"><ele>25.999999999999996</ele><time>2026-04-12T10:48:45.916Z</time></trkpt><trkpt lat="53.59175329111268" lon="14.82149868942967"><ele>26.0</ele><time>2026-04-12T10:48:47.916Z</time></trkpt><trkpt lat="53.59182175057249" lon="14.821457513833593"><ele>26.0</ele><time>2026-04-12T10:48:48.916Z</time></trkpt><trkpt lat="53.59189449629321" lon="14.821429049771615"><ele>26.0</ele><time>2026-04-12T10:48:49.916Z</time></trkpt><trkpt lat="53.5919628921435" lon="14.82139726905432"><ele>25.999999999999996</ele><time>2026-04-12T10:48:50.916Z</time></trkpt><trkpt lat="53.592046583002464" lon="14.821352038174451"><ele>26.0</ele><time>2026-04-12T10:48:51.916Z</time></trkpt><trkpt lat="53.59216051469201" lon="14.821278140569893"><ele>25.833333333333332</ele><time>2026-04-12T10:48:53.916Z</time></trkpt><trkpt lat="53.59224817745487" lon="14.821226288896808"><ele>25.666666666666664</ele><time>2026-04-12T10:48:54.916Z</time></trkpt><trkpt lat="53.59232645378987" lon="14.821176662485117"><ele>25.5</ele><time>2026-04-12T10:48:55.916Z</time></trkpt><trkpt lat="53.59244549526507" lon="14.821117711940401"><ele>25.333333333333336</ele><time>2026-04-12T10:48:57.916Z</time></trkpt><trkpt lat="53.59251714341529" lon="14.821070179564325"><ele>25.166666666666668</ele><time>2026-04-12T10:48:58.916Z</time></trkpt><trkpt lat="53.59258519879078" lon="14.821052327330516"><ele>25.0</ele><time>2026-04-12T10:48:59.916Z</time></trkpt><trkpt lat="53.592666634978166" lon="14.821009775655472"><ele>25.833333333333336</ele><time>2026-04-12T10:49:00.916Z</time></trkpt><trkpt lat="53.592764014004324" lon="14.820959879620771"><ele>26.666666666666668</ele><time>2026-04-12T10:49:02.916Z</time></trkpt><trkpt lat="53.59283405708266" lon="14.820906992652036"><ele>27.5</ele><time>2026-04-12T10:49:03.916Z</time></trkpt><trkpt lat="53.592892263962284" lon="14.820865245974565"><ele>28.333333333333336</ele><time>2026-04-12T10:49:04.916Z</time></trkpt><trkpt lat="53.59297619809913" lon="14.820816266692438"><ele>29.166666666666668</ele><time>2026-04-12T10:49:05.916Z</time></trkpt><trkpt lat="53.59305942184012" lon="14.820776568429944"><ele>30.0</ele><time>2026-04-12T10:49:06.916Z</time></trkpt><trkpt lat="53.59314572763073" lon="14.820733320358194"><ele>30.166666666666668</ele><time>2026-04-12T10:49:07.916Z</time></trkpt><trkpt lat="53.593231212504556" lon="14.82070217917415"><ele>30.333333333333336</ele><time>2026-04-12T10:49:08.916Z</time></trkpt><trkpt lat="53.59329592583582" lon="14.82066744008957"><ele>30.5</ele><time>2026-04-12T10:49:09.916Z</time></trkpt><trkpt lat="53.59335846540173" lon="14.82063133068769"><ele>30.666666666666668</ele><time>2026-04-12T10:49:10.916Z</time></trkpt><trkpt lat="53.59344597278861" lon="14.820577194766315"><ele>30.833333333333336</ele><time>2026-04-12T10:49:11.916Z</time></trkpt><trkpt lat="53.593542911009656" lon="14.820541609323108"><ele>31.0</ele><time>2026-04-12T10:49:12.916Z</time></trkpt><trkpt lat="53.59364602524057" lon="14.820487736796574"><ele>31.166666666666668</ele><time>2026-04-12T10:49:13.916Z</time></trkpt><trkpt lat="53.59374628308497" lon="14.820440682110673"><ele>31.333333333333336</ele><time>2026-04-12T10:49:14.916Z</time></trkpt><trkpt lat="53.593815787839624" lon="14.82040542016155"><ele>31.5</ele><time>2026-04-12T10:49:15.916Z</time></trkpt><trkpt lat="53.593890377669815" lon="14.820365525381144"><ele>31.666666666666664</ele><time>2026-04-12T10:49:16.916Z</time></trkpt><trkpt lat="53.593960604451176" lon="14.82031367744229"><ele>31.833333333333332</ele><time>2026-04-12T10:49:17.916Z</time></trkpt><trkpt lat="53.59402456533419" lon="14.820291026967299"><ele>32.0</ele><time>2026-04-12T10:49:18.916Z</time></trkpt><trkpt lat="53.59411077748035" lon="14.82024948592605"><ele>32.0</ele><time>2026-04-12T10:49:19.916Z</time></trkpt><trkpt lat="53.59422648754902" lon="14.820200779151964"><ele>32.0</ele><time>2026-04-12T10:49:20.916Z</time></trkpt><trkpt lat="53.594302364580074" lon="14.82016249427185"><ele>32.0</ele><time>2026-04-12T10:49:21.916Z</time></trkpt><trkpt lat="53.5943958549336" lon="14.820115664159456"><ele>32.0</ele><time>2026-04-12T10:49:22.916Z</time></trkpt><trkpt lat="53.59447662074101" lon="14.82008176681834"><ele>32.0</ele><time>2026-04-12T10:49:23.916Z</time></trkpt><trkpt lat="53.594556355192765" lon="14.820038334736019"><ele>32.5</ele><time>2026-04-12T10:49:24.916Z</time></trkpt><trkpt lat="53.594689810816334" lon="14.819962256766132"><ele>33.0</ele><time>2026-04-12T10:49:25.916Z</time></trkpt><trkpt lat="53.594790742860376" lon="14.819899469520431"><ele>33.5</ele><time>2026-04-12T10:49:26.916Z</time></trkpt><trkpt lat="53.59492596655191" lon="14.819794975349366"><ele>34.0</ele><time>2026-04-12T10:49:28.916Z</time></trkpt><trkpt lat="53.59499653505233" lon="14.819753065406957"><ele>34.0</ele><time>2026-04-12T10:49:29.916Z</time></trkpt><trkpt lat="53.5950893242592" lon="14.819703672808457"><ele>34.0</ele><time>2026-04-12T10:49:30.916Z</time></trkpt><trkpt lat="53.595167207011976" lon="14.819667450278308"><ele>34.0</ele><time>2026-04-12T10:49:31.916Z</time></trkpt><trkpt lat="53.59523762192335" lon="14.819618758169602"><ele>34.0</ele><time>2026-04-12T10:49:32.916Z</time></trkpt><trkpt lat="53.595326168961115" lon="14.819603649535049"><ele>34.0</ele><time>2026-04-12T10:49:33.916Z</time></trkpt><trkpt lat="53.5954411987721" lon="14.81955829939856"><ele>34.16666666666667</ele><time>2026-04-12T10:49:34.916Z</time></trkpt><trkpt lat="53.59554310896871" lon="14.81951090871036"><ele>34.333333333333336</ele><time>2026-04-12T10:49:35.916Z</time></trkpt><trkpt lat="53.59560623580683" lon="14.819480746640936"><ele>34.5</ele><time>2026-04-12T10:49:36.916Z</time></trkpt><trkpt lat="53.595675641153356" lon="14.819443089207326"><ele>34.666666666666664</ele><time>2026-04-12T10:49:37.916Z</time></trkpt><trkpt lat="53.59575137873879" lon="14.819396899312075"><ele>34.83333333333333</ele><time>2026-04-12T10:49:38.916Z</time></trkpt><trkpt lat="53.59581468327774" lon="14.819349485693955"><ele>35.0</ele><time>2026-04-12T10:49:39.916Z</time></trkpt><trkpt lat="53.595889780581366" lon="14.819295994654206"><ele>35.0</ele><time>2026-04-12T10:49:40.916Z</time></trkpt><trkpt lat="53.595981312101344" lon="14.819238672606598"><ele>35.0</ele><time>2026-04-12T10:49:41.916Z</time></trkpt><trkpt lat="53.59605828833718" lon="14.819196621044952"><ele>35.0</ele><time>2026-04-12T10:49:42.916Z</time></trkpt><trkpt lat="53.596133977553905" lon="14.819158545526882"><ele>35.0</ele><time>2026-04-12T10:49:43.916Z</time></trkpt><trkpt lat="53.59622748327524" lon="14.819112642334035"><ele>35.0</ele><time>2026-04-12T10:49:45.915Z</time></trkpt><trkpt lat="53.59632375049883" lon="14.819053689817999"><ele>34.8</ele><time>2026-04-12T10:49:47.915Z</time></trkpt><trkpt lat="53.59641536240848" lon="14.8190025552932"><ele>34.6</ele><time>2026-04-12T10:49:49.915Z</time></trkpt><trkpt lat="53.59648936699348" lon="14.818957520147631"><ele>34.4</ele><time>2026-04-12T10:49:51.915Z</time></trkpt><trkpt lat="53.5965633303349" lon="14.81891853975093"><ele>34.2</ele><time>2026-04-12T10:49:53.915Z</time></trkpt><trkpt lat="53.59666131495158" lon="14.818848215693235"><ele>34.0</ele><time>2026-04-12T10:49:55.915Z</time></trkpt><trkpt lat="53.59677500323566" lon="14.818790028948687"><ele>34.0</ele><time>2026-04-12T10:49:57.915Z</time></trkpt><trkpt lat="53.59686930648079" lon="14.818748475719888"><ele>34.0</ele><time>2026-04-12T10:49:58.915Z</time></trkpt><trkpt lat="53.59696288890987" lon="14.818700120788154"><ele>34.0</ele><time>2026-04-12T10:49:59.915Z</time></trkpt><trkpt lat="53.597031481540405" lon="14.81866191535985"><ele>34.0</ele><time>2026-04-12T10:50:00.915Z</time></trkpt><trkpt lat="53.59711512892817" lon="14.81861093732185"><ele>34.0</ele><time>2026-04-12T10:50:01.915Z</time></trkpt><trkpt lat="53.597222661923304" lon="14.818560557316829"><ele>34.5</ele><time>2026-04-12T10:50:02.915Z</time></trkpt><trkpt lat="53.59729643228053" lon="14.818527350986486"><ele>35.0</ele><time>2026-04-12T10:50:03.915Z</time></trkpt><trkpt lat="53.5973693490422" lon="14.818493920360876"><ele>35.5</ele><time>2026-04-12T10:50:04.915Z</time></trkpt><trkpt lat="53.5974357578738" lon="14.818452054768175"><ele>36.0</ele><time>2026-04-12T10:50:05.915Z</time></trkpt><trkpt lat="53.59755908245448" lon="14.81839710374447"><ele>36.5</ele><time>2026-04-12T10:50:07.915Z</time></trkpt><trkpt lat="53.597622512798964" lon="14.818369716845849"><ele>37.0</ele><time>2026-04-12T10:50:08.915Z</time></trkpt><trkpt lat="53.597698550408566" lon="14.818338300689891"><ele>37.0</ele><time>2026-04-12T10:50:09.915Z</time></trkpt><trkpt lat="53.597791811567895" lon="14.818296066548243"><ele>37.0</ele><time>2026-04-12T10:50:10.915Z</time></trkpt><trkpt lat="53.59786551403277" lon="14.818260930751448"><ele>37.0</ele><time>2026-04-12T10:50:11.915Z</time></trkpt><trkpt lat="53.5979889594481" lon="14.818206634427115"><ele>37.0</ele><time>2026-04-12T10:50:13.915Z</time></trkpt><trkpt lat="53.59807705306725" lon="14.818172211755405"><ele>37.0</ele><time>2026-04-12T10:50:14.915Z</time></trkpt><trkpt lat="53.59818442354308" lon="14.81813180147409"><ele>37.25</ele><time>2026-04-12T10:50:15.915Z</time></trkpt><trkpt lat="53.59830004855162" lon="14.818079012509202"><ele>37.5</ele><time>2026-04-12T10:50:16.915Z</time></trkpt><trkpt lat="53.59840900900328" lon="14.818008798472674"><ele>37.75</ele><time>2026-04-12T10:50:17.915Z</time></trkpt><trkpt lat="53.598526890878645" lon="14.817947689824182"><ele>38.0</ele><time>2026-04-12T10:50:18.915Z</time></trkpt><trkpt lat="53.59863982169821" lon="14.817889941294425"><ele>38.199999999999996</ele><time>2026-04-12T10:50:19.915Z</time></trkpt><trkpt lat="53.598737709509024" lon="14.817825645907156"><ele>38.4</ele><time>2026-04-12T10:50:20.915Z</time></trkpt><trkpt lat="53.59882759615404" lon="14.8177641439492"><ele>38.599999999999994</ele><time>2026-04-12T10:50:21.915Z</time></trkpt><trkpt lat="53.59892459621185" lon="14.817713451676843"><ele>38.8</ele><time>2026-04-12T10:50:22.915Z</time></trkpt><trkpt lat="53.59900222829859" lon="14.817682506191185"><ele>39.0</ele><time>2026-04-12T10:50:23.915Z</time></trkpt><trkpt lat="53.59908896666639" lon="14.817636632178303"><ele>39.0</ele><time>2026-04-12T10:50:24.915Z</time></trkpt><trkpt lat="53.599160427292574" lon="14.817606107631478"><ele>39.0</ele><time>2026-04-12T10:50:25.915Z</time></trkpt><trkpt lat="53.599250436741016" lon="14.817569211488347"><ele>39.0</ele><time>2026-04-12T10:50:26.915Z</time></trkpt><trkpt lat="53.599328502328014" lon="14.817526888761295"><ele>39.0</ele><time>2026-04-12T10:50:27.915Z</time></trkpt><trkpt lat="53.59939922083013" lon="14.817502738150575"><ele>39.0</ele><time>2026-04-12T10:50:28.915Z</time></trkpt><trkpt lat="53.59949722971556" lon="14.817453707143414"><ele>39.0</ele><time>2026-04-12T10:50:29.914Z</time></trkpt><trkpt lat="53.59957801836258" lon="14.817417124654892"><ele>38.4</ele><time>2026-04-12T10:50:30.914Z</time></trkpt><trkpt lat="53.59967529006281" lon="14.817369522352445"><ele>37.8</ele><time>2026-04-12T10:50:31.914Z</time></trkpt><trkpt lat="53.59975959088728" lon="14.817336213454999"><ele>37.2</ele><time>2026-04-12T10:50:32.914Z</time></trkpt><trkpt lat="53.599859271552994" lon="14.817286937401184"><ele>36.6</ele><time>2026-04-12T10:50:33.913Z</time></trkpt><trkpt lat="53.59997022975457" lon="14.817207817285356"><ele>36.0</ele><time>2026-04-12T10:50:35.914Z</time></trkpt><trkpt lat="53.600084011120806" lon="14.817156824947766"><ele>36.0</ele><time>2026-04-12T10:50:37.914Z</time></trkpt><trkpt lat="53.60018803965582" lon="14.817108493067007"><ele>36.0</ele><time>2026-04-12T10:50:39.913Z</time></trkpt><trkpt lat="53.60026754775503" lon="14.817061251858624"><ele>36.0</ele><time>2026-04-12T10:50:41.914Z</time></trkpt><trkpt lat="53.60034623561086" lon="14.817023843840545"><ele>36.0</ele><time>2026-04-12T10:51:35.913Z</time></trkpt><trkpt lat="53.60043963722315" lon="14.817002437728581"><ele>36.0</ele><time>2026-04-12T10:51:37.913Z</time></trkpt><trkpt lat="53.60054356770367" lon="14.816959612393832"><ele>34.666666666666664</ele><time>2026-04-12T10:51:39.913Z</time></trkpt><trkpt lat="53.60064761603236" lon="14.81691132225219"><ele>33.333333333333336</ele><time>2026-04-12T10:51:40.913Z</time></trkpt><trkpt lat="53.60073059622257" lon="14.816869905091854"><ele>32.0</ele><time>2026-04-12T10:51:41.913Z</time></trkpt><trkpt lat="53.60080249608646" lon="14.816838659535389"><ele>30.666666666666668</ele><time>2026-04-12T10:51:42.913Z</time></trkpt><trkpt lat="53.60087687590743" lon="14.816797916984049"><ele>29.333333333333336</ele><time>2026-04-12T10:51:43.913Z</time></trkpt><trkpt lat="53.60095514825085" lon="14.816757221139618"><ele>28.0</ele><time>2026-04-12T10:51:44.913Z</time></trkpt><trkpt lat="53.60102395283441" lon="14.816707943908362"><ele>28.0</ele><time>2026-04-12T10:51:45.913Z</time></trkpt><trkpt lat="53.60110480560236" lon="14.81664550562746"><ele>27.999999999999996</ele><time>2026-04-12T10:51:46.913Z</time></trkpt><trkpt lat="53.601246273018376" lon="14.816555675618595"><ele>27.999999999999996</ele><time>2026-04-12T10:51:48.913Z</time></trkpt><trkpt lat="53.60133007495044" lon="14.816502986922394"><ele>28.0</ele><time>2026-04-12T10:51:49.913Z</time></trkpt><trkpt lat="53.60140967493953" lon="14.816437545783046"><ele>28.0</ele><time>2026-04-12T10:51:50.913Z</time></trkpt><trkpt lat="53.60148220302087" lon="14.816397109726303"><ele>28.0</ele><time>2026-04-12T10:51:51.913Z</time></trkpt><trkpt lat="53.601587025252144" lon="14.816341852420669"><ele>27.999999999999996</ele><time>2026-04-12T10:51:52.913Z</time></trkpt><trkpt lat="53.60168181273609" lon="14.81629067614821"><ele>27.999999999999996</ele><time>2026-04-12T10:51:53.913Z</time></trkpt><trkpt lat="53.601787708213706" lon="14.816248881716314"><ele>28.0</ele><time>2026-04-12T10:51:54.913Z</time></trkpt><trkpt lat="53.60188680202398" lon="14.816197067927986"><ele>28.0</ele><time>2026-04-12T10:51:55.913Z</time></trkpt><trkpt lat="53.601986437613895" lon="14.816145714685902"><ele>29.0</ele><time>2026-04-12T10:51:56.913Z</time></trkpt><trkpt lat="53.602078955364824" lon="14.816095268880739"><ele>30.0</ele><time>2026-04-12T10:51:57.913Z</time></trkpt><trkpt lat="53.60218544526751" lon="14.816040356845882"><ele>31.0</ele><time>2026-04-12T10:51:58.913Z</time></trkpt><trkpt lat="53.60230484428283" lon="14.815990917388083"><ele>32.0</ele><time>2026-04-12T10:51:59.913Z</time></trkpt><trkpt lat="53.60243275071759" lon="14.815940221925528"><ele>32.0</ele><time>2026-04-12T10:52:00.913Z</time></trkpt><trkpt lat="53.60255796061239" lon="14.815894090343356"><ele>32.0</ele><time>2026-04-12T10:52:01.913Z</time></trkpt><trkpt lat="53.602675990424004" lon="14.815826160986186"><ele>32.0</ele><time>2026-04-12T10:52:02.913Z</time></trkpt><trkpt lat="53.60280300533991" lon="14.81576191003779"><ele>32.0</ele><time>2026-04-12T10:52:03.913Z</time></trkpt><trkpt lat="53.602943555712514" lon="14.8156980881741"><ele>33.25</ele><time>2026-04-12T10:52:04.913Z</time></trkpt><trkpt lat="53.60308344731474" lon="14.8156325896151"><ele>34.5</ele><time>2026-04-12T10:52:05.913Z</time></trkpt><trkpt lat="53.603207453924036" lon="14.815567815916738"><ele>35.75</ele><time>2026-04-12T10:52:06.913Z</time></trkpt><trkpt lat="53.60332516403668" lon="14.815501901894322"><ele>37.0</ele><time>2026-04-12T10:52:07.913Z</time></trkpt><trkpt lat="53.6034338755713" lon="14.815442477536632"><ele>37.0</ele><time>2026-04-12T10:52:08.913Z</time></trkpt><trkpt lat="53.603543619413735" lon="14.815373828561244"><ele>37.0</ele><time>2026-04-12T10:52:09.913Z</time></trkpt><trkpt lat="53.603668151694635" lon="14.81530077399027"><ele>37.0</ele><time>2026-04-12T10:52:10.913Z</time></trkpt><trkpt lat="53.60379304371766" lon="14.815254266796734"><ele>37.0</ele><time>2026-04-12T10:52:11.913Z</time></trkpt><trkpt lat="53.60394097045457" lon="14.815195459100847"><ele>36.75</ele><time>2026-04-12T10:52:12.913Z</time></trkpt><trkpt lat="53.604083007244796" lon="14.815132878735204"><ele>36.5</ele><time>2026-04-12T10:52:13.913Z</time></trkpt><trkpt lat="53.60421316767688" lon="14.815071137723503"><ele>36.25</ele><time>2026-04-12T10:52:14.913Z</time></trkpt><trkpt lat="53.60436526357806" lon="14.815014531584833"><ele>36.0</ele><time>2026-04-12T10:52:15.913Z</time></trkpt><trkpt lat="53.604531637075105" lon="14.814938484830687"><ele>35.25</ele><time>2026-04-12T10:52:16.913Z</time></trkpt><trkpt lat="53.60469708795766" lon="14.814878449060272"><ele>34.5</ele><time>2026-04-12T10:52:17.913Z</time></trkpt><trkpt lat="53.60481861807419" lon="14.81480646156515"><ele>33.75</ele><time>2026-04-12T10:52:18.913Z</time></trkpt><trkpt lat="53.60493466914907" lon="14.814737155808864"><ele>33.0</ele><time>2026-04-12T10:52:19.913Z</time></trkpt><trkpt lat="53.6050487908707" lon="14.814675517499227"><ele>33.0</ele><time>2026-04-12T10:52:20.913Z</time></trkpt><trkpt lat="53.60516820263498" lon="14.814611570395405"><ele>33.0</ele><time>2026-04-12T10:52:21.913Z</time></trkpt><trkpt lat="53.605288871608884" lon="14.81453550842003"><ele>33.0</ele><time>2026-04-12T10:52:22.913Z</time></trkpt><trkpt lat="53.60539819417414" lon="14.81447172189923"><ele>33.0</ele><time>2026-04-12T10:52:23.913Z</time></trkpt><trkpt lat="53.60550118815726" lon="14.814420400988805"><ele>32.8</ele><time>2026-04-12T10:52:24.913Z</time></trkpt><trkpt lat="53.60560674942964" lon="14.814366777668427"><ele>32.599999999999994</ele><time>2026-04-12T10:52:25.913Z</time></trkpt><trkpt lat="53.60570523036708" lon="14.814301186018056"><ele>32.400000000000006</ele><time>2026-04-12T10:52:26.913Z</time></trkpt><trkpt lat="53.60578912218591" lon="14.814257589390182"><ele>32.2</ele><time>2026-04-12T10:52:27.913Z</time></trkpt><trkpt lat="53.60588522222625" lon="14.814222372376221"><ele>32.0</ele><time>2026-04-12T10:52:28.913Z</time></trkpt><trkpt lat="53.60598308323086" lon="14.814185890228812"><ele>32.6</ele><time>2026-04-12T10:52:29.912Z</time></trkpt><trkpt lat="53.60609466838911" lon="14.814150905085103"><ele>33.2</ele><time>2026-04-12T10:52:30.912Z</time></trkpt><trkpt lat="53.606209350741004" lon="14.814118488644855"><ele>33.8</ele><time>2026-04-12T10:52:31.912Z</time></trkpt><trkpt lat="53.60631513352695" lon="14.81406955794029"><ele>34.4</ele><time>2026-04-12T10:52:32.912Z</time></trkpt><trkpt lat="53.606415483788254" lon="14.814027927505311"><ele>35.0</ele><time>2026-04-12T10:52:33.912Z</time></trkpt><trkpt lat="53.606486036824094" lon="14.813991439760805"><ele>33.666666666666664</ele><time>2026-04-12T10:52:34.912Z</time></trkpt><trkpt lat="53.60657402566962" lon="14.813991648598805"><ele>32.33333333333333</ele><time>2026-04-12T10:52:36.912Z</time></trkpt><trkpt lat="53.60663866910856" lon="14.814083858906669"><ele>31.0</ele><time>2026-04-12T10:52:38.911Z</time></trkpt><trkpt lat="53.60672485258863" lon="14.814212849409024"><ele>29.666666666666664</ele><time>2026-04-12T10:52:40.911Z</time></trkpt><trkpt lat="53.60676755408347" lon="14.814294200588613"><ele>28.333333333333332</ele><time>2026-04-12T10:52:41.911Z</time></trkpt><trkpt lat="53.60683347210713" lon="14.814396901124224"><ele>27.0</ele><time>2026-04-12T10:52:42.911Z</time></trkpt><trkpt lat="53.60690548306765" lon="14.814507838579534"><ele>26.8</ele><time>2026-04-12T10:52:43.911Z</time></trkpt><trkpt lat="53.60696678178274" lon="14.814586182732706"><ele>26.6</ele><time>2026-04-12T10:52:44.911Z</time></trkpt><trkpt lat="53.60704044937804" lon="14.814670632229644"><ele>26.400000000000002</ele><time>2026-04-12T10:52:45.911Z</time></trkpt><trkpt lat="53.607115801370185" lon="14.81474716070894"><ele>26.200000000000003</ele><time>2026-04-12T10:52:46.911Z</time></trkpt><trkpt lat="53.60719834254375" lon="14.814823440109334"><ele>26.0</ele><time>2026-04-12T10:52:47.911Z</time></trkpt><trkpt lat="53.6072832533964" lon="14.814933120630727"><ele>26.333333333333332</ele><time>2026-04-12T10:52:48.911Z</time></trkpt><trkpt lat="53.6073407260148" lon="14.815029532656506"><ele>26.666666666666664</ele><time>2026-04-12T10:52:49.911Z</time></trkpt><trkpt lat="53.60739672773117" lon="14.815144603933243"><ele>27.0</ele><time>2026-04-12T10:52:50.911Z</time></trkpt><trkpt lat="53.60744612371633" lon="14.815228678173192"><ele>27.333333333333336</ele><time>2026-04-12T10:52:51.911Z</time></trkpt><trkpt lat="53.60749809444253" lon="14.8153135200229"><ele>27.666666666666668</ele><time>2026-04-12T10:52:52.911Z</time></trkpt><trkpt lat="53.607564751440634" lon="14.815433814001343"><ele>28.0</ele><time>2026-04-12T10:52:53.911Z</time></trkpt><trkpt lat="53.607629593826275" lon="14.815542879221347"><ele>28.000000000000004</ele><time>2026-04-12T10:52:54.911Z</time></trkpt><trkpt lat="53.60769611930541" lon="14.81564595396749"><ele>28.0</ele><time>2026-04-12T10:52:55.911Z</time></trkpt><trkpt lat="53.60775989285297" lon="14.815729908255538"><ele>28.0</ele><time>2026-04-12T10:52:56.911Z</time></trkpt><trkpt lat="53.60783047767329" lon="14.815820301728658"><ele>28.0</ele><time>2026-04-12T10:52:57.911Z</time></trkpt><trkpt lat="53.60790252477535" lon="14.815881416100565"><ele>28.000000000000004</ele><time>2026-04-12T10:52:58.911Z</time></trkpt><trkpt lat="53.607983779781996" lon="14.815916937335418"><ele>28.0</ele><time>2026-04-12T10:52:59.911Z</time></trkpt><trkpt lat="53.608068161925466" lon="14.815949969585738"><ele>28.75</ele><time>2026-04-12T10:53:00.911Z</time></trkpt><trkpt lat="53.608186070330575" lon="14.815957949690244"><ele>29.5</ele><time>2026-04-12T10:53:01.911Z</time></trkpt><trkpt lat="53.60831807903925" lon="14.815922788948988"><ele>30.25</ele><time>2026-04-12T10:53:02.911Z</time></trkpt><trkpt lat="53.60842965225842" lon="14.81588561578746"><ele>31.0</ele><time>2026-04-12T10:53:03.911Z</time></trkpt><trkpt lat="53.60853968071251" lon="14.815851074715976"><ele>29.75</ele><time>2026-04-12T10:53:04.911Z</time></trkpt><trkpt lat="53.608671114653625" lon="14.815828452748319"><ele>28.5</ele><time>2026-04-12T10:53:05.911Z</time></trkpt><trkpt lat="53.60879891249244" lon="14.815820590866625"><ele>27.25</ele><time>2026-04-12T10:53:06.911Z</time></trkpt><trkpt lat="53.60892771320845" lon="14.81581549346785"><ele>26.0</ele><time>2026-04-12T10:53:07.911Z</time></trkpt><trkpt lat="53.60905618697001" lon="14.815797493332672"><ele>26.0</ele><time>2026-04-12T10:53:08.911Z</time></trkpt><trkpt lat="53.60917360298886" lon="14.815759214124565"><ele>26.0</ele><time>2026-04-12T10:53:09.911Z</time></trkpt><trkpt lat="53.60929763101795" lon="14.815723061181997"><ele>26.0</ele><time>2026-04-12T10:53:10.911Z</time></trkpt><trkpt lat="53.60942078182011" lon="14.81570744019777"><ele>26.0</ele><time>2026-04-12T10:53:11.911Z</time></trkpt><trkpt lat="53.609544418983155" lon="14.81570547528998"><ele>25.5</ele><time>2026-04-12T10:53:12.911Z</time></trkpt><trkpt lat="53.60967618824278" lon="14.815695040927757"><ele>25.0</ele><time>2026-04-12T10:53:13.911Z</time></trkpt><trkpt lat="53.60980620395755" lon="14.81568900968219"><ele>24.5</ele><time>2026-04-12T10:53:14.911Z</time></trkpt><trkpt lat="53.60994006656852" lon="14.81567394689757"><ele>24.0</ele><time>2026-04-12T10:53:15.911Z</time></trkpt><trkpt lat="53.61006381102599" lon="14.815667397682898"><ele>24.0</ele><time>2026-04-12T10:53:16.911Z</time></trkpt><trkpt lat="53.61017338527747" lon="14.815655728121529"><ele>24.0</ele><time>2026-04-12T10:53:17.911Z</time></trkpt><trkpt lat="53.610276231636746" lon="14.815647038907915"><ele>24.0</ele><time>2026-04-12T10:53:18.911Z</time></trkpt><trkpt lat="53.610368340546415" lon="14.815637560268218"><ele>24.0</ele><time>2026-04-12T10:53:19.911Z</time></trkpt><trkpt lat="53.610452099217525" lon="14.815632502571795"><ele>24.0</ele><time>2026-04-12T10:53:20.911Z</time></trkpt><trkpt lat="53.61051996275999" lon="14.815609488665133"><ele>23.75</ele><time>2026-04-12T10:53:21.911Z</time></trkpt><trkpt lat="53.61060933511507" lon="14.815564823823856"><ele>23.5</ele><time>2026-04-12T10:53:22.911Z</time></trkpt><trkpt lat="53.61075233534287" lon="14.815534293534428"><ele>23.25</ele><time>2026-04-12T10:53:23.911Z</time></trkpt><trkpt lat="53.61089736983385" lon="14.81552151934965"><ele>23.0</ele><time>2026-04-12T10:53:24.911Z</time></trkpt><trkpt lat="53.611063677840406" lon="14.81551363023568"><ele>23.666666666666668</ele><time>2026-04-12T10:53:25.911Z</time></trkpt><trkpt lat="53.611237468375236" lon="14.815507853215337"><ele>24.333333333333336</ele><time>2026-04-12T10:53:26.911Z</time></trkpt><trkpt lat="53.611422935974915" lon="14.815500336314468"><ele>25.0</ele><time>2026-04-12T10:53:27.911Z</time></trkpt><trkpt lat="53.611598425524974" lon="14.815483748715902"><ele>25.0</ele><time>2026-04-12T10:53:28.911Z</time></trkpt><trkpt lat="53.61175103631489" lon="14.81545589416253"><ele>25.0</ele><time>2026-04-12T10:53:29.911Z</time></trkpt><trkpt lat="53.61189266747985" lon="14.81542467102397"><ele>25.0</ele><time>2026-04-12T10:53:30.911Z</time></trkpt><trkpt lat="53.61201828641575" lon="14.815380164747474"><ele>25.0</ele><time>2026-04-12T10:53:31.911Z</time></trkpt><trkpt lat="53.612123868040364" lon="14.81536828672951"><ele>24.166666666666668</ele><time>2026-04-12T10:53:32.911Z</time></trkpt><trkpt lat="53.61222209157041" lon="14.815355606208094"><ele>23.333333333333336</ele><time>2026-04-12T10:53:33.911Z</time></trkpt><trkpt lat="53.6123150582427" lon="14.815378827895552"><ele>22.5</ele><time>2026-04-12T10:53:34.911Z</time></trkpt><trkpt lat="53.61240037626669" lon="14.815376949330325"><ele>21.666666666666668</ele><time>2026-04-12T10:53:35.911Z</time></trkpt><trkpt lat="53.61247418304137" lon="14.8153423383907"><ele>20.833333333333336</ele><time>2026-04-12T10:53:36.911Z</time></trkpt><trkpt lat="53.61254069750091" lon="14.81535313407952"><ele>20.0</ele><time>2026-04-12T10:53:37.911Z</time></trkpt><trkpt lat="53.612612630115706" lon="14.8152886632182"><ele>20.0</ele><time>2026-04-12T10:53:39.91Z</time></trkpt><trkpt lat="53.612689580425084" lon="14.815237461524992"><ele>20.0</ele><time>2026-04-12T10:53:41.911Z</time></trkpt><trkpt lat="53.612749610809786" lon="14.815197518111889"><ele>20.0</ele><time>2026-04-12T10:53:42.911Z</time></trkpt><trkpt lat="53.61281541100015" lon="14.81515373557678"><ele>20.0</ele><time>2026-04-12T10:53:43.911Z</time></trkpt><trkpt lat="53.61291916363487" lon="14.815317139187979"><ele>20.0</ele><time>2026-04-12T10:53:44.911Z</time></trkpt><trkpt lat="53.61298217361574" lon="14.815295429624884"><ele>20.0</ele><time>2026-04-12T10:53:45.911Z</time></trkpt><trkpt lat="53.61305035740107" lon="14.815282687160607"><ele>19.833333333333336</ele><time>2026-04-12T10:53:46.911Z</time></trkpt><trkpt lat="53.613114660925056" lon="14.81525932701553"><ele>19.666666666666668</ele><time>2026-04-12T10:53:47.911Z</time></trkpt><trkpt lat="53.61318998572722" lon="14.815236972940683"><ele>19.5</ele><time>2026-04-12T10:53:48.911Z</time></trkpt><trkpt lat="53.613277849951686" lon="14.815204842786146"><ele>19.333333333333332</ele><time>2026-04-12T10:53:49.911Z</time></trkpt><trkpt lat="53.61335782398335" lon="14.815193978788468"><ele>19.166666666666664</ele><time>2026-04-12T10:53:50.911Z</time></trkpt><trkpt lat="53.61344956344691" lon="14.815195158452381"><ele>19.0</ele><time>2026-04-12T10:53:51.911Z</time></trkpt><trkpt lat="53.61355389676554" lon="14.815182075050192"><ele>19.799999999999997</ele><time>2026-04-12T10:53:52.911Z</time></trkpt><trkpt lat="53.61366576769521" lon="14.815167591669315"><ele>20.599999999999998</ele><time>2026-04-12T10:53:53.911Z</time></trkpt><trkpt lat="53.613740992999325" lon="14.815144463338703"><ele>21.4</ele><time>2026-04-12T10:53:54.911Z</time></trkpt><trkpt lat="53.6138220973199" lon="14.81514172628412"><ele>22.2</ele><time>2026-04-12T10:53:55.911Z</time></trkpt><trkpt lat="53.613928994724766" lon="14.815136965428504"><ele>23.0</ele><time>2026-04-12T10:53:56.911Z</time></trkpt><trkpt lat="53.614026358853025" lon="14.815131006756332"><ele>23.599999999999998</ele><time>2026-04-12T10:53:57.911Z</time></trkpt><trkpt lat="53.61413602801465" lon="14.815120140525053"><ele>24.2</ele><time>2026-04-12T10:53:58.911Z</time></trkpt><trkpt lat="53.61422124603123" lon="14.815098767789227"><ele>24.8</ele><time>2026-04-12T10:53:59.911Z</time></trkpt><trkpt lat="53.61432765014395" lon="14.815076493119488"><ele>25.4</ele><time>2026-04-12T10:54:00.911Z</time></trkpt><trkpt lat="53.614425713864485" lon="14.815062178775294"><ele>26.0</ele><time>2026-04-12T10:54:01.911Z</time></trkpt><trkpt lat="53.61449954933176" lon="14.81506809623784"><ele>26.4</ele><time>2026-04-12T10:54:02.911Z</time></trkpt><trkpt lat="53.61459363243269" lon="14.815023544088726"><ele>26.8</ele><time>2026-04-12T10:54:03.911Z</time></trkpt><trkpt lat="53.61468622352219" lon="14.814987183950056"><ele>27.199999999999996</ele><time>2026-04-12T10:54:04.911Z</time></trkpt><trkpt lat="53.614766219997264" lon="14.814975285894667"><ele>27.599999999999998</ele><time>2026-04-12T10:54:05.911Z</time></trkpt><trkpt lat="53.614860385277645" lon="14.814963743781771"><ele>28.0</ele><time>2026-04-12T10:54:06.911Z</time></trkpt><trkpt lat="53.61495679235363" lon="14.814949496421502"><ele>28.000000000000004</ele><time>2026-04-12T10:54:07.911Z</time></trkpt><trkpt lat="53.615062547457185" lon="14.814920620350886"><ele>28.0</ele><time>2026-04-12T10:54:08.911Z</time></trkpt><trkpt lat="53.615143863276394" lon="14.814916642645873"><ele>28.0</ele><time>2026-04-12T10:54:09.911Z</time></trkpt><trkpt lat="53.615224550713265" lon="14.814912664225997"><ele>28.0</ele><time>2026-04-12T10:54:10.911Z</time></trkpt><trkpt lat="53.6152937709102" lon="14.814885390758748"><ele>28.000000000000004</ele><time>2026-04-12T10:54:11.911Z</time></trkpt><trkpt lat="53.615354719574626" lon="14.81475070007192"><ele>28.0</ele><time>2026-04-12T10:54:13.911Z</time></trkpt><trkpt lat="53.6153628899943" lon="14.814591503089876"><ele>27.599999999999998</ele><time>2026-04-12T10:54:14.911Z</time></trkpt><trkpt lat="53.6153800639779" lon="14.814434626706216"><ele>27.199999999999996</ele><time>2026-04-12T10:54:15.911Z</time></trkpt><trkpt lat="53.6153870902656" lon="14.814238825387138"><ele>26.8</ele><time>2026-04-12T10:54:16.911Z</time></trkpt><trkpt lat="53.61539359601278" lon="14.814067017020182"><ele>26.4</ele><time>2026-04-12T10:54:17.911Z</time></trkpt><trkpt lat="53.61541043117637" lon="14.813905011218331"><ele>26.0</ele><time>2026-04-12T10:54:18.911Z</time></trkpt><trkpt lat="53.615415548117255" lon="14.81374651021958"><ele>26.0</ele><time>2026-04-12T10:54:19.911Z</time></trkpt><trkpt lat="53.61543489342779" lon="14.813594402662472"><ele>26.0</ele><time>2026-04-12T10:54:20.911Z</time></trkpt><trkpt lat="53.61545566735312" lon="14.813403522408581"><ele>26.0</ele><time>2026-04-12T10:54:21.911Z</time></trkpt><trkpt lat="53.615494641915944" lon="14.813230010694472"><ele>26.0</ele><time>2026-04-12T10:54:22.911Z</time></trkpt><trkpt lat="53.61553714367931" lon="14.81313084649137"><ele>26.0</ele><time>2026-04-12T10:54:23.911Z</time></trkpt><trkpt lat="53.61557091600993" lon="14.81298033064315"><ele>26.200000000000003</ele><time>2026-04-12T10:54:24.911Z</time></trkpt><trkpt lat="53.61560521182489" lon="14.812844526105206"><ele>26.400000000000002</ele><time>2026-04-12T10:54:25.911Z</time></trkpt><trkpt lat="53.61564376789774" lon="14.812709961740008"><ele>26.6</ele><time>2026-04-12T10:54:26.911Z</time></trkpt><trkpt lat="53.61570395986865" lon="14.812567500875248"><ele>26.8</ele><time>2026-04-12T10:54:27.911Z</time></trkpt><trkpt lat="53.61575582737221" lon="14.812418916891602"><ele>27.0</ele><time>2026-04-12T10:54:28.911Z</time></trkpt><trkpt lat="53.61579038812116" lon="14.812276271524834"><ele>27.5</ele><time>2026-04-12T10:54:29.911Z</time></trkpt><trkpt lat="53.61581605573462" lon="14.812151069959228"><ele>28.0</ele><time>2026-04-12T10:54:30.911Z</time></trkpt><trkpt lat="53.6158223429729" lon="14.812016826528822"><ele>28.5</ele><time>2026-04-12T10:54:31.911Z</time></trkpt><trkpt lat="53.61579206923906" lon="14.811903281501534"><ele>29.0</ele><time>2026-04-12T10:54:32.911Z</time></trkpt><trkpt lat="53.61574369298089" lon="14.811760184939534"><ele>29.5</ele><time>2026-04-12T10:54:33.911Z</time></trkpt><trkpt lat="53.61569944832891" lon="14.811579484084021"><ele>30.0</ele><time>2026-04-12T10:54:34.911Z</time></trkpt><trkpt lat="53.61567384842874" lon="14.811379613082327"><ele>30.2</ele><time>2026-04-12T10:54:35.911Z</time></trkpt><trkpt lat="53.61563482500076" lon="14.81120425459708"><ele>30.4</ele><time>2026-04-12T10:54:37.911Z</time></trkpt><trkpt lat="53.615679262494766" lon="14.811097699481781"><ele>30.6</ele><time>2026-04-12T10:54:39.911Z</time></trkpt><trkpt lat="53.61576165976261" lon="14.81106087453793"><ele>30.8</ele><time>2026-04-12T10:54:40.911Z</time></trkpt><trkpt lat="53.615865458347514" lon="14.811045964802394"><ele>31.0</ele><time>2026-04-12T10:54:41.909Z</time></trkpt><trkpt lat="53.61599550090744" lon="14.81101993844352"><ele>29.333333333333336</ele><time>2026-04-12T10:54:42.91Z</time></trkpt><trkpt lat="53.61614296295136" lon="14.810967455727662"><ele>27.666666666666664</ele><time>2026-04-12T10:54:43.91Z</time></trkpt><trkpt lat="53.61631101008235" lon="14.810939670218676"><ele>26.0</ele><time>2026-04-12T10:54:44.909Z</time></trkpt><trkpt lat="53.61646143930033" lon="14.810922385503423"><ele>26.0</ele><time>2026-04-12T10:54:45.909Z</time></trkpt><trkpt lat="53.61659413275106" lon="14.81089408282661"><ele>26.0</ele><time>2026-04-12T10:54:46.909Z</time></trkpt><trkpt lat="53.61671545497925" lon="14.810896019253681"><ele>26.0</ele><time>2026-04-12T10:54:47.91Z</time></trkpt><trkpt lat="53.61681989562127" lon="14.810876114248689"><ele>26.0</ele><time>2026-04-12T10:54:48.91Z</time></trkpt><trkpt lat="53.61693068979302" lon="14.810854016150106"><ele>25.200000000000003</ele><time>2026-04-12T10:54:49.91Z</time></trkpt><trkpt lat="53.617035800141885" lon="14.810805532878996"><ele>24.400000000000002</ele><time>2026-04-12T10:54:50.91Z</time></trkpt><trkpt lat="53.617123954608175" lon="14.810789178661274"><ele>23.6</ele><time>2026-04-12T10:54:51.909Z</time></trkpt><trkpt lat="53.61720993051759" lon="14.810773732533352"><ele>22.8</ele><time>2026-04-12T10:54:52.909Z</time></trkpt><trkpt lat="53.61730834767307" lon="14.810770622121952"><ele>22.0</ele><time>2026-04-12T10:54:53.909Z</time></trkpt><trkpt lat="53.61745641233578" lon="14.81073609317677"><ele>22.0</ele><time>2026-04-12T10:54:54.91Z</time></trkpt><trkpt lat="53.617600229293274" lon="14.810702554842972"><ele>22.0</ele><time>2026-04-12T10:54:55.91Z</time></trkpt><trkpt lat="53.617726376791765" lon="14.810673358279697"><ele>22.0</ele><time>2026-04-12T10:54:56.91Z</time></trkpt><trkpt lat="53.61782994038558" lon="14.810650914553644"><ele>22.0</ele><time>2026-04-12T10:54:57.91Z</time></trkpt><trkpt lat="53.61795157784931" lon="14.810625624266539"><ele>21.666666666666664</ele><time>2026-04-12T10:54:58.91Z</time></trkpt><trkpt lat="53.618058760229616" lon="14.810606678154496"><ele>21.333333333333332</ele><time>2026-04-12T10:54:59.91Z</time></trkpt><trkpt lat="53.61815886370585" lon="14.810589740269764"><ele>21.0</ele><time>2026-04-12T10:55:00.91Z</time></trkpt><trkpt lat="53.61824431261317" lon="14.8105748914492"><ele>20.666666666666668</ele><time>2026-04-12T10:55:01.91Z</time></trkpt><trkpt lat="53.618307271230904" lon="14.810563547883813"><ele>20.333333333333336</ele><time>2026-04-12T10:55:02.91Z</time></trkpt><trkpt lat="53.61837685654896" lon="14.810551010311169"><ele>20.0</ele><time>2026-04-12T10:55:03.91Z</time></trkpt><trkpt lat="53.61844214759692" lon="14.810539246491135"><ele>20.0</ele><time>2026-04-12T10:55:04.91Z</time></trkpt><trkpt lat="53.61850620181792" lon="14.810527705480471"><ele>20.0</ele><time>2026-04-12T10:55:05.91Z</time></trkpt><trkpt lat="53.618579402797025" lon="14.810514514419523"><ele>20.0</ele><time>2026-04-12T10:55:06.91Z</time></trkpt><trkpt lat="53.61865851907118" lon="14.810472397267759"><ele>20.0</ele><time>2026-04-12T10:55:07.91Z</time></trkpt><trkpt lat="53.61878683959319" lon="14.810475371530513"><ele>20.0</ele><time>2026-04-12T10:55:09.909Z</time></trkpt><trkpt lat="53.618912681075386" lon="14.810451125788607"><ele>22.25</ele><time>2026-04-12T10:55:11.909Z</time></trkpt><trkpt lat="53.61899011124166" lon="14.810436207381139"><ele>24.5</ele><time>2026-04-12T10:55:12.909Z</time></trkpt><trkpt lat="53.61909979293851" lon="14.810473180832581"><ele>26.75</ele><time>2026-04-12T10:55:13.909Z</time></trkpt><trkpt lat="53.61922834966032" lon="14.810433304560819"><ele>29.0</ele><time>2026-04-12T10:55:14.909Z</time></trkpt><trkpt lat="53.61936198592996" lon="14.810405551173364"><ele>29.5</ele><time>2026-04-12T10:55:15.909Z</time></trkpt><trkpt lat="53.6194877083635" lon="14.8103793376684"><ele>30.0</ele><time>2026-04-12T10:55:16.909Z</time></trkpt><trkpt lat="53.61961222760855" lon="14.810363764925283"><ele>30.5</ele><time>2026-04-12T10:55:17.909Z</time></trkpt><trkpt lat="53.61973891999444" lon="14.810341665359397"><ele>31.0</ele><time>2026-04-12T10:55:18.909Z</time></trkpt><trkpt lat="53.619844575118734" lon="14.810322730281476"><ele>31.0</ele><time>2026-04-12T10:55:19.909Z</time></trkpt><trkpt lat="53.619959614522536" lon="14.810296562427252"><ele>31.0</ele><time>2026-04-12T10:55:20.909Z</time></trkpt><trkpt lat="53.620064046197186" lon="14.810271338918568"><ele>31.0</ele><time>2026-04-12T10:55:21.909Z</time></trkpt><trkpt lat="53.62017795927871" lon="14.810251276635833"><ele>31.0</ele><time>2026-04-12T10:55:22.909Z</time></trkpt><trkpt lat="53.620289916831254" lon="14.810230095194083"><ele>31.0</ele><time>2026-04-12T10:55:23.909Z</time></trkpt><trkpt lat="53.62039253382507" lon="14.810213870175739"><ele>31.0</ele><time>2026-04-12T10:55:24.909Z</time></trkpt><trkpt lat="53.62049178702236" lon="14.810187030771802"><ele>31.0</ele><time>2026-04-12T10:55:25.909Z</time></trkpt><trkpt lat="53.62059635441942" lon="14.810155563403004"><ele>31.0</ele><time>2026-04-12T10:55:26.909Z</time></trkpt><trkpt lat="53.62069168090826" lon="14.810129177308875"><ele>31.0</ele><time>2026-04-12T10:55:27.909Z</time></trkpt><trkpt lat="53.620787729089336" lon="14.810109600599123"><ele>31.0</ele><time>2026-04-12T10:55:28.909Z</time></trkpt><trkpt lat="53.6208846819863" lon="14.810081424157246"><ele>29.833333333333336</ele><time>2026-04-12T10:55:29.909Z</time></trkpt><trkpt lat="53.620983191199954" lon="14.810072760714185"><ele>28.666666666666668</ele><time>2026-04-12T10:55:30.909Z</time></trkpt><trkpt lat="53.62107404275659" lon="14.810095845410029"><ele>27.5</ele><time>2026-04-12T10:55:31.909Z</time></trkpt><trkpt lat="53.62117015690106" lon="14.81014839332182"><ele>26.333333333333336</ele><time>2026-04-12T10:55:32.909Z</time></trkpt><trkpt lat="53.62124203441776" lon="14.810186627856412"><ele>25.166666666666668</ele><time>2026-04-12T10:55:33.909Z</time></trkpt><trkpt lat="53.621304661105476" lon="14.810219379479989"><ele>24.0</ele><time>2026-04-12T10:55:34.909Z</time></trkpt><trkpt lat="53.62137304977977" lon="14.810286273871734"><ele>24.0</ele><time>2026-04-12T10:55:35.909Z</time></trkpt><trkpt lat="53.621425452549985" lon="14.810365747623473"><ele>24.0</ele><time>2026-04-12T10:55:36.909Z</time></trkpt><trkpt lat="53.62149040019728" lon="14.810370445070161"><ele>24.0</ele><time>2026-04-12T10:55:37.909Z</time></trkpt><trkpt lat="53.62155596924659" lon="14.81031447084808"><ele>24.0</ele><time>2026-04-12T10:55:38.909Z</time></trkpt><trkpt lat="53.621666973119716" lon="14.810306690634905"><ele>24.0</ele><time>2026-04-12T10:55:39.909Z</time></trkpt><trkpt lat="53.62175352934588" lon="14.810274244722299"><ele>24.0</ele><time>2026-04-12T10:55:40.909Z</time></trkpt><trkpt lat="53.62183022780066" lon="14.810252826290256"><ele>24.0</ele><time>2026-04-12T10:55:41.909Z</time></trkpt><trkpt lat="53.62189557955346" lon="14.810197034230193"><ele>24.0</ele><time>2026-04-12T10:55:42.909Z</time></trkpt><trkpt lat="53.62195174643847" lon="14.810115469774104"><ele>24.0</ele><time>2026-04-12T10:55:43.909Z</time></trkpt><trkpt lat="53.62196551243585" lon="14.809954713064267"><ele>24.0</ele><time>2026-04-12T10:55:44.909Z</time></trkpt><trkpt lat="53.6219972729502" lon="14.809773526587199"><ele>24.0</ele><time>2026-04-12T10:55:45.909Z</time></trkpt><trkpt lat="53.62203366744233" lon="14.809597478671321"><ele>23.2</ele><time>2026-04-12T10:55:46.909Z</time></trkpt><trkpt lat="53.622058912916884" lon="14.809428889830883"><ele>22.4</ele><time>2026-04-12T10:55:47.909Z</time></trkpt><trkpt lat="53.62210003754314" lon="14.809303680701463"><ele>21.6</ele><time>2026-04-12T10:55:48.909Z</time></trkpt><trkpt lat="53.62214863255918" lon="14.809151808197608"><ele>20.8</ele><time>2026-04-12T10:55:49.909Z</time></trkpt><trkpt lat="53.62219531668529" lon="14.809007522228978"><ele>20.0</ele><time>2026-04-12T10:55:50.909Z</time></trkpt><trkpt lat="53.622257556991535" lon="14.808863159128785"><ele>20.0</ele><time>2026-04-12T10:55:51.909Z</time></trkpt><trkpt lat="53.62230585739914" lon="14.808720573922445"><ele>20.0</ele><time>2026-04-12T10:55:52.909Z</time></trkpt><trkpt lat="53.62235747566792" lon="14.808558958336391"><ele>20.0</ele><time>2026-04-12T10:55:53.909Z</time></trkpt><trkpt lat="53.62241444591925" lon="14.80839339757199"><ele>20.0</ele><time>2026-04-12T10:55:54.909Z</time></trkpt><trkpt lat="53.62244595966839" lon="14.808198120586715"><ele>20.0</ele><time>2026-04-12T10:55:55.909Z</time></trkpt><trkpt lat="53.622468311316176" lon="14.80801740327272"><ele>20.4</ele><time>2026-04-12T10:55:56.909Z</time></trkpt><trkpt lat="53.62250695883361" lon="14.807849422194026"><ele>20.8</ele><time>2026-04-12T10:55:57.909Z</time></trkpt><trkpt lat="53.62255363946208" lon="14.807720671079757"><ele>21.200000000000003</ele><time>2026-04-12T10:55:58.909Z</time></trkpt><trkpt lat="53.622599845023096" lon="14.807593878698082"><ele>21.6</ele><time>2026-04-12T10:55:59.909Z</time></trkpt><trkpt lat="53.62264002883559" lon="14.807463227148832"><ele>22.0</ele><time>2026-04-12T10:56:00.909Z</time></trkpt><trkpt lat="53.62269889019764" lon="14.807326984653924"><ele>22.0</ele><time>2026-04-12T10:56:01.909Z</time></trkpt><trkpt lat="53.62275627780264" lon="14.807197742523538"><ele>22.0</ele><time>2026-04-12T10:56:02.909Z</time></trkpt><trkpt lat="53.62280980367538" lon="14.807031397761229"><ele>22.0</ele><time>2026-04-12T10:56:03.909Z</time></trkpt><trkpt lat="53.622872853124825" lon="14.806887576048455"><ele>22.0</ele><time>2026-04-12T10:56:04.909Z</time></trkpt><trkpt lat="53.62292373439772" lon="14.80673676774151"><ele>22.0</ele><time>2026-04-12T10:56:05.909Z</time></trkpt><trkpt lat="53.62297219086027" lon="14.806586474838962"><ele>22.0</ele><time>2026-04-12T10:56:06.909Z</time></trkpt><trkpt lat="53.62302377254338" lon="14.806414558566841"><ele>22.0</ele><time>2026-04-12T10:56:07.909Z</time></trkpt><trkpt lat="53.62310049976581" lon="14.806294642402777"><ele>22.0</ele><time>2026-04-12T10:56:08.909Z</time></trkpt><trkpt lat="53.62318298787428" lon="14.806177225523871"><ele>22.0</ele><time>2026-04-12T10:56:09.909Z</time></trkpt><trkpt lat="53.62328614229871" lon="14.806096583860318"><ele>22.0</ele><time>2026-04-12T10:56:10.909Z</time></trkpt><trkpt lat="53.62338301142549" lon="14.805996114747071"><ele>22.0</ele><time>2026-04-12T10:56:11.909Z</time></trkpt><trkpt lat="53.62346757669406" lon="14.805886493211661"><ele>22.0</ele><time>2026-04-12T10:56:12.909Z</time></trkpt><trkpt lat="53.62355091285909" lon="14.805801751326415"><ele>22.0</ele><time>2026-04-12T10:56:13.909Z</time></trkpt><trkpt lat="53.62363620044442" lon="14.805718047442554"><ele>22.0</ele><time>2026-04-12T10:56:14.909Z</time></trkpt><trkpt lat="53.62372056634563" lon="14.80564211959803"><ele>22.0</ele><time>2026-04-12T10:56:15.909Z</time></trkpt><trkpt lat="53.623795201287386" lon="14.805560624801169"><ele>23.400000000000002</ele><time>2026-04-12T10:56:16.909Z</time></trkpt><trkpt lat="53.62387198811782" lon="14.805477036483419"><ele>24.8</ele><time>2026-04-12T10:56:17.909Z</time></trkpt><trkpt lat="53.62395257093865" lon="14.805402204884684"><ele>26.2</ele><time>2026-04-12T10:56:18.909Z</time></trkpt><trkpt lat="53.62403510726694" lon="14.80531130773252"><ele>27.6</ele><time>2026-04-12T10:56:19.909Z</time></trkpt><trkpt lat="53.624120243636746" lon="14.80521843988408"><ele>29.0</ele><time>2026-04-12T10:56:20.909Z</time></trkpt><trkpt lat="53.62419990227561" lon="14.805134264312818"><ele>29.0</ele><time>2026-04-12T10:56:21.909Z</time></trkpt><trkpt lat="53.62429279462825" lon="14.805038111111724"><ele>29.0</ele><time>2026-04-12T10:56:22.909Z</time></trkpt><trkpt lat="53.62439372652552" lon="14.804939008556492"><ele>29.0</ele><time>2026-04-12T10:56:23.909Z</time></trkpt><trkpt lat="53.62450773084648" lon="14.80483537030126"><ele>29.0</ele><time>2026-04-12T10:56:24.909Z</time></trkpt><trkpt lat="53.62460445696895" lon="14.804752281875944"><ele>29.0</ele><time>2026-04-12T10:56:25.909Z</time></trkpt><trkpt lat="53.624717874376564" lon="14.804659612978957"><ele>29.0</ele><time>2026-04-12T10:56:26.909Z</time></trkpt><trkpt lat="53.62483800106623" lon="14.804555088256514"><ele>29.0</ele><time>2026-04-12T10:56:27.909Z</time></trkpt><trkpt lat="53.62495088506803" lon="14.804478772435631"><ele>29.0</ele><time>2026-04-12T10:56:28.909Z</time></trkpt><trkpt lat="53.625055587692714" lon="14.804372133802136"><ele>28.75</ele><time>2026-04-12T10:56:29.909Z</time></trkpt><trkpt lat="53.62517214981482" lon="14.804310658764447"><ele>28.5</ele><time>2026-04-12T10:56:30.909Z</time></trkpt><trkpt lat="53.625287456619" lon="14.80422973693086"><ele>28.25</ele><time>2026-04-12T10:56:31.909Z</time></trkpt><trkpt lat="53.625412965944385" lon="14.804155034727925"><ele>28.0</ele><time>2026-04-12T10:56:32.909Z</time></trkpt><trkpt lat="53.625555913183895" lon="14.804091904468436"><ele>28.0</ele><time>2026-04-12T10:56:33.909Z</time></trkpt><trkpt lat="53.62568512729803" lon="14.804065312261159"><ele>28.0</ele><time>2026-04-12T10:56:34.909Z</time></trkpt><trkpt lat="53.62580493075655" lon="14.804072261431081"><ele>28.0</ele><time>2026-04-12T10:56:35.909Z</time></trkpt><trkpt lat="53.625895903936296" lon="14.804125526722066"><ele>28.0</ele><time>2026-04-12T10:56:36.909Z</time></trkpt><trkpt lat="53.62603199739738" lon="14.804148596241648"><ele>28.0</ele><time>2026-04-12T10:56:37.909Z</time></trkpt><trkpt lat="53.62610607522773" lon="14.804245752696579"><ele>28.0</ele><time>2026-04-12T10:56:38.909Z</time></trkpt><trkpt lat="53.62621958146244" lon="14.804276770799232"><ele>28.0</ele><time>2026-04-12T10:56:39.909Z</time></trkpt><trkpt lat="53.62644683760315" lon="14.803573846926152"><ele>28.25</ele><time>2026-04-12T10:56:40.909Z</time></trkpt><trkpt lat="53.62658114269033" lon="14.803510631541071"><ele>28.5</ele><time>2026-04-12T10:56:41.909Z</time></trkpt><trkpt lat="53.626708877210376" lon="14.803432901243228"><ele>28.75</ele><time>2026-04-12T10:56:42.909Z</time></trkpt><trkpt lat="53.626839786453125" lon="14.803365085222786"><ele>29.0</ele><time>2026-04-12T10:56:43.909Z</time></trkpt><trkpt lat="53.626962349808245" lon="14.803307065601595"><ele>29.799999999999997</ele><time>2026-04-12T10:56:44.909Z</time></trkpt><trkpt lat="53.62707688902113" lon="14.803250937434438"><ele>30.599999999999998</ele><time>2026-04-12T10:56:45.909Z</time></trkpt><trkpt lat="53.62718507609189" lon="14.803193234690445"><ele>31.4</ele><time>2026-04-12T10:56:46.909Z</time></trkpt><trkpt lat="53.6272832793932" lon="14.803136037495168"><ele>32.199999999999996</ele><time>2026-04-12T10:56:47.907Z</time></trkpt><trkpt lat="53.62737221824564" lon="14.80307011232375"><ele>33.0</ele><time>2026-04-12T10:56:48.907Z</time></trkpt><trkpt lat="53.62743442565832" lon="14.803042227559125"><ele>33.0</ele><time>2026-04-12T10:56:49.907Z</time></trkpt><trkpt lat="53.62750210554729" lon="14.80300717877164"><ele>33.0</ele><time>2026-04-12T10:56:50.907Z</time></trkpt><trkpt lat="53.6276050870274" lon="14.802947308405408"><ele>33.0</ele><time>2026-04-12T10:56:51.906Z</time></trkpt><trkpt lat="53.627699833288546" lon="14.802892738666719"><ele>33.0</ele><time>2026-04-12T10:56:52.906Z</time></trkpt><trkpt lat="53.62780577369042" lon="14.802812318890878"><ele>33.0</ele><time>2026-04-12T10:56:53.907Z</time></trkpt><trkpt lat="53.62790130985863" lon="14.802775861052105"><ele>33.5</ele><time>2026-04-12T10:56:54.907Z</time></trkpt><trkpt lat="53.62802932416258" lon="14.80272456150789"><ele>34.0</ele><time>2026-04-12T10:56:55.907Z</time></trkpt><trkpt lat="53.62816194287861" lon="14.802660970787084"><ele>34.5</ele><time>2026-04-12T10:56:56.906Z</time></trkpt><trkpt lat="53.62828309423359" lon="14.80259322068062"><ele>35.0</ele><time>2026-04-12T10:56:57.907Z</time></trkpt><trkpt lat="53.62839386675102" lon="14.802528078806631"><ele>35.0</ele><time>2026-04-12T10:56:58.906Z</time></trkpt><trkpt lat="53.62851612379222" lon="14.802458155834636"><ele>35.0</ele><time>2026-04-12T10:56:59.906Z</time></trkpt><trkpt lat="53.628627409960195" lon="14.802407766008695"><ele>35.0</ele><time>2026-04-12T10:57:00.906Z</time></trkpt><trkpt lat="53.628727570674165" lon="14.802352581853262"><ele>35.0</ele><time>2026-04-12T10:57:01.906Z</time></trkpt><trkpt lat="53.62884315219922" lon="14.80226924732944"><ele>35.0</ele><time>2026-04-12T10:57:02.906Z</time></trkpt><trkpt lat="53.628951441812724" lon="14.802208603689651"><ele>35.0</ele><time>2026-04-12T10:57:03.906Z</time></trkpt><trkpt lat="53.629061158513416" lon="14.802150415252209"><ele>35.0</ele><time>2026-04-12T10:57:04.906Z</time></trkpt><trkpt lat="53.629179707366745" lon="14.802091226146187"><ele>35.0</ele><time>2026-04-12T10:57:05.906Z</time></trkpt><trkpt lat="53.629301120671855" lon="14.802024787767518"><ele>35.0</ele><time>2026-04-12T10:57:06.906Z</time></trkpt><trkpt lat="53.629416318700244" lon="14.801969012119432"><ele>35.0</ele><time>2026-04-12T10:57:07.906Z</time></trkpt><trkpt lat="53.62952747327075" lon="14.801912214134811"><ele>35.0</ele><time>2026-04-12T10:57:08.906Z</time></trkpt><trkpt lat="53.629634260592034" lon="14.80185181498491"><ele>35.0</ele><time>2026-04-12T10:57:09.906Z</time></trkpt><trkpt lat="53.62974395967208" lon="14.801790735875267"><ele>35.0</ele><time>2026-04-12T10:57:10.906Z</time></trkpt><trkpt lat="53.629844634922435" lon="14.801724794725157"><ele>35.0</ele><time>2026-04-12T10:57:11.906Z</time></trkpt><trkpt lat="53.62994880930901" lon="14.801671161215749"><ele>35.0</ele><time>2026-04-12T10:57:12.906Z</time></trkpt><trkpt lat="53.63004839500152" lon="14.801604996361283"><ele>35.0</ele><time>2026-04-12T10:57:13.906Z</time></trkpt><trkpt lat="53.63014325704406" lon="14.801544812522042"><ele>35.0</ele><time>2026-04-12T10:57:14.906Z</time></trkpt><trkpt lat="53.63021943724064" lon="14.801504284003784"><ele>35.0</ele><time>2026-04-12T10:57:15.906Z</time></trkpt><trkpt lat="53.63031834187624" lon="14.801436038821764"><ele>35.0</ele><time>2026-04-12T10:57:16.906Z</time></trkpt><trkpt lat="53.63041366013502" lon="14.80137254294255"><ele>35.0</ele><time>2026-04-12T10:57:17.906Z</time></trkpt><trkpt lat="53.6305088721934" lon="14.80133761102723"><ele>35.0</ele><time>2026-04-12T10:57:18.906Z</time></trkpt><trkpt lat="53.630596903409106" lon="14.801298540923888"><ele>35.0</ele><time>2026-04-12T10:57:19.906Z</time></trkpt><trkpt lat="53.63069159646824" lon="14.801248900867083"><ele>35.0</ele><time>2026-04-12T10:57:20.906Z</time></trkpt><trkpt lat="53.63078838828144" lon="14.801199178540399"><ele>35.0</ele><time>2026-04-12T10:57:21.906Z</time></trkpt><trkpt lat="53.63088628033548" lon="14.80114130582798"><ele>35.0</ele><time>2026-04-12T10:57:22.906Z</time></trkpt><trkpt lat="53.63098111666965" lon="14.801093570292812"><ele>35.0</ele><time>2026-04-12T10:57:23.906Z</time></trkpt><trkpt lat="53.631080812137284" lon="14.801036431269448"><ele>35.0</ele><time>2026-04-12T10:57:24.906Z</time></trkpt><trkpt lat="53.631181185402625" lon="14.800992551334701"><ele>35.0</ele><time>2026-04-12T10:57:25.906Z</time></trkpt><trkpt lat="53.63128710152014" lon="14.800929692484768"><ele>35.0</ele><time>2026-04-12T10:57:26.906Z</time></trkpt><trkpt lat="53.63139312104016" lon="14.800867110969328"><ele>35.0</ele><time>2026-04-12T10:57:27.906Z</time></trkpt><trkpt lat="53.63149147342479" lon="14.80082385026419"><ele>35.0</ele><time>2026-04-12T10:57:28.906Z</time></trkpt><trkpt lat="53.6315878012597" lon="14.800770469059607"><ele>35.0</ele><time>2026-04-12T10:57:29.906Z</time></trkpt><trkpt lat="53.63168269071074" lon="14.800715854483077"><ele>35.0</ele><time>2026-04-12T10:57:30.906Z</time></trkpt><trkpt lat="53.63179254662188" lon="14.800644312314555"><ele>35.0</ele><time>2026-04-12T10:57:31.906Z</time></trkpt><trkpt lat="53.631884561279676" lon="14.80059866844661"><ele>35.0</ele><time>2026-04-12T10:57:32.906Z</time></trkpt><trkpt lat="53.63198546338389" lon="14.800550566239561"><ele>35.0</ele><time>2026-04-12T10:57:33.906Z</time></trkpt><trkpt lat="53.632088395256346" lon="14.800493688238623"><ele>35.0</ele><time>2026-04-12T10:57:34.906Z</time></trkpt><trkpt lat="53.63217716355263" lon="14.80044791612817"><ele>35.2</ele><time>2026-04-12T10:57:35.906Z</time></trkpt><trkpt lat="53.63224783900836" lon="14.800388488258834"><ele>35.4</ele><time>2026-04-12T10:57:36.906Z</time></trkpt><trkpt lat="53.6323267917893" lon="14.800340335692242"><ele>35.6</ele><time>2026-04-12T10:57:37.906Z</time></trkpt><trkpt lat="53.63242780238755" lon="14.800287041424486"><ele>35.8</ele><time>2026-04-12T10:57:38.906Z</time></trkpt><trkpt lat="53.63252134407281" lon="14.800252878552552"><ele>36.0</ele><time>2026-04-12T10:57:39.906Z</time></trkpt><trkpt lat="53.6326047076505" lon="14.800209096491558"><ele>36.0</ele><time>2026-04-12T10:57:40.906Z</time></trkpt><trkpt lat="53.63269505098471" lon="14.800155812579606"><ele>36.0</ele><time>2026-04-12T10:57:41.906Z</time></trkpt><trkpt lat="53.63279093008541" lon="14.800099503361087"><ele>36.0</ele><time>2026-04-12T10:57:42.906Z</time></trkpt><trkpt lat="53.632875715360335" lon="14.80005159137045"><ele>36.0</ele><time>2026-04-12T10:57:43.906Z</time></trkpt><trkpt lat="53.632963953819356" lon="14.800007628683668"><ele>36.0</ele><time>2026-04-12T10:57:44.906Z</time></trkpt><trkpt lat="53.63306008434045" lon="14.799971180816186"><ele>35.333333333333336</ele><time>2026-04-12T10:57:45.906Z</time></trkpt><trkpt lat="53.63313968777793" lon="14.799925749888077"><ele>34.666666666666664</ele><time>2026-04-12T10:57:46.906Z</time></trkpt><trkpt lat="53.633208656315645" lon="14.799888683115451"><ele>34.0</ele><time>2026-04-12T10:57:47.906Z</time></trkpt><trkpt lat="53.633281348855995" lon="14.799854008420299"><ele>33.33333333333333</ele><time>2026-04-12T10:57:48.906Z</time></trkpt><trkpt lat="53.633386980481575" lon="14.799798947009036"><ele>32.666666666666664</ele><time>2026-04-12T10:57:50.906Z</time></trkpt><trkpt lat="53.63345381000316" lon="14.799694067528582"><ele>32.0</ele><time>2026-04-12T10:57:52.906Z</time></trkpt><trkpt lat="53.633458883489695" lon="14.799524683727908"><ele>31.999999999999996</ele><time>2026-04-12T10:57:54.906Z</time></trkpt><trkpt lat="53.63342955186198" lon="14.79942094809919"><ele>32.0</ele><time>2026-04-12T10:57:55.906Z</time></trkpt><trkpt lat="53.63339852047927" lon="14.799251572247842"><ele>32.0</ele><time>2026-04-12T10:57:56.906Z</time></trkpt><trkpt lat="53.633369046918894" lon="14.799126527081913"><ele>32.0</ele><time>2026-04-12T10:57:57.906Z</time></trkpt><trkpt lat="53.6333458982341" lon="14.798973943657536"><ele>31.999999999999996</ele><time>2026-04-12T10:57:58.906Z</time></trkpt><trkpt lat="53.63331928582228" lon="14.798853077216542"><ele>32.0</ele><time>2026-04-12T10:57:59.906Z</time></trkpt><trkpt lat="53.633295666994435" lon="14.798736764661264"><ele>32.4</ele><time>2026-04-12T10:58:00.906Z</time></trkpt><trkpt lat="53.63326093855604" lon="14.798616856056489"><ele>32.800000000000004</ele><time>2026-04-12T10:58:01.906Z</time></trkpt><trkpt lat="53.633235060933885" lon="14.798485125782408"><ele>33.2</ele><time>2026-04-12T10:58:02.906Z</time></trkpt><trkpt lat="53.63321443989013" lon="14.798312358501965"><ele>33.6</ele><time>2026-04-12T10:58:03.906Z</time></trkpt><trkpt lat="53.633169060618044" lon="14.798093086573143"><ele>34.0</ele><time>2026-04-12T10:58:05.906Z</time></trkpt><trkpt lat="53.63314116117975" lon="14.797964483351816"><ele>34.2</ele><time>2026-04-12T10:58:06.906Z</time></trkpt><trkpt lat="53.6331192988563" lon="14.797794180471776"><ele>34.4</ele><time>2026-04-12T10:58:07.906Z</time></trkpt><trkpt lat="53.633092578697834" lon="14.797647434188328"><ele>34.6</ele><time>2026-04-12T10:58:08.906Z</time></trkpt><trkpt lat="53.63307340595728" lon="14.797510739295971"><ele>34.8</ele><time>2026-04-12T10:58:09.906Z</time></trkpt><trkpt lat="53.63304804701297" lon="14.797369589926152"><ele>35.0</ele><time>2026-04-12T10:58:10.906Z</time></trkpt><trkpt lat="53.633026047231944" lon="14.797193986180329"><ele>35.0</ele><time>2026-04-12T10:58:11.906Z</time></trkpt><trkpt lat="53.632991640644136" lon="14.797010588230972"><ele>35.0</ele><time>2026-04-12T10:58:12.906Z</time></trkpt><trkpt lat="53.63294925974582" lon="14.796872196516544"><ele>35.0</ele><time>2026-04-12T10:58:13.906Z</time></trkpt><trkpt lat="53.63293350085364" lon="14.796734930380573"><ele>35.0</ele><time>2026-04-12T10:58:14.906Z</time></trkpt><trkpt lat="53.63291019557595" lon="14.796594045282607"><ele>35.0</ele><time>2026-04-12T10:58:15.906Z</time></trkpt><trkpt lat="53.63286974132396" lon="14.796376642436933"><ele>35.0</ele><time>2026-04-12T10:58:16.906Z</time></trkpt><trkpt lat="53.632830867460086" lon="14.796176407081225"><ele>35.0</ele><time>2026-04-12T10:58:17.906Z</time></trkpt><trkpt lat="53.63279693501592" lon="14.796052452608405"><ele>35.0</ele><time>2026-04-12T10:58:18.906Z</time></trkpt><trkpt lat="53.63277157485992" lon="14.795859419528233"><ele>35.0</ele><time>2026-04-12T10:58:19.906Z</time></trkpt><trkpt lat="53.63273714695357" lon="14.795678051365286"><ele>35.0</ele><time>2026-04-12T10:58:20.906Z</time></trkpt><trkpt lat="53.632709123451235" lon="14.795500648337796"><ele>35.0</ele><time>2026-04-12T10:58:21.906Z</time></trkpt><trkpt lat="53.632682804969804" lon="14.795324396434168"><ele>35.0</ele><time>2026-04-12T10:58:22.906Z</time></trkpt><trkpt lat="53.63264870657678" lon="14.795155157969965"><ele>35.0</ele><time>2026-04-12T10:58:23.906Z</time></trkpt><trkpt lat="53.632612011361715" lon="14.794965445293569"><ele>35.0</ele><time>2026-04-12T10:58:24.906Z</time></trkpt><trkpt lat="53.632573106989476" lon="14.794785787289097"><ele>35.0</ele><time>2026-04-12T10:58:25.906Z</time></trkpt><trkpt lat="53.63254403433297" lon="14.79462190235953"><ele>34.6</ele><time>2026-04-12T10:58:26.906Z</time></trkpt><trkpt lat="53.632526503041966" lon="14.794473682653248"><ele>34.2</ele><time>2026-04-12T10:58:27.905Z</time></trkpt><trkpt lat="53.632496380995825" lon="14.794306163044839"><ele>33.8</ele><time>2026-04-12T10:58:28.905Z</time></trkpt><trkpt lat="53.63247239983272" lon="14.79413712895888"><ele>33.4</ele><time>2026-04-12T10:58:29.905Z</time></trkpt><trkpt lat="53.632445790001476" lon="14.793993661996945"><ele>33.0</ele><time>2026-04-12T10:58:30.905Z</time></trkpt><trkpt lat="53.63242696150686" lon="14.793837671102116"><ele>32.4</ele><time>2026-04-12T10:58:31.905Z</time></trkpt><trkpt lat="53.632410563977615" lon="14.793669803817819"><ele>31.799999999999997</ele><time>2026-04-12T10:58:32.905Z</time></trkpt><trkpt lat="53.63238457975439" lon="14.793550442673089"><ele>31.2</ele><time>2026-04-12T10:58:33.905Z</time></trkpt><trkpt lat="53.632318162613544" lon="14.793382597592572"><ele>30.6</ele><time>2026-04-12T10:58:35.905Z</time></trkpt><trkpt lat="53.632262284718465" lon="14.793257814659006"><ele>30.0</ele><time>2026-04-12T10:58:37.905Z</time></trkpt><trkpt lat="53.63227374274752" lon="14.793112927507083"><ele>29.75</ele><time>2026-04-12T10:58:39.905Z</time></trkpt><trkpt lat="53.63233839768749" lon="14.792973151855518"><ele>29.5</ele><time>2026-04-12T10:58:40.905Z</time></trkpt><trkpt lat="53.632461775264225" lon="14.792893223980407"><ele>29.25</ele><time>2026-04-12T10:58:41.905Z</time></trkpt><trkpt lat="53.63254744880267" lon="14.792725849511775"><ele>29.0</ele><time>2026-04-12T10:58:42.905Z</time></trkpt><trkpt lat="53.632643068597055" lon="14.79253904480783"><ele>29.0</ele><time>2026-04-12T10:58:43.905Z</time></trkpt><trkpt lat="53.632760611015186" lon="14.792309410558746"><ele>29.0</ele><time>2026-04-12T10:58:44.905Z</time></trkpt><trkpt lat="53.63287381657489" lon="14.792088960122145"><ele>29.0</ele><time>2026-04-12T10:58:45.905Z</time></trkpt><trkpt lat="53.632989845024014" lon="14.79186314561325"><ele>29.333333333333332</ele><time>2026-04-12T10:58:46.905Z</time></trkpt><trkpt lat="53.63311402215447" lon="14.791621335651518"><ele>29.666666666666664</ele><time>2026-04-12T10:58:47.905Z</time></trkpt><trkpt lat="53.63322487644892" lon="14.791406107769884"><ele>30.0</ele><time>2026-04-12T10:58:48.905Z</time></trkpt><trkpt lat="53.633326673395224" lon="14.79121005846169"><ele>30.0</ele><time>2026-04-12T10:58:49.905Z</time></trkpt><trkpt lat="53.63342810856819" lon="14.791024711086047"><ele>30.0</ele><time>2026-04-12T10:58:50.905Z</time></trkpt><trkpt lat="53.63353354105181" lon="14.790845456873255"><ele>30.0</ele><time>2026-04-12T10:58:51.905Z</time></trkpt><trkpt lat="53.63363272597831" lon="14.790679517531037"><ele>30.0</ele><time>2026-04-12T10:58:52.905Z</time></trkpt><trkpt lat="53.63373501291979" lon="14.790510577798775"><ele>30.25</ele><time>2026-04-12T10:58:53.904Z</time></trkpt><trkpt lat="53.63383395864913" lon="14.790343828969172"><ele>30.5</ele><time>2026-04-12T10:58:54.905Z</time></trkpt><trkpt lat="53.633935126203674" lon="14.790171414981447"><ele>30.75</ele><time>2026-04-12T10:58:55.905Z</time></trkpt><trkpt lat="53.63403826629414" lon="14.78999557337537"><ele>31.0</ele><time>2026-04-12T10:58:56.905Z</time></trkpt><trkpt lat="53.63413922281668" lon="14.789824901969984"><ele>30.5</ele><time>2026-04-12T10:58:57.904Z</time></trkpt><trkpt lat="53.634241567691674" lon="14.789655546975801"><ele>30.0</ele><time>2026-04-12T10:58:58.904Z</time></trkpt><trkpt lat="53.63434074258322" lon="14.789495139745917"><ele>29.5</ele><time>2026-04-12T10:58:59.904Z</time></trkpt><trkpt lat="53.63443204851922" lon="14.78935016169584"><ele>29.0</ele><time>2026-04-12T10:59:00.904Z</time></trkpt><trkpt lat="53.63452061838631" lon="14.789212077271152"><ele>28.75</ele><time>2026-04-12T10:59:01.904Z</time></trkpt><trkpt lat="53.634600808132745" lon="14.78905504523524"><ele>28.5</ele><time>2026-04-12T10:59:02.904Z</time></trkpt><trkpt lat="53.634696178853595" lon="14.788940892282016"><ele>28.25</ele><time>2026-04-12T10:59:03.904Z</time></trkpt><trkpt lat="53.63479196314642" lon="14.788815427335589"><ele>28.0</ele><time>2026-04-12T10:59:04.904Z</time></trkpt><trkpt lat="53.63490347258339" lon="14.788707587388233"><ele>28.0</ele><time>2026-04-12T10:59:05.904Z</time></trkpt><trkpt lat="53.63501042522606" lon="14.788592356793098"><ele>28.0</ele><time>2026-04-12T10:59:06.903Z</time></trkpt><trkpt lat="53.63511850397673" lon="14.788459552177912"><ele>28.0</ele><time>2026-04-12T10:59:07.903Z</time></trkpt><trkpt lat="53.63523855061248" lon="14.788339126708555"><ele>28.0</ele><time>2026-04-12T10:59:08.903Z</time></trkpt><trkpt lat="53.63537619185268" lon="14.788251128835322"><ele>28.666666666666668</ele><time>2026-04-12T10:59:09.903Z</time></trkpt><trkpt lat="53.63550939049061" lon="14.78813718739326"><ele>29.333333333333336</ele><time>2026-04-12T10:59:10.903Z</time></trkpt><trkpt lat="53.63564185011581" lon="14.78799553199506"><ele>30.0</ele><time>2026-04-12T10:59:11.903Z</time></trkpt><trkpt lat="53.63577562804623" lon="14.787898654775896"><ele>30.0</ele><time>2026-04-12T10:59:12.903Z</time></trkpt><trkpt lat="53.63590789341704" lon="14.78778940387659"><ele>30.0</ele><time>2026-04-12T10:59:13.903Z</time></trkpt><trkpt lat="53.63604045983675" lon="14.78768168163399"><ele>30.0</ele><time>2026-04-12T10:59:14.903Z</time></trkpt><trkpt lat="53.63617600138821" lon="14.787565530009164"><ele>30.0</ele><time>2026-04-12T10:59:15.903Z</time></trkpt><trkpt lat="53.63631844104999" lon="14.787480246011581"><ele>27.333333333333332</ele><time>2026-04-12T10:59:16.903Z</time></trkpt><trkpt lat="53.63645311186715" lon="14.787357687345215"><ele>24.666666666666664</ele><time>2026-04-12T10:59:17.903Z</time></trkpt><trkpt lat="53.6365951041098" lon="14.787230531900619"><ele>22.0</ele><time>2026-04-12T10:59:18.903Z</time></trkpt><trkpt lat="53.63673456914744" lon="14.7871391056976"><ele>22.0</ele><time>2026-04-12T10:59:19.903Z</time></trkpt><trkpt lat="53.63685450895888" lon="14.787034845862358"><ele>22.0</ele><time>2026-04-12T10:59:20.903Z</time></trkpt><trkpt lat="53.63698113990413" lon="14.78693022658111"><ele>22.0</ele><time>2026-04-12T10:59:21.903Z</time></trkpt><trkpt lat="53.63710602574257" lon="14.786835220061777"><ele>22.0</ele><time>2026-04-12T10:59:22.903Z</time></trkpt><trkpt lat="53.637228632716074" lon="14.786729751011165"><ele>21.0</ele><time>2026-04-12T10:59:23.903Z</time></trkpt><trkpt lat="53.637354199091696" lon="14.786628748419712"><ele>20.0</ele><time>2026-04-12T10:59:24.903Z</time></trkpt><trkpt lat="53.63748745825685" lon="14.78651907728495"><ele>19.0</ele><time>2026-04-12T10:59:25.903Z</time></trkpt><trkpt lat="53.63761570884141" lon="14.786419457251002"><ele>18.0</ele><time>2026-04-12T10:59:26.903Z</time></trkpt><trkpt lat="53.63774399114875" lon="14.786313097626078"><ele>18.25</ele><time>2026-04-12T10:59:27.903Z</time></trkpt><trkpt lat="53.63787409944194" lon="14.786198045991302"><ele>18.5</ele><time>2026-04-12T10:59:28.903Z</time></trkpt><trkpt lat="53.638004408497416" lon="14.786088301866316"><ele>18.75</ele><time>2026-04-12T10:59:29.903Z</time></trkpt><trkpt lat="53.6381281022597" lon="14.785988180779045"><ele>19.0</ele><time>2026-04-12T10:59:30.903Z</time></trkpt><trkpt lat="53.63823214071338" lon="14.785869133409845"><ele>19.0</ele><time>2026-04-12T10:59:31.903Z</time></trkpt><trkpt lat="53.638322499108064" lon="14.785716618307848"><ele>19.0</ele><time>2026-04-12T10:59:32.903Z</time></trkpt><trkpt lat="53.638391291053836" lon="14.78551692527824"><ele>19.0</ele><time>2026-04-12T10:59:33.903Z</time></trkpt><trkpt lat="53.63844361273164" lon="14.785290579967647"><ele>19.0</ele><time>2026-04-12T10:59:34.903Z</time></trkpt><trkpt lat="53.638494095550584" lon="14.785062095161175"><ele>19.0</ele><time>2026-04-12T10:59:35.903Z</time></trkpt><trkpt lat="53.63856066582338" lon="14.784840764831515"><ele>19.0</ele><time>2026-04-12T10:59:36.903Z</time></trkpt><trkpt lat="53.63862162192337" lon="14.784622134147167"><ele>19.0</ele><time>2026-04-12T10:59:37.903Z</time></trkpt><trkpt lat="53.638682677958755" lon="14.784399212190399"><ele>19.0</ele><time>2026-04-12T10:59:38.903Z</time></trkpt><trkpt lat="53.638745536228555" lon="14.78419390615739"><ele>19.0</ele><time>2026-04-12T10:59:39.903Z</time></trkpt><trkpt lat="53.6388060899493" lon="14.78397672221858"><ele>19.0</ele><time>2026-04-12T10:59:40.903Z</time></trkpt><trkpt lat="53.63886556800727" lon="14.783750771035816"><ele>19.0</ele><time>2026-04-12T10:59:41.903Z</time></trkpt><trkpt lat="53.638925731713044" lon="14.783524969947848"><ele>19.0</ele><time>2026-04-12T10:59:42.903Z</time></trkpt><trkpt lat="53.63899238815201" lon="14.783287481185438"><ele>19.0</ele><time>2026-04-12T10:59:43.903Z</time></trkpt><trkpt lat="53.639059274737306" lon="14.783043521287167"><ele>19.0</ele><time>2026-04-12T10:59:44.903Z</time></trkpt><trkpt lat="53.63913023688297" lon="14.782796116323615"><ele>19.0</ele><time>2026-04-12T10:59:45.903Z</time></trkpt><trkpt lat="53.63920282192608" lon="14.782542554534995"><ele>19.0</ele><time>2026-04-12T10:59:46.903Z</time></trkpt><trkpt lat="53.639278594458865" lon="14.782270355232294"><ele>19.0</ele><time>2026-04-12T10:59:47.903Z</time></trkpt><trkpt lat="53.639353484900425" lon="14.782016406532628"><ele>19.0</ele><time>2026-04-12T10:59:48.903Z</time></trkpt><trkpt lat="53.63943395662586" lon="14.781748255888989"><ele>19.333333333333332</ele><time>2026-04-12T10:59:49.903Z</time></trkpt><trkpt lat="53.63950583588169" lon="14.781492822116189"><ele>19.666666666666668</ele><time>2026-04-12T10:59:50.903Z</time></trkpt><trkpt lat="53.63957523710424" lon="14.781239179167278"><ele>20.0</ele><time>2026-04-12T10:59:51.903Z</time></trkpt><trkpt lat="53.6396481681431" lon="14.780958820906138"><ele>20.0</ele><time>2026-04-12T10:59:52.903Z</time></trkpt><trkpt lat="53.63972318384502" lon="14.780700895528522"><ele>20.0</ele><time>2026-04-12T10:59:53.903Z</time></trkpt><trkpt lat="53.63979348457634" lon="14.780440095664094"><ele>20.0</ele><time>2026-04-12T10:59:54.903Z</time></trkpt><trkpt lat="53.63986824502244" lon="14.78017636337984"><ele>19.666666666666668</ele><time>2026-04-12T10:59:55.903Z</time></trkpt><trkpt lat="53.639939205032384" lon="14.7799296831274"><ele>19.333333333333332</ele><time>2026-04-12T10:59:56.903Z</time></trkpt><trkpt lat="53.64001255733616" lon="14.77966807418984"><ele>19.0</ele><time>2026-04-12T10:59:57.903Z</time></trkpt><trkpt lat="53.64008394301631" lon="14.779407040963129"><ele>18.666666666666664</ele><time>2026-04-12T10:59:58.903Z</time></trkpt><trkpt lat="53.64016658740634" lon="14.779169308315156"><ele>18.333333333333332</ele><time>2026-04-12T10:59:59.903Z</time></trkpt><trkpt lat="53.64024038891049" lon="14.778917856557374"><ele>18.0</ele><time>2026-04-12T11:00:00.903Z</time></trkpt><trkpt lat="53.640315732965064" lon="14.778654383895176"><ele>17.666666666666668</ele><time>2026-04-12T11:00:01.903Z</time></trkpt><trkpt lat="53.64037565717926" lon="14.778397293778475"><ele>17.333333333333336</ele><time>2026-04-12T11:00:02.903Z</time></trkpt><trkpt lat="53.64044721295399" lon="14.778156146346399"><ele>17.0</ele><time>2026-04-12T11:00:03.903Z</time></trkpt><trkpt lat="53.64052995045481" lon="14.777915755254037"><ele>17.0</ele><time>2026-04-12T11:00:04.903Z</time></trkpt><trkpt lat="53.64062220904164" lon="14.777679866536394"><ele>17.0</ele><time>2026-04-12T11:00:05.903Z</time></trkpt><trkpt lat="53.64068752925124" lon="14.777431389663688"><ele>17.0</ele><time>2026-04-12T11:00:06.903Z</time></trkpt><trkpt lat="53.64077887800582" lon="14.777183824218074"><ele>17.0</ele><time>2026-04-12T11:00:07.903Z</time></trkpt><trkpt lat="53.6408708797589" lon="14.77694686238014"><ele>17.0</ele><time>2026-04-12T11:00:08.903Z</time></trkpt><trkpt lat="53.64096791238177" lon="14.776707268836436"><ele>17.0</ele><time>2026-04-12T11:00:09.903Z</time></trkpt><trkpt lat="53.641069501523546" lon="14.776462229268747"><ele>17.0</ele><time>2026-04-12T11:00:10.903Z</time></trkpt><trkpt lat="53.6411808327395" lon="14.776216857934966"><ele>17.0</ele><time>2026-04-12T11:00:11.903Z</time></trkpt><trkpt lat="53.641280006188644" lon="14.775959354050812"><ele>17.0</ele><time>2026-04-12T11:00:12.903Z</time></trkpt><trkpt lat="53.64138246658254" lon="14.775710776336556"><ele>17.666666666666668</ele><time>2026-04-12T11:00:13.903Z</time></trkpt><trkpt lat="53.641479187600964" lon="14.775464760693648"><ele>18.333333333333332</ele><time>2026-04-12T11:00:14.903Z</time></trkpt><trkpt lat="53.64156489329918" lon="14.775211681437515"><ele>19.0</ele><time>2026-04-12T11:00:15.903Z</time></trkpt><trkpt lat="53.641636334130965" lon="14.774942697582292"><ele>19.333333333333332</ele><time>2026-04-12T11:00:16.903Z</time></trkpt><trkpt lat="53.641681725767604" lon="14.77466868921377"><ele>19.666666666666668</ele><time>2026-04-12T11:00:17.903Z</time></trkpt><trkpt lat="53.641718156931674" lon="14.774387070168688"><ele>20.0</ele><time>2026-04-12T11:00:18.903Z</time></trkpt><trkpt lat="53.64173682928722" lon="14.774107762576927"><ele>20.0</ele><time>2026-04-12T11:00:19.903Z</time></trkpt><trkpt lat="53.641744081274965" lon="14.77381510993492"><ele>20.0</ele><time>2026-04-12T11:00:20.903Z</time></trkpt><trkpt lat="53.64174912392454" lon="14.77354667488408"><ele>20.0</ele><time>2026-04-12T11:00:21.903Z</time></trkpt><trkpt lat="53.641752664680794" lon="14.773267726021325"><ele>20.0</ele><time>2026-04-12T11:00:22.903Z</time></trkpt><trkpt lat="53.64176351421202" lon="14.773003280164959"><ele>20.0</ele><time>2026-04-12T11:00:23.903Z</time></trkpt><trkpt lat="53.64177059353694" lon="14.772736031750696"><ele>20.0</ele><time>2026-04-12T11:00:24.903Z</time></trkpt><trkpt lat="53.64180038998468" lon="14.7724667086857"><ele>20.333333333333336</ele><time>2026-04-12T11:00:25.903Z</time></trkpt><trkpt lat="53.641845674785735" lon="14.77218448278618"><ele>20.666666666666668</ele><time>2026-04-12T11:00:26.903Z</time></trkpt><trkpt lat="53.64189802912714" lon="14.771922295527595"><ele>21.0</ele><time>2026-04-12T11:00:27.903Z</time></trkpt><trkpt lat="53.641962954891" lon="14.77166868868663"><ele>21.333333333333332</ele><time>2026-04-12T11:00:28.902Z</time></trkpt><trkpt lat="53.64204727830224" lon="14.77143114962046"><ele>21.666666666666664</ele><time>2026-04-12T11:00:29.902Z</time></trkpt><trkpt lat="53.64212389436475" lon="14.771174503584529"><ele>22.0</ele><time>2026-04-12T11:00:30.902Z</time></trkpt><trkpt lat="53.64220188023169" lon="14.770915969790371"><ele>22.0</ele><time>2026-04-12T11:00:31.902Z</time></trkpt><trkpt lat="53.64227909621493" lon="14.770662329223143"><ele>22.0</ele><time>2026-04-12T11:00:32.902Z</time></trkpt><trkpt lat="53.64235839575025" lon="14.770409228534255"><ele>22.0</ele><time>2026-04-12T11:00:33.902Z</time></trkpt><trkpt lat="53.64244644427823" lon="14.770142376757605"><ele>22.666666666666664</ele><time>2026-04-12T11:00:34.902Z</time></trkpt><trkpt lat="53.642533180085174" lon="14.769882641740365"><ele>23.333333333333332</ele><time>2026-04-12T11:00:35.902Z</time></trkpt><trkpt lat="53.642621935762214" lon="14.769617730424503"><ele>24.0</ele><time>2026-04-12T11:00:36.902Z</time></trkpt><trkpt lat="53.64271398263834" lon="14.76934637873124"><ele>22.666666666666668</ele><time>2026-04-12T11:00:37.902Z</time></trkpt><trkpt lat="53.64280795510193" lon="14.769092856613417"><ele>21.333333333333336</ele><time>2026-04-12T11:00:38.902Z</time></trkpt><trkpt lat="53.64291227682832" lon="14.76883500941954"><ele>20.0</ele><time>2026-04-12T11:00:39.902Z</time></trkpt><trkpt lat="53.64301084730897" lon="14.768597732527137"><ele>21.333333333333336</ele><time>2026-04-12T11:00:40.902Z</time></trkpt><trkpt lat="53.643113657794274" lon="14.768353781527574"><ele>22.666666666666668</ele><time>2026-04-12T11:00:41.902Z</time></trkpt><trkpt lat="53.64321288408652" lon="14.768118026426398"><ele>24.0</ele><time>2026-04-12T11:00:42.902Z</time></trkpt><trkpt lat="53.64331386288165" lon="14.767877501258292"><ele>25.333333333333336</ele><time>2026-04-12T11:00:43.902Z</time></trkpt><trkpt lat="53.64341879035937" lon="14.767629757460169"><ele>26.666666666666668</ele><time>2026-04-12T11:00:44.902Z</time></trkpt><trkpt lat="53.64352099720658" lon="14.76738963542693"><ele>28.0</ele><time>2026-04-12T11:00:45.902Z</time></trkpt><trkpt lat="53.64362781266801" lon="14.767145992775816"><ele>27.666666666666668</ele><time>2026-04-12T11:00:46.902Z</time></trkpt><trkpt lat="53.643729608069904" lon="14.766913607654333"><ele>27.333333333333336</ele><time>2026-04-12T11:00:47.902Z</time></trkpt><trkpt lat="53.6438388288867" lon="14.76666138694842"><ele>27.0</ele><time>2026-04-12T11:00:48.902Z</time></trkpt><trkpt lat="53.643956591569015" lon="14.766386637642212"><ele>27.666666666666664</ele><time>2026-04-12T11:00:49.902Z</time></trkpt><trkpt lat="53.644083658849695" lon="14.76609368424438"><ele>28.333333333333332</ele><time>2026-04-12T11:00:50.902Z</time></trkpt><trkpt lat="53.64421013789862" lon="14.765813111621497"><ele>29.0</ele><time>2026-04-12T11:00:51.902Z</time></trkpt><trkpt lat="53.64433126180093" lon="14.765558419376852"><ele>29.333333333333332</ele><time>2026-04-12T11:00:52.902Z</time></trkpt><trkpt lat="53.644456553815736" lon="14.765306875099025"><ele>29.666666666666664</ele><time>2026-04-12T11:00:53.902Z</time></trkpt><trkpt lat="53.64458883253169" lon="14.765041099803081"><ele>30.0</ele><time>2026-04-12T11:00:54.902Z</time></trkpt><trkpt lat="53.644721413191" lon="14.764791609081191"><ele>29.666666666666664</ele><time>2026-04-12T11:00:55.902Z</time></trkpt><trkpt lat="53.64485508238344" lon="14.76455147323411"><ele>29.333333333333332</ele><time>2026-04-12T11:00:56.902Z</time></trkpt><trkpt lat="53.64499892559045" lon="14.764311909643604"><ele>29.0</ele><time>2026-04-12T11:00:57.902Z</time></trkpt><trkpt lat="53.645155306366995" lon="14.764084500825307"><ele>29.0</ele><time>2026-04-12T11:00:58.902Z</time></trkpt><trkpt lat="53.64531849688593" lon="14.763866044836597"><ele>29.0</ele><time>2026-04-12T11:00:59.901Z</time></trkpt><trkpt lat="53.64547887907334" lon="14.76365560755432"><ele>29.0</ele><time>2026-04-12T11:01:00.901Z</time></trkpt><trkpt lat="53.64563583112389" lon="14.763458994938032"><ele>29.0</ele><time>2026-04-12T11:01:01.901Z</time></trkpt><trkpt lat="53.645806939789495" lon="14.763244215493547"><ele>29.0</ele><time>2026-04-12T11:01:02.902Z</time></trkpt><trkpt lat="53.645960905567854" lon="14.763046807762827"><ele>29.0</ele><time>2026-04-12T11:01:03.901Z</time></trkpt><trkpt lat="53.6461085335622" lon="14.762854761854042"><ele>29.333333333333332</ele><time>2026-04-12T11:01:04.901Z</time></trkpt><trkpt lat="53.64624837495225" lon="14.762675077150288"><ele>29.666666666666664</ele><time>2026-04-12T11:01:05.902Z</time></trkpt><trkpt lat="53.64638217112829" lon="14.762501983308226"><ele>30.0</ele><time>2026-04-12T11:01:06.902Z</time></trkpt><trkpt lat="53.64651750844191" lon="14.762324449024382"><ele>30.0</ele><time>2026-04-12T11:01:07.902Z</time></trkpt><trkpt lat="53.64665586142685" lon="14.762139659125378"><ele>30.0</ele><time>2026-04-12T11:01:08.901Z</time></trkpt><trkpt lat="53.64679619863377" lon="14.76194986600841"><ele>30.0</ele><time>2026-04-12T11:01:09.901Z</time></trkpt><trkpt lat="53.64694027360731" lon="14.761760834450719"><ele>30.0</ele><time>2026-04-12T11:01:10.901Z</time></trkpt><trkpt lat="53.647089611240226" lon="14.761577010557339"><ele>30.0</ele><time>2026-04-12T11:01:11.901Z</time></trkpt><trkpt lat="53.64723840186214" lon="14.761407251043657"><ele>30.0</ele><time>2026-04-12T11:01:12.9Z</time></trkpt><trkpt lat="53.64738495011464" lon="14.761249575732842"><ele>30.0</ele><time>2026-04-12T11:01:13.9Z</time></trkpt><trkpt lat="53.647537518421515" lon="14.761098183177491"><ele>30.0</ele><time>2026-04-12T11:01:14.9Z</time></trkpt><trkpt lat="53.6476968990074" lon="14.760947916773594"><ele>30.0</ele><time>2026-04-12T11:01:15.9Z</time></trkpt><trkpt lat="53.647866769646114" lon="14.760794019498372"><ele>29.666666666666664</ele><time>2026-04-12T11:01:16.9Z</time></trkpt><trkpt lat="53.6480347256549" lon="14.760639610247845"><ele>29.333333333333332</ele><time>2026-04-12T11:01:17.9Z</time></trkpt><trkpt lat="53.648212460968445" lon="14.76047766009861"><ele>29.0</ele><time>2026-04-12T11:01:18.9Z</time></trkpt><trkpt lat="53.648394334594755" lon="14.760310810680094"><ele>28.333333333333332</ele><time>2026-04-12T11:01:19.901Z</time></trkpt><trkpt lat="53.648578970451304" lon="14.760130182037072"><ele>27.666666666666664</ele><time>2026-04-12T11:01:20.902Z</time></trkpt><trkpt lat="53.64875687864052" lon="14.759962236870026"><ele>27.0</ele><time>2026-04-12T11:01:21.903Z</time></trkpt><trkpt lat="53.64894307784027" lon="14.759787377696"><ele>26.333333333333336</ele><time>2026-04-12T11:01:22.904Z</time></trkpt><trkpt lat="53.64913894490806" lon="14.759610897624947"><ele>25.666666666666668</ele><time>2026-04-12T11:01:23.905Z</time></trkpt><trkpt lat="53.64932461434635" lon="14.759441373279524"><ele>25.0</ele><time>2026-04-12T11:01:24.906Z</time></trkpt><trkpt lat="53.649523914115406" lon="14.759253271761585"><ele>24.666666666666668</ele><time>2026-04-12T11:01:25.907Z</time></trkpt><trkpt lat="53.64971468068779" lon="14.759079265759889"><ele>24.333333333333336</ele><time>2026-04-12T11:01:26.907Z</time></trkpt><trkpt lat="53.6499101313253" lon="14.758898261431215"><ele>24.0</ele><time>2026-04-12T11:01:27.908Z</time></trkpt><trkpt lat="53.6501290628436" lon="14.758729436317722"><ele>24.333333333333336</ele><time>2026-04-12T11:01:28.909Z</time></trkpt><trkpt lat="53.6503115354376" lon="14.758544904225177"><ele>24.666666666666668</ele><time>2026-04-12T11:01:29.909Z</time></trkpt><trkpt lat="53.65050422230199" lon="14.758363442691055"><ele>25.0</ele><time>2026-04-12T11:01:30.91Z</time></trkpt><trkpt lat="53.650695701669434" lon="14.758218481695593"><ele>24.666666666666668</ele><time>2026-04-12T11:01:31.911Z</time></trkpt><trkpt lat="53.65088240396685" lon="14.75805158266344"><ele>24.333333333333336</ele><time>2026-04-12T11:01:32.911Z</time></trkpt><trkpt lat="53.651077124418386" lon="14.757877912189544"><ele>24.0</ele><time>2026-04-12T11:01:33.912Z</time></trkpt><trkpt lat="53.65127611877791" lon="14.757705263216748"><ele>23.333333333333332</ele><time>2026-04-12T11:01:34.912Z</time></trkpt><trkpt lat="53.65145922999601" lon="14.757547468453462"><ele>22.666666666666664</ele><time>2026-04-12T11:01:35.912Z</time></trkpt><trkpt lat="53.65165112768255" lon="14.757382102009817"><ele>22.0</ele><time>2026-04-12T11:01:36.913Z</time></trkpt><trkpt lat="53.65184209274148" lon="14.757215147396215"><ele>22.666666666666664</ele><time>2026-04-12T11:01:37.913Z</time></trkpt><trkpt lat="53.65201915339554" lon="14.757028582015005"><ele>23.333333333333332</ele><time>2026-04-12T11:01:38.914Z</time></trkpt><trkpt lat="53.65219939899632" lon="14.75687338740416"><ele>24.0</ele><time>2026-04-12T11:01:39.914Z</time></trkpt><trkpt lat="53.652368797428664" lon="14.756728234122606"><ele>24.333333333333336</ele><time>2026-04-12T11:01:40.914Z</time></trkpt><trkpt lat="53.652540213112076" lon="14.756601029130035"><ele>24.666666666666668</ele><time>2026-04-12T11:01:41.914Z</time></trkpt><trkpt lat="53.65271136367751" lon="14.756459880002355"><ele>25.0</ele><time>2026-04-12T11:01:42.915Z</time></trkpt><trkpt lat="53.65290003970247" lon="14.756324999065185"><ele>25.333333333333336</ele><time>2026-04-12T11:01:43.915Z</time></trkpt><trkpt lat="53.65309478306489" lon="14.756189202590686"><ele>25.666666666666664</ele><time>2026-04-12T11:01:44.915Z</time></trkpt><trkpt lat="53.653282356862185" lon="14.756066206891656"><ele>26.0</ele><time>2026-04-12T11:01:45.915Z</time></trkpt><trkpt lat="53.6534729427552" lon="14.755924289257152"><ele>26.666666666666664</ele><time>2026-04-12T11:01:46.916Z</time></trkpt><trkpt lat="53.653668759273685" lon="14.755821331430042"><ele>27.333333333333336</ele><time>2026-04-12T11:01:47.916Z</time></trkpt><trkpt lat="53.65387683244138" lon="14.75573817335845"><ele>28.0</ele><time>2026-04-12T11:01:48.916Z</time></trkpt><trkpt lat="53.65407323232208" lon="14.755606705089601"><ele>28.0</ele><time>2026-04-12T11:01:49.916Z</time></trkpt><trkpt lat="53.65424149600402" lon="14.755491392232386"><ele>28.0</ele><time>2026-04-12T11:01:50.916Z</time></trkpt><trkpt lat="53.6543999381885" lon="14.7553817498887"><ele>28.0</ele><time>2026-04-12T11:01:51.917Z</time></trkpt><trkpt lat="53.6545315465612" lon="14.755289345471956"><ele>27.5</ele><time>2026-04-12T11:01:52.917Z</time></trkpt><trkpt lat="53.654662884025335" lon="14.755196373893149"><ele>27.0</ele><time>2026-04-12T11:01:53.917Z</time></trkpt><trkpt lat="53.65479245809866" lon="14.755103495759311"><ele>26.5</ele><time>2026-04-12T11:01:54.917Z</time></trkpt><trkpt lat="53.65491201908045" lon="14.755016376752955"><ele>26.0</ele><time>2026-04-12T11:01:55.917Z</time></trkpt><trkpt lat="53.65504239931942" lon="14.754918733894009"><ele>26.0</ele><time>2026-04-12T11:01:56.917Z</time></trkpt><trkpt lat="53.65517563292695" lon="14.75481520804673"><ele>26.0</ele><time>2026-04-12T11:01:57.917Z</time></trkpt><trkpt lat="53.65530906213036" lon="14.754711085699032"><ele>26.0</ele><time>2026-04-12T11:01:58.917Z</time></trkpt><trkpt lat="53.65543900947739" lon="14.754579186057834"><ele>26.0</ele><time>2026-04-12T11:01:59.917Z</time></trkpt><trkpt lat="53.65558355864056" lon="14.754494872190609"><ele>26.666666666666664</ele><time>2026-04-12T11:02:00.918Z</time></trkpt><trkpt lat="53.65572514217838" lon="14.75438294278829"><ele>27.333333333333336</ele><time>2026-04-12T11:02:01.918Z</time></trkpt><trkpt lat="53.655864925421064" lon="14.754270530682506"><ele>28.0</ele><time>2026-04-12T11:02:02.918Z</time></trkpt><trkpt lat="53.65600504608444" lon="14.754106017074188"><ele>27.666666666666668</ele><time>2026-04-12T11:02:03.918Z</time></trkpt><trkpt lat="53.656173330424984" lon="14.75397775525741"><ele>27.333333333333336</ele><time>2026-04-12T11:02:04.918Z</time></trkpt><trkpt lat="53.656343526137455" lon="14.753814287777725"><ele>27.0</ele><time>2026-04-12T11:02:05.918Z</time></trkpt><trkpt lat="53.65649158876977" lon="14.753649096930937"><ele>27.0</ele><time>2026-04-12T11:02:06.918Z</time></trkpt><trkpt lat="53.65665442980435" lon="14.753472919290104"><ele>27.0</ele><time>2026-04-12T11:02:07.918Z</time></trkpt><trkpt lat="53.6568184372332" lon="14.753311449537833"><ele>27.0</ele><time>2026-04-12T11:02:08.918Z</time></trkpt><trkpt lat="53.65697597771388" lon="14.753160125934139"><ele>27.0</ele><time>2026-04-12T11:02:09.918Z</time></trkpt><trkpt lat="53.65713581362576" lon="14.752992350795497"><ele>27.0</ele><time>2026-04-12T11:02:10.918Z</time></trkpt><trkpt lat="53.657314379477135" lon="14.752844547168678"><ele>27.0</ele><time>2026-04-12T11:02:11.918Z</time></trkpt><trkpt lat="53.657489347406994" lon="14.7526679956522"><ele>26.333333333333336</ele><time>2026-04-12T11:02:12.918Z</time></trkpt><trkpt lat="53.657653208071274" lon="14.752503472321417"><ele>25.666666666666668</ele><time>2026-04-12T11:02:13.918Z</time></trkpt><trkpt lat="53.65782843386503" lon="14.752328211692705"><ele>25.0</ele><time>2026-04-12T11:02:14.918Z</time></trkpt><trkpt lat="53.657999987804146" lon="14.752158457855556"><ele>25.0</ele><time>2026-04-12T11:02:15.918Z</time></trkpt><trkpt lat="53.65817962787481" lon="14.75199017174804"><ele>25.0</ele><time>2026-04-12T11:02:16.918Z</time></trkpt><trkpt lat="53.6583577955906" lon="14.751843202984084"><ele>25.0</ele><time>2026-04-12T11:02:17.918Z</time></trkpt><trkpt lat="53.658548413925494" lon="14.75171627703145"><ele>24.333333333333336</ele><time>2026-04-12T11:02:18.918Z</time></trkpt><trkpt lat="53.65873965350388" lon="14.751601238203607"><ele>23.666666666666668</ele><time>2026-04-12T11:02:19.918Z</time></trkpt><trkpt lat="53.65892979695631" lon="14.751488074815478"><ele>23.0</ele><time>2026-04-12T11:02:20.918Z</time></trkpt><trkpt lat="53.65912398450815" lon="14.751373598649732"><ele>23.0</ele><time>2026-04-12T11:02:21.918Z</time></trkpt><trkpt lat="53.65929942285593" lon="14.75127065990635"><ele>23.0</ele><time>2026-04-12T11:02:22.918Z</time></trkpt><trkpt lat="53.659456653891844" lon="14.751179680936929"><ele>23.0</ele><time>2026-04-12T11:02:23.918Z</time></trkpt><trkpt lat="53.6596222237176" lon="14.751081868123071"><ele>23.0</ele><time>2026-04-12T11:02:24.918Z</time></trkpt><trkpt lat="53.65979048092167" lon="14.750982088968163"><ele>23.0</ele><time>2026-04-12T11:02:25.918Z</time></trkpt><trkpt lat="53.65995580107463" lon="14.750883430764748"><ele>23.0</ele><time>2026-04-12T11:02:26.918Z</time></trkpt><trkpt lat="53.660114588881854" lon="14.750790368479992"><ele>23.0</ele><time>2026-04-12T11:02:27.918Z</time></trkpt><trkpt lat="53.660272334927086" lon="14.750700080902037"><ele>23.0</ele><time>2026-04-12T11:02:28.918Z</time></trkpt><trkpt lat="53.66044635991836" lon="14.750600525730382"><ele>23.0</ele><time>2026-04-12T11:02:29.918Z</time></trkpt><trkpt lat="53.66061970884899" lon="14.750500973238369"><ele>23.666666666666668</ele><time>2026-04-12T11:02:30.918Z</time></trkpt><trkpt lat="53.660793829594006" lon="14.750401761684081"><ele>24.333333333333336</ele><time>2026-04-12T11:02:31.918Z</time></trkpt><trkpt lat="53.66096196201753" lon="14.750304621099323"><ele>25.0</ele><time>2026-04-12T11:02:32.918Z</time></trkpt><trkpt lat="53.661133749793734" lon="14.750206681445276"><ele>22.666666666666668</ele><time>2026-04-12T11:02:33.918Z</time></trkpt><trkpt lat="53.66131056803095" lon="14.750105907302078"><ele>20.333333333333336</ele><time>2026-04-12T11:02:34.918Z</time></trkpt><trkpt lat="53.661489810265316" lon="14.750003751650759"><ele>18.0</ele><time>2026-04-12T11:02:35.918Z</time></trkpt><trkpt lat="53.66167749345099" lon="14.749896546740777"><ele>18.0</ele><time>2026-04-12T11:02:36.918Z</time></trkpt><trkpt lat="53.6618605893335" lon="14.74979208041701"><ele>18.0</ele><time>2026-04-12T11:02:37.918Z</time></trkpt><trkpt lat="53.66203139091679" lon="14.749694716927378"><ele>18.0</ele><time>2026-04-12T11:02:38.918Z</time></trkpt><trkpt lat="53.6622076375686" lon="14.74959463608158"><ele>17.75</ele><time>2026-04-12T11:02:39.918Z</time></trkpt><trkpt lat="53.662369278038284" lon="14.749501911259932"><ele>17.5</ele><time>2026-04-12T11:02:40.918Z</time></trkpt><trkpt lat="53.66250762958753" lon="14.749423225489927"><ele>17.25</ele><time>2026-04-12T11:02:41.919Z</time></trkpt><trkpt lat="53.6626208411895" lon="14.749358971470375"><ele>17.0</ele><time>2026-04-12T11:02:42.919Z</time></trkpt><trkpt lat="53.66272780712995" lon="14.74929735953051"><ele>17.0</ele><time>2026-04-12T11:02:43.919Z</time></trkpt><trkpt lat="53.66282191494841" lon="14.749233990633837"><ele>17.0</ele><time>2026-04-12T11:02:44.919Z</time></trkpt><trkpt lat="53.66291342225397" lon="14.749172045061798"><ele>17.0</ele><time>2026-04-12T11:02:45.919Z</time></trkpt><trkpt lat="53.66298652120808" lon="14.749130350795078"><ele>17.0</ele><time>2026-04-12T11:02:46.918Z</time></trkpt><trkpt lat="53.663063312382775" lon="14.749110112548905"><ele>17.0</ele><time>2026-04-12T11:02:47.918Z</time></trkpt><trkpt lat="53.663127013122065" lon="14.749069659267443"><ele>17.0</ele><time>2026-04-12T11:02:48.918Z</time></trkpt><trkpt lat="53.66320679560101" lon="14.748997512700976"><ele>17.0</ele><time>2026-04-12T11:02:49.918Z</time></trkpt><trkpt lat="53.66329421143883" lon="14.748909223363153"><ele>17.0</ele><time>2026-04-12T11:02:50.918Z</time></trkpt><trkpt lat="53.6633834380252" lon="14.748777431330094"><ele>17.0</ele><time>2026-04-12T11:02:51.918Z</time></trkpt><trkpt lat="53.663494163596326" lon="14.748648873491584"><ele>17.0</ele><time>2026-04-12T11:02:52.918Z</time></trkpt><trkpt lat="53.663603196396316" lon="14.7485193785873"><ele>16.5</ele><time>2026-04-12T11:02:53.918Z</time></trkpt><trkpt lat="53.66371383052521" lon="14.74838099670997"><ele>16.0</ele><time>2026-04-12T11:02:54.918Z</time></trkpt><trkpt lat="53.663818118970504" lon="14.74823862018576"><ele>15.5</ele><time>2026-04-12T11:02:55.918Z</time></trkpt><trkpt lat="53.66390705707134" lon="14.748102828718245"><ele>15.0</ele><time>2026-04-12T11:02:56.918Z</time></trkpt><trkpt lat="53.66399825892851" lon="14.747935110350902"><ele>15.0</ele><time>2026-04-12T11:02:57.918Z</time></trkpt><trkpt lat="53.664081164029554" lon="14.747793579131251"><ele>15.0</ele><time>2026-04-12T11:02:58.918Z</time></trkpt><trkpt lat="53.66418802192644" lon="14.747705339994699"><ele>15.0</ele><time>2026-04-12T11:02:59.918Z</time></trkpt><trkpt lat="53.66429695983981" lon="14.74757809119101"><ele>15.0</ele><time>2026-04-12T11:03:00.918Z</time></trkpt><trkpt lat="53.66439342608555" lon="14.747443724127033"><ele>15.0</ele><time>2026-04-12T11:03:01.918Z</time></trkpt><trkpt lat="53.66450880451848" lon="14.747359828235444"><ele>15.0</ele><time>2026-04-12T11:03:02.918Z</time></trkpt><trkpt lat="53.66463807594393" lon="14.747308973735228"><ele>15.0</ele><time>2026-04-12T11:03:03.918Z</time></trkpt><trkpt lat="53.66476376453877" lon="14.747231964002054"><ele>15.0</ele><time>2026-04-12T11:03:04.918Z</time></trkpt><trkpt lat="53.664899278574666" lon="14.747155189825328"><ele>15.0</ele><time>2026-04-12T11:03:05.918Z</time></trkpt><trkpt lat="53.66503564299471" lon="14.747081645513887"><ele>15.0</ele><time>2026-04-12T11:03:06.918Z</time></trkpt><trkpt lat="53.66517391565436" lon="14.747008877183534"><ele>15.0</ele><time>2026-04-12T11:03:07.918Z</time></trkpt><trkpt lat="53.66530601817807" lon="14.746941601224867"><ele>15.0</ele><time>2026-04-12T11:03:08.917Z</time></trkpt><trkpt lat="53.66543200752487" lon="14.746872098122097"><ele>15.25</ele><time>2026-04-12T11:03:09.918Z</time></trkpt><trkpt lat="53.66554852472581" lon="14.746790060131083"><ele>15.5</ele><time>2026-04-12T11:03:10.918Z</time></trkpt><trkpt lat="53.66565131317635" lon="14.746713901645826"><ele>15.75</ele><time>2026-04-12T11:03:11.918Z</time></trkpt><trkpt lat="53.665746296892095" lon="14.746605748478308"><ele>16.0</ele><time>2026-04-12T11:03:12.918Z</time></trkpt><trkpt lat="53.66585442698757" lon="14.746483436178579"><ele>16.0</ele><time>2026-04-12T11:03:13.918Z</time></trkpt><trkpt lat="53.6659572898894" lon="14.746351795215144"><ele>16.0</ele><time>2026-04-12T11:03:14.918Z</time></trkpt><trkpt lat="53.666060676145854" lon="14.746196613226859"><ele>16.0</ele><time>2026-04-12T11:03:15.918Z</time></trkpt><trkpt lat="53.666152857983434" lon="14.74604368689803"><ele>16.0</ele><time>2026-04-12T11:03:16.918Z</time></trkpt><trkpt lat="53.666244271491536" lon="14.745890187169953"><ele>14.75</ele><time>2026-04-12T11:03:17.918Z</time></trkpt><trkpt lat="53.666331264546606" lon="14.745742529302607"><ele>13.5</ele><time>2026-04-12T11:03:18.917Z</time></trkpt><trkpt lat="53.66640906867242" lon="14.745592277261375"><ele>12.25</ele><time>2026-04-12T11:03:19.917Z</time></trkpt><trkpt lat="53.666489749750426" lon="14.745436073345939"><ele>11.0</ele><time>2026-04-12T11:03:20.917Z</time></trkpt><trkpt lat="53.66657244046636" lon="14.745277697866372"><ele>11.0</ele><time>2026-04-12T11:03:21.917Z</time></trkpt><trkpt lat="53.66664425253978" lon="14.74514101495294"><ele>11.0</ele><time>2026-04-12T11:03:22.917Z</time></trkpt><trkpt lat="53.66671609753967" lon="14.74500958884503"><ele>11.0</ele><time>2026-04-12T11:03:23.917Z</time></trkpt><trkpt lat="53.66680366637894" lon="14.744866265492371"><ele>11.0</ele><time>2026-04-12T11:03:24.917Z</time></trkpt><trkpt lat="53.66690160303348" lon="14.744723880995473"><ele>11.5</ele><time>2026-04-12T11:03:25.917Z</time></trkpt><trkpt lat="53.667010274894864" lon="14.744576973733572"><ele>12.0</ele><time>2026-04-12T11:03:26.917Z</time></trkpt><trkpt lat="53.66711362538632" lon="14.74447078794023"><ele>12.5</ele><time>2026-04-12T11:03:27.917Z</time></trkpt><trkpt lat="53.66721860909519" lon="14.744460173413788"><ele>13.0</ele><time>2026-04-12T11:03:28.917Z</time></trkpt><trkpt lat="53.66733172655384" lon="14.744438817533705"><ele>13.0</ele><time>2026-04-12T11:03:29.917Z</time></trkpt><trkpt lat="53.66745113801466" lon="14.744413889137562"><ele>13.0</ele><time>2026-04-12T11:03:30.917Z</time></trkpt><trkpt lat="53.66758248960787" lon="14.7443599916861"><ele>13.0</ele><time>2026-04-12T11:03:31.917Z</time></trkpt><trkpt lat="53.667700457173815" lon="14.744259565496003"><ele>13.0</ele><time>2026-04-12T11:03:32.917Z</time></trkpt><trkpt lat="53.66780408184135" lon="14.744127066151858"><ele>13.0</ele><time>2026-04-12T11:03:33.917Z</time></trkpt><trkpt lat="53.66789760406886" lon="14.743967167717981"><ele>13.0</ele><time>2026-04-12T11:03:34.917Z</time></trkpt><trkpt lat="53.66799633945629" lon="14.743787908317623"><ele>13.0</ele><time>2026-04-12T11:03:35.917Z</time></trkpt><trkpt lat="53.66807507036247" lon="14.743593390053343"><ele>13.0</ele><time>2026-04-12T11:03:36.917Z</time></trkpt><trkpt lat="53.66816203033022" lon="14.743421333761518"><ele>13.0</ele><time>2026-04-12T11:03:37.917Z</time></trkpt><trkpt lat="53.66822870246575" lon="14.743265752829755"><ele>13.0</ele><time>2026-04-12T11:03:38.917Z</time></trkpt><trkpt lat="53.66829348993713" lon="14.743134664430524"><ele>13.0</ele><time>2026-04-12T11:03:39.917Z</time></trkpt><trkpt lat="53.66834564944708" lon="14.743009711070181"><ele>13.0</ele><time>2026-04-12T11:03:40.917Z</time></trkpt><trkpt lat="53.66837227056634" lon="14.742906590695963"><ele>13.0</ele><time>2026-04-12T11:03:41.917Z</time></trkpt><trkpt lat="53.66842230748604" lon="14.742790219647093"><ele>12.999999999999998</ele><time>2026-04-12T11:03:43.917Z</time></trkpt><trkpt lat="53.66855828085058" lon="14.7427610583689"><ele>13.0</ele><time>2026-04-12T11:03:47.917Z</time></trkpt><trkpt lat="53.66862114288614" lon="14.742814084698848"><ele>13.0</ele><time>2026-04-12T11:03:48.917Z</time></trkpt><trkpt lat="53.66869366663409" lon="14.742826667291224"><ele>13.0</ele><time>2026-04-12T11:03:49.917Z</time></trkpt><trkpt lat="53.66876238478351" lon="14.742883115823371"><ele>12.999999999999998</ele><time>2026-04-12T11:03:50.917Z</time></trkpt><trkpt lat="53.66881310060399" lon="14.742955210440666"><ele>13.0</ele><time>2026-04-12T11:03:51.917Z</time></trkpt><trkpt lat="53.668874310719104" lon="14.74307121874814"><ele>13.666666666666666</ele><time>2026-04-12T11:03:53.917Z</time></trkpt><trkpt lat="53.668915013885275" lon="14.74315926715028"><ele>14.333333333333332</ele><time>2026-04-12T11:03:54.917Z</time></trkpt><trkpt lat="53.668949068641574" lon="14.74325397719265"><ele>15.0</ele><time>2026-04-12T11:03:55.917Z</time></trkpt><trkpt lat="53.6689777710843" lon="14.743359716441695"><ele>15.666666666666668</ele><time>2026-04-12T11:03:56.917Z</time></trkpt><trkpt lat="53.66900920091398" lon="14.743484254796824"><ele>16.333333333333336</ele><time>2026-04-12T11:03:57.917Z</time></trkpt><trkpt lat="53.66903311196487" lon="14.743628351297534"><ele>17.0</ele><time>2026-04-12T11:03:58.917Z</time></trkpt><trkpt lat="53.669054603397846" lon="14.74376221978155"><ele>17.0</ele><time>2026-04-12T11:03:59.917Z</time></trkpt><trkpt lat="53.66908403855777" lon="14.7439208617608"><ele>17.0</ele><time>2026-04-12T11:04:01.917Z</time></trkpt><trkpt lat="53.669281728072825" lon="14.743912813159804"><ele>17.0</ele><time>2026-04-12T11:04:10.917Z</time></trkpt><trkpt lat="53.669379371362275" lon="14.74393917990163"><ele>17.0</ele><time>2026-04-12T11:04:11.917Z</time></trkpt><trkpt lat="53.66947969089419" lon="14.743970120194358"><ele>18.0</ele><time>2026-04-12T11:04:12.917Z</time></trkpt><trkpt lat="53.66960381216605" lon="14.744044160499225"><ele>19.0</ele><time>2026-04-12T11:04:13.917Z</time></trkpt><trkpt lat="53.66970898194992" lon="14.744085660504716"><ele>20.0</ele><time>2026-04-12T11:04:14.917Z</time></trkpt><trkpt lat="53.669800826589906" lon="14.744100981737601"><ele>21.0</ele><time>2026-04-12T11:04:15.917Z</time></trkpt><trkpt lat="53.66987995016575" lon="14.74410249993645"><ele>22.0</ele><time>2026-04-12T11:04:16.917Z</time></trkpt><trkpt lat="53.669966353044636" lon="14.74409423612224"><ele>22.0</ele><time>2026-04-12T11:04:17.917Z</time></trkpt><trkpt lat="53.67006512939524" lon="14.744069586673197"><ele>22.0</ele><time>2026-04-12T11:04:18.917Z</time></trkpt><trkpt lat="53.67017578579845" lon="14.744031280041822"><ele>22.0</ele><time>2026-04-12T11:04:19.917Z</time></trkpt><trkpt lat="53.67027567145739" lon="14.743989158831432"><ele>22.0</ele><time>2026-04-12T11:04:20.917Z</time></trkpt><trkpt lat="53.67037530401832" lon="14.74396757111372"><ele>22.0</ele><time>2026-04-12T11:04:21.917Z</time></trkpt><trkpt lat="53.67046579411043" lon="14.74392643802312"><ele>22.333333333333332</ele><time>2026-04-12T11:04:22.917Z</time></trkpt><trkpt lat="53.670539110934705" lon="14.743894695673934"><ele>22.666666666666664</ele><time>2026-04-12T11:04:23.917Z</time></trkpt><trkpt lat="53.67061362581438" lon="14.74386715138555"><ele>23.0</ele><time>2026-04-12T11:04:24.917Z</time></trkpt><trkpt lat="53.670713457593955" lon="14.74382389488335"><ele>23.333333333333332</ele><time>2026-04-12T11:04:25.917Z</time></trkpt><trkpt lat="53.6707819293339" lon="14.743775731894923"><ele>23.666666666666668</ele><time>2026-04-12T11:04:26.917Z</time></trkpt><trkpt lat="53.67085784575315" lon="14.743733505624544"><ele>24.0</ele><time>2026-04-12T11:04:27.917Z</time></trkpt><trkpt lat="53.67094231102122" lon="14.743684653342992"><ele>24.0</ele><time>2026-04-12T11:04:28.917Z</time></trkpt><trkpt lat="53.67103938826325" lon="14.743641108951895"><ele>24.0</ele><time>2026-04-12T11:04:29.917Z</time></trkpt><trkpt lat="53.671147658065784" lon="14.743589509038497"><ele>24.0</ele><time>2026-04-12T11:04:30.917Z</time></trkpt><trkpt lat="53.6712709139062" lon="14.743545852479732"><ele>24.0</ele><time>2026-04-12T11:04:31.917Z</time></trkpt><trkpt lat="53.67137931718884" lon="14.74349207194457"><ele>23.4</ele><time>2026-04-12T11:04:32.917Z</time></trkpt><trkpt lat="53.67148924097724" lon="14.743456689173419"><ele>22.799999999999997</ele><time>2026-04-12T11:04:33.917Z</time></trkpt><trkpt lat="53.67158217526459" lon="14.743399995715702"><ele>22.200000000000003</ele><time>2026-04-12T11:04:34.917Z</time></trkpt><trkpt lat="53.671689226689246" lon="14.743352275735822"><ele>21.6</ele><time>2026-04-12T11:04:35.917Z</time></trkpt><trkpt lat="53.6718052687792" lon="14.74329101605496"><ele>21.0</ele><time>2026-04-12T11:04:36.917Z</time></trkpt><trkpt lat="53.67191396248983" lon="14.743253452131311"><ele>21.0</ele><time>2026-04-12T11:04:37.917Z</time></trkpt><trkpt lat="53.672030948840785" lon="14.743202666099107"><ele>21.0</ele><time>2026-04-12T11:04:38.917Z</time></trkpt><trkpt lat="53.67214174110823" lon="14.743175303945398"><ele>21.0</ele><time>2026-04-12T11:04:39.917Z</time></trkpt><trkpt lat="53.67225322413847" lon="14.743141377525005"><ele>21.0</ele><time>2026-04-12T11:04:40.917Z</time></trkpt><trkpt lat="53.67236914767971" lon="14.743101841995172"><ele>21.0</ele><time>2026-04-12T11:04:41.917Z</time></trkpt><trkpt lat="53.672494089398675" lon="14.743053188220328"><ele>21.0</ele><time>2026-04-12T11:04:42.917Z</time></trkpt><trkpt lat="53.672592027653316" lon="14.74302536115036"><ele>21.0</ele><time>2026-04-12T11:04:43.917Z</time></trkpt><trkpt lat="53.67271411878043" lon="14.742983656381973"><ele>21.0</ele><time>2026-04-12T11:04:44.917Z</time></trkpt><trkpt lat="53.6728246463951" lon="14.742945479146387"><ele>20.75</ele><time>2026-04-12T11:04:45.917Z</time></trkpt><trkpt lat="53.672943538283704" lon="14.742910248511913"><ele>20.5</ele><time>2026-04-12T11:04:46.917Z</time></trkpt><trkpt lat="53.67305742047191" lon="14.742865146474516"><ele>20.25</ele><time>2026-04-12T11:04:47.917Z</time></trkpt><trkpt lat="53.67317673779757" lon="14.742828064003865"><ele>20.0</ele><time>2026-04-12T11:04:48.917Z</time></trkpt><trkpt lat="53.6732961009826" lon="14.742787837062307"><ele>20.0</ele><time>2026-04-12T11:04:49.917Z</time></trkpt><trkpt lat="53.67341400477032" lon="14.74275435690159"><ele>20.0</ele><time>2026-04-12T11:04:50.917Z</time></trkpt><trkpt lat="53.67354050355664" lon="14.742721618062365"><ele>20.0</ele><time>2026-04-12T11:04:51.917Z</time></trkpt><trkpt lat="53.67366607212066" lon="14.742689907624978"><ele>20.0</ele><time>2026-04-12T11:04:52.917Z</time></trkpt><trkpt lat="53.67379111558929" lon="14.742655483392323"><ele>20.75</ele><time>2026-04-12T11:04:53.917Z</time></trkpt><trkpt lat="53.67391955963515" lon="14.742619712436124"><ele>21.5</ele><time>2026-04-12T11:04:54.917Z</time></trkpt><trkpt lat="53.67403827758726" lon="14.742592568199914"><ele>22.25</ele><time>2026-04-12T11:04:55.917Z</time></trkpt><trkpt lat="53.674161487047606" lon="14.742526452649399"><ele>23.0</ele><time>2026-04-12T11:04:56.917Z</time></trkpt><trkpt lat="53.674289213255186" lon="14.74248885514123"><ele>23.0</ele><time>2026-04-12T11:04:57.917Z</time></trkpt><trkpt lat="53.674418751276846" lon="14.742454094732365"><ele>23.0</ele><time>2026-04-12T11:04:58.917Z</time></trkpt><trkpt lat="53.67455519586882" lon="14.742428503032041"><ele>23.0</ele><time>2026-04-12T11:04:59.917Z</time></trkpt><trkpt lat="53.67468128476509" lon="14.742414013917731"><ele>23.0</ele><time>2026-04-12T11:05:00.917Z</time></trkpt><trkpt lat="53.67479355856059" lon="14.742416184758817"><ele>23.0</ele><time>2026-04-12T11:05:01.917Z</time></trkpt><trkpt lat="53.67492400037245" lon="14.742429955398642"><ele>23.0</ele><time>2026-04-12T11:05:02.917Z</time></trkpt><trkpt lat="53.67506174014915" lon="14.742449982654698"><ele>23.0</ele><time>2026-04-12T11:05:03.917Z</time></trkpt><trkpt lat="53.675204647185595" lon="14.742457394435474"><ele>23.0</ele><time>2026-04-12T11:05:04.917Z</time></trkpt><trkpt lat="53.675346194256086" lon="14.742468649686858"><ele>22.666666666666668</ele><time>2026-04-12T11:05:05.917Z</time></trkpt><trkpt lat="53.67550333607184" lon="14.742462243375636"><ele>22.333333333333332</ele><time>2026-04-12T11:05:06.917Z</time></trkpt><trkpt lat="53.675649170044196" lon="14.74245717413606"><ele>22.0</ele><time>2026-04-12T11:05:07.917Z</time></trkpt><trkpt lat="53.675803111579846" lon="14.742443349248376"><ele>22.0</ele><time>2026-04-12T11:05:08.917Z</time></trkpt><trkpt lat="53.67593811918423" lon="14.742424635913116"><ele>22.0</ele><time>2026-04-12T11:05:09.917Z</time></trkpt><trkpt lat="53.67605770295354" lon="14.74241726783912"><ele>22.0</ele><time>2026-04-12T11:05:10.917Z</time></trkpt><trkpt lat="53.67616875964022" lon="14.742421500188572"><ele>22.0</ele><time>2026-04-12T11:05:11.916Z</time></trkpt><trkpt lat="53.676307345997955" lon="14.742428046069257"><ele>21.6</ele><time>2026-04-12T11:05:12.916Z</time></trkpt><trkpt lat="53.676414996797014" lon="14.742447009553297"><ele>21.200000000000003</ele><time>2026-04-12T11:05:13.916Z</time></trkpt><trkpt lat="53.676512360565525" lon="14.742435953113358"><ele>20.8</ele><time>2026-04-12T11:05:14.916Z</time></trkpt><trkpt lat="53.67661477396994" lon="14.742404383680869"><ele>20.4</ele><time>2026-04-12T11:05:15.916Z</time></trkpt><trkpt lat="53.676726400513026" lon="14.7423605089808"><ele>20.0</ele><time>2026-04-12T11:05:16.916Z</time></trkpt><trkpt lat="53.67684293037291" lon="14.7422886043309"><ele>19.5</ele><time>2026-04-12T11:05:17.915Z</time></trkpt><trkpt lat="53.6769714659159" lon="14.742196666843926"><ele>19.0</ele><time>2026-04-12T11:05:18.916Z</time></trkpt><trkpt lat="53.67711034784648" lon="14.742091992727497"><ele>18.5</ele><time>2026-04-12T11:05:19.916Z</time></trkpt><trkpt lat="53.677242144418074" lon="14.741956438205897"><ele>18.0</ele><time>2026-04-12T11:05:20.916Z</time></trkpt><trkpt lat="53.677378411553335" lon="14.741827985954668"><ele>18.5</ele><time>2026-04-12T11:05:21.916Z</time></trkpt><trkpt lat="53.677502584263515" lon="14.741712960209483"><ele>19.0</ele><time>2026-04-12T11:05:22.916Z</time></trkpt><trkpt lat="53.677620539611844" lon="14.741624042356193"><ele>19.5</ele><time>2026-04-12T11:05:23.915Z</time></trkpt><trkpt lat="53.67775116991669" lon="14.741513120190314"><ele>20.0</ele><time>2026-04-12T11:05:24.916Z</time></trkpt><trkpt lat="53.677858157899614" lon="14.741425342724131"><ele>20.0</ele><time>2026-04-12T11:05:25.916Z</time></trkpt><trkpt lat="53.67797556044285" lon="14.741349722635668"><ele>20.0</ele><time>2026-04-12T11:05:26.916Z</time></trkpt><trkpt lat="53.67809325377068" lon="14.74125014886504"><ele>20.0</ele><time>2026-04-12T11:05:27.916Z</time></trkpt><trkpt lat="53.678214574609314" lon="14.74114997103013"><ele>20.0</ele><time>2026-04-12T11:05:28.916Z</time></trkpt><trkpt lat="53.67832040548523" lon="14.741049704600186"><ele>20.6</ele><time>2026-04-12T11:05:29.916Z</time></trkpt><trkpt lat="53.67844146900834" lon="14.740955972799085"><ele>21.2</ele><time>2026-04-12T11:05:30.916Z</time></trkpt><trkpt lat="53.678547902693246" lon="14.740870933480046"><ele>21.799999999999997</ele><time>2026-04-12T11:05:31.916Z</time></trkpt><trkpt lat="53.678640322342964" lon="14.740810071223903"><ele>22.4</ele><time>2026-04-12T11:05:32.916Z</time></trkpt><trkpt lat="53.67870257193713" lon="14.740760014174631"><ele>23.0</ele><time>2026-04-12T11:05:33.916Z</time></trkpt><trkpt lat="53.6787859387934" lon="14.740692083731897"><ele>23.0</ele><time>2026-04-12T11:05:35.916Z</time></trkpt><trkpt lat="53.678918015009394" lon="14.740569748279965"><ele>23.0</ele><time>2026-04-12T11:05:37.916Z</time></trkpt><trkpt lat="53.679003927219256" lon="14.740508129507187"><ele>23.0</ele><time>2026-04-12T11:05:38.916Z</time></trkpt><trkpt lat="53.67910194203418" lon="14.740427457103207"><ele>23.0</ele><time>2026-04-12T11:05:39.916Z</time></trkpt><trkpt lat="53.67920023267134" lon="14.740360292231404"><ele>23.0</ele><time>2026-04-12T11:05:40.916Z</time></trkpt><trkpt lat="53.67931608052289" lon="14.740255239464725"><ele>23.0</ele><time>2026-04-12T11:05:41.916Z</time></trkpt><trkpt lat="53.67944657699338" lon="14.740138410974582"><ele>23.0</ele><time>2026-04-12T11:05:42.916Z</time></trkpt><trkpt lat="53.67957839342471" lon="14.740042704851914"><ele>23.0</ele><time>2026-04-12T11:05:43.916Z</time></trkpt><trkpt lat="53.679705861631" lon="14.7399570267715"><ele>23.5</ele><time>2026-04-12T11:05:44.916Z</time></trkpt><trkpt lat="53.67985074396047" lon="14.739845133988808"><ele>24.0</ele><time>2026-04-12T11:05:45.915Z</time></trkpt><trkpt lat="53.67997949126148" lon="14.739769369146686"><ele>24.5</ele><time>2026-04-12T11:05:46.915Z</time></trkpt><trkpt lat="53.68010755048672" lon="14.739709075951767"><ele>25.0</ele><time>2026-04-12T11:05:47.915Z</time></trkpt><trkpt lat="53.680239161416075" lon="14.739653786005318"><ele>25.0</ele><time>2026-04-12T11:05:48.915Z</time></trkpt><trkpt lat="53.680378499501536" lon="14.73959255111652"><ele>25.0</ele><time>2026-04-12T11:05:49.915Z</time></trkpt><trkpt lat="53.68051927828867" lon="14.739524080416588"><ele>25.0</ele><time>2026-04-12T11:05:50.915Z</time></trkpt><trkpt lat="53.68065022624762" lon="14.739473998988668"><ele>25.0</ele><time>2026-04-12T11:05:51.915Z</time></trkpt><trkpt lat="53.68079475157935" lon="14.739409288002589"><ele>25.0</ele><time>2026-04-12T11:05:52.915Z</time></trkpt><trkpt lat="53.68092255874631" lon="14.739333500287428"><ele>25.0</ele><time>2026-04-12T11:05:53.915Z</time></trkpt><trkpt lat="53.65782843386503" lon="14.752328211692705"><ele>25.0</ele><time>2026-04-12T11:02:14.918Z</time></trkpt><trkpt lat="53.657999987804146" lon="14.752158457855556"><ele>25.0</ele><time>2026-04-12T11:02:15.918Z</time></trkpt><trkpt lat="53.65817962787481" lon="14.75199017174804"><ele>25.0</ele><time>2026-04-12T11:02:16.918Z</time></trkpt><trkpt lat="53.6583577955906" lon="14.751843202984084"><ele>24.333333333333336</ele><time>2026-04-12T11:02:17.918Z</time></trkpt><trkpt lat="53.658548413925494" lon="14.75171627703145"><ele>23.666666666666668</ele><time>2026-04-12T11:02:18.918Z</time></trkpt><trkpt lat="53.65873965350388" lon="14.751601238203607"><ele>23.0</ele><time>2026-04-12T11:02:19.918Z</time></trkpt><trkpt lat="53.65892979695631" lon="14.751488074815478"><ele>23.0</ele><time>2026-04-12T11:02:20.918Z</time></trkpt><trkpt lat="53.65912398450815" lon="14.751373598649732"><ele>23.0</ele><time>2026-04-12T11:02:21.918Z</time></trkpt><trkpt lat="53.65929942285593" lon="14.75127065990635"><ele>23.0</ele><time>2026-04-12T11:02:22.918Z</time></trkpt><trkpt lat="53.659456653891844" lon="14.751179680936929"><ele>23.0</ele><time>2026-04-12T11:02:23.918Z</time></trkpt><trkpt lat="53.6596222237176" lon="14.751081868123071"><ele>23.0</ele><time>2026-04-12T11:02:24.918Z</time></trkpt><trkpt lat="53.65979048092167" lon="14.750982088968163"><ele>23.0</ele><time>2026-04-12T11:02:25.918Z</time></trkpt><trkpt lat="53.65995580107463" lon="14.750883430764748"><ele>23.0</ele><time>2026-04-12T11:02:26.918Z</time></trkpt><trkpt lat="53.660114588881854" lon="14.750790368479992"><ele>23.0</ele><time>2026-04-12T11:02:27.918Z</time></trkpt><trkpt lat="53.660272334927086" lon="14.750700080902037"><ele>23.0</ele><time>2026-04-12T11:02:28.918Z</time></trkpt><trkpt lat="53.66044635991836" lon="14.750600525730382"><ele>23.666666666666668</ele><time>2026-04-12T11:02:29.918Z</time></trkpt><trkpt lat="53.66061970884899" lon="14.750500973238369"><ele>24.333333333333336</ele><time>2026-04-12T11:02:30.918Z</time></trkpt><trkpt lat="53.660793829594006" lon="14.750401761684081"><ele>25.0</ele><time>2026-04-12T11:02:31.918Z</time></trkpt><trkpt lat="53.66096196201753" lon="14.750304621099323"><ele>22.666666666666668</ele><time>2026-04-12T11:02:32.918Z</time></trkpt><trkpt lat="53.661133749793734" lon="14.750206681445276"><ele>20.333333333333336</ele><time>2026-04-12T11:02:33.918Z</time></trkpt><trkpt lat="53.66131056803095" lon="14.750105907302078"><ele>18.0</ele><time>2026-04-12T11:02:34.918Z</time></trkpt><trkpt lat="53.661489810265316" lon="14.750003751650759"><ele>18.0</ele><time>2026-04-12T11:02:35.918Z</time></trkpt><trkpt lat="53.66167749345099" lon="14.749896546740777"><ele>18.0</ele><time>2026-04-12T11:02:36.918Z</time></trkpt><trkpt lat="53.6618605893335" lon="14.74979208041701"><ele>18.0</ele><time>2026-04-12T11:02:37.918Z</time></trkpt><trkpt lat="53.66203139091679" lon="14.749694716927378"><ele>19.0</ele><time>2026-04-12T11:02:38.918Z</time></trkpt><trkpt lat="53.6622076375686" lon="14.74959463608158"><ele>20.0</ele><time>2026-04-12T11:02:39.918Z</time></trkpt><trkpt lat="53.662369278038284" lon="14.749501911259932"><ele>21.0</ele><time>2026-04-12T11:02:40.918Z</time></trkpt><trkpt lat="53.66250762958753" lon="14.749423225489927"><ele>20.2</ele><time>2026-04-12T11:02:41.919Z</time></trkpt><trkpt lat="53.6626208411895" lon="14.749358971470375"><ele>19.400000000000002</ele><time>2026-04-12T11:02:42.919Z</time></trkpt><trkpt lat="53.66272780712995" lon="14.74929735953051"><ele>18.6</ele><time>2026-04-12T11:02:43.919Z</time></trkpt><trkpt lat="53.66282191494841" lon="14.749233990633837"><ele>17.8</ele><time>2026-04-12T11:02:44.919Z</time></trkpt><trkpt lat="53.66291342225397" lon="14.749172045061798"><ele>17.0</ele><time>2026-04-12T11:02:45.919Z</time></trkpt><trkpt lat="53.66298652120808" lon="14.749130350795078"><ele>17.0</ele><time>2026-04-12T11:02:46.918Z</time></trkpt><trkpt lat="53.663063312382775" lon="14.749110112548905"><ele>17.0</ele><time>2026-04-12T11:02:47.918Z</time></trkpt><trkpt lat="53.663127013122065" lon="14.749069659267443"><ele>17.0</ele><time>2026-04-12T11:02:48.918Z</time></trkpt><trkpt lat="53.66320679560101" lon="14.748997512700976"><ele>17.0</ele><time>2026-04-12T11:02:49.918Z</time></trkpt><trkpt lat="53.66329421143883" lon="14.748909223363153"><ele>17.0</ele><time>2026-04-12T11:02:50.918Z</time></trkpt><trkpt lat="53.6633834380252" lon="14.748777431330094"><ele>17.0</ele><time>2026-04-12T11:02:51.918Z</time></trkpt><trkpt lat="53.663494163596326" lon="14.748648873491584"><ele>17.0</ele><time>2026-04-12T11:02:52.918Z</time></trkpt><trkpt lat="53.663603196396316" lon="14.7485193785873"><ele>17.0</ele><time>2026-04-12T11:02:53.918Z</time></trkpt><trkpt lat="53.66371383052521" lon="14.74838099670997"><ele>17.0</ele><time>2026-04-12T11:02:54.918Z</time></trkpt><trkpt lat="53.663818118970504" lon="14.74823862018576"><ele>16.75</ele><time>2026-04-12T11:02:55.918Z</time></trkpt><trkpt lat="53.66390705707134" lon="14.748102828718245"><ele>16.5</ele><time>2026-04-12T11:02:56.918Z</time></trkpt><trkpt lat="53.66399825892851" lon="14.747935110350902"><ele>16.25</ele><time>2026-04-12T11:02:57.918Z</time></trkpt><trkpt lat="53.664081164029554" lon="14.747793579131251"><ele>16.0</ele><time>2026-04-12T11:02:58.918Z</time></trkpt><trkpt lat="53.66418802192644" lon="14.747705339994699"><ele>16.0</ele><time>2026-04-12T11:02:59.918Z</time></trkpt><trkpt lat="53.66429695983981" lon="14.74757809119101"><ele>16.0</ele><time>2026-04-12T11:03:00.918Z</time></trkpt><trkpt lat="53.66439342608555" lon="14.747443724127033"><ele>16.0</ele><time>2026-04-12T11:03:01.918Z</time></trkpt><trkpt lat="53.66450880451848" lon="14.747359828235444"><ele>16.0</ele><time>2026-04-12T11:03:02.918Z</time></trkpt><trkpt lat="53.66463807594393" lon="14.747308973735228"><ele>15.75</ele><time>2026-04-12T11:03:03.918Z</time></trkpt><trkpt lat="53.66476376453877" lon="14.747231964002054"><ele>15.5</ele><time>2026-04-12T11:03:04.918Z</time></trkpt><trkpt lat="53.664899278574666" lon="14.747155189825328"><ele>15.25</ele><time>2026-04-12T11:03:05.918Z</time></trkpt><trkpt lat="53.66503564299471" lon="14.747081645513887"><ele>15.0</ele><time>2026-04-12T11:03:06.918Z</time></trkpt><trkpt lat="53.66517391565436" lon="14.747008877183534"><ele>15.25</ele><time>2026-04-12T11:03:07.918Z</time></trkpt><trkpt lat="53.66530601817807" lon="14.746941601224867"><ele>15.5</ele><time>2026-04-12T11:03:08.917Z</time></trkpt><trkpt lat="53.66543200752487" lon="14.746872098122097"><ele>15.75</ele><time>2026-04-12T11:03:09.918Z</time></trkpt><trkpt lat="53.66554852472581" lon="14.746790060131083"><ele>16.0</ele><time>2026-04-12T11:03:10.918Z</time></trkpt><trkpt lat="53.66565131317635" lon="14.746713901645826"><ele>16.0</ele><time>2026-04-12T11:03:11.918Z</time></trkpt><trkpt lat="53.665746296892095" lon="14.746605748478308"><ele>16.0</ele><time>2026-04-12T11:03:12.918Z</time></trkpt><trkpt lat="53.66585442698757" lon="14.746483436178579"><ele>16.0</ele><time>2026-04-12T11:03:13.918Z</time></trkpt><trkpt lat="53.6659572898894" lon="14.746351795215144"><ele>16.0</ele><time>2026-04-12T11:03:14.918Z</time></trkpt><trkpt lat="53.666060676145854" lon="14.746196613226859"><ele>14.75</ele><time>2026-04-12T11:03:15.918Z</time></trkpt><trkpt lat="53.666152857983434" lon="14.74604368689803"><ele>13.5</ele><time>2026-04-12T11:03:16.918Z</time></trkpt><trkpt lat="53.666244271491536" lon="14.745890187169953"><ele>12.25</ele><time>2026-04-12T11:03:17.918Z</time></trkpt><trkpt lat="53.666331264546606" lon="14.745742529302607"><ele>11.0</ele><time>2026-04-12T11:03:18.917Z</time></trkpt><trkpt lat="53.66640906867242" lon="14.745592277261375"><ele>11.0</ele><time>2026-04-12T11:03:19.917Z</time></trkpt><trkpt lat="53.666489749750426" lon="14.745436073345939"><ele>11.0</ele><time>2026-04-12T11:03:20.917Z</time></trkpt><trkpt lat="53.66657244046636" lon="14.745277697866372"><ele>11.0</ele><time>2026-04-12T11:03:21.917Z</time></trkpt><trkpt lat="53.66664425253978" lon="14.74514101495294"><ele>11.0</ele><time>2026-04-12T11:03:22.917Z</time></trkpt><trkpt lat="53.66671609753967" lon="14.74500958884503"><ele>11.0</ele><time>2026-04-12T11:03:23.917Z</time></trkpt><trkpt lat="53.66680366637894" lon="14.744866265492371"><ele>11.0</ele><time>2026-04-12T11:03:24.917Z</time></trkpt><trkpt lat="53.66690160303348" lon="14.744723880995473"><ele>11.0</ele><time>2026-04-12T11:03:25.917Z</time></trkpt><trkpt lat="53.667010274894864" lon="14.744576973733572"><ele>11.0</ele><time>2026-04-12T11:03:26.917Z</time></trkpt><trkpt lat="53.66711362538632" lon="14.74447078794023"><ele>11.5</ele><time>2026-04-12T11:03:27.917Z</time></trkpt><trkpt lat="53.66721860909519" lon="14.744460173413788"><ele>12.0</ele><time>2026-04-12T11:03:28.917Z</time></trkpt><trkpt lat="53.66733172655384" lon="14.744438817533705"><ele>12.5</ele><time>2026-04-12T11:03:29.917Z</time></trkpt><trkpt lat="53.66745113801466" lon="14.744413889137562"><ele>13.0</ele><time>2026-04-12T11:03:30.917Z</time></trkpt><trkpt lat="53.66758248960787" lon="14.7443599916861"><ele>13.0</ele><time>2026-04-12T11:03:31.917Z</time></trkpt><trkpt lat="53.667700457173815" lon="14.744259565496003"><ele>13.0</ele><time>2026-04-12T11:03:32.917Z</time></trkpt><trkpt lat="53.66780408184135" lon="14.744127066151858"><ele>13.0</ele><time>2026-04-12T11:03:33.917Z</time></trkpt><trkpt lat="53.66789760406886" lon="14.743967167717981"><ele>13.0</ele><time>2026-04-12T11:03:34.917Z</time></trkpt><trkpt lat="53.66799633945629" lon="14.743787908317623"><ele>13.0</ele><time>2026-04-12T11:03:35.917Z</time></trkpt><trkpt lat="53.66807507036247" lon="14.743593390053343"><ele>13.0</ele><time>2026-04-12T11:03:36.917Z</time></trkpt><trkpt lat="53.66816203033022" lon="14.743421333761518"><ele>13.0</ele><time>2026-04-12T11:03:37.917Z</time></trkpt><trkpt lat="53.66822870246575" lon="14.743265752829755"><ele>13.0</ele><time>2026-04-12T11:03:38.917Z</time></trkpt><trkpt lat="53.66829348993713" lon="14.743134664430524"><ele>13.0</ele><time>2026-04-12T11:03:39.917Z</time></trkpt><trkpt lat="53.66834564944708" lon="14.743009711070181"><ele>13.0</ele><time>2026-04-12T11:03:40.917Z</time></trkpt><trkpt lat="53.66837227056634" lon="14.742906590695963"><ele>13.0</ele><time>2026-04-12T11:03:41.917Z</time></trkpt><trkpt lat="53.66842230748604" lon="14.742790219647093"><ele>13.0</ele><time>2026-04-12T11:03:43.917Z</time></trkpt><trkpt lat="53.66855828085058" lon="14.7427610583689"><ele>13.0</ele><time>2026-04-12T11:03:47.917Z</time></trkpt><trkpt lat="53.66862114288614" lon="14.742814084698848"><ele>13.571428571428571</ele><time>2026-04-12T11:03:48.917Z</time></trkpt><trkpt lat="53.66869366663409" lon="14.742826667291224"><ele>14.142857142857142</ele><time>2026-04-12T11:03:49.917Z</time></trkpt><trkpt lat="53.66876238478351" lon="14.742883115823371"><ele>14.714285714285714</ele><time>2026-04-12T11:03:50.917Z</time></trkpt><trkpt lat="53.66881310060399" lon="14.742955210440666"><ele>15.285714285714285</ele><time>2026-04-12T11:03:51.917Z</time></trkpt><trkpt lat="53.668874310719104" lon="14.74307121874814"><ele>15.857142857142858</ele><time>2026-04-12T11:03:53.917Z</time></trkpt><trkpt lat="53.668915013885275" lon="14.74315926715028"><ele>16.428571428571427</ele><time>2026-04-12T11:03:54.917Z</time></trkpt><trkpt lat="53.668949068641574" lon="14.74325397719265"><ele>17.0</ele><time>2026-04-12T11:03:55.917Z</time></trkpt><trkpt lat="53.6689777710843" lon="14.743359716441695"><ele>17.0</ele><time>2026-04-12T11:03:56.917Z</time></trkpt><trkpt lat="53.66900920091398" lon="14.743484254796824"><ele>17.0</ele><time>2026-04-12T11:03:57.917Z</time></trkpt><trkpt lat="53.66903311196487" lon="14.743628351297534"><ele>17.0</ele><time>2026-04-12T11:03:58.917Z</time></trkpt><trkpt lat="53.669054603397846" lon="14.74376221978155"><ele>17.0</ele><time>2026-04-12T11:03:59.917Z</time></trkpt><trkpt lat="53.66908403855777" lon="14.7439208617608"><ele>17.0</ele><time>2026-04-12T11:04:01.917Z</time></trkpt><trkpt lat="53.669281728072825" lon="14.743912813159804"><ele>17.0</ele><time>2026-04-12T11:04:10.917Z</time></trkpt><trkpt lat="53.669379371362275" lon="14.74393917990163"><ele>17.0</ele><time>2026-04-12T11:04:11.917Z</time></trkpt><trkpt lat="53.66947969089419" lon="14.743970120194358"><ele>17.0</ele><time>2026-04-12T11:04:12.917Z</time></trkpt><trkpt lat="53.66960381216605" lon="14.744044160499225"><ele>17.0</ele><time>2026-04-12T11:04:13.917Z</time></trkpt><trkpt lat="53.66970898194992" lon="14.744085660504716"><ele>17.0</ele><time>2026-04-12T11:04:14.917Z</time></trkpt><trkpt lat="53.669800826589906" lon="14.744100981737601"><ele>18.0</ele><time>2026-04-12T11:04:15.917Z</time></trkpt><trkpt lat="53.66987995016575" lon="14.74410249993645"><ele>19.0</ele><time>2026-04-12T11:04:16.917Z</time></trkpt><trkpt lat="53.669966353044636" lon="14.74409423612224"><ele>20.0</ele><time>2026-04-12T11:04:17.917Z</time></trkpt><trkpt lat="53.67006512939524" lon="14.744069586673197"><ele>21.0</ele><time>2026-04-12T11:04:18.917Z</time></trkpt><trkpt lat="53.67017578579845" lon="14.744031280041822"><ele>22.0</ele><time>2026-04-12T11:04:19.917Z</time></trkpt><trkpt lat="53.67027567145739" lon="14.743989158831432"><ele>22.333333333333332</ele><time>2026-04-12T11:04:20.917Z</time></trkpt><trkpt lat="53.67037530401832" lon="14.74396757111372"><ele>22.666666666666664</ele><time>2026-04-12T11:04:21.917Z</time></trkpt><trkpt lat="53.67046579411043" lon="14.74392643802312"><ele>23.0</ele><time>2026-04-12T11:04:22.917Z</time></trkpt><trkpt lat="53.670539110934705" lon="14.743894695673934"><ele>23.333333333333332</ele><time>2026-04-12T11:04:23.917Z</time></trkpt><trkpt lat="53.67061362581438" lon="14.74386715138555"><ele>23.666666666666668</ele><time>2026-04-12T11:04:24.917Z</time></trkpt><trkpt lat="53.670713457593955" lon="14.74382389488335"><ele>24.0</ele><time>2026-04-12T11:04:25.917Z</time></trkpt><trkpt lat="53.6707819293339" lon="14.743775731894923"><ele>24.0</ele><time>2026-04-12T11:04:26.917Z</time></trkpt><trkpt lat="53.67085784575315" lon="14.743733505624544"><ele>24.0</ele><time>2026-04-12T11:04:27.917Z</time></trkpt><trkpt lat="53.67094231102122" lon="14.743684653342992"><ele>24.0</ele><time>2026-04-12T11:04:28.917Z</time></trkpt><trkpt lat="53.67103938826325" lon="14.743641108951895"><ele>24.0</ele><time>2026-04-12T11:04:29.917Z</time></trkpt><trkpt lat="53.671147658065784" lon="14.743589509038497"><ele>24.0</ele><time>2026-04-12T11:04:30.917Z</time></trkpt><trkpt lat="53.6712709139062" lon="14.743545852479732"><ele>23.4</ele><time>2026-04-12T11:04:31.917Z</time></trkpt><trkpt lat="53.67137931718884" lon="14.74349207194457"><ele>22.799999999999997</ele><time>2026-04-12T11:04:32.917Z</time></trkpt><trkpt lat="53.67148924097724" lon="14.743456689173419"><ele>22.200000000000003</ele><time>2026-04-12T11:04:33.917Z</time></trkpt><trkpt lat="53.67158217526459" lon="14.743399995715702"><ele>21.6</ele><time>2026-04-12T11:04:34.917Z</time></trkpt><trkpt lat="53.671689226689246" lon="14.743352275735822"><ele>21.0</ele><time>2026-04-12T11:04:35.917Z</time></trkpt><trkpt lat="53.6718052687792" lon="14.74329101605496"><ele>21.0</ele><time>2026-04-12T11:04:36.917Z</time></trkpt><trkpt lat="53.67191396248983" lon="14.743253452131311"><ele>21.0</ele><time>2026-04-12T11:04:37.917Z</time></trkpt><trkpt lat="53.672030948840785" lon="14.743202666099107"><ele>21.0</ele><time>2026-04-12T11:04:38.917Z</time></trkpt><trkpt lat="53.67214174110823" lon="14.743175303945398"><ele>21.0</ele><time>2026-04-12T11:04:39.917Z</time></trkpt><trkpt lat="53.67225322413847" lon="14.743141377525005"><ele>21.0</ele><time>2026-04-12T11:04:40.917Z</time></trkpt><trkpt lat="53.67236914767971" lon="14.743101841995172"><ele>21.0</ele><time>2026-04-12T11:04:41.917Z</time></trkpt><trkpt lat="53.672494089398675" lon="14.743053188220328"><ele>21.0</ele><time>2026-04-12T11:04:42.917Z</time></trkpt><trkpt lat="53.672592027653316" lon="14.74302536115036"><ele>21.0</ele><time>2026-04-12T11:04:43.917Z</time></trkpt><trkpt lat="53.67271411878043" lon="14.742983656381973"><ele>20.75</ele><time>2026-04-12T11:04:44.917Z</time></trkpt><trkpt lat="53.6728246463951" lon="14.742945479146387"><ele>20.5</ele><time>2026-04-12T11:04:45.917Z</time></trkpt><trkpt lat="53.672943538283704" lon="14.742910248511913"><ele>20.25</ele><time>2026-04-12T11:04:46.917Z</time></trkpt><trkpt lat="53.67305742047191" lon="14.742865146474516"><ele>20.0</ele><time>2026-04-12T11:04:47.917Z</time></trkpt><trkpt lat="53.67317673779757" lon="14.742828064003865"><ele>20.0</ele><time>2026-04-12T11:04:48.917Z</time></trkpt><trkpt lat="53.6732961009826" lon="14.742787837062307"><ele>20.0</ele><time>2026-04-12T11:04:49.917Z</time></trkpt><trkpt lat="53.67341400477032" lon="14.74275435690159"><ele>20.0</ele><time>2026-04-12T11:04:50.917Z</time></trkpt><trkpt lat="53.67354050355664" lon="14.742721618062365"><ele>20.0</ele><time>2026-04-12T11:04:51.917Z</time></trkpt><trkpt lat="53.67366607212066" lon="14.742689907624978"><ele>20.75</ele><time>2026-04-12T11:04:52.917Z</time></trkpt><trkpt lat="53.67379111558929" lon="14.742655483392323"><ele>21.5</ele><time>2026-04-12T11:04:53.917Z</time></trkpt><trkpt lat="53.67391955963515" lon="14.742619712436124"><ele>22.25</ele><time>2026-04-12T11:04:54.917Z</time></trkpt><trkpt lat="53.67403827758726" lon="14.742592568199914"><ele>23.0</ele><time>2026-04-12T11:04:55.917Z</time></trkpt><trkpt lat="53.674161487047606" lon="14.742526452649399"><ele>23.0</ele><time>2026-04-12T11:04:56.917Z</time></trkpt><trkpt lat="53.674289213255186" lon="14.74248885514123"><ele>23.0</ele><time>2026-04-12T11:04:57.917Z</time></trkpt><trkpt lat="53.674418751276846" lon="14.742454094732365"><ele>23.0</ele><time>2026-04-12T11:04:58.917Z</time></trkpt><trkpt lat="53.67455519586882" lon="14.742428503032041"><ele>23.0</ele><time>2026-04-12T11:04:59.917Z</time></trkpt><trkpt lat="53.67468128476509" lon="14.742414013917731"><ele>23.0</ele><time>2026-04-12T11:05:00.917Z</time></trkpt><trkpt lat="53.67479355856059" lon="14.742416184758817"><ele>23.0</ele><time>2026-04-12T11:05:01.917Z</time></trkpt><trkpt lat="53.67492400037245" lon="14.742429955398642"><ele>23.0</ele><time>2026-04-12T11:05:02.917Z</time></trkpt><trkpt lat="53.67506174014915" lon="14.742449982654698"><ele>23.0</ele><time>2026-04-12T11:05:03.917Z</time></trkpt><trkpt lat="53.675204647185595" lon="14.742457394435474"><ele>22.75</ele><time>2026-04-12T11:05:04.917Z</time></trkpt><trkpt lat="53.675346194256086" lon="14.742468649686858"><ele>22.5</ele><time>2026-04-12T11:05:05.917Z</time></trkpt><trkpt lat="53.67550333607184" lon="14.742462243375636"><ele>22.25</ele><time>2026-04-12T11:05:06.917Z</time></trkpt><trkpt lat="53.675649170044196" lon="14.74245717413606"><ele>22.0</ele><time>2026-04-12T11:05:07.917Z</time></trkpt><trkpt lat="53.675803111579846" lon="14.742443349248376"><ele>22.0</ele><time>2026-04-12T11:05:08.917Z</time></trkpt><trkpt lat="53.67593811918423" lon="14.742424635913116"><ele>22.0</ele><time>2026-04-12T11:05:09.917Z</time></trkpt><trkpt lat="53.67605770295354" lon="14.74241726783912"><ele>22.0</ele><time>2026-04-12T11:05:10.917Z</time></trkpt><trkpt lat="53.67616875964022" lon="14.742421500188572"><ele>22.0</ele><time>2026-04-12T11:05:11.916Z</time></trkpt><trkpt lat="53.676307345997955" lon="14.742428046069257"><ele>21.6</ele><time>2026-04-12T11:05:12.916Z</time></trkpt><trkpt lat="53.676414996797014" lon="14.742447009553297"><ele>21.200000000000003</ele><time>2026-04-12T11:05:13.916Z</time></trkpt><trkpt lat="53.676512360565525" lon="14.742435953113358"><ele>20.8</ele><time>2026-04-12T11:05:14.916Z</time></trkpt><trkpt lat="53.67661477396994" lon="14.742404383680869"><ele>20.4</ele><time>2026-04-12T11:05:15.916Z</time></trkpt><trkpt lat="53.676726400513026" lon="14.7423605089808"><ele>20.0</ele><time>2026-04-12T11:05:16.916Z</time></trkpt><trkpt lat="53.67684293037291" lon="14.7422886043309"><ele>19.5</ele><time>2026-04-12T11:05:17.915Z</time></trkpt><trkpt lat="53.6769714659159" lon="14.742196666843926"><ele>19.0</ele><time>2026-04-12T11:05:18.916Z</time></trkpt><trkpt lat="53.67711034784648" lon="14.742091992727497"><ele>18.5</ele><time>2026-04-12T11:05:19.916Z</time></trkpt><trkpt lat="53.677242144418074" lon="14.741956438205897"><ele>18.0</ele><time>2026-04-12T11:05:20.916Z</time></trkpt><trkpt lat="53.677378411553335" lon="14.741827985954668"><ele>18.5</ele><time>2026-04-12T11:05:21.916Z</time></trkpt><trkpt lat="53.677502584263515" lon="14.741712960209483"><ele>19.0</ele><time>2026-04-12T11:05:22.916Z</time></trkpt><trkpt lat="53.677620539611844" lon="14.741624042356193"><ele>19.5</ele><time>2026-04-12T11:05:23.915Z</time></trkpt><trkpt lat="53.67775116991669" lon="14.741513120190314"><ele>20.0</ele><time>2026-04-12T11:05:24.916Z</time></trkpt><trkpt lat="53.677858157899614" lon="14.741425342724131"><ele>20.0</ele><time>2026-04-12T11:05:25.916Z</time></trkpt><trkpt lat="53.67797556044285" lon="14.741349722635668"><ele>20.0</ele><time>2026-04-12T11:05:26.916Z</time></trkpt><trkpt lat="53.67809325377068" lon="14.74125014886504"><ele>20.0</ele><time>2026-04-12T11:05:27.916Z</time></trkpt><trkpt lat="53.678214574609314" lon="14.74114997103013"><ele>20.0</ele><time>2026-04-12T11:05:28.916Z</time></trkpt><trkpt lat="53.67832040548523" lon="14.741049704600186"><ele>20.6</ele><time>2026-04-12T11:05:29.916Z</time></trkpt><trkpt lat="53.67844146900834" lon="14.740955972799085"><ele>21.2</ele><time>2026-04-12T11:05:30.916Z</time></trkpt><trkpt lat="53.678547902693246" lon="14.740870933480046"><ele>21.799999999999997</ele><time>2026-04-12T11:05:31.916Z</time></trkpt><trkpt lat="53.678640322342964" lon="14.740810071223903"><ele>22.4</ele><time>2026-04-12T11:05:32.916Z</time></trkpt><trkpt lat="53.67870257193713" lon="14.740760014174631"><ele>23.0</ele><time>2026-04-12T11:05:33.916Z</time></trkpt><trkpt lat="53.6787859387934" lon="14.740692083731897"><ele>23.0</ele><time>2026-04-12T11:05:35.916Z</time></trkpt><trkpt lat="53.678918015009394" lon="14.740569748279965"><ele>23.0</ele><time>2026-04-12T11:05:37.916Z</time></trkpt><trkpt lat="53.679003927219256" lon="14.740508129507187"><ele>23.0</ele><time>2026-04-12T11:05:38.916Z</time></trkpt><trkpt lat="53.67910194203418" lon="14.740427457103207"><ele>23.0</ele><time>2026-04-12T11:05:39.916Z</time></trkpt><trkpt lat="53.67920023267134" lon="14.740360292231404"><ele>23.0</ele><time>2026-04-12T11:05:40.916Z</time></trkpt><trkpt lat="53.67931608052289" lon="14.740255239464725"><ele>23.0</ele><time>2026-04-12T11:05:41.916Z</time></trkpt><trkpt lat="53.67944657699338" lon="14.740138410974582"><ele>23.0</ele><time>2026-04-12T11:05:42.916Z</time></trkpt><trkpt lat="53.67957839342471" lon="14.740042704851914"><ele>23.0</ele><time>2026-04-12T11:05:43.916Z</time></trkpt><trkpt lat="53.679705861631" lon="14.7399570267715"><ele>23.5</ele><time>2026-04-12T11:05:44.916Z</time></trkpt><trkpt lat="53.67985074396047" lon="14.739845133988808"><ele>24.0</ele><time>2026-04-12T11:05:45.915Z</time></trkpt><trkpt lat="53.67997949126148" lon="14.739769369146686"><ele>24.5</ele><time>2026-04-12T11:05:46.915Z</time></trkpt><trkpt lat="53.68010755048672" lon="14.739709075951767"><ele>25.0</ele><time>2026-04-12T11:05:47.915Z</time></trkpt><trkpt lat="53.680239161416075" lon="14.739653786005318"><ele>25.0</ele><time>2026-04-12T11:05:48.915Z</time></trkpt><trkpt lat="53.680378499501536" lon="14.73959255111652"><ele>25.0</ele><time>2026-04-12T11:05:49.915Z</time></trkpt><trkpt lat="53.68051927828867" lon="14.739524080416588"><ele>25.0</ele><time>2026-04-12T11:05:50.915Z</time></trkpt><trkpt lat="53.68065022624762" lon="14.739473998988668"><ele>25.0</ele><time>2026-04-12T11:05:51.915Z</time></trkpt><trkpt lat="53.68079475157935" lon="14.739409288002589"><ele>26.5</ele><time>2026-04-12T11:05:52.915Z</time></trkpt><trkpt lat="53.68092255874631" lon="14.739333500287428"><ele>28.0</ele><time>2026-04-12T11:05:53.915Z</time></trkpt><trkpt lat="53.68104761170744" lon="14.739276986286542"><ele>29.5</ele><time>2026-04-12T11:05:54.915Z</time></trkpt><trkpt lat="53.6811611752727" lon="14.73924351290373"><ele>31.0</ele><time>2026-04-12T11:05:55.915Z</time></trkpt><trkpt lat="53.681286500144644" lon="14.739186747205535"><ele>31.0</ele><time>2026-04-12T11:05:56.915Z</time></trkpt><trkpt lat="53.681423658116444" lon="14.739132826414158"><ele>31.0</ele><time>2026-04-12T11:05:57.915Z</time></trkpt><trkpt lat="53.68157047452806" lon="14.739082744189647"><ele>31.0</ele><time>2026-04-12T11:05:58.915Z</time></trkpt><trkpt lat="53.6817073077756" lon="14.739015804362515"><ele>31.0</ele><time>2026-04-12T11:05:59.915Z</time></trkpt><trkpt lat="53.681841716292844" lon="14.738966411377351"><ele>31.25</ele><time>2026-04-12T11:06:00.915Z</time></trkpt><trkpt lat="53.68196055985136" lon="14.738925393258473"><ele>31.5</ele><time>2026-04-12T11:06:01.915Z</time></trkpt><trkpt lat="53.6820959631654" lon="14.738882696951725"><ele>31.75</ele><time>2026-04-12T11:06:02.915Z</time></trkpt><trkpt lat="53.68222436903598" lon="14.73884235891145"><ele>32.0</ele><time>2026-04-12T11:06:03.915Z</time></trkpt><trkpt lat="53.68233957584097" lon="14.73877222931721"><ele>32.0</ele><time>2026-04-12T11:06:04.915Z</time></trkpt><trkpt lat="53.682466901481476" lon="14.73871610899414"><ele>32.0</ele><time>2026-04-12T11:06:05.915Z</time></trkpt><trkpt lat="53.68257065197845" lon="14.738665986899035"><ele>32.0</ele><time>2026-04-12T11:06:06.915Z</time></trkpt><trkpt lat="53.68266526105482" lon="14.738618375061389"><ele>32.0</ele><time>2026-04-12T11:06:07.915Z</time></trkpt><trkpt lat="53.68276667772029" lon="14.738551226593785"><ele>32.0</ele><time>2026-04-12T11:06:08.915Z</time></trkpt><trkpt lat="53.682869820569124" lon="14.7385222697228"><ele>32.0</ele><time>2026-04-12T11:06:09.915Z</time></trkpt><trkpt lat="53.68297068818193" lon="14.73848309338389"><ele>32.0</ele><time>2026-04-12T11:06:10.915Z</time></trkpt><trkpt lat="53.6830851435937" lon="14.738442945025483"><ele>32.0</ele><time>2026-04-12T11:06:11.915Z</time></trkpt><trkpt lat="53.68318345081801" lon="14.738387135769068"><ele>32.0</ele><time>2026-04-12T11:06:12.915Z</time></trkpt><trkpt lat="53.68325722800689" lon="14.738335658203352"><ele>32.0</ele><time>2026-04-12T11:06:13.915Z</time></trkpt><trkpt lat="53.68333877419967" lon="14.738320203643163"><ele>32.0</ele><time>2026-04-12T11:06:14.915Z</time></trkpt><trkpt lat="53.68340707245023" lon="14.73828706514002"><ele>32.0</ele><time>2026-04-12T11:06:15.915Z</time></trkpt><trkpt lat="53.683499905846816" lon="14.738272515887667"><ele>32.0</ele><time>2026-04-12T11:06:16.915Z</time></trkpt><trkpt lat="53.683609868712885" lon="14.738258683177023"><ele>32.0</ele><time>2026-04-12T11:06:17.915Z</time></trkpt><trkpt lat="53.683723490432506" lon="14.738247111887318"><ele>32.0</ele><time>2026-04-12T11:06:18.915Z</time></trkpt><trkpt lat="53.683820980758114" lon="14.738219142383384"><ele>31.25</ele><time>2026-04-12T11:06:19.915Z</time></trkpt><trkpt lat="53.68393236178477" lon="14.738184157168213"><ele>30.5</ele><time>2026-04-12T11:06:20.915Z</time></trkpt><trkpt lat="53.684047433652914" lon="14.738132709369987"><ele>29.75</ele><time>2026-04-12T11:06:21.915Z</time></trkpt><trkpt lat="53.6841485045255" lon="14.738093340992004"><ele>29.0</ele><time>2026-04-12T11:06:22.915Z</time></trkpt><trkpt lat="53.68426578500672" lon="14.738029681670726"><ele>29.0</ele><time>2026-04-12T11:06:23.915Z</time></trkpt><trkpt lat="53.68438828784918" lon="14.737943324334037"><ele>29.0</ele><time>2026-04-12T11:06:24.915Z</time></trkpt><trkpt lat="53.68449215575686" lon="14.737901186050625"><ele>29.0</ele><time>2026-04-12T11:06:25.915Z</time></trkpt><trkpt lat="53.684593778347356" lon="14.737854588853834"><ele>29.0</ele><time>2026-04-12T11:06:26.915Z</time></trkpt><trkpt lat="53.684685672336066" lon="14.73779616620414"><ele>29.0</ele><time>2026-04-12T11:06:27.915Z</time></trkpt><trkpt lat="53.684785043956744" lon="14.737708748789816"><ele>29.5</ele><time>2026-04-12T11:06:28.915Z</time></trkpt><trkpt lat="53.68490499180142" lon="14.737604759056286"><ele>30.0</ele><time>2026-04-12T11:06:29.915Z</time></trkpt><trkpt lat="53.68501092818371" lon="14.737515965858364"><ele>30.5</ele><time>2026-04-12T11:06:30.915Z</time></trkpt><trkpt lat="53.68512725996212" lon="14.73739530791768"><ele>31.0</ele><time>2026-04-12T11:06:31.915Z</time></trkpt><trkpt lat="53.685248564285395" lon="14.737254015648032"><ele>31.0</ele><time>2026-04-12T11:06:32.915Z</time></trkpt><trkpt lat="53.685377043278365" lon="14.737097646921217"><ele>31.0</ele><time>2026-04-12T11:06:33.915Z</time></trkpt><trkpt lat="53.6855072729406" lon="14.736919878864898"><ele>31.0</ele><time>2026-04-12T11:06:34.915Z</time></trkpt><trkpt lat="53.68562575703075" lon="14.736758985324458"><ele>31.0</ele><time>2026-04-12T11:06:35.915Z</time></trkpt><trkpt lat="53.68573661231299" lon="14.736606273862906"><ele>31.0</ele><time>2026-04-12T11:06:36.915Z</time></trkpt><trkpt lat="53.68583454513425" lon="14.736506679653548"><ele>31.0</ele><time>2026-04-12T11:06:37.915Z</time></trkpt><trkpt lat="53.68593691714437" lon="14.736394506240574"><ele>31.0</ele><time>2026-04-12T11:06:38.915Z</time></trkpt><trkpt lat="53.686069317127455" lon="14.736261626344895"><ele>30.75</ele><time>2026-04-12T11:06:39.915Z</time></trkpt><trkpt lat="53.6861726516603" lon="14.736126101537664"><ele>30.5</ele><time>2026-04-12T11:06:40.915Z</time></trkpt><trkpt lat="53.68627998602725" lon="14.735984555515643"><ele>30.25</ele><time>2026-04-12T11:06:41.915Z</time></trkpt><trkpt lat="53.6863774868479" lon="14.735832509449112"><ele>30.0</ele><time>2026-04-12T11:06:42.915Z</time></trkpt><trkpt lat="53.686482247883916" lon="14.735685177911986"><ele>30.0</ele><time>2026-04-12T11:06:43.915Z</time></trkpt><trkpt lat="53.68655758647751" lon="14.735553031215646"><ele>30.0</ele><time>2026-04-12T11:06:44.915Z</time></trkpt><trkpt lat="53.68663705003759" lon="14.73542082247195"><ele>30.0</ele><time>2026-04-12T11:06:45.915Z</time></trkpt><trkpt lat="53.68669323654964" lon="14.735334096395771"><ele>30.0</ele><time>2026-04-12T11:06:46.915Z</time></trkpt><trkpt lat="53.686832940369456" lon="14.735297754245373"><ele>30.0</ele><time>2026-04-12T11:06:48.915Z</time></trkpt><trkpt lat="53.68693525355671" lon="14.735335387048167"><ele>29.0</ele><time>2026-04-12T11:06:49.915Z</time></trkpt><trkpt lat="53.68705392308687" lon="14.735375691467558"><ele>28.0</ele><time>2026-04-12T11:06:50.915Z</time></trkpt><trkpt lat="53.68715650633415" lon="14.735370890735469"><ele>27.0</ele><time>2026-04-12T11:06:51.915Z</time></trkpt><trkpt lat="53.68727252402125" lon="14.735281351360046"><ele>26.0</ele><time>2026-04-12T11:06:52.915Z</time></trkpt><trkpt lat="53.68738198946695" lon="14.735163978177837"><ele>25.5</ele><time>2026-04-12T11:06:53.915Z</time></trkpt><trkpt lat="53.68750986637301" lon="14.73502479743329"><ele>25.0</ele><time>2026-04-12T11:06:54.915Z</time></trkpt><trkpt lat="53.68762930038336" lon="14.734896711819943"><ele>24.5</ele><time>2026-04-12T11:06:55.915Z</time></trkpt><trkpt lat="53.68774468935215" lon="14.734769861407724"><ele>24.0</ele><time>2026-04-12T11:06:56.915Z</time></trkpt><trkpt lat="53.6878577195522" lon="14.734658289154943"><ele>24.0</ele><time>2026-04-12T11:06:57.915Z</time></trkpt><trkpt lat="53.687960469992305" lon="14.734539736870481"><ele>24.0</ele><time>2026-04-12T11:06:58.915Z</time></trkpt><trkpt lat="53.68807049029563" lon="14.734425252382023"><ele>24.0</ele><time>2026-04-12T11:06:59.915Z</time></trkpt><trkpt lat="53.68817743615092" lon="14.73430597857657"><ele>24.0</ele><time>2026-04-12T11:07:00.915Z</time></trkpt><trkpt lat="53.68829516848342" lon="14.734202166111375"><ele>24.25</ele><time>2026-04-12T11:07:01.915Z</time></trkpt><trkpt lat="53.68840430318554" lon="14.734098744301471"><ele>24.5</ele><time>2026-04-12T11:07:02.915Z</time></trkpt><trkpt lat="53.68850672854608" lon="14.734007316151796"><ele>24.75</ele><time>2026-04-12T11:07:03.915Z</time></trkpt><trkpt lat="53.68859386696227" lon="14.733888226737232"><ele>25.0</ele><time>2026-04-12T11:07:04.915Z</time></trkpt><trkpt lat="53.68868832067184" lon="14.733793016643261"><ele>25.25</ele><time>2026-04-12T11:07:05.915Z</time></trkpt><trkpt lat="53.68878397177465" lon="14.733687259931797"><ele>25.5</ele><time>2026-04-12T11:07:06.915Z</time></trkpt><trkpt lat="53.688877792952646" lon="14.733599373715048"><ele>25.75</ele><time>2026-04-12T11:07:07.915Z</time></trkpt><trkpt lat="53.68898594126637" lon="14.733500318860418"><ele>26.0</ele><time>2026-04-12T11:07:08.915Z</time></trkpt><trkpt lat="53.689076116371645" lon="14.733391559919982"><ele>26.0</ele><time>2026-04-12T11:07:09.915Z</time></trkpt><trkpt lat="53.6891811616583" lon="14.733286350098167"><ele>26.0</ele><time>2026-04-12T11:07:10.915Z</time></trkpt><trkpt lat="53.68928650487275" lon="14.733171284142236"><ele>26.0</ele><time>2026-04-12T11:07:11.915Z</time></trkpt><trkpt lat="53.68939545089028" lon="14.733075894590366"><ele>26.0</ele><time>2026-04-12T11:07:12.915Z</time></trkpt><trkpt lat="53.6895054510492" lon="14.732974454508806"><ele>26.0</ele><time>2026-04-12T11:07:13.915Z</time></trkpt><trkpt lat="53.68961018787912" lon="14.732880887911294"><ele>26.0</ele><time>2026-04-12T11:07:14.915Z</time></trkpt><trkpt lat="53.68972514948346" lon="14.732763697580555"><ele>26.0</ele><time>2026-04-12T11:07:15.915Z</time></trkpt><trkpt lat="53.689825126202514" lon="14.732635332134212"><ele>26.0</ele><time>2026-04-12T11:07:16.915Z</time></trkpt><trkpt lat="53.68994854022363" lon="14.732501463590637"><ele>26.0</ele><time>2026-04-12T11:07:17.913Z</time></trkpt><trkpt lat="53.69006585330676" lon="14.732374904601274"><ele>26.0</ele><time>2026-04-12T11:07:18.913Z</time></trkpt><trkpt lat="53.69019268498754" lon="14.732231152448751"><ele>26.0</ele><time>2026-04-12T11:07:19.913Z</time></trkpt><trkpt lat="53.690326920321844" lon="14.732093649120293"><ele>26.0</ele><time>2026-04-12T11:07:20.914Z</time></trkpt><trkpt lat="53.6904589100501" lon="14.731975094054244"><ele>27.5</ele><time>2026-04-12T11:07:21.913Z</time></trkpt><trkpt lat="53.690582123866406" lon="14.731828917467082"><ele>29.0</ele><time>2026-04-12T11:07:22.913Z</time></trkpt><trkpt lat="53.69070549116676" lon="14.731696555866023"><ele>30.5</ele><time>2026-04-12T11:07:23.913Z</time></trkpt><trkpt lat="53.69081714318903" lon="14.731573544473983"><ele>32.0</ele><time>2026-04-12T11:07:24.913Z</time></trkpt><trkpt lat="53.69093675749114" lon="14.731458548203145"><ele>32.0</ele><time>2026-04-12T11:07:25.913Z</time></trkpt><trkpt lat="53.691059090948656" lon="14.731330615739028"><ele>32.0</ele><time>2026-04-12T11:07:26.913Z</time></trkpt><trkpt lat="53.69117780412239" lon="14.731203745845567"><ele>32.0</ele><time>2026-04-12T11:07:27.913Z</time></trkpt><trkpt lat="53.69130042729179" lon="14.7310913364673"><ele>32.0</ele><time>2026-04-12T11:07:28.913Z</time></trkpt><trkpt lat="53.69142321172735" lon="14.730986468983174"><ele>31.75</ele><time>2026-04-12T11:07:29.913Z</time></trkpt><trkpt lat="53.69152857552028" lon="14.730893705507548"><ele>31.5</ele><time>2026-04-12T11:07:30.913Z</time></trkpt><trkpt lat="53.69162868589651" lon="14.730808151702288"><ele>31.25</ele><time>2026-04-12T11:07:31.913Z</time></trkpt><trkpt lat="53.69172898954705" lon="14.73072307932317"><ele>31.0</ele><time>2026-04-12T11:07:32.913Z</time></trkpt><trkpt lat="53.69182466879561" lon="14.730634124109255"><ele>31.000000000000004</ele><time>2026-04-12T11:07:33.913Z</time></trkpt><trkpt lat="53.69191168000442" lon="14.730554399617054"><ele>31.0</ele><time>2026-04-12T11:07:34.913Z</time></trkpt><trkpt lat="53.691991193547125" lon="14.730477763561836"><ele>31.0</ele><time>2026-04-12T11:07:35.913Z</time></trkpt><trkpt lat="53.69206097459614" lon="14.730407682427044"><ele>31.0</ele><time>2026-04-12T11:07:36.913Z</time></trkpt><trkpt lat="53.69213296305083" lon="14.730345966969937"><ele>31.000000000000004</ele><time>2026-04-12T11:07:37.913Z</time></trkpt><trkpt lat="53.692214112495414" lon="14.7302729479583"><ele>31.0</ele><time>2026-04-12T11:07:38.913Z</time></trkpt><trkpt lat="53.69229879361041" lon="14.730180458226656"><ele>30.75</ele><time>2026-04-12T11:07:39.913Z</time></trkpt><trkpt lat="53.692412901183026" lon="14.730078139254442"><ele>30.5</ele><time>2026-04-12T11:07:40.913Z</time></trkpt><trkpt lat="53.69253256388527" lon="14.72994178099072"><ele>30.25</ele><time>2026-04-12T11:07:41.912Z</time></trkpt><trkpt lat="53.69264971709353" lon="14.729838402373755"><ele>30.0</ele><time>2026-04-12T11:07:42.912Z</time></trkpt><trkpt lat="53.69276077856933" lon="14.729713427996698"><ele>30.0</ele><time>2026-04-12T11:07:43.912Z</time></trkpt><trkpt lat="53.692886406232745" lon="14.729580347730005"><ele>30.0</ele><time>2026-04-12T11:07:44.912Z</time></trkpt><trkpt lat="53.693001986830545" lon="14.729457163295399"><ele>30.0</ele><time>2026-04-12T11:07:45.912Z</time></trkpt><trkpt lat="53.69311342772243" lon="14.729350539872675"><ele>30.0</ele><time>2026-04-12T11:07:46.912Z</time></trkpt><trkpt lat="53.69321284218803" lon="14.729253835650054"><ele>30.166666666666668</ele><time>2026-04-12T11:07:47.912Z</time></trkpt><trkpt lat="53.69331047878467" lon="14.729156496168425"><ele>30.333333333333336</ele><time>2026-04-12T11:07:48.912Z</time></trkpt><trkpt lat="53.69339480520455" lon="14.729074931191406"><ele>30.5</ele><time>2026-04-12T11:07:49.912Z</time></trkpt><trkpt lat="53.69346921120224" lon="14.729000659810387"><ele>30.666666666666668</ele><time>2026-04-12T11:07:50.912Z</time></trkpt><trkpt lat="53.693537172558145" lon="14.728931612042226"><ele>30.833333333333336</ele><time>2026-04-12T11:07:51.912Z</time></trkpt><trkpt lat="53.69359482346945" lon="14.728867666822529"><ele>31.0</ele><time>2026-04-12T11:07:52.912Z</time></trkpt><trkpt lat="53.693674720975885" lon="14.728804831693056"><ele>31.0</ele><time>2026-04-12T11:07:54.912Z</time></trkpt><trkpt lat="53.69368039133059" lon="14.72865078248678"><ele>31.0</ele><time>2026-04-12T11:07:59.912Z</time></trkpt><trkpt lat="53.693626208024035" lon="14.728528444286127"><ele>31.0</ele><time>2026-04-12T11:08:01.912Z</time></trkpt><trkpt lat="53.69359613845285" lon="14.728375527541031"><ele>31.0</ele><time>2026-04-12T11:08:03.912Z</time></trkpt><trkpt lat="53.693558832412336" lon="14.728206256565699"><ele>31.0</ele><time>2026-04-12T11:08:05.912Z</time></trkpt><trkpt lat="53.693536532967876" lon="14.728064387512962"><ele>31.0</ele><time>2026-04-12T11:08:07.912Z</time></trkpt><trkpt lat="53.69350850923438" lon="14.727906172338454"><ele>31.0</ele><time>2026-04-12T11:08:09.912Z</time></trkpt><trkpt lat="53.693497298336155" lon="14.727728440251244"><ele>31.0</ele><time>2026-04-12T11:08:11.912Z</time></trkpt><trkpt lat="53.6934471545323" lon="14.727592372711001"><ele>31.0</ele><time>2026-04-12T11:08:13.912Z</time></trkpt><trkpt lat="53.69340405632954" lon="14.72738563081141"><ele>31.0</ele><time>2026-04-12T11:08:15.912Z</time></trkpt><trkpt lat="53.69337322348704" lon="14.727224702517104"><ele>30.714285714285715</ele><time>2026-04-12T11:08:17.912Z</time></trkpt><trkpt lat="53.69335164114541" lon="14.72709861566618"><ele>30.42857142857143</ele><time>2026-04-12T11:08:19.912Z</time></trkpt><trkpt lat="53.6933232732736" lon="14.727003429179629"><ele>30.142857142857146</ele><time>2026-04-12T11:08:23.912Z</time></trkpt><trkpt lat="53.69330373264389" lon="14.726883194163623"><ele>29.85714285714286</ele><time>2026-04-12T11:08:35.912Z</time></trkpt><trkpt lat="53.69322664902674" lon="14.726892567166932"><ele>29.571428571428573</ele><time>2026-04-12T11:08:40.912Z</time></trkpt><trkpt lat="53.693162458917676" lon="14.726917804742293"><ele>29.285714285714292</ele><time>2026-04-12T11:08:43.912Z</time></trkpt><trkpt lat="53.69308733915231" lon="14.726951488687938"><ele>29.000000000000004</ele><time>2026-04-12T11:08:45.912Z</time></trkpt><trkpt lat="53.69301239022263" lon="14.72701865470897"><ele>28.999999999999996</ele><time>2026-04-12T11:08:49.912Z</time></trkpt><trkpt lat="53.692948392859726" lon="14.727090743065936"><ele>29.0</ele><time>2026-04-12T11:08:53.912Z</time></trkpt><trkpt lat="53.69288838321525" lon="14.727128609011073"><ele>29.0</ele><time>2026-04-12T11:08:55.912Z</time></trkpt><trkpt lat="53.692785216401056" lon="14.72718302009886"><ele>29.0</ele><time>2026-04-12T11:08:58.912Z</time></trkpt><trkpt lat="53.69271660908374" lon="14.727239611283922"><ele>28.999999999999996</ele><time>2026-04-12T11:09:01.912Z</time></trkpt><trkpt lat="53.69263957889806" lon="14.727350321263206"><ele>29.0</ele><time>2026-04-12T11:09:04.912Z</time></trkpt><trkpt lat="53.69257283649935" lon="14.727396624396096"><ele>28.499999999999996</ele><time>2026-04-12T11:09:06.912Z</time></trkpt><trkpt lat="53.69251912251365" lon="14.727466104727233"><ele>28.0</ele><time>2026-04-12T11:09:08.912Z</time></trkpt><trkpt lat="53.69245114646949" lon="14.727488993733786"><ele>27.5</ele><time>2026-04-12T11:09:10.912Z</time></trkpt><trkpt lat="53.69237124067333" lon="14.727573297462142"><ele>27.0</ele><time>2026-04-12T11:09:13.912Z</time></trkpt><trkpt lat="53.692279408599525" lon="14.727662343357638"><ele>26.499999999999996</ele><time>2026-04-12T11:09:16.912Z</time></trkpt><trkpt lat="53.69218901410798" lon="14.72771412783729"><ele>26.0</ele><time>2026-04-12T11:09:18.912Z</time></trkpt><trkpt lat="53.6921179584032" lon="14.727775172572079"><ele>25.999999999999996</ele><time>2026-04-12T11:09:20.912Z</time></trkpt><trkpt lat="53.692047240667435" lon="14.727825813836331"><ele>26.0</ele><time>2026-04-12T11:09:22.912Z</time></trkpt><trkpt lat="53.69198112636226" lon="14.7278836966763"><ele>26.0</ele><time>2026-04-12T11:09:24.911Z</time></trkpt><trkpt lat="53.691930463050504" lon="14.72797690537179"><ele>26.0</ele><time>2026-04-12T11:09:26.91Z</time></trkpt><trkpt lat="53.69189085120219" lon="14.728092948972645"><ele>25.999999999999996</ele><time>2026-04-12T11:09:32.911Z</time></trkpt><trkpt lat="53.691853515203455" lon="14.728190222375462"><ele>26.0</ele><time>2026-04-12T11:09:34.911Z</time></trkpt><trkpt lat="53.69178534142778" lon="14.728321741106157"><ele>25.999999999999996</ele><time>2026-04-12T11:09:38.911Z</time></trkpt><trkpt lat="53.69177866922158" lon="14.728441582326427"><ele>26.0</ele><time>2026-04-12T11:09:40.911Z</time></trkpt><trkpt lat="53.69178487519694" lon="14.72855358587716"><ele>26.0</ele><time>2026-04-12T11:09:41.911Z</time></trkpt><trkpt lat="53.691827386744045" lon="14.728706370054596"><ele>26.0</ele><time>2026-04-12T11:09:43.911Z</time></trkpt><trkpt lat="53.69184318694672" lon="14.728812089791562"><ele>25.999999999999996</ele><time>2026-04-12T11:09:44.911Z</time></trkpt><trkpt lat="53.69185214573877" lon="14.728966424892521"><ele>26.0</ele><time>2026-04-12T11:09:46.911Z</time></trkpt><trkpt lat="53.69186325819107" lon="14.729108910505772"><ele>25.833333333333332</ele><time>2026-04-12T11:09:48.911Z</time></trkpt><trkpt lat="53.69189407260538" lon="14.729242927648205"><ele>25.666666666666664</ele><time>2026-04-12T11:09:50.911Z</time></trkpt><trkpt lat="53.69190283173819" lon="14.72935183475697"><ele>25.5</ele><time>2026-04-12T11:09:52.911Z</time></trkpt><trkpt lat="53.69191422782738" lon="14.729482855075409"><ele>25.333333333333336</ele><time>2026-04-12T11:09:54.911Z</time></trkpt><trkpt lat="53.691946263038545" lon="14.729666820936005"><ele>25.166666666666668</ele><time>2026-04-12T11:09:56.911Z</time></trkpt><trkpt lat="53.69190718752501" lon="14.729780824134828"><ele>25.0</ele><time>2026-04-12T11:09:59.911Z</time></trkpt><trkpt lat="53.691826019029634" lon="14.729676402237633"><ele>25.666666666666668</ele><time>2026-04-12T11:10:02.911Z</time></trkpt><trkpt lat="53.691798802328876" lon="14.729569376703822"><ele>26.333333333333336</ele><time>2026-04-12T11:10:03.911Z</time></trkpt><trkpt lat="53.6917556390725" lon="14.729463286724812"><ele>27.0</ele><time>2026-04-12T11:10:04.911Z</time></trkpt><trkpt lat="53.69170428714349" lon="14.729348797998874"><ele>27.666666666666664</ele><time>2026-04-12T11:10:05.911Z</time></trkpt><trkpt lat="53.69165624684899" lon="14.729210887317231"><ele>28.333333333333332</ele><time>2026-04-12T11:10:06.911Z</time></trkpt><trkpt lat="53.69161833781541" lon="14.729094736628548"><ele>29.0</ele><time>2026-04-12T11:10:07.911Z</time></trkpt><trkpt lat="53.69156647051242" lon="14.728944782646915"><ele>29.0</ele><time>2026-04-12T11:10:08.911Z</time></trkpt><trkpt lat="53.69150879703364" lon="14.728817770026742"><ele>29.0</ele><time>2026-04-12T11:10:09.911Z</time></trkpt><trkpt lat="53.691462581841954" lon="14.728688385187938"><ele>29.0</ele><time>2026-04-12T11:10:10.911Z</time></trkpt><trkpt lat="53.69142091596019" lon="14.728579900459202"><ele>29.0</ele><time>2026-04-12T11:10:11.911Z</time></trkpt><trkpt lat="53.69137085818339" lon="14.728475375161928"><ele>29.0</ele><time>2026-04-12T11:10:12.911Z</time></trkpt><trkpt lat="53.69131103225941" lon="14.728275956103698"><ele>28.4</ele><time>2026-04-12T11:10:14.911Z</time></trkpt><trkpt lat="53.69126570917337" lon="14.728140568964006"><ele>27.799999999999997</ele><time>2026-04-12T11:10:15.911Z</time></trkpt><trkpt lat="53.69122071515869" lon="14.72799239720244"><ele>27.200000000000003</ele><time>2026-04-12T11:10:16.911Z</time></trkpt><trkpt lat="53.691165617345405" lon="14.727855461829893"><ele>26.6</ele><time>2026-04-12T11:10:17.911Z</time></trkpt><trkpt lat="53.691118186423594" lon="14.727718325900291"><ele>26.0</ele><time>2026-04-12T11:10:18.911Z</time></trkpt><trkpt lat="53.69107055634249" lon="14.727610267961232"><ele>27.166666666666664</ele><time>2026-04-12T11:10:19.911Z</time></trkpt><trkpt lat="53.69103100548574" lon="14.727507756468825"><ele>28.333333333333332</ele><time>2026-04-12T11:10:20.911Z</time></trkpt><trkpt lat="53.690991424702446" lon="14.727410596311149"><ele>29.5</ele><time>2026-04-12T11:10:21.911Z</time></trkpt><trkpt lat="53.69094154086774" lon="14.727290823634313"><ele>30.666666666666664</ele><time>2026-04-12T11:10:22.911Z</time></trkpt><trkpt lat="53.690896173112094" lon="14.727185927745637"><ele>31.833333333333332</ele><time>2026-04-12T11:10:23.911Z</time></trkpt><trkpt lat="53.690824876377036" lon="14.727021507905127"><ele>33.0</ele><time>2026-04-12T11:10:25.911Z</time></trkpt><trkpt lat="53.69076717775734" lon="14.726842009266925"><ele>33.0</ele><time>2026-04-12T11:10:27.911Z</time></trkpt><trkpt lat="53.69070993735562" lon="14.726705714580309"><ele>33.0</ele><time>2026-04-12T11:10:29.911Z</time></trkpt><trkpt lat="53.690653095694714" lon="14.726654975402028"><ele>33.0</ele><time>2026-04-12T11:10:30.911Z</time></trkpt><trkpt lat="53.690576369915696" lon="14.726625102409667"><ele>33.0</ele><time>2026-04-12T11:10:31.911Z</time></trkpt><trkpt lat="53.69050396728297" lon="14.726615169115044"><ele>33.0</ele><time>2026-04-12T11:10:32.911Z</time></trkpt><trkpt lat="53.69043282526142" lon="14.72662494413918"><ele>33.0</ele><time>2026-04-12T11:10:33.911Z</time></trkpt><trkpt lat="53.69034314998707" lon="14.726461198690668"><ele>33.0</ele><time>2026-04-12T11:10:35.911Z</time></trkpt><trkpt lat="53.6902917503035" lon="14.726328327129352"><ele>33.0</ele><time>2026-04-12T11:10:36.911Z</time></trkpt><trkpt lat="53.69026241000491" lon="14.726191131358288"><ele>33.0</ele><time>2026-04-12T11:10:37.911Z</time></trkpt><trkpt lat="53.69022212049325" lon="14.726047870932168"><ele>33.0</ele><time>2026-04-12T11:10:38.911Z</time></trkpt><trkpt lat="53.690194894963575" lon="14.725874801348168"><ele>33.0</ele><time>2026-04-12T11:10:39.91Z</time></trkpt><trkpt lat="53.69016537811849" lon="14.725734804157263"><ele>33.199999999999996</ele><time>2026-04-12T11:10:40.91Z</time></trkpt><trkpt lat="53.69011563349933" lon="14.725590430918047"><ele>33.4</ele><time>2026-04-12T11:10:41.91Z</time></trkpt><trkpt lat="53.69007918060675" lon="14.725467116211716"><ele>33.599999999999994</ele><time>2026-04-12T11:10:42.91Z</time></trkpt><trkpt lat="53.69003759305984" lon="14.725332261894383"><ele>33.8</ele><time>2026-04-12T11:10:43.91Z</time></trkpt><trkpt lat="53.68999878088144" lon="14.725181867431067"><ele>34.0</ele><time>2026-04-12T11:10:44.91Z</time></trkpt><trkpt lat="53.68995674622869" lon="14.725003420933938"><ele>33.5</ele><time>2026-04-12T11:10:45.91Z</time></trkpt><trkpt lat="53.68990477659782" lon="14.724798095072094"><ele>33.0</ele><time>2026-04-12T11:10:46.91Z</time></trkpt><trkpt lat="53.689846471081424" lon="14.724581816706204"><ele>32.5</ele><time>2026-04-12T11:10:47.91Z</time></trkpt><trkpt lat="53.68978595214193" lon="14.7243557220156"><ele>32.0</ele><time>2026-04-12T11:10:48.91Z</time></trkpt><trkpt lat="53.68972545589548" lon="14.72414865404514"><ele>32.0</ele><time>2026-04-12T11:10:49.91Z</time></trkpt><trkpt lat="53.68967583862771" lon="14.723948643296927"><ele>32.0</ele><time>2026-04-12T11:10:50.91Z</time></trkpt><trkpt lat="53.68962251380822" lon="14.723775657054953"><ele>32.0</ele><time>2026-04-12T11:10:51.91Z</time></trkpt><trkpt lat="53.68957107147875" lon="14.723590327329957"><ele>32.0</ele><time>2026-04-12T11:10:52.91Z</time></trkpt><trkpt lat="53.68952363707686" lon="14.723356487162349"><ele>32.0</ele><time>2026-04-12T11:10:53.91Z</time></trkpt><trkpt lat="53.68948153816005" lon="14.723134190185224"><ele>32.0</ele><time>2026-04-12T11:10:54.91Z</time></trkpt><trkpt lat="53.68945252905082" lon="14.722915042579784"><ele>32.0</ele><time>2026-04-12T11:10:55.91Z</time></trkpt><trkpt lat="53.68939478171451" lon="14.722738154499305"><ele>32.0</ele><time>2026-04-12T11:10:56.91Z</time></trkpt><trkpt lat="53.689346578580064" lon="14.722570953238526"><ele>32.0</ele><time>2026-04-12T11:10:57.91Z</time></trkpt><trkpt lat="53.6892849363333" lon="14.72238258607019"><ele>32.0</ele><time>2026-04-12T11:10:58.91Z</time></trkpt><trkpt lat="53.68922638671669" lon="14.722195937848664"><ele>32.0</ele><time>2026-04-12T11:10:59.91Z</time></trkpt><trkpt lat="53.68917849121046" lon="14.722035579831978"><ele>32.0</ele><time>2026-04-12T11:11:00.91Z</time></trkpt><trkpt lat="53.68913902340361" lon="14.721846783077432"><ele>32.0</ele><time>2026-04-12T11:11:01.91Z</time></trkpt><trkpt lat="53.68909231530449" lon="14.721659135641715"><ele>32.0</ele><time>2026-04-12T11:11:02.91Z</time></trkpt><trkpt lat="53.68904386265669" lon="14.721468418838379"><ele>32.0</ele><time>2026-04-12T11:11:03.91Z</time></trkpt><trkpt lat="53.688999196042055" lon="14.721320998271318"><ele>32.0</ele><time>2026-04-12T11:11:04.91Z</time></trkpt><trkpt lat="53.68895290573007" lon="14.72116569407536"><ele>32.0</ele><time>2026-04-12T11:11:05.91Z</time></trkpt><trkpt lat="53.688918726362076" lon="14.721032171058399"><ele>31.333333333333332</ele><time>2026-04-12T11:11:06.91Z</time></trkpt><trkpt lat="53.688889034610284" lon="14.720894603989015"><ele>30.666666666666664</ele><time>2026-04-12T11:11:07.91Z</time></trkpt><trkpt lat="53.68885970165064" lon="14.720786688041322"><ele>30.0</ele><time>2026-04-12T11:11:08.91Z</time></trkpt><trkpt lat="53.68884007398141" lon="14.720684027190513"><ele>29.333333333333336</ele><time>2026-04-12T11:11:09.91Z</time></trkpt><trkpt lat="53.68877863840842" lon="14.720573352515666"><ele>28.666666666666668</ele><time>2026-04-12T11:11:11.91Z</time></trkpt><trkpt lat="53.68871636414726" lon="14.72050917071681"><ele>28.0</ele><time>2026-04-12T11:11:12.91Z</time></trkpt><trkpt lat="53.688634103193195" lon="14.720468379412598"><ele>28.25</ele><time>2026-04-12T11:11:13.91Z</time></trkpt><trkpt lat="53.68853669040684" lon="14.720460262625057"><ele>28.5</ele><time>2026-04-12T11:11:14.91Z</time></trkpt><trkpt lat="53.68842599617464" lon="14.720497650989241"><ele>28.75</ele><time>2026-04-12T11:11:15.91Z</time></trkpt><trkpt lat="53.68831027600877" lon="14.72055440229653"><ele>29.0</ele><time>2026-04-12T11:11:16.91Z</time></trkpt><trkpt lat="53.68819122516573" lon="14.720604655813977"><ele>29.0</ele><time>2026-04-12T11:11:17.91Z</time></trkpt><trkpt lat="53.68809715387506" lon="14.720637917428332"><ele>29.0</ele><time>2026-04-12T11:11:18.91Z</time></trkpt><trkpt lat="53.687994611268266" lon="14.720679766125864"><ele>29.0</ele><time>2026-04-12T11:11:19.91Z</time></trkpt><trkpt lat="53.68787032767013" lon="14.720740947973203"><ele>29.0</ele><time>2026-04-12T11:11:20.91Z</time></trkpt><trkpt lat="53.68775039680623" lon="14.720800351794084"><ele>28.75</ele><time>2026-04-12T11:11:21.91Z</time></trkpt><trkpt lat="53.687639069403225" lon="14.720851251215473"><ele>28.5</ele><time>2026-04-12T11:11:22.91Z</time></trkpt><trkpt lat="53.68751627319882" lon="14.72089963198903"><ele>28.25</ele><time>2026-04-12T11:11:23.91Z</time></trkpt><trkpt lat="53.68740169813007" lon="14.720936351704692"><ele>28.0</ele><time>2026-04-12T11:11:24.91Z</time></trkpt><trkpt lat="53.68731334936006" lon="14.720982951776767"><ele>28.0</ele><time>2026-04-12T11:11:25.91Z</time></trkpt><trkpt lat="53.68720737017951" lon="14.721029355129303"><ele>28.0</ele><time>2026-04-12T11:11:26.91Z</time></trkpt><trkpt lat="53.68708738517559" lon="14.721067891492403"><ele>28.0</ele><time>2026-04-12T11:11:27.91Z</time></trkpt><trkpt lat="53.686979833651286" lon="14.721124346368557"><ele>28.0</ele><time>2026-04-12T11:11:28.91Z</time></trkpt><trkpt lat="53.68686348355959" lon="14.721165507856448"><ele>28.5</ele><time>2026-04-12T11:11:29.908Z</time></trkpt><trkpt lat="53.6867547864169" lon="14.721211158582284"><ele>29.0</ele><time>2026-04-12T11:11:30.908Z</time></trkpt><trkpt lat="53.686626647518516" lon="14.72127971691908"><ele>29.5</ele><time>2026-04-12T11:11:31.908Z</time></trkpt><trkpt lat="53.68650153476406" lon="14.721338624279179"><ele>30.0</ele><time>2026-04-12T11:11:32.908Z</time></trkpt><trkpt lat="53.686381971759495" lon="14.721370341909804"><ele>30.0</ele><time>2026-04-12T11:11:33.908Z</time></trkpt><trkpt lat="53.68627362970203" lon="14.721407715194584"><ele>30.0</ele><time>2026-04-12T11:11:34.908Z</time></trkpt><trkpt lat="53.68615873017854" lon="14.721461267980985"><ele>30.0</ele><time>2026-04-12T11:11:35.908Z</time></trkpt><trkpt lat="53.68603925628337" lon="14.721495620374247"><ele>30.0</ele><time>2026-04-12T11:11:36.908Z</time></trkpt><trkpt lat="53.6858981697406" lon="14.721548879245377"><ele>30.0</ele><time>2026-04-12T11:11:37.908Z</time></trkpt><trkpt lat="53.68576546250898" lon="14.721608013437093"><ele>30.0</ele><time>2026-04-12T11:11:38.908Z</time></trkpt><trkpt lat="53.68561293776624" lon="14.721645419089656"><ele>30.0</ele><time>2026-04-12T11:11:39.907Z</time></trkpt><trkpt lat="53.68546979178959" lon="14.721709034754296"><ele>30.0</ele><time>2026-04-12T11:11:40.907Z</time></trkpt><trkpt lat="53.68535118226023" lon="14.721783598987672"><ele>29.5</ele><time>2026-04-12T11:11:41.907Z</time></trkpt><trkpt lat="53.685209980761925" lon="14.72184430954299"><ele>29.0</ele><time>2026-04-12T11:11:42.908Z</time></trkpt><trkpt lat="53.68506443965445" lon="14.721884477162654"><ele>28.5</ele><time>2026-04-12T11:11:43.908Z</time></trkpt><trkpt lat="53.68495921986169" lon="14.721928301152252"><ele>28.0</ele><time>2026-04-12T11:11:44.908Z</time></trkpt><trkpt lat="53.68484822991996" lon="14.721950385269047"><ele>28.5</ele><time>2026-04-12T11:11:45.908Z</time></trkpt><trkpt lat="53.68473515093099" lon="14.721990119659432"><ele>29.0</ele><time>2026-04-12T11:11:46.908Z</time></trkpt><trkpt lat="53.6846116904408" lon="14.722057358735782"><ele>29.5</ele><time>2026-04-12T11:11:47.908Z</time></trkpt><trkpt lat="53.68448353663473" lon="14.722111682216894"><ele>30.0</ele><time>2026-04-12T11:11:48.908Z</time></trkpt><trkpt lat="53.684366256610126" lon="14.722175834589486"><ele>30.0</ele><time>2026-04-12T11:11:49.908Z</time></trkpt><trkpt lat="53.68424746104792" lon="14.722218589116833"><ele>30.0</ele><time>2026-04-12T11:11:50.908Z</time></trkpt><trkpt lat="53.6841174736328" lon="14.722267854782313"><ele>30.0</ele><time>2026-04-12T11:11:51.908Z</time></trkpt><trkpt lat="53.683992549479576" lon="14.72230549200419"><ele>30.0</ele><time>2026-04-12T11:11:52.908Z</time></trkpt><trkpt lat="53.68386982204614" lon="14.722349882473004"><ele>30.0</ele><time>2026-04-12T11:11:53.908Z</time></trkpt><trkpt lat="53.683726543335645" lon="14.72242900164846"><ele>30.0</ele><time>2026-04-12T11:11:54.908Z</time></trkpt><trkpt lat="53.683586737633604" lon="14.72249971335866"><ele>30.0</ele><time>2026-04-12T11:11:55.908Z</time></trkpt><trkpt lat="53.683466496841845" lon="14.722541480368525"><ele>30.0</ele><time>2026-04-12T11:11:56.908Z</time></trkpt><trkpt lat="53.68334089799245" lon="14.722605253384557"><ele>29.4</ele><time>2026-04-12T11:11:57.908Z</time></trkpt><trkpt lat="53.68323018726455" lon="14.722654796256418"><ele>28.8</ele><time>2026-04-12T11:11:58.908Z</time></trkpt><trkpt lat="53.68313225633871" lon="14.722697940839852"><ele>28.200000000000003</ele><time>2026-04-12T11:11:59.908Z</time></trkpt><trkpt lat="53.68302645645338" lon="14.72274315208633"><ele>27.6</ele><time>2026-04-12T11:12:00.908Z</time></trkpt><trkpt lat="53.6829296308431" lon="14.722791655896575"><ele>27.0</ele><time>2026-04-12T11:12:01.908Z</time></trkpt><trkpt lat="53.6828203027117" lon="14.722835002930854"><ele>26.5</ele><time>2026-04-12T11:12:02.908Z</time></trkpt><trkpt lat="53.68271085625715" lon="14.722883009557352"><ele>26.0</ele><time>2026-04-12T11:12:03.908Z</time></trkpt><trkpt lat="53.68260515583979" lon="14.722959843068525"><ele>25.5</ele><time>2026-04-12T11:12:04.908Z</time></trkpt><trkpt lat="53.68248031087508" lon="14.723017304644706"><ele>25.0</ele><time>2026-04-12T11:12:05.908Z</time></trkpt><trkpt lat="53.68236889072094" lon="14.72304846618986"><ele>25.0</ele><time>2026-04-12T11:12:06.908Z</time></trkpt><trkpt lat="53.68225280367179" lon="14.7231126017676"><ele>25.0</ele><time>2026-04-12T11:12:07.908Z</time></trkpt><trkpt lat="53.68214558520792" lon="14.723157449364779"><ele>25.0</ele><time>2026-04-12T11:12:08.908Z</time></trkpt><trkpt lat="53.682023066018495" lon="14.723200013302165"><ele>25.0</ele><time>2026-04-12T11:12:09.908Z</time></trkpt><trkpt lat="53.681883662643784" lon="14.723252967224058"><ele>25.0</ele><time>2026-04-12T11:12:10.908Z</time></trkpt><trkpt lat="53.68176611856857" lon="14.723302228950162"><ele>25.0</ele><time>2026-04-12T11:12:11.908Z</time></trkpt><trkpt lat="53.681653607735385" lon="14.723362733236653"><ele>25.0</ele><time>2026-04-12T11:12:12.908Z</time></trkpt><trkpt lat="53.68153311959074" lon="14.723435551061382"><ele>25.0</ele><time>2026-04-12T11:12:13.908Z</time></trkpt><trkpt lat="53.681416860243516" lon="14.723484569619155"><ele>25.0</ele><time>2026-04-12T11:12:14.908Z</time></trkpt><trkpt lat="53.68127976003841" lon="14.723530629357377"><ele>25.0</ele><time>2026-04-12T11:12:15.908Z</time></trkpt><trkpt lat="53.68115315153043" lon="14.72358797965965"><ele>25.0</ele><time>2026-04-12T11:12:16.908Z</time></trkpt><trkpt lat="53.681012359282605" lon="14.723612104821592"><ele>25.0</ele><time>2026-04-12T11:12:17.908Z</time></trkpt><trkpt lat="53.68088115493721" lon="14.723658437363433"><ele>25.25</ele><time>2026-04-12T11:12:18.908Z</time></trkpt><trkpt lat="53.68074765988718" lon="14.723717053370834"><ele>25.5</ele><time>2026-04-12T11:12:19.908Z</time></trkpt><trkpt lat="53.6806000610407" lon="14.72377480355565"><ele>25.75</ele><time>2026-04-12T11:12:20.908Z</time></trkpt><trkpt lat="53.680449938813545" lon="14.723840060455519"><ele>26.0</ele><time>2026-04-12T11:12:21.908Z</time></trkpt><trkpt lat="53.68034303461312" lon="14.723873655357993"><ele>26.0</ele><time>2026-04-12T11:12:22.908Z</time></trkpt><trkpt lat="53.680222191279" lon="14.723915187988432"><ele>26.0</ele><time>2026-04-12T11:12:23.908Z</time></trkpt><trkpt lat="53.680102618576726" lon="14.723950937453406"><ele>26.0</ele><time>2026-04-12T11:12:24.908Z</time></trkpt><trkpt lat="53.6799776331576" lon="14.723996418033252"><ele>26.0</ele><time>2026-04-12T11:12:25.908Z</time></trkpt><trkpt lat="53.67986219713223" lon="14.724053953212492"><ele>25.999999999999996</ele><time>2026-04-12T11:12:26.908Z</time></trkpt><trkpt lat="53.679759606481426" lon="14.724105290878256"><ele>26.0</ele><time>2026-04-12T11:12:27.908Z</time></trkpt><trkpt lat="53.67969351492418" lon="14.724143182090335"><ele>26.0</ele><time>2026-04-12T11:12:28.908Z</time></trkpt><trkpt lat="53.679628149564785" lon="14.724167088791951"><ele>26.0</ele><time>2026-04-12T11:12:29.908Z</time></trkpt><trkpt lat="53.67952706987917" lon="14.724108777853488"><ele>25.999999999999996</ele><time>2026-04-12T11:12:31.908Z</time></trkpt><trkpt lat="53.67947946031068" lon="14.724005735836787"><ele>26.0</ele><time>2026-04-12T11:12:32.908Z</time></trkpt><trkpt lat="53.679530989955154" lon="14.723746433572432"><ele>26.0</ele><time>2026-04-12T11:12:34.908Z</time></trkpt><trkpt lat="53.67952121495622" lon="14.723552125331604"><ele>26.0</ele><time>2026-04-12T11:12:35.908Z</time></trkpt><trkpt lat="53.679501562087125" lon="14.723348851557603"><ele>26.0</ele><time>2026-04-12T11:12:36.908Z</time></trkpt><trkpt lat="53.67949104144509" lon="14.72313273899294"><ele>26.0</ele><time>2026-04-12T11:12:37.908Z</time></trkpt><trkpt lat="53.679479225291814" lon="14.722932987647049"><ele>25.4</ele><time>2026-04-12T11:12:38.908Z</time></trkpt><trkpt lat="53.67946111128933" lon="14.722718014184043"><ele>24.8</ele><time>2026-04-12T11:12:39.908Z</time></trkpt><trkpt lat="53.67945121015982" lon="14.722553165260072"><ele>24.2</ele><time>2026-04-12T11:12:40.908Z</time></trkpt><trkpt lat="53.67943495542799" lon="14.722378939741029"><ele>23.599999999999998</ele><time>2026-04-12T11:12:41.908Z</time></trkpt><trkpt lat="53.67941639071219" lon="14.722190632269315"><ele>23.0</ele><time>2026-04-12T11:12:42.908Z</time></trkpt><trkpt lat="53.67939979920915" lon="14.721995282176993"><ele>22.0</ele><time>2026-04-12T11:12:43.908Z</time></trkpt><trkpt lat="53.679378748348185" lon="14.721805978976299"><ele>21.0</ele><time>2026-04-12T11:12:44.908Z</time></trkpt><trkpt lat="53.679373047305646" lon="14.721620531274548"><ele>20.0</ele><time>2026-04-12T11:12:45.908Z</time></trkpt><trkpt lat="53.679339558142765" lon="14.721442054725088"><ele>19.0</ele><time>2026-04-12T11:12:46.908Z</time></trkpt><trkpt lat="53.67932983167684" lon="14.721250281774394"><ele>18.0</ele><time>2026-04-12T11:12:47.908Z</time></trkpt><trkpt lat="53.6793080904827" lon="14.721087875999272"><ele>17.0</ele><time>2026-04-12T11:12:48.908Z</time></trkpt><trkpt lat="53.67927444032242" lon="14.72090644117727"><ele>16.0</ele><time>2026-04-12T11:12:49.908Z</time></trkpt><trkpt lat="53.679227191778885" lon="14.720751040657655"><ele>15.0</ele><time>2026-04-12T11:12:50.908Z</time></trkpt><trkpt lat="53.6791778907709" lon="14.720597614836404"><ele>14.0</ele><time>2026-04-12T11:12:51.908Z</time></trkpt><trkpt lat="53.67914274998708" lon="14.720378606663987"><ele>13.6</ele><time>2026-04-12T11:12:52.908Z</time></trkpt><trkpt lat="53.67915359444024" lon="14.720178024852306"><ele>13.2</ele><time>2026-04-12T11:12:53.908Z</time></trkpt><trkpt lat="53.67915115266775" lon="14.719989515952927"><ele>12.799999999999999</ele><time>2026-04-12T11:12:54.908Z</time></trkpt><trkpt lat="53.679154574137165" lon="14.71980721023275"><ele>12.399999999999999</ele><time>2026-04-12T11:12:55.908Z</time></trkpt><trkpt lat="53.679158058159494" lon="14.719675881255121"><ele>12.0</ele><time>2026-04-12T11:12:56.908Z</time></trkpt><trkpt lat="53.6791447873231" lon="14.719555086863489"><ele>12.0</ele><time>2026-04-12T11:12:57.908Z</time></trkpt><trkpt lat="53.67915031273342" lon="14.71944712663571"><ele>12.0</ele><time>2026-04-12T11:12:58.908Z</time></trkpt><trkpt lat="53.679160706919184" lon="14.719262700875715"><ele>12.0</ele><time>2026-04-12T11:13:00.908Z</time></trkpt><trkpt lat="53.67922501371393" lon="14.719047289109024"><ele>12.0</ele><time>2026-04-12T11:13:02.908Z</time></trkpt><trkpt lat="53.6793023624643" lon="14.718930643576888"><ele>12.0</ele><time>2026-04-12T11:13:03.908Z</time></trkpt><trkpt lat="53.67939042455972" lon="14.718802663902416"><ele>11.5</ele><time>2026-04-12T11:13:04.908Z</time></trkpt><trkpt lat="53.67945213992042" lon="14.718704721963334"><ele>11.0</ele><time>2026-04-12T11:13:05.908Z</time></trkpt><trkpt lat="53.679500940054304" lon="14.718615744612828"><ele>10.5</ele><time>2026-04-12T11:13:06.907Z</time></trkpt><trkpt lat="53.679549725089615" lon="14.718504766013773"><ele>10.0</ele><time>2026-04-12T11:13:07.907Z</time></trkpt><trkpt lat="53.679601568455496" lon="14.7184082603579"><ele>9.5</ele><time>2026-04-12T11:13:08.907Z</time></trkpt><trkpt lat="53.67965884075397" lon="14.718313867510684"><ele>9.0</ele><time>2026-04-12T11:13:09.907Z</time></trkpt><trkpt lat="53.67970403488897" lon="14.718197495957465"><ele>8.8</ele><time>2026-04-12T11:13:10.907Z</time></trkpt><trkpt lat="53.67974421455671" lon="14.718085060435177"><ele>8.600000000000001</ele><time>2026-04-12T11:13:11.907Z</time></trkpt><trkpt lat="53.67977359575638" lon="14.717964544559573"><ele>8.4</ele><time>2026-04-12T11:13:12.907Z</time></trkpt><trkpt lat="53.67980439614009" lon="14.71777466302736"><ele>8.200000000000001</ele><time>2026-04-12T11:13:14.907Z</time></trkpt><trkpt lat="53.679826756186735" lon="14.71760105969242"><ele>8.0</ele><time>2026-04-12T11:13:16.907Z</time></trkpt><trkpt lat="53.67984446820201" lon="14.717444454228636"><ele>7.800000000000001</ele><time>2026-04-12T11:13:18.907Z</time></trkpt><trkpt lat="53.67988045671513" lon="14.717273303263891"><ele>7.6000000000000005</ele><time>2026-04-12T11:13:20.907Z</time></trkpt><trkpt lat="53.67991765076985" lon="14.717094504775059"><ele>7.3999999999999995</ele><time>2026-04-12T11:13:22.907Z</time></trkpt><trkpt lat="53.679945810596436" lon="14.716886722074022"><ele>7.199999999999999</ele><time>2026-04-12T11:13:24.907Z</time></trkpt><trkpt lat="53.67996088781234" lon="14.716782895439586"><ele>7.0</ele><time>2026-04-12T11:13:25.907Z</time></trkpt><trkpt lat="53.67997585074823" lon="14.716674828011955"><ele>7.0</ele><time>2026-04-12T11:13:26.907Z</time></trkpt><trkpt lat="53.68000215098995" lon="14.716558090156798"><ele>6.999999999999999</ele><time>2026-04-12T11:13:27.907Z</time></trkpt><trkpt lat="53.68003761418418" lon="14.716418461761373"><ele>6.999999999999999</ele><time>2026-04-12T11:13:28.907Z</time></trkpt><trkpt lat="53.68008734857663" lon="14.716239658330382"><ele>7.0</ele><time>2026-04-12T11:13:29.907Z</time></trkpt><trkpt lat="53.68015662777666" lon="14.716078203251385"><ele>7.0</ele><time>2026-04-12T11:13:30.907Z</time></trkpt><trkpt lat="53.68023919992483" lon="14.715904064508328"><ele>7.5</ele><time>2026-04-12T11:13:31.907Z</time></trkpt><trkpt lat="53.68033250020245" lon="14.715755952357101"><ele>8.0</ele><time>2026-04-12T11:13:32.907Z</time></trkpt><trkpt lat="53.68042045037857" lon="14.715626792601581"><ele>8.5</ele><time>2026-04-12T11:13:33.907Z</time></trkpt><trkpt lat="53.680510847672416" lon="14.715508490328949"><ele>9.0</ele><time>2026-04-12T11:13:34.907Z</time></trkpt><trkpt lat="53.68059394435008" lon="14.715400302874764"><ele>9.0</ele><time>2026-04-12T11:13:35.905Z</time></trkpt><trkpt lat="53.680672461335085" lon="14.715310208872241"><ele>9.0</ele><time>2026-04-12T11:13:36.905Z</time></trkpt><trkpt lat="53.68073227904049" lon="14.715235410367303"><ele>9.0</ele><time>2026-04-12T11:13:37.905Z</time></trkpt><trkpt lat="53.680806476921106" lon="14.715146146304122"><ele>9.0</ele><time>2026-04-12T11:13:38.905Z</time></trkpt><trkpt lat="53.680873456241194" lon="14.715035985772081"><ele>9.0</ele><time>2026-04-12T11:13:39.904Z</time></trkpt><trkpt lat="53.6809473041878" lon="14.714908586063805"><ele>9.8</ele><time>2026-04-12T11:13:41.905Z</time></trkpt><trkpt lat="53.681015970856855" lon="14.714844649245324"><ele>10.600000000000001</ele><time>2026-04-12T11:13:43.905Z</time></trkpt><trkpt lat="53.681120609315165" lon="14.71476758147983"><ele>11.4</ele><time>2026-04-12T11:13:45.904Z</time></trkpt><trkpt lat="53.68122114089934" lon="14.714693792353552"><ele>12.200000000000001</ele><time>2026-04-12T11:13:47.905Z</time></trkpt><trkpt lat="53.68131971189603" lon="14.714624509325349"><ele>13.0</ele><time>2026-04-12T11:13:49.905Z</time></trkpt><trkpt lat="53.68138531206332" lon="14.714577487882389"><ele>13.25</ele><time>2026-04-12T11:13:50.905Z</time></trkpt><trkpt lat="53.68148753539523" lon="14.71451935917069"><ele>13.5</ele><time>2026-04-12T11:13:51.905Z</time></trkpt><trkpt lat="53.681611551380776" lon="14.714451510888082"><ele>13.75</ele><time>2026-04-12T11:13:52.905Z</time></trkpt><trkpt lat="53.68171686784602" lon="14.714396909568642"><ele>14.0</ele><time>2026-04-12T11:13:53.905Z</time></trkpt><trkpt lat="53.681822909101996" lon="14.714359466056596"><ele>14.2</ele><time>2026-04-12T11:13:54.905Z</time></trkpt><trkpt lat="53.681919405944384" lon="14.714312992746837"><ele>14.399999999999999</ele><time>2026-04-12T11:13:55.905Z</time></trkpt><trkpt lat="53.68202489162676" lon="14.71426619576154"><ele>14.6</ele><time>2026-04-12T11:13:56.905Z</time></trkpt><trkpt lat="53.682109559765784" lon="14.714275049327773"><ele>14.8</ele><time>2026-04-12T11:13:57.905Z</time></trkpt><trkpt lat="53.68222068613337" lon="14.714302036633173"><ele>15.0</ele><time>2026-04-12T11:13:58.905Z</time></trkpt><trkpt lat="53.68236199347447" lon="14.714326885353511"><ele>15.0</ele><time>2026-04-12T11:13:59.905Z</time></trkpt><trkpt lat="53.682511029199766" lon="14.714366178782207"><ele>15.0</ele><time>2026-04-12T11:14:00.905Z</time></trkpt><trkpt lat="53.682652852937956" lon="14.714406507241662"><ele>15.0</ele><time>2026-04-12T11:14:01.905Z</time></trkpt><trkpt lat="53.68278312921646" lon="14.71446373946075"><ele>15.0</ele><time>2026-04-12T11:14:02.905Z</time></trkpt><trkpt lat="53.68288182063616" lon="14.714511308453503"><ele>16.0</ele><time>2026-04-12T11:14:03.905Z</time></trkpt><trkpt lat="53.68296202108456" lon="14.714538935127498"><ele>17.0</ele><time>2026-04-12T11:14:04.905Z</time></trkpt><trkpt lat="53.68303956754371" lon="14.714573488367542"><ele>18.0</ele><time>2026-04-12T11:14:05.905Z</time></trkpt><trkpt lat="53.683103216557285" lon="14.714605861715333"><ele>19.0</ele><time>2026-04-12T11:14:06.905Z</time></trkpt><trkpt lat="53.68323004969125" lon="14.714592278848784"><ele>20.0</ele><time>2026-04-12T11:14:08.905Z</time></trkpt><trkpt lat="53.68334881338384" lon="14.714532468753802"><ele>20.0</ele><time>2026-04-12T11:14:09.905Z</time></trkpt><trkpt lat="53.68347876376194" lon="14.71444471004535"><ele>20.0</ele><time>2026-04-12T11:14:10.905Z</time></trkpt><trkpt lat="53.68361494185647" lon="14.71434773147792"><ele>20.0</ele><time>2026-04-12T11:14:11.905Z</time></trkpt><trkpt lat="53.683755526079615" lon="14.714253961145898"><ele>20.0</ele><time>2026-04-12T11:14:12.905Z</time></trkpt><trkpt lat="53.68389732141818" lon="14.714161491849387"><ele>20.333333333333336</ele><time>2026-04-12T11:14:13.905Z</time></trkpt><trkpt lat="53.684036339429476" lon="14.71408434618455"><ele>20.666666666666668</ele><time>2026-04-12T11:14:14.905Z</time></trkpt><trkpt lat="53.68417270026219" lon="14.714007402110527"><ele>21.0</ele><time>2026-04-12T11:14:15.905Z</time></trkpt><trkpt lat="53.684325050876886" lon="14.713915301830955"><ele>20.75</ele><time>2026-04-12T11:14:16.905Z</time></trkpt><trkpt lat="53.6844611946308" lon="14.713835356687277"><ele>20.5</ele><time>2026-04-12T11:14:17.905Z</time></trkpt><trkpt lat="53.6846014113066" lon="14.713756312641149"><ele>20.25</ele><time>2026-04-12T11:14:18.905Z</time></trkpt><trkpt lat="53.68473682143408" lon="14.7136540084832"><ele>20.0</ele><time>2026-04-12T11:14:19.905Z</time></trkpt><trkpt lat="53.684860812444974" lon="14.713564222392904"><ele>19.75</ele><time>2026-04-12T11:14:20.905Z</time></trkpt><trkpt lat="53.68497049817838" lon="14.713476193150644"><ele>19.5</ele><time>2026-04-12T11:14:21.905Z</time></trkpt><trkpt lat="53.685093656545945" lon="14.713392169930415"><ele>19.25</ele><time>2026-04-12T11:14:22.905Z</time></trkpt><trkpt lat="53.685224945930095" lon="14.713304684429735"><ele>19.0</ele><time>2026-04-12T11:14:23.904Z</time></trkpt><trkpt lat="53.68534232667785" lon="14.713209782609717"><ele>19.0</ele><time>2026-04-12T11:14:24.904Z</time></trkpt><trkpt lat="53.685443322254294" lon="14.713125776869658"><ele>19.0</ele><time>2026-04-12T11:14:25.904Z</time></trkpt><trkpt lat="53.685542118834995" lon="14.713046481600594"><ele>19.0</ele><time>2026-04-12T11:14:26.904Z</time></trkpt><trkpt lat="53.68562633207135" lon="14.712995674844539"><ele>19.0</ele><time>2026-04-12T11:14:27.904Z</time></trkpt><trkpt lat="53.685700752198336" lon="14.712935759433064"><ele>19.0</ele><time>2026-04-12T11:14:28.904Z</time></trkpt><trkpt lat="53.68576088801118" lon="14.712872661904557"><ele>19.0</ele><time>2026-04-12T11:14:29.904Z</time></trkpt><trkpt lat="53.68583548579475" lon="14.712797761602562"><ele>19.0</ele><time>2026-04-12T11:14:30.904Z</time></trkpt><trkpt lat="53.685928167697604" lon="14.71272010847269"><ele>19.0</ele><time>2026-04-12T11:14:31.904Z</time></trkpt><trkpt lat="53.68601990756531" lon="14.712660831843506"><ele>19.0</ele><time>2026-04-12T11:14:32.904Z</time></trkpt><trkpt lat="53.68612609145816" lon="14.712584830020914"><ele>19.0</ele><time>2026-04-12T11:14:33.904Z</time></trkpt><trkpt lat="53.68623631107702" lon="14.712505669244733"><ele>20.0</ele><time>2026-04-12T11:14:34.904Z</time></trkpt><trkpt lat="53.68635164545258" lon="14.712420281646406"><ele>21.0</ele><time>2026-04-12T11:14:35.904Z</time></trkpt><trkpt lat="53.68645366483641" lon="14.712347336093405"><ele>22.0</ele><time>2026-04-12T11:14:36.904Z</time></trkpt><trkpt lat="53.68656456205844" lon="14.71228347456235"><ele>23.0</ele><time>2026-04-12T11:14:37.904Z</time></trkpt><trkpt lat="53.68668373133068" lon="14.712222454710673"><ele>23.0</ele><time>2026-04-12T11:14:38.904Z</time></trkpt><trkpt lat="53.68679502762299" lon="14.71216145978624"><ele>23.0</ele><time>2026-04-12T11:14:39.904Z</time></trkpt><trkpt lat="53.68691307912101" lon="14.712148520623153"><ele>23.0</ele><time>2026-04-12T11:14:40.904Z</time></trkpt><trkpt lat="53.687022742278835" lon="14.712135246309325"><ele>23.0</ele><time>2026-04-12T11:14:41.904Z</time></trkpt><trkpt lat="53.687110561839695" lon="14.712161127449608"><ele>23.0</ele><time>2026-04-12T11:14:42.904Z</time></trkpt><trkpt lat="53.68720221445787" lon="14.712188552740225"><ele>23.2</ele><time>2026-04-12T11:14:43.904Z</time></trkpt><trkpt lat="53.68730797561683" lon="14.712206292714004"><ele>23.4</ele><time>2026-04-12T11:14:44.904Z</time></trkpt><trkpt lat="53.6874207117165" lon="14.712242696586955"><ele>23.599999999999998</ele><time>2026-04-12T11:14:45.904Z</time></trkpt><trkpt lat="53.68753385522592" lon="14.712261735060572"><ele>23.799999999999997</ele><time>2026-04-12T11:14:46.904Z</time></trkpt><trkpt lat="53.687645203664154" lon="14.712262859457939"><ele>24.0</ele><time>2026-04-12T11:14:47.904Z</time></trkpt><trkpt lat="53.687749125019366" lon="14.712267231030042"><ele>23.75</ele><time>2026-04-12T11:14:48.904Z</time></trkpt><trkpt lat="53.687872190771095" lon="14.712281030929502"><ele>23.5</ele><time>2026-04-12T11:14:49.904Z</time></trkpt><trkpt lat="53.68800205411663" lon="14.71228830734626"><ele>23.25</ele><time>2026-04-12T11:14:50.904Z</time></trkpt><trkpt lat="53.68814574353702" lon="14.712292732580798"><ele>23.0</ele><time>2026-04-12T11:14:51.904Z</time></trkpt><trkpt lat="53.68826396628128" lon="14.712303453349389"><ele>23.0</ele><time>2026-04-12T11:14:52.904Z</time></trkpt><trkpt lat="53.68836764270646" lon="14.712302555551577"><ele>23.0</ele><time>2026-04-12T11:14:53.904Z</time></trkpt><trkpt lat="53.68848257399598" lon="14.71230968975059"><ele>23.0</ele><time>2026-04-12T11:14:54.904Z</time></trkpt><trkpt lat="53.688569588303466" lon="14.712310765087778"><ele>23.0</ele><time>2026-04-12T11:14:55.904Z</time></trkpt><trkpt lat="53.68868267467708" lon="14.7122894207875"><ele>23.0</ele><time>2026-04-12T11:14:56.904Z</time></trkpt><trkpt lat="53.68879323281546" lon="14.712237630082333"><ele>24.0</ele><time>2026-04-12T11:14:57.904Z</time></trkpt><trkpt lat="53.688905624593104" lon="14.712172212968321"><ele>25.0</ele><time>2026-04-12T11:14:58.904Z</time></trkpt><trkpt lat="53.68901917263869" lon="14.712095437278773"><ele>26.0</ele><time>2026-04-12T11:14:59.904Z</time></trkpt><trkpt lat="53.689142014815545" lon="14.712008126419738"><ele>27.0</ele><time>2026-04-12T11:15:00.904Z</time></trkpt><trkpt lat="53.68926370312271" lon="14.711909784505789"><ele>26.8</ele><time>2026-04-12T11:15:01.904Z</time></trkpt><trkpt lat="53.68936488445078" lon="14.711859752475188"><ele>26.6</ele><time>2026-04-12T11:15:02.904Z</time></trkpt><trkpt lat="53.68947374775192" lon="14.711810364331258"><ele>26.400000000000002</ele><time>2026-04-12T11:15:03.904Z</time></trkpt><trkpt lat="53.689559443863615" lon="14.711722503177981"><ele>26.200000000000003</ele><time>2026-04-12T11:15:04.904Z</time></trkpt><trkpt lat="53.68966537960374" lon="14.711667772598425"><ele>26.0</ele><time>2026-04-12T11:15:05.904Z</time></trkpt><trkpt lat="53.689770965325835" lon="14.711588981216076"><ele>26.75</ele><time>2026-04-12T11:15:06.904Z</time></trkpt><trkpt lat="53.68986995842684" lon="14.711510056974635"><ele>27.5</ele><time>2026-04-12T11:15:07.904Z</time></trkpt><trkpt lat="53.68998684687031" lon="14.711437907411039"><ele>28.25</ele><time>2026-04-12T11:15:08.904Z</time></trkpt><trkpt lat="53.690101138142154" lon="14.711381230868106"><ele>29.0</ele><time>2026-04-12T11:15:09.904Z</time></trkpt><trkpt lat="53.690231545771496" lon="14.71130905517988"><ele>29.25</ele><time>2026-04-12T11:15:10.904Z</time></trkpt><trkpt lat="53.69034616139576" lon="14.711241456907294"><ele>29.5</ele><time>2026-04-12T11:15:11.904Z</time></trkpt><trkpt lat="53.690474739649716" lon="14.711143277617055"><ele>29.75</ele><time>2026-04-12T11:15:12.904Z</time></trkpt><trkpt lat="53.690573374048306" lon="14.71105102399043"><ele>30.0</ele><time>2026-04-12T11:15:13.904Z</time></trkpt><trkpt lat="53.69070477125586" lon="14.710960701296184"><ele>29.75</ele><time>2026-04-12T11:15:14.904Z</time></trkpt><trkpt lat="53.69081140072709" lon="14.71088598142168"><ele>29.5</ele><time>2026-04-12T11:15:15.904Z</time></trkpt><trkpt lat="53.690931134499735" lon="14.710799147620474"><ele>29.25</ele><time>2026-04-12T11:15:16.904Z</time></trkpt><trkpt lat="53.691047216044566" lon="14.710719439394193"><ele>29.0</ele><time>2026-04-12T11:15:17.904Z</time></trkpt><trkpt lat="53.69115508361688" lon="14.710643128195247"><ele>29.0</ele><time>2026-04-12T11:15:18.904Z</time></trkpt><trkpt lat="53.69127636931666" lon="14.710558288935228"><ele>29.0</ele><time>2026-04-12T11:15:19.904Z</time></trkpt><trkpt lat="53.691389416166544" lon="14.710472202759277"><ele>29.0</ele><time>2026-04-12T11:15:20.904Z</time></trkpt><trkpt lat="53.69149834165981" lon="14.71037672628598"><ele>29.0</ele><time>2026-04-12T11:15:21.904Z</time></trkpt><trkpt lat="53.69162915849563" lon="14.71027327629558"><ele>29.25</ele><time>2026-04-12T11:15:22.904Z</time></trkpt><trkpt lat="53.69174887410369" lon="14.710183523730421"><ele>29.5</ele><time>2026-04-12T11:15:23.904Z</time></trkpt><trkpt lat="53.69187484856677" lon="14.710116288281034"><ele>29.75</ele><time>2026-04-12T11:15:24.904Z</time></trkpt><trkpt lat="53.69197870589595" lon="14.71000987772991"><ele>30.0</ele><time>2026-04-12T11:15:25.904Z</time></trkpt><trkpt lat="53.692096550015926" lon="14.709893435389194"><ele>30.0</ele><time>2026-04-12T11:15:26.904Z</time></trkpt><trkpt lat="53.69222199694799" lon="14.70974676223009"><ele>30.0</ele><time>2026-04-12T11:15:27.904Z</time></trkpt><trkpt lat="53.69233297577022" lon="14.709605722128707"><ele>30.0</ele><time>2026-04-12T11:15:28.904Z</time></trkpt><trkpt lat="53.69243645203186" lon="14.70948074493273"><ele>30.0</ele><time>2026-04-12T11:15:29.904Z</time></trkpt><trkpt lat="53.69254976786251" lon="14.709360938091493"><ele>30.0</ele><time>2026-04-12T11:15:30.904Z</time></trkpt><trkpt lat="53.69266465445535" lon="14.70921842449607"><ele>30.0</ele><time>2026-04-12T11:15:31.904Z</time></trkpt><trkpt lat="53.69277441125869" lon="14.70909246448767"><ele>30.0</ele><time>2026-04-12T11:15:32.904Z</time></trkpt><trkpt lat="53.692887748851916" lon="14.708976937607599"><ele>30.0</ele><time>2026-04-12T11:15:33.904Z</time></trkpt><trkpt lat="53.6930028877145" lon="14.708844155316209"><ele>30.0</ele><time>2026-04-12T11:15:34.904Z</time></trkpt><trkpt lat="53.6931214169018" lon="14.708698157087023"><ele>30.0</ele><time>2026-04-12T11:15:35.904Z</time></trkpt><trkpt lat="53.693238204745505" lon="14.708590465136297"><ele>30.0</ele><time>2026-04-12T11:15:36.904Z</time></trkpt><trkpt lat="53.693358416363935" lon="14.708463630702946"><ele>30.0</ele><time>2026-04-12T11:15:37.904Z</time></trkpt><trkpt lat="53.693476180635884" lon="14.7083388248441"><ele>29.75</ele><time>2026-04-12T11:15:38.904Z</time></trkpt><trkpt lat="53.69358368988362" lon="14.708235799685076"><ele>29.5</ele><time>2026-04-12T11:15:39.904Z</time></trkpt><trkpt lat="53.693687466185835" lon="14.708125159073282"><ele>29.25</ele><time>2026-04-12T11:15:40.904Z</time></trkpt><trkpt lat="53.693779568617" lon="14.708003196824164"><ele>29.0</ele><time>2026-04-12T11:15:41.903Z</time></trkpt><trkpt lat="53.6938699162061" lon="14.707892858216505"><ele>29.0</ele><time>2026-04-12T11:15:42.902Z</time></trkpt><trkpt lat="53.69399061507452" lon="14.707756662201563"><ele>29.0</ele><time>2026-04-12T11:15:43.902Z</time></trkpt><trkpt lat="53.69408899355042" lon="14.707639664311143"><ele>29.0</ele><time>2026-04-12T11:15:44.902Z</time></trkpt><trkpt lat="53.69416012244455" lon="14.707515968964994"><ele>29.0</ele><time>2026-04-12T11:15:45.902Z</time></trkpt><trkpt lat="53.69426841679905" lon="14.70739873755082"><ele>29.0</ele><time>2026-04-12T11:15:46.902Z</time></trkpt><trkpt lat="53.694360391020886" lon="14.707308114367764"><ele>29.0</ele><time>2026-04-12T11:15:47.903Z</time></trkpt><trkpt lat="53.69443352064828" lon="14.70721574831915"><ele>29.0</ele><time>2026-04-12T11:15:48.902Z</time></trkpt><trkpt lat="53.69451565913699" lon="14.70712313327362"><ele>29.0</ele><time>2026-04-12T11:15:49.902Z</time></trkpt><trkpt lat="53.694601233098176" lon="14.70702623878471"><ele>29.0</ele><time>2026-04-12T11:15:50.902Z</time></trkpt><trkpt lat="53.69468634827155" lon="14.706884022769561"><ele>29.25</ele><time>2026-04-12T11:15:51.902Z</time></trkpt><trkpt lat="53.694776127468614" lon="14.706769718431934"><ele>29.5</ele><time>2026-04-12T11:15:52.902Z</time></trkpt><trkpt lat="53.69490023067211" lon="14.706614749042437"><ele>29.75</ele><time>2026-04-12T11:15:53.902Z</time></trkpt><trkpt lat="53.695013726955715" lon="14.706511821946636"><ele>30.0</ele><time>2026-04-12T11:15:54.902Z</time></trkpt><trkpt lat="53.69514261427521" lon="14.706388150324416"><ele>30.25</ele><time>2026-04-12T11:15:55.902Z</time></trkpt><trkpt lat="53.695269760708435" lon="14.706265265607765"><ele>30.5</ele><time>2026-04-12T11:15:56.902Z</time></trkpt><trkpt lat="53.69537619012725" lon="14.70617129234756"><ele>30.75</ele><time>2026-04-12T11:15:57.902Z</time></trkpt><trkpt lat="53.6954636128895" lon="14.706077126934915"><ele>31.0</ele><time>2026-04-12T11:15:58.902Z</time></trkpt><trkpt lat="53.69553918930276" lon="14.705985492839666"><ele>31.0</ele><time>2026-04-12T11:15:59.902Z</time></trkpt><trkpt lat="53.69562049457354" lon="14.705855183974556"><ele>31.0</ele><time>2026-04-12T11:16:00.902Z</time></trkpt><trkpt lat="53.69571596347349" lon="14.70574248242714"><ele>31.0</ele><time>2026-04-12T11:16:01.902Z</time></trkpt><trkpt lat="53.695837965009076" lon="14.705602830092941"><ele>31.0</ele><time>2026-04-12T11:16:02.902Z</time></trkpt><trkpt lat="53.6959664680068" lon="14.705445048112663"><ele>31.0</ele><time>2026-04-12T11:16:03.902Z</time></trkpt><trkpt lat="53.69608631265293" lon="14.705318375806401"><ele>31.0</ele><time>2026-04-12T11:16:04.902Z</time></trkpt><trkpt lat="53.69618381986936" lon="14.705178295125345"><ele>31.0</ele><time>2026-04-12T11:16:05.902Z</time></trkpt><trkpt lat="53.69629279216638" lon="14.705067555807648"><ele>31.0</ele><time>2026-04-12T11:16:06.902Z</time></trkpt><trkpt lat="53.696393829340266" lon="14.70494383993242"><ele>30.75</ele><time>2026-04-12T11:16:07.902Z</time></trkpt><trkpt lat="53.69649661930789" lon="14.704809460843313"><ele>30.5</ele><time>2026-04-12T11:16:08.902Z</time></trkpt><trkpt lat="53.69660225195078" lon="14.704687633348712"><ele>30.25</ele><time>2026-04-12T11:16:09.902Z</time></trkpt><trkpt lat="53.696702730121864" lon="14.704575365113683"><ele>30.0</ele><time>2026-04-12T11:16:10.902Z</time></trkpt><trkpt lat="53.69678774032064" lon="14.704507820986214"><ele>29.5</ele><time>2026-04-12T11:16:11.902Z</time></trkpt><trkpt lat="53.696874840639005" lon="14.704393427632045"><ele>29.0</ele><time>2026-04-12T11:16:12.902Z</time></trkpt><trkpt lat="53.696966661831" lon="14.704284998030733"><ele>28.5</ele><time>2026-04-12T11:16:13.902Z</time></trkpt><trkpt lat="53.697075563976085" lon="14.704154788509745"><ele>28.0</ele><time>2026-04-12T11:16:14.902Z</time></trkpt><trkpt lat="53.697173538811185" lon="14.704035721201775"><ele>28.0</ele><time>2026-04-12T11:16:15.902Z</time></trkpt><trkpt lat="53.69726943585246" lon="14.703921940529067"><ele>27.999999999999996</ele><time>2026-04-12T11:16:16.902Z</time></trkpt><trkpt lat="53.69734954941306" lon="14.703841416027082"><ele>27.999999999999996</ele><time>2026-04-12T11:16:17.902Z</time></trkpt><trkpt lat="53.697415563636405" lon="14.703778548220447"><ele>28.0</ele><time>2026-04-12T11:16:18.902Z</time></trkpt><trkpt lat="53.69747216909159" lon="14.703718332190997"><ele>28.0</ele><time>2026-04-12T11:16:21.902Z</time></trkpt><trkpt lat="53.69758141199637" lon="14.703642864711755"><ele>28.000000000000004</ele><time>2026-04-12T11:16:23.902Z</time></trkpt><trkpt lat="53.69765109674508" lon="14.703588429355598"><ele>28.0</ele><time>2026-04-12T11:16:24.902Z</time></trkpt><trkpt lat="53.69771662607325" lon="14.703526478956883"><ele>28.0</ele><time>2026-04-12T11:16:25.902Z</time></trkpt><trkpt lat="53.69779351459913" lon="14.703422747657918"><ele>28.0</ele><time>2026-04-12T11:16:26.902Z</time></trkpt><trkpt lat="53.69787612448067" lon="14.70330097764071"><ele>28.000000000000004</ele><time>2026-04-12T11:16:28.903Z</time></trkpt><trkpt lat="53.69793990869749" lon="14.703218258023606"><ele>28.0</ele><time>2026-04-12T11:16:30.905Z</time></trkpt><trkpt lat="53.698020193562826" lon="14.703045727254139"><ele>28.4</ele><time>2026-04-12T11:17:11.919Z</time></trkpt><trkpt lat="53.69809036510353" lon="14.702934057918725"><ele>28.799999999999997</ele><time>2026-04-12T11:17:12.919Z</time></trkpt><trkpt lat="53.698151345942044" lon="14.70285324201652"><ele>29.2</ele><time>2026-04-12T11:17:13.919Z</time></trkpt><trkpt lat="53.698221220240164" lon="14.702748907848836"><ele>29.6</ele><time>2026-04-12T11:17:14.919Z</time></trkpt><trkpt lat="53.69829497969239" lon="14.702633946369076"><ele>30.0</ele><time>2026-04-12T11:17:15.919Z</time></trkpt><trkpt lat="53.698373223181584" lon="14.702500473533355"><ele>30.0</ele><time>2026-04-12T11:17:16.92Z</time></trkpt><trkpt lat="53.698442820399414" lon="14.702379089483887"><ele>30.0</ele><time>2026-04-12T11:17:17.92Z</time></trkpt><trkpt lat="53.698510076369125" lon="14.702264589365466"><ele>30.0</ele><time>2026-04-12T11:17:18.92Z</time></trkpt><trkpt lat="53.698571268777116" lon="14.70213236108954"><ele>30.0</ele><time>2026-04-12T11:17:19.92Z</time></trkpt><trkpt lat="53.6986443754217" lon="14.702010401518478"><ele>30.0</ele><time>2026-04-12T11:17:20.92Z</time></trkpt><trkpt lat="53.698731327846474" lon="14.701883784694433"><ele>29.5</ele><time>2026-04-12T11:17:21.92Z</time></trkpt><trkpt lat="53.698799768903896" lon="14.701754814704454"><ele>29.0</ele><time>2026-04-12T11:17:22.92Z</time></trkpt><trkpt lat="53.69887452172208" lon="14.701638980826955"><ele>28.5</ele><time>2026-04-12T11:17:23.92Z</time></trkpt><trkpt lat="53.69896044727873" lon="14.701493636925278"><ele>28.0</ele><time>2026-04-12T11:17:24.92Z</time></trkpt><trkpt lat="53.69910667600821" lon="14.701406179104426"><ele>28.0</ele><time>2026-04-12T11:17:25.92Z</time></trkpt><trkpt lat="53.69919330074338" lon="14.701256893356918"><ele>28.0</ele><time>2026-04-12T11:17:26.92Z</time></trkpt><trkpt lat="53.699278493150096" lon="14.701125029506036"><ele>28.0</ele><time>2026-04-12T11:17:27.92Z</time></trkpt><trkpt lat="53.69936319602041" lon="14.700992856886897"><ele>28.0</ele><time>2026-04-12T11:17:28.92Z</time></trkpt><trkpt lat="53.69946081398436" lon="14.700832155473991"><ele>27.75</ele><time>2026-04-12T11:17:29.92Z</time></trkpt><trkpt lat="53.69955927705925" lon="14.70066283312311"><ele>27.5</ele><time>2026-04-12T11:17:30.92Z</time></trkpt><trkpt lat="53.6996486770472" lon="14.700505861746986"><ele>27.25</ele><time>2026-04-12T11:17:31.92Z</time></trkpt><trkpt lat="53.699731343431694" lon="14.700360545943994"><ele>27.0</ele><time>2026-04-12T11:17:32.92Z</time></trkpt><trkpt lat="53.6998218905855" lon="14.700203542165166"><ele>26.5</ele><time>2026-04-12T11:17:33.92Z</time></trkpt><trkpt lat="53.6999028019235" lon="14.700052254684408"><ele>26.0</ele><time>2026-04-12T11:17:34.92Z</time></trkpt><trkpt lat="53.69998356085477" lon="14.69989356201818"><ele>25.5</ele><time>2026-04-12T11:17:35.92Z</time></trkpt><trkpt lat="53.70007477383096" lon="14.69977897785912"><ele>25.0</ele><time>2026-04-12T11:17:36.92Z</time></trkpt><trkpt lat="53.70015510453016" lon="14.699640923861466"><ele>25.0</ele><time>2026-04-12T11:17:37.92Z</time></trkpt><trkpt lat="53.70023151716703" lon="14.699511354933877"><ele>25.0</ele><time>2026-04-12T11:17:38.92Z</time></trkpt><trkpt lat="53.70031837310786" lon="14.69936975742295"><ele>25.0</ele><time>2026-04-12T11:17:39.92Z</time></trkpt><trkpt lat="53.700388711841164" lon="14.699278979542457"><ele>25.0</ele><time>2026-04-12T11:17:40.92Z</time></trkpt><trkpt lat="53.700475847289816" lon="14.699152329475822"><ele>25.0</ele><time>2026-04-12T11:17:41.92Z</time></trkpt><trkpt lat="53.700555483821944" lon="14.699009638548592"><ele>25.5</ele><time>2026-04-12T11:17:42.92Z</time></trkpt><trkpt lat="53.70065674583839" lon="14.698881397172693"><ele>26.0</ele><time>2026-04-12T11:17:43.92Z</time></trkpt><trkpt lat="53.70074098591041" lon="14.698730488749831"><ele>26.5</ele><time>2026-04-12T11:17:44.92Z</time></trkpt><trkpt lat="53.700839983305414" lon="14.698583853177002"><ele>27.0</ele><time>2026-04-12T11:17:45.92Z</time></trkpt><trkpt lat="53.70094685954383" lon="14.698446750541475"><ele>27.25</ele><time>2026-04-12T11:17:46.92Z</time></trkpt><trkpt lat="53.701028044786085" lon="14.698291570360169"><ele>27.5</ele><time>2026-04-12T11:17:47.919Z</time></trkpt><trkpt lat="53.70111187934036" lon="14.698130013963226"><ele>27.75</ele><time>2026-04-12T11:17:48.919Z</time></trkpt><trkpt lat="53.70119038850311" lon="14.697972761922934"><ele>28.0</ele><time>2026-04-12T11:17:49.919Z</time></trkpt><trkpt lat="53.701276928112996" lon="14.697822917499739"><ele>27.5</ele><time>2026-04-12T11:17:50.919Z</time></trkpt><trkpt lat="53.70136070614854" lon="14.697674213904321"><ele>27.0</ele><time>2026-04-12T11:17:51.918Z</time></trkpt><trkpt lat="53.70146300512543" lon="14.697549950565875"><ele>26.5</ele><time>2026-04-12T11:17:52.918Z</time></trkpt><trkpt lat="53.70153937558535" lon="14.69741226191705"><ele>26.0</ele><time>2026-04-12T11:17:53.918Z</time></trkpt><trkpt lat="53.70162677025513" lon="14.69727332293637"><ele>26.0</ele><time>2026-04-12T11:17:54.919Z</time></trkpt><trkpt lat="53.70171056271652" lon="14.697127898064574"><ele>26.0</ele><time>2026-04-12T11:17:55.919Z</time></trkpt><trkpt lat="53.70180658866821" lon="14.69696998605202"><ele>26.0</ele><time>2026-04-12T11:17:56.919Z</time></trkpt><trkpt lat="53.70189077801776" lon="14.696816077090038"><ele>26.0</ele><time>2026-04-12T11:17:57.918Z</time></trkpt><trkpt lat="53.70198062647736" lon="14.696654912936033"><ele>25.5</ele><time>2026-04-12T11:17:58.918Z</time></trkpt><trkpt lat="53.702085052650915" lon="14.696512691333302"><ele>25.0</ele><time>2026-04-12T11:17:59.918Z</time></trkpt><trkpt lat="53.70216554228872" lon="14.696358269296786"><ele>24.5</ele><time>2026-04-12T11:18:00.919Z</time></trkpt><trkpt lat="53.702247338566664" lon="14.696220936286586"><ele>24.0</ele><time>2026-04-12T11:18:01.919Z</time></trkpt><trkpt lat="53.70234396594247" lon="14.696065520508503"><ele>24.0</ele><time>2026-04-12T11:18:02.919Z</time></trkpt><trkpt lat="53.702450515971094" lon="14.695908321542248"><ele>24.0</ele><time>2026-04-12T11:18:03.919Z</time></trkpt><trkpt lat="53.70254032247386" lon="14.695762222926458"><ele>24.0</ele><time>2026-04-12T11:18:04.919Z</time></trkpt><trkpt lat="53.70265097163372" lon="14.695617902894192"><ele>24.0</ele><time>2026-04-12T11:18:05.919Z</time></trkpt><trkpt lat="53.70276095900064" lon="14.695492554925135"><ele>24.5</ele><time>2026-04-12T11:18:06.919Z</time></trkpt><trkpt lat="53.702875739155786" lon="14.695416517140206"><ele>25.0</ele><time>2026-04-12T11:18:07.919Z</time></trkpt><trkpt lat="53.70300821518967" lon="14.695306786814792"><ele>25.5</ele><time>2026-04-12T11:18:08.919Z</time></trkpt><trkpt lat="53.70315104887919" lon="14.695191307152541"><ele>26.0</ele><time>2026-04-12T11:18:09.919Z</time></trkpt><trkpt lat="53.703311383588755" lon="14.695062981433594"><ele>26.0</ele><time>2026-04-12T11:18:10.919Z</time></trkpt><trkpt lat="53.70348728563224" lon="14.694938176286147"><ele>26.0</ele><time>2026-04-12T11:18:11.919Z</time></trkpt><trkpt lat="53.703644400306914" lon="14.694826954448944"><ele>26.0</ele><time>2026-04-12T11:18:12.919Z</time></trkpt><trkpt lat="53.703779839677644" lon="14.694731093579922"><ele>25.0</ele><time>2026-04-12T11:18:13.919Z</time></trkpt><trkpt lat="53.70389705454838" lon="14.694632306131064"><ele>24.0</ele><time>2026-04-12T11:18:14.919Z</time></trkpt><trkpt lat="53.70400842581405" lon="14.694549453162152"><ele>23.0</ele><time>2026-04-12T11:18:15.919Z</time></trkpt><trkpt lat="53.70411191271899" lon="14.694480172042864"><ele>22.0</ele><time>2026-04-12T11:18:16.919Z</time></trkpt><trkpt lat="53.70421508099554" lon="14.694441984601722"><ele>22.400000000000002</ele><time>2026-04-12T11:18:17.919Z</time></trkpt><trkpt lat="53.704307864652634" lon="14.694388286954792"><ele>22.8</ele><time>2026-04-12T11:18:18.919Z</time></trkpt><trkpt lat="53.70438649058708" lon="14.69434096597478"><ele>23.2</ele><time>2026-04-12T11:18:19.919Z</time></trkpt><trkpt lat="53.70446681101261" lon="14.694272101845485"><ele>23.6</ele><time>2026-04-12T11:18:20.919Z</time></trkpt><trkpt lat="53.70458420785503" lon="14.694188476696523"><ele>24.0</ele><time>2026-04-12T11:18:21.919Z</time></trkpt><trkpt lat="53.704692763906685" lon="14.694100283179711"><ele>24.0</ele><time>2026-04-12T11:18:22.919Z</time></trkpt><trkpt lat="53.70480968041437" lon="14.694005629550093"><ele>24.0</ele><time>2026-04-12T11:18:23.919Z</time></trkpt><trkpt lat="53.70492415926122" lon="14.693958260858043"><ele>24.0</ele><time>2026-04-12T11:18:24.919Z</time></trkpt><trkpt lat="53.70503012296102" lon="14.69389026092081"><ele>24.0</ele><time>2026-04-12T11:18:25.919Z</time></trkpt><trkpt lat="53.70510580188316" lon="14.693824232388684"><ele>24.0</ele><time>2026-04-12T11:18:26.919Z</time></trkpt><trkpt lat="53.705201875023754" lon="14.693767937953313"><ele>24.0</ele><time>2026-04-12T11:18:27.919Z</time></trkpt><trkpt lat="53.705291235751275" lon="14.693712397398158"><ele>24.0</ele><time>2026-04-12T11:18:28.919Z</time></trkpt><trkpt lat="53.705365111216544" lon="14.69365657347472"><ele>24.0</ele><time>2026-04-12T11:18:29.919Z</time></trkpt><trkpt lat="53.70543186995562" lon="14.693609377765858"><ele>24.0</ele><time>2026-04-12T11:18:30.919Z</time></trkpt><trkpt lat="53.70553184740474" lon="14.69355126654285"><ele>24.0</ele><time>2026-04-12T11:18:31.919Z</time></trkpt><trkpt lat="53.705650527102165" lon="14.693554949910219"><ele>24.0</ele><time>2026-04-12T11:18:32.919Z</time></trkpt><trkpt lat="53.7057407347314" lon="14.69361207589333"><ele>24.0</ele><time>2026-04-12T11:18:33.919Z</time></trkpt><trkpt lat="53.70583380515747" lon="14.69363319255984"><ele>24.0</ele><time>2026-04-12T11:18:34.919Z</time></trkpt><trkpt lat="53.70592894787566" lon="14.69365477940815"><ele>24.0</ele><time>2026-04-12T11:18:35.919Z</time></trkpt><trkpt lat="53.70605943263156" lon="14.693395361952861"><ele>25.2</ele><time>2026-04-12T11:18:36.919Z</time></trkpt><trkpt lat="53.70616945502806" lon="14.693364537007689"><ele>26.4</ele><time>2026-04-12T11:18:37.919Z</time></trkpt><trkpt lat="53.706290325836086" lon="14.693347111828416"><ele>27.6</ele><time>2026-04-12T11:18:38.919Z</time></trkpt><trkpt lat="53.706386455970346" lon="14.693334705417426"><ele>28.8</ele><time>2026-04-12T11:18:39.919Z</time></trkpt><trkpt lat="53.70648320080285" lon="14.693314742980053"><ele>30.0</ele><time>2026-04-12T11:18:40.919Z</time></trkpt><trkpt lat="53.706592794554965" lon="14.69328012656774"><ele>30.0</ele><time>2026-04-12T11:18:41.919Z</time></trkpt><trkpt lat="53.7067061250749" lon="14.693251481365365"><ele>30.0</ele><time>2026-04-12T11:18:42.919Z</time></trkpt><trkpt lat="53.70682324796074" lon="14.69323135369761"><ele>30.0</ele><time>2026-04-12T11:18:43.919Z</time></trkpt><trkpt lat="53.70692847039925" lon="14.693224146006447"><ele>30.0</ele><time>2026-04-12T11:18:44.919Z</time></trkpt><trkpt lat="53.707032726727796" lon="14.693206069038565"><ele>30.0</ele><time>2026-04-12T11:18:45.919Z</time></trkpt><trkpt lat="53.7071368106941" lon="14.693181461882766"><ele>29.5</ele><time>2026-04-12T11:18:46.919Z</time></trkpt><trkpt lat="53.70722935975075" lon="14.693153024199065"><ele>29.0</ele><time>2026-04-12T11:18:47.919Z</time></trkpt><trkpt lat="53.70734740780161" lon="14.693123424570441"><ele>28.5</ele><time>2026-04-12T11:18:48.919Z</time></trkpt><trkpt lat="53.70746772755651" lon="14.693092141636642"><ele>28.0</ele><time>2026-04-12T11:18:49.919Z</time></trkpt><trkpt lat="53.70760697046682" lon="14.693075192719478"><ele>28.0</ele><time>2026-04-12T11:18:50.919Z</time></trkpt><trkpt lat="53.7077341238482" lon="14.693042533840027"><ele>28.0</ele><time>2026-04-12T11:18:51.919Z</time></trkpt><trkpt lat="53.7078653472736" lon="14.69301700223273"><ele>28.0</ele><time>2026-04-12T11:18:52.919Z</time></trkpt><trkpt lat="53.70800163693089" lon="14.692995378413043"><ele>28.0</ele><time>2026-04-12T11:18:53.919Z</time></trkpt><trkpt lat="53.708146268499874" lon="14.692974245770623"><ele>28.0</ele><time>2026-04-12T11:18:54.919Z</time></trkpt><trkpt lat="53.708283745944044" lon="14.6929538576551"><ele>28.0</ele><time>2026-04-12T11:18:55.919Z</time></trkpt><trkpt lat="53.708410081372854" lon="14.692932322900447"><ele>28.0</ele><time>2026-04-12T11:18:56.919Z</time></trkpt><trkpt lat="53.70852997340469" lon="14.692922921157235"><ele>28.0</ele><time>2026-04-12T11:18:57.919Z</time></trkpt><trkpt lat="53.70864467558115" lon="14.692902263769954"><ele>28.0</ele><time>2026-04-12T11:18:58.919Z</time></trkpt><trkpt lat="53.708786334260864" lon="14.692866285332995"><ele>28.0</ele><time>2026-04-12T11:18:59.919Z</time></trkpt><trkpt lat="53.70893204765944" lon="14.692845475337617"><ele>28.0</ele><time>2026-04-12T11:19:00.919Z</time></trkpt><trkpt lat="53.70907794761905" lon="14.692815295268515"><ele>28.0</ele><time>2026-04-12T11:19:01.919Z</time></trkpt><trkpt lat="53.70920362892873" lon="14.692790562239063"><ele>28.000000000000004</ele><time>2026-04-12T11:19:02.919Z</time></trkpt><trkpt lat="53.70930126862384" lon="14.692783283375265"><ele>28.0</ele><time>2026-04-12T11:19:03.919Z</time></trkpt><trkpt lat="53.70938696532728" lon="14.69275895666166"><ele>28.0</ele><time>2026-04-12T11:19:04.919Z</time></trkpt><trkpt lat="53.70946081866228" lon="14.692710939516619"><ele>28.0</ele><time>2026-04-12T11:19:05.919Z</time></trkpt><trkpt lat="53.709531543733874" lon="14.692649686792203"><ele>28.000000000000004</ele><time>2026-04-12T11:19:06.919Z</time></trkpt><trkpt lat="53.70962267073422" lon="14.692561322989613"><ele>28.0</ele><time>2026-04-12T11:19:07.919Z</time></trkpt><trkpt lat="53.709725593221556" lon="14.692444207506627"><ele>29.25</ele><time>2026-04-12T11:19:08.919Z</time></trkpt><trkpt lat="53.70984138502933" lon="14.692344327880948"><ele>30.5</ele><time>2026-04-12T11:19:09.919Z</time></trkpt><trkpt lat="53.70997493854408" lon="14.692250510849957"><ele>31.75</ele><time>2026-04-12T11:19:10.919Z</time></trkpt><trkpt lat="53.710086285320465" lon="14.692158476034047"><ele>33.0</ele><time>2026-04-12T11:19:11.919Z</time></trkpt><trkpt lat="53.710214115746275" lon="14.692069756710024"><ele>32.75</ele><time>2026-04-12T11:19:12.919Z</time></trkpt><trkpt lat="53.71034942292129" lon="14.691959077754515"><ele>32.5</ele><time>2026-04-12T11:19:13.919Z</time></trkpt><trkpt lat="53.710478295068796" lon="14.691877738892822"><ele>32.25</ele><time>2026-04-12T11:19:14.919Z</time></trkpt><trkpt lat="53.710585106678714" lon="14.691791855090104"><ele>32.0</ele><time>2026-04-12T11:19:15.919Z</time></trkpt><trkpt lat="53.71070816772747" lon="14.691731638577997"><ele>32.5</ele><time>2026-04-12T11:19:16.919Z</time></trkpt><trkpt lat="53.71084439617374" lon="14.691630650933371"><ele>33.0</ele><time>2026-04-12T11:19:17.919Z</time></trkpt><trkpt lat="53.71097516518688" lon="14.691537443192919"><ele>33.5</ele><time>2026-04-12T11:19:18.919Z</time></trkpt><trkpt lat="53.71109214943017" lon="14.691434100431021"><ele>34.0</ele><time>2026-04-12T11:19:19.919Z</time></trkpt><trkpt lat="53.71121996733366" lon="14.69136505638264"><ele>33.8</ele><time>2026-04-12T11:19:20.919Z</time></trkpt><trkpt lat="53.71132091785507" lon="14.69128055074863"><ele>33.599999999999994</ele><time>2026-04-12T11:19:21.919Z</time></trkpt><trkpt lat="53.71141559294889" lon="14.691206024151157"><ele>33.4</ele><time>2026-04-12T11:19:22.919Z</time></trkpt><trkpt lat="53.71150731577995" lon="14.691165398682486"><ele>33.199999999999996</ele><time>2026-04-12T11:19:23.919Z</time></trkpt><trkpt lat="53.71159868671197" lon="14.691068800365436"><ele>33.0</ele><time>2026-04-12T11:19:24.919Z</time></trkpt><trkpt lat="53.71173195417533" lon="14.690992086194147"><ele>33.0</ele><time>2026-04-12T11:19:25.919Z</time></trkpt><trkpt lat="53.71184540210155" lon="14.690903499301218"><ele>33.0</ele><time>2026-04-12T11:19:26.919Z</time></trkpt><trkpt lat="53.711958929964844" lon="14.690815011767445"><ele>33.0</ele><time>2026-04-12T11:19:27.919Z</time></trkpt><trkpt lat="53.71206284674788" lon="14.690737084081531"><ele>33.0</ele><time>2026-04-12T11:19:28.919Z</time></trkpt><trkpt lat="53.712152046460574" lon="14.690641579858566"><ele>32.4</ele><time>2026-04-12T11:19:29.919Z</time></trkpt><trkpt lat="53.71225040366629" lon="14.690576769625014"><ele>31.799999999999997</ele><time>2026-04-12T11:19:30.919Z</time></trkpt><trkpt lat="53.712336703157035" lon="14.690514971704046"><ele>31.2</ele><time>2026-04-12T11:19:31.919Z</time></trkpt><trkpt lat="53.712441826849556" lon="14.690475273580894"><ele>30.6</ele><time>2026-04-12T11:19:32.919Z</time></trkpt><trkpt lat="53.71254978603967" lon="14.690405581573813"><ele>30.0</ele><time>2026-04-12T11:19:33.919Z</time></trkpt><trkpt lat="53.71267000156412" lon="14.690293495075895"><ele>29.75</ele><time>2026-04-12T11:19:34.919Z</time></trkpt><trkpt lat="53.71278697218815" lon="14.69021905770377"><ele>29.5</ele><time>2026-04-12T11:19:35.919Z</time></trkpt><trkpt lat="53.71290176045682" lon="14.69013198511533"><ele>29.25</ele><time>2026-04-12T11:19:36.919Z</time></trkpt><trkpt lat="53.71300432313098" lon="14.690051953868892"><ele>29.0</ele><time>2026-04-12T11:19:37.919Z</time></trkpt><trkpt lat="53.71310399730444" lon="14.689972530293923"><ele>28.999999999999996</ele><time>2026-04-12T11:19:38.919Z</time></trkpt><trkpt lat="53.71319038756345" lon="14.689892061630484"><ele>29.0</ele><time>2026-04-12T11:19:39.919Z</time></trkpt><trkpt lat="53.71328661016149" lon="14.689841569440329"><ele>29.0</ele><time>2026-04-12T11:19:40.919Z</time></trkpt><trkpt lat="53.71334956954672" lon="14.689763492915324"><ele>29.0</ele><time>2026-04-12T11:19:41.919Z</time></trkpt><trkpt lat="53.71343031227446" lon="14.689697769970888"><ele>28.999999999999996</ele><time>2026-04-12T11:19:42.919Z</time></trkpt><trkpt lat="53.71350164401239" lon="14.68964131949581"><ele>29.0</ele><time>2026-04-12T11:19:43.919Z</time></trkpt><trkpt lat="53.7135778798037" lon="14.689598335146957"><ele>28.799999999999997</ele><time>2026-04-12T11:19:44.919Z</time></trkpt><trkpt lat="53.7136400580338" lon="14.689546694730945"><ele>28.599999999999998</ele><time>2026-04-12T11:19:45.919Z</time></trkpt><trkpt lat="53.71372425765304" lon="14.68947647769317"><ele>28.4</ele><time>2026-04-12T11:19:46.919Z</time></trkpt><trkpt lat="53.71380385836334" lon="14.689410730962672"><ele>28.2</ele><time>2026-04-12T11:19:47.919Z</time></trkpt><trkpt lat="53.71388354793365" lon="14.689321327155966"><ele>28.0</ele><time>2026-04-12T11:19:48.919Z</time></trkpt><trkpt lat="53.713986590386625" lon="14.689243401100258"><ele>28.0</ele><time>2026-04-12T11:19:49.919Z</time></trkpt><trkpt lat="53.71408669609203" lon="14.689159608021255"><ele>28.0</ele><time>2026-04-12T11:19:50.919Z</time></trkpt><trkpt lat="53.714188197679135" lon="14.689082087320905"><ele>28.0</ele><time>2026-04-12T11:19:51.919Z</time></trkpt><trkpt lat="53.71429804924656" lon="14.688996527243111"><ele>28.0</ele><time>2026-04-12T11:19:52.919Z</time></trkpt><trkpt lat="53.71440751478213" lon="14.688947551647459"><ele>27.833333333333336</ele><time>2026-04-12T11:19:53.917Z</time></trkpt><trkpt lat="53.7145075207292" lon="14.688878252345019"><ele>27.666666666666668</ele><time>2026-04-12T11:19:54.917Z</time></trkpt><trkpt lat="53.7145877548842" lon="14.688796690070633"><ele>27.5</ele><time>2026-04-12T11:19:55.917Z</time></trkpt><trkpt lat="53.714661034272794" lon="14.688774353614553"><ele>27.333333333333336</ele><time>2026-04-12T11:19:56.916Z</time></trkpt><trkpt lat="53.71471790290532" lon="14.688706851709906"><ele>27.166666666666668</ele><time>2026-04-12T11:19:57.916Z</time></trkpt><trkpt lat="53.714782250343035" lon="14.688669151847673"><ele>27.0</ele><time>2026-04-12T11:19:58.916Z</time></trkpt><trkpt lat="53.71484177528949" lon="14.688621579196479"><ele>27.5</ele><time>2026-04-12T11:19:59.917Z</time></trkpt><trkpt lat="53.714909844137736" lon="14.688574879884639"><ele>28.0</ele><time>2026-04-12T11:20:00.917Z</time></trkpt><trkpt lat="53.71498110495549" lon="14.68853133773264"><ele>28.5</ele><time>2026-04-12T11:20:01.917Z</time></trkpt><trkpt lat="53.71505146781532" lon="14.68850325677675"><ele>29.0</ele><time>2026-04-12T11:20:02.917Z</time></trkpt><trkpt lat="53.715125919113" lon="14.68844788730175"><ele>29.5</ele><time>2026-04-12T11:20:03.917Z</time></trkpt><trkpt lat="53.71520437368324" lon="14.688360770630473"><ele>30.0</ele><time>2026-04-12T11:20:04.917Z</time></trkpt><trkpt lat="53.715263020709116" lon="14.68831632528833"><ele>30.333333333333332</ele><time>2026-04-12T11:20:05.916Z</time></trkpt><trkpt lat="53.71533003587785" lon="14.688292752875126"><ele>30.666666666666664</ele><time>2026-04-12T11:20:07.916Z</time></trkpt><trkpt lat="53.71543322729912" lon="14.68821271562714"><ele>31.0</ele><time>2026-04-12T11:20:47.916Z</time></trkpt><trkpt lat="53.71549059180648" lon="14.688167963684176"><ele>31.333333333333332</ele><time>2026-04-12T11:20:48.916Z</time></trkpt><trkpt lat="53.715567841182875" lon="14.6881076904547"><ele>31.666666666666664</ele><time>2026-04-12T11:20:49.916Z</time></trkpt><trkpt lat="53.71564819753484" lon="14.688044945293436"><ele>32.0</ele><time>2026-04-12T11:20:50.916Z</time></trkpt><trkpt lat="53.71573459680231" lon="14.687977481599985"><ele>32.0</ele><time>2026-04-12T11:20:51.916Z</time></trkpt><trkpt lat="53.71581030221237" lon="14.68791862399213"><ele>32.0</ele><time>2026-04-12T11:20:52.916Z</time></trkpt><trkpt lat="53.715890071042" lon="14.687856649122038"><ele>32.0</ele><time>2026-04-12T11:20:53.916Z</time></trkpt><trkpt lat="53.71598415843974" lon="14.687784516620269"><ele>32.0</ele><time>2026-04-12T11:20:54.916Z</time></trkpt><trkpt lat="53.71606973585102" lon="14.68771996741026"><ele>32.0</ele><time>2026-04-12T11:20:55.916Z</time></trkpt><trkpt lat="53.71616550872037" lon="14.68764914886456"><ele>31.8</ele><time>2026-04-12T11:20:56.916Z</time></trkpt><trkpt lat="53.716264879490545" lon="14.687578557284711"><ele>31.6</ele><time>2026-04-12T11:20:57.916Z</time></trkpt><trkpt lat="53.716366026570086" lon="14.687509483375434"><ele>31.400000000000002</ele><time>2026-04-12T11:20:58.916Z</time></trkpt><trkpt lat="53.71645733147152" lon="14.68744476475901"><ele>31.200000000000003</ele><time>2026-04-12T11:20:59.916Z</time></trkpt><trkpt lat="53.71654942576209" lon="14.68737530852891"><ele>31.0</ele><time>2026-04-12T11:21:00.916Z</time></trkpt><trkpt lat="53.71664823967061" lon="14.68730020913562"><ele>31.000000000000004</ele><time>2026-04-12T11:21:01.916Z</time></trkpt><trkpt lat="53.7167312786362" lon="14.687236283879933"><ele>31.0</ele><time>2026-04-12T11:21:02.916Z</time></trkpt><trkpt lat="53.71680345693263" lon="14.6871807557255"><ele>31.0</ele><time>2026-04-12T11:21:03.916Z</time></trkpt><trkpt lat="53.71687962787188" lon="14.687121693742244"><ele>31.0</ele><time>2026-04-12T11:21:04.916Z</time></trkpt><trkpt lat="53.71695890307455" lon="14.687059311652886"><ele>31.000000000000004</ele><time>2026-04-12T11:21:05.916Z</time></trkpt><trkpt lat="53.717038931888936" lon="14.686996693559461"><ele>31.0</ele><time>2026-04-12T11:21:06.916Z</time></trkpt><trkpt lat="53.7171325027749" lon="14.686924271552124"><ele>31.4</ele><time>2026-04-12T11:21:07.916Z</time></trkpt><trkpt lat="53.71722173242643" lon="14.686855160481983"><ele>31.8</ele><time>2026-04-12T11:21:08.916Z</time></trkpt><trkpt lat="53.71730709422963" lon="14.686789105950433"><ele>32.199999999999996</ele><time>2026-04-12T11:21:09.916Z</time></trkpt><trkpt lat="53.71739732132235" lon="14.686719294031127"><ele>32.6</ele><time>2026-04-12T11:21:10.916Z</time></trkpt><trkpt lat="53.71747772016995" lon="14.68665733444336"><ele>33.0</ele><time>2026-04-12T11:21:11.916Z</time></trkpt><trkpt lat="53.7175717027633" lon="14.686585688808135"><ele>33.0</ele><time>2026-04-12T11:21:12.916Z</time></trkpt><trkpt lat="53.71765653356926" lon="14.686522110978743"><ele>33.0</ele><time>2026-04-12T11:21:13.916Z</time></trkpt><trkpt lat="53.71774143437701" lon="14.686459229054442"><ele>33.0</ele><time>2026-04-12T11:21:14.916Z</time></trkpt><trkpt lat="53.717833940172284" lon="14.686372496762568"><ele>33.0</ele><time>2026-04-12T11:21:15.916Z</time></trkpt><trkpt lat="53.71791855508674" lon="14.686306926884148"><ele>33.0</ele><time>2026-04-12T11:21:16.916Z</time></trkpt><trkpt lat="53.71801888864631" lon="14.686272146484157"><ele>32.8</ele><time>2026-04-12T11:21:17.916Z</time></trkpt><trkpt lat="53.718114709550335" lon="14.68621421180271"><ele>32.599999999999994</ele><time>2026-04-12T11:21:18.916Z</time></trkpt><trkpt lat="53.7182083471487" lon="14.686134900360571"><ele>32.400000000000006</ele><time>2026-04-12T11:21:19.916Z</time></trkpt><trkpt lat="53.71830935742848" lon="14.68609462025643"><ele>32.2</ele><time>2026-04-12T11:21:20.916Z</time></trkpt><trkpt lat="53.718404749559916" lon="14.68603256650524"><ele>32.0</ele><time>2026-04-12T11:21:21.916Z</time></trkpt><trkpt lat="53.718501191697094" lon="14.68595925739487"><ele>31.499999999999996</ele><time>2026-04-12T11:21:22.916Z</time></trkpt><trkpt lat="53.71858495207607" lon="14.68588481848321"><ele>31.0</ele><time>2026-04-12T11:21:23.916Z</time></trkpt><trkpt lat="53.71865065957564" lon="14.68581539493062"><ele>30.5</ele><time>2026-04-12T11:21:24.916Z</time></trkpt><trkpt lat="53.718718423133396" lon="14.685735223455229"><ele>30.0</ele><time>2026-04-12T11:21:25.916Z</time></trkpt><trkpt lat="53.71878251166785" lon="14.685653632524332"><ele>29.499999999999996</ele><time>2026-04-12T11:21:26.916Z</time></trkpt><trkpt lat="53.71885945133582" lon="14.685574902328561"><ele>29.0</ele><time>2026-04-12T11:21:27.916Z</time></trkpt><trkpt lat="53.718937824355145" lon="14.6854578552535"><ele>29.0</ele><time>2026-04-12T11:21:28.916Z</time></trkpt><trkpt lat="53.71903681840681" lon="14.685361126303563"><ele>29.0</ele><time>2026-04-12T11:21:29.916Z</time></trkpt><trkpt lat="53.71911433632871" lon="14.685296924109624"><ele>29.0</ele><time>2026-04-12T11:21:30.916Z</time></trkpt><trkpt lat="53.71922157466985" lon="14.685219007811893"><ele>29.0</ele><time>2026-04-12T11:21:31.916Z</time></trkpt><trkpt lat="53.719344516310855" lon="14.685137764684436"><ele>29.0</ele><time>2026-04-12T11:21:32.916Z</time></trkpt><trkpt lat="53.7194673938284" lon="14.685054990311638"><ele>29.0</ele><time>2026-04-12T11:21:33.916Z</time></trkpt><trkpt lat="53.71958773775606" lon="14.684942797844522"><ele>29.0</ele><time>2026-04-12T11:21:34.916Z</time></trkpt><trkpt lat="53.719710841205156" lon="14.684870140250379"><ele>29.0</ele><time>2026-04-12T11:21:35.916Z</time></trkpt><trkpt lat="53.71983906721082" lon="14.684767924902895"><ele>29.0</ele><time>2026-04-12T11:21:36.916Z</time></trkpt><trkpt lat="53.71997894875135" lon="14.684658808272394"><ele>29.0</ele><time>2026-04-12T11:21:37.916Z</time></trkpt><trkpt lat="53.72011770385672" lon="14.684577752146746"><ele>29.0</ele><time>2026-04-12T11:21:38.916Z</time></trkpt><trkpt lat="53.72023601852468" lon="14.684490298410305"><ele>29.0</ele><time>2026-04-12T11:21:39.916Z</time></trkpt><trkpt lat="53.72035973869325" lon="14.684398849100699"><ele>29.0</ele><time>2026-04-12T11:21:40.916Z</time></trkpt><trkpt lat="53.72049504225678" lon="14.684300459369952"><ele>29.25</ele><time>2026-04-12T11:21:41.916Z</time></trkpt><trkpt lat="53.72061915640507" lon="14.684210332027705"><ele>29.5</ele><time>2026-04-12T11:21:42.916Z</time></trkpt><trkpt lat="53.720737757651094" lon="14.68412345022201"><ele>29.75</ele><time>2026-04-12T11:21:43.916Z</time></trkpt><trkpt lat="53.72086078805406" lon="14.684030875438662"><ele>30.0</ele><time>2026-04-12T11:21:44.916Z</time></trkpt><trkpt lat="53.72096417720649" lon="14.683922932446611"><ele>27.75</ele><time>2026-04-12T11:21:45.916Z</time></trkpt><trkpt lat="53.721086571425964" lon="14.683831770482328"><ele>25.5</ele><time>2026-04-12T11:21:46.916Z</time></trkpt><trkpt lat="53.72118184570067" lon="14.683755410680284"><ele>23.25</ele><time>2026-04-12T11:21:47.916Z</time></trkpt><trkpt lat="53.721281498866865" lon="14.68367279578914"><ele>21.0</ele><time>2026-04-12T11:21:48.916Z</time></trkpt><trkpt lat="53.721382079571505" lon="14.683567418511982"><ele>21.0</ele><time>2026-04-12T11:21:49.916Z</time></trkpt><trkpt lat="53.7214879405245" lon="14.683476683205175"><ele>21.0</ele><time>2026-04-12T11:21:50.916Z</time></trkpt><trkpt lat="53.721596202426504" lon="14.683374417583673"><ele>21.0</ele><time>2026-04-12T11:21:51.916Z</time></trkpt><trkpt lat="53.721703674758196" lon="14.683274570112019"><ele>21.0</ele><time>2026-04-12T11:21:52.916Z</time></trkpt><trkpt lat="53.721824967306425" lon="14.683199493504723"><ele>22.5</ele><time>2026-04-12T11:21:53.916Z</time></trkpt><trkpt lat="53.7219220929585" lon="14.683091934847148"><ele>24.0</ele><time>2026-04-12T11:21:54.916Z</time></trkpt><trkpt lat="53.72203810030628" lon="14.683026006209323"><ele>25.5</ele><time>2026-04-12T11:21:55.916Z</time></trkpt><trkpt lat="53.722144440899235" lon="14.682917720787627"><ele>27.0</ele><time>2026-04-12T11:21:56.916Z</time></trkpt><trkpt lat="53.72226619543488" lon="14.682857930714452"><ele>27.0</ele><time>2026-04-12T11:21:57.916Z</time></trkpt><trkpt lat="53.722385033175726" lon="14.682776409670428"><ele>27.0</ele><time>2026-04-12T11:21:58.916Z</time></trkpt><trkpt lat="53.722499595664125" lon="14.682670065509145"><ele>27.0</ele><time>2026-04-12T11:21:59.915Z</time></trkpt><trkpt lat="53.72263293321839" lon="14.682609890611364"><ele>27.0</ele><time>2026-04-12T11:22:00.915Z</time></trkpt><trkpt lat="53.72275636235" lon="14.682503068838079"><ele>29.0</ele><time>2026-04-12T11:22:01.915Z</time></trkpt><trkpt lat="53.72288772417924" lon="14.682436020751172"><ele>31.0</ele><time>2026-04-12T11:22:02.915Z</time></trkpt><trkpt lat="53.72300750323766" lon="14.682353020097603"><ele>33.0</ele><time>2026-04-12T11:22:03.915Z</time></trkpt><trkpt lat="53.72311936327931" lon="14.682275803166037"><ele>35.0</ele><time>2026-04-12T11:22:04.915Z</time></trkpt><trkpt lat="53.72323056318257" lon="14.682178911999872"><ele>35.0</ele><time>2026-04-12T11:22:05.915Z</time></trkpt><trkpt lat="53.72335246080582" lon="14.682090993847995"><ele>35.0</ele><time>2026-04-12T11:22:06.915Z</time></trkpt><trkpt lat="53.7234837321377" lon="14.681993454807388"><ele>35.0</ele><time>2026-04-12T11:22:07.915Z</time></trkpt><trkpt lat="53.72359362423056" lon="14.68190964828428"><ele>35.0</ele><time>2026-04-12T11:22:08.915Z</time></trkpt><trkpt lat="53.723687537758636" lon="14.681834803219775"><ele>32.5</ele><time>2026-04-12T11:22:09.915Z</time></trkpt><trkpt lat="53.72380332503821" lon="14.681746283686678"><ele>30.0</ele><time>2026-04-12T11:22:10.915Z</time></trkpt><trkpt lat="53.7239318269462" lon="14.68164351908382"><ele>27.5</ele><time>2026-04-12T11:22:11.915Z</time></trkpt><trkpt lat="53.72408877037846" lon="14.681553314049252"><ele>25.0</ele><time>2026-04-12T11:22:12.915Z</time></trkpt><trkpt lat="53.72423572565548" lon="14.681441238811413"><ele>25.0</ele><time>2026-04-12T11:22:13.915Z</time></trkpt><trkpt lat="53.72437188769262" lon="14.68133909107593"><ele>25.0</ele><time>2026-04-12T11:22:14.915Z</time></trkpt><trkpt lat="53.72450822248678" lon="14.681237747869059"><ele>25.0</ele><time>2026-04-12T11:22:15.915Z</time></trkpt><trkpt lat="53.72464169578504" lon="14.681108414335796"><ele>24.5</ele><time>2026-04-12T11:22:16.915Z</time></trkpt><trkpt lat="53.724784733425345" lon="14.681031166958723"><ele>24.0</ele><time>2026-04-12T11:22:17.915Z</time></trkpt><trkpt lat="53.72490919167048" lon="14.68093641068901"><ele>23.5</ele><time>2026-04-12T11:22:18.915Z</time></trkpt><trkpt lat="53.72504558420216" lon="14.680832567554004"><ele>23.0</ele><time>2026-04-12T11:22:19.915Z</time></trkpt><trkpt lat="53.72518804430608" lon="14.680724105453367"><ele>23.75</ele><time>2026-04-12T11:22:20.915Z</time></trkpt><trkpt lat="53.72531933130677" lon="14.680623236228591"><ele>24.5</ele><time>2026-04-12T11:22:21.915Z</time></trkpt><trkpt lat="53.72544229208557" lon="14.680528675605593"><ele>25.25</ele><time>2026-04-12T11:22:22.915Z</time></trkpt><trkpt lat="53.72556247623921" lon="14.680437229476835"><ele>26.0</ele><time>2026-04-12T11:22:23.915Z</time></trkpt><trkpt lat="53.72569162079257" lon="14.680340128654535"><ele>26.5</ele><time>2026-04-12T11:22:24.915Z</time></trkpt><trkpt lat="53.72581080571357" lon="14.680250729480715"><ele>27.0</ele><time>2026-04-12T11:22:25.915Z</time></trkpt><trkpt lat="53.72592853774391" lon="14.68016318808823"><ele>27.5</ele><time>2026-04-12T11:22:26.915Z</time></trkpt><trkpt lat="53.72604597533706" lon="14.680076250006612"><ele>28.0</ele><time>2026-04-12T11:22:27.915Z</time></trkpt><trkpt lat="53.72618543482997" lon="14.679972843723188"><ele>28.5</ele><time>2026-04-12T11:22:28.915Z</time></trkpt><trkpt lat="53.726296417640754" lon="14.679870920952299"><ele>29.0</ele><time>2026-04-12T11:22:29.915Z</time></trkpt><trkpt lat="53.72641214827408" lon="14.679811309031267"><ele>29.5</ele><time>2026-04-12T11:22:30.915Z</time></trkpt><trkpt lat="53.72652273346375" lon="14.679742519050432"><ele>30.0</ele><time>2026-04-12T11:22:31.915Z</time></trkpt><trkpt lat="53.72663250410069" lon="14.679678154191008"><ele>30.0</ele><time>2026-04-12T11:22:32.915Z</time></trkpt><trkpt lat="53.726745674731625" lon="14.679618846120917"><ele>30.0</ele><time>2026-04-12T11:22:33.915Z</time></trkpt><trkpt lat="53.726863554313496" lon="14.679566133669535"><ele>30.0</ele><time>2026-04-12T11:22:34.915Z</time></trkpt><trkpt lat="53.72697351083986" lon="14.679484221912837"><ele>30.0</ele><time>2026-04-12T11:22:35.915Z</time></trkpt><trkpt lat="53.72703178839899" lon="14.679323419382534"><ele>28.25</ele><time>2026-04-12T11:22:36.915Z</time></trkpt><trkpt lat="53.72710909483817" lon="14.679208809628651"><ele>26.5</ele><time>2026-04-12T11:22:37.915Z</time></trkpt><trkpt lat="53.72724138403928" lon="14.679140826282353"><ele>24.75</ele><time>2026-04-12T11:22:38.915Z</time></trkpt><trkpt lat="53.727342363337605" lon="14.679020608189376"><ele>23.0</ele><time>2026-04-12T11:22:39.915Z</time></trkpt><trkpt lat="53.72745522728283" lon="14.678947970027563"><ele>23.0</ele><time>2026-04-12T11:22:40.915Z</time></trkpt><trkpt lat="53.72756387240071" lon="14.678857664486271"><ele>23.0</ele><time>2026-04-12T11:22:41.915Z</time></trkpt><trkpt lat="53.727651599580874" lon="14.678773297176424"><ele>23.0</ele><time>2026-04-12T11:22:42.915Z</time></trkpt><trkpt lat="53.7277398859617" lon="14.678695818464051"><ele>23.0</ele><time>2026-04-12T11:22:43.915Z</time></trkpt><trkpt lat="53.72785877581396" lon="14.678617378096323"><ele>23.0</ele><time>2026-04-12T11:22:44.915Z</time></trkpt><trkpt lat="53.72795147400626" lon="14.678504628895956"><ele>22.799999999999997</ele><time>2026-04-12T11:22:45.915Z</time></trkpt><trkpt lat="53.728039192115205" lon="14.678434843348853"><ele>22.6</ele><time>2026-04-12T11:22:46.915Z</time></trkpt><trkpt lat="53.72812733051658" lon="14.6783640123875"><ele>22.4</ele><time>2026-04-12T11:22:47.915Z</time></trkpt><trkpt lat="53.72819246364794" lon="14.678274008236167"><ele>22.200000000000003</ele><time>2026-04-12T11:22:48.915Z</time></trkpt><trkpt lat="53.72825732759844" lon="14.678180310443542"><ele>22.0</ele><time>2026-04-12T11:22:49.915Z</time></trkpt><trkpt lat="53.728335625923" lon="14.678072669528719"><ele>22.0</ele><time>2026-04-12T11:22:50.915Z</time></trkpt><trkpt lat="53.72842582709653" lon="14.677999770766839"><ele>22.0</ele><time>2026-04-12T11:22:51.915Z</time></trkpt><trkpt lat="53.72850175706278" lon="14.677945246370367"><ele>22.0</ele><time>2026-04-12T11:22:52.915Z</time></trkpt><trkpt lat="53.72858998539908" lon="14.67786863400904"><ele>22.0</ele><time>2026-04-12T11:22:53.915Z</time></trkpt><trkpt lat="53.72869828648004" lon="14.677781177231687"><ele>22.0</ele><time>2026-04-12T11:22:54.915Z</time></trkpt><trkpt lat="53.728795953506484" lon="14.677701232961372"><ele>22.0</ele><time>2026-04-12T11:22:55.915Z</time></trkpt><trkpt lat="53.72886676260809" lon="14.677628888354478"><ele>22.0</ele><time>2026-04-12T11:22:56.915Z</time></trkpt><trkpt lat="53.72896326319738" lon="14.677566071601312"><ele>22.0</ele><time>2026-04-12T11:22:57.915Z</time></trkpt><trkpt lat="53.72905465218355" lon="14.677483332422565"><ele>22.0</ele><time>2026-04-12T11:22:58.915Z</time></trkpt><trkpt lat="53.72913084529088" lon="14.677388683430987"><ele>22.0</ele><time>2026-04-12T11:22:59.915Z</time></trkpt><trkpt lat="53.729206453907636" lon="14.677345080604635"><ele>22.0</ele><time>2026-04-12T11:23:00.915Z</time></trkpt><trkpt lat="53.72927664077997" lon="14.67728024836314"><ele>22.0</ele><time>2026-04-12T11:23:01.915Z</time></trkpt><trkpt lat="53.729346901690775" lon="14.677188889111486"><ele>22.0</ele><time>2026-04-12T11:23:02.915Z</time></trkpt><trkpt lat="53.729436028561864" lon="14.67712273793333"><ele>22.0</ele><time>2026-04-12T11:23:03.915Z</time></trkpt><trkpt lat="53.729529105347424" lon="14.677044675139342"><ele>22.0</ele><time>2026-04-12T11:23:04.915Z</time></trkpt><trkpt lat="53.72961443346603" lon="14.676941028769583"><ele>21.8</ele><time>2026-04-12T11:23:05.915Z</time></trkpt><trkpt lat="53.72970664745621" lon="14.676828840896128"><ele>21.6</ele><time>2026-04-12T11:23:06.915Z</time></trkpt><trkpt lat="53.72980599709263" lon="14.676759405412959"><ele>21.400000000000002</ele><time>2026-04-12T11:23:07.915Z</time></trkpt><trkpt lat="53.72989357461412" lon="14.676691997101324"><ele>21.200000000000003</ele><time>2026-04-12T11:23:08.915Z</time></trkpt><trkpt lat="53.7299860194452" lon="14.67659226524362"><ele>21.0</ele><time>2026-04-12T11:23:09.915Z</time></trkpt><trkpt lat="53.73005145203832" lon="14.676523243413627"><ele>21.0</ele><time>2026-04-12T11:23:10.915Z</time></trkpt><trkpt lat="53.73012779201965" lon="14.676438525717451"><ele>21.0</ele><time>2026-04-12T11:23:11.915Z</time></trkpt><trkpt lat="53.73020450873434" lon="14.676357090333507"><ele>21.0</ele><time>2026-04-12T11:23:12.915Z</time></trkpt><trkpt lat="53.73028296554064" lon="14.676269496024698"><ele>21.0</ele><time>2026-04-12T11:23:13.915Z</time></trkpt><trkpt lat="53.73036256725725" lon="14.676196444955474"><ele>21.0</ele><time>2026-04-12T11:23:14.915Z</time></trkpt><trkpt lat="53.73044823837666" lon="14.676123017688859"><ele>20.75</ele><time>2026-04-12T11:23:15.915Z</time></trkpt><trkpt lat="53.730533849921756" lon="14.676051601406414"><ele>20.5</ele><time>2026-04-12T11:23:16.915Z</time></trkpt><trkpt lat="53.730648365995194" lon="14.675950292025268"><ele>20.25</ele><time>2026-04-12T11:23:17.915Z</time></trkpt><trkpt lat="53.730768885837215" lon="14.675827267200265"><ele>20.0</ele><time>2026-04-12T11:23:18.915Z</time></trkpt><trkpt lat="53.730901784970065" lon="14.675691212042457"><ele>20.0</ele><time>2026-04-12T11:23:19.915Z</time></trkpt><trkpt lat="53.7310235036898" lon="14.675572576153298"><ele>20.0</ele><time>2026-04-12T11:23:20.915Z</time></trkpt><trkpt lat="53.73114018318476" lon="14.67546019472075"><ele>20.0</ele><time>2026-04-12T11:23:21.915Z</time></trkpt><trkpt lat="53.73123522097527" lon="14.67538926048181"><ele>20.0</ele><time>2026-04-12T11:23:22.915Z</time></trkpt><trkpt lat="53.73133355960835" lon="14.67530189224155"><ele>20.25</ele><time>2026-04-12T11:23:23.915Z</time></trkpt><trkpt lat="53.731439646220174" lon="14.67520813110383"><ele>20.5</ele><time>2026-04-12T11:23:24.915Z</time></trkpt><trkpt lat="53.73152902041192" lon="14.675110678086437"><ele>20.75</ele><time>2026-04-12T11:23:25.915Z</time></trkpt><trkpt lat="53.73162837101938" lon="14.674979573636541"><ele>21.0</ele><time>2026-04-12T11:23:26.915Z</time></trkpt><trkpt lat="53.731737657800814" lon="14.674870252912738"><ele>21.0</ele><time>2026-04-12T11:23:27.915Z</time></trkpt><trkpt lat="53.73185273352727" lon="14.674763662944189"><ele>21.0</ele><time>2026-04-12T11:23:28.915Z</time></trkpt><trkpt lat="53.73196325367043" lon="14.674665569255863"><ele>21.0</ele><time>2026-04-12T11:23:29.915Z</time></trkpt><trkpt lat="53.732062853544086" lon="14.674569913769258"><ele>21.0</ele><time>2026-04-12T11:23:30.915Z</time></trkpt><trkpt lat="53.73214818667065" lon="14.674458538778932"><ele>20.6</ele><time>2026-04-12T11:23:31.915Z</time></trkpt><trkpt lat="53.73223094800384" lon="14.674363759012573"><ele>20.200000000000003</ele><time>2026-04-12T11:23:32.915Z</time></trkpt><trkpt lat="53.73233559421837" lon="14.674293633769324"><ele>19.799999999999997</ele><time>2026-04-12T11:23:33.915Z</time></trkpt><trkpt lat="53.732431795405766" lon="14.674206799471946"><ele>19.4</ele><time>2026-04-12T11:23:34.915Z</time></trkpt><trkpt lat="53.73252017126486" lon="14.67411488676842"><ele>19.0</ele><time>2026-04-12T11:23:35.915Z</time></trkpt><trkpt lat="53.73261412330652" lon="14.674007600114168"><ele>19.0</ele><time>2026-04-12T11:23:36.915Z</time></trkpt><trkpt lat="53.73271373088013" lon="14.673926684717323"><ele>19.0</ele><time>2026-04-12T11:23:37.915Z</time></trkpt><trkpt lat="53.73279843402511" lon="14.673838320573365"><ele>19.0</ele><time>2026-04-12T11:23:38.915Z</time></trkpt><trkpt lat="53.73289303969032" lon="14.67377172955249"><ele>19.0</ele><time>2026-04-12T11:23:39.915Z</time></trkpt><trkpt lat="53.733010151274314" lon="14.673683512254133"><ele>19.0</ele><time>2026-04-12T11:23:40.915Z</time></trkpt><trkpt lat="53.73311179205203" lon="14.673575054771357"><ele>18.75</ele><time>2026-04-12T11:23:41.915Z</time></trkpt><trkpt lat="53.73321098036517" lon="14.673478856749831"><ele>18.5</ele><time>2026-04-12T11:23:42.915Z</time></trkpt><trkpt lat="53.733318381952714" lon="14.673345417330559"><ele>18.25</ele><time>2026-04-12T11:23:43.915Z</time></trkpt><trkpt lat="53.73344396622432" lon="14.6731969067107"><ele>18.0</ele><time>2026-04-12T11:23:44.915Z</time></trkpt><trkpt lat="53.73357462331422" lon="14.673044839092341"><ele>18.0</ele><time>2026-04-12T11:23:45.915Z</time></trkpt><trkpt lat="53.733700948032315" lon="14.6729135115439"><ele>18.0</ele><time>2026-04-12T11:23:46.915Z</time></trkpt><trkpt lat="53.73379914200306" lon="14.672792094791381"><ele>18.0</ele><time>2026-04-12T11:23:47.915Z</time></trkpt><trkpt lat="53.733893714836356" lon="14.672664858893668"><ele>18.0</ele><time>2026-04-12T11:23:48.915Z</time></trkpt><trkpt lat="53.73398346466514" lon="14.672513261928176"><ele>17.8</ele><time>2026-04-12T11:23:49.915Z</time></trkpt><trkpt lat="53.73406222524326" lon="14.672368556346829"><ele>17.6</ele><time>2026-04-12T11:23:50.915Z</time></trkpt><trkpt lat="53.7341365412352" lon="14.672235129016299"><ele>17.4</ele><time>2026-04-12T11:23:51.915Z</time></trkpt><trkpt lat="53.73420860040001" lon="14.67211790641537"><ele>17.2</ele><time>2026-04-12T11:23:52.915Z</time></trkpt><trkpt lat="53.734264058076896" lon="14.67202222055495"><ele>17.0</ele><time>2026-04-12T11:23:53.915Z</time></trkpt><trkpt lat="53.73430631487881" lon="14.671935429602408"><ele>17.0</ele><time>2026-04-12T11:23:54.915Z</time></trkpt><trkpt lat="53.73436146505637" lon="14.671805010504176"><ele>17.0</ele><time>2026-04-12T11:23:56.915Z</time></trkpt><trkpt lat="53.73440572058406" lon="14.671668236121949"><ele>17.0</ele><time>2026-04-12T11:24:32.914Z</time></trkpt><trkpt lat="53.73446062926299" lon="14.67154955668692"><ele>17.0</ele><time>2026-04-12T11:24:33.914Z</time></trkpt><trkpt lat="53.73454776672733" lon="14.671476419397191"><ele>17.0</ele><time>2026-04-12T11:24:34.914Z</time></trkpt><trkpt lat="53.734601219910104" lon="14.67136789883371"><ele>17.0</ele><time>2026-04-12T11:24:35.914Z</time></trkpt><trkpt lat="53.73465418817797" lon="14.671260362472859"><ele>17.0</ele><time>2026-04-12T11:24:36.914Z</time></trkpt><trkpt lat="53.734710115015254" lon="14.671146551243629"><ele>17.0</ele><time>2026-04-12T11:24:37.914Z</time></trkpt><trkpt lat="53.734764396893084" lon="14.671035959566916"><ele>17.0</ele><time>2026-04-12T11:24:38.914Z</time></trkpt><trkpt lat="53.73480482169623" lon="14.67095359952538"><ele>17.0</ele><time>2026-04-12T11:24:39.914Z</time></trkpt><trkpt lat="53.73487157947634" lon="14.670817590098814"><ele>17.0</ele><time>2026-04-12T11:24:41.914Z</time></trkpt><trkpt lat="53.73494230527709" lon="14.670673495952569"><ele>17.0</ele><time>2026-04-12T11:24:43.914Z</time></trkpt><trkpt lat="53.735028294205364" lon="14.67053060283676"><ele>17.0</ele><time>2026-04-12T11:24:45.914Z</time></trkpt><trkpt lat="53.73518922412953" lon="14.670754485121172"><ele>17.0</ele><time>2026-04-12T11:24:47.914Z</time></trkpt><trkpt lat="53.735304692090814" lon="14.670871077857537"><ele>17.0</ele><time>2026-04-12T11:24:48.914Z</time></trkpt><trkpt lat="53.7353980443597" lon="14.670963796636356"><ele>17.0</ele><time>2026-04-12T11:24:49.914Z</time></trkpt><trkpt lat="53.735491639783575" lon="14.67100991321366"><ele>17.0</ele><time>2026-04-12T11:24:50.914Z</time></trkpt><trkpt lat="53.735592142200424" lon="14.671100771799809"><ele>17.0</ele><time>2026-04-12T11:24:51.914Z</time></trkpt><trkpt lat="53.73569374296444" lon="14.671187088747853"><ele>17.0</ele><time>2026-04-12T11:24:52.914Z</time></trkpt><trkpt lat="53.735780381003615" lon="14.67127990673933"><ele>17.0</ele><time>2026-04-12T11:24:53.914Z</time></trkpt><trkpt lat="53.73586356337993" lon="14.671343066814877"><ele>17.0</ele><time>2026-04-12T11:24:54.914Z</time></trkpt><trkpt lat="53.735934542383575" lon="14.671413186613014"><ele>17.0</ele><time>2026-04-12T11:24:55.914Z</time></trkpt><trkpt lat="53.736006118705646" lon="14.671461197489922"><ele>17.0</ele><time>2026-04-12T11:24:56.914Z</time></trkpt><trkpt lat="53.73606940419636" lon="14.671515127438035"><ele>17.0</ele><time>2026-04-12T11:24:57.914Z</time></trkpt><trkpt lat="53.736127621760524" lon="14.671587809967523"><ele>17.0</ele><time>2026-04-12T11:24:58.914Z</time></trkpt><trkpt lat="53.73616803110535" lon="14.671711497459794"><ele>17.0</ele><time>2026-04-12T11:24:59.914Z</time></trkpt><trkpt lat="53.73626704407727" lon="14.671772668701657"><ele>17.0</ele><time>2026-04-12T11:25:00.914Z</time></trkpt><trkpt lat="53.73633077917754" lon="14.671855493489238"><ele>17.0</ele><time>2026-04-12T11:25:01.914Z</time></trkpt><trkpt lat="53.736400414037064" lon="14.671953285457114"><ele>17.0</ele><time>2026-04-12T11:25:02.914Z</time></trkpt><trkpt lat="53.73646909165655" lon="14.672036128671227"><ele>17.0</ele><time>2026-04-12T11:25:03.914Z</time></trkpt><trkpt lat="53.73654514055503" lon="14.672089635252394"><ele>17.0</ele><time>2026-04-12T11:25:04.914Z</time></trkpt><trkpt lat="53.736600682729154" lon="14.672174570817138"><ele>17.0</ele><time>2026-04-12T11:25:05.914Z</time></trkpt><trkpt lat="53.73665775368658" lon="14.67225296276261"><ele>17.0</ele><time>2026-04-12T11:25:06.914Z</time></trkpt><trkpt lat="53.736709905705744" lon="14.672328825972416"><ele>17.0</ele><time>2026-04-12T11:25:07.914Z</time></trkpt><trkpt lat="53.73676686586888" lon="14.672419527604813"><ele>17.0</ele><time>2026-04-12T11:25:08.914Z</time></trkpt><trkpt lat="53.73683299659898" lon="14.67250654532728"><ele>17.0</ele><time>2026-04-12T11:25:09.914Z</time></trkpt><trkpt lat="53.73689725288286" lon="14.672593043928714"><ele>17.0</ele><time>2026-04-12T11:25:10.914Z</time></trkpt><trkpt lat="53.73699853129279" lon="14.67271746260025"><ele>17.25</ele><time>2026-04-12T11:25:11.914Z</time></trkpt><trkpt lat="53.737086982184216" lon="14.672830660837928"><ele>17.5</ele><time>2026-04-12T11:25:12.914Z</time></trkpt><trkpt lat="53.737170034628114" lon="14.672965070291065"><ele>17.75</ele><time>2026-04-12T11:25:13.914Z</time></trkpt><trkpt lat="53.73725152550813" lon="14.673088770676063"><ele>18.0</ele><time>2026-04-12T11:25:14.914Z</time></trkpt><trkpt lat="53.73735088423953" lon="14.673200375529818"><ele>18.0</ele><time>2026-04-12T11:25:15.914Z</time></trkpt><trkpt lat="53.73744938812678" lon="14.673330040028132"><ele>18.0</ele><time>2026-04-12T11:25:16.914Z</time></trkpt><trkpt lat="53.73753000452767" lon="14.673467258540814"><ele>18.0</ele><time>2026-04-12T11:25:17.914Z</time></trkpt><trkpt lat="53.73763764140205" lon="14.673553312158663"><ele>18.0</ele><time>2026-04-12T11:25:18.914Z</time></trkpt><trkpt lat="53.73771681243924" lon="14.673620228049643"><ele>18.0</ele><time>2026-04-12T11:25:19.914Z</time></trkpt><trkpt lat="53.737796970322734" lon="14.6737135265917"><ele>18.0</ele><time>2026-04-12T11:25:20.914Z</time></trkpt><trkpt lat="53.737864982034495" lon="14.673800604049793"><ele>18.0</ele><time>2026-04-12T11:25:21.914Z</time></trkpt><trkpt lat="53.73794251980427" lon="14.673910254727891"><ele>18.0</ele><time>2026-04-12T11:25:22.914Z</time></trkpt><trkpt lat="53.73800183884454" lon="14.67398728073398"><ele>18.0</ele><time>2026-04-12T11:25:23.914Z</time></trkpt><trkpt lat="53.738085475394755" lon="14.674061901660123"><ele>18.0</ele><time>2026-04-12T11:25:24.914Z</time></trkpt><trkpt lat="53.738195520768" lon="14.674098025258171"><ele>18.0</ele><time>2026-04-12T11:25:25.914Z</time></trkpt><trkpt lat="53.73829404330134" lon="14.674100828861942"><ele>18.0</ele><time>2026-04-12T11:25:26.914Z</time></trkpt><trkpt lat="53.738387944424524" lon="14.674138209582226"><ele>18.0</ele><time>2026-04-12T11:25:27.914Z</time></trkpt><trkpt lat="53.73849780598125" lon="14.674162352982886"><ele>18.0</ele><time>2026-04-12T11:25:28.914Z</time></trkpt><trkpt lat="53.738594917145825" lon="14.674187850752785"><ele>18.0</ele><time>2026-04-12T11:25:29.914Z</time></trkpt><trkpt lat="53.73871328709706" lon="14.674223636101093"><ele>18.2</ele><time>2026-04-12T11:25:30.914Z</time></trkpt><trkpt lat="53.738800042136795" lon="14.674260540551712"><ele>18.4</ele><time>2026-04-12T11:25:31.914Z</time></trkpt><trkpt lat="53.73890638221002" lon="14.674287105874587"><ele>18.599999999999998</ele><time>2026-04-12T11:25:32.914Z</time></trkpt><trkpt lat="53.739009350733866" lon="14.674343433373597"><ele>18.8</ele><time>2026-04-12T11:25:33.914Z</time></trkpt><trkpt lat="53.739106013352234" lon="14.674374294334665"><ele>19.0</ele><time>2026-04-12T11:25:34.914Z</time></trkpt><trkpt lat="53.73921742784776" lon="14.674388809725613"><ele>19.0</ele><time>2026-04-12T11:25:35.914Z</time></trkpt><trkpt lat="53.73932854975752" lon="14.674415474853353"><ele>19.0</ele><time>2026-04-12T11:25:36.914Z</time></trkpt><trkpt lat="53.73942840776577" lon="14.674443437215832"><ele>19.0</ele><time>2026-04-12T11:25:37.914Z</time></trkpt><trkpt lat="53.73953719205298" lon="14.67448002258325"><ele>19.0</ele><time>2026-04-12T11:25:38.914Z</time></trkpt><trkpt lat="53.73964675207145" lon="14.674512988765073"><ele>19.0</ele><time>2026-04-12T11:25:39.914Z</time></trkpt><trkpt lat="53.739751819213446" lon="14.674535408974274"><ele>18.75</ele><time>2026-04-12T11:25:40.914Z</time></trkpt><trkpt lat="53.739851756528886" lon="14.674558830024532"><ele>18.5</ele><time>2026-04-12T11:25:41.914Z</time></trkpt><trkpt lat="53.7399578724089" lon="14.674611453625479"><ele>18.25</ele><time>2026-04-12T11:25:42.914Z</time></trkpt><trkpt lat="53.74007841454506" lon="14.67464622627037"><ele>18.0</ele><time>2026-04-12T11:25:43.914Z</time></trkpt><trkpt lat="53.740202529864376" lon="14.674660266451978"><ele>18.4</ele><time>2026-04-12T11:25:44.914Z</time></trkpt><trkpt lat="53.74031448680096" lon="14.67469828944265"><ele>18.8</ele><time>2026-04-12T11:25:45.914Z</time></trkpt><trkpt lat="53.74041612988673" lon="14.674761924789438"><ele>19.2</ele><time>2026-04-12T11:25:46.914Z</time></trkpt><trkpt lat="53.740521385128766" lon="14.674777211830902"><ele>19.6</ele><time>2026-04-12T11:25:47.914Z</time></trkpt><trkpt lat="53.74061830189799" lon="14.67481750176752"><ele>20.0</ele><time>2026-04-12T11:25:48.914Z</time></trkpt><trkpt lat="53.74071194726528" lon="14.67488307742216"><ele>20.0</ele><time>2026-04-12T11:25:49.914Z</time></trkpt><trkpt lat="53.74081959785698" lon="14.674910460111375"><ele>20.0</ele><time>2026-04-12T11:25:50.914Z</time></trkpt><trkpt lat="53.74092401871803" lon="14.674944877989363"><ele>20.0</ele><time>2026-04-12T11:25:51.914Z</time></trkpt><trkpt lat="53.741010670785045" lon="14.674972326250057"><ele>20.0</ele><time>2026-04-12T11:25:52.914Z</time></trkpt><trkpt lat="53.741117138571035" lon="14.67499309724149"><ele>20.0</ele><time>2026-04-12T11:25:53.914Z</time></trkpt><trkpt lat="53.741222981765375" lon="14.675019771416686"><ele>20.0</ele><time>2026-04-12T11:25:54.914Z</time></trkpt><trkpt lat="53.74132363072841" lon="14.675093662967821"><ele>20.0</ele><time>2026-04-12T11:25:55.914Z</time></trkpt><trkpt lat="53.74144258952163" lon="14.675142010608402"><ele>20.0</ele><time>2026-04-12T11:25:56.914Z</time></trkpt><trkpt lat="53.74156660386133" lon="14.675196226017755"><ele>20.0</ele><time>2026-04-12T11:25:57.914Z</time></trkpt><trkpt lat="53.74169428700115" lon="14.675254648887796"><ele>20.2</ele><time>2026-04-12T11:25:58.913Z</time></trkpt><trkpt lat="53.74181231745247" lon="14.675288357106545"><ele>20.4</ele><time>2026-04-12T11:25:59.913Z</time></trkpt><trkpt lat="53.74191542551891" lon="14.675346750211864"><ele>20.6</ele><time>2026-04-12T11:26:00.913Z</time></trkpt><trkpt lat="53.74201963733847" lon="14.675383422971024"><ele>20.8</ele><time>2026-04-12T11:26:01.913Z</time></trkpt><trkpt lat="53.74210694111087" lon="14.675394100893012"><ele>21.0</ele><time>2026-04-12T11:26:02.913Z</time></trkpt><trkpt lat="53.742211604175466" lon="14.67544035455835"><ele>21.75</ele><time>2026-04-12T11:26:03.913Z</time></trkpt><trkpt lat="53.74231852837998" lon="14.675493114974108"><ele>22.5</ele><time>2026-04-12T11:26:04.913Z</time></trkpt><trkpt lat="53.742424927491484" lon="14.675549280313946"><ele>23.25</ele><time>2026-04-12T11:26:05.913Z</time></trkpt><trkpt lat="53.74254140948955" lon="14.675623490211795"><ele>24.0</ele><time>2026-04-12T11:26:06.913Z</time></trkpt><trkpt lat="53.74266057979032" lon="14.675705061412621"><ele>23.5</ele><time>2026-04-12T11:26:07.913Z</time></trkpt><trkpt lat="53.742780600941146" lon="14.675792952839167"><ele>23.0</ele><time>2026-04-12T11:26:08.913Z</time></trkpt><trkpt lat="53.74288719693492" lon="14.675880263088413"><ele>22.5</ele><time>2026-04-12T11:26:09.913Z</time></trkpt><trkpt lat="53.7429863798368" lon="14.675938425883693"><ele>22.0</ele><time>2026-04-12T11:26:10.913Z</time></trkpt><trkpt lat="53.74309132825339" lon="14.676014372654315"><ele>22.0</ele><time>2026-04-12T11:26:11.912Z</time></trkpt><trkpt lat="53.74320146728123" lon="14.676094960302038"><ele>22.0</ele><time>2026-04-12T11:26:12.912Z</time></trkpt><trkpt lat="53.743303989726556" lon="14.676165023609514"><ele>22.0</ele><time>2026-04-12T11:26:13.912Z</time></trkpt><trkpt lat="53.74341621223262" lon="14.67621857507663"><ele>22.0</ele><time>2026-04-12T11:26:14.911Z</time></trkpt><trkpt lat="53.74352672750381" lon="14.676309582210866"><ele>23.0</ele><time>2026-04-12T11:26:15.911Z</time></trkpt><trkpt lat="53.7436383226917" lon="14.67635215301444"><ele>24.0</ele><time>2026-04-12T11:26:16.911Z</time></trkpt><trkpt lat="53.74373303572843" lon="14.676418733309152"><ele>25.000000000000004</ele><time>2026-04-12T11:26:17.912Z</time></trkpt><trkpt lat="53.743821380042505" lon="14.67648384588475"><ele>26.0</ele><time>2026-04-12T11:26:18.911Z</time></trkpt><trkpt lat="53.743899305822694" lon="14.676545091399415"><ele>27.0</ele><time>2026-04-12T11:26:19.911Z</time></trkpt><trkpt lat="53.743973512290104" lon="14.676613325051298"><ele>27.0</ele><time>2026-04-12T11:26:20.912Z</time></trkpt><trkpt lat="53.744069324884045" lon="14.676638491986376"><ele>27.000000000000004</ele><time>2026-04-12T11:26:21.912Z</time></trkpt><trkpt lat="53.74416076404279" lon="14.676722523947001"><ele>27.000000000000004</ele><time>2026-04-12T11:26:22.912Z</time></trkpt><trkpt lat="53.74425348237712" lon="14.67679010076614"><ele>27.0</ele><time>2026-04-12T11:26:23.912Z</time></trkpt><trkpt lat="53.74434383934573" lon="14.676838009845184"><ele>27.0</ele><time>2026-04-12T11:26:24.912Z</time></trkpt><trkpt lat="53.744436089802676" lon="14.676838158804287"><ele>28.0</ele><time>2026-04-12T11:26:25.912Z</time></trkpt><trkpt lat="53.744519222371046" lon="14.676846996912952"><ele>29.0</ele><time>2026-04-12T11:26:26.912Z</time></trkpt><trkpt lat="53.74462180905329" lon="14.676929589157503"><ele>30.0</ele><time>2026-04-12T11:26:27.912Z</time></trkpt><trkpt lat="53.744748463629946" lon="14.677030031570999"><ele>31.0</ele><time>2026-04-12T11:26:28.912Z</time></trkpt><trkpt lat="53.74489761102964" lon="14.67712191757668"><ele>31.0</ele><time>2026-04-12T11:26:29.912Z</time></trkpt><trkpt lat="53.745024207961876" lon="14.677179260744051"><ele>31.0</ele><time>2026-04-12T11:26:30.912Z</time></trkpt><trkpt lat="53.74513826882634" lon="14.677208260377077"><ele>31.0</ele><time>2026-04-12T11:26:31.912Z</time></trkpt><trkpt lat="53.745241661846826" lon="14.67727484019512"><ele>31.0</ele><time>2026-04-12T11:26:32.912Z</time></trkpt><trkpt lat="53.74531998896351" lon="14.67732228145299"><ele>31.0</ele><time>2026-04-12T11:26:33.912Z</time></trkpt><trkpt lat="53.74541336633696" lon="14.677380883080941"><ele>31.200000000000003</ele><time>2026-04-12T11:26:34.912Z</time></trkpt><trkpt lat="53.74552612150895" lon="14.677412473316807"><ele>31.400000000000002</ele><time>2026-04-12T11:26:35.912Z</time></trkpt><trkpt lat="53.74564147294945" lon="14.67747683543473"><ele>31.6</ele><time>2026-04-12T11:26:36.912Z</time></trkpt><trkpt lat="53.74573320549918" lon="14.677518887293408"><ele>31.8</ele><time>2026-04-12T11:26:37.912Z</time></trkpt><trkpt lat="53.74581731227162" lon="14.677560884689534"><ele>32.0</ele><time>2026-04-12T11:26:38.912Z</time></trkpt><trkpt lat="53.74591569037568" lon="14.677607293635557"><ele>32.0</ele><time>2026-04-12T11:26:39.912Z</time></trkpt><trkpt lat="53.746016343218336" lon="14.677644976702613"><ele>32.0</ele><time>2026-04-12T11:26:40.912Z</time></trkpt><trkpt lat="53.746117049750566" lon="14.677665889728745"><ele>32.0</ele><time>2026-04-12T11:26:41.912Z</time></trkpt><trkpt lat="53.746229233781534" lon="14.677686055457567"><ele>32.0</ele><time>2026-04-12T11:26:42.912Z</time></trkpt><trkpt lat="53.74634050804092" lon="14.677741443072897"><ele>32.0</ele><time>2026-04-12T11:26:43.912Z</time></trkpt><trkpt lat="53.746445215522854" lon="14.677827359196701"><ele>32.0</ele><time>2026-04-12T11:26:44.912Z</time></trkpt><trkpt lat="53.74656003909147" lon="14.677932848052645"><ele>32.0</ele><time>2026-04-12T11:26:45.912Z</time></trkpt><trkpt lat="53.746664915003" lon="14.678035691420872"><ele>32.0</ele><time>2026-04-12T11:26:46.912Z</time></trkpt><trkpt lat="53.74677109599996" lon="14.678139258515957"><ele>32.0</ele><time>2026-04-12T11:26:47.912Z</time></trkpt><trkpt lat="53.746867185415354" lon="14.678218346329853"><ele>31.8</ele><time>2026-04-12T11:26:48.912Z</time></trkpt><trkpt lat="53.74696274167877" lon="14.678273885680397"><ele>31.6</ele><time>2026-04-12T11:26:49.912Z</time></trkpt><trkpt lat="53.74704805858283" lon="14.678364811479849"><ele>31.400000000000002</ele><time>2026-04-12T11:26:50.912Z</time></trkpt><trkpt lat="53.74712846416488" lon="14.67845826747366"><ele>31.200000000000003</ele><time>2026-04-12T11:26:51.912Z</time></trkpt><trkpt lat="53.74721920272433" lon="14.67856759538861"><ele>31.0</ele><time>2026-04-12T11:26:52.912Z</time></trkpt><trkpt lat="53.7473160349714" lon="14.678653091414597"><ele>30.75</ele><time>2026-04-12T11:26:53.912Z</time></trkpt><trkpt lat="53.74740286531451" lon="14.67874700784592"><ele>30.5</ele><time>2026-04-12T11:26:54.912Z</time></trkpt><trkpt lat="53.74748392450691" lon="14.678834992563372"><ele>30.25</ele><time>2026-04-12T11:26:55.912Z</time></trkpt><trkpt lat="53.74758705153031" lon="14.678961898397105"><ele>30.0</ele><time>2026-04-12T11:26:56.912Z</time></trkpt><trkpt lat="53.74769253073756" lon="14.679098771619826"><ele>29.75</ele><time>2026-04-12T11:26:57.912Z</time></trkpt><trkpt lat="53.747812191142934" lon="14.679232968669826"><ele>29.5</ele><time>2026-04-12T11:26:58.912Z</time></trkpt><trkpt lat="53.747921271069195" lon="14.679349546828558"><ele>29.25</ele><time>2026-04-12T11:26:59.912Z</time></trkpt><trkpt lat="53.74803141199558" lon="14.679466707093097"><ele>29.0</ele><time>2026-04-12T11:27:00.912Z</time></trkpt><trkpt lat="53.74811199871172" lon="14.679547793882522"><ele>26.75</ele><time>2026-04-12T11:27:01.912Z</time></trkpt><trkpt lat="53.748216527000416" lon="14.679673803761178"><ele>24.5</ele><time>2026-04-12T11:27:02.912Z</time></trkpt><trkpt lat="53.74832319701111" lon="14.679803654473961"><ele>22.25</ele><time>2026-04-12T11:27:03.912Z</time></trkpt><trkpt lat="53.74843274185254" lon="14.679907926292985"><ele>20.0</ele><time>2026-04-12T11:27:04.912Z</time></trkpt><trkpt lat="53.74852611173823" lon="14.680018510406908"><ele>19.75</ele><time>2026-04-12T11:27:05.912Z</time></trkpt><trkpt lat="53.74863736631344" lon="14.680168999489515"><ele>19.5</ele><time>2026-04-12T11:27:06.912Z</time></trkpt><trkpt lat="53.74875275094162" lon="14.680305917068516"><ele>19.25</ele><time>2026-04-12T11:27:07.912Z</time></trkpt><trkpt lat="53.74885361207118" lon="14.680429083399293"><ele>19.0</ele><time>2026-04-12T11:27:08.912Z</time></trkpt><trkpt lat="53.74895908961576" lon="14.680557500515613"><ele>19.0</ele><time>2026-04-12T11:27:09.912Z</time></trkpt><trkpt lat="53.749069033453594" lon="14.680677284425053"><ele>19.0</ele><time>2026-04-12T11:27:10.912Z</time></trkpt><trkpt lat="53.74919328682083" lon="14.680806355268851"><ele>19.0</ele><time>2026-04-12T11:27:11.912Z</time></trkpt><trkpt lat="53.74931019585788" lon="14.68092203128477"><ele>19.0</ele><time>2026-04-12T11:27:12.912Z</time></trkpt><trkpt lat="53.74942203078003" lon="14.68104044183642"><ele>19.25</ele><time>2026-04-12T11:27:13.912Z</time></trkpt><trkpt lat="53.74954588594306" lon="14.681155598319137"><ele>19.5</ele><time>2026-04-12T11:27:14.912Z</time></trkpt><trkpt lat="53.749655122712134" lon="14.681280701925985"><ele>19.75</ele><time>2026-04-12T11:27:15.912Z</time></trkpt><trkpt lat="53.749756667526285" lon="14.681371240155139"><ele>20.0</ele><time>2026-04-12T11:27:16.912Z</time></trkpt><trkpt lat="53.7498494512575" lon="14.681476870094592"><ele>20.0</ele><time>2026-04-12T11:27:17.912Z</time></trkpt><trkpt lat="53.74995323104481" lon="14.681598813053576"><ele>20.0</ele><time>2026-04-12T11:27:18.912Z</time></trkpt><trkpt lat="53.750061849206006" lon="14.68174935444328"><ele>20.0</ele><time>2026-04-12T11:27:19.912Z</time></trkpt><trkpt lat="53.75018487568274" lon="14.681891565617287"><ele>20.0</ele><time>2026-04-12T11:27:20.912Z</time></trkpt><trkpt lat="53.75032467280752" lon="14.682019228856614"><ele>20.25</ele><time>2026-04-12T11:27:21.912Z</time></trkpt><trkpt lat="53.750443642456744" lon="14.682170805706962"><ele>20.5</ele><time>2026-04-12T11:27:22.912Z</time></trkpt><trkpt lat="53.75056178493939" lon="14.682302447043797"><ele>20.75</ele><time>2026-04-12T11:27:23.912Z</time></trkpt><trkpt lat="53.75068077684235" lon="14.682441036559371"><ele>21.0</ele><time>2026-04-12T11:27:24.912Z</time></trkpt><trkpt lat="53.750799140380316" lon="14.682579713020779"><ele>21.0</ele><time>2026-04-12T11:27:25.912Z</time></trkpt><trkpt lat="53.75091896788717" lon="14.682741354261298"><ele>21.0</ele><time>2026-04-12T11:27:26.912Z</time></trkpt><trkpt lat="53.75104022148053" lon="14.68288193823781"><ele>21.0</ele><time>2026-04-12T11:27:27.912Z</time></trkpt><trkpt lat="53.751161646304965" lon="14.683022719905017"><ele>21.0</ele><time>2026-04-12T11:27:28.912Z</time></trkpt><trkpt lat="53.75126559098565" lon="14.6831425938773"><ele>22.25</ele><time>2026-04-12T11:27:29.912Z</time></trkpt><trkpt lat="53.751360787069544" lon="14.683253704023794"><ele>23.5</ele><time>2026-04-12T11:27:30.912Z</time></trkpt><trkpt lat="53.75146268131794" lon="14.683340138805857"><ele>24.75</ele><time>2026-04-12T11:27:31.912Z</time></trkpt><trkpt lat="53.751550611689595" lon="14.683442821652442"><ele>26.0</ele><time>2026-04-12T11:27:32.912Z</time></trkpt><trkpt lat="53.751647200238885" lon="14.68355708046436"><ele>26.0</ele><time>2026-04-12T11:27:33.912Z</time></trkpt><trkpt lat="53.75175381785724" lon="14.683682816127549"><ele>26.0</ele><time>2026-04-12T11:27:34.912Z</time></trkpt><trkpt lat="53.75186059633119" lon="14.683811723286384"><ele>26.0</ele><time>2026-04-12T11:27:35.912Z</time></trkpt><trkpt lat="53.75197616776329" lon="14.683938877645954"><ele>26.0</ele><time>2026-04-12T11:27:36.912Z</time></trkpt><trkpt lat="53.752081085196366" lon="14.684054584281297"><ele>27.75</ele><time>2026-04-12T11:27:37.912Z</time></trkpt><trkpt lat="53.75219150838048" lon="14.684165098209869"><ele>29.5</ele><time>2026-04-12T11:27:38.912Z</time></trkpt><trkpt lat="53.75230066038872" lon="14.684262356073804"><ele>31.25</ele><time>2026-04-12T11:27:39.912Z</time></trkpt><trkpt lat="53.75240456237041" lon="14.684353837869375"><ele>33.0</ele><time>2026-04-12T11:27:40.912Z</time></trkpt><trkpt lat="53.75248343739347" lon="14.684458996562245"><ele>33.0</ele><time>2026-04-12T11:27:41.912Z</time></trkpt><trkpt lat="53.75256755074092" lon="14.68455615317331"><ele>33.0</ele><time>2026-04-12T11:27:42.912Z</time></trkpt><trkpt lat="53.752648905688346" lon="14.684649945524885"><ele>33.0</ele><time>2026-04-12T11:27:43.912Z</time></trkpt><trkpt lat="53.75273686413241" lon="14.684729850195321"><ele>33.0</ele><time>2026-04-12T11:27:44.912Z</time></trkpt><trkpt lat="53.752806145156576" lon="14.684808050729234"><ele>33.0</ele><time>2026-04-12T11:27:45.912Z</time></trkpt><trkpt lat="53.752888087528454" lon="14.68490202043344"><ele>33.4</ele><time>2026-04-12T11:27:46.912Z</time></trkpt><trkpt lat="53.75296057206399" lon="14.685008052019125"><ele>33.8</ele><time>2026-04-12T11:27:47.912Z</time></trkpt><trkpt lat="53.7530523098761" lon="14.685112268276653"><ele>34.2</ele><time>2026-04-12T11:27:48.912Z</time></trkpt><trkpt lat="53.75314755001553" lon="14.685187274238793"><ele>34.6</ele><time>2026-04-12T11:27:49.912Z</time></trkpt><trkpt lat="53.75320911444127" lon="14.68528799147739"><ele>35.0</ele><time>2026-04-12T11:27:50.912Z</time></trkpt><trkpt lat="53.75330715217785" lon="14.6853659475704"><ele>33.8</ele><time>2026-04-12T11:27:51.912Z</time></trkpt><trkpt lat="53.75336277341566" lon="14.685457439661826"><ele>32.6</ele><time>2026-04-12T11:27:52.912Z</time></trkpt><trkpt lat="53.75344660706458" lon="14.685516229272842"><ele>31.4</ele><time>2026-04-12T11:27:53.912Z</time></trkpt><trkpt lat="53.75354102117197" lon="14.68562848207504"><ele>30.2</ele><time>2026-04-12T11:27:54.912Z</time></trkpt><trkpt lat="53.753641013228865" lon="14.685735176128917"><ele>29.0</ele><time>2026-04-12T11:27:55.912Z</time></trkpt><trkpt lat="53.753760017026956" lon="14.685853664248738"><ele>27.5</ele><time>2026-04-12T11:27:56.912Z</time></trkpt><trkpt lat="53.75386287846326" lon="14.685997436836443"><ele>26.0</ele><time>2026-04-12T11:27:57.912Z</time></trkpt><trkpt lat="53.75398449374133" lon="14.686108387916963"><ele>24.5</ele><time>2026-04-12T11:27:58.912Z</time></trkpt><trkpt lat="53.75409155970005" lon="14.68622340122752"><ele>23.0</ele><time>2026-04-12T11:27:59.912Z</time></trkpt><trkpt lat="53.754202231366186" lon="14.68634028202489"><ele>23.0</ele><time>2026-04-12T11:28:00.912Z</time></trkpt><trkpt lat="53.75431183114632" lon="14.686457429025037"><ele>23.0</ele><time>2026-04-12T11:28:01.912Z</time></trkpt><trkpt lat="53.754402782027014" lon="14.686592583731864"><ele>23.0</ele><time>2026-04-12T11:28:02.912Z</time></trkpt><trkpt lat="53.75452413331899" lon="14.686702888020157"><ele>23.0</ele><time>2026-04-12T11:28:03.912Z</time></trkpt><trkpt lat="53.754626943697694" lon="14.686822201164224"><ele>22.599999999999998</ele><time>2026-04-12T11:28:04.912Z</time></trkpt><trkpt lat="53.75472630280694" lon="14.686938959533244"><ele>22.2</ele><time>2026-04-12T11:28:05.912Z</time></trkpt><trkpt lat="53.75481568429613" lon="14.687040104891494"><ele>21.8</ele><time>2026-04-12T11:28:06.912Z</time></trkpt><trkpt lat="53.754893117207615" lon="14.687136078140586"><ele>21.4</ele><time>2026-04-12T11:28:07.912Z</time></trkpt><trkpt lat="53.75498833514716" lon="14.687212159540515"><ele>21.0</ele><time>2026-04-12T11:28:08.912Z</time></trkpt><trkpt lat="53.755092423056674" lon="14.687261972056547"><ele>21.0</ele><time>2026-04-12T11:28:09.912Z</time></trkpt><trkpt lat="53.755176602192726" lon="14.687285029527356"><ele>21.0</ele><time>2026-04-12T11:28:10.912Z</time></trkpt><trkpt lat="53.755245629414475" lon="14.687321688408748"><ele>21.0</ele><time>2026-04-12T11:28:11.912Z</time></trkpt><trkpt lat="53.755365430177896" lon="14.687410832241996"><ele>21.0</ele><time>2026-04-12T11:28:12.912Z</time></trkpt><trkpt lat="53.75548364978041" lon="14.687513911146022"><ele>21.0</ele><time>2026-04-12T11:28:13.912Z</time></trkpt><trkpt lat="53.755584638901915" lon="14.687628773645834"><ele>20.25</ele><time>2026-04-12T11:28:14.912Z</time></trkpt><trkpt lat="53.755679334496406" lon="14.68773883632973"><ele>19.5</ele><time>2026-04-12T11:28:15.912Z</time></trkpt><trkpt lat="53.755774551039195" lon="14.687845635020444"><ele>18.75</ele><time>2026-04-12T11:28:16.912Z</time></trkpt><trkpt lat="53.75588302225874" lon="14.687958403782174"><ele>18.0</ele><time>2026-04-12T11:28:17.911Z</time></trkpt><trkpt lat="53.755993068686045" lon="14.688058014702442"><ele>18.0</ele><time>2026-04-12T11:28:18.91Z</time></trkpt><trkpt lat="53.756109282705005" lon="14.68815153176946"><ele>18.0</ele><time>2026-04-12T11:28:19.91Z</time></trkpt><trkpt lat="53.75623695074551" lon="14.688248310157228"><ele>18.0</ele><time>2026-04-12T11:28:20.911Z</time></trkpt><trkpt lat="53.756375999097365" lon="14.68835107253635"><ele>18.0</ele><time>2026-04-12T11:28:21.91Z</time></trkpt><trkpt lat="53.75650291013064" lon="14.688442831050233"><ele>18.0</ele><time>2026-04-12T11:28:22.91Z</time></trkpt><trkpt lat="53.75661690739463" lon="14.688525929196858"><ele>18.0</ele><time>2026-04-12T11:28:23.91Z</time></trkpt><trkpt lat="53.756727547061715" lon="14.688607711789643"><ele>18.0</ele><time>2026-04-12T11:28:24.911Z</time></trkpt><trkpt lat="53.756848735711635" lon="14.688701637135004"><ele>18.0</ele><time>2026-04-12T11:28:25.911Z</time></trkpt><trkpt lat="53.756969896508885" lon="14.68880196675973"><ele>17.5</ele><time>2026-04-12T11:28:26.91Z</time></trkpt><trkpt lat="53.75708863386308" lon="14.688892071915966"><ele>17.0</ele><time>2026-04-12T11:28:27.91Z</time></trkpt><trkpt lat="53.75719835236458" lon="14.688980791079922"><ele>16.5</ele><time>2026-04-12T11:28:28.91Z</time></trkpt><trkpt lat="53.75730376028754" lon="14.68907383160556"><ele>16.0</ele><time>2026-04-12T11:28:29.91Z</time></trkpt><trkpt lat="53.75743454407213" lon="14.68921088910982"><ele>16.0</ele><time>2026-04-12T11:28:30.91Z</time></trkpt><trkpt lat="53.757572845231735" lon="14.689301298468019"><ele>16.0</ele><time>2026-04-12T11:28:31.91Z</time></trkpt><trkpt lat="53.75770640820481" lon="14.689420056503115"><ele>16.0</ele><time>2026-04-12T11:28:32.91Z</time></trkpt><trkpt lat="53.75782503344013" lon="14.689553849843136"><ele>16.0</ele><time>2026-04-12T11:28:33.91Z</time></trkpt><trkpt lat="53.75795445860484" lon="14.689639085003227"><ele>15.75</ele><time>2026-04-12T11:28:34.91Z</time></trkpt><trkpt lat="53.75807174713489" lon="14.689745056680414"><ele>15.5</ele><time>2026-04-12T11:28:35.91Z</time></trkpt><trkpt lat="53.758173127312226" lon="14.689841160316549"><ele>15.25</ele><time>2026-04-12T11:28:36.91Z</time></trkpt><trkpt lat="53.758283214173055" lon="14.689935606237889"><ele>15.0</ele><time>2026-04-12T11:28:37.91Z</time></trkpt><trkpt lat="53.758394252423614" lon="14.690034317394604"><ele>15.0</ele><time>2026-04-12T11:28:38.91Z</time></trkpt><trkpt lat="53.758505255580324" lon="14.690124580109236"><ele>15.0</ele><time>2026-04-12T11:28:39.91Z</time></trkpt><trkpt lat="53.75861516032316" lon="14.690239540431293"><ele>15.0</ele><time>2026-04-12T11:28:40.91Z</time></trkpt><trkpt lat="53.758739172544175" lon="14.690311806767792"><ele>15.0</ele><time>2026-04-12T11:28:41.91Z</time></trkpt><trkpt lat="53.75885266161347" lon="14.690436080442073"><ele>15.25</ele><time>2026-04-12T11:28:42.91Z</time></trkpt><trkpt lat="53.75897359326035" lon="14.690511789074904"><ele>15.5</ele><time>2026-04-12T11:28:43.91Z</time></trkpt><trkpt lat="53.75908799998131" lon="14.69061625282441"><ele>15.75</ele><time>2026-04-12T11:28:44.91Z</time></trkpt><trkpt lat="53.75920861857942" lon="14.690702168288079"><ele>16.0</ele><time>2026-04-12T11:28:45.91Z</time></trkpt><trkpt lat="53.759311991304585" lon="14.690818393137059"><ele>15.8</ele><time>2026-04-12T11:28:46.91Z</time></trkpt><trkpt lat="53.75940695706918" lon="14.690930511780588"><ele>15.600000000000001</ele><time>2026-04-12T11:28:47.91Z</time></trkpt><trkpt lat="53.75951445772221" lon="14.6910294662695"><ele>15.4</ele><time>2026-04-12T11:28:48.91Z</time></trkpt><trkpt lat="53.75959337380105" lon="14.691133575267079"><ele>15.2</ele><time>2026-04-12T11:28:49.91Z</time></trkpt><trkpt lat="53.75968269241481" lon="14.691239485782255"><ele>15.0</ele><time>2026-04-12T11:28:50.91Z</time></trkpt><trkpt lat="53.75977316128842" lon="14.691351355377446"><ele>15.0</ele><time>2026-04-12T11:28:51.91Z</time></trkpt><trkpt lat="53.759847017385326" lon="14.691420083001354"><ele>15.0</ele><time>2026-04-12T11:28:52.91Z</time></trkpt><trkpt lat="53.759924630812975" lon="14.691479267945786"><ele>15.0</ele><time>2026-04-12T11:28:53.91Z</time></trkpt><trkpt lat="53.76002418474325" lon="14.691574812104701"><ele>15.0</ele><time>2026-04-12T11:28:55.91Z</time></trkpt><trkpt lat="53.76009545373161" lon="14.691608475856363"><ele>15.0</ele><time>2026-04-12T11:28:57.91Z</time></trkpt><trkpt lat="53.760169400992496" lon="14.6917603448823"><ele>14.833333333333334</ele><time>2026-04-12T11:28:59.91Z</time></trkpt><trkpt lat="53.76020761760383" lon="14.691855234904223"><ele>14.666666666666668</ele><time>2026-04-12T11:29:00.91Z</time></trkpt><trkpt lat="53.760280285289916" lon="14.69197576617375"><ele>14.5</ele><time>2026-04-12T11:29:02.91Z</time></trkpt><trkpt lat="53.760351602265594" lon="14.692094820443002"><ele>14.333333333333334</ele><time>2026-04-12T11:29:04.91Z</time></trkpt><trkpt lat="53.76040002732807" lon="14.692166027124491"><ele>14.166666666666668</ele><time>2026-04-12T11:29:05.91Z</time></trkpt><trkpt lat="53.76044438365488" lon="14.692247803420909"><ele>14.0</ele><time>2026-04-12T11:29:06.91Z</time></trkpt><trkpt lat="53.76052116048493" lon="14.692401421375697"><ele>13.799999999999999</ele><time>2026-04-12T11:29:08.91Z</time></trkpt><trkpt lat="53.76056429440217" lon="14.692482383751907"><ele>13.599999999999998</ele><time>2026-04-12T11:29:09.91Z</time></trkpt><trkpt lat="53.760607308505634" lon="14.692562123455287"><ele>13.4</ele><time>2026-04-12T11:29:10.91Z</time></trkpt><trkpt lat="53.760679752984146" lon="14.692729982204417"><ele>13.2</ele><time>2026-04-12T11:29:12.91Z</time></trkpt><trkpt lat="53.760740864116016" lon="14.6928823509245"><ele>13.0</ele><time>2026-04-12T11:29:14.91Z</time></trkpt><trkpt lat="53.76079378591892" lon="14.693016984369267"><ele>13.0</ele><time>2026-04-12T11:29:16.91Z</time></trkpt><trkpt lat="53.760838461797185" lon="14.693139001337935"><ele>13.0</ele><time>2026-04-12T11:29:18.91Z</time></trkpt><trkpt lat="53.760881197229395" lon="14.693309776386604"><ele>13.0</ele><time>2026-04-12T11:29:20.91Z</time></trkpt><trkpt lat="53.76094456839702" lon="14.693499242128143"><ele>13.0</ele><time>2026-04-12T11:29:22.91Z</time></trkpt><trkpt lat="53.76097754402831" lon="14.69359612151481"><ele>13.0</ele><time>2026-04-12T11:29:23.91Z</time></trkpt><trkpt lat="53.761027428700025" lon="14.693761367981672"><ele>12.8</ele><time>2026-04-12T11:29:25.91Z</time></trkpt><trkpt lat="53.7610761396786" lon="14.693906104834719"><ele>12.600000000000001</ele><time>2026-04-12T11:29:27.91Z</time></trkpt><trkpt lat="53.76111703599793" lon="14.694057916695998"><ele>12.399999999999999</ele><time>2026-04-12T11:29:29.91Z</time></trkpt><trkpt lat="53.76114928439542" lon="14.694221649842794"><ele>12.2</ele><time>2026-04-12T11:29:31.91Z</time></trkpt><trkpt lat="53.761168328464464" lon="14.69432647482859"><ele>12.0</ele><time>2026-04-12T11:29:32.91Z</time></trkpt><trkpt lat="53.76119756574778" lon="14.69451380237718"><ele>12.6</ele><time>2026-04-12T11:29:34.91Z</time></trkpt><trkpt lat="53.76122280122001" lon="14.694671631096046"><ele>13.2</ele><time>2026-04-12T11:29:36.91Z</time></trkpt><trkpt lat="53.76124540565111" lon="14.694853629935723"><ele>13.8</ele><time>2026-04-12T11:29:38.91Z</time></trkpt><trkpt lat="53.76125983941113" lon="14.694959613062773"><ele>14.4</ele><time>2026-04-12T11:29:39.91Z</time></trkpt><trkpt lat="53.76127505931874" lon="14.695069706754403"><ele>15.0</ele><time>2026-04-12T11:29:40.91Z</time></trkpt><trkpt lat="53.76130300102893" lon="14.695261090106307"><ele>15.0</ele><time>2026-04-12T11:29:42.91Z</time></trkpt><trkpt lat="53.761326740186696" lon="14.69545849545398"><ele>15.0</ele><time>2026-04-12T11:29:44.91Z</time></trkpt><trkpt lat="53.761332426581426" lon="14.69557860883686"><ele>15.0</ele><time>2026-04-12T11:29:45.91Z</time></trkpt><trkpt lat="53.76133970500959" lon="14.69569900542621"><ele>15.0</ele><time>2026-04-12T11:29:46.91Z</time></trkpt><trkpt lat="53.76133077838178" lon="14.695869628911662"><ele>15.0</ele><time>2026-04-12T11:29:48.91Z</time></trkpt><trkpt lat="53.7613416955154" lon="14.69600140420144"><ele>15.0</ele><time>2026-04-12T11:29:52.91Z</time></trkpt><trkpt lat="53.761611756972925" lon="14.696077769436222"><ele>15.0</ele><time>2026-04-12T11:29:55.91Z</time></trkpt><trkpt lat="53.761702010842384" lon="14.69597073528408"><ele>15.0</ele><time>2026-04-12T11:29:57.91Z</time></trkpt><trkpt lat="53.76175268489142" lon="14.695902611404225"><ele>15.0</ele><time>2026-04-12T11:29:58.91Z</time></trkpt><trkpt lat="53.76178726337809" lon="14.695783157465353"><ele>15.0</ele><time>2026-04-12T11:29:59.91Z</time></trkpt><trkpt lat="53.76185170780542" lon="14.695693532082519"><ele>15.0</ele><time>2026-04-12T11:30:00.91Z</time></trkpt><trkpt lat="53.76191063360605" lon="14.695571072388528"><ele>15.0</ele><time>2026-04-12T11:30:01.91Z</time></trkpt><trkpt lat="53.76195913116628" lon="14.69547028461772"><ele>14.833333333333334</ele><time>2026-04-12T11:30:02.91Z</time></trkpt><trkpt lat="53.76200854790034" lon="14.695368249816287"><ele>14.666666666666668</ele><time>2026-04-12T11:30:03.91Z</time></trkpt><trkpt lat="53.76205656748054" lon="14.695261866871311"><ele>14.5</ele><time>2026-04-12T11:30:04.91Z</time></trkpt><trkpt lat="53.762101020241644" lon="14.69516338614286"><ele>14.333333333333334</ele><time>2026-04-12T11:30:05.91Z</time></trkpt><trkpt lat="53.76215007693223" lon="14.695066813674629"><ele>14.166666666666668</ele><time>2026-04-12T11:30:06.91Z</time></trkpt><trkpt lat="53.762217394295895" lon="14.694963165643669"><ele>14.0</ele><time>2026-04-12T11:30:07.91Z</time></trkpt><trkpt lat="53.762285393422246" lon="14.69488012027943"><ele>14.0</ele><time>2026-04-12T11:30:08.91Z</time></trkpt><trkpt lat="53.7623774118049" lon="14.694784727488582"><ele>13.999999999999998</ele><time>2026-04-12T11:30:09.91Z</time></trkpt><trkpt lat="53.762457878749316" lon="14.69471661427177"><ele>13.999999999999998</ele><time>2026-04-12T11:30:10.91Z</time></trkpt><trkpt lat="53.762557583719065" lon="14.694642111228546"><ele>14.0</ele><time>2026-04-12T11:30:11.91Z</time></trkpt><trkpt lat="53.76266721644606" lon="14.69461036353598"><ele>14.0</ele><time>2026-04-12T11:30:12.91Z</time></trkpt><trkpt lat="53.762767785386536" lon="14.694615478243083"><ele>14.2</ele><time>2026-04-12T11:30:13.91Z</time></trkpt><trkpt lat="53.76286153318212" lon="14.694629305000605"><ele>14.399999999999999</ele><time>2026-04-12T11:30:14.91Z</time></trkpt><trkpt lat="53.76297026803216" lon="14.694649963853927"><ele>14.6</ele><time>2026-04-12T11:30:15.91Z</time></trkpt><trkpt lat="53.76308561705217" lon="14.694708117760426"><ele>14.8</ele><time>2026-04-12T11:30:16.91Z</time></trkpt><trkpt lat="53.76317088606104" lon="14.694748966754457"><ele>15.0</ele><time>2026-04-12T11:30:17.91Z</time></trkpt><trkpt lat="53.76325633287229" lon="14.694772057806496"><ele>15.0</ele><time>2026-04-12T11:30:18.91Z</time></trkpt><trkpt lat="53.76332946235055" lon="14.694803619317028"><ele>15.0</ele><time>2026-04-12T11:30:19.91Z</time></trkpt><trkpt lat="53.76343985986808" lon="14.694852256305179"><ele>15.0</ele><time>2026-04-12T11:30:21.91Z</time></trkpt><trkpt lat="53.76352281105156" lon="14.69490571215595"><ele>15.0</ele><time>2026-04-12T11:30:23.909Z</time></trkpt><trkpt lat="53.76360107562644" lon="14.694937134659318"><ele>15.0</ele><time>2026-04-12T11:30:26.909Z</time></trkpt><trkpt lat="53.76370202323302" lon="14.694950729951563"><ele>14.666666666666668</ele><time>2026-04-12T11:30:29.909Z</time></trkpt><trkpt lat="53.76378525362521" lon="14.694948006124866"><ele>14.333333333333334</ele><time>2026-04-12T11:30:32.909Z</time></trkpt><trkpt lat="53.763866070452266" lon="14.694887505864374"><ele>14.0</ele><time>2026-04-12T11:30:34.909Z</time></trkpt><trkpt lat="53.764002073114746" lon="14.69544460336812"><ele>13.833333333333334</ele><time>2026-04-12T11:30:36.909Z</time></trkpt><trkpt lat="53.76405218986762" lon="14.695526129438953"><ele>13.666666666666668</ele><time>2026-04-12T11:30:37.909Z</time></trkpt><trkpt lat="53.76412406204411" lon="14.6956295885408"><ele>13.5</ele><time>2026-04-12T11:30:38.909Z</time></trkpt><trkpt lat="53.76419307372936" lon="14.69572532859675"><ele>13.333333333333332</ele><time>2026-04-12T11:30:39.909Z</time></trkpt><trkpt lat="53.76426933722111" lon="14.695817994778126"><ele>13.166666666666666</ele><time>2026-04-12T11:30:40.909Z</time></trkpt><trkpt lat="53.764344288833655" lon="14.695909646933183"><ele>13.0</ele><time>2026-04-12T11:30:41.909Z</time></trkpt><trkpt lat="53.76441443541661" lon="14.696005929737522"><ele>12.4</ele><time>2026-04-12T11:30:42.909Z</time></trkpt><trkpt lat="53.76448660726112" lon="14.696114894459354"><ele>11.8</ele><time>2026-04-12T11:30:43.909Z</time></trkpt><trkpt lat="53.76456208203137" lon="14.696202020527847"><ele>11.2</ele><time>2026-04-12T11:30:44.909Z</time></trkpt><trkpt lat="53.76465377638943" lon="14.69629759820807"><ele>10.6</ele><time>2026-04-12T11:30:45.909Z</time></trkpt><trkpt lat="53.76473794187113" lon="14.696382150777028"><ele>10.0</ele><time>2026-04-12T11:30:46.909Z</time></trkpt><trkpt lat="53.764811652182644" lon="14.696423024365627"><ele>10.0</ele><time>2026-04-12T11:30:47.909Z</time></trkpt><trkpt lat="53.76491181694162" lon="14.69647607861819"><ele>10.0</ele><time>2026-04-12T11:30:48.909Z</time></trkpt><trkpt lat="53.76498476281643" lon="14.696506924664822"><ele>10.0</ele><time>2026-04-12T11:30:49.909Z</time></trkpt><trkpt lat="53.7650491088891" lon="14.696527902298396"><ele>10.0</ele><time>2026-04-12T11:30:50.909Z</time></trkpt><trkpt lat="53.765128980549285" lon="14.696553248217386"><ele>10.0</ele><time>2026-04-12T11:30:51.909Z</time></trkpt><trkpt lat="53.76521172423538" lon="14.696576336955038"><ele>10.0</ele><time>2026-04-12T11:30:52.909Z</time></trkpt><trkpt lat="53.765298152402266" lon="14.69657971120163"><ele>9.833333333333334</ele><time>2026-04-12T11:30:53.909Z</time></trkpt><trkpt lat="53.76541055879226" lon="14.69660427208557"><ele>9.666666666666668</ele><time>2026-04-12T11:30:54.909Z</time></trkpt><trkpt lat="53.76549685576906" lon="14.696611249892019"><ele>9.5</ele><time>2026-04-12T11:30:55.909Z</time></trkpt><trkpt lat="53.765589423258945" lon="14.69662926945769"><ele>9.333333333333334</ele><time>2026-04-12T11:30:56.909Z</time></trkpt><trkpt lat="53.765671358632574" lon="14.696646774866485"><ele>9.166666666666666</ele><time>2026-04-12T11:30:57.909Z</time></trkpt><trkpt lat="53.76573575405105" lon="14.696658770856178"><ele>9.0</ele><time>2026-04-12T11:30:58.909Z</time></trkpt><trkpt lat="53.765837441545" lon="14.696693062349894"><ele>9.0</ele><time>2026-04-12T11:30:59.909Z</time></trkpt><trkpt lat="53.765908045240714" lon="14.696722026405244"><ele>9.0</ele><time>2026-04-12T11:31:00.909Z</time></trkpt><trkpt lat="53.7659721234489" lon="14.69673645356432"><ele>9.0</ele><time>2026-04-12T11:31:01.909Z</time></trkpt><trkpt lat="53.76603669195062" lon="14.696759334457605"><ele>9.0</ele><time>2026-04-12T11:31:02.909Z</time></trkpt><trkpt lat="53.76610230521823" lon="14.696773529719016"><ele>9.0</ele><time>2026-04-12T11:31:03.909Z</time></trkpt><trkpt lat="53.766212969180685" lon="14.696803622640934"><ele>9.0</ele><time>2026-04-12T11:31:05.909Z</time></trkpt><trkpt lat="53.7663152141841" lon="14.696839804194049"><ele>9.0</ele><time>2026-04-12T11:31:07.909Z</time></trkpt><trkpt lat="53.76638755056045" lon="14.696860013504422"><ele>9.0</ele><time>2026-04-12T11:31:09.909Z</time></trkpt><trkpt lat="53.766472308337086" lon="14.69691834793707"><ele>9.0</ele><time>2026-04-12T11:31:18.909Z</time></trkpt><trkpt lat="53.76654418670435" lon="14.696942927925921"><ele>9.0</ele><time>2026-04-12T11:35:19.897Z</time></trkpt><trkpt lat="53.76660613841381" lon="14.696971271235642"><ele>9.0</ele><time>2026-04-12T11:35:20.897Z</time></trkpt><trkpt lat="53.76666935837043" lon="14.697009591576666"><ele>9.0</ele><time>2026-04-12T11:35:21.897Z</time></trkpt><trkpt lat="53.766783676338584" lon="14.697082027567172"><ele>8.6</ele><time>2026-04-12T11:35:23.897Z</time></trkpt><trkpt lat="53.7668482382897" lon="14.697129980875687"><ele>8.2</ele><time>2026-04-12T11:35:24.897Z</time></trkpt><trkpt lat="53.76696205207372" lon="14.697214227941837"><ele>7.799999999999999</ele><time>2026-04-12T11:35:26.897Z</time></trkpt><trkpt lat="53.76706172227256" lon="14.697296022579152"><ele>7.3999999999999995</ele><time>2026-04-12T11:35:28.897Z</time></trkpt><trkpt lat="53.76714671550572" lon="14.697364890738038"><ele>7.0</ele><time>2026-04-12T11:35:30.897Z</time></trkpt><trkpt lat="53.76723349260135" lon="14.697435118982314"><ele>6.666666666666667</ele><time>2026-04-12T11:35:32.897Z</time></trkpt><trkpt lat="53.76734696295917" lon="14.697482362274107"><ele>6.333333333333334</ele><time>2026-04-12T11:35:34.897Z</time></trkpt><trkpt lat="53.76743166883806" lon="14.697466514826884"><ele>6.0</ele><time>2026-04-12T11:35:36.897Z</time></trkpt><trkpt lat="53.76751411190981" lon="14.697435082809601"><ele>5.666666666666667</ele><time>2026-04-12T11:35:38.897Z</time></trkpt><trkpt lat="53.76758857097678" lon="14.697399365560033"><ele>5.333333333333334</ele><time>2026-04-12T11:35:40.897Z</time></trkpt><trkpt lat="53.767653615236846" lon="14.69735556305143"><ele>5.0</ele><time>2026-04-12T11:35:42.897Z</time></trkpt><trkpt lat="53.76771720455342" lon="14.697317787719566"><ele>5.0</ele><time>2026-04-12T11:35:44.897Z</time></trkpt><trkpt lat="53.76781433135117" lon="14.697263327154335"><ele>5.0</ele><time>2026-04-12T11:35:46.897Z</time></trkpt><trkpt lat="53.767878127144236" lon="14.697229571788046"><ele>5.0</ele><time>2026-04-12T11:35:47.897Z</time></trkpt><trkpt lat="53.76794459775481" lon="14.697200034838351"><ele>5.0</ele><time>2026-04-12T11:35:48.897Z</time></trkpt><trkpt lat="53.7680058210453" lon="14.697173634217497"><ele>5.0</ele><time>2026-04-12T11:35:49.897Z</time></trkpt><trkpt lat="53.768071473641584" lon="14.697143675625107"><ele>5.0</ele><time>2026-04-12T11:35:50.897Z</time></trkpt><trkpt lat="53.7681429605142" lon="14.697116473708144"><ele>5.0</ele><time>2026-04-12T11:35:51.897Z</time></trkpt><trkpt lat="53.76823936228319" lon="14.697068089994843"><ele>5.0</ele><time>2026-04-12T11:35:52.897Z</time></trkpt><trkpt lat="53.76830463221819" lon="14.697035411218108"><ele>5.0</ele><time>2026-04-12T11:35:53.897Z</time></trkpt><trkpt lat="53.768377168804854" lon="14.697006836924796"><ele>5.0</ele><time>2026-04-12T11:35:54.897Z</time></trkpt><trkpt lat="53.76844810702664" lon="14.696988049750242"><ele>5.0</ele><time>2026-04-12T11:35:55.897Z</time></trkpt><trkpt lat="53.76851215994455" lon="14.696975504126966"><ele>5.0</ele><time>2026-04-12T11:35:56.897Z</time></trkpt><trkpt lat="53.76863229688851" lon="14.69698524888635"><ele>5.0</ele><time>2026-04-12T11:35:58.897Z</time></trkpt><trkpt lat="53.76871210209049" lon="14.696969116084293"><ele>5.166666666666667</ele><time>2026-04-12T11:36:00.897Z</time></trkpt><trkpt lat="53.768782636176" lon="14.69687165551051"><ele>5.333333333333334</ele><time>2026-04-12T11:36:03.897Z</time></trkpt><trkpt lat="53.768840016874925" lon="14.69676778073517"><ele>5.5</ele><time>2026-04-12T11:36:05.897Z</time></trkpt><trkpt lat="53.768905348534936" lon="14.696682674240513"><ele>5.666666666666667</ele><time>2026-04-12T11:36:07.897Z</time></trkpt><trkpt lat="53.76896406451942" lon="14.696615167208135"><ele>5.833333333333333</ele><time>2026-04-12T11:36:09.897Z</time></trkpt><trkpt lat="53.769018231086356" lon="14.696545456817049"><ele>6.0</ele><time>2026-04-12T11:36:11.897Z</time></trkpt><trkpt lat="53.769098351256545" lon="14.696480935242846"><ele>6.0</ele><time>2026-04-12T11:36:13.897Z</time></trkpt><trkpt lat="53.76918226836196" lon="14.696435692076522"><ele>6.0</ele><time>2026-04-12T11:36:16.897Z</time></trkpt><trkpt lat="53.76923661054592" lon="14.6963753540603"><ele>6.0</ele><time>2026-04-12T11:36:19.897Z</time></trkpt><trkpt lat="53.76928023105843" lon="14.696285091797993"><ele>6.0</ele><time>2026-04-12T11:37:15.896Z</time></trkpt><trkpt lat="53.769356520171854" lon="14.696246881556519"><ele>6.0</ele><time>2026-04-12T11:37:19.896Z</time></trkpt><trkpt lat="53.7693840595379" lon="14.696127701191923"><ele>6.0</ele><time>2026-04-12T11:37:21.896Z</time></trkpt><trkpt lat="53.769320958241266" lon="14.696037239390195"><ele>6.0</ele><time>2026-04-12T11:37:23.896Z</time></trkpt><trkpt lat="53.76921870817662" lon="14.696033027372756"><ele>6.0</ele><time>2026-04-12T11:37:24.896Z</time></trkpt><trkpt lat="53.76915137624313" lon="14.69606620553113"><ele>6.0</ele><time>2026-04-12T11:37:25.896Z</time></trkpt><trkpt lat="53.76908079244859" lon="14.69615143588976"><ele>6.0</ele><time>2026-04-12T11:37:27.896Z</time></trkpt><trkpt lat="53.76902868992328" lon="14.696289215249633"><ele>6.0</ele><time>2026-04-12T11:37:29.896Z</time></trkpt><trkpt lat="53.768973648576285" lon="14.696398416436699"><ele>6.0</ele><time>2026-04-12T11:37:31.896Z</time></trkpt><trkpt lat="53.76890638989421" lon="14.696533756628757"><ele>6.0</ele><time>2026-04-12T11:37:33.896Z</time></trkpt><trkpt lat="53.7688315500442" lon="14.696674512531644"><ele>6.0</ele><time>2026-04-12T11:37:35.896Z</time></trkpt><trkpt lat="53.76878253065678" lon="14.696752260862313"><ele>6.0</ele><time>2026-04-12T11:37:36.896Z</time></trkpt><trkpt lat="53.7687168124331" lon="14.696856694129014"><ele>6.0</ele><time>2026-04-12T11:37:38.896Z</time></trkpt><trkpt lat="53.76863449010621" lon="14.696971825168863"><ele>6.0</ele><time>2026-04-12T11:37:40.896Z</time></trkpt><trkpt lat="53.76857354872528" lon="14.697013159621381"><ele>6.0</ele><time>2026-04-12T11:37:41.896Z</time></trkpt><trkpt lat="53.76846468994651" lon="14.696986583249315"><ele>6.199999999999999</ele><time>2026-04-12T11:37:43.896Z</time></trkpt><trkpt lat="53.768383714389124" lon="14.6969182609992"><ele>6.3999999999999995</ele><time>2026-04-12T11:37:45.896Z</time></trkpt><trkpt lat="53.76828500195644" lon="14.696744164473472"><ele>6.6</ele><time>2026-04-12T11:37:47.896Z</time></trkpt><trkpt lat="53.768238336385274" lon="14.696644372655015"><ele>6.8</ele><time>2026-04-12T11:37:48.896Z</time></trkpt><trkpt lat="53.76820065367449" lon="14.69644321773859"><ele>7.0</ele><time>2026-04-12T11:37:50.896Z</time></trkpt><trkpt lat="53.76817089875491" lon="14.696319556761646"><ele>7.000000000000001</ele><time>2026-04-12T11:37:51.896Z</time></trkpt><trkpt lat="53.76815822683656" lon="14.696202386711573"><ele>7.0</ele><time>2026-04-12T11:37:52.896Z</time></trkpt><trkpt lat="53.76812758193492" lon="14.696031339032249"><ele>7.0</ele><time>2026-04-12T11:37:53.896Z</time></trkpt><trkpt lat="53.76810365541926" lon="14.695882088981291"><ele>7.0</ele><time>2026-04-12T11:37:54.896Z</time></trkpt><trkpt lat="53.76808688743314" lon="14.695756598741568"><ele>7.000000000000001</ele><time>2026-04-12T11:37:55.896Z</time></trkpt><trkpt lat="53.76806559676995" lon="14.695640295238972"><ele>7.0</ele><time>2026-04-12T11:37:56.896Z</time></trkpt><trkpt lat="53.76804760655075" lon="14.695525907705216"><ele>7.6</ele><time>2026-04-12T11:37:57.896Z</time></trkpt><trkpt lat="53.768036837707804" lon="14.695287578551575"><ele>8.2</ele><time>2026-04-12T11:37:59.896Z</time></trkpt><trkpt lat="53.76802008911259" lon="14.695136473492832"><ele>8.8</ele><time>2026-04-12T11:38:00.896Z</time></trkpt><trkpt lat="53.76802154157863" lon="14.695013057624017"><ele>9.4</ele><time>2026-04-12T11:38:01.896Z</time></trkpt><trkpt lat="53.76803217151636" lon="14.69483133075219"><ele>10.0</ele><time>2026-04-12T11:38:02.896Z</time></trkpt><trkpt lat="53.76805517849742" lon="14.694696438908098"><ele>10.25</ele><time>2026-04-12T11:38:03.896Z</time></trkpt><trkpt lat="53.76812719820986" lon="14.694436609317068"><ele>10.5</ele><time>2026-04-12T11:38:05.896Z</time></trkpt><trkpt lat="53.76818225118396" lon="14.694277523372076"><ele>10.75</ele><time>2026-04-12T11:38:06.896Z</time></trkpt><trkpt lat="53.768252961336714" lon="14.694112148390534"><ele>11.0</ele><time>2026-04-12T11:38:07.896Z</time></trkpt><trkpt lat="53.76833014374382" lon="14.693960939725244"><ele>11.0</ele><time>2026-04-12T11:38:08.896Z</time></trkpt><trkpt lat="53.76837830783557" lon="14.693780582789184"><ele>11.0</ele><time>2026-04-12T11:38:10.896Z</time></trkpt><trkpt lat="53.76844020235546" lon="14.693652307396802"><ele>11.0</ele><time>2026-04-12T11:38:11.896Z</time></trkpt><trkpt lat="53.76849897166342" lon="14.69354908902613"><ele>11.0</ele><time>2026-04-12T11:38:12.896Z</time></trkpt><trkpt lat="53.768565786885205" lon="14.693472353561434"><ele>11.0</ele><time>2026-04-12T11:38:13.896Z</time></trkpt><trkpt lat="53.768652831018755" lon="14.693390774871814"><ele>11.0</ele><time>2026-04-12T11:38:14.896Z</time></trkpt><trkpt lat="53.76876090143915" lon="14.693294963318243"><ele>11.0</ele><time>2026-04-12T11:38:15.896Z</time></trkpt><trkpt lat="53.76889857953893" lon="14.69316514113765"><ele>11.0</ele><time>2026-04-12T11:38:16.896Z</time></trkpt><trkpt lat="53.76900773501117" lon="14.693052410781407"><ele>11.0</ele><time>2026-04-12T11:38:17.896Z</time></trkpt><trkpt lat="53.76910289573211" lon="14.692951882980685"><ele>11.0</ele><time>2026-04-12T11:38:18.896Z</time></trkpt><trkpt lat="53.76919534398881" lon="14.692847725041027"><ele>11.0</ele><time>2026-04-12T11:38:19.896Z</time></trkpt><trkpt lat="53.769281378988644" lon="14.692750402828231"><ele>11.0</ele><time>2026-04-12T11:38:20.896Z</time></trkpt><trkpt lat="53.76937049249202" lon="14.692650696891452"><ele>11.0</ele><time>2026-04-12T11:38:21.896Z</time></trkpt><trkpt lat="53.76946182940431" lon="14.692550108548737"><ele>11.0</ele><time>2026-04-12T11:38:22.896Z</time></trkpt><trkpt lat="53.769553506866636" lon="14.692450602529926"><ele>11.5</ele><time>2026-04-12T11:38:23.896Z</time></trkpt><trkpt lat="53.76963302488898" lon="14.692360918348045"><ele>12.0</ele><time>2026-04-12T11:38:24.896Z</time></trkpt><trkpt lat="53.76970166465704" lon="14.692281304029128"><ele>12.5</ele><time>2026-04-12T11:38:25.896Z</time></trkpt><trkpt lat="53.769763593499654" lon="14.692212892533309"><ele>13.0</ele><time>2026-04-12T11:38:26.896Z</time></trkpt><trkpt lat="53.76981809087524" lon="14.692152159392476"><ele>13.500000000000002</ele><time>2026-04-12T11:38:27.896Z</time></trkpt><trkpt lat="53.76991973836239" lon="14.692039392369763"><ele>14.0</ele><time>2026-04-12T11:38:29.896Z</time></trkpt><trkpt lat="53.76997922218322" lon="14.691971688229852"><ele>13.666666666666668</ele><time>2026-04-12T11:38:30.896Z</time></trkpt><trkpt lat="53.77004380219047" lon="14.691897675604368"><ele>13.333333333333334</ele><time>2026-04-12T11:38:31.896Z</time></trkpt><trkpt lat="53.770111476502784" lon="14.691835921085563"><ele>13.0</ele><time>2026-04-12T11:38:32.896Z</time></trkpt><trkpt lat="53.7701774039347" lon="14.691762788919567"><ele>12.666666666666668</ele><time>2026-04-12T11:38:33.895Z</time></trkpt><trkpt lat="53.77024184751794" lon="14.691690401330677"><ele>12.333333333333334</ele><time>2026-04-12T11:38:34.895Z</time></trkpt><trkpt lat="53.770308673307575" lon="14.691620401857724"><ele>12.0</ele><time>2026-04-12T11:38:35.895Z</time></trkpt><trkpt lat="53.770366951065625" lon="14.691566207158283"><ele>14.0</ele><time>2026-04-12T11:38:36.895Z</time></trkpt><trkpt lat="53.7704241060857" lon="14.691506873371477"><ele>16.0</ele><time>2026-04-12T11:38:37.895Z</time></trkpt><trkpt lat="53.770510269134554" lon="14.691393653118261"><ele>18.0</ele><time>2026-04-12T11:38:39.895Z</time></trkpt><trkpt lat="53.77059941217879" lon="14.691297595154657"><ele>20.0</ele><time>2026-04-12T11:38:41.895Z</time></trkpt><trkpt lat="53.77067625788174" lon="14.69121621488701"><ele>22.0</ele><time>2026-04-12T11:38:43.895Z</time></trkpt><trkpt lat="53.77075639706059" lon="14.69113145997301"><ele>22.0</ele><time>2026-04-12T11:38:45.895Z</time></trkpt><trkpt lat="53.770830272813214" lon="14.691093022111453"><ele>22.0</ele><time>2026-04-12T11:38:47.895Z</time></trkpt><trkpt lat="53.770919663228085" lon="14.691093804178626"><ele>22.0</ele><time>2026-04-12T11:38:49.895Z</time></trkpt><trkpt lat="53.771002289946736" lon="14.691122865470163"><ele>22.0</ele><time>2026-04-12T11:38:51.895Z</time></trkpt><trkpt lat="53.77107661996817" lon="14.691227131117808"><ele>22.0</ele><time>2026-04-12T11:38:53.895Z</time></trkpt><trkpt lat="53.771146095489804" lon="14.69135124489418"><ele>22.0</ele><time>2026-04-12T11:38:55.894Z</time></trkpt><trkpt lat="53.771170056824985" lon="14.691455759556877"><ele>22.142857142857142</ele><time>2026-04-12T11:39:05.894Z</time></trkpt><trkpt lat="53.77122777644551" lon="14.691504330362664"><ele>22.285714285714285</ele><time>2026-04-12T11:50:53.883Z</time></trkpt><trkpt lat="53.77128942407885" lon="14.691587025110532"><ele>22.42857142857143</ele><time>2026-04-12T11:53:00.881Z</time></trkpt><trkpt lat="53.7712709460999" lon="14.691472656845546"><ele>22.57142857142857</ele><time>2026-04-12T11:53:09.881Z</time></trkpt><trkpt lat="53.77119853584762" lon="14.69149185721809"><ele>22.71428571428571</ele><time>2026-04-12T11:54:34.88Z</time></trkpt><trkpt lat="53.7712354568" lon="14.691595157344466"><ele>22.857142857142858</ele><time>2026-04-12T11:54:42.879Z</time></trkpt><trkpt lat="53.77130504351172" lon="14.691692577826752"><ele>23.0</ele><time>2026-04-12T11:54:44.879Z</time></trkpt><trkpt lat="53.7713623543691" lon="14.691799882735198"><ele>23.0</ele><time>2026-04-12T11:54:46.879Z</time></trkpt><trkpt lat="53.771458277486886" lon="14.691959889320934"><ele>23.0</ele><time>2026-04-12T11:54:48.879Z</time></trkpt><trkpt lat="53.771530230785935" lon="14.692058668807684"><ele>23.0</ele><time>2026-04-12T11:54:49.879Z</time></trkpt><trkpt lat="53.771594591458964" lon="14.69214831565771"><ele>23.0</ele><time>2026-04-12T11:54:50.879Z</time></trkpt><trkpt lat="53.77165869254847" lon="14.692243435847836"><ele>23.0</ele><time>2026-04-12T11:54:51.879Z</time></trkpt><trkpt lat="53.77172205796737" lon="14.692337918177879"><ele>23.0</ele><time>2026-04-12T11:54:52.879Z</time></trkpt><trkpt lat="53.771768666486295" lon="14.692437015078555"><ele>23.0</ele><time>2026-04-12T11:54:53.879Z</time></trkpt><trkpt lat="53.77182252428964" lon="14.692548869358196"><ele>23.0</ele><time>2026-04-12T11:54:54.879Z</time></trkpt><trkpt lat="53.77189455635928" lon="14.692701724604516"><ele>23.0</ele><time>2026-04-12T11:54:55.879Z</time></trkpt><trkpt lat="53.77197470494026" lon="14.692862128822085"><ele>23.0</ele><time>2026-04-12T11:54:56.879Z</time></trkpt><trkpt lat="53.772052105397904" lon="14.692978081920064"><ele>22.666666666666668</ele><time>2026-04-12T11:54:57.879Z</time></trkpt><trkpt lat="53.77210726219107" lon="14.693085569682511"><ele>22.333333333333336</ele><time>2026-04-12T11:54:58.879Z</time></trkpt><trkpt lat="53.772160793996854" lon="14.69318356087175"><ele>22.0</ele><time>2026-04-12T11:54:59.879Z</time></trkpt><trkpt lat="53.772215495068295" lon="14.693285675735522"><ele>21.666666666666668</ele><time>2026-04-12T11:55:00.879Z</time></trkpt><trkpt lat="53.77227297550215" lon="14.69334596970019"><ele>21.333333333333332</ele><time>2026-04-12T11:55:01.879Z</time></trkpt><trkpt lat="53.77235300350105" lon="14.693385112146409"><ele>21.0</ele><time>2026-04-12T11:55:02.879Z</time></trkpt><trkpt lat="53.77244431012839" lon="14.693418461878952"><ele>21.0</ele><time>2026-04-12T11:55:03.879Z</time></trkpt><trkpt lat="53.77256584573152" lon="14.693434980566451"><ele>21.0</ele><time>2026-04-12T11:55:04.879Z</time></trkpt><trkpt lat="53.77267367462032" lon="14.693467875112674"><ele>21.0</ele><time>2026-04-12T11:55:05.879Z</time></trkpt><trkpt lat="53.772764878212726" lon="14.693513836973883"><ele>21.0</ele><time>2026-04-12T11:55:06.879Z</time></trkpt><trkpt lat="53.772857912747114" lon="14.693556106752025"><ele>21.0</ele><time>2026-04-12T11:55:07.879Z</time></trkpt><trkpt lat="53.7729524826593" lon="14.693605234339861"><ele>20.8</ele><time>2026-04-12T11:55:08.879Z</time></trkpt><trkpt lat="53.773045345581316" lon="14.693645744165762"><ele>20.6</ele><time>2026-04-12T11:55:09.879Z</time></trkpt><trkpt lat="53.77313332246502" lon="14.693683141446854"><ele>20.4</ele><time>2026-04-12T11:55:10.879Z</time></trkpt><trkpt lat="53.77322413386368" lon="14.693743983251391"><ele>20.2</ele><time>2026-04-12T11:55:11.879Z</time></trkpt><trkpt lat="53.773306149909324" lon="14.693802108225794"><ele>20.0</ele><time>2026-04-12T11:55:12.879Z</time></trkpt><trkpt lat="53.77339616146365" lon="14.693857397626454"><ele>20.0</ele><time>2026-04-12T11:55:13.879Z</time></trkpt><trkpt lat="53.77346953473906" lon="14.693902364414374"><ele>20.0</ele><time>2026-04-12T11:55:14.879Z</time></trkpt><trkpt lat="53.7735505587579" lon="14.693947564108623"><ele>20.0</ele><time>2026-04-12T11:55:15.879Z</time></trkpt><trkpt lat="53.773611631528745" lon="14.693988486047264"><ele>20.0</ele><time>2026-04-12T11:55:16.879Z</time></trkpt><trkpt lat="53.77373689561104" lon="14.693982004326452"><ele>20.0</ele><time>2026-04-12T11:55:18.879Z</time></trkpt><trkpt lat="53.773837530056454" lon="14.69387516591054"><ele>19.2</ele><time>2026-04-12T11:55:20.879Z</time></trkpt><trkpt lat="53.77388657290952" lon="14.693774267260732"><ele>18.4</ele><time>2026-04-12T11:55:21.879Z</time></trkpt><trkpt lat="53.773960066688225" lon="14.693629090080348"><ele>17.6</ele><time>2026-04-12T11:55:22.879Z</time></trkpt><trkpt lat="53.77404608662161" lon="14.693496173568136"><ele>16.8</ele><time>2026-04-12T11:55:23.879Z</time></trkpt><trkpt lat="53.77412824407767" lon="14.693342042165575"><ele>16.0</ele><time>2026-04-12T11:55:24.879Z</time></trkpt><trkpt lat="53.774225273661514" lon="14.693200886840035"><ele>16.25</ele><time>2026-04-12T11:55:25.879Z</time></trkpt><trkpt lat="53.77432877113131" lon="14.69306553196942"><ele>16.5</ele><time>2026-04-12T11:55:26.879Z</time></trkpt><trkpt lat="53.774411624211645" lon="14.692943396525958"><ele>16.75</ele><time>2026-04-12T11:55:27.879Z</time></trkpt><trkpt lat="53.77450140211796" lon="14.69280742370453"><ele>17.0</ele><time>2026-04-12T11:55:28.879Z</time></trkpt><trkpt lat="53.77459564377029" lon="14.692665390855733"><ele>17.0</ele><time>2026-04-12T11:55:29.879Z</time></trkpt><trkpt lat="53.77467099697097" lon="14.692523880262073"><ele>17.0</ele><time>2026-04-12T11:55:30.879Z</time></trkpt><trkpt lat="53.77473207174685" lon="14.692434527982018"><ele>17.0</ele><time>2026-04-12T11:55:31.879Z</time></trkpt><trkpt lat="53.77479837741082" lon="14.692345545308566"><ele>17.0</ele><time>2026-04-12T11:55:32.879Z</time></trkpt><trkpt lat="53.77488289875998" lon="14.69221136521497"><ele>17.0</ele><time>2026-04-12T11:55:33.879Z</time></trkpt><trkpt lat="53.77495454848551" lon="14.692109142274804"><ele>17.0</ele><time>2026-04-12T11:55:34.879Z</time></trkpt><trkpt lat="53.775031344352854" lon="14.691975016285808"><ele>17.0</ele><time>2026-04-12T11:55:35.878Z</time></trkpt><trkpt lat="53.775107745419064" lon="14.691863861518796"><ele>17.0</ele><time>2026-04-12T11:55:36.878Z</time></trkpt><trkpt lat="53.77517258595665" lon="14.691750382549525"><ele>17.0</ele><time>2026-04-12T11:55:37.878Z</time></trkpt><trkpt lat="53.77526005933778" lon="14.691650942344783"><ele>17.0</ele><time>2026-04-12T11:55:38.878Z</time></trkpt><trkpt lat="53.77534134973022" lon="14.691529989524359"><ele>17.0</ele><time>2026-04-12T11:55:39.878Z</time></trkpt><trkpt lat="53.77543033284612" lon="14.691390450756574"><ele>17.0</ele><time>2026-04-12T11:55:40.878Z</time></trkpt><trkpt lat="53.77550855640979" lon="14.69126665578228"><ele>17.0</ele><time>2026-04-12T11:55:41.878Z</time></trkpt><trkpt lat="53.775585604709406" lon="14.691154513441882"><ele>17.0</ele><time>2026-04-12T11:55:42.878Z</time></trkpt><trkpt lat="53.77566110071894" lon="14.691041556831411"><ele>17.0</ele><time>2026-04-12T11:55:43.878Z</time></trkpt><trkpt lat="53.77573628500842" lon="14.690934151288204"><ele>17.6</ele><time>2026-04-12T11:55:44.877Z</time></trkpt><trkpt lat="53.77577892941008" lon="14.690800043336413"><ele>18.2</ele><time>2026-04-12T11:55:45.877Z</time></trkpt><trkpt lat="53.77583448824327" lon="14.690669361164408"><ele>18.8</ele><time>2026-04-12T11:55:46.877Z</time></trkpt><trkpt lat="53.77588290730075" lon="14.690518857786799"><ele>19.4</ele><time>2026-04-12T11:55:47.877Z</time></trkpt><trkpt lat="53.77593031110818" lon="14.690379031955029"><ele>20.0</ele><time>2026-04-12T11:55:48.877Z</time></trkpt><trkpt lat="53.775976313548604" lon="14.690217424690783"><ele>19.833333333333336</ele><time>2026-04-12T11:55:49.877Z</time></trkpt><trkpt lat="53.77601820620515" lon="14.690078076580956"><ele>19.666666666666668</ele><time>2026-04-12T11:55:50.877Z</time></trkpt><trkpt lat="53.7760552896195" lon="14.6899772973886"><ele>19.5</ele><time>2026-04-12T11:55:51.877Z</time></trkpt><trkpt lat="53.776095399654025" lon="14.68988609650168"><ele>19.333333333333332</ele><time>2026-04-12T11:55:52.877Z</time></trkpt><trkpt lat="53.77615899797533" lon="14.689811218012984"><ele>19.166666666666664</ele><time>2026-04-12T11:55:54.877Z</time></trkpt><trkpt lat="53.77623652975065" lon="14.689874696916437"><ele>19.0</ele><time>2026-04-12T11:55:56.877Z</time></trkpt><trkpt lat="53.77629995224804" lon="14.689982559407026"><ele>19.0</ele><time>2026-04-12T11:55:57.877Z</time></trkpt><trkpt lat="53.776357340818045" lon="14.690132444336895"><ele>19.0</ele><time>2026-04-12T11:55:58.877Z</time></trkpt><trkpt lat="53.776404221554984" lon="14.690262444515815"><ele>19.0</ele><time>2026-04-12T11:55:59.877Z</time></trkpt><trkpt lat="53.776463612324164" lon="14.690436982384536"><ele>19.0</ele><time>2026-04-12T11:56:00.877Z</time></trkpt><trkpt lat="53.77649500651054" lon="14.690572542846198"><ele>19.0</ele><time>2026-04-12T11:56:01.877Z</time></trkpt><trkpt lat="53.77654505849146" lon="14.690719675928477"><ele>18.8</ele><time>2026-04-12T11:56:02.877Z</time></trkpt><trkpt lat="53.77660083283658" lon="14.69085165071872"><ele>18.599999999999998</ele><time>2026-04-12T11:56:03.877Z</time></trkpt><trkpt lat="53.776652837252435" lon="14.691021194388167"><ele>18.4</ele><time>2026-04-12T11:56:04.877Z</time></trkpt><trkpt lat="53.776715356521876" lon="14.691179167575902"><ele>18.2</ele><time>2026-04-12T11:56:05.877Z</time></trkpt><trkpt lat="53.77676843472337" lon="14.691319038918643"><ele>18.0</ele><time>2026-04-12T11:56:06.877Z</time></trkpt><trkpt lat="53.7768109815511" lon="14.691442325747332"><ele>17.2</ele><time>2026-04-12T11:56:07.877Z</time></trkpt><trkpt lat="53.77687261892252" lon="14.69156394244925"><ele>16.4</ele><time>2026-04-12T11:56:08.877Z</time></trkpt><trkpt lat="53.77692901147181" lon="14.6917082943282"><ele>15.599999999999998</ele><time>2026-04-12T11:56:09.877Z</time></trkpt><trkpt lat="53.77697138988528" lon="14.691832508521689"><ele>14.799999999999999</ele><time>2026-04-12T11:56:10.877Z</time></trkpt><trkpt lat="53.777031522940916" lon="14.691936731817943"><ele>14.0</ele><time>2026-04-12T11:56:11.877Z</time></trkpt><trkpt lat="53.77711430557006" lon="14.692066725093273"><ele>14.000000000000002</ele><time>2026-04-12T11:56:12.877Z</time></trkpt><trkpt lat="53.77718848691042" lon="14.692182804399158"><ele>14.0</ele><time>2026-04-12T11:56:13.877Z</time></trkpt><trkpt lat="53.77725910497652" lon="14.692280653260239"><ele>14.0</ele><time>2026-04-12T11:56:14.877Z</time></trkpt><trkpt lat="53.77732317154454" lon="14.692341030486975"><ele>14.0</ele><time>2026-04-12T11:56:15.877Z</time></trkpt><trkpt lat="53.77739840079172" lon="14.692422280732195"><ele>14.000000000000002</ele><time>2026-04-12T11:56:17.877Z</time></trkpt><trkpt lat="53.77744527222436" lon="14.692507605915095"><ele>14.0</ele><time>2026-04-12T11:56:20.877Z</time></trkpt><trkpt lat="53.777519147650125" lon="14.692522122687556"><ele>14.000000000000002</ele><time>2026-04-12T11:56:23.877Z</time></trkpt><trkpt lat="53.77758769438608" lon="14.692480157135122"><ele>14.0</ele><time>2026-04-12T11:56:25.877Z</time></trkpt><trkpt lat="53.777656460516596" lon="14.692406747524698"><ele>14.0</ele><time>2026-04-12T11:56:27.877Z</time></trkpt><trkpt lat="53.777709024298076" lon="14.692321569971439"><ele>14.0</ele><time>2026-04-12T11:56:28.877Z</time></trkpt><trkpt lat="53.77777043902741" lon="14.692200561090964"><ele>14.000000000000002</ele><time>2026-04-12T11:56:29.877Z</time></trkpt><trkpt lat="53.77781849153917" lon="14.692080275306541"><ele>14.0</ele><time>2026-04-12T11:56:30.877Z</time></trkpt><trkpt lat="53.777892913688476" lon="14.691920247038592"><ele>14.6</ele><time>2026-04-12T11:56:32.877Z</time></trkpt><trkpt lat="53.77795240349591" lon="14.691721378056402"><ele>15.2</ele><time>2026-04-12T11:56:34.877Z</time></trkpt><trkpt lat="53.77799815977349" lon="14.691608122997494"><ele>15.799999999999999</ele><time>2026-04-12T11:56:35.877Z</time></trkpt><trkpt lat="53.778057084822656" lon="14.691462929759728"><ele>16.4</ele><time>2026-04-12T11:56:36.877Z</time></trkpt><trkpt lat="53.77810450452061" lon="14.691340974056008"><ele>17.0</ele><time>2026-04-12T11:56:37.877Z</time></trkpt><trkpt lat="53.77814059358925" lon="14.69123158504744"><ele>17.0</ele><time>2026-04-12T11:56:38.877Z</time></trkpt><trkpt lat="53.77817996621621" lon="14.691091070854387"><ele>17.0</ele><time>2026-04-12T11:56:39.877Z</time></trkpt><trkpt lat="53.77822601674126" lon="14.690960982030528"><ele>17.0</ele><time>2026-04-12T11:56:40.877Z</time></trkpt><trkpt lat="53.77826012531693" lon="14.69085079464727"><ele>17.0</ele><time>2026-04-12T11:56:41.877Z</time></trkpt><trkpt lat="53.7783006255117" lon="14.690720224373568"><ele>17.0</ele><time>2026-04-12T11:56:42.877Z</time></trkpt><trkpt lat="53.77836028368732" lon="14.690595984499522"><ele>17.0</ele><time>2026-04-12T11:56:43.877Z</time></trkpt><trkpt lat="53.778410296752476" lon="14.690478128208076"><ele>16.666666666666668</ele><time>2026-04-12T11:56:44.877Z</time></trkpt><trkpt lat="53.77847464225504" lon="14.690349281648787"><ele>16.333333333333336</ele><time>2026-04-12T11:56:45.877Z</time></trkpt><trkpt lat="53.778512864451336" lon="14.690250426905575"><ele>16.0</ele><time>2026-04-12T11:56:46.877Z</time></trkpt><trkpt lat="53.778559360653006" lon="14.690169741595781"><ele>15.666666666666668</ele><time>2026-04-12T11:56:47.877Z</time></trkpt><trkpt lat="53.77862218223916" lon="14.690058002675253"><ele>15.333333333333334</ele><time>2026-04-12T11:56:48.877Z</time></trkpt><trkpt lat="53.77868131278225" lon="14.689920393890613"><ele>15.0</ele><time>2026-04-12T11:56:49.877Z</time></trkpt><trkpt lat="53.77873314192733" lon="14.689800556044066"><ele>15.0</ele><time>2026-04-12T11:56:50.877Z</time></trkpt><trkpt lat="53.77877573862109" lon="14.68970533193073"><ele>15.0</ele><time>2026-04-12T11:56:51.877Z</time></trkpt><trkpt lat="53.778828128718544" lon="14.689622880188622"><ele>15.0</ele><time>2026-04-12T11:56:52.877Z</time></trkpt><trkpt lat="53.778919870388364" lon="14.689450071361195"><ele>15.0</ele><time>2026-04-12T11:56:54.877Z</time></trkpt><trkpt lat="53.77897995461475" lon="14.689301455846572"><ele>15.0</ele><time>2026-04-12T11:56:55.877Z</time></trkpt><trkpt lat="53.779014114073945" lon="14.689143747192652"><ele>15.333333333333334</ele><time>2026-04-12T11:56:56.877Z</time></trkpt><trkpt lat="53.77904462571736" lon="14.689017142445348"><ele>15.666666666666668</ele><time>2026-04-12T11:56:57.877Z</time></trkpt><trkpt lat="53.779082415998666" lon="14.688894036910384"><ele>16.0</ele><time>2026-04-12T11:56:58.877Z</time></trkpt><trkpt lat="53.77911794700679" lon="14.688759112790143"><ele>16.333333333333336</ele><time>2026-04-12T11:56:59.877Z</time></trkpt><trkpt lat="53.779151973536315" lon="14.68862070905667"><ele>16.666666666666668</ele><time>2026-04-12T11:57:00.877Z</time></trkpt><trkpt lat="53.77919716800575" lon="14.688483370525192"><ele>17.0</ele><time>2026-04-12T11:57:01.877Z</time></trkpt><trkpt lat="53.7792352309646" lon="14.688363531014343"><ele>17.2</ele><time>2026-04-12T11:57:02.877Z</time></trkpt><trkpt lat="53.779307895574796" lon="14.68816911763585"><ele>17.4</ele><time>2026-04-12T11:57:04.877Z</time></trkpt><trkpt lat="53.77934379464786" lon="14.688061077093401"><ele>17.6</ele><time>2026-04-12T11:57:05.877Z</time></trkpt><trkpt lat="53.77938937717707" lon="14.68793250227135"><ele>17.8</ele><time>2026-04-12T11:57:06.877Z</time></trkpt><trkpt lat="53.77944120304958" lon="14.687775998380767"><ele>18.0</ele><time>2026-04-12T11:57:07.877Z</time></trkpt><trkpt lat="53.779484648967596" lon="14.687639516884738"><ele>18.4</ele><time>2026-04-12T11:57:08.877Z</time></trkpt><trkpt lat="53.779520792109246" lon="14.687500845069025"><ele>18.8</ele><time>2026-04-12T11:57:09.877Z</time></trkpt><trkpt lat="53.77955794612394" lon="14.687355102670136"><ele>19.2</ele><time>2026-04-12T11:57:10.877Z</time></trkpt><trkpt lat="53.7796042082616" lon="14.68721602406042"><ele>19.6</ele><time>2026-04-12T11:57:11.877Z</time></trkpt><trkpt lat="53.77966081242143" lon="14.687099473722043"><ele>20.0</ele><time>2026-04-12T11:57:12.877Z</time></trkpt><trkpt lat="53.77971772414772" lon="14.686985625499501"><ele>21.0</ele><time>2026-04-12T11:57:13.877Z</time></trkpt><trkpt lat="53.77977739855048" lon="14.686832362975142"><ele>22.0</ele><time>2026-04-12T11:57:14.877Z</time></trkpt><trkpt lat="53.77983574347334" lon="14.686712455688044"><ele>23.0</ele><time>2026-04-12T11:57:15.877Z</time></trkpt><trkpt lat="53.77989536037821" lon="14.686599576319033"><ele>24.0</ele><time>2026-04-12T11:57:16.877Z</time></trkpt><trkpt lat="53.77995757669283" lon="14.68646606795707"><ele>25.0</ele><time>2026-04-12T11:57:17.877Z</time></trkpt><trkpt lat="53.7800109780568" lon="14.686356162700166"><ele>25.0</ele><time>2026-04-12T11:57:18.877Z</time></trkpt><trkpt lat="53.78006074143879" lon="14.686254853749267"><ele>25.0</ele><time>2026-04-12T11:57:19.877Z</time></trkpt><trkpt lat="53.78012437669431" lon="14.68611157526776"><ele>25.0</ele><time>2026-04-12T11:57:20.877Z</time></trkpt><trkpt lat="53.780191144153875" lon="14.685978608607337"><ele>25.0</ele><time>2026-04-12T11:57:21.877Z</time></trkpt><trkpt lat="53.78027370273766" lon="14.685863675766692"><ele>25.0</ele><time>2026-04-12T11:57:22.877Z</time></trkpt><trkpt lat="53.78033488078129" lon="14.685763032743617"><ele>24.833333333333336</ele><time>2026-04-12T11:57:23.877Z</time></trkpt><trkpt lat="53.780382989281236" lon="14.685678016615675"><ele>24.666666666666668</ele><time>2026-04-12T11:57:24.877Z</time></trkpt><trkpt lat="53.78043781609022" lon="14.685559720281335"><ele>24.5</ele><time>2026-04-12T11:57:25.877Z</time></trkpt><trkpt lat="53.780485743312674" lon="14.685442843833675"><ele>24.333333333333336</ele><time>2026-04-12T11:57:26.877Z</time></trkpt><trkpt lat="53.78053770398026" lon="14.685305722910318"><ele>24.166666666666668</ele><time>2026-04-12T11:57:27.877Z</time></trkpt><trkpt lat="53.78058489712648" lon="14.68520015751953"><ele>24.0</ele><time>2026-04-12T11:57:28.877Z</time></trkpt><trkpt lat="53.780636279591704" lon="14.685099284933623"><ele>23.6</ele><time>2026-04-12T11:57:29.877Z</time></trkpt><trkpt lat="53.78068441732599" lon="14.684993213826841"><ele>23.2</ele><time>2026-04-12T11:57:30.877Z</time></trkpt><trkpt lat="53.78075660508985" lon="14.68480148274114"><ele>22.8</ele><time>2026-04-12T11:57:32.877Z</time></trkpt><trkpt lat="53.78078235582022" lon="14.684702967764876"><ele>22.400000000000002</ele><time>2026-04-12T11:57:33.877Z</time></trkpt><trkpt lat="53.7808231871136" lon="14.684553930532886"><ele>22.0</ele><time>2026-04-12T11:57:34.877Z</time></trkpt><trkpt lat="53.78087427208462" lon="14.684411774063147"><ele>22.400000000000002</ele><time>2026-04-12T11:57:35.877Z</time></trkpt><trkpt lat="53.78092304976704" lon="14.684295189056153"><ele>22.8</ele><time>2026-04-12T11:57:36.877Z</time></trkpt><trkpt lat="53.780991870421914" lon="14.684160177800509"><ele>23.2</ele><time>2026-04-12T11:57:37.877Z</time></trkpt><trkpt lat="53.78104067990987" lon="14.684057338119098"><ele>23.6</ele><time>2026-04-12T11:57:38.877Z</time></trkpt><trkpt lat="53.78109989749751" lon="14.683930055278053"><ele>24.0</ele><time>2026-04-12T11:57:39.877Z</time></trkpt><trkpt lat="53.78117943636713" lon="14.683740102124677"><ele>23.75</ele><time>2026-04-12T11:57:40.877Z</time></trkpt><trkpt lat="53.78126729318256" lon="14.683563909079728"><ele>23.5</ele><time>2026-04-12T11:57:41.875Z</time></trkpt><trkpt lat="53.78134541204397" lon="14.683398345964884"><ele>23.25</ele><time>2026-04-12T11:57:42.876Z</time></trkpt><trkpt lat="53.78142706160285" lon="14.683222909775242"><ele>23.0</ele><time>2026-04-12T11:57:43.876Z</time></trkpt><trkpt lat="53.7814835552864" lon="14.683033362731749"><ele>23.0</ele><time>2026-04-12T11:57:44.876Z</time></trkpt><trkpt lat="53.78153739864629" lon="14.682793512593028"><ele>23.0</ele><time>2026-04-12T11:57:45.876Z</time></trkpt><trkpt lat="53.78158044357223" lon="14.682596082928256"><ele>23.0</ele><time>2026-04-12T11:57:46.876Z</time></trkpt><trkpt lat="53.78161415952905" lon="14.682431316809108"><ele>23.0</ele><time>2026-04-12T11:57:47.875Z</time></trkpt><trkpt lat="53.78165290013299" lon="14.682243305707125"><ele>22.5</ele><time>2026-04-12T11:57:48.875Z</time></trkpt><trkpt lat="53.781689910826046" lon="14.682041758368603"><ele>22.0</ele><time>2026-04-12T11:57:49.875Z</time></trkpt><trkpt lat="53.781721617671884" lon="14.681816215182032"><ele>21.5</ele><time>2026-04-12T11:57:50.875Z</time></trkpt><trkpt lat="53.78174533127843" lon="14.681594864748874"><ele>21.0</ele><time>2026-04-12T11:57:51.875Z</time></trkpt><trkpt lat="53.781756794223405" lon="14.681381937055347"><ele>20.5</ele><time>2026-04-12T11:57:52.875Z</time></trkpt><trkpt lat="53.78176097090274" lon="14.68116492971027"><ele>20.0</ele><time>2026-04-12T11:57:53.876Z</time></trkpt><trkpt lat="53.78175502236382" lon="14.680961000843059"><ele>19.5</ele><time>2026-04-12T11:57:54.875Z</time></trkpt><trkpt lat="53.78174624983364" lon="14.680739287752624"><ele>19.0</ele><time>2026-04-12T11:57:55.875Z</time></trkpt><trkpt lat="53.781745237361505" lon="14.680546764298287"><ele>18.599999999999998</ele><time>2026-04-12T11:57:56.875Z</time></trkpt><trkpt lat="53.781750851705006" lon="14.68036628488317"><ele>18.2</ele><time>2026-04-12T11:57:57.875Z</time></trkpt><trkpt lat="53.78173872764969" lon="14.680203159229283"><ele>17.799999999999997</ele><time>2026-04-12T11:57:58.875Z</time></trkpt><trkpt lat="53.78172890078814" lon="14.680075680053642"><ele>17.4</ele><time>2026-04-12T11:57:59.875Z</time></trkpt><trkpt lat="53.781723683156144" lon="14.67994117159814"><ele>17.0</ele><time>2026-04-12T11:58:00.875Z</time></trkpt><trkpt lat="53.78173120166262" lon="14.679768489118766"><ele>17.0</ele><time>2026-04-12T11:58:01.875Z</time></trkpt><trkpt lat="53.781730624363284" lon="14.679577969076117"><ele>17.0</ele><time>2026-04-12T11:58:02.875Z</time></trkpt><trkpt lat="53.78174554843193" lon="14.679413591763302"><ele>17.0</ele><time>2026-04-12T11:58:03.875Z</time></trkpt><trkpt lat="53.781759081194494" lon="14.679241877932931"><ele>17.0</ele><time>2026-04-12T11:58:04.875Z</time></trkpt><trkpt lat="53.78177640968514" lon="14.679067346582162"><ele>17.0</ele><time>2026-04-12T11:58:05.875Z</time></trkpt><trkpt lat="53.78178826539686" lon="14.678912576469754"><ele>16.8</ele><time>2026-04-12T11:58:06.875Z</time></trkpt><trkpt lat="53.78180004213161" lon="14.678732434550133"><ele>16.6</ele><time>2026-04-12T11:58:07.875Z</time></trkpt><trkpt lat="53.78180258722007" lon="14.678572383629259"><ele>16.400000000000002</ele><time>2026-04-12T11:58:08.875Z</time></trkpt><trkpt lat="53.781830411199564" lon="14.678386908373355"><ele>16.2</ele><time>2026-04-12T11:58:10.875Z</time></trkpt><trkpt lat="53.78182656263082" lon="14.678240124295444"><ele>16.0</ele><time>2026-04-12T11:58:11.875Z</time></trkpt><trkpt lat="53.781836746800714" lon="14.678077356115097"><ele>16.0</ele><time>2026-04-12T11:58:12.875Z</time></trkpt><trkpt lat="53.78184303308926" lon="14.677941444767152"><ele>16.0</ele><time>2026-04-12T11:58:13.875Z</time></trkpt><trkpt lat="53.78185327052962" lon="14.677781557249087"><ele>16.0</ele><time>2026-04-12T11:58:14.875Z</time></trkpt><trkpt lat="53.781858091483656" lon="14.677630488407509"><ele>16.0</ele><time>2026-04-12T11:58:15.875Z</time></trkpt><trkpt lat="53.78186217209954" lon="14.677438926116443"><ele>16.0</ele><time>2026-04-12T11:58:16.875Z</time></trkpt><trkpt lat="53.78187885226658" lon="14.677226385140933"><ele>16.6</ele><time>2026-04-12T11:58:17.875Z</time></trkpt><trkpt lat="53.781881596746956" lon="14.677021859300332"><ele>17.200000000000003</ele><time>2026-04-12T11:58:18.875Z</time></trkpt><trkpt lat="53.78188937279792" lon="14.676882859217022"><ele>17.799999999999997</ele><time>2026-04-12T11:58:19.875Z</time></trkpt><trkpt lat="53.78190601693587" lon="14.676742007083496"><ele>18.4</ele><time>2026-04-12T11:58:20.875Z</time></trkpt><trkpt lat="53.78192168260924" lon="14.67655432346997"><ele>19.0</ele><time>2026-04-12T11:58:21.875Z</time></trkpt><trkpt lat="53.78191032968562" lon="14.676385535591468"><ele>19.0</ele><time>2026-04-12T11:58:22.875Z</time></trkpt><trkpt lat="53.78190971765727" lon="14.676223977705623"><ele>19.0</ele><time>2026-04-12T11:58:23.875Z</time></trkpt><trkpt lat="53.781917153739855" lon="14.676050546164753"><ele>19.0</ele><time>2026-04-12T11:58:24.875Z</time></trkpt><trkpt lat="53.78192374458906" lon="14.67586152802036"><ele>19.0</ele><time>2026-04-12T11:58:25.875Z</time></trkpt><trkpt lat="53.781930580404406" lon="14.675704330956496"><ele>19.0</ele><time>2026-04-12T11:58:26.875Z</time></trkpt><trkpt lat="53.78194107897439" lon="14.675558477710718"><ele>19.0</ele><time>2026-04-12T11:58:27.875Z</time></trkpt><trkpt lat="53.781952994644364" lon="14.675440402583778"><ele>19.0</ele><time>2026-04-12T11:58:28.875Z</time></trkpt><trkpt lat="53.78198141285641" lon="14.675344373123728"><ele>19.0</ele><time>2026-04-12T11:58:30.875Z</time></trkpt><trkpt lat="53.78201604070853" lon="14.675233411216974"><ele>19.0</ele><time>2026-04-12T11:58:33.875Z</time></trkpt><trkpt lat="53.78218211917751" lon="14.675238835983725"><ele>19.0</ele><time>2026-04-12T11:59:13.875Z</time></trkpt><trkpt lat="53.782250400940725" lon="14.675325065702312"><ele>19.0</ele><time>2026-04-12T11:59:14.875Z</time></trkpt><trkpt lat="53.782304187457626" lon="14.675449019362455"><ele>19.0</ele><time>2026-04-12T11:59:15.875Z</time></trkpt><trkpt lat="53.782372646654885" lon="14.675518633842307"><ele>19.0</ele><time>2026-04-12T11:59:16.875Z</time></trkpt><trkpt lat="53.78245614899813" lon="14.675603515879589"><ele>19.0</ele><time>2026-04-12T11:59:17.875Z</time></trkpt><trkpt lat="53.7825876449678" lon="14.675682916321266"><ele>19.0</ele><time>2026-04-12T11:59:18.875Z</time></trkpt><trkpt lat="53.78271127170041" lon="14.675795500667611"><ele>18.666666666666664</ele><time>2026-04-12T11:59:19.875Z</time></trkpt><trkpt lat="53.78285154459128" lon="14.675911276070702"><ele>18.333333333333332</ele><time>2026-04-12T11:59:20.875Z</time></trkpt><trkpt lat="53.783000556495224" lon="14.676041758621896"><ele>18.0</ele><time>2026-04-12T11:59:21.875Z</time></trkpt><trkpt lat="53.783135057156564" lon="14.676166231515172"><ele>18.0</ele><time>2026-04-12T11:59:22.875Z</time></trkpt><trkpt lat="53.783283358484546" lon="14.67626925927003"><ele>18.0</ele><time>2026-04-12T11:59:23.875Z</time></trkpt><trkpt lat="53.78343416633195" lon="14.67637826192494"><ele>18.0</ele><time>2026-04-12T11:59:24.875Z</time></trkpt><trkpt lat="53.78359576482004" lon="14.676525327164684"><ele>18.0</ele><time>2026-04-12T11:59:25.875Z</time></trkpt><trkpt lat="53.78377654134875" lon="14.67664440108846"><ele>18.0</ele><time>2026-04-12T11:59:26.875Z</time></trkpt><trkpt lat="53.78394347738972" lon="14.676754015034495"><ele>18.0</ele><time>2026-04-12T11:59:27.875Z</time></trkpt><trkpt lat="53.78410382939197" lon="14.676837953973576"><ele>19.0</ele><time>2026-04-12T11:59:28.875Z</time></trkpt><trkpt lat="53.78425495149323" lon="14.67693600797706"><ele>20.0</ele><time>2026-04-12T11:59:29.875Z</time></trkpt><trkpt lat="53.78441394342031" lon="14.67706230531216"><ele>21.0</ele><time>2026-04-12T11:59:30.875Z</time></trkpt><trkpt lat="53.78458349735007" lon="14.677146334215436"><ele>21.333333333333332</ele><time>2026-04-12T11:59:31.875Z</time></trkpt><trkpt lat="53.784737084254935" lon="14.677272891611977"><ele>21.666666666666664</ele><time>2026-04-12T11:59:32.875Z</time></trkpt><trkpt lat="53.78488003661662" lon="14.677366327849652"><ele>22.0</ele><time>2026-04-12T11:59:33.875Z</time></trkpt><trkpt lat="53.78503624740097" lon="14.67746886924898"><ele>22.0</ele><time>2026-04-12T11:59:34.875Z</time></trkpt><trkpt lat="53.78517857146186" lon="14.677566537446575"><ele>22.0</ele><time>2026-04-12T11:59:35.875Z</time></trkpt><trkpt lat="53.78531924192742" lon="14.677663006252837"><ele>22.0</ele><time>2026-04-12T11:59:36.875Z</time></trkpt><trkpt lat="53.785456367513596" lon="14.677757790734123"><ele>22.0</ele><time>2026-04-12T11:59:37.875Z</time></trkpt><trkpt lat="53.78558009858476" lon="14.677836387881214"><ele>22.0</ele><time>2026-04-12T11:59:38.875Z</time></trkpt><trkpt lat="53.78570271385986" lon="14.67791517626251"><ele>22.0</ele><time>2026-04-12T11:59:39.875Z</time></trkpt><trkpt lat="53.785838079540845" lon="14.677971471107355"><ele>22.0</ele><time>2026-04-12T11:59:40.875Z</time></trkpt><trkpt lat="53.78596734248094" lon="14.678058883038661"><ele>20.0</ele><time>2026-04-12T11:59:41.875Z</time></trkpt><trkpt lat="53.78611160951413" lon="14.678148422050413"><ele>18.0</ele><time>2026-04-12T11:59:42.875Z</time></trkpt><trkpt lat="53.786259456026386" lon="14.678235125714746"><ele>16.0</ele><time>2026-04-12T11:59:43.875Z</time></trkpt><trkpt lat="53.786409228721105" lon="14.678341695449303"><ele>16.0</ele><time>2026-04-12T11:59:44.875Z</time></trkpt><trkpt lat="53.78656450133584" lon="14.678436347664029"><ele>16.0</ele><time>2026-04-12T11:59:45.875Z</time></trkpt><trkpt lat="53.78672014806842" lon="14.678539921681669"><ele>16.0</ele><time>2026-04-12T11:59:46.875Z</time></trkpt><trkpt lat="53.786874663541745" lon="14.678635802394766"><ele>16.333333333333332</ele><time>2026-04-12T11:59:47.874Z</time></trkpt><trkpt lat="53.78702824700523" lon="14.678722657909352"><ele>16.666666666666668</ele><time>2026-04-12T11:59:48.873Z</time></trkpt><trkpt lat="53.787169611063376" lon="14.678812602380836"><ele>17.0</ele><time>2026-04-12T11:59:49.873Z</time></trkpt><trkpt lat="53.78730874745294" lon="14.67891622941257"><ele>17.0</ele><time>2026-04-12T11:59:50.873Z</time></trkpt><trkpt lat="53.78746339385733" lon="14.679001632578272"><ele>17.0</ele><time>2026-04-12T11:59:51.874Z</time></trkpt><trkpt lat="53.78761309497063" lon="14.6790960799695"><ele>17.0</ele><time>2026-04-12T11:59:52.874Z</time></trkpt><trkpt lat="53.78777331167662" lon="14.679205168296248"><ele>18.333333333333336</ele><time>2026-04-12T11:59:53.874Z</time></trkpt><trkpt lat="53.7879195509586" lon="14.679300924137916"><ele>19.666666666666668</ele><time>2026-04-12T11:59:54.874Z</time></trkpt><trkpt lat="53.78806371716561" lon="14.679407163498505"><ele>21.0</ele><time>2026-04-12T11:59:55.874Z</time></trkpt><trkpt lat="53.7881944267159" lon="14.679538237783344"><ele>21.0</ele><time>2026-04-12T11:59:56.874Z</time></trkpt><trkpt lat="53.788342337412644" lon="14.679655138461607"><ele>21.0</ele><time>2026-04-12T11:59:57.873Z</time></trkpt><trkpt lat="53.78850006654813" lon="14.679782880621715"><ele>21.0</ele><time>2026-04-12T11:59:58.873Z</time></trkpt><trkpt lat="53.78864806023808" lon="14.679903735239506"><ele>22.0</ele><time>2026-04-12T11:59:59.874Z</time></trkpt><trkpt lat="53.78881487106886" lon="14.680041358883551"><ele>23.0</ele><time>2026-04-12T12:00:00.873Z</time></trkpt><trkpt lat="53.78898417134085" lon="14.680183542381274"><ele>24.0</ele><time>2026-04-12T12:00:01.873Z</time></trkpt><trkpt lat="53.789168791482645" lon="14.680340867216747"><ele>22.666666666666668</ele><time>2026-04-12T12:00:02.873Z</time></trkpt><trkpt lat="53.789353222848085" lon="14.68050231992428"><ele>21.333333333333336</ele><time>2026-04-12T12:00:03.873Z</time></trkpt><trkpt lat="53.789523780009134" lon="14.680653902002087"><ele>20.0</ele><time>2026-04-12T12:00:04.873Z</time></trkpt><trkpt lat="53.78968065551325" lon="14.680796589289873"><ele>20.0</ele><time>2026-04-12T12:00:05.873Z</time></trkpt><trkpt lat="53.78984924069106" lon="14.680951367346044"><ele>20.0</ele><time>2026-04-12T12:00:06.873Z</time></trkpt><trkpt lat="53.79000792630244" lon="14.681097618430732"><ele>20.0</ele><time>2026-04-12T12:00:07.873Z</time></trkpt><trkpt lat="53.79016815121376" lon="14.68124340985175"><ele>20.0</ele><time>2026-04-12T12:00:08.873Z</time></trkpt><trkpt lat="53.79032696700352" lon="14.681384657560528"><ele>20.0</ele><time>2026-04-12T12:00:09.873Z</time></trkpt><trkpt lat="53.79049262425649" lon="14.681524605576044"><ele>20.0</ele><time>2026-04-12T12:00:10.873Z</time></trkpt><trkpt lat="53.79066412536484" lon="14.681657549124342"><ele>20.0</ele><time>2026-04-12T12:00:11.873Z</time></trkpt><trkpt lat="53.7908437151629" lon="14.68178571889195"><ele>20.0</ele><time>2026-04-12T12:00:12.873Z</time></trkpt><trkpt lat="53.79103171402756" lon="14.681926772821331"><ele>20.0</ele><time>2026-04-12T12:00:13.873Z</time></trkpt><trkpt lat="53.791226249166" lon="14.68207481950854"><ele>19.333333333333336</ele><time>2026-04-12T12:00:14.873Z</time></trkpt><trkpt lat="53.791429931852164" lon="14.682228824094958"><ele>18.666666666666668</ele><time>2026-04-12T12:00:15.873Z</time></trkpt><trkpt lat="53.7916335645723" lon="14.682374073664986"><ele>18.0</ele><time>2026-04-12T12:00:16.873Z</time></trkpt><trkpt lat="53.79183478828781" lon="14.682485511177815"><ele>16.0</ele><time>2026-04-12T12:00:17.873Z</time></trkpt><trkpt lat="53.79202226833431" lon="14.682618081211624"><ele>14.0</ele><time>2026-04-12T12:00:18.873Z</time></trkpt><trkpt lat="53.79219215425903" lon="14.682728557991343"><ele>12.0</ele><time>2026-04-12T12:00:19.873Z</time></trkpt><trkpt lat="53.79235540899017" lon="14.682828617847404"><ele>12.0</ele><time>2026-04-12T12:00:20.873Z</time></trkpt><trkpt lat="53.792487560337825" lon="14.682903239138543"><ele>12.0</ele><time>2026-04-12T12:00:21.873Z</time></trkpt><trkpt lat="53.79260985046121" lon="14.683004610740099"><ele>12.0</ele><time>2026-04-12T12:00:22.873Z</time></trkpt><trkpt lat="53.7927258370227" lon="14.683027999429466"><ele>12.0</ele><time>2026-04-12T12:00:23.873Z</time></trkpt><trkpt lat="53.79280460966019" lon="14.683073625418425"><ele>10.6</ele><time>2026-04-12T12:00:24.873Z</time></trkpt><trkpt lat="53.79289787285101" lon="14.683061531593816"><ele>9.2</ele><time>2026-04-12T12:00:26.873Z</time></trkpt><trkpt lat="53.7930234350434" lon="14.683037310530409"><ele>7.8</ele><time>2026-04-12T12:00:28.873Z</time></trkpt><trkpt lat="53.793107181616726" lon="14.683030339747546"><ele>6.4</ele><time>2026-04-12T12:00:29.873Z</time></trkpt><trkpt lat="53.79321193225106" lon="14.682993137214408"><ele>5.0</ele><time>2026-04-12T12:00:30.873Z</time></trkpt><trkpt lat="53.79328249491261" lon="14.682987723278293"><ele>5.0</ele><time>2026-04-12T12:00:31.873Z</time></trkpt><trkpt lat="53.79334936752618" lon="14.682986785764498"><ele>5.0</ele><time>2026-04-12T12:00:32.873Z</time></trkpt><trkpt lat="53.79341796652604" lon="14.682945142440722"><ele>5.0</ele><time>2026-04-12T12:00:33.873Z</time></trkpt><trkpt lat="53.79349557804123" lon="14.682928105615524"><ele>5.0</ele><time>2026-04-12T12:00:34.873Z</time></trkpt><trkpt lat="53.79356860603986" lon="14.682864859172986"><ele>5.0</ele><time>2026-04-12T12:00:35.873Z</time></trkpt><trkpt lat="53.79370749137333" lon="14.682752145829422"><ele>5.6</ele><time>2026-04-12T12:00:37.873Z</time></trkpt><trkpt lat="53.7937901403447" lon="14.682659124158901"><ele>6.2</ele><time>2026-04-12T12:00:38.873Z</time></trkpt><trkpt lat="53.7938518959055" lon="14.682586776644463"><ele>6.800000000000001</ele><time>2026-04-12T12:00:39.873Z</time></trkpt><trkpt lat="53.79391788716355" lon="14.682498425512946"><ele>7.4</ele><time>2026-04-12T12:00:40.873Z</time></trkpt><trkpt lat="53.79397957445006" lon="14.682371652838823"><ele>8.0</ele><time>2026-04-12T12:00:41.873Z</time></trkpt><trkpt lat="53.794092123190644" lon="14.682229545023453"><ele>8.0</ele><time>2026-04-12T12:00:42.873Z</time></trkpt><trkpt lat="53.7941759662081" lon="14.682092878042896"><ele>8.0</ele><time>2026-04-12T12:00:43.873Z</time></trkpt><trkpt lat="53.79425137200818" lon="14.681983683683507"><ele>8.0</ele><time>2026-04-12T12:00:44.873Z</time></trkpt><trkpt lat="53.79432429488652" lon="14.68188590064821"><ele>8.0</ele><time>2026-04-12T12:00:45.873Z</time></trkpt><trkpt lat="53.79440994429754" lon="14.681762922877223"><ele>8.0</ele><time>2026-04-12T12:00:46.873Z</time></trkpt><trkpt lat="53.794506507820834" lon="14.68166923195276"><ele>7.4</ele><time>2026-04-12T12:00:47.873Z</time></trkpt><trkpt lat="53.79459603974628" lon="14.681588602167714"><ele>6.800000000000001</ele><time>2026-04-12T12:00:48.873Z</time></trkpt><trkpt lat="53.794679793251426" lon="14.681480399857856"><ele>6.2</ele><time>2026-04-12T12:00:49.873Z</time></trkpt><trkpt lat="53.79476391230695" lon="14.681384961622664"><ele>5.6</ele><time>2026-04-12T12:00:50.873Z</time></trkpt><trkpt lat="53.79486416680017" lon="14.681227317651853"><ele>5.0</ele><time>2026-04-12T12:00:51.873Z</time></trkpt><trkpt lat="53.79494885081982" lon="14.681104951680684"><ele>5.0</ele><time>2026-04-12T12:00:52.873Z</time></trkpt><trkpt lat="53.79502988557842" lon="14.68098498821426"><ele>5.0</ele><time>2026-04-12T12:00:53.873Z</time></trkpt><trkpt lat="53.79511483011299" lon="14.680864418459889"><ele>5.0</ele><time>2026-04-12T12:00:54.873Z</time></trkpt><trkpt lat="53.79521034393947" lon="14.68073036661073"><ele>5.0</ele><time>2026-04-12T12:00:55.873Z</time></trkpt><trkpt lat="53.795306413002834" lon="14.680590565142921"><ele>5.0</ele><time>2026-04-12T12:00:56.873Z</time></trkpt><trkpt lat="53.79539076577391" lon="14.680466939901926"><ele>5.0</ele><time>2026-04-12T12:00:57.873Z</time></trkpt><trkpt lat="53.79545904105152" lon="14.680357605975837"><ele>5.0</ele><time>2026-04-12T12:00:58.873Z</time></trkpt><trkpt lat="53.79554055084075" lon="14.680274634564645"><ele>5.0</ele><time>2026-04-12T12:00:59.873Z</time></trkpt><trkpt lat="53.795612457863825" lon="14.680176606801718"><ele>5.0</ele><time>2026-04-12T12:01:00.873Z</time></trkpt><trkpt lat="53.7956991023176" lon="14.680111530963147"><ele>4.8</ele><time>2026-04-12T12:01:01.873Z</time></trkpt><trkpt lat="53.79579667487564" lon="14.680039205841304"><ele>4.6</ele><time>2026-04-12T12:01:02.873Z</time></trkpt><trkpt lat="53.79590855226966" lon="14.679964397447135"><ele>4.4</ele><time>2026-04-12T12:01:03.873Z</time></trkpt><trkpt lat="53.79599930086849" lon="14.679903885496046"><ele>4.2</ele><time>2026-04-12T12:01:04.873Z</time></trkpt><trkpt lat="53.79609268346169" lon="14.679812803225321"><ele>4.0</ele><time>2026-04-12T12:01:05.873Z</time></trkpt><trkpt lat="53.796182605611854" lon="14.679745988768813"><ele>4.0</ele><time>2026-04-12T12:01:06.873Z</time></trkpt><trkpt lat="53.79628409463363" lon="14.679676944964942"><ele>4.0</ele><time>2026-04-12T12:01:07.873Z</time></trkpt><trkpt lat="53.796368881717235" lon="14.679617170867994"><ele>4.0</ele><time>2026-04-12T12:01:08.873Z</time></trkpt><trkpt lat="53.79644788307776" lon="14.679562435839179"><ele>4.0</ele><time>2026-04-12T12:01:09.873Z</time></trkpt><trkpt lat="53.79653167932596" lon="14.679495266271001"><ele>4.0</ele><time>2026-04-12T12:01:10.873Z</time></trkpt><trkpt lat="53.79662458037289" lon="14.67942864321066"><ele>4.25</ele><time>2026-04-12T12:01:11.873Z</time></trkpt><trkpt lat="53.79673862346124" lon="14.679352723751837"><ele>4.5</ele><time>2026-04-12T12:01:12.873Z</time></trkpt><trkpt lat="53.7968484924281" lon="14.679290664468722"><ele>4.75</ele><time>2026-04-12T12:01:13.873Z</time></trkpt><trkpt lat="53.79696087313614" lon="14.67921464713865"><ele>5.0</ele><time>2026-04-12T12:01:14.873Z</time></trkpt><trkpt lat="53.79707370008496" lon="14.679170374250411"><ele>5.75</ele><time>2026-04-12T12:01:15.873Z</time></trkpt><trkpt lat="53.79719278702674" lon="14.679097276504834"><ele>6.5</ele><time>2026-04-12T12:01:16.873Z</time></trkpt><trkpt lat="53.797331152088006" lon="14.679013169739397"><ele>7.25</ele><time>2026-04-12T12:01:17.873Z</time></trkpt><trkpt lat="53.79744653787577" lon="14.678945607661783"><ele>8.0</ele><time>2026-04-12T12:01:18.873Z</time></trkpt><trkpt lat="53.79755295082471" lon="14.678885537060196"><ele>8.0</ele><time>2026-04-12T12:01:19.873Z</time></trkpt><trkpt lat="53.79764170448472" lon="14.678841553787297"><ele>8.0</ele><time>2026-04-12T12:01:20.873Z</time></trkpt><trkpt lat="53.79774046909398" lon="14.67879771100601"><ele>8.0</ele><time>2026-04-12T12:01:21.873Z</time></trkpt><trkpt lat="53.79783896071452" lon="14.67874608377102"><ele>8.0</ele><time>2026-04-12T12:01:22.873Z</time></trkpt><trkpt lat="53.79793143585627" lon="14.678740254469828"><ele>8.0</ele><time>2026-04-12T12:01:23.873Z</time></trkpt><trkpt lat="53.79802525814185" lon="14.678746500941372"><ele>8.200000000000001</ele><time>2026-04-12T12:01:24.873Z</time></trkpt><trkpt lat="53.79810634417543" lon="14.678746128542167"><ele>8.4</ele><time>2026-04-12T12:01:25.873Z</time></trkpt><trkpt lat="53.7982014965745" lon="14.678787009172433"><ele>8.600000000000001</ele><time>2026-04-12T12:01:26.873Z</time></trkpt><trkpt lat="53.798307432388036" lon="14.678876560380155"><ele>8.8</ele><time>2026-04-12T12:01:27.873Z</time></trkpt><trkpt lat="53.79842104966193" lon="14.678997012852463"><ele>9.0</ele><time>2026-04-12T12:01:28.873Z</time></trkpt><trkpt lat="53.79854008255657" lon="14.679117785970453"><ele>9.0</ele><time>2026-04-12T12:01:29.873Z</time></trkpt><trkpt lat="53.7986585005238" lon="14.679224961498663"><ele>9.0</ele><time>2026-04-12T12:01:30.873Z</time></trkpt><trkpt lat="53.79879293400503" lon="14.679345923514266"><ele>9.0</ele><time>2026-04-12T12:01:31.873Z</time></trkpt><trkpt lat="53.798956759276486" lon="14.679500214633922"><ele>9.0</ele><time>2026-04-12T12:01:32.873Z</time></trkpt><trkpt lat="53.79909080055537" lon="14.67962733602887"><ele>9.0</ele><time>2026-04-12T12:01:33.873Z</time></trkpt><trkpt lat="53.79919951018137" lon="14.679732389606427"><ele>9.0</ele><time>2026-04-12T12:01:34.873Z</time></trkpt><trkpt lat="53.79931919485152" lon="14.679847367418999"><ele>9.0</ele><time>2026-04-12T12:01:35.873Z</time></trkpt><trkpt lat="53.799413991114974" lon="14.680052771673463"><ele>9.0</ele><time>2026-04-12T12:01:36.873Z</time></trkpt><trkpt lat="53.79955021591866" lon="14.680162962063154"><ele>9.0</ele><time>2026-04-12T12:01:37.873Z</time></trkpt><trkpt lat="53.799671499248305" lon="14.680263798729259"><ele>9.0</ele><time>2026-04-12T12:01:38.873Z</time></trkpt><trkpt lat="53.799788792721046" lon="14.680376796554482"><ele>9.0</ele><time>2026-04-12T12:01:39.873Z</time></trkpt><trkpt lat="53.79990786195738" lon="14.680487647796184"><ele>9.333333333333334</ele><time>2026-04-12T12:01:40.873Z</time></trkpt><trkpt lat="53.8000310292279" lon="14.680621651509757"><ele>9.666666666666668</ele><time>2026-04-12T12:01:41.873Z</time></trkpt><trkpt lat="53.80018639895466" lon="14.680770859668076"><ele>10.0</ele><time>2026-04-12T12:01:42.873Z</time></trkpt><trkpt lat="53.80032320137477" lon="14.680890732056879"><ele>9.75</ele><time>2026-04-12T12:01:43.873Z</time></trkpt><trkpt lat="53.800444298854806" lon="14.681006660256166"><ele>9.5</ele><time>2026-04-12T12:01:44.873Z</time></trkpt><trkpt lat="53.80057610697495" lon="14.681151088722421"><ele>9.25</ele><time>2026-04-12T12:01:45.873Z</time></trkpt><trkpt lat="53.80069090044339" lon="14.68124321811163"><ele>9.0</ele><time>2026-04-12T12:01:46.873Z</time></trkpt><trkpt lat="53.80079934312826" lon="14.681336145721282"><ele>9.0</ele><time>2026-04-12T12:01:47.873Z</time></trkpt><trkpt lat="53.800915151065944" lon="14.681442697902382"><ele>9.0</ele><time>2026-04-12T12:01:48.873Z</time></trkpt><trkpt lat="53.801028346648906" lon="14.681548566972177"><ele>9.0</ele><time>2026-04-12T12:01:49.873Z</time></trkpt><trkpt lat="53.80114447676371" lon="14.681669060311707"><ele>9.0</ele><time>2026-04-12T12:01:50.873Z</time></trkpt><trkpt lat="53.801243023199866" lon="14.681770501069197"><ele>8.5</ele><time>2026-04-12T12:01:51.874Z</time></trkpt><trkpt lat="53.80136015660962" lon="14.681883669691674"><ele>8.0</ele><time>2026-04-12T12:01:52.875Z</time></trkpt><trkpt lat="53.801475332215226" lon="14.681997572958922"><ele>7.5</ele><time>2026-04-12T12:01:53.876Z</time></trkpt><trkpt lat="53.8015916976606" lon="14.682107773797583"><ele>7.0</ele><time>2026-04-12T12:01:54.878Z</time></trkpt><trkpt lat="53.801711316405246" lon="14.682216050510007"><ele>7.0</ele><time>2026-04-12T12:01:55.879Z</time></trkpt><trkpt lat="53.80181831867975" lon="14.68230999485795"><ele>7.0</ele><time>2026-04-12T12:01:56.881Z</time></trkpt><trkpt lat="53.80192679066012" lon="14.68239653947299"><ele>7.0</ele><time>2026-04-12T12:01:57.883Z</time></trkpt><trkpt lat="53.80201487703893" lon="14.682480649725065"><ele>7.0</ele><time>2026-04-12T12:01:58.884Z</time></trkpt><trkpt lat="53.802114856457926" lon="14.682576564602352"><ele>7.5</ele><time>2026-04-12T12:01:59.885Z</time></trkpt><trkpt lat="53.80222446774538" lon="14.682680892470602"><ele>8.0</ele><time>2026-04-12T12:02:00.886Z</time></trkpt><trkpt lat="53.80233629840287" lon="14.682787757328327"><ele>8.5</ele><time>2026-04-12T12:02:01.887Z</time></trkpt><trkpt lat="53.802433154631366" lon="14.682875874810835"><ele>9.0</ele><time>2026-04-12T12:02:02.888Z</time></trkpt><trkpt lat="53.802536897041634" lon="14.682971097855466"><ele>9.0</ele><time>2026-04-12T12:02:03.889Z</time></trkpt><trkpt lat="53.80260556325271" lon="14.683025221919454"><ele>9.0</ele><time>2026-04-12T12:02:04.891Z</time></trkpt><trkpt lat="53.80270626536021" lon="14.683112802262068"><ele>9.0</ele><time>2026-04-12T12:02:06.892Z</time></trkpt><trkpt lat="53.80276882460699" lon="14.683180135361829"><ele>9.0</ele><time>2026-04-12T12:02:08.894Z</time></trkpt><trkpt lat="53.80284343359182" lon="14.6831166132345"><ele>9.0</ele><time>2026-04-12T12:02:13.897Z</time></trkpt><trkpt lat="53.802910258126" lon="14.682937025956234"><ele>8.666666666666666</ele><time>2026-04-12T12:02:15.898Z</time></trkpt><trkpt lat="53.8029582984599" lon="14.682809326956365"><ele>8.333333333333334</ele><time>2026-04-12T12:02:16.898Z</time></trkpt><trkpt lat="53.80299438163066" lon="14.68271828941436"><ele>8.0</ele><time>2026-04-12T12:02:17.899Z</time></trkpt><trkpt lat="53.80302933969185" lon="14.682624021945731"><ele>7.666666666666667</ele><time>2026-04-12T12:02:18.899Z</time></trkpt><trkpt lat="53.80306599919534" lon="14.682524193316237"><ele>7.333333333333334</ele><time>2026-04-12T12:02:19.899Z</time></trkpt><trkpt lat="53.80313486150445" lon="14.68235002076172"><ele>7.0</ele><time>2026-04-12T12:02:21.9Z</time></trkpt><trkpt lat="53.80317459734515" lon="14.682253128628599"><ele>7.0</ele><time>2026-04-12T12:02:22.9Z</time></trkpt><trkpt lat="53.80322721088782" lon="14.682135409097429"><ele>6.999999999999999</ele><time>2026-04-12T12:02:23.9Z</time></trkpt><trkpt lat="53.80327729923039" lon="14.682014746533694"><ele>6.999999999999999</ele><time>2026-04-12T12:02:24.901Z</time></trkpt><trkpt lat="53.80333208816065" lon="14.681883998531033"><ele>7.0</ele><time>2026-04-12T12:02:25.901Z</time></trkpt><trkpt lat="53.80339746446011" lon="14.681749833882414"><ele>7.0</ele><time>2026-04-12T12:02:26.901Z</time></trkpt><trkpt lat="53.80345638759497" lon="14.681604571710029"><ele>6.199999999999999</ele><time>2026-04-12T12:02:27.901Z</time></trkpt><trkpt lat="53.8035172357921" lon="14.68148316654498"><ele>5.3999999999999995</ele><time>2026-04-12T12:02:28.902Z</time></trkpt><trkpt lat="53.803583990160455" lon="14.681333516869241"><ele>4.6</ele><time>2026-04-12T12:02:29.902Z</time></trkpt><trkpt lat="53.803653804660996" lon="14.681219134659626"><ele>3.8</ele><time>2026-04-12T12:02:30.902Z</time></trkpt><trkpt lat="53.803702138819844" lon="14.681092824583963"><ele>3.0</ele><time>2026-04-12T12:02:31.902Z</time></trkpt><trkpt lat="53.803751100170636" lon="14.680996815384825"><ele>3.0</ele><time>2026-04-12T12:02:32.902Z</time></trkpt><trkpt lat="53.80381089183392" lon="14.680886479355895"><ele>3.0</ele><time>2026-04-12T12:02:33.902Z</time></trkpt><trkpt lat="53.80387764781941" lon="14.680757226285237"><ele>3.0</ele><time>2026-04-12T12:02:34.903Z</time></trkpt><trkpt lat="53.80393545953796" lon="14.680628944593135"><ele>3.0</ele><time>2026-04-12T12:02:35.903Z</time></trkpt><trkpt lat="53.80401805667521" lon="14.680511903555933"><ele>3.0</ele><time>2026-04-12T12:02:36.903Z</time></trkpt><trkpt lat="53.80407794733418" lon="14.680391444407501"><ele>3.0</ele><time>2026-04-12T12:02:37.903Z</time></trkpt><trkpt lat="53.80412291705283" lon="14.680300985991781"><ele>3.0</ele><time>2026-04-12T12:02:38.903Z</time></trkpt><trkpt lat="53.804176490614466" lon="14.680194700315086"><ele>3.0</ele><time>2026-04-12T12:02:39.903Z</time></trkpt><trkpt lat="53.804226761248074" lon="14.68008583764611"><ele>3.0</ele><time>2026-04-12T12:02:40.903Z</time></trkpt><trkpt lat="53.804284467810035" lon="14.679968523774852"><ele>3.0</ele><time>2026-04-12T12:02:41.903Z</time></trkpt><trkpt lat="53.80435354731568" lon="14.679873758414562"><ele>3.0</ele><time>2026-04-12T12:02:42.903Z</time></trkpt><trkpt lat="53.80442372572261" lon="14.679769439358424"><ele>2.6666666666666665</ele><time>2026-04-12T12:02:43.903Z</time></trkpt><trkpt lat="53.80448613006737" lon="14.679671859758031"><ele>2.3333333333333335</ele><time>2026-04-12T12:02:44.903Z</time></trkpt><trkpt lat="53.80453321075633" lon="14.679571938606239"><ele>2.0</ele><time>2026-04-12T12:02:45.904Z</time></trkpt><trkpt lat="53.804564285007565" lon="14.67943596556249"><ele>1.6666666666666665</ele><time>2026-04-12T12:02:46.904Z</time></trkpt><trkpt lat="53.80459136483042" lon="14.679317251968738"><ele>1.3333333333333333</ele><time>2026-04-12T12:02:47.904Z</time></trkpt><trkpt lat="53.804578677248195" lon="14.67915362345828"><ele>1.0</ele><time>2026-04-12T12:02:48.904Z</time></trkpt><trkpt lat="53.80453215741813" lon="14.679081665858224"><ele>1.0</ele><time>2026-04-12T12:02:49.904Z</time></trkpt><trkpt lat="53.80447558513156" lon="14.678979214415586"><ele>1.0</ele><time>2026-04-12T12:02:50.904Z</time></trkpt><trkpt lat="53.80441093766824" lon="14.678814133116337"><ele>1.0</ele><time>2026-04-12T12:02:51.904Z</time></trkpt><trkpt lat="53.80430725784866" lon="14.678667243125524"><ele>1.0</ele><time>2026-04-12T12:02:52.904Z</time></trkpt><trkpt lat="53.80427237781791" lon="14.678559302950275"><ele>1.0</ele><time>2026-04-12T12:02:53.904Z</time></trkpt><trkpt lat="53.80421936117171" lon="14.67845502210225"><ele>0.9999999999999999</ele><time>2026-04-12T12:02:54.904Z</time></trkpt><trkpt lat="53.80416484609868" lon="14.678340933966632"><ele>1.0</ele><time>2026-04-12T12:02:55.904Z</time></trkpt><trkpt lat="53.80410160399172" lon="14.678226094990988"><ele>1.0</ele><time>2026-04-12T12:02:56.904Z</time></trkpt><trkpt lat="53.80406011715071" lon="14.67811917467056"><ele>1.0</ele><time>2026-04-12T12:02:57.904Z</time></trkpt><trkpt lat="53.80402345445142" lon="14.677983651424682"><ele>0.9999999999999999</ele><time>2026-04-12T12:02:58.904Z</time></trkpt><trkpt lat="53.80400711852953" lon="14.677832532829692"><ele>1.0</ele><time>2026-04-12T12:02:59.904Z</time></trkpt><trkpt lat="53.804036868008424" lon="14.677673289968357"><ele>1.0</ele><time>2026-04-12T12:03:00.904Z</time></trkpt><trkpt lat="53.80410227962761" lon="14.677569078717768"><ele>1.0</ele><time>2026-04-12T12:03:01.904Z</time></trkpt><trkpt lat="53.804160178267054" lon="14.67740625457496"><ele>1.0</ele><time>2026-04-12T12:03:02.904Z</time></trkpt><trkpt lat="53.80422432646936" lon="14.677226454470114"><ele>1.0</ele><time>2026-04-12T12:03:03.904Z</time></trkpt><trkpt lat="53.80428065354184" lon="14.677028698898393"><ele>0.8333333333333333</ele><time>2026-04-12T12:03:04.904Z</time></trkpt><trkpt lat="53.80434165974714" lon="14.676887457554676"><ele>0.6666666666666666</ele><time>2026-04-12T12:03:05.904Z</time></trkpt><trkpt lat="53.80438854416219" lon="14.676751323144533"><ele>0.5</ele><time>2026-04-12T12:03:06.904Z</time></trkpt><trkpt lat="53.80443397201492" lon="14.676632392555037"><ele>0.3333333333333333</ele><time>2026-04-12T12:03:07.904Z</time></trkpt><trkpt lat="53.80447843917341" lon="14.676514597150154"><ele>0.16666666666666666</ele><time>2026-04-12T12:03:08.904Z</time></trkpt><trkpt lat="53.804522919659235" lon="14.676392347374026"><ele>0.0</ele><time>2026-04-12T12:03:09.904Z</time></trkpt><trkpt lat="53.80458132897535" lon="14.676239319483074"><ele>0.0</ele><time>2026-04-12T12:03:10.904Z</time></trkpt><trkpt lat="53.804649309477774" lon="14.67605869422895"><ele>0.0</ele><time>2026-04-12T12:03:11.904Z</time></trkpt><trkpt lat="53.80472859955299" lon="14.675861317992988"><ele>0.0</ele><time>2026-04-12T12:03:12.904Z</time></trkpt><trkpt lat="53.804799028986366" lon="14.67565234541698"><ele>0.0</ele><time>2026-04-12T12:03:13.904Z</time></trkpt><trkpt lat="53.80486993962227" lon="14.675480538165138"><ele>0.0</ele><time>2026-04-12T12:03:14.904Z</time></trkpt><trkpt lat="53.80493271669026" lon="14.675317749117225"><ele>0.0</ele><time>2026-04-12T12:03:15.904Z</time></trkpt><trkpt lat="53.80499400867501" lon="14.675135705564841"><ele>0.0</ele><time>2026-04-12T12:03:16.904Z</time></trkpt><trkpt lat="53.80506640483602" lon="14.674971368703975"><ele>0.0</ele><time>2026-04-12T12:03:17.904Z</time></trkpt><trkpt lat="53.80513515197804" lon="14.674775491352266"><ele>0.25</ele><time>2026-04-12T12:03:18.904Z</time></trkpt><trkpt lat="53.80521296815748" lon="14.674577294119192"><ele>0.5</ele><time>2026-04-12T12:03:19.905Z</time></trkpt><trkpt lat="53.80528401288896" lon="14.674411788146427"><ele>0.75</ele><time>2026-04-12T12:03:20.905Z</time></trkpt><trkpt lat="53.805345048381476" lon="14.674220950064672"><ele>1.0</ele><time>2026-04-12T12:03:21.905Z</time></trkpt><trkpt lat="53.805420105631555" lon="14.674040838958096"><ele>1.0</ele><time>2026-04-12T12:03:22.905Z</time></trkpt><trkpt lat="53.805477808996834" lon="14.673882578844864"><ele>1.0</ele><time>2026-04-12T12:03:23.905Z</time></trkpt><trkpt lat="53.805529077669945" lon="14.673744940603646"><ele>1.0</ele><time>2026-04-12T12:03:24.905Z</time></trkpt><trkpt lat="53.80559194301678" lon="14.673589163112279"><ele>1.0</ele><time>2026-04-12T12:03:25.905Z</time></trkpt><trkpt lat="53.805656556415514" lon="14.673412209807521"><ele>1.0</ele><time>2026-04-12T12:03:26.905Z</time></trkpt><trkpt lat="53.80572209564696" lon="14.673239775953618"><ele>1.0</ele><time>2026-04-12T12:03:27.905Z</time></trkpt><trkpt lat="53.805784011840586" lon="14.673071515738373"><ele>1.0</ele><time>2026-04-12T12:03:28.905Z</time></trkpt><trkpt lat="53.80583523352484" lon="14.672907718778431"><ele>1.0</ele><time>2026-04-12T12:03:29.905Z</time></trkpt><trkpt lat="53.80588170298405" lon="14.672721251635652"><ele>1.0</ele><time>2026-04-12T12:03:30.905Z</time></trkpt><trkpt lat="53.805904758958604" lon="14.67252405633313"><ele>0.75</ele><time>2026-04-12T12:03:31.905Z</time></trkpt><trkpt lat="53.8059215237258" lon="14.672302952795967"><ele>0.5</ele><time>2026-04-12T12:03:32.905Z</time></trkpt><trkpt lat="53.80592758948926" lon="14.672094125913377"><ele>0.25</ele><time>2026-04-12T12:03:33.905Z</time></trkpt><trkpt lat="53.80595242471606" lon="14.671860581218281"><ele>0.0</ele><time>2026-04-12T12:03:34.905Z</time></trkpt><trkpt lat="53.80596631831556" lon="14.671635860210573"><ele>0.0</ele><time>2026-04-12T12:03:35.905Z</time></trkpt><trkpt lat="53.80598171280033" lon="14.671412203104047"><ele>0.0</ele><time>2026-04-12T12:03:36.905Z</time></trkpt><trkpt lat="53.805998116202865" lon="14.671177692569062"><ele>0.0</ele><time>2026-04-12T12:03:37.905Z</time></trkpt><trkpt lat="53.80601744774108" lon="14.670960245111287"><ele>0.0</ele><time>2026-04-12T12:03:38.905Z</time></trkpt><trkpt lat="53.80603416566766" lon="14.670737763068791"><ele>0.5</ele><time>2026-04-12T12:03:39.905Z</time></trkpt><trkpt lat="53.80604710027142" lon="14.670527946572983"><ele>1.0</ele><time>2026-04-12T12:03:40.905Z</time></trkpt><trkpt lat="53.8060627204216" lon="14.6702940740611"><ele>1.5</ele><time>2026-04-12T12:03:41.905Z</time></trkpt><trkpt lat="53.80608018202393" lon="14.670067195510972"><ele>2.0</ele><time>2026-04-12T12:03:42.905Z</time></trkpt><trkpt lat="53.806095820688576" lon="14.669845322571403"><ele>2.0</ele><time>2026-04-12T12:03:43.905Z</time></trkpt><trkpt lat="53.806111258880534" lon="14.669619995217037"><ele>2.0</ele><time>2026-04-12T12:03:44.905Z</time></trkpt><trkpt lat="53.80612711778174" lon="14.669410281493617"><ele>2.0</ele><time>2026-04-12T12:03:45.905Z</time></trkpt><trkpt lat="53.80614262040241" lon="14.669195670645992"><ele>2.0</ele><time>2026-04-12T12:03:46.905Z</time></trkpt><trkpt lat="53.806158421068965" lon="14.668978395386707"><ele>1.75</ele><time>2026-04-12T12:03:47.905Z</time></trkpt><trkpt lat="53.80617334531879" lon="14.668757835856585"><ele>1.5</ele><time>2026-04-12T12:03:48.905Z</time></trkpt><trkpt lat="53.80618746756735" lon="14.668536182426122"><ele>1.25</ele><time>2026-04-12T12:03:49.905Z</time></trkpt><trkpt lat="53.80620745834035" lon="14.668306645365368"><ele>1.0</ele><time>2026-04-12T12:03:50.905Z</time></trkpt><trkpt lat="53.806229989501574" lon="14.66808896873489"><ele>1.0</ele><time>2026-04-12T12:03:51.905Z</time></trkpt><trkpt lat="53.80625132311439" lon="14.66787129287856"><ele>1.0</ele><time>2026-04-12T12:03:52.905Z</time></trkpt><trkpt lat="53.80627541720265" lon="14.667651406834736"><ele>1.0</ele><time>2026-04-12T12:03:53.905Z</time></trkpt><trkpt lat="53.80631897852226" lon="14.667416078508333"><ele>1.0</ele><time>2026-04-12T12:03:54.905Z</time></trkpt><trkpt lat="53.80633907852993" lon="14.667184579161761"><ele>1.0</ele><time>2026-04-12T12:03:55.905Z</time></trkpt><trkpt lat="53.806364291384824" lon="14.666950707967384"><ele>1.0</ele><time>2026-04-12T12:03:56.905Z</time></trkpt><trkpt lat="53.806407559005656" lon="14.66670438755066"><ele>1.0</ele><time>2026-04-12T12:03:57.905Z</time></trkpt><trkpt lat="53.80643389087893" lon="14.666475875228507"><ele>1.0</ele><time>2026-04-12T12:03:58.903Z</time></trkpt><trkpt lat="53.80644291529706" lon="14.666252546717054"><ele>0.75</ele><time>2026-04-12T12:03:59.903Z</time></trkpt><trkpt lat="53.80646852553169" lon="14.66603478417303"><ele>0.5</ele><time>2026-04-12T12:04:00.903Z</time></trkpt><trkpt lat="53.80650307463237" lon="14.665820002451328"><ele>0.25</ele><time>2026-04-12T12:04:01.903Z</time></trkpt><trkpt lat="53.80652527138392" lon="14.665589561359353"><ele>0.0</ele><time>2026-04-12T12:04:02.903Z</time></trkpt><trkpt lat="53.806547392700054" lon="14.66538106904717"><ele>-0.25</ele><time>2026-04-12T12:04:03.903Z</time></trkpt><trkpt lat="53.806571790902126" lon="14.665158085381321"><ele>-0.5</ele><time>2026-04-12T12:04:04.902Z</time></trkpt><trkpt lat="53.80659506401881" lon="14.66495502358147"><ele>-0.75</ele><time>2026-04-12T12:04:05.903Z</time></trkpt><trkpt lat="53.80661792779841" lon="14.664736599231304"><ele>-1.0</ele><time>2026-04-12T12:04:06.903Z</time></trkpt><trkpt lat="53.8066422026005" lon="14.66453295012977"><ele>-0.75</ele><time>2026-04-12T12:04:07.902Z</time></trkpt><trkpt lat="53.80666413087447" lon="14.664329063517277"><ele>-0.5</ele><time>2026-04-12T12:04:08.903Z</time></trkpt><trkpt lat="53.80668472763" lon="14.664149378583094"><ele>-0.25</ele><time>2026-04-12T12:04:09.903Z</time></trkpt><trkpt lat="53.806708657131274" lon="14.663963323123049"><ele>0.0</ele><time>2026-04-12T12:04:10.902Z</time></trkpt><trkpt lat="53.80673257730122" lon="14.663769147334246"><ele>0.0</ele><time>2026-04-12T12:04:11.903Z</time></trkpt><trkpt lat="53.8067589170968" lon="14.663571215340058"><ele>0.0</ele><time>2026-04-12T12:04:12.903Z</time></trkpt><trkpt lat="53.80678437465637" lon="14.663380256891577"><ele>0.0</ele><time>2026-04-12T12:04:13.903Z</time></trkpt><trkpt lat="53.80681134628286" lon="14.663180919414616"><ele>0.0</ele><time>2026-04-12T12:04:14.903Z</time></trkpt><trkpt lat="53.80683610191149" lon="14.662997681898402"><ele>0.0</ele><time>2026-04-12T12:04:15.903Z</time></trkpt><trkpt lat="53.80685823691093" lon="14.66281478044188"><ele>0.0</ele><time>2026-04-12T12:04:16.903Z</time></trkpt><trkpt lat="53.80688105220792" lon="14.662617044928842"><ele>0.0</ele><time>2026-04-12T12:04:17.903Z</time></trkpt><trkpt lat="53.8069150262923" lon="14.66242331766622"><ele>0.0</ele><time>2026-04-12T12:04:18.903Z</time></trkpt><trkpt lat="53.80694027649915" lon="14.662224394216008"><ele>0.75</ele><time>2026-04-12T12:04:19.903Z</time></trkpt><trkpt lat="53.80696717467368" lon="14.66202556615634"><ele>1.5</ele><time>2026-04-12T12:04:20.903Z</time></trkpt><trkpt lat="53.806987724031856" lon="14.661820874275294"><ele>2.25</ele><time>2026-04-12T12:04:21.903Z</time></trkpt><trkpt lat="53.80700834967691" lon="14.661608189832304"><ele>3.0</ele><time>2026-04-12T12:04:22.903Z</time></trkpt><trkpt lat="53.807025311889824" lon="14.66140597530108"><ele>3.25</ele><time>2026-04-12T12:04:23.903Z</time></trkpt><trkpt lat="53.80704636332611" lon="14.6611973163127"><ele>3.5</ele><time>2026-04-12T12:04:24.903Z</time></trkpt><trkpt lat="53.80706620059934" lon="14.660985652475542"><ele>3.75</ele><time>2026-04-12T12:04:25.903Z</time></trkpt><trkpt lat="53.80708801900854" lon="14.660780244223831"><ele>4.0</ele><time>2026-04-12T12:04:26.903Z</time></trkpt><trkpt lat="53.807104063018954" lon="14.660585269522473"><ele>4.0</ele><time>2026-04-12T12:04:27.903Z</time></trkpt><trkpt lat="53.80711778952985" lon="14.66036444838632"><ele>4.0</ele><time>2026-04-12T12:04:28.903Z</time></trkpt><trkpt lat="53.80712554059" lon="14.660161130506665"><ele>4.0</ele><time>2026-04-12T12:04:29.903Z</time></trkpt><trkpt lat="53.80713035537466" lon="14.659940985214629"><ele>4.0</ele><time>2026-04-12T12:04:30.903Z</time></trkpt><trkpt lat="53.807127044183346" lon="14.65974526932878"><ele>4.0</ele><time>2026-04-12T12:04:31.903Z</time></trkpt><trkpt lat="53.80712547904935" lon="14.659540592652093"><ele>4.0</ele><time>2026-04-12T12:04:32.903Z</time></trkpt><trkpt lat="53.807121132454164" lon="14.659342204742407"><ele>4.0</ele><time>2026-04-12T12:04:33.903Z</time></trkpt><trkpt lat="53.80712235915312" lon="14.65913762658526"><ele>4.0</ele><time>2026-04-12T12:04:34.903Z</time></trkpt><trkpt lat="53.807122212697806" lon="14.658902074039268"><ele>4.666666666666666</ele><time>2026-04-12T12:04:35.903Z</time></trkpt><trkpt lat="53.807118219758216" lon="14.658632252652493"><ele>5.333333333333333</ele><time>2026-04-12T12:04:36.903Z</time></trkpt><trkpt lat="53.807108900042095" lon="14.658347437216525"><ele>6.0</ele><time>2026-04-12T12:04:37.903Z</time></trkpt><trkpt lat="53.807109301897356" lon="14.658126931448"><ele>6.0</ele><time>2026-04-12T12:04:38.903Z</time></trkpt><trkpt lat="53.807088212275005" lon="14.657965413836404"><ele>6.0</ele><time>2026-04-12T12:04:39.903Z</time></trkpt><trkpt lat="53.80706408756938" lon="14.657824164579527"><ele>6.0</ele><time>2026-04-12T12:04:40.903Z</time></trkpt><trkpt lat="53.80703865367979" lon="14.657692118931983"><ele>6.0</ele><time>2026-04-12T12:04:41.903Z</time></trkpt><trkpt lat="53.807012919028075" lon="14.65759410111872"><ele>6.0</ele><time>2026-04-12T12:04:42.903Z</time></trkpt><trkpt lat="53.807012625640326" lon="14.657469938765294"><ele>6.0</ele><time>2026-04-12T12:04:44.903Z</time></trkpt><trkpt lat="53.8071587078998" lon="14.657379661621194"><ele>6.0</ele><time>2026-04-12T12:04:46.903Z</time></trkpt><trkpt lat="53.807176020001606" lon="14.657195935613364"><ele>6.0</ele><time>2026-04-12T12:04:47.903Z</time></trkpt><trkpt lat="53.80720741686212" lon="14.657064477497427"><ele>6.0</ele><time>2026-04-12T12:04:48.903Z</time></trkpt><trkpt lat="53.80723984890895" lon="14.656875497154068"><ele>6.0</ele><time>2026-04-12T12:04:49.903Z</time></trkpt><trkpt lat="53.807249760267645" lon="14.656716353666583"><ele>6.0</ele><time>2026-04-12T12:04:50.903Z</time></trkpt><trkpt lat="53.80723772922986" lon="14.65658281295512"><ele>6.199999999999999</ele><time>2026-04-12T12:04:51.903Z</time></trkpt><trkpt lat="53.80722638771169" lon="14.656437132448119"><ele>6.3999999999999995</ele><time>2026-04-12T12:04:52.903Z</time></trkpt><trkpt lat="53.8072120104571" lon="14.656279926740321"><ele>6.6</ele><time>2026-04-12T12:04:53.903Z</time></trkpt><trkpt lat="53.807190536194376" lon="14.656135235813192"><ele>6.8</ele><time>2026-04-12T12:04:54.903Z</time></trkpt><trkpt lat="53.80716330603858" lon="14.655986949771258"><ele>7.0</ele><time>2026-04-12T12:04:55.903Z</time></trkpt><trkpt lat="53.80713637253752" lon="14.655842579219389"><ele>7.3999999999999995</ele><time>2026-04-12T12:04:56.903Z</time></trkpt><trkpt lat="53.80713174364823" lon="14.655653952327226"><ele>7.799999999999999</ele><time>2026-04-12T12:04:57.903Z</time></trkpt><trkpt lat="53.8071163989313" lon="14.655459652396168"><ele>8.2</ele><time>2026-04-12T12:04:58.903Z</time></trkpt><trkpt lat="53.807105265716686" lon="14.655283672944716"><ele>8.6</ele><time>2026-04-12T12:04:59.903Z</time></trkpt><trkpt lat="53.80708602636764" lon="14.655120550211688"><ele>9.0</ele><time>2026-04-12T12:05:00.903Z</time></trkpt><trkpt lat="53.80708206233635" lon="14.655008058534195"><ele>9.0</ele><time>2026-04-12T12:05:01.903Z</time></trkpt><trkpt lat="53.80708183671417" lon="14.65489760774348"><ele>9.0</ele><time>2026-04-12T12:05:02.903Z</time></trkpt><trkpt lat="53.807047571596485" lon="14.654721319886685"><ele>9.0</ele><time>2026-04-12T12:05:04.903Z</time></trkpt><trkpt lat="53.807009739095534" lon="14.654613093920524"><ele>9.0</ele><time>2026-04-12T12:05:05.903Z</time></trkpt><trkpt lat="53.80698605222308" lon="14.654490832236235"><ele>9.0</ele><time>2026-04-12T12:05:06.903Z</time></trkpt><trkpt lat="53.806949024674545" lon="14.654385492347517"><ele>9.0</ele><time>2026-04-12T12:05:07.903Z</time></trkpt><trkpt lat="53.806901257439115" lon="14.654289594071527"><ele>9.0</ele><time>2026-04-12T12:05:08.903Z</time></trkpt><trkpt lat="53.80688131916968" lon="14.654160580693896"><ele>9.0</ele><time>2026-04-12T12:05:09.903Z</time></trkpt><trkpt lat="53.80686008929761" lon="14.653993017201078"><ele>9.0</ele><time>2026-04-12T12:05:10.903Z</time></trkpt><trkpt lat="53.806865306123456" lon="14.653774528274825"><ele>9.0</ele><time>2026-04-12T12:05:11.903Z</time></trkpt><trkpt lat="53.80687551503179" lon="14.653555999721066"><ele>9.0</ele><time>2026-04-12T12:05:12.903Z</time></trkpt><trkpt lat="53.80688056011706" lon="14.653346946198594"><ele>9.0</ele><time>2026-04-12T12:05:13.903Z</time></trkpt><trkpt lat="53.806879725727235" lon="14.653129596687227"><ele>9.0</ele><time>2026-04-12T12:05:14.903Z</time></trkpt><trkpt lat="53.80688385929755" lon="14.652905210668747"><ele>9.0</ele><time>2026-04-12T12:05:15.903Z</time></trkpt><trkpt lat="53.80688378643762" lon="14.652668381442853"><ele>9.0</ele><time>2026-04-12T12:05:16.903Z</time></trkpt><trkpt lat="53.806902936584706" lon="14.652427339247081"><ele>9.0</ele><time>2026-04-12T12:05:17.903Z</time></trkpt><trkpt lat="53.80690621544338" lon="14.652195509164406"><ele>9.0</ele><time>2026-04-12T12:05:18.903Z</time></trkpt><trkpt lat="53.806913719499946" lon="14.65198713038507"><ele>9.0</ele><time>2026-04-12T12:05:19.903Z</time></trkpt><trkpt lat="53.80694004746692" lon="14.651828644261009"><ele>9.0</ele><time>2026-04-12T12:05:20.903Z</time></trkpt><trkpt lat="53.80699142327458" lon="14.65173579697078"><ele>9.0</ele><time>2026-04-12T12:05:21.903Z</time></trkpt><trkpt lat="53.807049217985444" lon="14.651648333583372"><ele>9.0</ele><time>2026-04-12T12:05:22.903Z</time></trkpt><trkpt lat="53.80710697308922" lon="14.651586968700993"><ele>9.0</ele><time>2026-04-12T12:05:23.903Z</time></trkpt><trkpt lat="53.80722262398221" lon="14.651466323743511"><ele>9.0</ele><time>2026-04-12T12:05:25.903Z</time></trkpt><trkpt lat="53.8072916698984" lon="14.651369663938047"><ele>9.0</ele><time>2026-04-12T12:05:26.903Z</time></trkpt><trkpt lat="53.80738601441373" lon="14.651311823003377"><ele>9.0</ele><time>2026-04-12T12:05:27.903Z</time></trkpt><trkpt lat="53.807469298660564" lon="14.651254315825456"><ele>9.0</ele><time>2026-04-12T12:05:28.903Z</time></trkpt><trkpt lat="53.80755143444332" lon="14.651218368769834"><ele>9.0</ele><time>2026-04-12T12:05:29.903Z</time></trkpt><trkpt lat="53.80765097263384" lon="14.651202482438563"><ele>9.0</ele><time>2026-04-12T12:05:30.903Z</time></trkpt><trkpt lat="53.80774355255368" lon="14.651192114050499"><ele>9.0</ele><time>2026-04-12T12:05:31.903Z</time></trkpt><trkpt lat="53.80783202731708" lon="14.651187499873092"><ele>9.0</ele><time>2026-04-12T12:05:32.903Z</time></trkpt><trkpt lat="53.807934109313614" lon="14.651156977988986"><ele>9.0</ele><time>2026-04-12T12:05:33.903Z</time></trkpt><trkpt lat="53.808026841449724" lon="14.651138630913561"><ele>9.0</ele><time>2026-04-12T12:05:34.903Z</time></trkpt><trkpt lat="53.80813890988014" lon="14.65111966888041"><ele>9.0</ele><time>2026-04-12T12:05:35.903Z</time></trkpt><trkpt lat="53.80826513634127" lon="14.6511167421311"><ele>9.0</ele><time>2026-04-12T12:05:36.903Z</time></trkpt><trkpt lat="53.80837974880059" lon="14.651106772085972"><ele>9.0</ele><time>2026-04-12T12:05:37.903Z</time></trkpt><trkpt lat="53.80849069159436" lon="14.651070662133142"><ele>8.6</ele><time>2026-04-12T12:05:38.903Z</time></trkpt><trkpt lat="53.80858148559544" lon="14.651034222516675"><ele>8.2</ele><time>2026-04-12T12:05:39.903Z</time></trkpt><trkpt lat="53.80867300946489" lon="14.651005735594447"><ele>7.799999999999999</ele><time>2026-04-12T12:05:40.903Z</time></trkpt><trkpt lat="53.80876802498848" lon="14.650985761382957"><ele>7.3999999999999995</ele><time>2026-04-12T12:05:41.903Z</time></trkpt><trkpt lat="53.80887147799442" lon="14.650959298492845"><ele>7.0</ele><time>2026-04-12T12:05:42.903Z</time></trkpt><trkpt lat="53.80896032147276" lon="14.650933152102482"><ele>7.0</ele><time>2026-04-12T12:05:43.903Z</time></trkpt><trkpt lat="53.80906327177637" lon="14.65092326162311"><ele>6.999999999999999</ele><time>2026-04-12T12:05:44.903Z</time></trkpt><trkpt lat="53.80916974188088" lon="14.650898753486736"><ele>6.999999999999999</ele><time>2026-04-12T12:05:45.903Z</time></trkpt><trkpt lat="53.80927060687533" lon="14.650856953366963"><ele>7.0</ele><time>2026-04-12T12:05:46.903Z</time></trkpt><trkpt lat="53.80937573592291" lon="14.650826379552734"><ele>7.0</ele><time>2026-04-12T12:05:47.903Z</time></trkpt><trkpt lat="53.80948297188971" lon="14.65082071245885"><ele>7.199999999999999</ele><time>2026-04-12T12:05:48.903Z</time></trkpt><trkpt lat="53.80958746839249" lon="14.650756497894761"><ele>7.3999999999999995</ele><time>2026-04-12T12:05:49.903Z</time></trkpt><trkpt lat="53.80968929806982" lon="14.650735188951336"><ele>7.6000000000000005</ele><time>2026-04-12T12:05:50.903Z</time></trkpt><trkpt lat="53.80979739846247" lon="14.650703751081418"><ele>7.800000000000001</ele><time>2026-04-12T12:05:51.903Z</time></trkpt><trkpt lat="53.80989421776499" lon="14.650657362278395"><ele>8.0</ele><time>2026-04-12T12:05:52.903Z</time></trkpt><trkpt lat="53.809988268537765" lon="14.650629773048973"><ele>8.0</ele><time>2026-04-12T12:05:53.903Z</time></trkpt><trkpt lat="53.81010317665095" lon="14.65058365030281"><ele>8.0</ele><time>2026-04-12T12:05:54.903Z</time></trkpt><trkpt lat="53.810207234216335" lon="14.650568117062342"><ele>8.0</ele><time>2026-04-12T12:05:55.904Z</time></trkpt><trkpt lat="53.81032506021511" lon="14.650525168696909"><ele>8.0</ele><time>2026-04-12T12:05:56.904Z</time></trkpt><trkpt lat="53.810418077679536" lon="14.650465736188933"><ele>8.0</ele><time>2026-04-12T12:05:57.904Z</time></trkpt><trkpt lat="53.81054257279772" lon="14.650415679796652"><ele>8.0</ele><time>2026-04-12T12:05:58.904Z</time></trkpt><trkpt lat="53.81066221964811" lon="14.650367472076553"><ele>8.0</ele><time>2026-04-12T12:05:59.904Z</time></trkpt><trkpt lat="53.81077215746783" lon="14.65034465066869"><ele>8.0</ele><time>2026-04-12T12:06:00.904Z</time></trkpt><trkpt lat="53.810887599702745" lon="14.65029107411159"><ele>8.0</ele><time>2026-04-12T12:06:01.904Z</time></trkpt><trkpt lat="53.8109950188554" lon="14.65021627675443"><ele>8.0</ele><time>2026-04-12T12:06:02.904Z</time></trkpt><trkpt lat="53.81110800218082" lon="14.650153589772598"><ele>8.0</ele><time>2026-04-12T12:06:03.904Z</time></trkpt><trkpt lat="53.81122420664043" lon="14.650092280539756"><ele>8.0</ele><time>2026-04-12T12:06:04.902Z</time></trkpt><trkpt lat="53.81134497337996" lon="14.650033529072525"><ele>8.0</ele><time>2026-04-12T12:06:05.901Z</time></trkpt><trkpt lat="53.81146442474021" lon="14.649974961120844"><ele>8.0</ele><time>2026-04-12T12:06:06.901Z</time></trkpt><trkpt lat="53.8115724869276" lon="14.649905745182272"><ele>8.0</ele><time>2026-04-12T12:06:07.902Z</time></trkpt><trkpt lat="53.81167946645647" lon="14.649836857168026"><ele>8.0</ele><time>2026-04-12T12:06:08.902Z</time></trkpt><trkpt lat="53.81180468429431" lon="14.649742267246753"><ele>8.0</ele><time>2026-04-12T12:06:09.902Z</time></trkpt><trkpt lat="53.81191245757174" lon="14.649655178907498"><ele>8.0</ele><time>2026-04-12T12:06:10.902Z</time></trkpt><trkpt lat="53.812012405530616" lon="14.649561154419061"><ele>8.0</ele><time>2026-04-12T12:06:11.902Z</time></trkpt><trkpt lat="53.81215155658968" lon="14.649458514306463"><ele>8.0</ele><time>2026-04-12T12:06:12.902Z</time></trkpt><trkpt lat="53.81227546829989" lon="14.649349612438705"><ele>8.0</ele><time>2026-04-12T12:06:13.901Z</time></trkpt><trkpt lat="53.81238121822248" lon="14.649258218070752"><ele>8.0</ele><time>2026-04-12T12:06:14.902Z</time></trkpt><trkpt lat="53.81249804478345" lon="14.649157529406722"><ele>8.0</ele><time>2026-04-12T12:06:15.902Z</time></trkpt><trkpt lat="53.81260906617473" lon="14.6490297085228"><ele>8.0</ele><time>2026-04-12T12:06:16.902Z</time></trkpt><trkpt lat="53.81274110507878" lon="14.648916713555932"><ele>8.0</ele><time>2026-04-12T12:06:17.901Z</time></trkpt><trkpt lat="53.81289613379432" lon="14.648802522218762"><ele>8.0</ele><time>2026-04-12T12:06:18.901Z</time></trkpt><trkpt lat="53.81302309350852" lon="14.648659345342256"><ele>8.0</ele><time>2026-04-12T12:06:19.901Z</time></trkpt><trkpt lat="53.81315257741715" lon="14.648555486668831"><ele>8.0</ele><time>2026-04-12T12:06:20.901Z</time></trkpt><trkpt lat="53.81325835604183" lon="14.648447648610041"><ele>8.0</ele><time>2026-04-12T12:06:21.901Z</time></trkpt><trkpt lat="53.813362813827126" lon="14.648344630945036"><ele>8.0</ele><time>2026-04-12T12:06:22.901Z</time></trkpt><trkpt lat="53.8134519536076" lon="14.648235622026503"><ele>8.0</ele><time>2026-04-12T12:06:23.901Z</time></trkpt><trkpt lat="53.81355146318137" lon="14.648170069215167"><ele>8.0</ele><time>2026-04-12T12:06:24.901Z</time></trkpt><trkpt lat="53.813631215625584" lon="14.648088808905031"><ele>8.0</ele><time>2026-04-12T12:06:25.901Z</time></trkpt><trkpt lat="53.81370446557886" lon="14.647984180735936"><ele>8.0</ele><time>2026-04-12T12:06:26.901Z</time></trkpt><trkpt lat="53.81377490017652" lon="14.647920764531648"><ele>7.75</ele><time>2026-04-12T12:06:27.901Z</time></trkpt><trkpt lat="53.81386470090266" lon="14.647813135220101"><ele>7.5</ele><time>2026-04-12T12:06:28.901Z</time></trkpt><trkpt lat="53.81395361160026" lon="14.647719020911339"><ele>7.25</ele><time>2026-04-12T12:06:29.901Z</time></trkpt><trkpt lat="53.814067572584435" lon="14.6476283713524"><ele>7.0</ele><time>2026-04-12T12:06:30.901Z</time></trkpt><trkpt lat="53.81417753177302" lon="14.647523452501463"><ele>7.25</ele><time>2026-04-12T12:06:31.901Z</time></trkpt><trkpt lat="53.81428127250428" lon="14.647428857996795"><ele>7.5</ele><time>2026-04-12T12:06:32.901Z</time></trkpt><trkpt lat="53.81439626899199" lon="14.647324811518194"><ele>7.75</ele><time>2026-04-12T12:06:33.902Z</time></trkpt><trkpt lat="53.81449705740108" lon="14.64720192119901"><ele>8.0</ele><time>2026-04-12T12:06:34.902Z</time></trkpt><trkpt lat="53.81460814638287" lon="14.64712181564267"><ele>8.0</ele><time>2026-04-12T12:06:35.902Z</time></trkpt><trkpt lat="53.81474223011315" lon="14.64704441425177"><ele>8.0</ele><time>2026-04-12T12:06:36.902Z</time></trkpt><trkpt lat="53.814873022482196" lon="14.646985941179329"><ele>8.0</ele><time>2026-04-12T12:06:37.902Z</time></trkpt><trkpt lat="53.81501023082689" lon="14.646941063033692"><ele>8.0</ele><time>2026-04-12T12:06:38.902Z</time></trkpt><trkpt lat="53.815118935583655" lon="14.646921301008016"><ele>7.800000000000001</ele><time>2026-04-12T12:06:39.902Z</time></trkpt><trkpt lat="53.81522005416699" lon="14.646881724644293"><ele>7.6000000000000005</ele><time>2026-04-12T12:06:40.902Z</time></trkpt><trkpt lat="53.81529634293264" lon="14.646824069209487"><ele>7.3999999999999995</ele><time>2026-04-12T12:06:41.902Z</time></trkpt><trkpt lat="53.81537320284849" lon="14.646733623025407"><ele>7.199999999999999</ele><time>2026-04-12T12:06:42.902Z</time></trkpt><trkpt lat="53.81546147641674" lon="14.646585806617002"><ele>7.0</ele><time>2026-04-12T12:06:43.902Z</time></trkpt><trkpt lat="53.815527010690815" lon="14.646456053663066"><ele>7.0</ele><time>2026-04-12T12:06:44.902Z</time></trkpt><trkpt lat="53.815577758637204" lon="14.646336315642449"><ele>6.999999999999999</ele><time>2026-04-12T12:06:45.902Z</time></trkpt><trkpt lat="53.815638016032395" lon="14.646258804699501"><ele>6.999999999999999</ele><time>2026-04-12T12:06:46.902Z</time></trkpt><trkpt lat="53.81574200872894" lon="14.646157509086567"><ele>7.0</ele><time>2026-04-12T12:06:47.902Z</time></trkpt><trkpt lat="53.81584710562295" lon="14.646043667692885"><ele>7.0</ele><time>2026-04-12T12:06:48.902Z</time></trkpt><trkpt lat="53.8159577560766" lon="14.645927028352215"><ele>6.75</ele><time>2026-04-12T12:06:49.902Z</time></trkpt><trkpt lat="53.816062833895494" lon="14.64582295540813"><ele>6.5</ele><time>2026-04-12T12:06:50.902Z</time></trkpt><trkpt lat="53.81616981221566" lon="14.645732455436445"><ele>6.25</ele><time>2026-04-12T12:06:51.902Z</time></trkpt><trkpt lat="53.81628552587933" lon="14.645645105725487"><ele>6.0</ele><time>2026-04-12T12:06:52.902Z</time></trkpt><trkpt lat="53.81640291823554" lon="14.645522019613244"><ele>6.0</ele><time>2026-04-12T12:06:53.902Z</time></trkpt><trkpt lat="53.816530175279496" lon="14.645412298708623"><ele>6.0</ele><time>2026-04-12T12:06:54.902Z</time></trkpt><trkpt lat="53.81665322148676" lon="14.645314739354063"><ele>6.0</ele><time>2026-04-12T12:06:55.902Z</time></trkpt><trkpt lat="53.81678577904517" lon="14.64523188205639"><ele>6.0</ele><time>2026-04-12T12:06:56.902Z</time></trkpt><trkpt lat="53.81693995442715" lon="14.645143521022874"><ele>6.0</ele><time>2026-04-12T12:06:57.902Z</time></trkpt><trkpt lat="53.817063045528315" lon="14.644974800048189"><ele>6.0</ele><time>2026-04-12T12:06:58.902Z</time></trkpt><trkpt lat="53.817187734031506" lon="14.644863899031547"><ele>6.0</ele><time>2026-04-12T12:06:59.902Z</time></trkpt><trkpt lat="53.81732798952877" lon="14.644725966270027"><ele>6.0</ele><time>2026-04-12T12:07:00.902Z</time></trkpt><trkpt lat="53.81743563202537" lon="14.64460818872825"><ele>6.0</ele><time>2026-04-12T12:07:01.902Z</time></trkpt><trkpt lat="53.817550230240585" lon="14.64449868483374"><ele>6.0</ele><time>2026-04-12T12:07:02.902Z</time></trkpt><trkpt lat="53.81767101226579" lon="14.64439233882281"><ele>6.0</ele><time>2026-04-12T12:07:03.902Z</time></trkpt><trkpt lat="53.81781728935151" lon="14.64427040402727"><ele>6.666666666666666</ele><time>2026-04-12T12:07:04.902Z</time></trkpt><trkpt lat="53.817957097388444" lon="14.64417109774718"><ele>7.333333333333333</ele><time>2026-04-12T12:07:05.902Z</time></trkpt><trkpt lat="53.818089209532985" lon="14.644078862404088"><ele>8.0</ele><time>2026-04-12T12:07:06.902Z</time></trkpt><trkpt lat="53.81824583884852" lon="14.643961938446202"><ele>8.0</ele><time>2026-04-12T12:07:07.902Z</time></trkpt><trkpt lat="53.8183643022257" lon="14.643864906259298"><ele>8.0</ele><time>2026-04-12T12:07:08.902Z</time></trkpt><trkpt lat="53.81846602561163" lon="14.643764101385827"><ele>8.0</ele><time>2026-04-12T12:07:09.902Z</time></trkpt><trkpt lat="53.81854217431357" lon="14.643653785082087"><ele>8.0</ele><time>2026-04-12T12:07:10.902Z</time></trkpt><trkpt lat="53.81860280594178" lon="14.643534955761446"><ele>8.0</ele><time>2026-04-12T12:07:11.902Z</time></trkpt><trkpt lat="53.818657734202795" lon="14.643422160619608"><ele>7.800000000000001</ele><time>2026-04-12T12:07:12.902Z</time></trkpt><trkpt lat="53.81869104297962" lon="14.643317935217901"><ele>7.6000000000000005</ele><time>2026-04-12T12:07:13.902Z</time></trkpt><trkpt lat="53.818737895572426" lon="14.64313221819692"><ele>7.3999999999999995</ele><time>2026-04-12T12:07:14.902Z</time></trkpt><trkpt lat="53.81879489714159" lon="14.642991859590534"><ele>7.199999999999999</ele><time>2026-04-12T12:07:15.902Z</time></trkpt><trkpt lat="53.8188508866307" lon="14.642796124897734"><ele>7.0</ele><time>2026-04-12T12:07:16.902Z</time></trkpt><trkpt lat="53.818889253542956" lon="14.642613246059963"><ele>7.0</ele><time>2026-04-12T12:07:17.902Z</time></trkpt><trkpt lat="53.81893860544539" lon="14.642440175155881"><ele>7.0</ele><time>2026-04-12T12:07:18.902Z</time></trkpt><trkpt lat="53.81900240253045" lon="14.642263263276124"><ele>7.0</ele><time>2026-04-12T12:07:19.902Z</time></trkpt><trkpt lat="53.81905393800438" lon="14.642085982353688"><ele>7.0</ele><time>2026-04-12T12:07:20.902Z</time></trkpt><trkpt lat="53.81909395737422" lon="14.641903496085654"><ele>7.0</ele><time>2026-04-12T12:07:21.902Z</time></trkpt><trkpt lat="53.81915702869709" lon="14.641706714751354"><ele>7.0</ele><time>2026-04-12T12:07:22.902Z</time></trkpt><trkpt lat="53.81921926568153" lon="14.641487390658808"><ele>7.0</ele><time>2026-04-12T12:07:23.902Z</time></trkpt><trkpt lat="53.81927828948187" lon="14.641333747778825"><ele>7.0</ele><time>2026-04-12T12:07:24.902Z</time></trkpt><trkpt lat="53.81932154050109" lon="14.641129588195053"><ele>7.0</ele><time>2026-04-12T12:07:25.902Z</time></trkpt><trkpt lat="53.819388581411154" lon="14.64092997339068"><ele>7.0</ele><time>2026-04-12T12:07:26.902Z</time></trkpt><trkpt lat="53.819443632641274" lon="14.640732465204147"><ele>7.0</ele><time>2026-04-12T12:07:27.902Z</time></trkpt><trkpt lat="53.81950896543906" lon="14.640571200743718"><ele>7.0</ele><time>2026-04-12T12:07:28.902Z</time></trkpt><trkpt lat="53.81955455465012" lon="14.640366790045812"><ele>7.0</ele><time>2026-04-12T12:07:29.902Z</time></trkpt><trkpt lat="53.81961616019" lon="14.640174438947007"><ele>7.0</ele><time>2026-04-12T12:07:30.902Z</time></trkpt><trkpt lat="53.819677134884" lon="14.639968713438648"><ele>7.0</ele><time>2026-04-12T12:07:31.902Z</time></trkpt><trkpt lat="53.819728988604474" lon="14.639755333458666"><ele>7.0</ele><time>2026-04-12T12:07:32.902Z</time></trkpt><trkpt lat="53.819784481866705" lon="14.639565612210752"><ele>7.0</ele><time>2026-04-12T12:07:33.902Z</time></trkpt><trkpt lat="53.81984815061561" lon="14.639384581066183"><ele>7.0</ele><time>2026-04-12T12:07:34.902Z</time></trkpt><trkpt lat="53.819914048947425" lon="14.639200826547004"><ele>7.0</ele><time>2026-04-12T12:07:35.902Z</time></trkpt><trkpt lat="53.81997278247366" lon="14.639034245010215"><ele>7.0</ele><time>2026-04-12T12:07:36.902Z</time></trkpt><trkpt lat="53.82002315664718" lon="14.638879744189518"><ele>7.0</ele><time>2026-04-12T12:07:37.902Z</time></trkpt><trkpt lat="53.820065372982754" lon="14.638686320203615"><ele>7.0</ele><time>2026-04-12T12:07:38.902Z</time></trkpt><trkpt lat="53.820110587333865" lon="14.63851055048934"><ele>7.0</ele><time>2026-04-12T12:07:39.902Z</time></trkpt><trkpt lat="53.82015334881688" lon="14.638338795445344"><ele>7.0</ele><time>2026-04-12T12:07:40.902Z</time></trkpt><trkpt lat="53.82021091486503" lon="14.638160144457022"><ele>7.0</ele><time>2026-04-12T12:07:41.902Z</time></trkpt><trkpt lat="53.820273876594825" lon="14.63798644056585"><ele>7.0</ele><time>2026-04-12T12:07:42.902Z</time></trkpt><trkpt lat="53.820329455380005" lon="14.63781605838421"><ele>7.0</ele><time>2026-04-12T12:07:43.902Z</time></trkpt><trkpt lat="53.82037773492216" lon="14.6376335798445"><ele>7.0</ele><time>2026-04-12T12:07:44.902Z</time></trkpt><trkpt lat="53.82042596949615" lon="14.637450795489888"><ele>7.199999999999999</ele><time>2026-04-12T12:07:45.902Z</time></trkpt><trkpt lat="53.820476391578275" lon="14.637282975850042"><ele>7.3999999999999995</ele><time>2026-04-12T12:07:46.902Z</time></trkpt><trkpt lat="53.82053397997819" lon="14.637114115208417"><ele>7.6000000000000005</ele><time>2026-04-12T12:07:47.902Z</time></trkpt><trkpt lat="53.82057520339786" lon="14.636973726342196"><ele>7.800000000000001</ele><time>2026-04-12T12:07:48.902Z</time></trkpt><trkpt lat="53.82063027623675" lon="14.63681228575248"><ele>8.0</ele><time>2026-04-12T12:07:50.902Z</time></trkpt><trkpt lat="53.82068706039572" lon="14.6367505166956"><ele>7.5</ele><time>2026-04-12T12:07:51.902Z</time></trkpt><trkpt lat="53.8207889127283" lon="14.636713635542588"><ele>7.0</ele><time>2026-04-12T12:07:52.902Z</time></trkpt><trkpt lat="53.82093440283667" lon="14.636696185384574"><ele>6.5</ele><time>2026-04-12T12:07:53.902Z</time></trkpt><trkpt lat="53.82109322523481" lon="14.636692927555236"><ele>6.0</ele><time>2026-04-12T12:07:54.902Z</time></trkpt><trkpt lat="53.82127190396137" lon="14.63665956096463"><ele>6.0</ele><time>2026-04-12T12:07:55.902Z</time></trkpt><trkpt lat="53.82145384734706" lon="14.636609853856022"><ele>6.0</ele><time>2026-04-12T12:07:56.902Z</time></trkpt><trkpt lat="53.82165331480927" lon="14.636575882015107"><ele>6.0</ele><time>2026-04-12T12:07:57.902Z</time></trkpt><trkpt lat="53.821862788909" lon="14.636539182254221"><ele>6.666666666666666</ele><time>2026-04-12T12:07:58.902Z</time></trkpt><trkpt lat="53.82207371549474" lon="14.636493836812587"><ele>7.333333333333333</ele><time>2026-04-12T12:07:59.902Z</time></trkpt><trkpt lat="53.82229848680143" lon="14.63644770497544"><ele>8.0</ele><time>2026-04-12T12:08:00.902Z</time></trkpt><trkpt lat="53.8225340334373" lon="14.636399087499006"><ele>7.0</ele><time>2026-04-12T12:08:01.902Z</time></trkpt><trkpt lat="53.822763355266765" lon="14.636356639255228"><ele>6.0</ele><time>2026-04-12T12:08:02.902Z</time></trkpt><trkpt lat="53.82299425998149" lon="14.636308243692877"><ele>6.0</ele><time>2026-04-12T12:08:03.902Z</time></trkpt><trkpt lat="53.823230810748186" lon="14.63625359768303"><ele>6.0</ele><time>2026-04-12T12:08:04.902Z</time></trkpt><trkpt lat="53.8234793785754" lon="14.636199650847825"><ele>6.0</ele><time>2026-04-12T12:08:05.902Z</time></trkpt><trkpt lat="53.82374058757047" lon="14.636150050263344"><ele>6.0</ele><time>2026-04-12T12:08:06.902Z</time></trkpt><trkpt lat="53.82400520136138" lon="14.63609881379157"><ele>6.5</ele><time>2026-04-12T12:08:07.902Z</time></trkpt><trkpt lat="53.82427323993357" lon="14.636044699959127"><ele>7.0</ele><time>2026-04-12T12:08:08.902Z</time></trkpt><trkpt lat="53.8245386245734" lon="14.635972144834573"><ele>7.5</ele><time>2026-04-12T12:08:09.902Z</time></trkpt><trkpt lat="53.82480375465013" lon="14.635876701275883"><ele>8.0</ele><time>2026-04-12T12:08:10.9Z</time></trkpt><trkpt lat="53.82506477527912" lon="14.635753659723688"><ele>7.0</ele><time>2026-04-12T12:08:11.901Z</time></trkpt><trkpt lat="53.825322779993236" lon="14.635605920997211"><ele>6.0</ele><time>2026-04-12T12:08:12.901Z</time></trkpt><trkpt lat="53.82557737902281" lon="14.63542917456968"><ele>6.0</ele><time>2026-04-12T12:08:13.901Z</time></trkpt><trkpt lat="53.82583793402168" lon="14.635244719402065"><ele>6.0</ele><time>2026-04-12T12:08:14.9Z</time></trkpt><trkpt lat="53.82610049684591" lon="14.63506962534874"><ele>6.5</ele><time>2026-04-12T12:08:15.9Z</time></trkpt><trkpt lat="53.82636077682457" lon="14.63489325845572"><ele>7.0</ele><time>2026-04-12T12:08:16.901Z</time></trkpt><trkpt lat="53.82662288243381" lon="14.634713840460572"><ele>7.0</ele><time>2026-04-12T12:08:17.9Z</time></trkpt><trkpt lat="53.82688503925535" lon="14.634537691004693"><ele>7.0</ele><time>2026-04-12T12:08:18.9Z</time></trkpt><trkpt lat="53.82713444989578" lon="14.634371346356483"><ele>6.5</ele><time>2026-04-12T12:08:19.9Z</time></trkpt><trkpt lat="53.82736899078104" lon="14.634216801744909"><ele>6.0</ele><time>2026-04-12T12:08:20.9Z</time></trkpt><trkpt lat="53.82759262080342" lon="14.634069630795834"><ele>5.666666666666667</ele><time>2026-04-12T12:08:21.9Z</time></trkpt><trkpt lat="53.827808662187195" lon="14.633927645652854"><ele>5.333333333333334</ele><time>2026-04-12T12:08:22.901Z</time></trkpt><trkpt lat="53.82801177091379" lon="14.633794566192716"><ele>5.0</ele><time>2026-04-12T12:08:23.9Z</time></trkpt><trkpt lat="53.828203680144114" lon="14.633669385454727"><ele>5.0</ele><time>2026-04-12T12:08:24.9Z</time></trkpt><trkpt lat="53.82838335948279" lon="14.633550340546428"><ele>5.0</ele><time>2026-04-12T12:08:25.9Z</time></trkpt><trkpt lat="53.82855883952032" lon="14.633430872075465"><ele>5.0</ele><time>2026-04-12T12:08:26.9Z</time></trkpt><trkpt lat="53.82871983550176" lon="14.633320291525159"><ele>4.75</ele><time>2026-04-12T12:08:27.9Z</time></trkpt><trkpt lat="53.828863634881756" lon="14.633224979022007"><ele>4.5</ele><time>2026-04-12T12:08:28.9Z</time></trkpt><trkpt lat="53.828996638503234" lon="14.63313804786135"><ele>4.25</ele><time>2026-04-12T12:08:29.9Z</time></trkpt><trkpt lat="53.82912199102045" lon="14.633052001841504"><ele>4.0</ele><time>2026-04-12T12:08:30.9Z</time></trkpt><trkpt lat="53.82924259145056" lon="14.632974424787664"><ele>4.0</ele><time>2026-04-12T12:08:31.9Z</time></trkpt><trkpt lat="53.82935529213947" lon="14.63289871937305"><ele>4.0</ele><time>2026-04-12T12:08:32.9Z</time></trkpt><trkpt lat="53.829472603051634" lon="14.632827707999711"><ele>4.0</ele><time>2026-04-12T12:08:33.9Z</time></trkpt><trkpt lat="53.82958282415358" lon="14.632744605965115"><ele>4.0</ele><time>2026-04-12T12:08:34.9Z</time></trkpt><trkpt lat="53.82969199630523" lon="14.632656111105584"><ele>4.0</ele><time>2026-04-12T12:08:35.9Z</time></trkpt><trkpt lat="53.82981692866694" lon="14.63254985618359"><ele>4.0</ele><time>2026-04-12T12:08:36.9Z</time></trkpt><trkpt lat="53.829955480001935" lon="14.632428671538992"><ele>4.0</ele><time>2026-04-12T12:08:37.9Z</time></trkpt><trkpt lat="53.830075587760696" lon="14.632315444564584"><ele>4.0</ele><time>2026-04-12T12:08:38.9Z</time></trkpt><trkpt lat="53.830190861251104" lon="14.63220995392994"><ele>4.0</ele><time>2026-04-12T12:08:39.9Z</time></trkpt><trkpt lat="53.83030618527637" lon="14.632136431819882"><ele>4.0</ele><time>2026-04-12T12:08:40.9Z</time></trkpt><trkpt lat="53.83039850746712" lon="14.632024606467299"><ele>4.0</ele><time>2026-04-12T12:08:41.9Z</time></trkpt><trkpt lat="53.83049710609203" lon="14.631939126790689"><ele>4.0</ele><time>2026-04-12T12:08:42.9Z</time></trkpt><trkpt lat="53.830595582729394" lon="14.6318500887917"><ele>4.0</ele><time>2026-04-12T12:08:43.9Z</time></trkpt><trkpt lat="53.83069292113818" lon="14.631759508797275"><ele>4.0</ele><time>2026-04-12T12:08:44.9Z</time></trkpt><trkpt lat="53.83079096517778" lon="14.631671062152106"><ele>4.0</ele><time>2026-04-12T12:08:45.9Z</time></trkpt><trkpt lat="53.830889623304614" lon="14.631581587829634"><ele>4.0</ele><time>2026-04-12T12:08:46.9Z</time></trkpt><trkpt lat="53.83100019994979" lon="14.631480877949459"><ele>4.0</ele><time>2026-04-12T12:08:47.9Z</time></trkpt><trkpt lat="53.83111448495692" lon="14.631374640506285"><ele>4.0</ele><time>2026-04-12T12:08:48.9Z</time></trkpt><trkpt lat="53.83122000908163" lon="14.631291792518889"><ele>4.0</ele><time>2026-04-12T12:08:49.9Z</time></trkpt><trkpt lat="53.831316215010816" lon="14.631201113587657"><ele>4.0</ele><time>2026-04-12T12:08:50.9Z</time></trkpt><trkpt lat="53.83140677303136" lon="14.631118681559414"><ele>4.0</ele><time>2026-04-12T12:08:51.9Z</time></trkpt><trkpt lat="53.831495990956064" lon="14.631039639139503"><ele>4.0</ele><time>2026-04-12T12:08:52.9Z</time></trkpt><trkpt lat="53.83158885057508" lon="14.63095317555017"><ele>4.0</ele><time>2026-04-12T12:08:53.9Z</time></trkpt><trkpt lat="53.8316815784836" lon="14.630867599078067"><ele>4.0</ele><time>2026-04-12T12:08:54.9Z</time></trkpt><trkpt lat="53.83176932298799" lon="14.630787396507326"><ele>4.0</ele><time>2026-04-12T12:08:55.9Z</time></trkpt><trkpt lat="53.83185761033874" lon="14.630703027255537"><ele>4.2</ele><time>2026-04-12T12:08:56.9Z</time></trkpt><trkpt lat="53.831944512654694" lon="14.630613283298974"><ele>4.4</ele><time>2026-04-12T12:08:57.9Z</time></trkpt><trkpt lat="53.83203249168808" lon="14.6305199515195"><ele>4.6</ele><time>2026-04-12T12:08:58.9Z</time></trkpt><trkpt lat="53.8321225580089" lon="14.630418721625885"><ele>4.8</ele><time>2026-04-12T12:08:59.9Z</time></trkpt><trkpt lat="53.8322179502794" lon="14.630309905257759"><ele>5.0</ele><time>2026-04-12T12:09:00.9Z</time></trkpt><trkpt lat="53.83232329744467" lon="14.630187756857904"><ele>4.5</ele><time>2026-04-12T12:09:01.9Z</time></trkpt><trkpt lat="53.83243972952437" lon="14.630065327943834"><ele>4.0</ele><time>2026-04-12T12:09:02.9Z</time></trkpt><trkpt lat="53.83256273318904" lon="14.629924198505012"><ele>3.5</ele><time>2026-04-12T12:09:03.9Z</time></trkpt><trkpt lat="53.832691604081184" lon="14.629777794099883"><ele>3.0</ele><time>2026-04-12T12:09:04.9Z</time></trkpt><trkpt lat="53.8328085196609" lon="14.629645722877706"><ele>2.75</ele><time>2026-04-12T12:09:05.9Z</time></trkpt><trkpt lat="53.83291983418351" lon="14.629520245961533"><ele>2.5</ele><time>2026-04-12T12:09:06.9Z</time></trkpt><trkpt lat="53.833028223326956" lon="14.62939249013394"><ele>2.25</ele><time>2026-04-12T12:09:07.9Z</time></trkpt><trkpt lat="53.83313375578902" lon="14.629268686797957"><ele>2.0</ele><time>2026-04-12T12:09:08.9Z</time></trkpt><trkpt lat="53.83323765487552" lon="14.62914702697863"><ele>2.0</ele><time>2026-04-12T12:09:09.9Z</time></trkpt><trkpt lat="53.833340629354005" lon="14.629025642408243"><ele>2.0</ele><time>2026-04-12T12:09:10.9Z</time></trkpt><trkpt lat="53.833436913628915" lon="14.628908808014533"><ele>2.0</ele><time>2026-04-12T12:09:11.9Z</time></trkpt><trkpt lat="53.83352474191556" lon="14.628794283600422"><ele>2.0</ele><time>2026-04-12T12:09:12.9Z</time></trkpt><trkpt lat="53.833609022070604" lon="14.628674817985432"><ele>2.2</ele><time>2026-04-12T12:09:13.9Z</time></trkpt><trkpt lat="53.83369061620332" lon="14.628549713222155"><ele>2.4000000000000004</ele><time>2026-04-12T12:09:14.9Z</time></trkpt><trkpt lat="53.83376817003323" lon="14.628422578169678"><ele>2.5999999999999996</ele><time>2026-04-12T12:09:15.9Z</time></trkpt><trkpt lat="53.833850506580845" lon="14.62829760670409"><ele>2.8</ele><time>2026-04-12T12:09:16.9Z</time></trkpt><trkpt lat="53.83392918441128" lon="14.62815792327519"><ele>3.0</ele><time>2026-04-12T12:09:17.9Z</time></trkpt><trkpt lat="53.83400916829321" lon="14.628015874474128"><ele>3.0</ele><time>2026-04-12T12:09:18.9Z</time></trkpt><trkpt lat="53.83409258633827" lon="14.627878110455244"><ele>3.0</ele><time>2026-04-12T12:09:19.9Z</time></trkpt><trkpt lat="53.83418242188418" lon="14.627737428881154"><ele>3.0</ele><time>2026-04-12T12:09:20.9Z</time></trkpt><trkpt lat="53.83427309336379" lon="14.627580780940475"><ele>3.0</ele><time>2026-04-12T12:09:21.9Z</time></trkpt><trkpt lat="53.83435598486431" lon="14.627405326727883"><ele>3.0</ele><time>2026-04-12T12:09:22.9Z</time></trkpt><trkpt lat="53.834441056448014" lon="14.62722292686941"><ele>3.0</ele><time>2026-04-12T12:09:23.9Z</time></trkpt><trkpt lat="53.834532570701406" lon="14.627037723173574"><ele>3.0</ele><time>2026-04-12T12:09:24.9Z</time></trkpt><trkpt lat="53.83462795467695" lon="14.6268605714895"><ele>3.0</ele><time>2026-04-12T12:09:25.9Z</time></trkpt><trkpt lat="53.834719289164354" lon="14.626690789739914"><ele>2.75</ele><time>2026-04-12T12:09:26.9Z</time></trkpt><trkpt lat="53.83481134895952" lon="14.626523366475983"><ele>2.5</ele><time>2026-04-12T12:09:27.9Z</time></trkpt><trkpt lat="53.83490456308414" lon="14.626360586379544"><ele>2.25</ele><time>2026-04-12T12:09:28.9Z</time></trkpt><trkpt lat="53.8350014326953" lon="14.626212140780675"><ele>2.0</ele><time>2026-04-12T12:09:29.9Z</time></trkpt><trkpt lat="53.83510415592994" lon="14.626068941311763"><ele>1.75</ele><time>2026-04-12T12:09:30.9Z</time></trkpt><trkpt lat="53.835205382589905" lon="14.625930273924938"><ele>1.5</ele><time>2026-04-12T12:09:31.9Z</time></trkpt><trkpt lat="53.83530597264284" lon="14.625793875454427"><ele>1.25</ele><time>2026-04-12T12:09:32.9Z</time></trkpt><trkpt lat="53.83541263069996" lon="14.625680565585114"><ele>1.0</ele><time>2026-04-12T12:09:33.9Z</time></trkpt><trkpt lat="53.8355346378887" lon="14.625615273655496"><ele>1.0</ele><time>2026-04-12T12:09:34.9Z</time></trkpt><trkpt lat="53.83567110347708" lon="14.625590483854738"><ele>1.0</ele><time>2026-04-12T12:09:35.9Z</time></trkpt><trkpt lat="53.835817613213266" lon="14.625591318063991"><ele>1.0</ele><time>2026-04-12T12:09:36.9Z</time></trkpt><trkpt lat="53.83597376130814" lon="14.625606042985611"><ele>1.0</ele><time>2026-04-12T12:09:37.9Z</time></trkpt><trkpt lat="53.83612633546269" lon="14.62563062834406"><ele>1.5</ele><time>2026-04-12T12:09:38.9Z</time></trkpt><trkpt lat="53.836274938649915" lon="14.625649543697655"><ele>2.0</ele><time>2026-04-12T12:09:39.9Z</time></trkpt><trkpt lat="53.83642317388867" lon="14.625671864935667"><ele>2.5</ele><time>2026-04-12T12:09:40.9Z</time></trkpt><trkpt lat="53.836571134859746" lon="14.625650829118298"><ele>3.0</ele><time>2026-04-12T12:09:41.9Z</time></trkpt><trkpt lat="53.836709524562" lon="14.625617527265545"><ele>3.0</ele><time>2026-04-12T12:09:42.9Z</time></trkpt><trkpt lat="53.8368494892061" lon="14.625583683368202"><ele>3.0</ele><time>2026-04-12T12:09:43.9Z</time></trkpt><trkpt lat="53.83698800945007" lon="14.625542732694226"><ele>3.0</ele><time>2026-04-12T12:09:44.9Z</time></trkpt><trkpt lat="53.8371380239915" lon="14.625527976368451"><ele>3.0</ele><time>2026-04-12T12:09:45.9Z</time></trkpt><trkpt lat="53.837291318135115" lon="14.625547542947524"><ele>3.0</ele><time>2026-04-12T12:09:46.9Z</time></trkpt><trkpt lat="53.837436085415824" lon="14.625550243144632"><ele>3.0</ele><time>2026-04-12T12:09:47.9Z</time></trkpt><trkpt lat="53.837580851692366" lon="14.625572903565471"><ele>3.0</ele><time>2026-04-12T12:09:48.9Z</time></trkpt><trkpt lat="53.837715913548564" lon="14.625600436062726"><ele>3.0</ele><time>2026-04-12T12:09:49.9Z</time></trkpt><trkpt lat="53.8378426442479" lon="14.625611039474661"><ele>2.75</ele><time>2026-04-12T12:09:50.9Z</time></trkpt><trkpt lat="53.837963944173524" lon="14.625617693522502"><ele>2.5</ele><time>2026-04-12T12:09:51.9Z</time></trkpt><trkpt lat="53.83808471273022" lon="14.625618066058118"><ele>2.25</ele><time>2026-04-12T12:09:52.9Z</time></trkpt><trkpt lat="53.83821237697956" lon="14.625607435374071"><ele>2.0</ele><time>2026-04-12T12:09:53.9Z</time></trkpt><trkpt lat="53.83834684361714" lon="14.62560001815625"><ele>2.25</ele><time>2026-04-12T12:09:54.9Z</time></trkpt><trkpt lat="53.83848935643255" lon="14.625590556538793"><ele>2.5</ele><time>2026-04-12T12:09:55.9Z</time></trkpt><trkpt lat="53.838628107171004" lon="14.625543824062113"><ele>2.75</ele><time>2026-04-12T12:09:56.9Z</time></trkpt><trkpt lat="53.83876362110134" lon="14.625504353044901"><ele>3.0</ele><time>2026-04-12T12:09:57.9Z</time></trkpt><trkpt lat="53.83889994325638" lon="14.625471627320966"><ele>3.0</ele><time>2026-04-12T12:09:58.9Z</time></trkpt><trkpt lat="53.839037714136396" lon="14.625451727816714"><ele>3.0</ele><time>2026-04-12T12:09:59.9Z</time></trkpt><trkpt lat="53.83917927430869" lon="14.625444200396112"><ele>3.0</ele><time>2026-04-12T12:10:00.9Z</time></trkpt><trkpt lat="53.83932436717528" lon="14.625436126787926"><ele>3.0</ele><time>2026-04-12T12:10:01.9Z</time></trkpt><trkpt lat="53.83945542856247" lon="14.62541797983984"><ele>3.0</ele><time>2026-04-12T12:10:02.9Z</time></trkpt><trkpt lat="53.83958429095986" lon="14.625390453369413"><ele>3.0</ele><time>2026-04-12T12:10:03.9Z</time></trkpt><trkpt lat="53.839702603359676" lon="14.625342669641677"><ele>3.0</ele><time>2026-04-12T12:10:04.9Z</time></trkpt><trkpt lat="53.83982853554605" lon="14.625326118254764"><ele>3.0</ele><time>2026-04-12T12:10:05.9Z</time></trkpt><trkpt lat="53.839964508255235" lon="14.625375901698591"><ele>3.0</ele><time>2026-04-12T12:10:06.9Z</time></trkpt><trkpt lat="53.840073441748274" lon="14.625582547080418"><ele>3.0</ele><time>2026-04-12T12:10:07.9Z</time></trkpt><trkpt lat="53.84023453927185" lon="14.625682004137513"><ele>3.0</ele><time>2026-04-12T12:10:08.9Z</time></trkpt><trkpt lat="53.840375612641864" lon="14.625761803045704"><ele>2.3333333333333335</ele><time>2026-04-12T12:10:09.9Z</time></trkpt><trkpt lat="53.84052167026212" lon="14.62584050237878"><ele>1.6666666666666665</ele><time>2026-04-12T12:10:10.9Z</time></trkpt><trkpt lat="53.84067092052863" lon="14.625960721006926"><ele>1.0</ele><time>2026-04-12T12:10:11.9Z</time></trkpt><trkpt lat="53.84082500643241" lon="14.626094220819278"><ele>1.3333333333333333</ele><time>2026-04-12T12:10:12.9Z</time></trkpt><trkpt lat="53.840971153132536" lon="14.626220296764682"><ele>1.6666666666666665</ele><time>2026-04-12T12:10:13.9Z</time></trkpt><trkpt lat="53.841108141060495" lon="14.6263425271093"><ele>2.0</ele><time>2026-04-12T12:10:14.9Z</time></trkpt><trkpt lat="53.841234858839854" lon="14.626464280714547"><ele>2.0</ele><time>2026-04-12T12:10:15.9Z</time></trkpt><trkpt lat="53.84134852550954" lon="14.626575689412125"><ele>2.0</ele><time>2026-04-12T12:10:16.899Z</time></trkpt><trkpt lat="53.84146100823989" lon="14.626688476491871"><ele>2.0</ele><time>2026-04-12T12:10:17.899Z</time></trkpt><trkpt lat="53.841579254849" lon="14.626808082257483"><ele>2.0</ele><time>2026-04-12T12:10:18.899Z</time></trkpt><trkpt lat="53.841699272696516" lon="14.626934583828627"><ele>2.25</ele><time>2026-04-12T12:10:19.899Z</time></trkpt><trkpt lat="53.841822915306274" lon="14.627062766781737"><ele>2.5</ele><time>2026-04-12T12:10:20.899Z</time></trkpt><trkpt lat="53.84195225817551" lon="14.627186668280604"><ele>2.75</ele><time>2026-04-12T12:10:21.899Z</time></trkpt><trkpt lat="53.8420749684326" lon="14.627301648418"><ele>3.0</ele><time>2026-04-12T12:10:22.899Z</time></trkpt><trkpt lat="53.842199622203346" lon="14.627415026903321"><ele>3.0</ele><time>2026-04-12T12:10:23.899Z</time></trkpt><trkpt lat="53.84232910472908" lon="14.62751304014007"><ele>3.0</ele><time>2026-04-12T12:10:24.899Z</time></trkpt><trkpt lat="53.84245745372637" lon="14.627603830584317"><ele>3.0</ele><time>2026-04-12T12:10:25.899Z</time></trkpt><trkpt lat="53.84258299220128" lon="14.62768773866116"><ele>3.0</ele><time>2026-04-12T12:10:26.899Z</time></trkpt><trkpt lat="53.84271287926823" lon="14.62776696589618"><ele>2.75</ele><time>2026-04-12T12:10:27.899Z</time></trkpt><trkpt lat="53.84284669129777" lon="14.627845776739644"><ele>2.5</ele><time>2026-04-12T12:10:28.899Z</time></trkpt><trkpt lat="53.842973059269255" lon="14.627903191719135"><ele>2.25</ele><time>2026-04-12T12:10:29.899Z</time></trkpt><trkpt lat="53.8430941191518" lon="14.627961180664446"><ele>2.0</ele><time>2026-04-12T12:10:30.899Z</time></trkpt><trkpt lat="53.84321981909409" lon="14.628019180705117"><ele>2.0</ele><time>2026-04-12T12:10:31.899Z</time></trkpt><trkpt lat="53.843345475732804" lon="14.628079204466282"><ele>2.0</ele><time>2026-04-12T12:10:32.899Z</time></trkpt><trkpt lat="53.8434587723067" lon="14.628133867240932"><ele>2.0</ele><time>2026-04-12T12:10:33.899Z</time></trkpt><trkpt lat="53.843562736302346" lon="14.628183152355787"><ele>2.0</ele><time>2026-04-12T12:10:34.899Z</time></trkpt><trkpt lat="53.843655621429825" lon="14.628228275099431"><ele>1.9999999999999998</ele><time>2026-04-12T12:10:35.899Z</time></trkpt><trkpt lat="53.84373976727396" lon="14.628282004771462"><ele>2.0</ele><time>2026-04-12T12:10:36.899Z</time></trkpt><trkpt lat="53.84381692758865" lon="14.628310093840115"><ele>2.0</ele><time>2026-04-12T12:10:37.899Z</time></trkpt><trkpt lat="53.843888198241366" lon="14.628344353274409"><ele>2.0</ele><time>2026-04-12T12:10:38.899Z</time></trkpt><trkpt lat="53.84396480784243" lon="14.62838082591907"><ele>1.9999999999999998</ele><time>2026-04-12T12:10:39.899Z</time></trkpt><trkpt lat="53.84404072998172" lon="14.628418834943714"><ele>2.0</ele><time>2026-04-12T12:10:40.899Z</time></trkpt><trkpt lat="53.844118364522345" lon="14.62845062764453"><ele>2.0</ele><time>2026-04-12T12:10:41.899Z</time></trkpt><trkpt lat="53.84422649970947" lon="14.628507991612944"><ele>2.0</ele><time>2026-04-12T12:10:43.899Z</time></trkpt><trkpt lat="53.844289189331825" lon="14.628145359499628"><ele>2.0</ele><time>2026-04-12T12:10:46.899Z</time></trkpt><trkpt lat="53.84423150949465" lon="14.627970079150387"><ele>1.6666666666666665</ele><time>2026-04-12T12:10:47.899Z</time></trkpt><trkpt lat="53.844164864465526" lon="14.627766792709354"><ele>1.3333333333333333</ele><time>2026-04-12T12:10:48.899Z</time></trkpt><trkpt lat="53.84406562950747" lon="14.62752870707841"><ele>1.0</ele><time>2026-04-12T12:10:49.899Z</time></trkpt><trkpt lat="53.84397151183375" lon="14.627282263066444"><ele>1.0</ele><time>2026-04-12T12:10:50.899Z</time></trkpt><trkpt lat="53.84390279393637" lon="14.627005085306058"><ele>1.0</ele><time>2026-04-12T12:10:51.899Z</time></trkpt><trkpt lat="53.84383021027061" lon="14.626681757913357"><ele>1.0</ele><time>2026-04-12T12:10:52.899Z</time></trkpt><trkpt lat="53.843749869621725" lon="14.626326374862613"><ele>1.5</ele><time>2026-04-12T12:10:53.899Z</time></trkpt><trkpt lat="53.843667731731976" lon="14.625965360995579"><ele>2.0</ele><time>2026-04-12T12:10:54.899Z</time></trkpt><trkpt lat="53.84358732271496" lon="14.625609143562633"><ele>1.0</ele><time>2026-04-12T12:10:55.899Z</time></trkpt><trkpt lat="53.84351030297506" lon="14.625265127053806"><ele>0.0</ele><time>2026-04-12T12:10:56.899Z</time></trkpt><trkpt lat="53.84342521930276" lon="14.624954785505373"><ele>-1.0</ele><time>2026-04-12T12:10:57.899Z</time></trkpt><trkpt lat="53.84335970612959" lon="14.624652795855594"><ele>-1.3333333333333333</ele><time>2026-04-12T12:10:58.899Z</time></trkpt><trkpt lat="53.84329650110092" lon="14.624368535714728"><ele>-1.6666666666666665</ele><time>2026-04-12T12:10:59.899Z</time></trkpt><trkpt lat="53.84323496670656" lon="14.624091257674555"><ele>-2.0</ele><time>2026-04-12T12:11:00.899Z</time></trkpt><trkpt lat="53.84317828268812" lon="14.623832032873583"><ele>-2.0</ele><time>2026-04-12T12:11:01.899Z</time></trkpt><trkpt lat="53.84313159937036" lon="14.623586583718579"><ele>-2.0</ele><time>2026-04-12T12:11:02.899Z</time></trkpt><trkpt lat="53.843109565334444" lon="14.623306180471673"><ele>-2.0</ele><time>2026-04-12T12:11:03.899Z</time></trkpt><trkpt lat="53.843070416736865" lon="14.62303939699286"><ele>-2.333333333333333</ele><time>2026-04-12T12:11:04.899Z</time></trkpt><trkpt lat="53.84305657728646" lon="14.622748864394493"><ele>-2.6666666666666665</ele><time>2026-04-12T12:11:05.899Z</time></trkpt><trkpt lat="53.84307289950748" lon="14.62246686381267"><ele>-3.0</ele><time>2026-04-12T12:11:06.899Z</time></trkpt><trkpt lat="53.84308760235474" lon="14.622175696026524"><ele>-2.3333333333333335</ele><time>2026-04-12T12:11:07.899Z</time></trkpt><trkpt lat="53.843115464634494" lon="14.62188126455466"><ele>-1.6666666666666665</ele><time>2026-04-12T12:11:08.899Z</time></trkpt><trkpt lat="53.84313856328098" lon="14.62160445502848"><ele>-1.0</ele><time>2026-04-12T12:11:09.899Z</time></trkpt><trkpt lat="53.843183808169556" lon="14.621361171695918"><ele>-0.75</ele><time>2026-04-12T12:11:10.899Z</time></trkpt><trkpt lat="53.8432292929963" lon="14.621143783348142"><ele>-0.5</ele><time>2026-04-12T12:11:11.899Z</time></trkpt><trkpt lat="53.84328913037098" lon="14.62096568777477"><ele>-0.25</ele><time>2026-04-12T12:11:12.899Z</time></trkpt><trkpt lat="53.843330146133816" lon="14.620773629150783"><ele>0.0</ele><time>2026-04-12T12:11:13.899Z</time></trkpt><trkpt lat="53.84336955813895" lon="14.620590051388767"><ele>0.0</ele><time>2026-04-12T12:11:14.899Z</time></trkpt><trkpt lat="53.843405772123404" lon="14.620417517085892"><ele>0.0</ele><time>2026-04-12T12:11:15.899Z</time></trkpt><trkpt lat="53.84345129778807" lon="14.620235248476103"><ele>0.0</ele><time>2026-04-12T12:11:16.899Z</time></trkpt><trkpt lat="53.84349425525785" lon="14.620054263687795"><ele>0.0</ele><time>2026-04-12T12:11:17.899Z</time></trkpt><trkpt lat="53.84353795442453" lon="14.619863677239977"><ele>0.0</ele><time>2026-04-12T12:11:18.899Z</time></trkpt><trkpt lat="53.84358631230239" lon="14.619667366859948"><ele>0.0</ele><time>2026-04-12T12:11:19.899Z</time></trkpt><trkpt lat="53.8436313942509" lon="14.619473028850862"><ele>0.0</ele><time>2026-04-12T12:11:20.899Z</time></trkpt><trkpt lat="53.84367381586189" lon="14.61929585337102"><ele>0.0</ele><time>2026-04-12T12:11:21.899Z</time></trkpt><trkpt lat="53.84371417413494" lon="14.619118590831704"><ele>0.0</ele><time>2026-04-12T12:11:22.899Z</time></trkpt><trkpt lat="53.84375570247786" lon="14.618941747840246"><ele>0.0</ele><time>2026-04-12T12:11:23.899Z</time></trkpt><trkpt lat="53.84380283754311" lon="14.618748318782488"><ele>0.0</ele><time>2026-04-12T12:11:24.899Z</time></trkpt><trkpt lat="53.84385088921556" lon="14.618552876976375"><ele>0.0</ele><time>2026-04-12T12:11:25.899Z</time></trkpt><trkpt lat="53.84389563876502" lon="14.618370074152514"><ele>0.6</ele><time>2026-04-12T12:11:26.899Z</time></trkpt><trkpt lat="53.84393660067536" lon="14.618191851480136"><ele>1.2</ele><time>2026-04-12T12:11:27.899Z</time></trkpt><trkpt lat="53.843974949639026" lon="14.618015510579186"><ele>1.7999999999999998</ele><time>2026-04-12T12:11:28.899Z</time></trkpt><trkpt lat="53.84401736771941" lon="14.617843352334162"><ele>2.4</ele><time>2026-04-12T12:11:29.899Z</time></trkpt><trkpt lat="53.84405647468406" lon="14.617667204593651"><ele>3.0</ele><time>2026-04-12T12:11:30.899Z</time></trkpt><trkpt lat="53.84409127349889" lon="14.617503212151604"><ele>3.4</ele><time>2026-04-12T12:11:31.899Z</time></trkpt><trkpt lat="53.84412678568023" lon="14.617356104352005"><ele>3.8</ele><time>2026-04-12T12:11:32.899Z</time></trkpt><trkpt lat="53.84416136228545" lon="14.617217858937758"><ele>4.2</ele><time>2026-04-12T12:11:33.899Z</time></trkpt><trkpt lat="53.84419728312643" lon="14.617057974710029"><ele>4.6</ele><time>2026-04-12T12:11:34.899Z</time></trkpt><trkpt lat="53.84423266120931" lon="14.616910675423476"><ele>5.0</ele><time>2026-04-12T12:11:35.899Z</time></trkpt><trkpt lat="53.844265509390716" lon="14.61677338194426"><ele>4.8</ele><time>2026-04-12T12:11:36.899Z</time></trkpt><trkpt lat="53.844301241820915" lon="14.616620482181975"><ele>4.6</ele><time>2026-04-12T12:11:37.899Z</time></trkpt><trkpt lat="53.8443490930526" lon="14.616466371165705"><ele>4.4</ele><time>2026-04-12T12:11:38.899Z</time></trkpt><trkpt lat="53.84438362568339" lon="14.6163050330416"><ele>4.2</ele><time>2026-04-12T12:11:39.899Z</time></trkpt><trkpt lat="53.84441589246348" lon="14.616149152887358"><ele>4.0</ele><time>2026-04-12T12:11:40.899Z</time></trkpt><trkpt lat="53.84444878718453" lon="14.615993371662489"><ele>4.4</ele><time>2026-04-12T12:11:41.899Z</time></trkpt><trkpt lat="53.844482709751546" lon="14.615852486086062"><ele>4.800000000000001</ele><time>2026-04-12T12:11:42.899Z</time></trkpt><trkpt lat="53.84452042468374" lon="14.615706651431498"><ele>5.199999999999999</ele><time>2026-04-12T12:11:43.899Z</time></trkpt><trkpt lat="53.844552538167584" lon="14.615563230444147"><ele>5.6</ele><time>2026-04-12T12:11:44.899Z</time></trkpt><trkpt lat="53.844586814499436" lon="14.615422753631998"><ele>6.0</ele><time>2026-04-12T12:11:45.899Z</time></trkpt><trkpt lat="53.84462260342062" lon="14.615281160833193"><ele>6.0</ele><time>2026-04-12T12:11:46.899Z</time></trkpt><trkpt lat="53.84467721247883" lon="14.615153196282689"><ele>6.0</ele><time>2026-04-12T12:11:47.899Z</time></trkpt><trkpt lat="53.84474256645949" lon="14.61505408362554"><ele>6.0</ele><time>2026-04-12T12:11:48.899Z</time></trkpt><trkpt lat="53.844812629167514" lon="14.614953946180009"><ele>6.0</ele><time>2026-04-12T12:11:49.899Z</time></trkpt><trkpt lat="53.84488027003642" lon="14.614864338993028"><ele>6.0</ele><time>2026-04-12T12:11:50.899Z</time></trkpt><trkpt lat="53.84494166182266" lon="14.614780747553311"><ele>6.0</ele><time>2026-04-12T12:11:51.899Z</time></trkpt><trkpt lat="53.844994883020235" lon="14.614709501771014"><ele>6.0</ele><time>2026-04-12T12:11:52.899Z</time></trkpt><trkpt lat="53.84508939826812" lon="14.61458297733156"><ele>6.0</ele><time>2026-04-12T12:11:54.899Z</time></trkpt><trkpt lat="53.84518167009736" lon="14.614457761050081"><ele>6.0</ele><time>2026-04-12T12:11:56.899Z</time></trkpt><trkpt lat="53.84522615409182" lon="14.614356379656002"><ele>6.0</ele><time>2026-04-12T12:11:57.899Z</time></trkpt><trkpt lat="53.84527574623538" lon="14.614260918326192"><ele>6.0</ele><time>2026-04-12T12:11:58.899Z</time></trkpt><trkpt lat="53.84530741665299" lon="14.61414161250438"><ele>5.333333333333333</ele><time>2026-04-12T12:11:59.899Z</time></trkpt><trkpt lat="53.84532212024595" lon="14.614011781278693"><ele>4.666666666666667</ele><time>2026-04-12T12:12:00.899Z</time></trkpt><trkpt lat="53.845323693641724" lon="14.613901129036165"><ele>4.0</ele><time>2026-04-12T12:12:01.899Z</time></trkpt><trkpt lat="53.84532915469855" lon="14.613718066456899"><ele>3.333333333333333</ele><time>2026-04-12T12:12:03.899Z</time></trkpt><trkpt lat="53.84533256046529" lon="14.613539988228897"><ele>2.6666666666666665</ele><time>2026-04-12T12:12:05.899Z</time></trkpt><trkpt lat="53.84535291383394" lon="14.613394623146238"><ele>2.0</ele><time>2026-04-12T12:12:07.899Z</time></trkpt><trkpt lat="53.84536357649115" lon="14.613269490904253"><ele>2.0</ele><time>2026-04-12T12:18:25.932Z</time></trkpt><trkpt lat="53.845391246255936" lon="14.613075750055872"><ele>2.0</ele><time>2026-04-12T12:18:27.932Z</time></trkpt><trkpt lat="53.84539738411315" lon="14.612954923358384"><ele>2.0</ele><time>2026-04-12T12:18:28.932Z</time></trkpt><trkpt lat="53.845454228158566" lon="14.61275464752675"><ele>2.0</ele><time>2026-04-12T12:18:29.932Z</time></trkpt><trkpt lat="53.84550070424091" lon="14.612607751140157"><ele>2.0</ele><time>2026-04-12T12:18:30.932Z</time></trkpt><trkpt lat="53.84554354382358" lon="14.612464832750023"><ele>1.8</ele><time>2026-04-12T12:18:31.932Z</time></trkpt><trkpt lat="53.84560345550314" lon="14.612331171778157"><ele>1.6</ele><time>2026-04-12T12:18:32.932Z</time></trkpt><trkpt lat="53.84564554509936" lon="14.612195994345841"><ele>1.4000000000000001</ele><time>2026-04-12T12:18:33.932Z</time></trkpt><trkpt lat="53.84568278814448" lon="14.612076319837785"><ele>1.2000000000000002</ele><time>2026-04-12T12:18:34.932Z</time></trkpt><trkpt lat="53.845717182516694" lon="14.611965798851344"><ele>1.0</ele><time>2026-04-12T12:18:35.932Z</time></trkpt><trkpt lat="53.845774074990565" lon="14.61180340733975"><ele>1.0</ele><time>2026-04-12T12:18:37.932Z</time></trkpt><trkpt lat="53.845837378198375" lon="14.611796553354656"><ele>1.0</ele><time>2026-04-12T12:18:38.932Z</time></trkpt><trkpt lat="53.84592658412835" lon="14.611836173825706"><ele>1.0</ele><time>2026-04-12T12:18:39.932Z</time></trkpt><trkpt lat="53.846028684783995" lon="14.611884805834286"><ele>1.0</ele><time>2026-04-12T12:18:40.932Z</time></trkpt><trkpt lat="53.84614200065871" lon="14.611939368706112"><ele>1.0</ele><time>2026-04-12T12:18:41.932Z</time></trkpt><trkpt lat="53.84625145286531" lon="14.611986708814193"><ele>1.0</ele><time>2026-04-12T12:18:42.932Z</time></trkpt><trkpt lat="53.84634982413195" lon="14.612025856536281"><ele>1.0</ele><time>2026-04-12T12:18:43.931Z</time></trkpt><trkpt lat="53.84645477250799" lon="14.612046860307155"><ele>1.0</ele><time>2026-04-12T12:18:44.931Z</time></trkpt><trkpt lat="53.84655830874385" lon="14.612046834366575"><ele>1.0</ele><time>2026-04-12T12:18:45.931Z</time></trkpt><trkpt lat="53.846673382841985" lon="14.612037770682274"><ele>1.0</ele><time>2026-04-12T12:18:46.931Z</time></trkpt><trkpt lat="53.84679414951488" lon="14.6120144703476"><ele>1.2000000000000002</ele><time>2026-04-12T12:18:47.932Z</time></trkpt><trkpt lat="53.84690272951996" lon="14.61200510735259"><ele>1.4000000000000001</ele><time>2026-04-12T12:18:48.932Z</time></trkpt><trkpt lat="53.84701405718007" lon="14.611979610912309"><ele>1.6</ele><time>2026-04-12T12:18:49.931Z</time></trkpt><trkpt lat="53.847124708347046" lon="14.611967712263903"><ele>1.8</ele><time>2026-04-12T12:18:50.932Z</time></trkpt><trkpt lat="53.8472299489877" lon="14.611961563676608"><ele>2.0</ele><time>2026-04-12T12:18:51.932Z</time></trkpt><trkpt lat="53.84731934191286" lon="14.611950432031144"><ele>2.4000000000000004</ele><time>2026-04-12T12:18:52.931Z</time></trkpt><trkpt lat="53.847408589090946" lon="14.611955868554256"><ele>2.8000000000000003</ele><time>2026-04-12T12:18:53.931Z</time></trkpt><trkpt lat="53.84749557788921" lon="14.611973177955257"><ele>3.2</ele><time>2026-04-12T12:18:54.931Z</time></trkpt><trkpt lat="53.847589608958025" lon="14.611957697714258"><ele>3.6</ele><time>2026-04-12T12:18:55.931Z</time></trkpt><trkpt lat="53.84768816446544" lon="14.611933724175815"><ele>4.0</ele><time>2026-04-12T12:18:56.931Z</time></trkpt><trkpt lat="53.847783693351104" lon="14.611939414010532"><ele>4.166666666666666</ele><time>2026-04-12T12:18:57.931Z</time></trkpt><trkpt lat="53.84786885616698" lon="14.611962462432503"><ele>4.333333333333333</ele><time>2026-04-12T12:18:58.931Z</time></trkpt><trkpt lat="53.847948803654525" lon="14.61194426898457"><ele>4.5</ele><time>2026-04-12T12:18:59.931Z</time></trkpt><trkpt lat="53.848012717740275" lon="14.611939595827796"><ele>4.666666666666667</ele><time>2026-04-12T12:19:00.931Z</time></trkpt><trkpt lat="53.84808175611335" lon="14.611934294509856"><ele>4.833333333333334</ele><time>2026-04-12T12:19:01.931Z</time></trkpt><trkpt lat="53.84818230270808" lon="14.611926346276352"><ele>5.0</ele><time>2026-04-12T12:19:03.931Z</time></trkpt><trkpt lat="53.84816639033216" lon="14.611789429488251"><ele>5.0</ele><time>2026-04-12T12:19:05.931Z</time></trkpt><trkpt lat="53.84815691831297" lon="14.611584052861915"><ele>5.0</ele><time>2026-04-12T12:19:06.931Z</time></trkpt><trkpt lat="53.848183385347944" lon="14.611344069284263"><ele>5.0</ele><time>2026-04-12T12:19:07.931Z</time></trkpt><trkpt lat="53.84819658493525" lon="14.611103189415287"><ele>5.0</ele><time>2026-04-12T12:19:08.931Z</time></trkpt><trkpt lat="53.848212609311574" lon="14.610834935501263"><ele>5.0</ele><time>2026-04-12T12:19:09.931Z</time></trkpt><trkpt lat="53.84822864257534" lon="14.610567246305756"><ele>5.0</ele><time>2026-04-12T12:19:10.931Z</time></trkpt><trkpt lat="53.848244284123176" lon="14.610306101794809"><ele>5.0</ele><time>2026-04-12T12:19:11.931Z</time></trkpt><trkpt lat="53.84824486408526" lon="14.610044066530525"><ele>5.0</ele><time>2026-04-12T12:19:12.931Z</time></trkpt><trkpt lat="53.84826710948638" lon="14.609806693623256"><ele>5.0</ele><time>2026-04-12T12:19:13.931Z</time></trkpt><trkpt lat="53.84828423819206" lon="14.609566586194317"><ele>5.0</ele><time>2026-04-12T12:19:14.931Z</time></trkpt><trkpt lat="53.848288489835554" lon="14.609316632151275"><ele>5.0</ele><time>2026-04-12T12:19:15.931Z</time></trkpt><trkpt lat="53.84831367496893" lon="14.609060179611046"><ele>5.0</ele><time>2026-04-12T12:19:16.931Z</time></trkpt><trkpt lat="53.84834015171679" lon="14.60880271958669"><ele>5.0</ele><time>2026-04-12T12:19:17.931Z</time></trkpt><trkpt lat="53.848366536704546" lon="14.60854494569203"><ele>5.0</ele><time>2026-04-12T12:19:18.931Z</time></trkpt><trkpt lat="53.84838584767673" lon="14.608285017330306"><ele>5.0</ele><time>2026-04-12T12:19:19.931Z</time></trkpt><trkpt lat="53.84840347615426" lon="14.60801712494824"><ele>5.0</ele><time>2026-04-12T12:19:20.931Z</time></trkpt><trkpt lat="53.84843050231782" lon="14.607741944481333"><ele>5.0</ele><time>2026-04-12T12:19:21.931Z</time></trkpt><trkpt lat="53.84848473239911" lon="14.607470065989482"><ele>4.333333333333334</ele><time>2026-04-12T12:19:22.931Z</time></trkpt><trkpt lat="53.84852422552288" lon="14.607191584956333"><ele>3.666666666666667</ele><time>2026-04-12T12:19:23.931Z</time></trkpt><trkpt lat="53.84856551539754" lon="14.606900005062121"><ele>3.0</ele><time>2026-04-12T12:19:24.931Z</time></trkpt><trkpt lat="53.848600110508954" lon="14.606597172896832"><ele>3.0</ele><time>2026-04-12T12:19:25.932Z</time></trkpt><trkpt lat="53.84865450269697" lon="14.606289542386229"><ele>3.0</ele><time>2026-04-12T12:19:26.932Z</time></trkpt><trkpt lat="53.84871928926081" lon="14.605987304974382"><ele>3.0</ele><time>2026-04-12T12:19:27.932Z</time></trkpt><trkpt lat="53.84877197624523" lon="14.605667948069362"><ele>3.333333333333333</ele><time>2026-04-12T12:19:28.932Z</time></trkpt><trkpt lat="53.84882658048085" lon="14.605335227607863"><ele>3.6666666666666665</ele><time>2026-04-12T12:19:29.932Z</time></trkpt><trkpt lat="53.84888234835549" lon="14.604988889727283"><ele>4.0</ele><time>2026-04-12T12:19:30.932Z</time></trkpt><trkpt lat="53.84894007572438" lon="14.604629666180903"><ele>4.0</ele><time>2026-04-12T12:19:31.932Z</time></trkpt><trkpt lat="53.848998537312085" lon="14.604265873690315"><ele>4.0</ele><time>2026-04-12T12:19:32.932Z</time></trkpt><trkpt lat="53.84904370171642" lon="14.603912304122268"><ele>4.0</ele><time>2026-04-12T12:19:33.932Z</time></trkpt><trkpt lat="53.84910096353639" lon="14.603557287401332"><ele>4.0</ele><time>2026-04-12T12:19:34.932Z</time></trkpt><trkpt lat="53.84916104765289" lon="14.603203943490612"><ele>4.0</ele><time>2026-04-12T12:19:35.932Z</time></trkpt><trkpt lat="53.849225532776984" lon="14.602848355494833"><ele>4.0</ele><time>2026-04-12T12:19:36.932Z</time></trkpt><trkpt lat="53.84929478226387" lon="14.602495358926143"><ele>4.0</ele><time>2026-04-12T12:19:37.932Z</time></trkpt><trkpt lat="53.84937223510951" lon="14.602142348316994"><ele>4.0</ele><time>2026-04-12T12:19:38.932Z</time></trkpt><trkpt lat="53.849453452701944" lon="14.601787168310446"><ele>4.0</ele><time>2026-04-12T12:19:39.932Z</time></trkpt><trkpt lat="53.84955640928931" lon="14.601443888386855"><ele>2.5</ele><time>2026-04-12T12:19:40.932Z</time></trkpt><trkpt lat="53.84965489282059" lon="14.601093851695477"><ele>1.0</ele><time>2026-04-12T12:19:41.932Z</time></trkpt><trkpt lat="53.849756622229954" lon="14.600742819502786"><ele>1.0</ele><time>2026-04-12T12:19:42.932Z</time></trkpt><trkpt lat="53.849859816154094" lon="14.600393001167959"><ele>1.0</ele><time>2026-04-12T12:19:43.932Z</time></trkpt><trkpt lat="53.849960238804215" lon="14.600055416452872"><ele>1.0</ele><time>2026-04-12T12:19:44.932Z</time></trkpt><trkpt lat="53.850056408863196" lon="14.59973499418648"><ele>1.0</ele><time>2026-04-12T12:19:45.932Z</time></trkpt><trkpt lat="53.85015141035341" lon="14.599428450639085"><ele>1.0</ele><time>2026-04-12T12:19:46.932Z</time></trkpt><trkpt lat="53.85024328547684" lon="14.599143811021893"><ele>0.6666666666666666</ele><time>2026-04-12T12:19:47.932Z</time></trkpt><trkpt lat="53.85032985876496" lon="14.598884346046873"><ele>0.3333333333333333</ele><time>2026-04-12T12:19:48.932Z</time></trkpt><trkpt lat="53.85044077463528" lon="14.598671471508917"><ele>0.0</ele><time>2026-04-12T12:19:49.932Z</time></trkpt><trkpt lat="53.85058277327365" lon="14.598490100297504"><ele>0.0</ele><time>2026-04-12T12:19:50.932Z</time></trkpt><trkpt lat="53.85073883932269" lon="14.59834023176815"><ele>0.0</ele><time>2026-04-12T12:19:51.932Z</time></trkpt><trkpt lat="53.85090828764716" lon="14.598187495122684"><ele>0.0</ele><time>2026-04-12T12:19:52.932Z</time></trkpt><trkpt lat="53.85109126703311" lon="14.598087937819187"><ele>0.0</ele><time>2026-04-12T12:19:53.932Z</time></trkpt><trkpt lat="53.8512623847833" lon="14.598004120049664"><ele>0.0</ele><time>2026-04-12T12:19:54.932Z</time></trkpt><trkpt lat="53.851417732116424" lon="14.597902954849248"><ele>0.0</ele><time>2026-04-12T12:19:55.932Z</time></trkpt><trkpt lat="53.85155780019824" lon="14.597815160905128"><ele>0.0</ele><time>2026-04-12T12:19:56.932Z</time></trkpt><trkpt lat="53.85167225315947" lon="14.597671286170002"><ele>0.0</ele><time>2026-04-12T12:19:57.932Z</time></trkpt><trkpt lat="53.851769027747146" lon="14.597455977712412"><ele>0.0</ele><time>2026-04-12T12:19:58.932Z</time></trkpt><trkpt lat="53.8518390931465" lon="14.597205812034352"><ele>-0.2</ele><time>2026-04-12T12:19:59.932Z</time></trkpt><trkpt lat="53.851872668003516" lon="14.596965087504982"><ele>-0.4</ele><time>2026-04-12T12:20:00.932Z</time></trkpt><trkpt lat="53.85189089700021" lon="14.596754801320717"><ele>-0.6000000000000001</ele><time>2026-04-12T12:20:01.932Z</time></trkpt><trkpt lat="53.851872104582775" lon="14.59657678118747"><ele>-0.8</ele><time>2026-04-12T12:20:02.932Z</time></trkpt><trkpt lat="53.851902575187424" lon="14.59647011932565"><ele>-1.0</ele><time>2026-04-12T12:20:03.932Z</time></trkpt><trkpt lat="53.851919517148616" lon="14.59633357915411"><ele>-1.3333333333333333</ele><time>2026-04-12T12:20:05.932Z</time></trkpt><trkpt lat="53.851996339282564" lon="14.596149080401354"><ele>-1.6666666666666665</ele><time>2026-04-12T12:20:07.932Z</time></trkpt><trkpt lat="53.852028016086884" lon="14.59603486706735"><ele>-2.0</ele><time>2026-04-12T12:20:08.932Z</time></trkpt><trkpt lat="53.85202783318266" lon="14.595909329992349"><ele>-2.3333333333333335</ele><time>2026-04-12T12:20:09.932Z</time></trkpt><trkpt lat="53.85199744200801" lon="14.595788622982772"><ele>-2.6666666666666665</ele><time>2026-04-12T12:20:10.932Z</time></trkpt><trkpt lat="53.85193769835225" lon="14.595684287691927"><ele>-3.0</ele><time>2026-04-12T12:20:11.932Z</time></trkpt><trkpt lat="53.85187673901474" lon="14.595574988145966"><ele>-3.0</ele><time>2026-04-12T12:20:12.932Z</time></trkpt><trkpt lat="53.85184998460002" lon="14.595423729789966"><ele>-3.0</ele><time>2026-04-12T12:20:13.932Z</time></trkpt><trkpt lat="53.85187487981752" lon="14.59524978450345"><ele>-3.0</ele><time>2026-04-12T12:20:14.932Z</time></trkpt><trkpt lat="53.851860302393774" lon="14.595049524048601"><ele>-3.0</ele><time>2026-04-12T12:20:15.932Z</time></trkpt><trkpt lat="53.85186204154168" lon="14.59482454328714"><ele>-3.25</ele><time>2026-04-12T12:20:16.932Z</time></trkpt><trkpt lat="53.85186401241498" lon="14.594595722610809"><ele>-3.5</ele><time>2026-04-12T12:20:17.932Z</time></trkpt><trkpt lat="53.851867670676675" lon="14.594352106794217"><ele>-3.75</ele><time>2026-04-12T12:20:18.932Z</time></trkpt><trkpt lat="53.85187267015225" lon="14.594110012446865"><ele>-4.0</ele><time>2026-04-12T12:20:19.932Z</time></trkpt><trkpt lat="53.851878044751686" lon="14.593863638790642"><ele>-3.6666666666666665</ele><time>2026-04-12T12:20:20.932Z</time></trkpt><trkpt lat="53.851887167690585" lon="14.593599536599175"><ele>-3.333333333333333</ele><time>2026-04-12T12:20:21.932Z</time></trkpt><trkpt lat="53.85190320001469" lon="14.59334047893413"><ele>-3.0</ele><time>2026-04-12T12:20:22.932Z</time></trkpt><trkpt lat="53.85193172128063" lon="14.59307504306947"><ele>-3.0</ele><time>2026-04-12T12:20:23.932Z</time></trkpt><trkpt lat="53.851977774403586" lon="14.592795886367485"><ele>-3.0</ele><time>2026-04-12T12:20:24.932Z</time></trkpt><trkpt lat="53.8520444508967" lon="14.592522048830414"><ele>-3.0</ele><time>2026-04-12T12:20:25.932Z</time></trkpt><trkpt lat="53.852129970224524" lon="14.592234258154683"><ele>-2.6666666666666665</ele><time>2026-04-12T12:20:26.932Z</time></trkpt><trkpt lat="53.85222231891283" lon="14.591941510754836"><ele>-2.333333333333333</ele><time>2026-04-12T12:20:27.932Z</time></trkpt><trkpt lat="53.852319341077354" lon="14.591626488593102"><ele>-2.0</ele><time>2026-04-12T12:20:28.932Z</time></trkpt><trkpt lat="53.852419606515134" lon="14.591284705127068"><ele>-2.0</ele><time>2026-04-12T12:20:29.932Z</time></trkpt><trkpt lat="53.8525227718359" lon="14.59092206361458"><ele>-2.0</ele><time>2026-04-12T12:20:30.932Z</time></trkpt><trkpt lat="53.8526295719037" lon="14.590559938095724"><ele>-1.5</ele><time>2026-04-12T12:20:31.932Z</time></trkpt><trkpt lat="53.85274338286109" lon="14.590201334006577"><ele>-1.0</ele><time>2026-04-12T12:20:32.932Z</time></trkpt><trkpt lat="53.852862997490995" lon="14.589831686024002"><ele>-0.5</ele><time>2026-04-12T12:20:33.932Z</time></trkpt><trkpt lat="53.85298213410997" lon="14.58945343043427"><ele>0.0</ele><time>2026-04-12T12:20:34.932Z</time></trkpt><trkpt lat="53.85310076486256" lon="14.589070579150174"><ele>0.0</ele><time>2026-04-12T12:20:35.932Z</time></trkpt><trkpt lat="53.85322025952827" lon="14.588683079811686"><ele>0.0</ele><time>2026-04-12T12:20:36.932Z</time></trkpt><trkpt lat="53.853341255609934" lon="14.588289507411433"><ele>-0.5</ele><time>2026-04-12T12:20:37.932Z</time></trkpt><trkpt lat="53.85346557385453" lon="14.58788974803201"><ele>-1.0</ele><time>2026-04-12T12:20:38.932Z</time></trkpt><trkpt lat="53.85359554684812" lon="14.587483913236577"><ele>-1.0</ele><time>2026-04-12T12:20:39.932Z</time></trkpt><trkpt lat="53.85372712190962" lon="14.58707461947661"><ele>-1.0</ele><time>2026-04-12T12:20:40.932Z</time></trkpt><trkpt lat="53.85385732788261" lon="14.586669272369392"><ele>-1.0</ele><time>2026-04-12T12:20:41.932Z</time></trkpt><trkpt lat="53.853985748248974" lon="14.586265982571339"><ele>-1.0</ele><time>2026-04-12T12:20:42.932Z</time></trkpt><trkpt lat="53.854112132124314" lon="14.585861123401333"><ele>-0.5</ele><time>2026-04-12T12:20:43.932Z</time></trkpt><trkpt lat="53.85423747524622" lon="14.58545631645478"><ele>0.0</ele><time>2026-04-12T12:20:44.932Z</time></trkpt><trkpt lat="53.85436402059361" lon="14.585054869080857"><ele>0.0</ele><time>2026-04-12T12:20:45.932Z</time></trkpt><trkpt lat="53.85449136823886" lon="14.584657031138697"><ele>0.0</ele><time>2026-04-12T12:20:46.931Z</time></trkpt><trkpt lat="53.854617828040155" lon="14.584256242252996"><ele>0.0</ele><time>2026-04-12T12:20:47.931Z</time></trkpt><trkpt lat="53.854745257232665" lon="14.583854300989257"><ele>0.0</ele><time>2026-04-12T12:20:48.932Z</time></trkpt><trkpt lat="53.85487254927611" lon="14.583456056132675"><ele>0.0</ele><time>2026-04-12T12:20:49.931Z</time></trkpt><trkpt lat="53.85499790386405" lon="14.583055688398888"><ele>0.0</ele><time>2026-04-12T12:20:50.931Z</time></trkpt><trkpt lat="53.855120242829614" lon="14.58265101704711"><ele>3.0</ele><time>2026-04-12T12:20:51.931Z</time></trkpt><trkpt lat="53.85524722642137" lon="14.582253687652896"><ele>6.0</ele><time>2026-04-12T12:20:52.931Z</time></trkpt><trkpt lat="53.855374516217104" lon="14.581854656041646"><ele>6.0</ele><time>2026-04-12T12:20:53.931Z</time></trkpt><trkpt lat="53.85550306371808" lon="14.581448518846702"><ele>6.0</ele><time>2026-04-12T12:20:54.931Z</time></trkpt><trkpt lat="53.85562931303926" lon="14.58104410474721"><ele>6.0</ele><time>2026-04-12T12:20:55.931Z</time></trkpt><trkpt lat="53.855755264643314" lon="14.580640875713598"><ele>6.0</ele><time>2026-04-12T12:20:56.931Z</time></trkpt><trkpt lat="53.8558822728613" lon="14.580236760215577"><ele>8.0</ele><time>2026-04-12T12:20:57.931Z</time></trkpt><trkpt lat="53.8560097052114" lon="14.579832724957727"><ele>10.0</ele><time>2026-04-12T12:20:58.931Z</time></trkpt><trkpt lat="53.85613754559698" lon="14.579433190169581"><ele>10.0</ele><time>2026-04-12T12:20:59.931Z</time></trkpt><trkpt lat="53.856268781078114" lon="14.579034143417598"><ele>10.0</ele><time>2026-04-12T12:21:00.931Z</time></trkpt><trkpt lat="53.856395388786346" lon="14.57863104274496"><ele>7.0</ele><time>2026-04-12T12:21:01.931Z</time></trkpt><trkpt lat="53.85652244636644" lon="14.578229741286066"><ele>4.0</ele><time>2026-04-12T12:21:02.931Z</time></trkpt><trkpt lat="53.856656116385814" lon="14.577834194083096"><ele>6.5</ele><time>2026-04-12T12:21:03.931Z</time></trkpt><trkpt lat="53.85679161891695" lon="14.57742839065941"><ele>9.0</ele><time>2026-04-12T12:21:04.931Z</time></trkpt><trkpt lat="53.856919731802755" lon="14.577015187697002"><ele>9.0</ele><time>2026-04-12T12:21:05.931Z</time></trkpt><trkpt lat="53.8570436154703" lon="14.576597546369532"><ele>9.0</ele><time>2026-04-12T12:21:06.931Z</time></trkpt><trkpt lat="53.857165544456" lon="14.576177128511283"><ele>9.0</ele><time>2026-04-12T12:21:07.931Z</time></trkpt><trkpt lat="53.8572835570896" lon="14.57575920096936"><ele>9.0</ele><time>2026-04-12T12:21:08.931Z</time></trkpt><trkpt lat="53.85740098825815" lon="14.575338866703133"><ele>9.5</ele><time>2026-04-12T12:21:09.931Z</time></trkpt><trkpt lat="53.857514251161206" lon="14.57491957017093"><ele>10.0</ele><time>2026-04-12T12:21:10.931Z</time></trkpt><trkpt lat="53.857626011970474" lon="14.574490685543235"><ele>10.0</ele><time>2026-04-12T12:21:11.931Z</time></trkpt><trkpt lat="53.857739747397375" lon="14.574059436179784"><ele>10.0</ele><time>2026-04-12T12:21:12.931Z</time></trkpt><trkpt lat="53.85785092324131" lon="14.57362962413128"><ele>11.0</ele><time>2026-04-12T12:21:13.931Z</time></trkpt><trkpt lat="53.85795844320492" lon="14.57319291588094"><ele>12.0</ele><time>2026-04-12T12:21:14.931Z</time></trkpt><trkpt lat="53.85806136762996" lon="14.572756771391921"><ele>12.0</ele><time>2026-04-12T12:21:15.931Z</time></trkpt><trkpt lat="53.85816593479919" lon="14.572321906456775"><ele>12.0</ele><time>2026-04-12T12:21:16.931Z</time></trkpt><trkpt lat="53.858267295656155" lon="14.57188466718833"><ele>12.5</ele><time>2026-04-12T12:21:17.931Z</time></trkpt><trkpt lat="53.8583631229901" lon="14.57144856893028"><ele>13.0</ele><time>2026-04-12T12:21:18.931Z</time></trkpt><trkpt lat="53.8584584178002" lon="14.571009736759116"><ele>14.5</ele><time>2026-04-12T12:21:19.931Z</time></trkpt><trkpt lat="53.85855445348527" lon="14.570565313758683"><ele>16.0</ele><time>2026-04-12T12:21:20.931Z</time></trkpt><trkpt lat="53.85864781613576" lon="14.57011367580456"><ele>17.0</ele><time>2026-04-12T12:21:21.931Z</time></trkpt><trkpt lat="53.85873715629212" lon="14.569667913967622"><ele>18.0</ele><time>2026-04-12T12:21:22.931Z</time></trkpt><trkpt lat="53.85882639602419" lon="14.569219769376813"><ele>19.0</ele><time>2026-04-12T12:21:23.931Z</time></trkpt><trkpt lat="53.858914972683415" lon="14.56877514108528"><ele>20.0</ele><time>2026-04-12T12:21:24.931Z</time></trkpt><trkpt lat="53.85900467186982" lon="14.568331795007792"><ele>20.5</ele><time>2026-04-12T12:21:25.931Z</time></trkpt><trkpt lat="53.85909690085057" lon="14.567888309787643"><ele>21.0</ele><time>2026-04-12T12:21:26.931Z</time></trkpt><trkpt lat="53.85918825369095" lon="14.567448431053284"><ele>23.5</ele><time>2026-04-12T12:21:27.931Z</time></trkpt><trkpt lat="53.85927923191507" lon="14.567010266447571"><ele>26.0</ele><time>2026-04-12T12:21:28.931Z</time></trkpt><trkpt lat="53.85937499264801" lon="14.566574286967136"><ele>27.5</ele><time>2026-04-12T12:21:29.931Z</time></trkpt><trkpt lat="53.85947247381333" lon="14.566134429933651"><ele>29.0</ele><time>2026-04-12T12:21:30.931Z</time></trkpt><trkpt lat="53.859575792338205" lon="14.565669551757972"><ele>28.0</ele><time>2026-04-12T12:21:31.931Z</time></trkpt><trkpt lat="53.859689606453756" lon="14.565187331796405"><ele>27.0</ele><time>2026-04-12T12:21:32.931Z</time></trkpt><trkpt lat="53.85981340703926" lon="14.564699168012899"><ele>26.0</ele><time>2026-04-12T12:21:33.931Z</time></trkpt><trkpt lat="53.85994236320099" lon="14.564195075272039"><ele>25.0</ele><time>2026-04-12T12:21:34.931Z</time></trkpt><trkpt lat="53.860076528139146" lon="14.563679110620352"><ele>25.0</ele><time>2026-04-12T12:21:35.931Z</time></trkpt><trkpt lat="53.860215829767675" lon="14.563160626986754"><ele>25.0</ele><time>2026-04-12T12:21:36.931Z</time></trkpt><trkpt lat="53.860360348978844" lon="14.562641248527365"><ele>26.0</ele><time>2026-04-12T12:21:37.931Z</time></trkpt><trkpt lat="53.8605108486418" lon="14.562119684831467"><ele>27.0</ele><time>2026-04-12T12:21:38.931Z</time></trkpt><trkpt lat="53.860663156640136" lon="14.561609249847638"><ele>26.0</ele><time>2026-04-12T12:21:39.931Z</time></trkpt><trkpt lat="53.86080464768818" lon="14.561149144690702"><ele>25.0</ele><time>2026-04-12T12:21:40.931Z</time></trkpt><trkpt lat="53.86093402017309" lon="14.560743469306322"><ele>32.5</ele><time>2026-04-12T12:21:41.931Z</time></trkpt><trkpt lat="53.86105679315831" lon="14.560362640523948"><ele>40.0</ele><time>2026-04-12T12:21:42.931Z</time></trkpt><trkpt lat="53.86118746718492" lon="14.559981261268689"><ele>40.0</ele><time>2026-04-12T12:21:43.931Z</time></trkpt><trkpt lat="53.86132539209813" lon="14.559572862936037"><ele>40.0</ele><time>2026-04-12T12:21:44.931Z</time></trkpt><trkpt lat="53.86146687201989" lon="14.559165148068685"><ele>36.0</ele><time>2026-04-12T12:21:45.931Z</time></trkpt><trkpt lat="53.8616212681698" lon="14.558769452066304"><ele>32.0</ele><time>2026-04-12T12:21:46.931Z</time></trkpt><trkpt lat="53.86177813073854" lon="14.558378582828954"><ele>33.5</ele><time>2026-04-12T12:21:47.931Z</time></trkpt><trkpt lat="53.86193431137084" lon="14.557981788913365"><ele>35.0</ele><time>2026-04-12T12:21:48.931Z</time></trkpt><trkpt lat="53.862094214343166" lon="14.557583086520793"><ele>31.5</ele><time>2026-04-12T12:21:49.931Z</time></trkpt><trkpt lat="53.86225705910467" lon="14.557186665592363"><ele>28.0</ele><time>2026-04-12T12:21:50.931Z</time></trkpt><trkpt lat="53.86242234665564" lon="14.55679601238266"><ele>26.0</ele><time>2026-04-12T12:21:51.931Z</time></trkpt><trkpt lat="53.86258734257391" lon="14.556412224521594"><ele>24.0</ele><time>2026-04-12T12:21:52.931Z</time></trkpt><trkpt lat="53.86275374625971" lon="14.556028630792087"><ele>24.0</ele><time>2026-04-12T12:21:53.931Z</time></trkpt><trkpt lat="53.862923518285065" lon="14.555645908612275"><ele>24.0</ele><time>2026-04-12T12:21:54.931Z</time></trkpt><trkpt lat="53.863097657395116" lon="14.555268032410652"><ele>23.5</ele><time>2026-04-12T12:21:55.931Z</time></trkpt><trkpt lat="53.863273408084225" lon="14.55488759982139"><ele>23.0</ele><time>2026-04-12T12:21:56.931Z</time></trkpt><trkpt lat="53.863453490511844" lon="14.554499777819665"><ele>24.5</ele><time>2026-04-12T12:21:57.931Z</time></trkpt><trkpt lat="53.863634316288916" lon="14.554124639284046"><ele>26.0</ele><time>2026-04-12T12:21:58.931Z</time></trkpt><trkpt lat="53.863821687195944" lon="14.553756260876613"><ele>25.5</ele><time>2026-04-12T12:21:59.931Z</time></trkpt><trkpt lat="53.86400631871275" lon="14.553405803078205"><ele>25.0</ele><time>2026-04-12T12:22:00.931Z</time></trkpt><trkpt lat="53.86419760174229" lon="14.55302983694358"><ele>25.5</ele><time>2026-04-12T12:22:01.931Z</time></trkpt><trkpt lat="53.86438794721712" lon="14.552663429725698"><ele>26.0</ele><time>2026-04-12T12:22:02.931Z</time></trkpt><trkpt lat="53.86457823541301" lon="14.552305270610775"><ele>26.0</ele><time>2026-04-12T12:22:03.932Z</time></trkpt><trkpt lat="53.86477242871433" lon="14.551948028000783"><ele>26.0</ele><time>2026-04-12T12:22:04.932Z</time></trkpt><trkpt lat="53.86496556482152" lon="14.551598136572125"><ele>26.0</ele><time>2026-04-12T12:22:05.932Z</time></trkpt><trkpt lat="53.86515901405843" lon="14.551241955850847"><ele>26.0</ele><time>2026-04-12T12:22:06.932Z</time></trkpt><trkpt lat="53.86535000995824" lon="14.550885896767623"><ele>26.0</ele><time>2026-04-12T12:22:07.932Z</time></trkpt><trkpt lat="53.86554115240623" lon="14.550526677953393"><ele>26.0</ele><time>2026-04-12T12:22:08.932Z</time></trkpt><trkpt lat="53.86573622871284" lon="14.550161227049522"><ele>25.5</ele><time>2026-04-12T12:22:09.932Z</time></trkpt><trkpt lat="53.865927214379454" lon="14.549801730631968"><ele>25.0</ele><time>2026-04-12T12:22:10.932Z</time></trkpt><trkpt lat="53.86612133207176" lon="14.549437021096866"><ele>24.0</ele><time>2026-04-12T12:22:11.932Z</time></trkpt><trkpt lat="53.86631829811888" lon="14.549071320521945"><ele>23.0</ele><time>2026-04-12T12:22:12.932Z</time></trkpt><trkpt lat="53.8665164454082" lon="14.548703051185917"><ele>22.5</ele><time>2026-04-12T12:22:13.932Z</time></trkpt><trkpt lat="53.866715252056515" lon="14.548329266406435"><ele>22.0</ele><time>2026-04-12T12:22:14.932Z</time></trkpt><trkpt lat="53.866917755677896" lon="14.54795474735696"><ele>22.0</ele><time>2026-04-12T12:22:15.932Z</time></trkpt><trkpt lat="53.867119319445216" lon="14.547577919460641"><ele>22.0</ele><time>2026-04-12T12:22:16.932Z</time></trkpt><trkpt lat="53.86732580276571" lon="14.54719601661356"><ele>22.0</ele><time>2026-04-12T12:22:17.932Z</time></trkpt><trkpt lat="53.86752866010141" lon="14.546811875284988"><ele>22.0</ele><time>2026-04-12T12:22:18.932Z</time></trkpt><trkpt lat="53.86773157203375" lon="14.546429403103746"><ele>22.0</ele><time>2026-04-12T12:22:19.932Z</time></trkpt><trkpt lat="53.8679369028979" lon="14.546048566755559"><ele>22.0</ele><time>2026-04-12T12:22:20.932Z</time></trkpt><trkpt lat="53.86814080723533" lon="14.545673883083245"><ele>22.0</ele><time>2026-04-12T12:22:21.932Z</time></trkpt><trkpt lat="53.86834753264291" lon="14.545298513228257"><ele>22.0</ele><time>2026-04-12T12:22:22.932Z</time></trkpt><trkpt lat="53.86855616253897" lon="14.544926778221651"><ele>22.0</ele><time>2026-04-12T12:22:23.932Z</time></trkpt><trkpt lat="53.86876988819861" lon="14.544562629490809"><ele>22.0</ele><time>2026-04-12T12:22:24.932Z</time></trkpt><trkpt lat="53.868986292991465" lon="14.544200948895735"><ele>22.0</ele><time>2026-04-12T12:22:25.932Z</time></trkpt><trkpt lat="53.86920770014423" lon="14.543841037395234"><ele>22.0</ele><time>2026-04-12T12:22:26.932Z</time></trkpt><trkpt lat="53.86942794779785" lon="14.543481194638977"><ele>22.0</ele><time>2026-04-12T12:22:27.932Z</time></trkpt><trkpt lat="53.86965381595583" lon="14.543131492421"><ele>22.0</ele><time>2026-04-12T12:22:28.932Z</time></trkpt><trkpt lat="53.86988405745098" lon="14.542794645887367"><ele>15.5</ele><time>2026-04-12T12:22:29.932Z</time></trkpt><trkpt lat="53.87012149548582" lon="14.54246235841257"><ele>9.0</ele><time>2026-04-12T12:22:30.932Z</time></trkpt><trkpt lat="53.87035978719117" lon="14.542139216762346"><ele>8.0</ele><time>2026-04-12T12:22:31.932Z</time></trkpt><trkpt lat="53.87059682915839" lon="14.54182150117897"><ele>7.0</ele><time>2026-04-12T12:22:32.932Z</time></trkpt><trkpt lat="53.8708314797838" lon="14.541494870838832"><ele>6.0</ele><time>2026-04-12T12:22:33.932Z</time></trkpt><trkpt lat="53.871072777986505" lon="14.541185378319135"><ele>5.0</ele><time>2026-04-12T12:22:34.932Z</time></trkpt><trkpt lat="53.87132250167462" lon="14.540879042764143"><ele>5.0</ele><time>2026-04-12T12:22:35.932Z</time></trkpt><trkpt lat="53.87157442926752" lon="14.540580667860715"><ele>5.0</ele><time>2026-04-12T12:22:36.932Z</time></trkpt><trkpt lat="53.87183011557181" lon="14.540291082646819"><ele>3.0</ele><time>2026-04-12T12:22:37.932Z</time></trkpt><trkpt lat="53.87209049500633" lon="14.540005815653327"><ele>1.0</ele><time>2026-04-12T12:22:38.932Z</time></trkpt><trkpt lat="53.87234984416539" lon="14.539724277500738"><ele>0.5</ele><time>2026-04-12T12:22:39.932Z</time></trkpt><trkpt lat="53.872605198215936" lon="14.53945042633854"><ele>0.0</ele><time>2026-04-12T12:22:40.932Z</time></trkpt><trkpt lat="53.87287122091817" lon="14.539184068533782"><ele>-0.5</ele><time>2026-04-12T12:22:41.932Z</time></trkpt><trkpt lat="53.8731383755331" lon="14.538922500148422"><ele>-1.0</ele><time>2026-04-12T12:22:42.932Z</time></trkpt><trkpt lat="53.87340491210699" lon="14.538662679382288"><ele>-1.0</ele><time>2026-04-12T12:22:43.932Z</time></trkpt><trkpt lat="53.87367015335691" lon="14.538405708049812"><ele>-1.0</ele><time>2026-04-12T12:22:44.932Z</time></trkpt><trkpt lat="53.873936188883945" lon="14.538147558192989"><ele>-1.0</ele><time>2026-04-12T12:22:45.932Z</time></trkpt><trkpt lat="53.874196475785006" lon="14.537885639459654"><ele>-1.0</ele><time>2026-04-12T12:22:46.932Z</time></trkpt><trkpt lat="53.874459633367316" lon="14.537624683303576"><ele>-1.0</ele><time>2026-04-12T12:22:47.932Z</time></trkpt><trkpt lat="53.87472120746907" lon="14.53736600444688"><ele>-1.0</ele><time>2026-04-12T12:22:48.932Z</time></trkpt><trkpt lat="53.8749810603446" lon="14.537105721139836"><ele>-1.0</ele><time>2026-04-12T12:22:49.932Z</time></trkpt><trkpt lat="53.875241265621405" lon="14.53684196954622"><ele>-1.0</ele><time>2026-04-12T12:22:50.932Z</time></trkpt><trkpt lat="53.87549687482596" lon="14.536578159221262"><ele>-1.0</ele><time>2026-04-12T12:22:51.932Z</time></trkpt><trkpt lat="53.87575253431116" lon="14.536310839754538"><ele>-1.0</ele><time>2026-04-12T12:22:52.931Z</time></trkpt><trkpt lat="53.8760001213874" lon="14.536045493124924"><ele>-1.0</ele><time>2026-04-12T12:22:53.931Z</time></trkpt><trkpt lat="53.87624814282053" lon="14.535776780162712"><ele>-1.0</ele><time>2026-04-12T12:22:54.931Z</time></trkpt><trkpt lat="53.87649617198373" lon="14.535500526386054"><ele>-1.0</ele><time>2026-04-12T12:22:55.931Z</time></trkpt><trkpt lat="53.876735441975704" lon="14.535217664720259"><ele>-1.0</ele><time>2026-04-12T12:22:56.931Z</time></trkpt><trkpt lat="53.876976005518856" lon="14.534934958461616"><ele>-0.5</ele><time>2026-04-12T12:22:57.931Z</time></trkpt><trkpt lat="53.87721532775885" lon="14.534639387737764"><ele>0.0</ele><time>2026-04-12T12:22:58.931Z</time></trkpt><trkpt lat="53.877454159821646" lon="14.534348847587315"><ele>0.0</ele><time>2026-04-12T12:22:59.931Z</time></trkpt><trkpt lat="53.87769506419645" lon="14.534056597947249"><ele>0.0</ele><time>2026-04-12T12:23:00.931Z</time></trkpt><trkpt lat="53.877933548597234" lon="14.53374970581003"><ele>0.5</ele><time>2026-04-12T12:23:01.931Z</time></trkpt><trkpt lat="53.8781686350921" lon="14.533425517982653"><ele>1.0</ele><time>2026-04-12T12:23:02.931Z</time></trkpt><trkpt lat="53.87839725321867" lon="14.533095450133972"><ele>1.5</ele><time>2026-04-12T12:23:03.931Z</time></trkpt><trkpt lat="53.87862106383946" lon="14.532762688610958"><ele>2.0</ele><time>2026-04-12T12:23:04.931Z</time></trkpt><trkpt lat="53.87883854629397" lon="14.532428075154469"><ele>2.0</ele><time>2026-04-12T12:23:05.931Z</time></trkpt><trkpt lat="53.879039925596494" lon="14.532113369495713"><ele>2.0</ele><time>2026-04-12T12:23:06.931Z</time></trkpt><trkpt lat="53.87923379521181" lon="14.531816500130478"><ele>2.5</ele><time>2026-04-12T12:23:07.931Z</time></trkpt><trkpt lat="53.879421110862964" lon="14.531529483496456"><ele>3.0</ele><time>2026-04-12T12:23:08.931Z</time></trkpt><trkpt lat="53.879601381297036" lon="14.531241547891174"><ele>4.0</ele><time>2026-04-12T12:23:09.931Z</time></trkpt><trkpt lat="53.87978090747525" lon="14.530935776681495"><ele>5.0</ele><time>2026-04-12T12:23:10.931Z</time></trkpt><trkpt lat="53.87995395248458" lon="14.530619216599055"><ele>6.0</ele><time>2026-04-12T12:23:11.931Z</time></trkpt><trkpt lat="53.88012351090274" lon="14.530306168063637"><ele>7.0</ele><time>2026-04-12T12:23:12.931Z</time></trkpt><trkpt lat="53.880278536188484" lon="14.53001332757586"><ele>7.0</ele><time>2026-04-12T12:23:13.931Z</time></trkpt><trkpt lat="53.880423419034315" lon="14.529725350513045"><ele>7.0</ele><time>2026-04-12T12:23:14.931Z</time></trkpt><trkpt lat="53.88057059050021" lon="14.529434590902222"><ele>7.0</ele><time>2026-04-12T12:23:15.931Z</time></trkpt><trkpt lat="53.880719347508354" lon="14.529146218134594"><ele>8.333333333333334</ele><time>2026-04-12T12:23:16.931Z</time></trkpt><trkpt lat="53.88086091133485" lon="14.528869032297159"><ele>9.666666666666666</ele><time>2026-04-12T12:23:17.931Z</time></trkpt><trkpt lat="53.88099507841605" lon="14.52860668656541"><ele>11.0</ele><time>2026-04-12T12:23:18.931Z</time></trkpt><trkpt lat="53.88112491108635" lon="14.528361658643577"><ele>11.333333333333332</ele><time>2026-04-12T12:23:19.931Z</time></trkpt><trkpt lat="53.88127220203543" lon="14.528133109687799"><ele>11.666666666666666</ele><time>2026-04-12T12:23:20.931Z</time></trkpt><trkpt lat="53.8814353061042" lon="14.52795431729592"><ele>12.0</ele><time>2026-04-12T12:23:21.931Z</time></trkpt><trkpt lat="53.881604349253166" lon="14.527829644031895"><ele>12.333333333333332</ele><time>2026-04-12T12:23:22.931Z</time></trkpt><trkpt lat="53.88178577215236" lon="14.527748386120185"><ele>12.666666666666666</ele><time>2026-04-12T12:23:23.931Z</time></trkpt><trkpt lat="53.8819829572088" lon="14.527695011800803"><ele>13.0</ele><time>2026-04-12T12:23:24.931Z</time></trkpt><trkpt lat="53.882193232356805" lon="14.527690574054477"><ele>13.0</ele><time>2026-04-12T12:23:25.931Z</time></trkpt><trkpt lat="53.882379785412276" lon="14.527721703119122"><ele>13.0</ele><time>2026-04-12T12:23:26.931Z</time></trkpt><trkpt lat="53.88254186564835" lon="14.527692547813935"><ele>13.0</ele><time>2026-04-12T12:23:27.931Z</time></trkpt><trkpt lat="53.882679242023585" lon="14.52758374627624"><ele>13.0</ele><time>2026-04-12T12:23:28.931Z</time></trkpt><trkpt lat="53.88281028474122" lon="14.527407310582314"><ele>13.0</ele><time>2026-04-12T12:23:29.931Z</time></trkpt><trkpt lat="53.882902030929635" lon="14.527180619636509"><ele>13.0</ele><time>2026-04-12T12:23:30.931Z</time></trkpt><trkpt lat="53.88294476962334" lon="14.526920142856254"><ele>13.0</ele><time>2026-04-12T12:23:31.931Z</time></trkpt><trkpt lat="53.88293835328066" lon="14.526650569789572"><ele>13.0</ele><time>2026-04-12T12:23:32.931Z</time></trkpt><trkpt lat="53.882885837102364" lon="14.526371993808562"><ele>13.0</ele><time>2026-04-12T12:23:33.931Z</time></trkpt><trkpt lat="53.882793487726545" lon="14.52614882600404"><ele>14.666666666666666</ele><time>2026-04-12T12:23:34.931Z</time></trkpt><trkpt lat="53.88267143141999" lon="14.52595262149742"><ele>16.333333333333332</ele><time>2026-04-12T12:23:35.931Z</time></trkpt><trkpt lat="53.88251470328987" lon="14.525796088767432"><ele>18.0</ele><time>2026-04-12T12:23:36.931Z</time></trkpt><trkpt lat="53.88235026496962" lon="14.52563683675177"><ele>18.0</ele><time>2026-04-12T12:23:37.931Z</time></trkpt><trkpt lat="53.88217914064356" lon="14.52546719024884"><ele>18.0</ele><time>2026-04-12T12:23:38.931Z</time></trkpt><trkpt lat="53.88199855151515" lon="14.525281349351513"><ele>18.0</ele><time>2026-04-12T12:23:39.931Z</time></trkpt><trkpt lat="53.88180531865708" lon="14.525081236780123"><ele>17.666666666666668</ele><time>2026-04-12T12:23:40.931Z</time></trkpt><trkpt lat="53.881614793618205" lon="14.524880755979076"><ele>17.333333333333336</ele><time>2026-04-12T12:23:41.931Z</time></trkpt><trkpt lat="53.881437313994624" lon="14.524690324529088"><ele>17.0</ele><time>2026-04-12T12:23:42.931Z</time></trkpt><trkpt lat="53.88126662163535" lon="14.524510703917375"><ele>16.666666666666668</ele><time>2026-04-12T12:23:43.931Z</time></trkpt><trkpt lat="53.88110311544471" lon="14.52433766367825"><ele>16.333333333333332</ele><time>2026-04-12T12:23:44.931Z</time></trkpt><trkpt lat="53.880930502838105" lon="14.524153564053746"><ele>16.0</ele><time>2026-04-12T12:23:45.931Z</time></trkpt><trkpt lat="53.88073471897537" lon="14.523952790772634"><ele>18.0</ele><time>2026-04-12T12:23:46.931Z</time></trkpt><trkpt lat="53.880505937877366" lon="14.523724467687053"><ele>20.0</ele><time>2026-04-12T12:23:47.931Z</time></trkpt><trkpt lat="53.88028673217981" lon="14.52348346371654"><ele>19.333333333333336</ele><time>2026-04-12T12:23:48.931Z</time></trkpt><trkpt lat="53.88009507620019" lon="14.523285559684743"><ele>18.666666666666668</ele><time>2026-04-12T12:23:49.931Z</time></trkpt><trkpt lat="53.87993331078487" lon="14.52311711198278"><ele>18.0</ele><time>2026-04-12T12:23:50.931Z</time></trkpt><trkpt lat="53.87979464205013" lon="14.522971282773803"><ele>17.5</ele><time>2026-04-12T12:23:51.931Z</time></trkpt><trkpt lat="53.87966891074341" lon="14.522839277977845"><ele>17.0</ele><time>2026-04-12T12:23:52.931Z</time></trkpt><trkpt lat="53.879551670504945" lon="14.522710846310526"><ele>16.5</ele><time>2026-04-12T12:23:53.931Z</time></trkpt><trkpt lat="53.87944627477163" lon="14.522601947540208"><ele>16.0</ele><time>2026-04-12T12:23:54.931Z</time></trkpt><trkpt lat="53.87937132438876" lon="14.522479751262034"><ele>16.0</ele><time>2026-04-12T12:23:55.931Z</time></trkpt><trkpt lat="53.87931948233022" lon="14.522329816620491"><ele>16.0</ele><time>2026-04-12T12:23:56.931Z</time></trkpt><trkpt lat="53.87931097501433" lon="14.522145791615015"><ele>16.0</ele><time>2026-04-12T12:23:57.931Z</time></trkpt><trkpt lat="53.879332695950936" lon="14.52196151343649"><ele>16.0</ele><time>2026-04-12T12:23:58.931Z</time></trkpt><trkpt lat="53.879399603487705" lon="14.521765438266298"><ele>15.666666666666666</ele><time>2026-04-12T12:23:59.931Z</time></trkpt><trkpt lat="53.87946678910323" lon="14.52153835580239"><ele>15.333333333333332</ele><time>2026-04-12T12:24:00.931Z</time></trkpt><trkpt lat="53.879531180362065" lon="14.521306419608278"><ele>15.0</ele><time>2026-04-12T12:24:01.931Z</time></trkpt><trkpt lat="53.879598063811706" lon="14.521024794069447"><ele>15.0</ele><time>2026-04-12T12:24:02.931Z</time></trkpt><trkpt lat="53.87964806135165" lon="14.520744777579747"><ele>15.0</ele><time>2026-04-12T12:24:03.931Z</time></trkpt><trkpt lat="53.87969091218867" lon="14.520464339766649"><ele>15.0</ele><time>2026-04-12T12:24:04.931Z</time></trkpt><trkpt lat="53.87973701830245" lon="14.520155052179595"><ele>14.666666666666668</ele><time>2026-04-12T12:24:05.931Z</time></trkpt><trkpt lat="53.87978661965599" lon="14.519836091227974"><ele>14.333333333333334</ele><time>2026-04-12T12:24:06.931Z</time></trkpt><trkpt lat="53.87987425304087" lon="14.519524382503468"><ele>14.0</ele><time>2026-04-12T12:24:07.931Z</time></trkpt><trkpt lat="53.87993535374752" lon="14.519211786312756"><ele>14.0</ele><time>2026-04-12T12:24:08.931Z</time></trkpt><trkpt lat="53.8800016259334" lon="14.51889487506398"><ele>14.0</ele><time>2026-04-12T12:24:09.931Z</time></trkpt><trkpt lat="53.880077407365256" lon="14.518565288746103"><ele>14.0</ele><time>2026-04-12T12:24:10.931Z</time></trkpt><trkpt lat="53.880159259081225" lon="14.518242935219652"><ele>14.666666666666668</ele><time>2026-04-12T12:24:11.931Z</time></trkpt><trkpt lat="53.8802519768902" lon="14.517917742353827"><ele>15.333333333333332</ele><time>2026-04-12T12:24:12.931Z</time></trkpt><trkpt lat="53.880353885270694" lon="14.51759284739547"><ele>16.0</ele><time>2026-04-12T12:24:13.931Z</time></trkpt><trkpt lat="53.880463254107134" lon="14.517260673246554"><ele>18.0</ele><time>2026-04-12T12:24:14.931Z</time></trkpt><trkpt lat="53.88057741445084" lon="14.5169239348422"><ele>20.0</ele><time>2026-04-12T12:24:15.931Z</time></trkpt><trkpt lat="53.880694351776015" lon="14.516589808012931"><ele>20.0</ele><time>2026-04-12T12:24:16.931Z</time></trkpt><trkpt lat="53.8808183536315" lon="14.516258607519877"><ele>20.0</ele><time>2026-04-12T12:24:17.931Z</time></trkpt><trkpt lat="53.880939589240334" lon="14.515921637911395"><ele>21.0</ele><time>2026-04-12T12:24:18.931Z</time></trkpt><trkpt lat="53.88105711772578" lon="14.515577015496438"><ele>22.0</ele><time>2026-04-12T12:24:19.931Z</time></trkpt><trkpt lat="53.88117425714578" lon="14.515230321669463"><ele>24.0</ele><time>2026-04-12T12:24:20.931Z</time></trkpt><trkpt lat="53.88129171836409" lon="14.514880030686102"><ele>26.0</ele><time>2026-04-12T12:24:21.931Z</time></trkpt><trkpt lat="53.88140899853448" lon="14.514528855423082"><ele>29.0</ele><time>2026-04-12T12:24:22.931Z</time></trkpt><trkpt lat="53.881528101777114" lon="14.514176552405562"><ele>32.0</ele><time>2026-04-12T12:24:23.931Z</time></trkpt><trkpt lat="53.88165126734033" lon="14.513824906873213"><ele>31.5</ele><time>2026-04-12T12:24:24.931Z</time></trkpt><trkpt lat="53.88177487624317" lon="14.513473844363414"><ele>31.0</ele><time>2026-04-12T12:24:25.931Z</time></trkpt><trkpt lat="53.88189862347987" lon="14.513122842306242"><ele>31.0</ele><time>2026-04-12T12:24:26.931Z</time></trkpt><trkpt lat="53.88202440068352" lon="14.512769578388115"><ele>31.0</ele><time>2026-04-12T12:24:27.931Z</time></trkpt><trkpt lat="53.882150105082005" lon="14.51241729956875"><ele>31.0</ele><time>2026-04-12T12:24:28.931Z</time></trkpt><trkpt lat="53.88227227476943" lon="14.51207002413117"><ele>31.0</ele><time>2026-04-12T12:24:29.931Z</time></trkpt><trkpt lat="53.88239562405305" lon="14.511720303568655"><ele>31.0</ele><time>2026-04-12T12:24:30.931Z</time></trkpt><trkpt lat="53.882521042061306" lon="14.511368735804313"><ele>31.0</ele><time>2026-04-12T12:24:31.931Z</time></trkpt><trkpt lat="53.882648266237894" lon="14.511021085746563"><ele>30.5</ele><time>2026-04-12T12:24:32.931Z</time></trkpt><trkpt lat="53.882782149078416" lon="14.510669120238983"><ele>30.0</ele><time>2026-04-12T12:24:33.931Z</time></trkpt><trkpt lat="53.882918045188816" lon="14.510327229922078"><ele>30.0</ele><time>2026-04-12T12:24:34.931Z</time></trkpt><trkpt lat="53.88305481684705" lon="14.50999607359371"><ele>30.0</ele><time>2026-04-12T12:24:35.931Z</time></trkpt><trkpt lat="53.883196842279084" lon="14.509666122290025"><ele>29.0</ele><time>2026-04-12T12:24:36.931Z</time></trkpt><trkpt lat="53.88334292574096" lon="14.509351371269712"><ele>28.0</ele><time>2026-04-12T12:24:37.931Z</time></trkpt><trkpt lat="53.88349828100762" lon="14.509038946826227"><ele>29.0</ele><time>2026-04-12T12:24:38.931Z</time></trkpt><trkpt lat="53.88365174379762" lon="14.508722825289315"><ele>30.0</ele><time>2026-04-12T12:24:39.931Z</time></trkpt><trkpt lat="53.88380287986568" lon="14.508406810124175"><ele>30.0</ele><time>2026-04-12T12:24:40.931Z</time></trkpt><trkpt lat="53.88395210337715" lon="14.508083190341706"><ele>30.0</ele><time>2026-04-12T12:24:41.931Z</time></trkpt><trkpt lat="53.88409742089674" lon="14.50778159666477"><ele>30.666666666666664</ele><time>2026-04-12T12:24:42.931Z</time></trkpt><trkpt lat="53.88423115152676" lon="14.507516783078472"><ele>31.333333333333332</ele><time>2026-04-12T12:24:43.932Z</time></trkpt><trkpt lat="53.88436018641583" lon="14.507264788236007"><ele>32.0</ele><time>2026-04-12T12:24:44.932Z</time></trkpt><trkpt lat="53.884484135293945" lon="14.507024424199392"><ele>32.33333333333333</ele><time>2026-04-12T12:24:45.932Z</time></trkpt><trkpt lat="53.88460867380318" lon="14.506784022016976"><ele>32.666666666666664</ele><time>2026-04-12T12:24:46.932Z</time></trkpt><trkpt lat="53.88473653818858" lon="14.506537359827796"><ele>33.0</ele><time>2026-04-12T12:24:47.932Z</time></trkpt><trkpt lat="53.88486797735578" lon="14.506285318001742"><ele>33.333333333333336</ele><time>2026-04-12T12:24:48.932Z</time></trkpt><trkpt lat="53.884996301488435" lon="14.506034997814757"><ele>33.66666666666667</ele><time>2026-04-12T12:24:49.932Z</time></trkpt><trkpt lat="53.88511874098671" lon="14.505791105516781"><ele>34.0</ele><time>2026-04-12T12:24:50.932Z</time></trkpt><trkpt lat="53.8852477768512" lon="14.505533013164577"><ele>35.5</ele><time>2026-04-12T12:24:51.932Z</time></trkpt><trkpt lat="53.88539233740104" lon="14.505242687347216"><ele>37.0</ele><time>2026-04-12T12:24:52.932Z</time></trkpt><trkpt lat="53.885551165690465" lon="14.504921988800367"><ele>37.0</ele><time>2026-04-12T12:24:53.932Z</time></trkpt><trkpt lat="53.88571247943656" lon="14.504605594455228"><ele>37.0</ele><time>2026-04-12T12:24:54.932Z</time></trkpt><trkpt lat="53.88587472311446" lon="14.50428959015591"><ele>37.333333333333336</ele><time>2026-04-12T12:24:55.932Z</time></trkpt><trkpt lat="53.886030608562244" lon="14.50398391551253"><ele>37.666666666666664</ele><time>2026-04-12T12:24:56.932Z</time></trkpt><trkpt lat="53.88616105196049" lon="14.503724281044189"><ele>38.0</ele><time>2026-04-12T12:24:57.932Z</time></trkpt><trkpt lat="53.88628196782322" lon="14.50348020806609"><ele>36.33333333333333</ele><time>2026-04-12T12:24:58.93Z</time></trkpt><trkpt lat="53.88639773377129" lon="14.50324546052169"><ele>34.666666666666664</ele><time>2026-04-12T12:24:59.93Z</time></trkpt><trkpt lat="53.886506696810315" lon="14.503024151925013"><ele>33.0</ele><time>2026-04-12T12:25:00.93Z</time></trkpt><trkpt lat="53.886611701002856" lon="14.502810349007778"><ele>31.75</ele><time>2026-04-12T12:25:01.931Z</time></trkpt><trkpt lat="53.88671628815334" lon="14.50259963500601"><ele>30.5</ele><time>2026-04-12T12:25:02.93Z</time></trkpt><trkpt lat="53.88680906442579" lon="14.502410318625778"><ele>29.25</ele><time>2026-04-12T12:25:03.93Z</time></trkpt><trkpt lat="53.88688327265487" lon="14.50225534653158"><ele>28.0</ele><time>2026-04-12T12:25:04.93Z</time></trkpt><trkpt lat="53.88694729152785" lon="14.502118292960446"><ele>26.666666666666668</ele><time>2026-04-12T12:25:05.93Z</time></trkpt><trkpt lat="53.88700789167297" lon="14.50198416269423"><ele>25.333333333333336</ele><time>2026-04-12T12:25:06.93Z</time></trkpt><trkpt lat="53.887054266277815" lon="14.501857179728663"><ele>24.0</ele><time>2026-04-12T12:25:07.931Z</time></trkpt><trkpt lat="53.88710016162397" lon="14.501730076388263"><ele>22.666666666666668</ele><time>2026-04-12T12:25:08.93Z</time></trkpt><trkpt lat="53.88714437057596" lon="14.501610901466222"><ele>21.333333333333336</ele><time>2026-04-12T12:25:09.93Z</time></trkpt><trkpt lat="53.88719042478179" lon="14.50151481622275"><ele>20.0</ele><time>2026-04-12T12:25:10.93Z</time></trkpt><trkpt lat="53.887243125405135" lon="14.50141455504012"><ele>20.0</ele><time>2026-04-12T12:25:12.931Z</time></trkpt><trkpt lat="53.88726842755359" lon="14.501276157274415"><ele>20.0</ele><time>2026-04-12T12:25:31.931Z</time></trkpt><trkpt lat="53.88730118087757" lon="14.501158280507958"><ele>20.0</ele><time>2026-04-12T12:25:32.931Z</time></trkpt><trkpt lat="53.887352356989844" lon="14.501017088414416"><ele>20.0</ele><time>2026-04-12T12:25:33.931Z</time></trkpt><trkpt lat="53.88742132476361" lon="14.500828184860573"><ele>20.0</ele><time>2026-04-12T12:25:34.931Z</time></trkpt><trkpt lat="53.887496481177756" lon="14.500615019155028"><ele>21.0</ele><time>2026-04-12T12:25:35.931Z</time></trkpt><trkpt lat="53.887582784045804" lon="14.500356715137618"><ele>22.0</ele><time>2026-04-12T12:25:36.931Z</time></trkpt><trkpt lat="53.88767724793614" lon="14.500098193661367"><ele>23.0</ele><time>2026-04-12T12:25:37.931Z</time></trkpt><trkpt lat="53.887792749590794" lon="14.499856098335398"><ele>23.0</ele><time>2026-04-12T12:25:38.931Z</time></trkpt><trkpt lat="53.88790872176875" lon="14.499651479828485"><ele>23.0</ele><time>2026-04-12T12:25:39.931Z</time></trkpt><trkpt lat="53.88800278303823" lon="14.49944033467868"><ele>23.0</ele><time>2026-04-12T12:25:40.931Z</time></trkpt><trkpt lat="53.888079956464104" lon="14.499212112545374"><ele>23.5</ele><time>2026-04-12T12:25:41.931Z</time></trkpt><trkpt lat="53.88814671799727" lon="14.498992825150026"><ele>24.0</ele><time>2026-04-12T12:25:42.931Z</time></trkpt><trkpt lat="53.888190532031764" lon="14.498780137434203"><ele>24.5</ele><time>2026-04-12T12:25:43.931Z</time></trkpt><trkpt lat="53.88820241751755" lon="14.49856767526392"><ele>25.0</ele><time>2026-04-12T12:25:44.931Z</time></trkpt><trkpt lat="53.888184993829846" lon="14.498373474236057"><ele>25.25</ele><time>2026-04-12T12:25:45.931Z</time></trkpt><trkpt lat="53.88814735851161" lon="14.498168458867157"><ele>25.5</ele><time>2026-04-12T12:25:46.931Z</time></trkpt><trkpt lat="53.88812222544092" lon="14.49794109385493"><ele>25.75</ele><time>2026-04-12T12:25:47.931Z</time></trkpt><trkpt lat="53.88812146004837" lon="14.497748370551"><ele>26.0</ele><time>2026-04-12T12:25:48.931Z</time></trkpt><trkpt lat="53.88814453656736" lon="14.497588909259589"><ele>25.999999999999996</ele><time>2026-04-12T12:25:49.931Z</time></trkpt><trkpt lat="53.88817988010452" lon="14.497484091023352"><ele>26.0</ele><time>2026-04-12T12:25:50.931Z</time></trkpt><trkpt lat="53.88824602098507" lon="14.497353314788816"><ele>26.0</ele><time>2026-04-12T12:25:52.931Z</time></trkpt><trkpt lat="53.888280034202445" lon="14.497212051981757"><ele>26.0</ele><time>2026-04-12T12:25:55.931Z</time></trkpt><trkpt lat="53.88825338819687" lon="14.497091043081994"><ele>25.999999999999996</ele><time>2026-04-12T12:25:56.931Z</time></trkpt><trkpt lat="53.88820089815376" lon="14.496927085304595"><ele>26.0</ele><time>2026-04-12T12:25:57.931Z</time></trkpt><trkpt lat="53.88816993141891" lon="14.496756660303971"><ele>26.25</ele><time>2026-04-12T12:25:58.931Z</time></trkpt><trkpt lat="53.88814716492934" lon="14.496563109935343"><ele>26.5</ele><time>2026-04-12T12:25:59.931Z</time></trkpt><trkpt lat="53.88813013596517" lon="14.496361251626828"><ele>26.75</ele><time>2026-04-12T12:26:00.931Z</time></trkpt><trkpt lat="53.88811971510856" lon="14.496138965040592"><ele>27.0</ele><time>2026-04-12T12:26:01.931Z</time></trkpt><trkpt lat="53.88810548164484" lon="14.495900496530057"><ele>27.333333333333336</ele><time>2026-04-12T12:26:02.931Z</time></trkpt><trkpt lat="53.88807491225837" lon="14.495634164632875"><ele>27.666666666666668</ele><time>2026-04-12T12:26:03.931Z</time></trkpt><trkpt lat="53.888021124484204" lon="14.495373955933562"><ele>28.0</ele><time>2026-04-12T12:26:04.931Z</time></trkpt><trkpt lat="53.887948988851306" lon="14.495119826832248"><ele>28.333333333333336</ele><time>2026-04-12T12:26:05.931Z</time></trkpt><trkpt lat="53.88787397291422" lon="14.494886286286969"><ele>28.666666666666664</ele><time>2026-04-12T12:26:06.931Z</time></trkpt><trkpt lat="53.88779614242957" lon="14.494638578038167"><ele>29.0</ele><time>2026-04-12T12:26:07.931Z</time></trkpt><trkpt lat="53.887706850174624" lon="14.49438083828256"><ele>30.666666666666664</ele><time>2026-04-12T12:26:08.931Z</time></trkpt><trkpt lat="53.88761767702794" lon="14.494139025549755"><ele>32.333333333333336</ele><time>2026-04-12T12:26:09.931Z</time></trkpt><trkpt lat="53.88754116850653" lon="14.493867727019026"><ele>34.0</ele><time>2026-04-12T12:26:10.931Z</time></trkpt><trkpt lat="53.887473804343124" lon="14.49359876183733"><ele>36.66666666666667</ele><time>2026-04-12T12:26:11.931Z</time></trkpt><trkpt lat="53.88741417654778" lon="14.49336255573514"><ele>39.333333333333336</ele><time>2026-04-12T12:26:12.931Z</time></trkpt><trkpt lat="53.88735138807158" lon="14.493124081474019"><ele>42.0</ele><time>2026-04-12T12:26:13.931Z</time></trkpt><trkpt lat="53.88728832322588" lon="14.492893591230848"><ele>42.666666666666664</ele><time>2026-04-12T12:26:14.931Z</time></trkpt><trkpt lat="53.887221974464524" lon="14.492662766899395"><ele>43.33333333333333</ele><time>2026-04-12T12:26:15.931Z</time></trkpt><trkpt lat="53.88713444242198" lon="14.492370670132212"><ele>44.0</ele><time>2026-04-12T12:26:16.931Z</time></trkpt><trkpt lat="53.88705492371493" lon="14.492109951484489"><ele>44.33333333333333</ele><time>2026-04-12T12:26:17.931Z</time></trkpt><trkpt lat="53.88696772663034" lon="14.491828612612373"><ele>44.666666666666664</ele><time>2026-04-12T12:26:18.931Z</time></trkpt><trkpt lat="53.88688864270841" lon="14.491579105839321"><ele>45.0</ele><time>2026-04-12T12:26:19.931Z</time></trkpt><trkpt lat="53.88681256555633" lon="14.491342251228247"><ele>45.0</ele><time>2026-04-12T12:26:20.931Z</time></trkpt><trkpt lat="53.88673113721111" lon="14.491096417353381"><ele>45.0</ele><time>2026-04-12T12:26:21.931Z</time></trkpt><trkpt lat="53.886645888671865" lon="14.490849099559965"><ele>45.0</ele><time>2026-04-12T12:26:22.931Z</time></trkpt><trkpt lat="53.88656232497774" lon="14.490616794107007"><ele>45.0</ele><time>2026-04-12T12:26:23.931Z</time></trkpt><trkpt lat="53.88647319759368" lon="14.490380649069538"><ele>45.0</ele><time>2026-04-12T12:26:24.931Z</time></trkpt><trkpt lat="53.88636621975174" lon="14.490160484169978"><ele>45.0</ele><time>2026-04-12T12:26:25.931Z</time></trkpt><trkpt lat="53.886273127043545" lon="14.489938634514958"><ele>45.0</ele><time>2026-04-12T12:26:26.931Z</time></trkpt><trkpt lat="53.88616822559559" lon="14.489733481273369"><ele>45.0</ele><time>2026-04-12T12:26:27.931Z</time></trkpt><trkpt lat="53.88605942504394" lon="14.489524992740922"><ele>45.0</ele><time>2026-04-12T12:26:28.931Z</time></trkpt><trkpt lat="53.885930102282856" lon="14.489308221832934"><ele>45.0</ele><time>2026-04-12T12:26:29.931Z</time></trkpt><trkpt lat="53.88579702075849" lon="14.48909331216857"><ele>45.0</ele><time>2026-04-12T12:26:30.931Z</time></trkpt><trkpt lat="53.885659009291025" lon="14.488887394750012"><ele>45.0</ele><time>2026-04-12T12:26:31.931Z</time></trkpt><trkpt lat="53.88552735042807" lon="14.488683874388693"><ele>43.666666666666664</ele><time>2026-04-12T12:26:32.931Z</time></trkpt><trkpt lat="53.8853920662222" lon="14.488464893456445"><ele>42.33333333333333</ele><time>2026-04-12T12:26:33.931Z</time></trkpt><trkpt lat="53.88524219545538" lon="14.48823259865345"><ele>41.0</ele><time>2026-04-12T12:26:34.931Z</time></trkpt><trkpt lat="53.885128215163014" lon="14.488029797601483"><ele>40.0</ele><time>2026-04-12T12:26:35.931Z</time></trkpt><trkpt lat="53.88499867981049" lon="14.487858572586623"><ele>39.0</ele><time>2026-04-12T12:26:36.931Z</time></trkpt><trkpt lat="53.88488317726818" lon="14.48767539185996"><ele>38.0</ele><time>2026-04-12T12:26:37.931Z</time></trkpt><trkpt lat="53.88477310340752" lon="14.487492173127103"><ele>38.0</ele><time>2026-04-12T12:26:38.931Z</time></trkpt><trkpt lat="53.88467190794921" lon="14.487323983524773"><ele>38.0</ele><time>2026-04-12T12:26:39.931Z</time></trkpt><trkpt lat="53.88457708161333" lon="14.487165542413006"><ele>38.0</ele><time>2026-04-12T12:26:40.931Z</time></trkpt><trkpt lat="53.88447855287093" lon="14.487000479196537"><ele>38.0</ele><time>2026-04-12T12:26:41.931Z</time></trkpt><trkpt lat="53.88439053207719" lon="14.486850293429816"><ele>38.75</ele><time>2026-04-12T12:26:42.931Z</time></trkpt><trkpt lat="53.88428783755701" lon="14.48667495472776"><ele>39.5</ele><time>2026-04-12T12:26:43.931Z</time></trkpt><trkpt lat="53.88417980470235" lon="14.486495284094785"><ele>40.25</ele><time>2026-04-12T12:26:44.931Z</time></trkpt><trkpt lat="53.884086428593406" lon="14.48631648786277"><ele>41.0</ele><time>2026-04-12T12:26:45.931Z</time></trkpt><trkpt lat="53.883980060678084" lon="14.486129279239089"><ele>41.75</ele><time>2026-04-12T12:26:46.931Z</time></trkpt><trkpt lat="53.88388052562922" lon="14.485955108314247"><ele>42.5</ele><time>2026-04-12T12:26:47.931Z</time></trkpt><trkpt lat="53.883776200364856" lon="14.485787977434414"><ele>43.25</ele><time>2026-04-12T12:26:48.931Z</time></trkpt><trkpt lat="53.88367327120346" lon="14.485602640442327"><ele>44.0</ele><time>2026-04-12T12:26:49.931Z</time></trkpt><trkpt lat="53.88357526345958" lon="14.48541734100505"><ele>44.25</ele><time>2026-04-12T12:26:50.931Z</time></trkpt><trkpt lat="53.88347211321773" lon="14.485244868330488"><ele>44.5</ele><time>2026-04-12T12:26:51.931Z</time></trkpt><trkpt lat="53.883376091" lon="14.485054290441784"><ele>44.75</ele><time>2026-04-12T12:26:52.931Z</time></trkpt><trkpt lat="53.88329440018323" lon="14.484845104897282"><ele>45.0</ele><time>2026-04-12T12:26:53.931Z</time></trkpt><trkpt lat="53.883214475785515" lon="14.484659236170707"><ele>45.5</ele><time>2026-04-12T12:26:54.931Z</time></trkpt><trkpt lat="53.883135445925554" lon="14.484465430180466"><ele>46.0</ele><time>2026-04-12T12:26:55.932Z</time></trkpt><trkpt lat="53.883056644444004" lon="14.48426196362559"><ele>46.5</ele><time>2026-04-12T12:26:56.932Z</time></trkpt><trkpt lat="53.882984809680586" lon="14.484070599904278"><ele>47.0</ele><time>2026-04-12T12:26:57.932Z</time></trkpt><trkpt lat="53.88290987311084" lon="14.483870528184612"><ele>48.0</ele><time>2026-04-12T12:26:58.932Z</time></trkpt><trkpt lat="53.882823960270464" lon="14.48364216568096"><ele>49.0</ele><time>2026-04-12T12:26:59.932Z</time></trkpt><trkpt lat="53.88272806254397" lon="14.48339413071422"><ele>50.0</ele><time>2026-04-12T12:27:00.932Z</time></trkpt><trkpt lat="53.882623917728175" lon="14.483134653417192"><ele>50.66666666666667</ele><time>2026-04-12T12:27:01.932Z</time></trkpt><trkpt lat="53.88250448257436" lon="14.482849522900253"><ele>51.33333333333333</ele><time>2026-04-12T12:27:02.932Z</time></trkpt><trkpt lat="53.88238630402559" lon="14.48257373503116"><ele>52.0</ele><time>2026-04-12T12:27:03.932Z</time></trkpt><trkpt lat="53.88227098504726" lon="14.482308597325368"><ele>52.666666666666664</ele><time>2026-04-12T12:27:04.93Z</time></trkpt><trkpt lat="53.8821423185359" lon="14.482013981746368"><ele>53.33333333333333</ele><time>2026-04-12T12:27:05.93Z</time></trkpt><trkpt lat="53.88200907166836" lon="14.481709415735809"><ele>54.0</ele><time>2026-04-12T12:27:06.93Z</time></trkpt><trkpt lat="53.88185655885421" lon="14.481400420410264"><ele>54.0</ele><time>2026-04-12T12:27:07.93Z</time></trkpt><trkpt lat="53.88171258896529" lon="14.48105486153827"><ele>54.0</ele><time>2026-04-12T12:27:08.93Z</time></trkpt><trkpt lat="53.881566169789366" lon="14.4807092551269"><ele>55.0</ele><time>2026-04-12T12:27:09.93Z</time></trkpt><trkpt lat="53.88141963037359" lon="14.480363355110674"><ele>56.0</ele><time>2026-04-12T12:27:10.93Z</time></trkpt><trkpt lat="53.881281825158744" lon="14.480017086687395"><ele>56.0</ele><time>2026-04-12T12:27:11.93Z</time></trkpt><trkpt lat="53.881146590499775" lon="14.479688529484749"><ele>56.0</ele><time>2026-04-12T12:27:12.93Z</time></trkpt><trkpt lat="53.88101032071231" lon="14.479367187218854"><ele>56.0</ele><time>2026-04-12T12:27:13.93Z</time></trkpt><trkpt lat="53.88088283987313" lon="14.479036810459512"><ele>56.0</ele><time>2026-04-12T12:27:14.93Z</time></trkpt><trkpt lat="53.88075541360767" lon="14.478721689882809"><ele>56.0</ele><time>2026-04-12T12:27:15.93Z</time></trkpt><trkpt lat="53.880627980176264" lon="14.478415835251665"><ele>56.0</ele><time>2026-04-12T12:27:16.93Z</time></trkpt><trkpt lat="53.88051493636114" lon="14.478084498266163"><ele>56.0</ele><time>2026-04-12T12:27:17.93Z</time></trkpt><trkpt lat="53.88039159997948" lon="14.477765195594205"><ele>56.66666666666667</ele><time>2026-04-12T12:27:18.93Z</time></trkpt><trkpt lat="53.88026748068773" lon="14.47744545110661"><ele>57.33333333333333</ele><time>2026-04-12T12:27:19.93Z</time></trkpt><trkpt lat="53.88014807208207" lon="14.477127311148767"><ele>58.0</ele><time>2026-04-12T12:27:20.93Z</time></trkpt><trkpt lat="53.88003220084628" lon="14.476805196671519"><ele>58.0</ele><time>2026-04-12T12:27:21.93Z</time></trkpt><trkpt lat="53.87992004867188" lon="14.476476476659304"><ele>58.0</ele><time>2026-04-12T12:27:22.93Z</time></trkpt><trkpt lat="53.87980599629101" lon="14.476116520327022"><ele>58.5</ele><time>2026-04-12T12:27:23.93Z</time></trkpt><trkpt lat="53.87970692508053" lon="14.475763713030082"><ele>59.0</ele><time>2026-04-12T12:27:24.93Z</time></trkpt><trkpt lat="53.87961224403161" lon="14.475397173016919"><ele>59.0</ele><time>2026-04-12T12:27:25.93Z</time></trkpt><trkpt lat="53.87952978884161" lon="14.475044988350064"><ele>59.0</ele><time>2026-04-12T12:27:26.93Z</time></trkpt><trkpt lat="53.87947701365288" lon="14.474690522979907"><ele>59.0</ele><time>2026-04-12T12:27:27.93Z</time></trkpt><trkpt lat="53.879411034871666" lon="14.474339068690881"><ele>59.333333333333336</ele><time>2026-04-12T12:27:28.93Z</time></trkpt><trkpt lat="53.87934134303655" lon="14.4739754338567"><ele>59.66666666666667</ele><time>2026-04-12T12:27:29.93Z</time></trkpt><trkpt lat="53.879274265425174" lon="14.473618896154306"><ele>60.0</ele><time>2026-04-12T12:27:30.93Z</time></trkpt><trkpt lat="53.87919456336786" lon="14.47326326171019"><ele>60.0</ele><time>2026-04-12T12:27:31.93Z</time></trkpt><trkpt lat="53.87912830950398" lon="14.472901638164473"><ele>60.0</ele><time>2026-04-12T12:27:32.93Z</time></trkpt><trkpt lat="53.879058377082316" lon="14.472553955773487"><ele>60.0</ele><time>2026-04-12T12:27:33.93Z</time></trkpt><trkpt lat="53.879008006569876" lon="14.472228332596773"><ele>60.33333333333333</ele><time>2026-04-12T12:27:34.93Z</time></trkpt><trkpt lat="53.87895642183328" lon="14.471931197766978"><ele>60.666666666666664</ele><time>2026-04-12T12:27:35.93Z</time></trkpt><trkpt lat="53.878897127754016" lon="14.471651694551776"><ele>61.0</ele><time>2026-04-12T12:27:36.93Z</time></trkpt><trkpt lat="53.87884176745685" lon="14.471389063901503"><ele>61.33333333333333</ele><time>2026-04-12T12:27:37.93Z</time></trkpt><trkpt lat="53.87879356911564" lon="14.471132561354262"><ele>61.66666666666667</ele><time>2026-04-12T12:27:38.93Z</time></trkpt><trkpt lat="53.878751905703474" lon="14.470876413487929"><ele>62.0</ele><time>2026-04-12T12:27:39.93Z</time></trkpt><trkpt lat="53.878698611224344" lon="14.470618110234172"><ele>62.0</ele><time>2026-04-12T12:27:40.93Z</time></trkpt><trkpt lat="53.878666962087586" lon="14.470371722590006"><ele>62.0</ele><time>2026-04-12T12:27:41.93Z</time></trkpt><trkpt lat="53.87863412514743" lon="14.470140517953725"><ele>62.0</ele><time>2026-04-12T12:27:42.93Z</time></trkpt><trkpt lat="53.87860682411528" lon="14.469938810247655"><ele>62.0</ele><time>2026-04-12T12:27:43.93Z</time></trkpt><trkpt lat="53.87858250136263" lon="14.46974792776463"><ele>62.0</ele><time>2026-04-12T12:27:44.93Z</time></trkpt><trkpt lat="53.8785616715231" lon="14.469578359172706"><ele>62.0</ele><time>2026-04-12T12:27:45.93Z</time></trkpt><trkpt lat="53.87852512870458" lon="14.469404506172873"><ele>62.0</ele><time>2026-04-12T12:27:46.93Z</time></trkpt><trkpt lat="53.878503029322495" lon="14.469202457691509"><ele>62.0</ele><time>2026-04-12T12:27:47.93Z</time></trkpt><trkpt lat="53.87850010504361" lon="14.469012573962345"><ele>62.0</ele><time>2026-04-12T12:27:48.93Z</time></trkpt><trkpt lat="53.878502910124794" lon="14.468830869294516"><ele>61.0</ele><time>2026-04-12T12:27:49.93Z</time></trkpt><trkpt lat="53.878482647005676" lon="14.468654107945463"><ele>60.0</ele><time>2026-04-12T12:27:50.93Z</time></trkpt><trkpt lat="53.87852737215997" lon="14.468442161558167"><ele>59.0</ele><time>2026-04-12T12:27:51.93Z</time></trkpt><trkpt lat="53.878525799153195" lon="14.468235922318495"><ele>58.0</ele><time>2026-04-12T12:27:52.93Z</time></trkpt><trkpt lat="53.87853483618948" lon="14.468033757163314"><ele>56.25</ele><time>2026-04-12T12:27:53.93Z</time></trkpt><trkpt lat="53.87852470427518" lon="14.467835122866772"><ele>54.5</ele><time>2026-04-12T12:27:54.93Z</time></trkpt><trkpt lat="53.87849153965614" lon="14.467659862963275"><ele>52.75</ele><time>2026-04-12T12:27:55.93Z</time></trkpt><trkpt lat="53.8784387620955" lon="14.467469790693825"><ele>51.0</ele><time>2026-04-12T12:27:56.93Z</time></trkpt><trkpt lat="53.878360327837406" lon="14.467252254147144"><ele>47.0</ele><time>2026-04-12T12:27:57.93Z</time></trkpt><trkpt lat="53.878258187737735" lon="14.46700554464214"><ele>43.0</ele><time>2026-04-12T12:27:58.93Z</time></trkpt><trkpt lat="53.87816917522921" lon="14.466763543425259"><ele>39.0</ele><time>2026-04-12T12:27:59.93Z</time></trkpt><trkpt lat="53.87808760555992" lon="14.466547710029076"><ele>39.0</ele><time>2026-04-12T12:28:00.93Z</time></trkpt><trkpt lat="53.87801598992959" lon="14.466337915874098"><ele>39.0</ele><time>2026-04-12T12:28:01.93Z</time></trkpt><trkpt lat="53.87796233024605" lon="14.466124135163993"><ele>39.0</ele><time>2026-04-12T12:28:02.93Z</time></trkpt><trkpt lat="53.87791115956234" lon="14.465947083756605"><ele>39.0</ele><time>2026-04-12T12:28:03.93Z</time></trkpt><trkpt lat="53.87788396052363" lon="14.465766983992312"><ele>37.0</ele><time>2026-04-12T12:28:04.93Z</time></trkpt><trkpt lat="53.87786894969234" lon="14.465578771023496"><ele>35.0</ele><time>2026-04-12T12:28:05.93Z</time></trkpt><trkpt lat="53.87786663890962" lon="14.465402512904925"><ele>33.0</ele><time>2026-04-12T12:28:06.93Z</time></trkpt><trkpt lat="53.87789335473801" lon="14.465212847746498"><ele>31.0</ele><time>2026-04-12T12:28:07.93Z</time></trkpt><trkpt lat="53.87789963699321" lon="14.465054058673122"><ele>29.0</ele><time>2026-04-12T12:28:08.93Z</time></trkpt><trkpt lat="53.87788326189561" lon="14.46490107719627"><ele>27.333333333333332</ele><time>2026-04-12T12:28:09.93Z</time></trkpt><trkpt lat="53.87785477721163" lon="14.464778014563322"><ele>25.666666666666664</ele><time>2026-04-12T12:28:10.93Z</time></trkpt><trkpt lat="53.87781792069445" lon="14.464660328461672"><ele>24.0</ele><time>2026-04-12T12:28:11.93Z</time></trkpt><trkpt lat="53.87777751784028" lon="14.46454674401569"><ele>22.333333333333332</ele><time>2026-04-12T12:28:12.93Z</time></trkpt><trkpt lat="53.877730287135364" lon="14.464430350445488"><ele>20.666666666666664</ele><time>2026-04-12T12:28:13.93Z</time></trkpt><trkpt lat="53.87767324012163" lon="14.464282320685168"><ele>19.0</ele><time>2026-04-12T12:28:15.93Z</time></trkpt><trkpt lat="53.87762553309345" lon="14.464204363814133"><ele>19.0</ele><time>2026-04-12T12:28:17.93Z</time></trkpt><trkpt lat="53.87759055348169" lon="14.464112811982808"><ele>19.0</ele><time>2026-04-12T12:28:24.93Z</time></trkpt><trkpt lat="53.87753644112934" lon="14.463978042485197"><ele>19.0</ele><time>2026-04-12T12:28:26.93Z</time></trkpt><trkpt lat="53.87747859681497" lon="14.463811048437638"><ele>19.0</ele><time>2026-04-12T12:28:28.93Z</time></trkpt><trkpt lat="53.87744666377822" lon="14.463717929171704"><ele>19.0</ele><time>2026-04-12T12:28:29.93Z</time></trkpt><trkpt lat="53.87739829069693" lon="14.46358265183339"><ele>19.0</ele><time>2026-04-12T12:28:30.93Z</time></trkpt><trkpt lat="53.87734320108888" lon="14.463445911906286"><ele>19.0</ele><time>2026-04-12T12:28:31.93Z</time></trkpt><trkpt lat="53.87728968671764" lon="14.463306955763734"><ele>19.0</ele><time>2026-04-12T12:28:32.93Z</time></trkpt><trkpt lat="53.877245003145646" lon="14.463173146135473"><ele>19.0</ele><time>2026-04-12T12:28:33.93Z</time></trkpt><trkpt lat="53.87719168797147" lon="14.463028053160073"><ele>19.0</ele><time>2026-04-12T12:28:34.93Z</time></trkpt><trkpt lat="53.87714582619089" lon="14.462848513877642"><ele>19.0</ele><time>2026-04-12T12:28:35.93Z</time></trkpt><trkpt lat="53.877121600950304" lon="14.462645047643935"><ele>19.0</ele><time>2026-04-12T12:28:36.93Z</time></trkpt><trkpt lat="53.877114567693226" lon="14.46242363305909"><ele>19.0</ele><time>2026-04-12T12:28:37.93Z</time></trkpt><trkpt lat="53.877129000872955" lon="14.462196097807187"><ele>19.0</ele><time>2026-04-12T12:28:38.93Z</time></trkpt><trkpt lat="53.877166401841365" lon="14.461972252618198"><ele>19.0</ele><time>2026-04-12T12:28:39.93Z</time></trkpt><trkpt lat="53.877224828613684" lon="14.461762529263202"><ele>19.0</ele><time>2026-04-12T12:28:40.93Z</time></trkpt><trkpt lat="53.877300025179835" lon="14.46157795048517"><ele>19.0</ele><time>2026-04-12T12:28:41.93Z</time></trkpt><trkpt lat="53.877378447086954" lon="14.461421147484012"><ele>19.0</ele><time>2026-04-12T12:28:42.93Z</time></trkpt><trkpt lat="53.87745078228684" lon="14.461272052204148"><ele>19.0</ele><time>2026-04-12T12:28:43.93Z</time></trkpt><trkpt lat="53.87751534668589" lon="14.461136692595563"><ele>20.4</ele><time>2026-04-12T12:28:44.93Z</time></trkpt><trkpt lat="53.87757246051777" lon="14.460992235060028"><ele>21.799999999999997</ele><time>2026-04-12T12:28:45.931Z</time></trkpt><trkpt lat="53.87761588124755" lon="14.460845088594226"><ele>23.200000000000003</ele><time>2026-04-12T12:28:46.931Z</time></trkpt><trkpt lat="53.8776531535449" lon="14.46071186188756"><ele>24.6</ele><time>2026-04-12T12:28:47.931Z</time></trkpt><trkpt lat="53.87767683063" lon="14.460538670369768"><ele>26.0</ele><time>2026-04-12T12:28:48.931Z</time></trkpt><trkpt lat="53.877694180737336" lon="14.460352348580829"><ele>21.0</ele><time>2026-04-12T12:28:49.931Z</time></trkpt><trkpt lat="53.877712246902256" lon="14.46016065155644"><ele>16.0</ele><time>2026-04-12T12:28:50.931Z</time></trkpt><trkpt lat="53.877738119249315" lon="14.459959759921166"><ele>11.0</ele><time>2026-04-12T12:28:51.931Z</time></trkpt><trkpt lat="53.87776061171243" lon="14.45974097711515"><ele>6.0</ele><time>2026-04-12T12:28:52.931Z</time></trkpt><trkpt lat="53.87778406759876" lon="14.459525473332787"><ele>6.0</ele><time>2026-04-12T12:28:53.931Z</time></trkpt><trkpt lat="53.87780501713202" lon="14.459310470733474"><ele>6.0</ele><time>2026-04-12T12:28:54.931Z</time></trkpt><trkpt lat="53.87782867144553" lon="14.459111941652026"><ele>6.0</ele><time>2026-04-12T12:28:55.931Z</time></trkpt><trkpt lat="53.87785523925738" lon="14.458939912281089"><ele>6.0</ele><time>2026-04-12T12:28:56.931Z</time></trkpt><trkpt lat="53.8778742932394" lon="14.45880097528024"><ele>6.0</ele><time>2026-04-12T12:28:57.931Z</time></trkpt><trkpt lat="53.8778997900932" lon="14.45862018178024"><ele>6.0</ele><time>2026-04-12T12:28:59.931Z</time></trkpt><trkpt lat="53.87790947745216" lon="14.458495864010969"><ele>6.0</ele><time>2026-04-12T12:29:01.931Z</time></trkpt><trkpt lat="53.87809607592413" lon="14.458545033092875"><ele>6.0</ele><time>2026-04-12T12:29:11.93Z</time></trkpt><trkpt lat="53.878199267004824" lon="14.458609000905316"><ele>6.0</ele><time>2026-04-12T12:29:13.929Z</time></trkpt><trkpt lat="53.878305019417596" lon="14.458667612020038"><ele>6.0</ele><time>2026-04-12T12:29:15.93Z</time></trkpt><trkpt lat="53.8784153792989" lon="14.458741544098237"><ele>6.0</ele><time>2026-04-12T12:29:17.93Z</time></trkpt><trkpt lat="53.87849144309207" lon="14.45877020664527"><ele>6.0</ele><time>2026-04-12T12:29:19.93Z</time></trkpt><trkpt lat="53.878557491037505" lon="14.458804766600842"><ele>6.0</ele><time>2026-04-12T12:29:21.929Z</time></trkpt><trkpt lat="53.87863258649718" lon="14.45885439471596"><ele>6.0</ele><time>2026-04-12T12:29:23.929Z</time></trkpt><trkpt lat="53.87869519340306" lon="14.45888226936805"><ele>6.0</ele><time>2026-04-12T12:29:24.929Z</time></trkpt><trkpt lat="53.878807475169616" lon="14.458950399140733"><ele>5.666666666666667</ele><time>2026-04-12T12:29:26.929Z</time></trkpt><trkpt lat="53.87888764413847" lon="14.458988660755331"><ele>5.333333333333333</ele><time>2026-04-12T12:29:27.929Z</time></trkpt><trkpt lat="53.87894967342503" lon="14.459027310311475"><ele>5.0</ele><time>2026-04-12T12:29:28.929Z</time></trkpt><trkpt lat="53.879014461575466" lon="14.459063038315746"><ele>4.666666666666666</ele><time>2026-04-12T12:29:30.929Z</time></trkpt><trkpt lat="53.87909849390508" lon="14.45909962138496"><ele>4.333333333333333</ele><time>2026-04-12T12:29:33.929Z</time></trkpt><trkpt lat="53.8791899470577" lon="14.459184000217288"><ele>4.0</ele><time>2026-04-12T12:29:36.929Z</time></trkpt><trkpt lat="53.8792570650836" lon="14.459150366994928"><ele>4.0</ele><time>2026-04-12T12:29:41.929Z</time></trkpt></trkseg><trkseg><trkpt lat="53.879275803173954" lon="14.459033207761294"><ele>13.166666666666666</ele><time>2026-04-12T13:51:53.841Z</time></trkpt><trkpt lat="53.87918381613811" lon="14.459039933285775"><ele>11.333333333333334</ele><time>2026-04-12T13:51:55.841Z</time></trkpt><trkpt lat="53.87909317681022" lon="14.459020993190233"><ele>9.5</ele><time>2026-04-12T13:51:57.841Z</time></trkpt><trkpt lat="53.879027050473" lon="14.459012745260042"><ele>7.666666666666666</ele><time>2026-04-12T13:51:59.841Z</time></trkpt><trkpt lat="53.878958864140884" lon="14.458980810056385"><ele>5.833333333333333</ele><time>2026-04-12T13:52:01.841Z</time></trkpt><trkpt lat="53.87888525227072" lon="14.458953675794591"><ele>4.0</ele><time>2026-04-12T13:52:03.841Z</time></trkpt><trkpt lat="53.87877300210549" lon="14.45889291942924"><ele>3.9999999999999996</ele><time>2026-04-12T13:52:05.841Z</time></trkpt><trkpt lat="53.87869232234588" lon="14.458856777067663"><ele>4.0</ele><time>2026-04-12T13:52:06.841Z</time></trkpt><trkpt lat="53.87859521814699" lon="14.45881532265601"><ele>4.0</ele><time>2026-04-12T13:52:08.841Z</time></trkpt><trkpt lat="53.878532524413764" lon="14.458768698125361"><ele>4.0</ele><time>2026-04-12T13:52:09.841Z</time></trkpt><trkpt lat="53.8784565952772" lon="14.45871845123817"><ele>3.9999999999999996</ele><time>2026-04-12T13:52:10.841Z</time></trkpt><trkpt lat="53.878368783385824" lon="14.458684092219805"><ele>4.0</ele><time>2026-04-12T13:52:12.841Z</time></trkpt><trkpt lat="53.87822799530529" lon="14.45861896452599"><ele>4.166666666666666</ele><time>2026-04-12T13:52:14.841Z</time></trkpt><trkpt lat="53.87815545300589" lon="14.458581911603046"><ele>4.333333333333333</ele><time>2026-04-12T13:52:15.841Z</time></trkpt><trkpt lat="53.87808303475897" lon="14.458554104295027"><ele>4.5</ele><time>2026-04-12T13:52:16.841Z</time></trkpt><trkpt lat="53.87797815134655" lon="14.458493843769881"><ele>4.666666666666667</ele><time>2026-04-12T13:52:18.841Z</time></trkpt><trkpt lat="53.87790574413225" lon="14.45849469858127"><ele>4.833333333333334</ele><time>2026-04-12T13:52:19.841Z</time></trkpt><trkpt lat="53.87785465824258" lon="14.45857818787731"><ele>5.0</ele><time>2026-04-12T13:52:23.841Z</time></trkpt><trkpt lat="53.8778463580439" lon="14.45883377395333"><ele>5.0</ele><time>2026-04-12T13:52:25.841Z</time></trkpt><trkpt lat="53.877829644765406" lon="14.459009668464086"><ele>5.0</ele><time>2026-04-12T13:52:26.841Z</time></trkpt><trkpt lat="53.87781718698065" lon="14.459194282896762"><ele>5.0</ele><time>2026-04-12T13:52:27.841Z</time></trkpt><trkpt lat="53.87779848378988" lon="14.459394639324842"><ele>5.0</ele><time>2026-04-12T13:52:28.841Z</time></trkpt><trkpt lat="53.87777595625987" lon="14.459596620765323"><ele>5.25</ele><time>2026-04-12T13:52:29.841Z</time></trkpt><trkpt lat="53.877744137528154" lon="14.459815260470391"><ele>5.5</ele><time>2026-04-12T13:52:30.841Z</time></trkpt><trkpt lat="53.8777187403225" lon="14.460034718906726"><ele>5.75</ele><time>2026-04-12T13:52:31.841Z</time></trkpt><trkpt lat="53.877703559040434" lon="14.460247337472065"><ele>6.0</ele><time>2026-04-12T13:52:32.841Z</time></trkpt><trkpt lat="53.877673746960205" lon="14.460461985572369"><ele>6.0</ele><time>2026-04-12T13:52:33.841Z</time></trkpt><trkpt lat="53.877652817283185" lon="14.460659058240251"><ele>6.0</ele><time>2026-04-12T13:52:34.841Z</time></trkpt><trkpt lat="53.877625996087154" lon="14.46082184647727"><ele>6.0</ele><time>2026-04-12T13:52:35.841Z</time></trkpt><trkpt lat="53.87758766501862" lon="14.460964831806148"><ele>6.0</ele><time>2026-04-12T13:52:36.841Z</time></trkpt><trkpt lat="53.87753858073085" lon="14.461123205953056"><ele>6.0</ele><time>2026-04-12T13:52:37.841Z</time></trkpt><trkpt lat="53.87745798281774" lon="14.46129824394432"><ele>9.25</ele><time>2026-04-12T13:52:38.841Z</time></trkpt><trkpt lat="53.87736737658053" lon="14.461478527681246"><ele>12.5</ele><time>2026-04-12T13:52:39.841Z</time></trkpt><trkpt lat="53.877280670004076" lon="14.461657356118467"><ele>15.75</ele><time>2026-04-12T13:52:40.841Z</time></trkpt><trkpt lat="53.87720420765884" lon="14.461847175053466"><ele>19.0</ele><time>2026-04-12T13:52:41.841Z</time></trkpt><trkpt lat="53.877168493851414" lon="14.462022764827664"><ele>18.25</ele><time>2026-04-12T13:52:42.841Z</time></trkpt><trkpt lat="53.87713295138277" lon="14.462237048260679"><ele>17.5</ele><time>2026-04-12T13:52:43.841Z</time></trkpt><trkpt lat="53.87712318377053" lon="14.46245947150528"><ele>16.75</ele><time>2026-04-12T13:52:44.841Z</time></trkpt><trkpt lat="53.877131124839515" lon="14.462685872613948"><ele>16.0</ele><time>2026-04-12T13:52:45.841Z</time></trkpt><trkpt lat="53.877159866474315" lon="14.462916329888795"><ele>16.75</ele><time>2026-04-12T13:52:46.841Z</time></trkpt><trkpt lat="53.87720246481971" lon="14.463105340529488"><ele>17.5</ele><time>2026-04-12T13:52:47.841Z</time></trkpt><trkpt lat="53.87724751355222" lon="14.463310731986207"><ele>18.25</ele><time>2026-04-12T13:52:48.841Z</time></trkpt><trkpt lat="53.877314767143915" lon="14.463495893935761"><ele>19.0</ele><time>2026-04-12T13:52:49.841Z</time></trkpt><trkpt lat="53.87738789749358" lon="14.463686252788426"><ele>20.5</ele><time>2026-04-12T13:52:50.841Z</time></trkpt><trkpt lat="53.8774587937626" lon="14.46387155254296"><ele>22.0</ele><time>2026-04-12T13:52:51.841Z</time></trkpt><trkpt lat="53.87753252134022" lon="14.464063842958536"><ele>23.5</ele><time>2026-04-12T13:52:52.841Z</time></trkpt><trkpt lat="53.87759873654322" lon="14.464242996500012"><ele>25.0</ele><time>2026-04-12T13:52:53.841Z</time></trkpt><trkpt lat="53.87766135376287" lon="14.464417173414825"><ele>23.5</ele><time>2026-04-12T13:52:54.841Z</time></trkpt><trkpt lat="53.87772703714758" lon="14.464602713084394"><ele>22.0</ele><time>2026-04-12T13:52:55.841Z</time></trkpt><trkpt lat="53.87778184743531" lon="14.46477070942274"><ele>20.5</ele><time>2026-04-12T13:52:56.841Z</time></trkpt><trkpt lat="53.87782484392116" lon="14.464935140917266"><ele>19.0</ele><time>2026-04-12T13:52:57.841Z</time></trkpt><trkpt lat="53.87784750060355" lon="14.465110359706802"><ele>19.0</ele><time>2026-04-12T13:52:58.841Z</time></trkpt><trkpt lat="53.877853402382605" lon="14.465293622028186"><ele>19.0</ele><time>2026-04-12T13:52:59.841Z</time></trkpt><trkpt lat="53.87785396565752" lon="14.465536997506655"><ele>19.0</ele><time>2026-04-12T13:53:00.841Z</time></trkpt><trkpt lat="53.87787670667555" lon="14.465789953630404"><ele>19.0</ele><time>2026-04-12T13:53:01.841Z</time></trkpt><trkpt lat="53.87790825203007" lon="14.465982895299963"><ele>21.5</ele><time>2026-04-12T13:53:02.841Z</time></trkpt><trkpt lat="53.87797267603956" lon="14.466175193391317"><ele>24.0</ele><time>2026-04-12T13:53:03.841Z</time></trkpt><trkpt lat="53.87803911064918" lon="14.466344293956837"><ele>26.5</ele><time>2026-04-12T13:53:04.841Z</time></trkpt><trkpt lat="53.87811214580243" lon="14.466514550114404"><ele>29.0</ele><time>2026-04-12T13:53:05.841Z</time></trkpt><trkpt lat="53.878187443869415" lon="14.466720268604677"><ele>31.5</ele><time>2026-04-12T13:53:06.841Z</time></trkpt><trkpt lat="53.87827138087735" lon="14.46691711569862"><ele>34.0</ele><time>2026-04-12T13:53:07.841Z</time></trkpt><trkpt lat="53.87833956897707" lon="14.467104445451557"><ele>36.5</ele><time>2026-04-12T13:53:08.841Z</time></trkpt><trkpt lat="53.87840692834424" lon="14.467285424868717"><ele>39.0</ele><time>2026-04-12T13:53:09.841Z</time></trkpt><trkpt lat="53.87844537299836" lon="14.467470550760051"><ele>41.4</ele><time>2026-04-12T13:53:10.841Z</time></trkpt><trkpt lat="53.87850567826075" lon="14.467653519279857"><ele>43.8</ele><time>2026-04-12T13:53:11.841Z</time></trkpt><trkpt lat="53.87855030222008" lon="14.467817168508157"><ele>46.199999999999996</ele><time>2026-04-12T13:53:12.841Z</time></trkpt><trkpt lat="53.87857854017325" lon="14.46795262406714"><ele>48.599999999999994</ele><time>2026-04-12T13:53:13.841Z</time></trkpt><trkpt lat="53.87858170283144" lon="14.468093767647977"><ele>51.0</ele><time>2026-04-12T13:53:14.841Z</time></trkpt><trkpt lat="53.878552571630635" lon="14.4682511323674"><ele>52.4</ele><time>2026-04-12T13:53:15.841Z</time></trkpt><trkpt lat="53.878526249581824" lon="14.468450724951218"><ele>53.8</ele><time>2026-04-12T13:53:16.841Z</time></trkpt><trkpt lat="53.87848279472989" lon="14.46862772090288"><ele>55.199999999999996</ele><time>2026-04-12T13:53:17.841Z</time></trkpt><trkpt lat="53.8784509338076" lon="14.468816563536862"><ele>56.599999999999994</ele><time>2026-04-12T13:53:18.841Z</time></trkpt><trkpt lat="53.87844381292501" lon="14.468982410875592"><ele>58.0</ele><time>2026-04-12T13:53:19.841Z</time></trkpt><trkpt lat="53.878456369817" lon="14.469145012084299"><ele>59.0</ele><time>2026-04-12T13:53:20.841Z</time></trkpt><trkpt lat="53.87849503523441" lon="14.46935378170236"><ele>60.0</ele><time>2026-04-12T13:53:21.841Z</time></trkpt><trkpt lat="53.878532244342715" lon="14.469572897313629"><ele>61.0</ele><time>2026-04-12T13:53:22.841Z</time></trkpt><trkpt lat="53.87856794896702" lon="14.469805275184838"><ele>62.0</ele><time>2026-04-12T13:53:23.841Z</time></trkpt><trkpt lat="53.87859458878696" lon="14.470074623527164"><ele>62.0</ele><time>2026-04-12T13:53:24.841Z</time></trkpt><trkpt lat="53.87863007006061" lon="14.470329441531213"><ele>62.0</ele><time>2026-04-12T13:53:25.841Z</time></trkpt><trkpt lat="53.87866352027427" lon="14.470574141958233"><ele>62.0</ele><time>2026-04-12T13:53:26.841Z</time></trkpt><trkpt lat="53.8787021239787" lon="14.470817031258125"><ele>62.0</ele><time>2026-04-12T13:53:27.841Z</time></trkpt><trkpt lat="53.87873646647014" lon="14.471060081410663"><ele>62.0</ele><time>2026-04-12T13:53:28.841Z</time></trkpt><trkpt lat="53.87878547548592" lon="14.47128103656495"><ele>62.0</ele><time>2026-04-12T13:53:29.841Z</time></trkpt><trkpt lat="53.87882535759504" lon="14.471489427592031"><ele>62.0</ele><time>2026-04-12T13:53:30.841Z</time></trkpt><trkpt lat="53.87887992348402" lon="14.471698369166019"><ele>61.75</ele><time>2026-04-12T13:53:31.841Z</time></trkpt><trkpt lat="53.878925544498955" lon="14.471900812811477"><ele>61.5</ele><time>2026-04-12T13:53:32.84Z</time></trkpt><trkpt lat="53.87894384922864" lon="14.472105331596259"><ele>61.25</ele><time>2026-04-12T13:53:33.84Z</time></trkpt><trkpt lat="53.87897993446142" lon="14.472304528340997"><ele>61.0</ele><time>2026-04-12T13:53:34.84Z</time></trkpt><trkpt lat="53.879020565746714" lon="14.472536313243024"><ele>60.666666666666664</ele><time>2026-04-12T13:53:35.839Z</time></trkpt><trkpt lat="53.87908155555457" lon="14.472821491409457"><ele>60.33333333333333</ele><time>2026-04-12T13:53:36.84Z</time></trkpt><trkpt lat="53.879137232498024" lon="14.47312372105745"><ele>60.0</ele><time>2026-04-12T13:53:37.84Z</time></trkpt><trkpt lat="53.879183315905514" lon="14.473379584510052"><ele>60.0</ele><time>2026-04-12T13:53:38.839Z</time></trkpt><trkpt lat="53.87922612849479" lon="14.47360182120107"><ele>60.0</ele><time>2026-04-12T13:53:39.84Z</time></trkpt><trkpt lat="53.879263870862324" lon="14.473811239763439"><ele>60.0</ele><time>2026-04-12T13:53:40.84Z</time></trkpt><trkpt lat="53.87930498740344" lon="14.474033524025982"><ele>60.0</ele><time>2026-04-12T13:53:41.84Z</time></trkpt><trkpt lat="53.87934442124917" lon="14.474255015847133"><ele>60.0</ele><time>2026-04-12T13:53:42.84Z</time></trkpt><trkpt lat="53.879394120079546" lon="14.474511232450046"><ele>60.0</ele><time>2026-04-12T13:53:43.84Z</time></trkpt><trkpt lat="53.879456290646395" lon="14.47478148896348"><ele>60.0</ele><time>2026-04-12T13:53:44.839Z</time></trkpt><trkpt lat="53.879512015544755" lon="14.475073282304237"><ele>59.66666666666667</ele><time>2026-04-12T13:53:45.84Z</time></trkpt><trkpt lat="53.87957414282706" lon="14.475373103050337"><ele>59.333333333333336</ele><time>2026-04-12T13:53:46.84Z</time></trkpt><trkpt lat="53.87964643493529" lon="14.475671403618026"><ele>59.0</ele><time>2026-04-12T13:53:47.84Z</time></trkpt><trkpt lat="53.87972883979626" lon="14.475978171403298"><ele>58.66666666666667</ele><time>2026-04-12T13:53:48.84Z</time></trkpt><trkpt lat="53.87982188867818" lon="14.476270257930281"><ele>58.33333333333333</ele><time>2026-04-12T13:53:49.84Z</time></trkpt><trkpt lat="53.87989629047381" lon="14.476572817373318"><ele>58.0</ele><time>2026-04-12T13:53:50.84Z</time></trkpt><trkpt lat="53.87998928258766" lon="14.47684860941508"><ele>57.666666666666664</ele><time>2026-04-12T13:53:51.84Z</time></trkpt><trkpt lat="53.88008884536842" lon="14.477125344942275"><ele>57.33333333333333</ele><time>2026-04-12T13:53:52.84Z</time></trkpt><trkpt lat="53.88018743170899" lon="14.477432984412383"><ele>57.0</ele><time>2026-04-12T13:53:53.84Z</time></trkpt><trkpt lat="53.88030482568211" lon="14.47769729397612"><ele>56.66666666666667</ele><time>2026-04-12T13:53:54.84Z</time></trkpt><trkpt lat="53.88043115680819" lon="14.477969521027454"><ele>56.333333333333336</ele><time>2026-04-12T13:53:55.84Z</time></trkpt><trkpt lat="53.88054781543401" lon="14.478273346404341"><ele>56.0</ele><time>2026-04-12T13:53:56.84Z</time></trkpt><trkpt lat="53.88067333475703" lon="14.47859984972085"><ele>56.0</ele><time>2026-04-12T13:53:57.84Z</time></trkpt><trkpt lat="53.8807987463992" lon="14.478924088914331"><ele>56.0</ele><time>2026-04-12T13:53:58.84Z</time></trkpt><trkpt lat="53.88093524235644" lon="14.479272496447418"><ele>56.0</ele><time>2026-04-12T13:53:59.84Z</time></trkpt><trkpt lat="53.88108541887174" lon="14.479648092029091"><ele>56.0</ele><time>2026-04-12T13:54:00.84Z</time></trkpt><trkpt lat="53.88123840134347" lon="14.48002217575082"><ele>56.0</ele><time>2026-04-12T13:54:01.84Z</time></trkpt><trkpt lat="53.88138534228641" lon="14.480371370182446"><ele>56.0</ele><time>2026-04-12T13:54:02.84Z</time></trkpt><trkpt lat="53.88153415190012" lon="14.48071808652764"><ele>55.0</ele><time>2026-04-12T13:54:03.84Z</time></trkpt><trkpt lat="53.88167786469675" lon="14.481048472213308"><ele>54.0</ele><time>2026-04-12T13:54:04.84Z</time></trkpt><trkpt lat="53.881813080726715" lon="14.481357214251563"><ele>54.0</ele><time>2026-04-12T13:54:05.84Z</time></trkpt><trkpt lat="53.88194484318423" lon="14.481657313288704"><ele>54.0</ele><time>2026-04-12T13:54:06.84Z</time></trkpt><trkpt lat="53.8820627778267" lon="14.481926638800472"><ele>54.0</ele><time>2026-04-12T13:54:07.84Z</time></trkpt><trkpt lat="53.88218207037853" lon="14.482198174890781"><ele>53.33333333333333</ele><time>2026-04-12T13:54:08.84Z</time></trkpt><trkpt lat="53.882301477213666" lon="14.482473446781741"><ele>52.666666666666664</ele><time>2026-04-12T13:54:09.84Z</time></trkpt><trkpt lat="53.882424005879756" lon="14.482756336187776"><ele>52.0</ele><time>2026-04-12T13:54:10.84Z</time></trkpt><trkpt lat="53.88254615179142" lon="14.483044968978929"><ele>51.33333333333333</ele><time>2026-04-12T13:54:11.84Z</time></trkpt><trkpt lat="53.88267325590793" lon="14.483355979740715"><ele>50.66666666666667</ele><time>2026-04-12T13:54:12.84Z</time></trkpt><trkpt lat="53.88279298743558" lon="14.483664789869675"><ele>50.0</ele><time>2026-04-12T13:54:13.84Z</time></trkpt><trkpt lat="53.882900695242164" lon="14.483951155465414"><ele>49.0</ele><time>2026-04-12T13:54:14.84Z</time></trkpt><trkpt lat="53.882997184956004" lon="14.484207785203205"><ele>48.0</ele><time>2026-04-12T13:54:15.84Z</time></trkpt><trkpt lat="53.88309181985929" lon="14.48445611109432"><ele>47.0</ele><time>2026-04-12T13:54:16.84Z</time></trkpt><trkpt lat="53.88318120941261" lon="14.484676933114478"><ele>46.33333333333333</ele><time>2026-04-12T13:54:17.84Z</time></trkpt><trkpt lat="53.88326910404937" lon="14.484881852650497"><ele>45.666666666666664</ele><time>2026-04-12T13:54:18.84Z</time></trkpt><trkpt lat="53.883356565379806" lon="14.485074145699658"><ele>45.0</ele><time>2026-04-12T13:54:19.84Z</time></trkpt><trkpt lat="53.883459155003244" lon="14.485287918136866"><ele>44.666666666666664</ele><time>2026-04-12T13:54:20.84Z</time></trkpt><trkpt lat="53.88355713846903" lon="14.485482527436247"><ele>44.33333333333333</ele><time>2026-04-12T13:54:21.84Z</time></trkpt><trkpt lat="53.88366919343831" lon="14.485695198190735"><ele>44.0</ele><time>2026-04-12T13:54:22.84Z</time></trkpt><trkpt lat="53.883775782891426" lon="14.48589444445106"><ele>44.0</ele><time>2026-04-12T13:54:23.84Z</time></trkpt><trkpt lat="53.88389737838508" lon="14.486114994382099"><ele>44.0</ele><time>2026-04-12T13:54:24.84Z</time></trkpt><trkpt lat="53.884026797154476" lon="14.486343625272163"><ele>44.0</ele><time>2026-04-12T13:54:25.84Z</time></trkpt><trkpt lat="53.88415214508903" lon="14.486562801154593"><ele>43.0</ele><time>2026-04-12T13:54:26.84Z</time></trkpt><trkpt lat="53.88427918693588" lon="14.48678009659031"><ele>42.0</ele><time>2026-04-12T13:54:27.84Z</time></trkpt><trkpt lat="53.8843994012161" lon="14.486985267478751"><ele>41.0</ele><time>2026-04-12T13:54:28.84Z</time></trkpt><trkpt lat="53.88452588221051" lon="14.4871990169737"><ele>40.0</ele><time>2026-04-12T13:54:29.84Z</time></trkpt><trkpt lat="53.88465657115544" lon="14.487417016218066"><ele>39.0</ele><time>2026-04-12T13:54:30.84Z</time></trkpt><trkpt lat="53.8847873260832" lon="14.487634473191049"><ele>38.0</ele><time>2026-04-12T13:54:31.84Z</time></trkpt><trkpt lat="53.884906271706036" lon="14.487829491048682"><ele>38.25</ele><time>2026-04-12T13:54:32.84Z</time></trkpt><trkpt lat="53.8850136752235" lon="14.487996868318463"><ele>38.5</ele><time>2026-04-12T13:54:33.84Z</time></trkpt><trkpt lat="53.88511524129404" lon="14.488156298765606"><ele>38.75</ele><time>2026-04-12T13:54:34.84Z</time></trkpt><trkpt lat="53.885237500309316" lon="14.48834075298445"><ele>39.0</ele><time>2026-04-12T13:54:35.84Z</time></trkpt><trkpt lat="53.88535845186324" lon="14.488522011237507"><ele>39.666666666666664</ele><time>2026-04-12T13:54:36.84Z</time></trkpt><trkpt lat="53.88547617175074" lon="14.488697833955877"><ele>40.33333333333333</ele><time>2026-04-12T13:54:37.84Z</time></trkpt><trkpt lat="53.88561202845483" lon="14.488900170684312"><ele>41.0</ele><time>2026-04-12T13:54:38.84Z</time></trkpt><trkpt lat="53.885734601848476" lon="14.489086525495669"><ele>42.33333333333333</ele><time>2026-04-12T13:54:39.84Z</time></trkpt><trkpt lat="53.88586403494818" lon="14.48928907387604"><ele>43.666666666666664</ele><time>2026-04-12T13:54:40.84Z</time></trkpt><trkpt lat="53.88599265281516" lon="14.48950078883068"><ele>45.0</ele><time>2026-04-12T13:54:41.84Z</time></trkpt><trkpt lat="53.88610932823794" lon="14.489701712681416"><ele>45.0</ele><time>2026-04-12T13:54:42.84Z</time></trkpt><trkpt lat="53.88622327766071" lon="14.489908752975843"><ele>45.0</ele><time>2026-04-12T13:54:43.84Z</time></trkpt><trkpt lat="53.88634127119062" lon="14.490147539777423"><ele>45.0</ele><time>2026-04-12T13:54:44.84Z</time></trkpt><trkpt lat="53.88643622112658" lon="14.490387828189409"><ele>45.0</ele><time>2026-04-12T13:54:45.84Z</time></trkpt><trkpt lat="53.8865193651018" lon="14.490607085958755"><ele>45.0</ele><time>2026-04-12T13:54:46.84Z</time></trkpt><trkpt lat="53.886617803717584" lon="14.490879235187311"><ele>45.0</ele><time>2026-04-12T13:54:47.84Z</time></trkpt><trkpt lat="53.88670429331767" lon="14.491130413033268"><ele>45.0</ele><time>2026-04-12T13:54:48.84Z</time></trkpt><trkpt lat="53.88679376850726" lon="14.4914012687003"><ele>45.0</ele><time>2026-04-12T13:54:49.84Z</time></trkpt><trkpt lat="53.886899253318326" lon="14.491687486438899"><ele>45.0</ele><time>2026-04-12T13:54:50.84Z</time></trkpt><trkpt lat="53.886983522386245" lon="14.491979556957661"><ele>44.666666666666664</ele><time>2026-04-12T13:54:51.84Z</time></trkpt><trkpt lat="53.88707012443984" lon="14.492284974329092"><ele>44.33333333333333</ele><time>2026-04-12T13:54:52.84Z</time></trkpt><trkpt lat="53.887154416284375" lon="14.492599237943159"><ele>44.0</ele><time>2026-04-12T13:54:53.84Z</time></trkpt><trkpt lat="53.88724836432305" lon="14.492897304719845"><ele>43.33333333333333</ele><time>2026-04-12T13:54:54.84Z</time></trkpt><trkpt lat="53.887333297632985" lon="14.493182101457812"><ele>42.666666666666664</ele><time>2026-04-12T13:54:55.84Z</time></trkpt><trkpt lat="53.88741073475954" lon="14.49343457378267"><ele>42.0</ele><time>2026-04-12T13:54:56.84Z</time></trkpt><trkpt lat="53.88746682103427" lon="14.493714485726302"><ele>40.666666666666664</ele><time>2026-04-12T13:54:57.84Z</time></trkpt><trkpt lat="53.88753095348862" lon="14.493971361979895"><ele>39.33333333333333</ele><time>2026-04-12T13:54:58.84Z</time></trkpt><trkpt lat="53.88758866331477" lon="14.49420180590192"><ele>38.0</ele><time>2026-04-12T13:54:59.84Z</time></trkpt><trkpt lat="53.88764562375332" lon="14.494419648881593"><ele>35.75</ele><time>2026-04-12T13:55:00.84Z</time></trkpt><trkpt lat="53.88770573164076" lon="14.49463740699804"><ele>33.5</ele><time>2026-04-12T13:55:01.84Z</time></trkpt><trkpt lat="53.88776000636061" lon="14.494825718600111"><ele>31.25</ele><time>2026-04-12T13:55:02.84Z</time></trkpt><trkpt lat="53.8878058176555" lon="14.494979742808948"><ele>29.0</ele><time>2026-04-12T13:55:03.84Z</time></trkpt><trkpt lat="53.88786225824286" lon="14.495150781044837"><ele>29.0</ele><time>2026-04-12T13:55:04.84Z</time></trkpt><trkpt lat="53.88791179632845" lon="14.49532644167609"><ele>29.0</ele><time>2026-04-12T13:55:05.84Z</time></trkpt><trkpt lat="53.88799228973143" lon="14.495535150956552"><ele>29.0</ele><time>2026-04-12T13:55:06.84Z</time></trkpt><trkpt lat="53.88808940813821" lon="14.49578263060473"><ele>29.0</ele><time>2026-04-12T13:55:07.84Z</time></trkpt><trkpt lat="53.888177478794944" lon="14.496061735696845"><ele>28.333333333333332</ele><time>2026-04-12T13:55:08.84Z</time></trkpt><trkpt lat="53.888222866469384" lon="14.496381848657425"><ele>27.666666666666664</ele><time>2026-04-12T13:55:09.84Z</time></trkpt><trkpt lat="53.888237304274455" lon="14.49666677370759"><ele>27.0</ele><time>2026-04-12T13:55:10.84Z</time></trkpt><trkpt lat="53.88824233658926" lon="14.49691011510099"><ele>26.8</ele><time>2026-04-12T13:55:11.84Z</time></trkpt><trkpt lat="53.88824045756645" lon="14.497111636317449"><ele>26.6</ele><time>2026-04-12T13:55:12.84Z</time></trkpt><trkpt lat="53.888240457564265" lon="14.497289653655153"><ele>26.400000000000002</ele><time>2026-04-12T13:55:13.839Z</time></trkpt><trkpt lat="53.88817766813373" lon="14.497430556290787"><ele>26.200000000000003</ele><time>2026-04-12T13:55:14.839Z</time></trkpt><trkpt lat="53.888138804258034" lon="14.497583331133722"><ele>26.0</ele><time>2026-04-12T13:55:15.839Z</time></trkpt><trkpt lat="53.88809324333209" lon="14.497770657230939"><ele>26.25</ele><time>2026-04-12T13:55:16.839Z</time></trkpt><trkpt lat="53.88806405774568" lon="14.497981661284637"><ele>26.5</ele><time>2026-04-12T13:55:17.839Z</time></trkpt><trkpt lat="53.88811005541427" lon="14.498266592982706"><ele>26.75</ele><time>2026-04-12T13:55:18.839Z</time></trkpt><trkpt lat="53.88815496198008" lon="14.49848624695253"><ele>27.0</ele><time>2026-04-12T13:55:19.839Z</time></trkpt><trkpt lat="53.88818377215458" lon="14.498692156727474"><ele>26.5</ele><time>2026-04-12T13:55:20.839Z</time></trkpt><trkpt lat="53.88818288265011" lon="14.498914777450144"><ele>26.0</ele><time>2026-04-12T13:55:21.839Z</time></trkpt><trkpt lat="53.888093063128636" lon="14.499114043639407"><ele>25.5</ele><time>2026-04-12T13:55:22.839Z</time></trkpt><trkpt lat="53.888000310611666" lon="14.499334478267697"><ele>25.0</ele><time>2026-04-12T13:55:23.839Z</time></trkpt><trkpt lat="53.887908392176094" lon="14.499558408197865"><ele>24.333333333333336</ele><time>2026-04-12T13:55:24.839Z</time></trkpt><trkpt lat="53.88781435181455" lon="14.499795449464637"><ele>23.666666666666668</ele><time>2026-04-12T13:55:25.839Z</time></trkpt><trkpt lat="53.887730927095205" lon="14.500053175483556"><ele>23.0</ele><time>2026-04-12T13:55:26.839Z</time></trkpt><trkpt lat="53.88762257649446" lon="14.500297504394789"><ele>23.0</ele><time>2026-04-12T13:55:27.839Z</time></trkpt><trkpt lat="53.88753079333011" lon="14.50056500940016"><ele>23.0</ele><time>2026-04-12T13:55:28.839Z</time></trkpt><trkpt lat="53.88742780479301" lon="14.500815268504905"><ele>23.0</ele><time>2026-04-12T13:55:29.839Z</time></trkpt><trkpt lat="53.887329001438914" lon="14.501075827485275"><ele>22.0</ele><time>2026-04-12T13:55:30.839Z</time></trkpt><trkpt lat="53.887228241690465" lon="14.501336217921024"><ele>21.0</ele><time>2026-04-12T13:55:31.839Z</time></trkpt><trkpt lat="53.88712105744278" lon="14.501612153612893"><ele>20.0</ele><time>2026-04-12T13:55:32.839Z</time></trkpt><trkpt lat="53.88700893418168" lon="14.501884620131628"><ele>20.333333333333336</ele><time>2026-04-12T13:55:33.839Z</time></trkpt><trkpt lat="53.88688605455259" lon="14.502159871384805"><ele>20.666666666666668</ele><time>2026-04-12T13:55:34.839Z</time></trkpt><trkpt lat="53.88675248885969" lon="14.502438381524183"><ele>21.0</ele><time>2026-04-12T13:55:35.839Z</time></trkpt><trkpt lat="53.88661076447966" lon="14.502724613357579"><ele>27.0</ele><time>2026-04-12T13:55:36.839Z</time></trkpt><trkpt lat="53.886474456960045" lon="14.50303176120361"><ele>33.0</ele><time>2026-04-12T13:55:37.839Z</time></trkpt><trkpt lat="53.88632244999594" lon="14.503327660257426"><ele>33.0</ele><time>2026-04-12T13:55:38.838Z</time></trkpt><trkpt lat="53.886171360743" lon="14.503627084226999"><ele>33.0</ele><time>2026-04-12T13:55:39.838Z</time></trkpt><trkpt lat="53.886018266574766" lon="14.503941012134664"><ele>34.5</ele><time>2026-04-12T13:55:40.838Z</time></trkpt><trkpt lat="53.88585542307671" lon="14.50426505398673"><ele>36.0</ele><time>2026-04-12T13:55:41.838Z</time></trkpt><trkpt lat="53.885689810703454" lon="14.504599484179543"><ele>36.5</ele><time>2026-04-12T13:55:42.838Z</time></trkpt><trkpt lat="53.88549799562008" lon="14.50494175924204"><ele>37.0</ele><time>2026-04-12T13:55:43.838Z</time></trkpt><trkpt lat="53.885326314966875" lon="14.50531955354552"><ele>37.0</ele><time>2026-04-12T13:55:44.838Z</time></trkpt><trkpt lat="53.8851467828768" lon="14.505679594893083"><ele>37.0</ele><time>2026-04-12T13:55:45.838Z</time></trkpt><trkpt lat="53.884970082335094" lon="14.50602604556993"><ele>35.0</ele><time>2026-04-12T13:55:46.838Z</time></trkpt><trkpt lat="53.88479700293998" lon="14.506353692070128"><ele>33.0</ele><time>2026-04-12T13:55:47.838Z</time></trkpt><trkpt lat="53.884642399543104" lon="14.506671002496775"><ele>33.0</ele><time>2026-04-12T13:55:48.837Z</time></trkpt><trkpt lat="53.88449361948076" lon="14.506954234145045"><ele>33.0</ele><time>2026-04-12T13:55:49.837Z</time></trkpt><trkpt lat="53.88435472277099" lon="14.507189655728691"><ele>33.0</ele><time>2026-04-12T13:55:50.838Z</time></trkpt><trkpt lat="53.884243333429666" lon="14.507406753876149"><ele>33.0</ele><time>2026-04-12T13:55:51.837Z</time></trkpt><trkpt lat="53.884154543909936" lon="14.507580934217415"><ele>33.0</ele><time>2026-04-12T13:55:52.837Z</time></trkpt><trkpt lat="53.884076184669645" lon="14.507736908074586"><ele>33.0</ele><time>2026-04-12T13:55:53.837Z</time></trkpt><trkpt lat="53.88400735322268" lon="14.507876569484225"><ele>33.0</ele><time>2026-04-12T13:55:54.837Z</time></trkpt><trkpt lat="53.88397418155247" lon="14.507986636964576"><ele>33.0</ele><time>2026-04-12T13:55:55.837Z</time></trkpt><trkpt lat="53.88390021225702" lon="14.508126125495268"><ele>32.5</ele><time>2026-04-12T13:55:57.837Z</time></trkpt><trkpt lat="53.88384910480689" lon="14.508236811320675"><ele>32.0</ele><time>2026-04-12T13:55:59.837Z</time></trkpt><trkpt lat="53.88378373656051" lon="14.508339115194174"><ele>31.5</ele><time>2026-04-12T13:56:02.837Z</time></trkpt><trkpt lat="53.88374104934176" lon="14.508440161528483"><ele>31.0</ele><time>2026-04-12T13:56:05.837Z</time></trkpt><trkpt lat="53.88369308413843" lon="14.508551259142221"><ele>30.5</ele><time>2026-04-12T13:56:08.837Z</time></trkpt><trkpt lat="53.883640934213076" lon="14.508647427438206"><ele>30.0</ele><time>2026-04-12T13:56:11.837Z</time></trkpt><trkpt lat="53.88360622015861" lon="14.508738363151533"><ele>29.6</ele><time>2026-04-12T13:56:15.837Z</time></trkpt><trkpt lat="53.88354943136413" lon="14.508803041123393"><ele>29.2</ele><time>2026-04-12T13:56:28.837Z</time></trkpt><trkpt lat="53.88349477158296" lon="14.508971916297462"><ele>28.799999999999997</ele><time>2026-04-12T13:56:30.837Z</time></trkpt><trkpt lat="53.88343414495238" lon="14.509089644723671"><ele>28.4</ele><time>2026-04-12T13:56:31.837Z</time></trkpt><trkpt lat="53.88335824586022" lon="14.509254983629198"><ele>28.0</ele><time>2026-04-12T13:56:32.837Z</time></trkpt><trkpt lat="53.88327337647553" lon="14.509444128666077"><ele>28.666666666666668</ele><time>2026-04-12T13:56:33.837Z</time></trkpt><trkpt lat="53.883180595555004" lon="14.509610914266153"><ele>29.333333333333336</ele><time>2026-04-12T13:56:34.837Z</time></trkpt><trkpt lat="53.88308030117397" lon="14.509835684178338"><ele>30.0</ele><time>2026-04-12T13:56:35.837Z</time></trkpt><trkpt lat="53.882978677811785" lon="14.510080660443082"><ele>30.0</ele><time>2026-04-12T13:56:36.837Z</time></trkpt><trkpt lat="53.88287210110471" lon="14.510342702807481"><ele>30.0</ele><time>2026-04-12T13:56:37.837Z</time></trkpt><trkpt lat="53.88274940414558" lon="14.510616892411887"><ele>30.0</ele><time>2026-04-12T13:56:38.837Z</time></trkpt><trkpt lat="53.882637172869906" lon="14.510923915304657"><ele>30.333333333333336</ele><time>2026-04-12T13:56:39.837Z</time></trkpt><trkpt lat="53.88252273078345" lon="14.511239355770945"><ele>30.666666666666668</ele><time>2026-04-12T13:56:40.837Z</time></trkpt><trkpt lat="53.88241167735344" lon="14.511557186566892"><ele>31.0</ele><time>2026-04-12T13:56:41.837Z</time></trkpt><trkpt lat="53.882298088112904" lon="14.511877229947745"><ele>31.0</ele><time>2026-04-12T13:56:42.837Z</time></trkpt><trkpt lat="53.88218153978383" lon="14.51220094003689"><ele>31.0</ele><time>2026-04-12T13:56:43.837Z</time></trkpt><trkpt lat="53.88207891890048" lon="14.512500391399113"><ele>31.0</ele><time>2026-04-12T13:56:44.837Z</time></trkpt><trkpt lat="53.88197637048109" lon="14.512802623868792"><ele>31.0</ele><time>2026-04-12T13:56:45.837Z</time></trkpt><trkpt lat="53.88186217011611" lon="14.513118090117498"><ele>31.0</ele><time>2026-04-12T13:56:46.837Z</time></trkpt><trkpt lat="53.88175119105392" lon="14.513446095982582"><ele>31.0</ele><time>2026-04-12T13:56:47.837Z</time></trkpt><trkpt lat="53.88164114512046" lon="14.513767935807317"><ele>31.333333333333336</ele><time>2026-04-12T13:56:48.837Z</time></trkpt><trkpt lat="53.881532195740185" lon="14.514079296355858"><ele>31.666666666666664</ele><time>2026-04-12T13:56:49.837Z</time></trkpt><trkpt lat="53.88142835168797" lon="14.514386439984909"><ele>32.0</ele><time>2026-04-12T13:56:50.837Z</time></trkpt><trkpt lat="53.88132713107375" lon="14.514689421802919"><ele>30.0</ele><time>2026-04-12T13:56:51.837Z</time></trkpt><trkpt lat="53.88122520972783" lon="14.514979770481812"><ele>28.0</ele><time>2026-04-12T13:56:52.837Z</time></trkpt><trkpt lat="53.8811255966257" lon="14.515261430216144"><ele>26.0</ele><time>2026-04-12T13:56:53.837Z</time></trkpt><trkpt lat="53.88102483749874" lon="14.515541143000847"><ele>25.666666666666664</ele><time>2026-04-12T13:56:54.837Z</time></trkpt><trkpt lat="53.88092945975037" lon="14.515818669474882"><ele>25.333333333333336</ele><time>2026-04-12T13:56:55.837Z</time></trkpt><trkpt lat="53.88083160087855" lon="14.516097120727808"><ele>25.0</ele><time>2026-04-12T13:56:56.837Z</time></trkpt><trkpt lat="53.88073479865407" lon="14.51636160550466"><ele>23.333333333333336</ele><time>2026-04-12T13:56:57.837Z</time></trkpt><trkpt lat="53.8806351777703" lon="14.516632495099897"><ele>21.666666666666668</ele><time>2026-04-12T13:56:58.837Z</time></trkpt><trkpt lat="53.88053566238727" lon="14.516913699558398"><ele>20.0</ele><time>2026-04-12T13:56:59.837Z</time></trkpt><trkpt lat="53.88043678546622" lon="14.517202134534042"><ele>19.0</ele><time>2026-04-12T13:57:00.837Z</time></trkpt><trkpt lat="53.880342991623536" lon="14.517497864608538"><ele>18.0</ele><time>2026-04-12T13:57:01.837Z</time></trkpt><trkpt lat="53.88025356890191" lon="14.517794715546458"><ele>17.0</ele><time>2026-04-12T13:57:02.837Z</time></trkpt><trkpt lat="53.88016979424264" lon="14.518091555001995"><ele>16.0</ele><time>2026-04-12T13:57:03.837Z</time></trkpt><trkpt lat="53.88008945959561" lon="14.518394251859199"><ele>15.0</ele><time>2026-04-12T13:57:04.837Z</time></trkpt><trkpt lat="53.88001892422352" lon="14.518690646163854"><ele>14.0</ele><time>2026-04-12T13:57:05.837Z</time></trkpt><trkpt lat="53.87995299822305" lon="14.518987605761051"><ele>14.0</ele><time>2026-04-12T13:57:06.837Z</time></trkpt><trkpt lat="53.879895633953005" lon="14.519265256843093"><ele>14.0</ele><time>2026-04-12T13:57:07.837Z</time></trkpt><trkpt lat="53.87985068014589" lon="14.519524190694673"><ele>14.0</ele><time>2026-04-12T13:57:08.837Z</time></trkpt><trkpt lat="53.87981538583173" lon="14.51977110370114"><ele>14.0</ele><time>2026-04-12T13:57:09.837Z</time></trkpt><trkpt lat="53.87976119550612" lon="14.520020356548251"><ele>14.0</ele><time>2026-04-12T13:57:10.837Z</time></trkpt><trkpt lat="53.87972225061257" lon="14.520274853536064"><ele>14.0</ele><time>2026-04-12T13:57:11.837Z</time></trkpt><trkpt lat="53.87967402399486" lon="14.520541844203052"><ele>14.25</ele><time>2026-04-12T13:57:12.837Z</time></trkpt><trkpt lat="53.87962545877005" lon="14.520785648374297"><ele>14.5</ele><time>2026-04-12T13:57:13.837Z</time></trkpt><trkpt lat="53.87957634855767" lon="14.521009260775743"><ele>14.75</ele><time>2026-04-12T13:57:14.837Z</time></trkpt><trkpt lat="53.87952869723337" lon="14.521211648681547"><ele>15.0</ele><time>2026-04-12T13:57:15.837Z</time></trkpt><trkpt lat="53.879480820567835" lon="14.521402504340568"><ele>15.0</ele><time>2026-04-12T13:57:16.837Z</time></trkpt><trkpt lat="53.87943212329047" lon="14.521587219283376"><ele>15.0</ele><time>2026-04-12T13:57:17.837Z</time></trkpt><trkpt lat="53.879387264735925" lon="14.521753755787211"><ele>15.0</ele><time>2026-04-12T13:57:18.837Z</time></trkpt><trkpt lat="53.87933839888219" lon="14.521902064667561"><ele>15.0</ele><time>2026-04-12T13:57:19.837Z</time></trkpt><trkpt lat="53.87928142623854" lon="14.522023426438498"><ele>15.0</ele><time>2026-04-12T13:57:20.837Z</time></trkpt><trkpt lat="53.87917859369285" lon="14.522071301293419"><ele>15.142857142857142</ele><time>2026-04-12T13:57:21.837Z</time></trkpt><trkpt lat="53.87914160727448" lon="14.5221765406941"><ele>15.285714285714285</ele><time>2026-04-12T13:57:22.837Z</time></trkpt><trkpt lat="53.879087881696506" lon="14.522277634979005"><ele>15.428571428571427</ele><time>2026-04-12T13:57:23.837Z</time></trkpt><trkpt lat="53.879071539464796" lon="14.52239128076928"><ele>15.571428571428571</ele><time>2026-04-12T13:57:24.837Z</time></trkpt><trkpt lat="53.879094142560234" lon="14.522505733015574"><ele>15.714285714285712</ele><time>2026-04-12T13:57:25.837Z</time></trkpt><trkpt lat="53.87914044152757" lon="14.522587722463772"><ele>15.857142857142856</ele><time>2026-04-12T13:57:26.837Z</time></trkpt><trkpt lat="53.879224351958655" lon="14.522629349647948"><ele>16.0</ele><time>2026-04-12T13:57:27.837Z</time></trkpt><trkpt lat="53.87933323385722" lon="14.522647475748352"><ele>16.0</ele><time>2026-04-12T13:57:28.837Z</time></trkpt><trkpt lat="53.87946684602984" lon="14.522722211501947"><ele>16.0</ele><time>2026-04-12T13:57:29.837Z</time></trkpt><trkpt lat="53.8795806366379" lon="14.522851197149201"><ele>16.0</ele><time>2026-04-12T13:57:30.837Z</time></trkpt><trkpt lat="53.87970094872718" lon="14.523002545216867"><ele>16.0</ele><time>2026-04-12T13:57:31.837Z</time></trkpt><trkpt lat="53.87984458519941" lon="14.523168486984229"><ele>16.666666666666664</ele><time>2026-04-12T13:57:32.837Z</time></trkpt><trkpt lat="53.879981708762166" lon="14.523309664221113"><ele>17.333333333333332</ele><time>2026-04-12T13:57:33.837Z</time></trkpt><trkpt lat="53.8801234553452" lon="14.523458634450012"><ele>18.0</ele><time>2026-04-12T13:57:34.837Z</time></trkpt><trkpt lat="53.88027396020891" lon="14.523615168351537"><ele>18.0</ele><time>2026-04-12T13:57:35.837Z</time></trkpt><trkpt lat="53.880425248659435" lon="14.523776086278886"><ele>18.0</ele><time>2026-04-12T13:57:36.837Z</time></trkpt><trkpt lat="53.88058436194251" lon="14.523947733757407"><ele>18.0</ele><time>2026-04-12T13:57:37.837Z</time></trkpt><trkpt lat="53.88074776880446" lon="14.524123157872491"><ele>18.0</ele><time>2026-04-12T13:57:38.837Z</time></trkpt><trkpt lat="53.88091066536298" lon="14.524314634273566"><ele>18.0</ele><time>2026-04-12T13:57:39.837Z</time></trkpt><trkpt lat="53.881062753407996" lon="14.524520253636428"><ele>18.0</ele><time>2026-04-12T13:57:40.837Z</time></trkpt><trkpt lat="53.88118155103512" lon="14.524751874649631"><ele>18.0</ele><time>2026-04-12T13:57:41.837Z</time></trkpt><trkpt lat="53.88128631091552" lon="14.525004184177977"><ele>18.0</ele><time>2026-04-12T13:57:42.837Z</time></trkpt><trkpt lat="53.88137040555379" lon="14.52528572003852"><ele>18.0</ele><time>2026-04-12T13:57:43.837Z</time></trkpt><trkpt lat="53.88143279794902" lon="14.525585350011323"><ele>18.0</ele><time>2026-04-12T13:57:44.836Z</time></trkpt><trkpt lat="53.88147072354007" lon="14.525906349988002"><ele>18.0</ele><time>2026-04-12T13:57:45.836Z</time></trkpt><trkpt lat="53.8814799211817" lon="14.526237017340936"><ele>18.0</ele><time>2026-04-12T13:57:46.836Z</time></trkpt><trkpt lat="53.88146269279509" lon="14.52655940336804"><ele>18.0</ele><time>2026-04-12T13:57:47.836Z</time></trkpt><trkpt lat="53.8814186496911" lon="14.526882377436477"><ele>18.0</ele><time>2026-04-12T13:57:48.837Z</time></trkpt><trkpt lat="53.881363685198" lon="14.527208441093663"><ele>18.0</ele><time>2026-04-12T13:57:49.837Z</time></trkpt><trkpt lat="53.88123152611055" lon="14.527500604777552"><ele>17.333333333333332</ele><time>2026-04-12T13:57:50.836Z</time></trkpt><trkpt lat="53.88109821609777" lon="14.527793645086058"><ele>16.666666666666664</ele><time>2026-04-12T13:57:51.836Z</time></trkpt><trkpt lat="53.88095669430838" lon="14.528089118746369"><ele>16.0</ele><time>2026-04-12T13:57:52.836Z</time></trkpt><trkpt lat="53.88080816329637" lon="14.528419788657795"><ele>13.5</ele><time>2026-04-12T13:57:53.836Z</time></trkpt><trkpt lat="53.88064808373126" lon="14.528778953360746"><ele>11.0</ele><time>2026-04-12T13:57:54.836Z</time></trkpt><trkpt lat="53.880488197794" lon="14.52912380631751"><ele>11.0</ele><time>2026-04-12T13:57:55.836Z</time></trkpt><trkpt lat="53.88032397577033" lon="14.529464887830919"><ele>11.0</ele><time>2026-04-12T13:57:56.836Z</time></trkpt><trkpt lat="53.8801527554126" lon="14.529807717863887"><ele>8.5</ele><time>2026-04-12T13:57:57.836Z</time></trkpt><trkpt lat="53.87997368734852" lon="14.530146434247614"><ele>6.0</ele><time>2026-04-12T13:57:58.836Z</time></trkpt><trkpt lat="53.87979192335706" lon="14.53047609850072"><ele>5.5</ele><time>2026-04-12T13:57:59.836Z</time></trkpt><trkpt lat="53.87961056830677" lon="14.530799579767308"><ele>5.0</ele><time>2026-04-12T13:58:00.836Z</time></trkpt><trkpt lat="53.87942916347645" lon="14.531116985076219"><ele>3.5</ele><time>2026-04-12T13:58:01.836Z</time></trkpt><trkpt lat="53.8792455285046" lon="14.531434115853642"><ele>2.0</ele><time>2026-04-12T13:58:02.836Z</time></trkpt><trkpt lat="53.87906177984174" lon="14.531745214644825"><ele>2.0</ele><time>2026-04-12T13:58:03.836Z</time></trkpt><trkpt lat="53.8788724983422" lon="14.532052703167626"><ele>2.0</ele><time>2026-04-12T13:58:04.836Z</time></trkpt><trkpt lat="53.8786853134025" lon="14.532344895369325"><ele>2.0</ele><time>2026-04-12T13:58:05.836Z</time></trkpt><trkpt lat="53.87850298612099" lon="14.532610983299085"><ele>2.0</ele><time>2026-04-12T13:58:06.836Z</time></trkpt><trkpt lat="53.87832360613241" lon="14.532881579854394"><ele>1.5</ele><time>2026-04-12T13:58:07.836Z</time></trkpt><trkpt lat="53.878139474921895" lon="14.533153048316326"><ele>1.0</ele><time>2026-04-12T13:58:08.836Z</time></trkpt><trkpt lat="53.87794709384536" lon="14.533420967056523"><ele>1.0</ele><time>2026-04-12T13:58:09.836Z</time></trkpt><trkpt lat="53.877749067107054" lon="14.533690976358042"><ele>1.0</ele><time>2026-04-12T13:58:10.836Z</time></trkpt><trkpt lat="53.877551957848894" lon="14.533958564184713"><ele>1.0</ele><time>2026-04-12T13:58:11.836Z</time></trkpt><trkpt lat="53.877349461490006" lon="14.534225189148625"><ele>1.0</ele><time>2026-04-12T13:58:12.836Z</time></trkpt><trkpt lat="53.87714652856449" lon="14.534483196606173"><ele>0.5</ele><time>2026-04-12T13:58:13.836Z</time></trkpt><trkpt lat="53.87694054239995" lon="14.534741814081592"><ele>0.0</ele><time>2026-04-12T13:58:14.836Z</time></trkpt><trkpt lat="53.87673337941436" lon="14.534993332740871"><ele>-0.5</ele><time>2026-04-12T13:58:15.836Z</time></trkpt><trkpt lat="53.876525004033155" lon="14.53523960912555"><ele>-1.0</ele><time>2026-04-12T13:58:16.836Z</time></trkpt><trkpt lat="53.87631778304486" lon="14.53548051799065"><ele>-1.0</ele><time>2026-04-12T13:58:17.836Z</time></trkpt><trkpt lat="53.87611230962957" lon="14.53571610166092"><ele>-1.0</ele><time>2026-04-12T13:58:18.836Z</time></trkpt><trkpt lat="53.87590881740928" lon="14.535935561928223"><ele>-1.0</ele><time>2026-04-12T13:58:19.836Z</time></trkpt><trkpt lat="53.875697004866524" lon="14.536159349080592"><ele>-1.0</ele><time>2026-04-12T13:58:20.836Z</time></trkpt><trkpt lat="53.87548545115654" lon="14.536384593298003"><ele>-1.0</ele><time>2026-04-12T13:58:21.836Z</time></trkpt><trkpt lat="53.87527175133032" lon="14.536608628493097"><ele>-1.0</ele><time>2026-04-12T13:58:22.836Z</time></trkpt><trkpt lat="53.87505420225935" lon="14.536835055260388"><ele>-1.0</ele><time>2026-04-12T13:58:23.836Z</time></trkpt><trkpt lat="53.87483430784234" lon="14.537060597777275"><ele>-1.0</ele><time>2026-04-12T13:58:24.836Z</time></trkpt><trkpt lat="53.874618792683606" lon="14.537273362871629"><ele>-1.0</ele><time>2026-04-12T13:58:25.836Z</time></trkpt><trkpt lat="53.874403577314574" lon="14.537494106270207"><ele>-1.0</ele><time>2026-04-12T13:58:26.836Z</time></trkpt><trkpt lat="53.87418814232084" lon="14.537706169422572"><ele>-1.0</ele><time>2026-04-12T13:58:27.836Z</time></trkpt><trkpt lat="53.873973969806904" lon="14.5379161361608"><ele>-1.0</ele><time>2026-04-12T13:58:28.836Z</time></trkpt><trkpt lat="53.87375665428082" lon="14.538127681834677"><ele>-1.0</ele><time>2026-04-12T13:58:29.836Z</time></trkpt><trkpt lat="53.87354344380374" lon="14.538339519181637"><ele>-1.0</ele><time>2026-04-12T13:58:30.836Z</time></trkpt><trkpt lat="53.87332685639193" lon="14.538552611726354"><ele>-1.5</ele><time>2026-04-12T13:58:31.836Z</time></trkpt><trkpt lat="53.87311613026916" lon="14.538761126966536"><ele>-2.0</ele><time>2026-04-12T13:58:32.836Z</time></trkpt><trkpt lat="53.872908667936734" lon="14.53896556296634"><ele>-2.0</ele><time>2026-04-12T13:58:33.836Z</time></trkpt><trkpt lat="53.87269995197613" lon="14.539168964875028"><ele>-2.0</ele><time>2026-04-12T13:58:34.836Z</time></trkpt><trkpt lat="53.87249587945777" lon="14.539372181430753"><ele>-0.5</ele><time>2026-04-12T13:58:35.836Z</time></trkpt><trkpt lat="53.8722902306626" lon="14.53957633407432"><ele>1.0</ele><time>2026-04-12T13:58:36.836Z</time></trkpt><trkpt lat="53.872088763596764" lon="14.539784655554405"><ele>1.0</ele><time>2026-04-12T13:58:37.836Z</time></trkpt><trkpt lat="53.87188556330229" lon="14.540000171715507"><ele>1.0</ele><time>2026-04-12T13:58:38.836Z</time></trkpt><trkpt lat="53.871678038625475" lon="14.540219726597819"><ele>3.0</ele><time>2026-04-12T13:58:39.836Z</time></trkpt><trkpt lat="53.87146940162549" lon="14.540450960864485"><ele>5.0</ele><time>2026-04-12T13:58:40.836Z</time></trkpt><trkpt lat="53.87126282891451" lon="14.540686526713806"><ele>5.0</ele><time>2026-04-12T13:58:41.836Z</time></trkpt><trkpt lat="53.87105752847087" lon="14.540932183285651"><ele>5.0</ele><time>2026-04-12T13:58:42.836Z</time></trkpt><trkpt lat="53.87085191517327" lon="14.541182340108506"><ele>6.0</ele><time>2026-04-12T13:58:43.836Z</time></trkpt><trkpt lat="53.87064772705618" lon="14.541442346951607"><ele>7.0</ele><time>2026-04-12T13:58:44.836Z</time></trkpt><trkpt lat="53.870442882677715" lon="14.541711595458564"><ele>7.0</ele><time>2026-04-12T13:58:45.836Z</time></trkpt><trkpt lat="53.87024609348491" lon="14.541980727640519"><ele>7.0</ele><time>2026-04-12T13:58:46.836Z</time></trkpt><trkpt lat="53.87004974304599" lon="14.542253275803455"><ele>12.0</ele><time>2026-04-12T13:58:47.836Z</time></trkpt><trkpt lat="53.8698607917868" lon="14.54252796433663"><ele>17.0</ele><time>2026-04-12T13:58:48.836Z</time></trkpt><trkpt lat="53.86967661820814" lon="14.542803730815967"><ele>19.5</ele><time>2026-04-12T13:58:49.836Z</time></trkpt><trkpt lat="53.869490254935" lon="14.543084483273345"><ele>22.0</ele><time>2026-04-12T13:58:50.836Z</time></trkpt><trkpt lat="53.86930859195509" lon="14.543367862063143"><ele>24.0</ele><time>2026-04-12T13:58:51.836Z</time></trkpt><trkpt lat="53.86913145233919" lon="14.543658383646944"><ele>26.0</ele><time>2026-04-12T13:58:52.836Z</time></trkpt><trkpt lat="53.868959256485304" lon="14.543957315061679"><ele>26.0</ele><time>2026-04-12T13:58:53.836Z</time></trkpt><trkpt lat="53.8687863003568" lon="14.544256615198062"><ele>26.0</ele><time>2026-04-12T13:58:54.836Z</time></trkpt><trkpt lat="53.86861765170237" lon="14.544558506696164"><ele>24.5</ele><time>2026-04-12T13:58:55.836Z</time></trkpt><trkpt lat="53.868443198252685" lon="14.544873616027"><ele>23.0</ele><time>2026-04-12T13:58:56.836Z</time></trkpt><trkpt lat="53.86827210280524" lon="14.545186199603634"><ele>22.5</ele><time>2026-04-12T13:58:57.835Z</time></trkpt><trkpt lat="53.868099465948205" lon="14.545497878798379"><ele>22.0</ele><time>2026-04-12T13:58:58.835Z</time></trkpt><trkpt lat="53.86792817806887" lon="14.545815004645874"><ele>22.0</ele><time>2026-04-12T13:58:59.835Z</time></trkpt><trkpt lat="53.86776173419249" lon="14.546129626454713"><ele>22.0</ele><time>2026-04-12T13:59:00.835Z</time></trkpt><trkpt lat="53.86759284799715" lon="14.546446589694638"><ele>22.0</ele><time>2026-04-12T13:59:01.835Z</time></trkpt><trkpt lat="53.86741979810854" lon="14.546770158064879"><ele>22.0</ele><time>2026-04-12T13:59:02.835Z</time></trkpt><trkpt lat="53.86724777430683" lon="14.547089523333234"><ele>22.0</ele><time>2026-04-12T13:59:03.835Z</time></trkpt><trkpt lat="53.86707484420504" lon="14.547411161523254"><ele>22.0</ele><time>2026-04-12T13:59:04.835Z</time></trkpt><trkpt lat="53.86689915163557" lon="14.547740944333551"><ele>22.0</ele><time>2026-04-12T13:59:05.835Z</time></trkpt><trkpt lat="53.86672472591871" lon="14.5480660197648"><ele>22.0</ele><time>2026-04-12T13:59:06.835Z</time></trkpt><trkpt lat="53.86655252581721" lon="14.54838663760032"><ele>22.5</ele><time>2026-04-12T13:59:07.835Z</time></trkpt><trkpt lat="53.86637784239701" lon="14.548709948579305"><ele>23.0</ele><time>2026-04-12T13:59:08.835Z</time></trkpt><trkpt lat="53.866203414933025" lon="14.54903591293466"><ele>23.0</ele><time>2026-04-12T13:59:09.835Z</time></trkpt><trkpt lat="53.86602998122239" lon="14.549361427124973"><ele>23.0</ele><time>2026-04-12T13:59:10.835Z</time></trkpt><trkpt lat="53.86585593541328" lon="14.549684981790733"><ele>24.0</ele><time>2026-04-12T13:59:11.835Z</time></trkpt><trkpt lat="53.865681093823575" lon="14.55001228693849"><ele>25.0</ele><time>2026-04-12T13:59:12.835Z</time></trkpt><trkpt lat="53.865506581874556" lon="14.550338218819423"><ele>25.5</ele><time>2026-04-12T13:59:13.835Z</time></trkpt><trkpt lat="53.86532929379599" lon="14.550669737528702"><ele>26.0</ele><time>2026-04-12T13:59:14.835Z</time></trkpt><trkpt lat="53.865147346954785" lon="14.551007018920975"><ele>26.0</ele><time>2026-04-12T13:59:15.835Z</time></trkpt><trkpt lat="53.8649709562141" lon="14.551332646757507"><ele>26.0</ele><time>2026-04-12T13:59:16.835Z</time></trkpt><trkpt lat="53.8647935775382" lon="14.551655977127801"><ele>26.0</ele><time>2026-04-12T13:59:17.835Z</time></trkpt><trkpt lat="53.86462008839042" lon="14.551976338623865"><ele>26.0</ele><time>2026-04-12T13:59:18.835Z</time></trkpt><trkpt lat="53.864449405631795" lon="14.552292141479723"><ele>25.5</ele><time>2026-04-12T13:59:19.835Z</time></trkpt><trkpt lat="53.864275165140725" lon="14.55261777416265"><ele>25.0</ele><time>2026-04-12T13:59:20.835Z</time></trkpt><trkpt lat="53.8641001296369" lon="14.552945078630762"><ele>25.0</ele><time>2026-04-12T13:59:21.835Z</time></trkpt><trkpt lat="53.863924371803954" lon="14.553278678119376"><ele>25.0</ele><time>2026-04-12T13:59:22.835Z</time></trkpt><trkpt lat="53.863753965723454" lon="14.553607760319142"><ele>25.5</ele><time>2026-04-12T13:59:23.835Z</time></trkpt><trkpt lat="53.863582727845476" lon="14.55393950308607"><ele>26.0</ele><time>2026-04-12T13:59:24.835Z</time></trkpt><trkpt lat="53.86341466620737" lon="14.554263714419877"><ele>24.5</ele><time>2026-04-12T13:59:25.835Z</time></trkpt><trkpt lat="53.863249618424334" lon="14.55459259675084"><ele>23.0</ele><time>2026-04-12T13:59:26.835Z</time></trkpt><trkpt lat="53.86308902741038" lon="14.554918155497441"><ele>23.0</ele><time>2026-04-12T13:59:27.835Z</time></trkpt><trkpt lat="53.86293219603145" lon="14.555256820724676"><ele>23.0</ele><time>2026-04-12T13:59:28.835Z</time></trkpt><trkpt lat="53.862776452181066" lon="14.55559493678396"><ele>23.0</ele><time>2026-04-12T13:59:29.835Z</time></trkpt><trkpt lat="53.86262118522761" lon="14.555936383765365"><ele>23.0</ele><time>2026-04-12T13:59:30.835Z</time></trkpt><trkpt lat="53.862469860166364" lon="14.556278920992634"><ele>23.0</ele><time>2026-04-12T13:59:31.835Z</time></trkpt><trkpt lat="53.86231701026217" lon="14.556623383315705"><ele>23.0</ele><time>2026-04-12T13:59:32.835Z</time></trkpt><trkpt lat="53.86216860632156" lon="14.55696975649982"><ele>25.5</ele><time>2026-04-12T13:59:33.835Z</time></trkpt><trkpt lat="53.862027478664935" lon="14.557316310795152"><ele>28.0</ele><time>2026-04-12T13:59:34.835Z</time></trkpt><trkpt lat="53.8618877100456" lon="14.557667483522184"><ele>27.5</ele><time>2026-04-12T13:59:35.835Z</time></trkpt><trkpt lat="53.861747035682825" lon="14.558023101223288"><ele>27.0</ele><time>2026-04-12T13:59:36.835Z</time></trkpt><trkpt lat="53.861611826233954" lon="14.558376830029289"><ele>29.5</ele><time>2026-04-12T13:59:37.835Z</time></trkpt><trkpt lat="53.861477344604204" lon="14.558742334305661"><ele>32.0</ele><time>2026-04-12T13:59:38.835Z</time></trkpt><trkpt lat="53.86133978792479" lon="14.559116273579743"><ele>32.0</ele><time>2026-04-12T13:59:39.835Z</time></trkpt><trkpt lat="53.861206902544275" lon="14.559483430596735"><ele>32.0</ele><time>2026-04-12T13:59:40.835Z</time></trkpt><trkpt lat="53.86107581057708" lon="14.559858471314024"><ele>28.5</ele><time>2026-04-12T13:59:41.835Z</time></trkpt><trkpt lat="53.8609446251004" lon="14.560231614795795"><ele>25.0</ele><time>2026-04-12T13:59:42.835Z</time></trkpt><trkpt lat="53.86081699260387" lon="14.56060385024507"><ele>25.0</ele><time>2026-04-12T13:59:43.835Z</time></trkpt><trkpt lat="53.860693971655856" lon="14.560992983893563"><ele>25.0</ele><time>2026-04-12T13:59:44.835Z</time></trkpt><trkpt lat="53.8605814954727" lon="14.561376572515666"><ele>26.0</ele><time>2026-04-12T13:59:45.835Z</time></trkpt><trkpt lat="53.86046394720116" lon="14.561760155863942"><ele>27.0</ele><time>2026-04-12T13:59:46.835Z</time></trkpt><trkpt lat="53.86034931378846" lon="14.562138010018465"><ele>27.0</ele><time>2026-04-12T13:59:47.835Z</time></trkpt><trkpt lat="53.86023731499559" lon="14.562519688106423"><ele>27.0</ele><time>2026-04-12T13:59:48.835Z</time></trkpt><trkpt lat="53.86012883036803" lon="14.562899516305539"><ele>25.0</ele><time>2026-04-12T13:59:49.835Z</time></trkpt><trkpt lat="53.860026725378894" lon="14.56327857791914"><ele>23.0</ele><time>2026-04-12T13:59:50.835Z</time></trkpt><trkpt lat="53.8599278039966" lon="14.56366068028202"><ele>24.0</ele><time>2026-04-12T13:59:51.834Z</time></trkpt><trkpt lat="53.85983185060884" lon="14.564038380149055"><ele>25.0</ele><time>2026-04-12T13:59:52.834Z</time></trkpt><trkpt lat="53.85973800316105" lon="14.564421592790834"><ele>26.0</ele><time>2026-04-12T13:59:53.835Z</time></trkpt><trkpt lat="53.85964514291833" lon="14.564810595320134"><ele>27.0</ele><time>2026-04-12T13:59:54.835Z</time></trkpt><trkpt lat="53.859553508233276" lon="14.565206749467203"><ele>28.0</ele><time>2026-04-12T13:59:55.835Z</time></trkpt><trkpt lat="53.85946454512795" lon="14.56560173005237"><ele>29.0</ele><time>2026-04-12T13:59:56.834Z</time></trkpt><trkpt lat="53.85937611049035" lon="14.565995927626798"><ele>29.0</ele><time>2026-04-12T13:59:57.834Z</time></trkpt><trkpt lat="53.8592900785296" lon="14.566389349858524"><ele>29.0</ele><time>2026-04-12T13:59:58.834Z</time></trkpt><trkpt lat="53.859206984856066" lon="14.566783492007831"><ele>26.0</ele><time>2026-04-12T13:59:59.834Z</time></trkpt><trkpt lat="53.85912630165888" lon="14.567176114911895"><ele>23.0</ele><time>2026-04-12T14:00:00.835Z</time></trkpt><trkpt lat="53.85904570946582" lon="14.567564738721357"><ele>22.0</ele><time>2026-04-12T14:00:01.835Z</time></trkpt><trkpt lat="53.85896478969354" lon="14.567955326749033"><ele>21.0</ele><time>2026-04-12T14:00:02.834Z</time></trkpt><trkpt lat="53.85888790607012" lon="14.568347327892813"><ele>20.5</ele><time>2026-04-12T14:00:03.834Z</time></trkpt><trkpt lat="53.85880720307033" lon="14.568745079490247"><ele>20.0</ele><time>2026-04-12T14:00:04.834Z</time></trkpt><trkpt lat="53.85872520138357" lon="14.56914527609521"><ele>19.0</ele><time>2026-04-12T14:00:05.834Z</time></trkpt><trkpt lat="53.85864251949328" lon="14.569547384135566"><ele>18.0</ele><time>2026-04-12T14:00:06.834Z</time></trkpt><trkpt lat="53.85855900806256" lon="14.56995284877251"><ele>18.0</ele><time>2026-04-12T14:00:07.834Z</time></trkpt><trkpt lat="53.85847447527414" lon="14.570351878136615"><ele>18.0</ele><time>2026-04-12T14:00:08.834Z</time></trkpt><trkpt lat="53.85838874774296" lon="14.5707447080561"><ele>15.5</ele><time>2026-04-12T14:00:09.834Z</time></trkpt><trkpt lat="53.85830237828255" lon="14.57113588134001"><ele>13.0</ele><time>2026-04-12T14:00:10.834Z</time></trkpt><trkpt lat="53.85821309156318" lon="14.571523196354637"><ele>13.0</ele><time>2026-04-12T14:00:11.834Z</time></trkpt><trkpt lat="53.858123180994845" lon="14.571909981975276"><ele>13.0</ele><time>2026-04-12T14:00:12.834Z</time></trkpt><trkpt lat="53.858031498124475" lon="14.572295747035774"><ele>12.5</ele><time>2026-04-12T14:00:13.834Z</time></trkpt><trkpt lat="53.857937655201354" lon="14.572686831317249"><ele>12.0</ele><time>2026-04-12T14:00:14.834Z</time></trkpt><trkpt lat="53.85784169756361" lon="14.573076715212826"><ele>12.0</ele><time>2026-04-12T14:00:15.834Z</time></trkpt><trkpt lat="53.8577422745833" lon="14.573470984902436"><ele>12.0</ele><time>2026-04-12T14:00:16.834Z</time></trkpt><trkpt lat="53.85764121360796" lon="14.573864294363366"><ele>9.5</ele><time>2026-04-12T14:00:17.834Z</time></trkpt><trkpt lat="53.85753754058772" lon="14.574259161860262"><ele>7.0</ele><time>2026-04-12T14:00:18.834Z</time></trkpt><trkpt lat="53.8574328029886" lon="14.574652916400993"><ele>7.0</ele><time>2026-04-12T14:00:19.834Z</time></trkpt><trkpt lat="53.8573254139486" lon="14.57505052717011"><ele>7.0</ele><time>2026-04-12T14:00:20.834Z</time></trkpt><trkpt lat="53.85721759959387" lon="14.57544658261986"><ele>8.0</ele><time>2026-04-12T14:00:21.834Z</time></trkpt><trkpt lat="53.8571041699521" lon="14.575837734165543"><ele>9.0</ele><time>2026-04-12T14:00:22.834Z</time></trkpt><trkpt lat="53.856993363829915" lon="14.57622407176121"><ele>9.5</ele><time>2026-04-12T14:00:23.834Z</time></trkpt><trkpt lat="53.856880838153685" lon="14.576608220401928"><ele>10.0</ele><time>2026-04-12T14:00:24.834Z</time></trkpt><trkpt lat="53.856768576216105" lon="14.576990927297151"><ele>6.5</ele><time>2026-04-12T14:00:25.834Z</time></trkpt><trkpt lat="53.856652897850665" lon="14.577373392346328"><ele>3.0</ele><time>2026-04-12T14:00:26.834Z</time></trkpt><trkpt lat="53.85653610245056" lon="14.577754260043339"><ele>3.5</ele><time>2026-04-12T14:00:27.834Z</time></trkpt><trkpt lat="53.856417027336065" lon="14.578136804845544"><ele>4.0</ele><time>2026-04-12T14:00:28.834Z</time></trkpt><trkpt lat="53.8562967017884" lon="14.578518932906764"><ele>7.0</ele><time>2026-04-12T14:00:29.834Z</time></trkpt><trkpt lat="53.85617530397995" lon="14.578904665447139"><ele>10.0</ele><time>2026-04-12T14:00:30.834Z</time></trkpt><trkpt lat="53.8560522742655" lon="14.579290820646207"><ele>8.0</ele><time>2026-04-12T14:00:31.834Z</time></trkpt><trkpt lat="53.855929212866805" lon="14.579675614358193"><ele>6.0</ele><time>2026-04-12T14:00:32.834Z</time></trkpt><trkpt lat="53.85580871264114" lon="14.580052313667618"><ele>6.5</ele><time>2026-04-12T14:00:33.834Z</time></trkpt><trkpt lat="53.85569027773314" lon="14.580428203247966"><ele>7.0</ele><time>2026-04-12T14:00:34.834Z</time></trkpt><trkpt lat="53.8555738157748" lon="14.58079916719836"><ele>7.0</ele><time>2026-04-12T14:00:35.834Z</time></trkpt><trkpt lat="53.85545663696106" lon="14.581170558444585"><ele>7.0</ele><time>2026-04-12T14:00:36.834Z</time></trkpt><trkpt lat="53.855339711489904" lon="14.581542962638908"><ele>6.5</ele><time>2026-04-12T14:00:37.834Z</time></trkpt><trkpt lat="53.85522166564912" lon="14.581922711057347"><ele>6.0</ele><time>2026-04-12T14:00:38.834Z</time></trkpt><trkpt lat="53.85510536300796" lon="14.582299939480139"><ele>3.0</ele><time>2026-04-12T14:00:39.834Z</time></trkpt><trkpt lat="53.85498754390957" lon="14.582669873962082"><ele>0.0</ele><time>2026-04-12T14:00:40.834Z</time></trkpt><trkpt lat="53.85487193102205" lon="14.58303769744415"><ele>0.0</ele><time>2026-04-12T14:00:41.834Z</time></trkpt><trkpt lat="53.854754692918135" lon="14.5834106252661"><ele>0.0</ele><time>2026-04-12T14:00:42.834Z</time></trkpt><trkpt lat="53.85463857944823" lon="14.58377646744231"><ele>0.0</ele><time>2026-04-12T14:00:43.834Z</time></trkpt><trkpt lat="53.85452120625058" lon="14.584147089190179"><ele>0.0</ele><time>2026-04-12T14:00:44.834Z</time></trkpt><trkpt lat="53.85440418200768" lon="14.584513190249812"><ele>0.0</ele><time>2026-04-12T14:00:45.834Z</time></trkpt><trkpt lat="53.85428832166809" lon="14.584886681539484"><ele>0.0</ele><time>2026-04-12T14:00:46.834Z</time></trkpt><trkpt lat="53.85417128107935" lon="14.585256523909402"><ele>0.5</ele><time>2026-04-12T14:00:47.834Z</time></trkpt><trkpt lat="53.85405332091501" lon="14.58562708318247"><ele>1.0</ele><time>2026-04-12T14:00:48.834Z</time></trkpt><trkpt lat="53.8539375233632" lon="14.585996174245388"><ele>0.0</ele><time>2026-04-12T14:00:49.834Z</time></trkpt><trkpt lat="53.85382114573562" lon="14.586362195629238"><ele>-1.0</ele><time>2026-04-12T14:00:50.834Z</time></trkpt><trkpt lat="53.85370752972784" lon="14.586724105698021"><ele>-1.0</ele><time>2026-04-12T14:00:51.834Z</time></trkpt><trkpt lat="53.85359271041152" lon="14.587086119334296"><ele>-1.0</ele><time>2026-04-12T14:00:52.834Z</time></trkpt><trkpt lat="53.853479731219764" lon="14.587447346720912"><ele>0.5</ele><time>2026-04-12T14:00:53.834Z</time></trkpt><trkpt lat="53.85336547091326" lon="14.587805091423693"><ele>2.0</ele><time>2026-04-12T14:00:54.834Z</time></trkpt><trkpt lat="53.853252318539575" lon="14.588154401445353"><ele>2.0</ele><time>2026-04-12T14:00:55.834Z</time></trkpt><trkpt lat="53.853142131023816" lon="14.58849212353741"><ele>2.0</ele><time>2026-04-12T14:00:56.834Z</time></trkpt><trkpt lat="53.85303597727283" lon="14.588808148771218"><ele>2.0</ele><time>2026-04-12T14:00:57.834Z</time></trkpt><trkpt lat="53.852930291274035" lon="14.58911810795115"><ele>2.333333333333333</ele><time>2026-04-12T14:00:58.834Z</time></trkpt><trkpt lat="53.85282896056289" lon="14.589418232195877"><ele>2.6666666666666665</ele><time>2026-04-12T14:00:59.834Z</time></trkpt><trkpt lat="53.852722204100466" lon="14.589724766392877"><ele>3.0</ele><time>2026-04-12T14:01:00.834Z</time></trkpt><trkpt lat="53.85261948561482" lon="14.59004220469577"><ele>2.3333333333333335</ele><time>2026-04-12T14:01:01.834Z</time></trkpt><trkpt lat="53.85251751149607" lon="14.59036881409575"><ele>1.6666666666666665</ele><time>2026-04-12T14:01:02.834Z</time></trkpt><trkpt lat="53.85242067486585" lon="14.590686810921923"><ele>1.0</ele><time>2026-04-12T14:01:03.834Z</time></trkpt><trkpt lat="53.85232895918226" lon="14.590974612688417"><ele>0.0</ele><time>2026-04-12T14:01:04.834Z</time></trkpt><trkpt lat="53.8522469275225" lon="14.591240459527844"><ele>-1.0</ele><time>2026-04-12T14:01:05.834Z</time></trkpt><trkpt lat="53.85216571025718" lon="14.591492468720146"><ele>-2.0</ele><time>2026-04-12T14:01:06.834Z</time></trkpt><trkpt lat="53.85208987789894" lon="14.591734404885347"><ele>-2.0</ele><time>2026-04-12T14:01:07.834Z</time></trkpt><trkpt lat="53.85201128969413" lon="14.591972516477009"><ele>-2.0</ele><time>2026-04-12T14:01:08.834Z</time></trkpt><trkpt lat="53.8519283130856" lon="14.592231085689765"><ele>-2.0</ele><time>2026-04-12T14:01:09.834Z</time></trkpt><trkpt lat="53.851842206238246" lon="14.592469178817016"><ele>-1.6666666666666665</ele><time>2026-04-12T14:01:10.834Z</time></trkpt><trkpt lat="53.85173378400238" lon="14.5926881032183"><ele>-1.3333333333333333</ele><time>2026-04-12T14:01:11.834Z</time></trkpt><trkpt lat="53.85160874785116" lon="14.592902079579568"><ele>-1.0</ele><time>2026-04-12T14:01:12.834Z</time></trkpt><trkpt lat="53.85147802290006" lon="14.59309891207796"><ele>-1.0</ele><time>2026-04-12T14:01:13.834Z</time></trkpt><trkpt lat="53.851350686570825" lon="14.593254876066336"><ele>-1.0</ele><time>2026-04-12T14:01:14.834Z</time></trkpt><trkpt lat="53.85122760188692" lon="14.593408579642203"><ele>-1.0</ele><time>2026-04-12T14:01:15.834Z</time></trkpt><trkpt lat="53.8511149316968" lon="14.593547191191718"><ele>-1.0</ele><time>2026-04-12T14:01:16.834Z</time></trkpt><trkpt lat="53.851010072965636" lon="14.593675702531025"><ele>-0.6000000000000001</ele><time>2026-04-12T14:01:17.834Z</time></trkpt><trkpt lat="53.85091045294287" lon="14.5937947160176"><ele>-0.20000000000000007</ele><time>2026-04-12T14:01:18.834Z</time></trkpt><trkpt lat="53.850817863994486" lon="14.593904918946611"><ele>0.20000000000000007</ele><time>2026-04-12T14:01:19.834Z</time></trkpt><trkpt lat="53.85074041414826" lon="14.593997964504124"><ele>0.6000000000000001</ele><time>2026-04-12T14:01:20.834Z</time></trkpt><trkpt lat="53.85066804195967" lon="14.594086749362456"><ele>1.0</ele><time>2026-04-12T14:01:21.834Z</time></trkpt><trkpt lat="53.8506006741138" lon="14.594170430415927"><ele>0.9999999999999999</ele><time>2026-04-12T14:01:22.834Z</time></trkpt><trkpt lat="53.85052684976628" lon="14.59424506581693"><ele>1.0</ele><time>2026-04-12T14:01:23.834Z</time></trkpt><trkpt lat="53.85044771120754" lon="14.59428768654381"><ele>1.0</ele><time>2026-04-12T14:01:24.834Z</time></trkpt><trkpt lat="53.85036310614762" lon="14.594271005101318"><ele>1.0</ele><time>2026-04-12T14:01:25.834Z</time></trkpt><trkpt lat="53.85028525374118" lon="14.594249867852852"><ele>0.9999999999999999</ele><time>2026-04-12T14:01:26.834Z</time></trkpt><trkpt lat="53.85020939721115" lon="14.594279289570386"><ele>1.0</ele><time>2026-04-12T14:01:27.834Z</time></trkpt><trkpt lat="53.850154779439116" lon="14.594362009103095"><ele>0.9999999999999999</ele><time>2026-04-12T14:01:28.834Z</time></trkpt><trkpt lat="53.85009252089042" lon="14.594453750616408"><ele>1.0</ele><time>2026-04-12T14:01:29.834Z</time></trkpt><trkpt lat="53.85007740804687" lon="14.594606236657608"><ele>1.0</ele><time>2026-04-12T14:01:30.834Z</time></trkpt><trkpt lat="53.850023172332826" lon="14.594701676064231"><ele>1.0</ele><time>2026-04-12T14:01:31.834Z</time></trkpt><trkpt lat="53.84996059025245" lon="14.594813281500091"><ele>0.9999999999999999</ele><time>2026-04-12T14:01:32.834Z</time></trkpt><trkpt lat="53.84988689785233" lon="14.594921588493003"><ele>1.0</ele><time>2026-04-12T14:01:33.834Z</time></trkpt><trkpt lat="53.849761626658385" lon="14.594973216855214"><ele>1.0</ele><time>2026-04-12T14:01:34.834Z</time></trkpt><trkpt lat="53.84964880771536" lon="14.59508332435089"><ele>1.0</ele><time>2026-04-12T14:01:35.834Z</time></trkpt><trkpt lat="53.84954241497277" lon="14.59520603749125"><ele>1.0</ele><time>2026-04-12T14:01:36.834Z</time></trkpt><trkpt lat="53.84943288451399" lon="14.595362667897623"><ele>1.0</ele><time>2026-04-12T14:01:37.834Z</time></trkpt><trkpt lat="53.84933637579916" lon="14.595528275118575"><ele>1.0</ele><time>2026-04-12T14:01:38.834Z</time></trkpt><trkpt lat="53.849260555719056" lon="14.595717904461761"><ele>1.0</ele><time>2026-04-12T14:01:39.834Z</time></trkpt><trkpt lat="53.84918065498301" lon="14.595883414938367"><ele>1.0</ele><time>2026-04-12T14:01:40.834Z</time></trkpt><trkpt lat="53.84910843851107" lon="14.596045255989637"><ele>1.0</ele><time>2026-04-12T14:01:41.834Z</time></trkpt><trkpt lat="53.84904029319772" lon="14.596220848798646"><ele>0.75</ele><time>2026-04-12T14:01:42.834Z</time></trkpt><trkpt lat="53.848977252784564" lon="14.596410640976185"><ele>0.5</ele><time>2026-04-12T14:01:43.834Z</time></trkpt><trkpt lat="53.84891004632765" lon="14.596616717825945"><ele>0.25</ele><time>2026-04-12T14:01:44.834Z</time></trkpt><trkpt lat="53.848842704360656" lon="14.596829650158357"><ele>0.0</ele><time>2026-04-12T14:01:45.834Z</time></trkpt><trkpt lat="53.848778025017225" lon="14.597042295143426"><ele>-0.3333333333333333</ele><time>2026-04-12T14:01:46.834Z</time></trkpt><trkpt lat="53.84869843435257" lon="14.59728742690861"><ele>-0.6666666666666666</ele><time>2026-04-12T14:01:47.834Z</time></trkpt><trkpt lat="53.84861875343942" lon="14.597548118920896"><ele>-1.0</ele><time>2026-04-12T14:01:48.834Z</time></trkpt><trkpt lat="53.8485488052855" lon="14.597771213935369"><ele>-1.0</ele><time>2026-04-12T14:01:49.834Z</time></trkpt><trkpt lat="53.8484869981893" lon="14.597974110754626"><ele>-1.0</ele><time>2026-04-12T14:01:50.834Z</time></trkpt><trkpt lat="53.84843161221728" lon="14.598161536128664"><ele>-1.0</ele><time>2026-04-12T14:01:51.834Z</time></trkpt><trkpt lat="53.848363641126554" lon="14.598318144989085"><ele>-1.0</ele><time>2026-04-12T14:01:52.834Z</time></trkpt><trkpt lat="53.84832688601643" lon="14.598491316130675"><ele>-0.6000000000000001</ele><time>2026-04-12T14:01:53.834Z</time></trkpt><trkpt lat="53.8482748103685" lon="14.598646760135214"><ele>-0.20000000000000007</ele><time>2026-04-12T14:01:54.834Z</time></trkpt><trkpt lat="53.848218721796755" lon="14.59879867308817"><ele>0.20000000000000007</ele><time>2026-04-12T14:01:55.834Z</time></trkpt><trkpt lat="53.84817105104289" lon="14.598942900268833"><ele>0.6000000000000001</ele><time>2026-04-12T14:01:56.833Z</time></trkpt><trkpt lat="53.8481207962679" lon="14.59910288775432"><ele>1.0</ele><time>2026-04-12T14:01:57.833Z</time></trkpt><trkpt lat="53.84806066254426" lon="14.599293345028638"><ele>1.25</ele><time>2026-04-12T14:01:58.833Z</time></trkpt><trkpt lat="53.84799249833846" lon="14.599513880450644"><ele>1.5</ele><time>2026-04-12T14:01:59.833Z</time></trkpt><trkpt lat="53.84791986322638" lon="14.599739051640592"><ele>1.75</ele><time>2026-04-12T14:02:00.832Z</time></trkpt><trkpt lat="53.847854061827796" lon="14.599942247135377"><ele>2.0</ele><time>2026-04-12T14:02:01.832Z</time></trkpt><trkpt lat="53.847800120904054" lon="14.600124076982667"><ele>2.0</ele><time>2026-04-12T14:02:02.833Z</time></trkpt><trkpt lat="53.84775012974003" lon="14.600278566127653"><ele>2.0</ele><time>2026-04-12T14:02:03.833Z</time></trkpt><trkpt lat="53.847687849879115" lon="14.600390725486788"><ele>2.0</ele><time>2026-04-12T14:02:04.833Z</time></trkpt><trkpt lat="53.84762059817779" lon="14.600625469338784"><ele>2.0</ele><time>2026-04-12T14:02:06.833Z</time></trkpt><trkpt lat="53.84758142572827" lon="14.600758077974545"><ele>2.0</ele><time>2026-04-12T14:02:07.833Z</time></trkpt><trkpt lat="53.84755036228538" lon="14.600904286613542"><ele>2.25</ele><time>2026-04-12T14:02:08.833Z</time></trkpt><trkpt lat="53.84751965512727" lon="14.601056119152773"><ele>2.5</ele><time>2026-04-12T14:02:09.832Z</time></trkpt><trkpt lat="53.84744676509059" lon="14.601358416159723"><ele>2.75</ele><time>2026-04-12T14:02:10.832Z</time></trkpt><trkpt lat="53.84735689291803" lon="14.601504966748859"><ele>3.0</ele><time>2026-04-12T14:02:11.832Z</time></trkpt><trkpt lat="53.847308969798476" lon="14.601583113097298"><ele>3.2</ele><time>2026-04-12T14:02:12.832Z</time></trkpt><trkpt lat="53.84729109837861" lon="14.601688966672366"><ele>3.4</ele><time>2026-04-12T14:02:14.832Z</time></trkpt><trkpt lat="53.847227984037204" lon="14.601861481948811"><ele>3.6000000000000005</ele><time>2026-04-12T14:02:18.832Z</time></trkpt><trkpt lat="53.84718845907349" lon="14.602000550383604"><ele>3.8000000000000003</ele><time>2026-04-12T14:02:19.832Z</time></trkpt><trkpt lat="53.847129476142946" lon="14.602175482988521"><ele>4.0</ele><time>2026-04-12T14:02:20.832Z</time></trkpt><trkpt lat="53.84706994200763" lon="14.60235398464639"><ele>4.2</ele><time>2026-04-12T14:02:21.832Z</time></trkpt><trkpt lat="53.84701266730395" lon="14.602523183725918"><ele>4.4</ele><time>2026-04-12T14:02:22.832Z</time></trkpt><trkpt lat="53.84696900547947" lon="14.602662793962864"><ele>4.6</ele><time>2026-04-12T14:02:23.832Z</time></trkpt><trkpt lat="53.846944585756944" lon="14.602769339240012"><ele>4.8</ele><time>2026-04-12T14:02:24.832Z</time></trkpt><trkpt lat="53.84691298440732" lon="14.60292390666679"><ele>5.0</ele><time>2026-04-12T14:02:25.832Z</time></trkpt><trkpt lat="53.84684594113831" lon="14.603125132114597"><ele>5.0</ele><time>2026-04-12T14:02:26.832Z</time></trkpt><trkpt lat="53.84679080037557" lon="14.603303647289106"><ele>5.0</ele><time>2026-04-12T14:02:27.832Z</time></trkpt><trkpt lat="53.84672705668125" lon="14.60349783775872"><ele>5.0</ele><time>2026-04-12T14:02:28.832Z</time></trkpt><trkpt lat="53.84665007252757" lon="14.603720054096055"><ele>5.0</ele><time>2026-04-12T14:02:29.832Z</time></trkpt><trkpt lat="53.846580723039786" lon="14.603942369232604"><ele>5.0</ele><time>2026-04-12T14:02:30.832Z</time></trkpt><trkpt lat="53.84650826327088" lon="14.604169842696045"><ele>5.0</ele><time>2026-04-12T14:02:31.832Z</time></trkpt><trkpt lat="53.846440345252816" lon="14.60437902506697"><ele>5.0</ele><time>2026-04-12T14:02:32.832Z</time></trkpt><trkpt lat="53.846372428709216" lon="14.604594022442658"><ele>5.0</ele><time>2026-04-12T14:02:33.832Z</time></trkpt><trkpt lat="53.84631537881324" lon="14.604784545246977"><ele>5.25</ele><time>2026-04-12T14:02:34.832Z</time></trkpt><trkpt lat="53.846265509346175" lon="14.604954243547356"><ele>5.5</ele><time>2026-04-12T14:02:35.832Z</time></trkpt><trkpt lat="53.84622215580562" lon="14.605135543758923"><ele>5.75</ele><time>2026-04-12T14:02:36.832Z</time></trkpt><trkpt lat="53.84616628867602" lon="14.605307878453564"><ele>6.0</ele><time>2026-04-12T14:02:37.832Z</time></trkpt><trkpt lat="53.84611441947083" lon="14.605491804329446"><ele>5.75</ele><time>2026-04-12T14:02:38.832Z</time></trkpt><trkpt lat="53.846053528307344" lon="14.605672741764034"><ele>5.5</ele><time>2026-04-12T14:02:39.832Z</time></trkpt><trkpt lat="53.84600066693157" lon="14.60586317464068"><ele>5.25</ele><time>2026-04-12T14:02:40.832Z</time></trkpt><trkpt lat="53.84594025306827" lon="14.60604705422127"><ele>5.0</ele><time>2026-04-12T14:02:41.832Z</time></trkpt><trkpt lat="53.845868991927055" lon="14.606210253384045"><ele>5.0</ele><time>2026-04-12T14:02:42.832Z</time></trkpt><trkpt lat="53.84580905667765" lon="14.606387927992172"><ele>5.0</ele><time>2026-04-12T14:02:43.832Z</time></trkpt><trkpt lat="53.84576384522645" lon="14.60656709619937"><ele>5.0</ele><time>2026-04-12T14:02:44.832Z</time></trkpt><trkpt lat="53.84571902515658" lon="14.606707910564433"><ele>5.0</ele><time>2026-04-12T14:02:45.832Z</time></trkpt><trkpt lat="53.845665108106665" lon="14.606817979389522"><ele>5.0</ele><time>2026-04-12T14:02:46.832Z</time></trkpt><trkpt lat="53.84563067345621" lon="14.606921789640383"><ele>5.0</ele><time>2026-04-12T14:02:47.832Z</time></trkpt><trkpt lat="53.84561008500644" lon="14.607029229418764"><ele>5.0</ele><time>2026-04-12T14:02:48.832Z</time></trkpt><trkpt lat="53.84553177808342" lon="14.6071645094142"><ele>5.0</ele><time>2026-04-12T14:02:50.832Z</time></trkpt><trkpt lat="53.845488306208196" lon="14.60730426665"><ele>5.0</ele><time>2026-04-12T14:02:52.832Z</time></trkpt><trkpt lat="53.845315589986086" lon="14.60713388804386"><ele>5.0</ele><time>2026-04-12T14:02:53.832Z</time></trkpt><trkpt lat="53.84523604783236" lon="14.607023454146862"><ele>5.0</ele><time>2026-04-12T14:02:54.832Z</time></trkpt><trkpt lat="53.84516679378392" lon="14.606940046423317"><ele>5.0</ele><time>2026-04-12T14:02:55.832Z</time></trkpt><trkpt lat="53.84508512997087" lon="14.606871565381132"><ele>5.0</ele><time>2026-04-12T14:02:56.832Z</time></trkpt><trkpt lat="53.8449682845935" lon="14.606751961230014"><ele>5.0</ele><time>2026-04-12T14:02:58.832Z</time></trkpt><trkpt lat="53.844911607179036" lon="14.606677918591595"><ele>5.166666666666667</ele><time>2026-04-12T14:02:59.832Z</time></trkpt><trkpt lat="53.844854419324015" lon="14.606621675059511"><ele>5.333333333333334</ele><time>2026-04-12T14:03:00.832Z</time></trkpt><trkpt lat="53.84476708482463" lon="14.606622675655897"><ele>5.5</ele><time>2026-04-12T14:03:02.832Z</time></trkpt><trkpt lat="53.84469904929828" lon="14.60679746576764"><ele>5.666666666666667</ele><time>2026-04-12T14:03:04.832Z</time></trkpt><trkpt lat="53.8446512481322" lon="14.606873539709916"><ele>5.833333333333333</ele><time>2026-04-12T14:03:05.832Z</time></trkpt><trkpt lat="53.84458107653626" lon="14.606914960726114"><ele>6.0</ele><time>2026-04-12T14:03:06.832Z</time></trkpt><trkpt lat="53.844502124056504" lon="14.606944384185148"><ele>5.833333333333333</ele><time>2026-04-12T14:03:07.832Z</time></trkpt><trkpt lat="53.84440994406758" lon="14.607001386971294"><ele>5.666666666666667</ele><time>2026-04-12T14:03:08.832Z</time></trkpt><trkpt lat="53.84430626332199" lon="14.607089361657957"><ele>5.5</ele><time>2026-04-12T14:03:10.832Z</time></trkpt><trkpt lat="53.84425134062519" lon="14.607178493582882"><ele>5.333333333333334</ele><time>2026-04-12T14:03:11.832Z</time></trkpt><trkpt lat="53.844204297953276" lon="14.607263607334106"><ele>5.166666666666667</ele><time>2026-04-12T14:03:12.832Z</time></trkpt><trkpt lat="53.84416487807024" lon="14.60735233629957"><ele>5.0</ele><time>2026-04-12T14:03:13.832Z</time></trkpt><trkpt lat="53.84413038420026" lon="14.607443577459225"><ele>5.0</ele><time>2026-04-12T14:03:14.832Z</time></trkpt><trkpt lat="53.84407861561371" lon="14.607664843095554"><ele>5.0</ele><time>2026-04-12T14:03:16.832Z</time></trkpt><trkpt lat="53.844067535660784" lon="14.607791591220886"><ele>5.0</ele><time>2026-04-12T14:03:17.832Z</time></trkpt><trkpt lat="53.84412670744932" lon="14.607982519626226"><ele>5.0</ele><time>2026-04-12T14:03:19.832Z</time></trkpt><trkpt lat="53.84419520432747" lon="14.608033408547252"><ele>5.0</ele><time>2026-04-12T14:03:20.832Z</time></trkpt><trkpt lat="53.84429485211349" lon="14.608106213526769"><ele>4.8</ele><time>2026-04-12T14:03:21.832Z</time></trkpt><trkpt lat="53.84439755089513" lon="14.608189073777279"><ele>4.6</ele><time>2026-04-12T14:03:22.832Z</time></trkpt><trkpt lat="53.844491936198914" lon="14.608281156859194"><ele>4.4</ele><time>2026-04-12T14:03:23.832Z</time></trkpt><trkpt lat="53.84458013379898" lon="14.608364603818274"><ele>4.2</ele><time>2026-04-12T14:03:24.832Z</time></trkpt><trkpt lat="53.8446620509084" lon="14.608442163142254"><ele>4.0</ele><time>2026-04-12T14:03:25.832Z</time></trkpt><trkpt lat="53.84474625236211" lon="14.608513960018035"><ele>3.9999999999999996</ele><time>2026-04-12T14:03:26.832Z</time></trkpt><trkpt lat="53.84482457603149" lon="14.608593471525527"><ele>4.0</ele><time>2026-04-12T14:03:27.832Z</time></trkpt><trkpt lat="53.84490663693326" lon="14.608673705690219"><ele>4.0</ele><time>2026-04-12T14:03:28.832Z</time></trkpt><trkpt lat="53.84497992504974" lon="14.608765609776844"><ele>4.0</ele><time>2026-04-12T14:03:29.832Z</time></trkpt><trkpt lat="53.845054424127056" lon="14.608821066842536"><ele>3.9999999999999996</ele><time>2026-04-12T14:03:30.832Z</time></trkpt><trkpt lat="53.84512450930717" lon="14.608873466693847"><ele>4.0</ele><time>2026-04-12T14:03:31.832Z</time></trkpt><trkpt lat="53.845188367179404" lon="14.608960539671573"><ele>4.166666666666666</ele><time>2026-04-12T14:03:32.832Z</time></trkpt><trkpt lat="53.845258468270366" lon="14.609021027366392"><ele>4.333333333333333</ele><time>2026-04-12T14:03:33.832Z</time></trkpt><trkpt lat="53.84533660897633" lon="14.609085199375732"><ele>4.5</ele><time>2026-04-12T14:03:34.832Z</time></trkpt><trkpt lat="53.84541726209397" lon="14.609118429407765"><ele>4.666666666666667</ele><time>2026-04-12T14:03:35.832Z</time></trkpt><trkpt lat="53.84548603439692" lon="14.609184569424173"><ele>4.833333333333334</ele><time>2026-04-12T14:03:36.832Z</time></trkpt><trkpt lat="53.84556073783869" lon="14.60923292809616"><ele>5.0</ele><time>2026-04-12T14:03:37.832Z</time></trkpt><trkpt lat="53.84563828913789" lon="14.60928347134301"><ele>5.0</ele><time>2026-04-12T14:03:38.832Z</time></trkpt><trkpt lat="53.845719716574195" lon="14.609342066285686"><ele>5.0</ele><time>2026-04-12T14:03:39.832Z</time></trkpt><trkpt lat="53.845802753325444" lon="14.609405042972407"><ele>5.0</ele><time>2026-04-12T14:03:40.832Z</time></trkpt><trkpt lat="53.84588935160026" lon="14.609470317493347"><ele>5.0</ele><time>2026-04-12T14:03:41.832Z</time></trkpt><trkpt lat="53.84597595388404" lon="14.609527327541798"><ele>5.0</ele><time>2026-04-12T14:03:42.832Z</time></trkpt><trkpt lat="53.84607667090992" lon="14.609585205659123"><ele>5.0</ele><time>2026-04-12T14:03:43.832Z</time></trkpt><trkpt lat="53.84616286738962" lon="14.609638051963755"><ele>5.0</ele><time>2026-04-12T14:03:44.832Z</time></trkpt><trkpt lat="53.846241297824186" lon="14.609691043959273"><ele>5.0</ele><time>2026-04-12T14:03:45.832Z</time></trkpt><trkpt lat="53.84630539835321" lon="14.609745082997323"><ele>5.0</ele><time>2026-04-12T14:03:46.832Z</time></trkpt><trkpt lat="53.84638507475714" lon="14.609818300423909"><ele>5.0</ele><time>2026-04-12T14:03:48.832Z</time></trkpt><trkpt lat="53.846303618465754" lon="14.610012669980732"><ele>5.0</ele><time>2026-04-12T14:03:50.832Z</time></trkpt><trkpt lat="53.846252930752094" lon="14.610170716167334"><ele>5.0</ele><time>2026-04-12T14:03:51.832Z</time></trkpt><trkpt lat="53.84619676321742" lon="14.610345967234572"><ele>5.0</ele><time>2026-04-12T14:03:52.832Z</time></trkpt><trkpt lat="53.84613404720693" lon="14.610541848952046"><ele>5.0</ele><time>2026-04-12T14:03:53.832Z</time></trkpt><trkpt lat="53.84607507727095" lon="14.610729724409516"><ele>4.4</ele><time>2026-04-12T14:03:54.832Z</time></trkpt><trkpt lat="53.84601966560803" lon="14.610905075556785"><ele>3.8</ele><time>2026-04-12T14:03:55.832Z</time></trkpt><trkpt lat="53.845977527324735" lon="14.611088583902866"><ele>3.2</ele><time>2026-04-12T14:03:56.832Z</time></trkpt><trkpt lat="53.84591510707332" lon="14.61123357367673"><ele>2.6</ele><time>2026-04-12T14:03:57.832Z</time></trkpt><trkpt lat="53.84586388229601" lon="14.611394509687782"><ele>2.0</ele><time>2026-04-12T14:03:58.832Z</time></trkpt><trkpt lat="53.845813201020896" lon="14.61155042194557"><ele>1.75</ele><time>2026-04-12T14:03:59.832Z</time></trkpt><trkpt lat="53.84575833224536" lon="14.611711203621164"><ele>1.5</ele><time>2026-04-12T14:04:00.832Z</time></trkpt><trkpt lat="53.84571451186636" lon="14.611886183042833"><ele>1.25</ele><time>2026-04-12T14:04:01.831Z</time></trkpt><trkpt lat="53.84566030373853" lon="14.612072265616925"><ele>1.0</ele><time>2026-04-12T14:04:02.831Z</time></trkpt><trkpt lat="53.84560409909525" lon="14.61225046136101"><ele>1.0</ele><time>2026-04-12T14:04:03.831Z</time></trkpt><trkpt lat="53.845540299597054" lon="14.612431174503309"><ele>1.0</ele><time>2026-04-12T14:04:04.831Z</time></trkpt><trkpt lat="53.84548249584232" lon="14.612628936818869"><ele>1.0</ele><time>2026-04-12T14:04:05.831Z</time></trkpt><trkpt lat="53.84542765591752" lon="14.612826254051292"><ele>1.0</ele><time>2026-04-12T14:04:06.831Z</time></trkpt><trkpt lat="53.84537569582525" lon="14.613024526670316"><ele>1.0</ele><time>2026-04-12T14:04:07.831Z</time></trkpt><trkpt lat="53.84534172523326" lon="14.61321867582102"><ele>1.0</ele><time>2026-04-12T14:04:08.83Z</time></trkpt><trkpt lat="53.845324978071964" lon="14.613423555434"><ele>1.0</ele><time>2026-04-12T14:04:09.83Z</time></trkpt><trkpt lat="53.845315573319375" lon="14.61362606453237"><ele>1.0</ele><time>2026-04-12T14:04:10.831Z</time></trkpt><trkpt lat="53.845310622883325" lon="14.613836264257321"><ele>1.0</ele><time>2026-04-12T14:04:11.831Z</time></trkpt><trkpt lat="53.845295816367205" lon="14.614040288806981"><ele>1.0</ele><time>2026-04-12T14:04:12.831Z</time></trkpt><trkpt lat="53.845256780526306" lon="14.614233048280797"><ele>1.0</ele><time>2026-04-12T14:04:13.83Z</time></trkpt><trkpt lat="53.84518423473632" lon="14.614391268971033"><ele>1.0</ele><time>2026-04-12T14:04:14.831Z</time></trkpt><trkpt lat="53.84508959242923" lon="14.61453626360236"><ele>2.25</ele><time>2026-04-12T14:04:15.831Z</time></trkpt><trkpt lat="53.84497880332251" lon="14.614678050079789"><ele>3.5</ele><time>2026-04-12T14:04:16.831Z</time></trkpt><trkpt lat="53.8448691392996" lon="14.61483384867583"><ele>4.75</ele><time>2026-04-12T14:04:17.831Z</time></trkpt><trkpt lat="53.84476406492972" lon="14.614987927309473"><ele>6.0</ele><time>2026-04-12T14:04:18.831Z</time></trkpt><trkpt lat="53.84466256481596" lon="14.615115096470651"><ele>6.0</ele><time>2026-04-12T14:04:19.831Z</time></trkpt><trkpt lat="53.844589306190585" lon="14.615283578591887"><ele>6.0</ele><time>2026-04-12T14:04:20.831Z</time></trkpt><trkpt lat="53.844543586631275" lon="14.615467785620984"><ele>6.0</ele><time>2026-04-12T14:04:21.831Z</time></trkpt><trkpt lat="53.84449596276604" lon="14.615668955298935"><ele>6.0</ele><time>2026-04-12T14:04:22.831Z</time></trkpt><trkpt lat="53.84445569456164" lon="14.615885372491306"><ele>6.0</ele><time>2026-04-12T14:04:23.831Z</time></trkpt><trkpt lat="53.8444123537143" lon="14.616096774886701"><ele>6.0</ele><time>2026-04-12T14:04:24.831Z</time></trkpt><trkpt lat="53.84436514850839" lon="14.616296583543022"><ele>6.0</ele><time>2026-04-12T14:04:25.831Z</time></trkpt><trkpt lat="53.84430990334" lon="14.616476656470839"><ele>6.0</ele><time>2026-04-12T14:04:26.831Z</time></trkpt><trkpt lat="53.844266901096326" lon="14.616661285306124"><ele>5.75</ele><time>2026-04-12T14:04:27.831Z</time></trkpt><trkpt lat="53.84421988317316" lon="14.616863468457405"><ele>5.5</ele><time>2026-04-12T14:04:28.831Z</time></trkpt><trkpt lat="53.84416947327529" lon="14.617080075113174"><ele>5.25</ele><time>2026-04-12T14:04:29.831Z</time></trkpt><trkpt lat="53.84411368132988" lon="14.617319558031157"><ele>5.0</ele><time>2026-04-12T14:04:30.831Z</time></trkpt><trkpt lat="53.84405694339841" lon="14.6175635716724"><ele>5.0</ele><time>2026-04-12T14:04:31.831Z</time></trkpt><trkpt lat="53.844015807091786" lon="14.61781336169282"><ele>5.0</ele><time>2026-04-12T14:04:32.831Z</time></trkpt><trkpt lat="53.843943351428635" lon="14.618045599603024"><ele>5.0</ele><time>2026-04-12T14:04:33.831Z</time></trkpt><trkpt lat="53.843881880998374" lon="14.61830796625414"><ele>4.333333333333334</ele><time>2026-04-12T14:04:34.831Z</time></trkpt><trkpt lat="53.84381804947247" lon="14.61857908752176"><ele>3.666666666666667</ele><time>2026-04-12T14:04:35.831Z</time></trkpt><trkpt lat="53.84375706466026" lon="14.618833866655548"><ele>3.0</ele><time>2026-04-12T14:04:36.831Z</time></trkpt><trkpt lat="53.84369023209243" lon="14.619116812137282"><ele>2.0</ele><time>2026-04-12T14:04:37.831Z</time></trkpt><trkpt lat="53.84362715698851" lon="14.619383223636703"><ele>1.0</ele><time>2026-04-12T14:04:38.831Z</time></trkpt><trkpt lat="53.84356699529257" lon="14.61963717320552"><ele>0.0</ele><time>2026-04-12T14:04:39.831Z</time></trkpt><trkpt lat="53.84350056357279" lon="14.619917589180888"><ele>0.0</ele><time>2026-04-12T14:04:40.831Z</time></trkpt><trkpt lat="53.84344017632371" lon="14.620172491071093"><ele>0.0</ele><time>2026-04-12T14:04:41.831Z</time></trkpt><trkpt lat="53.84337703220347" lon="14.620439029732156"><ele>0.0</ele><time>2026-04-12T14:04:42.831Z</time></trkpt><trkpt lat="53.843313667480174" lon="14.620706499659267"><ele>0.0</ele><time>2026-04-12T14:04:43.832Z</time></trkpt><trkpt lat="53.84325110097988" lon="14.620974648653105"><ele>0.0</ele><time>2026-04-12T14:04:44.835Z</time></trkpt><trkpt lat="53.843188018951594" lon="14.62124587215372"><ele>0.0</ele><time>2026-04-12T14:04:45.838Z</time></trkpt><trkpt lat="53.843149099769434" lon="14.621516303972976"><ele>-0.3333333333333333</ele><time>2026-04-12T14:04:46.84Z</time></trkpt><trkpt lat="53.84311017301957" lon="14.621769619313152"><ele>-0.6666666666666666</ele><time>2026-04-12T14:04:47.842Z</time></trkpt><trkpt lat="53.84308206125388" lon="14.622030319919755"><ele>-1.0</ele><time>2026-04-12T14:04:48.844Z</time></trkpt><trkpt lat="53.84306331180181" lon="14.62229819612513"><ele>-1.3333333333333333</ele><time>2026-04-12T14:04:49.846Z</time></trkpt><trkpt lat="53.84303801869121" lon="14.622579035211844"><ele>-1.6666666666666665</ele><time>2026-04-12T14:04:50.848Z</time></trkpt><trkpt lat="53.84304307588713" lon="14.622870296890706"><ele>-2.0</ele><time>2026-04-12T14:04:51.85Z</time></trkpt><trkpt lat="53.84306129470337" lon="14.623169816522541"><ele>-2.0</ele><time>2026-04-12T14:04:52.852Z</time></trkpt><trkpt lat="53.84311031237341" lon="14.623462488102046"><ele>-2.0</ele><time>2026-04-12T14:04:53.853Z</time></trkpt><trkpt lat="53.84315451487483" lon="14.623753433031244"><ele>-2.0</ele><time>2026-04-12T14:04:54.855Z</time></trkpt><trkpt lat="53.84321096817332" lon="14.624048372192178"><ele>-2.0</ele><time>2026-04-12T14:04:55.856Z</time></trkpt><trkpt lat="53.843276585959075" lon="14.624338224048621"><ele>-2.0</ele><time>2026-04-12T14:04:56.857Z</time></trkpt><trkpt lat="53.84333249629197" lon="14.624633599785756"><ele>-2.0</ele><time>2026-04-12T14:04:57.858Z</time></trkpt><trkpt lat="53.84339766821253" lon="14.62492296621105"><ele>-1.6666666666666665</ele><time>2026-04-12T14:04:58.859Z</time></trkpt><trkpt lat="53.84346178134911" lon="14.625207630538899"><ele>-1.3333333333333333</ele><time>2026-04-12T14:04:59.861Z</time></trkpt><trkpt lat="53.843540009499335" lon="14.625479214407195"><ele>-1.0</ele><time>2026-04-12T14:05:00.862Z</time></trkpt><trkpt lat="53.8436020323084" lon="14.625764460417816"><ele>0.0</ele><time>2026-04-12T14:05:01.862Z</time></trkpt><trkpt lat="53.84366422965819" lon="14.62602890846935"><ele>1.0</ele><time>2026-04-12T14:05:02.863Z</time></trkpt><trkpt lat="53.8437246284224" lon="14.626313303299938"><ele>2.0</ele><time>2026-04-12T14:05:03.864Z</time></trkpt><trkpt lat="53.84378335408407" lon="14.626582454956228"><ele>2.0</ele><time>2026-04-12T14:05:04.865Z</time></trkpt><trkpt lat="53.84383719991407" lon="14.626830853039406"><ele>2.0</ele><time>2026-04-12T14:05:05.866Z</time></trkpt><trkpt lat="53.843888167934615" lon="14.627054414711605"><ele>2.0</ele><time>2026-04-12T14:05:06.866Z</time></trkpt><trkpt lat="53.84393199125101" lon="14.627251301446584"><ele>2.0</ele><time>2026-04-12T14:05:07.867Z</time></trkpt><trkpt lat="53.84398785999235" lon="14.627430071024918"><ele>2.0</ele><time>2026-04-12T14:05:08.867Z</time></trkpt><trkpt lat="53.8440566652888" lon="14.62757915985332"><ele>2.0</ele><time>2026-04-12T14:05:09.868Z</time></trkpt><trkpt lat="53.844118914963644" lon="14.627716945316793"><ele>2.0</ele><time>2026-04-12T14:05:10.869Z</time></trkpt><trkpt lat="53.84417064767256" lon="14.627854997701375"><ele>2.0</ele><time>2026-04-12T14:05:11.869Z</time></trkpt><trkpt lat="53.84420519557644" lon="14.627998179366905"><ele>2.0</ele><time>2026-04-12T14:05:12.87Z</time></trkpt><trkpt lat="53.84421060128155" lon="14.628133808608393"><ele>2.0</ele><time>2026-04-12T14:05:13.87Z</time></trkpt><trkpt lat="53.84416932873364" lon="14.628263341590163"><ele>2.0</ele><time>2026-04-12T14:05:14.87Z</time></trkpt><trkpt lat="53.8441023974663" lon="14.628339008183232"><ele>2.0</ele><time>2026-04-12T14:05:15.871Z</time></trkpt><trkpt lat="53.8440146965039" lon="14.628355932133546"><ele>2.0</ele><time>2026-04-12T14:05:16.871Z</time></trkpt><trkpt lat="53.84391961685197" lon="14.628325159981575"><ele>2.0</ele><time>2026-04-12T14:05:17.871Z</time></trkpt><trkpt lat="53.843820463397336" lon="14.628248518354582"><ele>2.0</ele><time>2026-04-12T14:05:18.872Z</time></trkpt><trkpt lat="53.843698678157395" lon="14.628212211738889"><ele>2.0</ele><time>2026-04-12T14:05:19.872Z</time></trkpt><trkpt lat="53.84356688080136" lon="14.62813128372759"><ele>2.0</ele><time>2026-04-12T14:05:20.872Z</time></trkpt><trkpt lat="53.84342532006809" lon="14.628065237740412"><ele>2.0</ele><time>2026-04-12T14:05:21.873Z</time></trkpt><trkpt lat="53.843265673614546" lon="14.627993995241038"><ele>2.0</ele><time>2026-04-12T14:05:22.873Z</time></trkpt><trkpt lat="53.84311489368338" lon="14.62792206658667"><ele>2.0</ele><time>2026-04-12T14:05:23.873Z</time></trkpt><trkpt lat="53.84296587756764" lon="14.627855135505866"><ele>2.0</ele><time>2026-04-12T14:05:24.873Z</time></trkpt><trkpt lat="53.842825174964204" lon="14.627786680306736"><ele>2.0</ele><time>2026-04-12T14:05:25.873Z</time></trkpt><trkpt lat="53.842687804314814" lon="14.627717711804962"><ele>2.0</ele><time>2026-04-12T14:05:26.874Z</time></trkpt><trkpt lat="53.84255763740379" lon="14.6276147542332"><ele>2.0</ele><time>2026-04-12T14:05:27.874Z</time></trkpt><trkpt lat="53.84241738833024" lon="14.62755254515961"><ele>2.0</ele><time>2026-04-12T14:05:28.874Z</time></trkpt><trkpt lat="53.84229029538807" lon="14.627450227899041"><ele>2.0</ele><time>2026-04-12T14:05:29.874Z</time></trkpt><trkpt lat="53.84216479363875" lon="14.627339855557414"><ele>2.0</ele><time>2026-04-12T14:05:30.874Z</time></trkpt><trkpt lat="53.84203590588687" lon="14.627214049984921"><ele>2.0</ele><time>2026-04-12T14:05:31.874Z</time></trkpt><trkpt lat="53.841906324528026" lon="14.627085842188981"><ele>2.0</ele><time>2026-04-12T14:05:32.875Z</time></trkpt><trkpt lat="53.84177157275298" lon="14.626955056152159"><ele>2.0</ele><time>2026-04-12T14:05:33.875Z</time></trkpt><trkpt lat="53.84164141578251" lon="14.626800940538454"><ele>2.0</ele><time>2026-04-12T14:05:34.875Z</time></trkpt><trkpt lat="53.8415032877838" lon="14.626661231384551"><ele>2.0</ele><time>2026-04-12T14:05:35.875Z</time></trkpt><trkpt lat="53.84136467516122" lon="14.626520980618062"><ele>2.0</ele><time>2026-04-12T14:05:36.875Z</time></trkpt><trkpt lat="53.84122654671319" lon="14.62638468892267"><ele>2.0</ele><time>2026-04-12T14:05:37.875Z</time></trkpt><trkpt lat="53.84109460032365" lon="14.62625891564307"><ele>2.0</ele><time>2026-04-12T14:05:38.875Z</time></trkpt><trkpt lat="53.84096494636379" lon="14.626140931722482"><ele>1.75</ele><time>2026-04-12T14:05:39.875Z</time></trkpt><trkpt lat="53.84084142873115" lon="14.626030286847408"><ele>1.5</ele><time>2026-04-12T14:05:40.875Z</time></trkpt><trkpt lat="53.84072505616168" lon="14.625932370952262"><ele>1.25</ele><time>2026-04-12T14:05:41.875Z</time></trkpt><trkpt lat="53.84060350478822" lon="14.625871279715092"><ele>1.0</ele><time>2026-04-12T14:05:42.876Z</time></trkpt><trkpt lat="53.84049519343935" lon="14.625752898389283"><ele>1.0</ele><time>2026-04-12T14:05:43.876Z</time></trkpt><trkpt lat="53.840378021579035" lon="14.625647042153501"><ele>1.0</ele><time>2026-04-12T14:05:44.876Z</time></trkpt><trkpt lat="53.840257752081676" lon="14.625561704793547"><ele>1.0</ele><time>2026-04-12T14:05:45.876Z</time></trkpt><trkpt lat="53.84012546291275" lon="14.625493631728014"><ele>1.0</ele><time>2026-04-12T14:05:46.876Z</time></trkpt><trkpt lat="53.84002559096684" lon="14.625372692168225"><ele>1.0</ele><time>2026-04-12T14:05:47.876Z</time></trkpt><trkpt lat="53.83992645958789" lon="14.62525981066201"><ele>1.0</ele><time>2026-04-12T14:05:48.876Z</time></trkpt><trkpt lat="53.83980491196315" lon="14.625216878001444"><ele>1.0</ele><time>2026-04-12T14:05:49.876Z</time></trkpt><trkpt lat="53.839651753202936" lon="14.625303596639492"><ele>1.0</ele><time>2026-04-12T14:05:50.876Z</time></trkpt><trkpt lat="53.83950576533681" lon="14.625354905418135"><ele>1.6666666666666665</ele><time>2026-04-12T14:05:51.876Z</time></trkpt><trkpt lat="53.83935333416329" lon="14.625395511688986"><ele>2.3333333333333335</ele><time>2026-04-12T14:05:52.876Z</time></trkpt><trkpt lat="53.83919047746195" lon="14.62541776066325"><ele>3.0</ele><time>2026-04-12T14:05:53.876Z</time></trkpt><trkpt lat="53.83903436659793" lon="14.625397038847328"><ele>3.0</ele><time>2026-04-12T14:05:54.876Z</time></trkpt><trkpt lat="53.83887606733783" lon="14.625426150679587"><ele>3.0</ele><time>2026-04-12T14:05:55.876Z</time></trkpt><trkpt lat="53.83871939939804" lon="14.625495476608446"><ele>3.0</ele><time>2026-04-12T14:05:56.876Z</time></trkpt><trkpt lat="53.838552988185086" lon="14.62553009358715"><ele>2.6666666666666665</ele><time>2026-04-12T14:05:57.876Z</time></trkpt><trkpt lat="53.838391674508" lon="14.625536140004964"><ele>2.333333333333333</ele><time>2026-04-12T14:05:58.876Z</time></trkpt><trkpt lat="53.838218002253264" lon="14.62556856295634"><ele>2.0</ele><time>2026-04-12T14:05:59.876Z</time></trkpt><trkpt lat="53.83805555671149" lon="14.625562610703124"><ele>2.0</ele><time>2026-04-12T14:06:00.876Z</time></trkpt><trkpt lat="53.837887092163484" lon="14.625582391518932"><ele>2.0</ele><time>2026-04-12T14:06:01.876Z</time></trkpt><trkpt lat="53.8377206315933" lon="14.625533550768676"><ele>2.0</ele><time>2026-04-12T14:06:02.876Z</time></trkpt><trkpt lat="53.837577188492766" lon="14.625507199260147"><ele>2.25</ele><time>2026-04-12T14:06:03.876Z</time></trkpt><trkpt lat="53.83744253906942" lon="14.625485213416443"><ele>2.5</ele><time>2026-04-12T14:06:04.876Z</time></trkpt><trkpt lat="53.83731138895778" lon="14.625468702553073"><ele>2.75</ele><time>2026-04-12T14:06:05.876Z</time></trkpt><trkpt lat="53.83718091922667" lon="14.625455676561298"><ele>3.0</ele><time>2026-04-12T14:06:06.876Z</time></trkpt><trkpt lat="53.837053007943766" lon="14.625460526499346"><ele>3.0</ele><time>2026-04-12T14:06:07.875Z</time></trkpt><trkpt lat="53.8369221379186" lon="14.625508452006834"><ele>3.0</ele><time>2026-04-12T14:06:08.875Z</time></trkpt><trkpt lat="53.836783900414325" lon="14.62552565924352"><ele>3.0</ele><time>2026-04-12T14:06:09.875Z</time></trkpt><trkpt lat="53.83664458305352" lon="14.625574795755954"><ele>3.0</ele><time>2026-04-12T14:06:10.875Z</time></trkpt><trkpt lat="53.83650395154499" lon="14.625618277782642"><ele>3.0</ele><time>2026-04-12T14:06:11.875Z</time></trkpt><trkpt lat="53.83635342650834" lon="14.62563381732556"><ele>3.0</ele><time>2026-04-12T14:06:12.875Z</time></trkpt><trkpt lat="53.83621529572056" lon="14.625618851563711"><ele>3.0</ele><time>2026-04-12T14:06:13.875Z</time></trkpt><trkpt lat="53.83607656089618" lon="14.62558858900257"><ele>3.0</ele><time>2026-04-12T14:06:14.874Z</time></trkpt><trkpt lat="53.83594451866748" lon="14.625560239396382"><ele>2.6</ele><time>2026-04-12T14:06:15.874Z</time></trkpt><trkpt lat="53.83581992145397" lon="14.625546156928097"><ele>2.1999999999999997</ele><time>2026-04-12T14:06:16.875Z</time></trkpt><trkpt lat="53.83570850493962" lon="14.625529162803458"><ele>1.8</ele><time>2026-04-12T14:06:17.875Z</time></trkpt><trkpt lat="53.83560758939933" lon="14.625524495844592"><ele>1.4</ele><time>2026-04-12T14:06:18.875Z</time></trkpt><trkpt lat="53.835511784215996" lon="14.625500186947635"><ele>1.0</ele><time>2026-04-12T14:06:19.875Z</time></trkpt><trkpt lat="53.835415844714554" lon="14.62542413398262"><ele>1.5</ele><time>2026-04-12T14:06:20.875Z</time></trkpt><trkpt lat="53.83531728611377" lon="14.6253069734942"><ele>2.0</ele><time>2026-04-12T14:06:21.875Z</time></trkpt><trkpt lat="53.83520392377037" lon="14.625199659523007"><ele>2.5</ele><time>2026-04-12T14:06:22.875Z</time></trkpt><trkpt lat="53.835077936527156" lon="14.625079887096248"><ele>3.0</ele><time>2026-04-12T14:06:23.875Z</time></trkpt><trkpt lat="53.83494624809365" lon="14.624953389932665"><ele>3.0</ele><time>2026-04-12T14:06:24.875Z</time></trkpt><trkpt lat="53.83481560510506" lon="14.624822437491714"><ele>3.0</ele><time>2026-04-12T14:06:25.875Z</time></trkpt><trkpt lat="53.83468513548466" lon="14.624698322708634"><ele>3.0</ele><time>2026-04-12T14:06:26.875Z</time></trkpt><trkpt lat="53.834560336491556" lon="14.624584202836267"><ele>3.0</ele><time>2026-04-12T14:06:27.875Z</time></trkpt><trkpt lat="53.834434485614835" lon="14.624471746580364"><ele>3.25</ele><time>2026-04-12T14:06:28.875Z</time></trkpt><trkpt lat="53.83431577255154" lon="14.62436553843099"><ele>3.5</ele><time>2026-04-12T14:06:29.875Z</time></trkpt><trkpt lat="53.834209818107176" lon="14.624266780539275"><ele>3.75</ele><time>2026-04-12T14:06:30.875Z</time></trkpt><trkpt lat="53.8341016980508" lon="14.624166026675526"><ele>4.0</ele><time>2026-04-12T14:06:31.875Z</time></trkpt><trkpt lat="53.83398758768324" lon="14.62406437266822"><ele>4.0</ele><time>2026-04-12T14:06:32.875Z</time></trkpt><trkpt lat="53.83387004306891" lon="14.62395553485222"><ele>4.0</ele><time>2026-04-12T14:06:33.875Z</time></trkpt><trkpt lat="53.83374849521594" lon="14.623845393674365"><ele>4.0</ele><time>2026-04-12T14:06:34.875Z</time></trkpt><trkpt lat="53.83362949797398" lon="14.623728548487726"><ele>4.0</ele><time>2026-04-12T14:06:35.875Z</time></trkpt><trkpt lat="53.833502312670234" lon="14.623607203365818"><ele>4.333333333333333</ele><time>2026-04-12T14:06:36.875Z</time></trkpt><trkpt lat="53.83337649902567" lon="14.623488625779395"><ele>4.666666666666667</ele><time>2026-04-12T14:06:37.875Z</time></trkpt><trkpt lat="53.83324843154792" lon="14.6233704774138"><ele>5.0</ele><time>2026-04-12T14:06:38.875Z</time></trkpt><trkpt lat="53.83310785530125" lon="14.623241660363385"><ele>5.0</ele><time>2026-04-12T14:06:39.875Z</time></trkpt><trkpt lat="53.83296314018276" lon="14.62311447633424"><ele>5.0</ele><time>2026-04-12T14:06:40.875Z</time></trkpt><trkpt lat="53.83281565278667" lon="14.62297449991942"><ele>5.0</ele><time>2026-04-12T14:06:41.875Z</time></trkpt><trkpt lat="53.8326721185287" lon="14.62283873664301"><ele>4.0</ele><time>2026-04-12T14:06:42.875Z</time></trkpt><trkpt lat="53.83251646038994" lon="14.622700670938151"><ele>3.0</ele><time>2026-04-12T14:06:43.875Z</time></trkpt><trkpt lat="53.832370020917466" lon="14.622563976746543"><ele>2.0</ele><time>2026-04-12T14:06:44.875Z</time></trkpt><trkpt lat="53.83222528240871" lon="14.622431195656"><ele>2.0</ele><time>2026-04-12T14:06:45.875Z</time></trkpt><trkpt lat="53.83207577326861" lon="14.622290643345785"><ele>2.0</ele><time>2026-04-12T14:06:46.875Z</time></trkpt><trkpt lat="53.83193662313965" lon="14.622127331910974"><ele>2.0</ele><time>2026-04-12T14:06:47.875Z</time></trkpt><trkpt lat="53.83179424065872" lon="14.621988625461452"><ele>1.6666666666666665</ele><time>2026-04-12T14:06:48.875Z</time></trkpt><trkpt lat="53.8316532515717" lon="14.621852997294432"><ele>1.3333333333333333</ele><time>2026-04-12T14:06:49.875Z</time></trkpt><trkpt lat="53.83150205763128" lon="14.62171799612115"><ele>1.0</ele><time>2026-04-12T14:06:50.875Z</time></trkpt><trkpt lat="53.831341631310515" lon="14.621610119167471"><ele>1.0</ele><time>2026-04-12T14:06:51.875Z</time></trkpt><trkpt lat="53.83116421436774" lon="14.621552753401449"><ele>1.0</ele><time>2026-04-12T14:06:52.875Z</time></trkpt><trkpt lat="53.830987899637385" lon="14.621493693361973"><ele>1.0</ele><time>2026-04-12T14:06:53.875Z</time></trkpt><trkpt lat="53.830809271483844" lon="14.621468212883443"><ele>1.6666666666666665</ele><time>2026-04-12T14:06:54.875Z</time></trkpt><trkpt lat="53.83063354966767" lon="14.621422297893908"><ele>2.3333333333333335</ele><time>2026-04-12T14:06:55.875Z</time></trkpt><trkpt lat="53.830459813272746" lon="14.62139573769013"><ele>3.0</ele><time>2026-04-12T14:06:56.875Z</time></trkpt><trkpt lat="53.83029121957145" lon="14.62136996688234"><ele>2.6666666666666665</ele><time>2026-04-12T14:06:57.875Z</time></trkpt><trkpt lat="53.83012708900888" lon="14.62134487516028"><ele>2.333333333333333</ele><time>2026-04-12T14:06:58.875Z</time></trkpt><trkpt lat="53.829956714873624" lon="14.62131775157222"><ele>2.0</ele><time>2026-04-12T14:06:59.875Z</time></trkpt><trkpt lat="53.82977965569495" lon="14.621289363584378"><ele>2.0</ele><time>2026-04-12T14:07:00.875Z</time></trkpt><trkpt lat="53.82959746528169" lon="14.621285023512806"><ele>2.0</ele><time>2026-04-12T14:07:01.875Z</time></trkpt><trkpt lat="53.82941465903387" lon="14.621253328014694"><ele>2.0</ele><time>2026-04-12T14:07:02.875Z</time></trkpt><trkpt lat="53.8292255875505" lon="14.621217853328801"><ele>2.0</ele><time>2026-04-12T14:07:03.875Z</time></trkpt><trkpt lat="53.829042305294905" lon="14.621159501469679"><ele>2.0</ele><time>2026-04-12T14:07:04.875Z</time></trkpt><trkpt lat="53.82885703166125" lon="14.621131028411964"><ele>2.0</ele><time>2026-04-12T14:07:05.875Z</time></trkpt><trkpt lat="53.82867394647331" lon="14.621106131074747"><ele>2.0</ele><time>2026-04-12T14:07:06.875Z</time></trkpt><trkpt lat="53.82849353344118" lon="14.621082665629077"><ele>2.0</ele><time>2026-04-12T14:07:07.875Z</time></trkpt><trkpt lat="53.82830868437879" lon="14.621058895881074"><ele>2.0</ele><time>2026-04-12T14:07:08.875Z</time></trkpt><trkpt lat="53.828112030758845" lon="14.621033660989976"><ele>1.6666666666666665</ele><time>2026-04-12T14:07:09.875Z</time></trkpt><trkpt lat="53.827919670437886" lon="14.621008604137248"><ele>1.3333333333333333</ele><time>2026-04-12T14:07:10.875Z</time></trkpt><trkpt lat="53.827725897326154" lon="14.620975104197635"><ele>1.0</ele><time>2026-04-12T14:07:11.875Z</time></trkpt><trkpt lat="53.82753152512271" lon="14.6209209218744"><ele>0.6666666666666666</ele><time>2026-04-12T14:07:12.875Z</time></trkpt><trkpt lat="53.82734726162782" lon="14.620871041671196"><ele>0.3333333333333333</ele><time>2026-04-12T14:07:13.875Z</time></trkpt><trkpt lat="53.82716749994315" lon="14.620821845058744"><ele>0.0</ele><time>2026-04-12T14:07:14.875Z</time></trkpt><trkpt lat="53.8270031149663" lon="14.620784161195507"><ele>0.0</ele><time>2026-04-12T14:07:15.875Z</time></trkpt><trkpt lat="53.82685572901128" lon="14.62068507011904"><ele>0.0</ele><time>2026-04-12T14:07:16.875Z</time></trkpt><trkpt lat="53.82671843400331" lon="14.620597529062332"><ele>0.0</ele><time>2026-04-12T14:07:17.875Z</time></trkpt><trkpt lat="53.82660143265288" lon="14.620467542316918"><ele>0.0</ele><time>2026-04-12T14:07:18.875Z</time></trkpt><trkpt lat="53.8264909187819" lon="14.62029272688746"><ele>0.3333333333333333</ele><time>2026-04-12T14:07:19.875Z</time></trkpt><trkpt lat="53.826389058580375" lon="14.620098133936821"><ele>0.6666666666666666</ele><time>2026-04-12T14:07:20.875Z</time></trkpt><trkpt lat="53.82630224807618" lon="14.619863800650071"><ele>1.0</ele><time>2026-04-12T14:07:21.875Z</time></trkpt><trkpt lat="53.82619859161248" lon="14.619674392293927"><ele>1.0</ele><time>2026-04-12T14:07:22.875Z</time></trkpt><trkpt lat="53.826074037853374" lon="14.619493019637492"><ele>1.0</ele><time>2026-04-12T14:07:23.875Z</time></trkpt><trkpt lat="53.82593234250003" lon="14.619336996783762"><ele>1.0</ele><time>2026-04-12T14:07:24.875Z</time></trkpt><trkpt lat="53.82579699023076" lon="14.619195030131431"><ele>1.3333333333333333</ele><time>2026-04-12T14:07:25.875Z</time></trkpt><trkpt lat="53.82565241743587" lon="14.619051688756954"><ele>1.6666666666666665</ele><time>2026-04-12T14:07:26.875Z</time></trkpt><trkpt lat="53.82549492126173" lon="14.61891184087064"><ele>2.0</ele><time>2026-04-12T14:07:27.875Z</time></trkpt><trkpt lat="53.82533327458221" lon="14.61876445554686"><ele>2.6666666666666665</ele><time>2026-04-12T14:07:28.875Z</time></trkpt><trkpt lat="53.82516572709249" lon="14.618612437874045"><ele>3.333333333333333</ele><time>2026-04-12T14:07:29.875Z</time></trkpt><trkpt lat="53.82498916293955" lon="14.618466814981069"><ele>4.0</ele><time>2026-04-12T14:07:30.875Z</time></trkpt><trkpt lat="53.82481157846959" lon="14.618326577470853"><ele>4.0</ele><time>2026-04-12T14:07:31.875Z</time></trkpt><trkpt lat="53.82462876593432" lon="14.618188767765991"><ele>4.0</ele><time>2026-04-12T14:07:32.875Z</time></trkpt><trkpt lat="53.824450821712986" lon="14.6180552976694"><ele>4.0</ele><time>2026-04-12T14:07:33.875Z</time></trkpt><trkpt lat="53.8242715539511" lon="14.617924922513"><ele>5.0</ele><time>2026-04-12T14:07:34.875Z</time></trkpt><trkpt lat="53.82408454212619" lon="14.61779278261302"><ele>6.0</ele><time>2026-04-12T14:07:35.875Z</time></trkpt><trkpt lat="53.82390112075926" lon="14.617632747021036"><ele>7.0</ele><time>2026-04-12T14:07:36.875Z</time></trkpt><trkpt lat="53.823712532110314" lon="14.617498566271864"><ele>7.0</ele><time>2026-04-12T14:07:37.875Z</time></trkpt><trkpt lat="53.82352865629625" lon="14.617366949689933"><ele>7.0</ele><time>2026-04-12T14:07:38.875Z</time></trkpt><trkpt lat="53.82335246928642" lon="14.617240619883741"><ele>7.0</ele><time>2026-04-12T14:07:39.875Z</time></trkpt><trkpt lat="53.82318929028199" lon="14.617122949643303"><ele>7.666666666666667</ele><time>2026-04-12T14:07:40.876Z</time></trkpt><trkpt lat="53.82303502250744" lon="14.617010431202264"><ele>8.333333333333334</ele><time>2026-04-12T14:07:41.876Z</time></trkpt><trkpt lat="53.822886284278" lon="14.616901945914803"><ele>9.0</ele><time>2026-04-12T14:07:42.876Z</time></trkpt><trkpt lat="53.82274335583849" lon="14.616797698258665"><ele>9.666666666666666</ele><time>2026-04-12T14:07:43.876Z</time></trkpt><trkpt lat="53.82259896778838" lon="14.616692341221997"><ele>10.333333333333332</ele><time>2026-04-12T14:07:44.876Z</time></trkpt><trkpt lat="53.82245092288606" lon="14.61658380668462"><ele>11.0</ele><time>2026-04-12T14:07:45.876Z</time></trkpt><trkpt lat="53.822285129141356" lon="14.616462009272436"><ele>11.0</ele><time>2026-04-12T14:07:46.876Z</time></trkpt><trkpt lat="53.82212306288161" lon="14.616342679270161"><ele>11.0</ele><time>2026-04-12T14:07:47.876Z</time></trkpt><trkpt lat="53.82196228315666" lon="14.616223962111217"><ele>11.0</ele><time>2026-04-12T14:07:48.876Z</time></trkpt><trkpt lat="53.82179035658345" lon="14.616097438290991"><ele>12.0</ele><time>2026-04-12T14:07:49.876Z</time></trkpt><trkpt lat="53.82160948680441" lon="14.61596433325514"><ele>13.0</ele><time>2026-04-12T14:07:50.876Z</time></trkpt><trkpt lat="53.82142149438532" lon="14.615823505645977"><ele>14.0</ele><time>2026-04-12T14:07:51.876Z</time></trkpt><trkpt lat="53.821233582683774" lon="14.61568259289076"><ele>14.0</ele><time>2026-04-12T14:07:52.876Z</time></trkpt><trkpt lat="53.82104844208635" lon="14.615547191934642"><ele>14.0</ele><time>2026-04-12T14:07:53.876Z</time></trkpt><trkpt lat="53.82086796949977" lon="14.615441913152422"><ele>14.0</ele><time>2026-04-12T14:07:54.876Z</time></trkpt><trkpt lat="53.82069581748225" lon="14.615327597154293"><ele>14.666666666666668</ele><time>2026-04-12T14:07:55.876Z</time></trkpt><trkpt lat="53.820523904634534" lon="14.615232343942306"><ele>15.333333333333332</ele><time>2026-04-12T14:07:56.876Z</time></trkpt><trkpt lat="53.820354503009305" lon="14.615122301096639"><ele>16.0</ele><time>2026-04-12T14:07:57.876Z</time></trkpt><trkpt lat="53.82018031776263" lon="14.61505217920819"><ele>15.666666666666666</ele><time>2026-04-12T14:07:58.876Z</time></trkpt><trkpt lat="53.81999656538553" lon="14.615008146846469"><ele>15.333333333333332</ele><time>2026-04-12T14:07:59.876Z</time></trkpt><trkpt lat="53.819810290949036" lon="14.615011483578442"><ele>15.0</ele><time>2026-04-12T14:08:00.876Z</time></trkpt><trkpt lat="53.81962461363905" lon="14.614997613327285"><ele>15.0</ele><time>2026-04-12T14:08:01.876Z</time></trkpt><trkpt lat="53.819434882479506" lon="14.614985403188658"><ele>15.0</ele><time>2026-04-12T14:08:02.876Z</time></trkpt><trkpt lat="53.81924465348744" lon="14.614974761322847"><ele>15.0</ele><time>2026-04-12T14:08:03.876Z</time></trkpt><trkpt lat="53.8190512768626" lon="14.614928538940221"><ele>14.333333333333332</ele><time>2026-04-12T14:08:04.876Z</time></trkpt><trkpt lat="53.81885019741448" lon="14.614909573465617"><ele>13.666666666666666</ele><time>2026-04-12T14:08:05.876Z</time></trkpt><trkpt lat="53.818646225147354" lon="14.61489228579494"><ele>13.0</ele><time>2026-04-12T14:08:06.876Z</time></trkpt><trkpt lat="53.81843320162567" lon="14.61487476451832"><ele>12.333333333333332</ele><time>2026-04-12T14:08:07.876Z</time></trkpt><trkpt lat="53.81821845284481" lon="14.614857929210402"><ele>11.666666666666666</ele><time>2026-04-12T14:08:08.876Z</time></trkpt><trkpt lat="53.81799926774673" lon="14.614840746125212"><ele>11.0</ele><time>2026-04-12T14:08:09.876Z</time></trkpt><trkpt lat="53.817769940601586" lon="14.61482276794722"><ele>9.5</ele><time>2026-04-12T14:08:10.876Z</time></trkpt><trkpt lat="53.8175372800337" lon="14.614804652101284"><ele>8.0</ele><time>2026-04-12T14:08:11.876Z</time></trkpt><trkpt lat="53.81730635935309" lon="14.614787068389903"><ele>8.0</ele><time>2026-04-12T14:08:12.876Z</time></trkpt><trkpt lat="53.817082407306415" lon="14.614770015362108"><ele>8.0</ele><time>2026-04-12T14:08:13.875Z</time></trkpt><trkpt lat="53.81686151474713" lon="14.614753195308392"><ele>8.0</ele><time>2026-04-12T14:08:14.875Z</time></trkpt><trkpt lat="53.81663749829594" lon="14.614735958481226"><ele>7.333333333333333</ele><time>2026-04-12T14:08:15.875Z</time></trkpt><trkpt lat="53.8164154575954" lon="14.614718959216336"><ele>6.666666666666666</ele><time>2026-04-12T14:08:16.875Z</time></trkpt><trkpt lat="53.816195943410975" lon="14.614702175735038"><ele>6.0</ele><time>2026-04-12T14:08:17.874Z</time></trkpt><trkpt lat="53.81597689929971" lon="14.614710887226707"><ele>6.0</ele><time>2026-04-12T14:08:18.874Z</time></trkpt><trkpt lat="53.81575593502455" lon="14.614694843107515"><ele>6.0</ele><time>2026-04-12T14:08:19.875Z</time></trkpt><trkpt lat="53.8155367132665" lon="14.614665301398924"><ele>6.0</ele><time>2026-04-12T14:08:20.875Z</time></trkpt><trkpt lat="53.81531570751705" lon="14.614668506207689"><ele>6.333333333333334</ele><time>2026-04-12T14:08:21.875Z</time></trkpt><trkpt lat="53.815096699664736" lon="14.614671796939806"><ele>6.666666666666667</ele><time>2026-04-12T14:08:22.875Z</time></trkpt><trkpt lat="53.81489804617423" lon="14.614687331117265"><ele>7.0</ele><time>2026-04-12T14:08:23.875Z</time></trkpt><trkpt lat="53.814714590129725" lon="14.61470262462031"><ele>7.0</ele><time>2026-04-12T14:08:24.875Z</time></trkpt><trkpt lat="53.81454207682586" lon="14.614717884438699"><ele>7.0</ele><time>2026-04-12T14:08:25.875Z</time></trkpt><trkpt lat="53.81437203399751" lon="14.614730962676658"><ele>7.0</ele><time>2026-04-12T14:08:26.875Z</time></trkpt><trkpt lat="53.81420115158551" lon="14.61474768178964"><ele>7.666666666666667</ele><time>2026-04-12T14:08:27.875Z</time></trkpt><trkpt lat="53.81403089664518" lon="14.614729195217736"><ele>8.333333333333334</ele><time>2026-04-12T14:08:28.875Z</time></trkpt><trkpt lat="53.81388139727168" lon="14.614741106388736"><ele>9.0</ele><time>2026-04-12T14:08:29.875Z</time></trkpt><trkpt lat="53.81373515292271" lon="14.614782960684519"><ele>9.0</ele><time>2026-04-12T14:08:30.875Z</time></trkpt><trkpt lat="53.81359282659257" lon="14.614798617438641"><ele>9.0</ele><time>2026-04-12T14:08:31.875Z</time></trkpt><trkpt lat="53.81344409126727" lon="14.614805389081488"><ele>9.0</ele><time>2026-04-12T14:08:32.875Z</time></trkpt><trkpt lat="53.81329520428755" lon="14.614827390432938"><ele>9.0</ele><time>2026-04-12T14:08:33.875Z</time></trkpt><trkpt lat="53.81315048740242" lon="14.614843873268548"><ele>9.0</ele><time>2026-04-12T14:08:34.875Z</time></trkpt><trkpt lat="53.813007498871166" lon="14.614863930963647"><ele>9.0</ele><time>2026-04-12T14:08:35.875Z</time></trkpt><trkpt lat="53.812864054843104" lon="14.614848875305778"><ele>9.0</ele><time>2026-04-12T14:08:36.875Z</time></trkpt><trkpt lat="53.81272830701562" lon="14.614859829626742"><ele>9.0</ele><time>2026-04-12T14:08:37.875Z</time></trkpt><trkpt lat="53.812584350075745" lon="14.61489141484493"><ele>9.0</ele><time>2026-04-12T14:08:38.875Z</time></trkpt><trkpt lat="53.81244736249048" lon="14.614880951707104"><ele>9.0</ele><time>2026-04-12T14:08:39.875Z</time></trkpt><trkpt lat="53.81231984174077" lon="14.614877036421392"><ele>9.0</ele><time>2026-04-12T14:08:40.875Z</time></trkpt><trkpt lat="53.81219466501713" lon="14.614858738064214"><ele>9.0</ele><time>2026-04-12T14:08:41.875Z</time></trkpt><trkpt lat="53.812071498179826" lon="14.614824714052771"><ele>9.0</ele><time>2026-04-12T14:08:42.875Z</time></trkpt><trkpt lat="53.81195060576465" lon="14.614787319140923"><ele>9.0</ele><time>2026-04-12T14:08:43.875Z</time></trkpt><trkpt lat="53.81183875883623" lon="14.614755318959421"><ele>9.0</ele><time>2026-04-12T14:08:44.875Z</time></trkpt><trkpt lat="53.81172642964812" lon="14.614699752197126"><ele>9.0</ele><time>2026-04-12T14:08:45.875Z</time></trkpt><trkpt lat="53.8116160034417" lon="14.614662389608537"><ele>8.25</ele><time>2026-04-12T14:08:46.875Z</time></trkpt><trkpt lat="53.8115035068598" lon="14.614653111742678"><ele>7.5</ele><time>2026-04-12T14:08:47.875Z</time></trkpt><trkpt lat="53.81138798310156" lon="14.614625602811872"><ele>6.75</ele><time>2026-04-12T14:08:48.875Z</time></trkpt><trkpt lat="53.81126266014731" lon="14.614569563037554"><ele>6.0</ele><time>2026-04-12T14:08:49.875Z</time></trkpt><trkpt lat="53.811131561310496" lon="14.61454740236305"><ele>6.0</ele><time>2026-04-12T14:08:50.875Z</time></trkpt><trkpt lat="53.81100670536467" lon="14.614531686788741"><ele>6.0</ele><time>2026-04-12T14:08:51.875Z</time></trkpt><trkpt lat="53.81089120962319" lon="14.614518115627172"><ele>6.0</ele><time>2026-04-12T14:08:52.875Z</time></trkpt><trkpt lat="53.81077198524728" lon="14.614505397642068"><ele>6.0</ele><time>2026-04-12T14:08:53.875Z</time></trkpt><trkpt lat="53.81064901171092" lon="14.614494199251373"><ele>6.0</ele><time>2026-04-12T14:08:54.875Z</time></trkpt><trkpt lat="53.810517204801755" lon="14.614489600894332"><ele>6.0</ele><time>2026-04-12T14:08:55.875Z</time></trkpt><trkpt lat="53.81037763989308" lon="14.614489256342795"><ele>6.0</ele><time>2026-04-12T14:08:56.875Z</time></trkpt><trkpt lat="53.81023079919449" lon="14.614507988736333"><ele>6.0</ele><time>2026-04-12T14:08:57.875Z</time></trkpt><trkpt lat="53.810083653387615" lon="14.614537023178285"><ele>6.0</ele><time>2026-04-12T14:08:58.875Z</time></trkpt><trkpt lat="53.809944750451734" lon="14.614564975358215"><ele>6.0</ele><time>2026-04-12T14:08:59.875Z</time></trkpt><trkpt lat="53.809809009768124" lon="14.614589518826781"><ele>6.0</ele><time>2026-04-12T14:09:00.875Z</time></trkpt><trkpt lat="53.80965491521334" lon="14.614611105278522"><ele>6.0</ele><time>2026-04-12T14:09:01.875Z</time></trkpt><trkpt lat="53.809498300906405" lon="14.614621858370635"><ele>6.0</ele><time>2026-04-12T14:09:02.875Z</time></trkpt><trkpt lat="53.80933879282632" lon="14.614626627755339"><ele>6.0</ele><time>2026-04-12T14:09:03.875Z</time></trkpt><trkpt lat="53.809181336033475" lon="14.614628943296712"><ele>6.0</ele><time>2026-04-12T14:09:04.875Z</time></trkpt><trkpt lat="53.80902426449122" lon="14.614631506805791"><ele>5.666666666666667</ele><time>2026-04-12T14:09:05.875Z</time></trkpt><trkpt lat="53.808861687912966" lon="14.614638765553963"><ele>5.333333333333334</ele><time>2026-04-12T14:09:06.875Z</time></trkpt><trkpt lat="53.80870290607018" lon="14.614650988950102"><ele>5.0</ele><time>2026-04-12T14:09:07.875Z</time></trkpt><trkpt lat="53.808546288400606" lon="14.614675751493335"><ele>4.666666666666667</ele><time>2026-04-12T14:09:08.875Z</time></trkpt><trkpt lat="53.80839030860759" lon="14.614712403175144"><ele>4.333333333333333</ele><time>2026-04-12T14:09:09.875Z</time></trkpt><trkpt lat="53.80823154969255" lon="14.61475983746592"><ele>4.0</ele><time>2026-04-12T14:09:10.875Z</time></trkpt><trkpt lat="53.808062773472386" lon="14.61481608676075"><ele>4.0</ele><time>2026-04-12T14:09:11.875Z</time></trkpt><trkpt lat="53.80789800254604" lon="14.61487283245187"><ele>4.0</ele><time>2026-04-12T14:09:12.875Z</time></trkpt><trkpt lat="53.807740613601496" lon="14.614934305642473"><ele>4.0</ele><time>2026-04-12T14:09:13.875Z</time></trkpt><trkpt lat="53.80758126176272" lon="14.614992504354172"><ele>3.333333333333333</ele><time>2026-04-12T14:09:14.875Z</time></trkpt><trkpt lat="53.807421223686006" lon="14.615055879758163"><ele>2.6666666666666665</ele><time>2026-04-12T14:09:15.875Z</time></trkpt><trkpt lat="53.80726500646041" lon="14.615118816496896"><ele>2.0</ele><time>2026-04-12T14:09:16.875Z</time></trkpt><trkpt lat="53.80711273230306" lon="14.615181025005805"><ele>2.0</ele><time>2026-04-12T14:09:17.875Z</time></trkpt><trkpt lat="53.80696066969398" lon="14.615241551111687"><ele>2.0</ele><time>2026-04-12T14:09:18.875Z</time></trkpt><trkpt lat="53.806817305441406" lon="14.615304393688763"><ele>2.0</ele><time>2026-04-12T14:09:19.875Z</time></trkpt><trkpt lat="53.80666926344513" lon="14.615340170004478"><ele>3.0</ele><time>2026-04-12T14:09:20.875Z</time></trkpt><trkpt lat="53.80652288458126" lon="14.615424909565442"><ele>4.0</ele><time>2026-04-12T14:09:21.875Z</time></trkpt><trkpt lat="53.8063866501365" lon="14.615478159349022"><ele>5.0</ele><time>2026-04-12T14:09:22.875Z</time></trkpt><trkpt lat="53.806244469443946" lon="14.615533231590287"><ele>6.0</ele><time>2026-04-12T14:09:23.875Z</time></trkpt><trkpt lat="53.80612468316555" lon="14.615578314398961"><ele>6.0</ele><time>2026-04-12T14:09:24.875Z</time></trkpt><trkpt lat="53.80601197996619" lon="14.61562973848797"><ele>6.0</ele><time>2026-04-12T14:09:25.875Z</time></trkpt><trkpt lat="53.8059095075359" lon="14.615675637940532"><ele>6.0</ele><time>2026-04-12T14:09:26.875Z</time></trkpt><trkpt lat="53.80580773657482" lon="14.615714499980305"><ele>6.0</ele><time>2026-04-12T14:09:27.875Z</time></trkpt><trkpt lat="53.80569199010491" lon="14.615731298185246"><ele>6.0</ele><time>2026-04-12T14:09:28.875Z</time></trkpt><trkpt lat="53.8055705934514" lon="14.615775767576155"><ele>6.0</ele><time>2026-04-12T14:09:29.875Z</time></trkpt><trkpt lat="53.80544061092846" lon="14.615798862250413"><ele>6.0</ele><time>2026-04-12T14:09:30.875Z</time></trkpt><trkpt lat="53.8053129846508" lon="14.615810146896301"><ele>6.0</ele><time>2026-04-12T14:09:31.875Z</time></trkpt><trkpt lat="53.805173804982175" lon="14.615816724469868"><ele>6.0</ele><time>2026-04-12T14:09:32.875Z</time></trkpt><trkpt lat="53.80504286593466" lon="14.615823153848138"><ele>6.0</ele><time>2026-04-12T14:09:33.875Z</time></trkpt><trkpt lat="53.80490111326995" lon="14.61581451709201"><ele>6.0</ele><time>2026-04-12T14:09:34.875Z</time></trkpt><trkpt lat="53.804774077861914" lon="14.615787868832042"><ele>6.0</ele><time>2026-04-12T14:09:35.875Z</time></trkpt><trkpt lat="53.804660027314036" lon="14.61577996849532"><ele>6.0</ele><time>2026-04-12T14:09:36.875Z</time></trkpt><trkpt lat="53.80452620268182" lon="14.615770698391541"><ele>6.0</ele><time>2026-04-12T14:09:37.875Z</time></trkpt><trkpt lat="53.804395235478594" lon="14.615768205919096"><ele>6.0</ele><time>2026-04-12T14:09:38.875Z</time></trkpt><trkpt lat="53.80427812899599" lon="14.615782150645153"><ele>6.0</ele><time>2026-04-12T14:09:39.875Z</time></trkpt><trkpt lat="53.804161954928745" lon="14.615813099145415"><ele>6.0</ele><time>2026-04-12T14:09:40.875Z</time></trkpt><trkpt lat="53.804058188210554" lon="14.615857639479668"><ele>5.75</ele><time>2026-04-12T14:09:41.875Z</time></trkpt><trkpt lat="53.80394554421948" lon="14.615850733175524"><ele>5.5</ele><time>2026-04-12T14:09:42.875Z</time></trkpt><trkpt lat="53.80383944972989" lon="14.615758049590484"><ele>5.25</ele><time>2026-04-12T14:09:43.875Z</time></trkpt><trkpt lat="53.80372691174552" lon="14.615673055133492"><ele>5.0</ele><time>2026-04-12T14:09:44.875Z</time></trkpt><trkpt lat="53.803593769113185" lon="14.615572115028739"><ele>4.25</ele><time>2026-04-12T14:09:45.875Z</time></trkpt><trkpt lat="53.803443816437536" lon="14.615458805797179"><ele>3.5</ele><time>2026-04-12T14:09:46.875Z</time></trkpt><trkpt lat="53.80331179201032" lon="14.615355671256868"><ele>2.75</ele><time>2026-04-12T14:09:47.875Z</time></trkpt><trkpt lat="53.803197959099734" lon="14.615265455549261"><ele>2.0</ele><time>2026-04-12T14:09:48.875Z</time></trkpt><trkpt lat="53.80307728230966" lon="14.615180721815909"><ele>2.0</ele><time>2026-04-12T14:09:49.875Z</time></trkpt><trkpt lat="53.802941059987276" lon="14.615081816995009"><ele>2.0</ele><time>2026-04-12T14:09:50.875Z</time></trkpt><trkpt lat="53.802830282601704" lon="14.615002794957565"><ele>2.0</ele><time>2026-04-12T14:09:51.875Z</time></trkpt><trkpt lat="53.80273002398593" lon="14.614903750386103"><ele>2.0</ele><time>2026-04-12T14:09:52.875Z</time></trkpt><trkpt lat="53.80262455969936" lon="14.614844446135157"><ele>3.25</ele><time>2026-04-12T14:09:53.875Z</time></trkpt><trkpt lat="53.80248691646193" lon="14.614820603181252"><ele>4.5</ele><time>2026-04-12T14:09:54.876Z</time></trkpt><trkpt lat="53.8023521941439" lon="14.614775808362241"><ele>5.75</ele><time>2026-04-12T14:09:55.876Z</time></trkpt><trkpt lat="53.8022025673641" lon="14.614741133176281"><ele>7.0</ele><time>2026-04-12T14:09:56.876Z</time></trkpt><trkpt lat="53.802054317728505" lon="14.614741478487291"><ele>7.0</ele><time>2026-04-12T14:09:57.876Z</time></trkpt><trkpt lat="53.80192785057857" lon="14.614710264983648"><ele>7.0</ele><time>2026-04-12T14:09:58.876Z</time></trkpt><trkpt lat="53.801813596336125" lon="14.614700316041663"><ele>7.0</ele><time>2026-04-12T14:09:59.876Z</time></trkpt><trkpt lat="53.8016888410893" lon="14.614694844101923"><ele>7.0</ele><time>2026-04-12T14:10:00.876Z</time></trkpt><trkpt lat="53.80154341299542" lon="14.614698630638296"><ele>7.0</ele><time>2026-04-12T14:10:01.876Z</time></trkpt><trkpt lat="53.801413851179056" lon="14.61470520080035"><ele>7.0</ele><time>2026-04-12T14:10:02.876Z</time></trkpt><trkpt lat="53.8012881519674" lon="14.614715059346837"><ele>7.0</ele><time>2026-04-12T14:10:03.876Z</time></trkpt><trkpt lat="53.80116213005856" lon="14.6147323886346"><ele>7.0</ele><time>2026-04-12T14:10:04.876Z</time></trkpt><trkpt lat="53.801037834223" lon="14.614743857493151"><ele>6.0</ele><time>2026-04-12T14:10:05.876Z</time></trkpt><trkpt lat="53.800919718417916" lon="14.614751669137354"><ele>5.0</ele><time>2026-04-12T14:10:06.876Z</time></trkpt><trkpt lat="53.80078794058911" lon="14.614752575336118"><ele>4.0</ele><time>2026-04-12T14:10:07.876Z</time></trkpt><trkpt lat="53.80067031831759" lon="14.61473173648346"><ele>3.0</ele><time>2026-04-12T14:10:08.876Z</time></trkpt><trkpt lat="53.800544874047354" lon="14.614740573451451"><ele>3.0</ele><time>2026-04-12T14:10:09.876Z</time></trkpt><trkpt lat="53.80040948968684" lon="14.614745605570226"><ele>3.0</ele><time>2026-04-12T14:10:10.876Z</time></trkpt><trkpt lat="53.80029292169456" lon="14.614752818204275"><ele>3.0</ele><time>2026-04-12T14:10:11.876Z</time></trkpt><trkpt lat="53.800159135452944" lon="14.614758616776275"><ele>3.0</ele><time>2026-04-12T14:10:12.876Z</time></trkpt><trkpt lat="53.8000214282699" lon="14.614758240908499"><ele>2.75</ele><time>2026-04-12T14:10:13.876Z</time></trkpt><trkpt lat="53.7998986080421" lon="14.614761277118202"><ele>2.5</ele><time>2026-04-12T14:10:14.876Z</time></trkpt><trkpt lat="53.79977488152813" lon="14.614769248354264"><ele>2.25</ele><time>2026-04-12T14:10:15.876Z</time></trkpt><trkpt lat="53.799636813783046" lon="14.614758513403366"><ele>2.0</ele><time>2026-04-12T14:10:16.876Z</time></trkpt><trkpt lat="53.799510761056" lon="14.614765917141252"><ele>2.0</ele><time>2026-04-12T14:10:17.876Z</time></trkpt><trkpt lat="53.799405446820856" lon="14.614761849111284"><ele>2.0</ele><time>2026-04-12T14:10:18.876Z</time></trkpt><trkpt lat="53.7992839856748" lon="14.614764975319204"><ele>2.0</ele><time>2026-04-12T14:10:19.874Z</time></trkpt><trkpt lat="53.799143673260566" lon="14.61476492894274"><ele>2.0</ele><time>2026-04-12T14:10:20.874Z</time></trkpt><trkpt lat="53.79901394946137" lon="14.614774485308484"><ele>2.25</ele><time>2026-04-12T14:10:21.874Z</time></trkpt><trkpt lat="53.798882170482344" lon="14.614755224243305"><ele>2.5</ele><time>2026-04-12T14:10:22.875Z</time></trkpt><trkpt lat="53.79872499283621" lon="14.614750286948293"><ele>2.75</ele><time>2026-04-12T14:10:23.874Z</time></trkpt><trkpt lat="53.79856792919526" lon="14.614744542490493"><ele>3.0</ele><time>2026-04-12T14:10:24.874Z</time></trkpt><trkpt lat="53.79843569616283" lon="14.614741847496477"><ele>3.0</ele><time>2026-04-12T14:10:25.875Z</time></trkpt><trkpt lat="53.79830765366233" lon="14.614742508296645"><ele>3.0</ele><time>2026-04-12T14:10:26.874Z</time></trkpt><trkpt lat="53.79816805913489" lon="14.614743594469964"><ele>3.0</ele><time>2026-04-12T14:10:27.874Z</time></trkpt><trkpt lat="53.79803470450326" lon="14.614772770925466"><ele>3.0</ele><time>2026-04-12T14:10:28.874Z</time></trkpt><trkpt lat="53.797917615969574" lon="14.614760920120954"><ele>3.0</ele><time>2026-04-12T14:10:29.874Z</time></trkpt><trkpt lat="53.79780608682423" lon="14.614771813134295"><ele>3.0</ele><time>2026-04-12T14:10:30.874Z</time></trkpt><trkpt lat="53.79770287449616" lon="14.61477387439289"><ele>3.0</ele><time>2026-04-12T14:10:31.874Z</time></trkpt><trkpt lat="53.79760590011078" lon="14.61477697634874"><ele>3.0</ele><time>2026-04-12T14:10:32.874Z</time></trkpt><trkpt lat="53.797509901721654" lon="14.614768198332067"><ele>3.0</ele><time>2026-04-12T14:10:33.874Z</time></trkpt><trkpt lat="53.79741482856937" lon="14.614740522756604"><ele>3.0</ele><time>2026-04-12T14:10:34.874Z</time></trkpt><trkpt lat="53.797295659525574" lon="14.614731257759676"><ele>3.0</ele><time>2026-04-12T14:10:35.874Z</time></trkpt><trkpt lat="53.797156654298355" lon="14.61473337291067"><ele>3.0</ele><time>2026-04-12T14:10:36.874Z</time></trkpt><trkpt lat="53.796999905529205" lon="14.61474407957645"><ele>3.0</ele><time>2026-04-12T14:10:37.874Z</time></trkpt><trkpt lat="53.796822249891655" lon="14.614749895881952"><ele>3.333333333333333</ele><time>2026-04-12T14:10:38.874Z</time></trkpt><trkpt lat="53.79664556266502" lon="14.61476141399297"><ele>3.6666666666666665</ele><time>2026-04-12T14:10:39.874Z</time></trkpt><trkpt lat="53.79648207553476" lon="14.614761299793464"><ele>4.0</ele><time>2026-04-12T14:10:40.874Z</time></trkpt><trkpt lat="53.796321025085696" lon="14.614770017647926"><ele>4.0</ele><time>2026-04-12T14:10:41.874Z</time></trkpt><trkpt lat="53.796170242056064" lon="14.614782899364224"><ele>4.0</ele><time>2026-04-12T14:10:42.874Z</time></trkpt><trkpt lat="53.796031118413154" lon="14.61478793346607"><ele>4.0</ele><time>2026-04-12T14:10:43.874Z</time></trkpt><trkpt lat="53.79589967472179" lon="14.614799630500137"><ele>4.0</ele><time>2026-04-12T14:10:44.874Z</time></trkpt><trkpt lat="53.79578311855017" lon="14.61480575002307"><ele>4.2</ele><time>2026-04-12T14:10:45.874Z</time></trkpt><trkpt lat="53.79568909576162" lon="14.614780961430759"><ele>4.4</ele><time>2026-04-12T14:10:46.874Z</time></trkpt><trkpt lat="53.79559635555784" lon="14.614784096619347"><ele>4.6</ele><time>2026-04-12T14:10:47.874Z</time></trkpt><trkpt lat="53.795497594186486" lon="14.614787726357784"><ele>4.8</ele><time>2026-04-12T14:10:48.874Z</time></trkpt><trkpt lat="53.79537652138201" lon="14.614792591859924"><ele>5.0</ele><time>2026-04-12T14:10:49.874Z</time></trkpt><trkpt lat="53.79525334977164" lon="14.614823349535515"><ele>4.75</ele><time>2026-04-12T14:10:50.874Z</time></trkpt><trkpt lat="53.79512161247917" lon="14.614803693001214"><ele>4.5</ele><time>2026-04-12T14:10:51.874Z</time></trkpt><trkpt lat="53.79499593664862" lon="14.61481236323324"><ele>4.25</ele><time>2026-04-12T14:10:52.874Z</time></trkpt><trkpt lat="53.79487655567965" lon="14.614827951477881"><ele>4.0</ele><time>2026-04-12T14:10:53.874Z</time></trkpt><trkpt lat="53.79475656195781" lon="14.614843822985886"><ele>4.0</ele><time>2026-04-12T14:10:54.874Z</time></trkpt><trkpt lat="53.79464178495707" lon="14.614837492480426"><ele>4.0</ele><time>2026-04-12T14:10:55.874Z</time></trkpt><trkpt lat="53.79454307151475" lon="14.61484270397459"><ele>4.0</ele><time>2026-04-12T14:10:56.874Z</time></trkpt><trkpt lat="53.79443325963471" lon="14.614853095001948"><ele>4.0</ele><time>2026-04-12T14:10:57.874Z</time></trkpt><trkpt lat="53.794308920755284" lon="14.61485454414902"><ele>4.0</ele><time>2026-04-12T14:10:58.874Z</time></trkpt><trkpt lat="53.79419056399837" lon="14.61483421198353"><ele>4.0</ele><time>2026-04-12T14:10:59.874Z</time></trkpt><trkpt lat="53.794078752532485" lon="14.614845816228447"><ele>4.0</ele><time>2026-04-12T14:11:00.874Z</time></trkpt><trkpt lat="53.79396778482479" lon="14.614841854298678"><ele>4.0</ele><time>2026-04-12T14:11:01.874Z</time></trkpt><trkpt lat="53.79384459214873" lon="14.614851547743601"><ele>4.0</ele><time>2026-04-12T14:11:02.874Z</time></trkpt><trkpt lat="53.79373097554785" lon="14.614855186671166"><ele>4.0</ele><time>2026-04-12T14:11:03.874Z</time></trkpt><trkpt lat="53.79361507065386" lon="14.614855444748363"><ele>4.0</ele><time>2026-04-12T14:11:04.874Z</time></trkpt><trkpt lat="53.793483860250944" lon="14.614858912828444"><ele>4.0</ele><time>2026-04-12T14:11:05.874Z</time></trkpt><trkpt lat="53.793354650312295" lon="14.614863309761882"><ele>4.0</ele><time>2026-04-12T14:11:06.874Z</time></trkpt><trkpt lat="53.79322543048733" lon="14.614841764178758"><ele>3.75</ele><time>2026-04-12T14:11:07.874Z</time></trkpt><trkpt lat="53.7931045697052" lon="14.61484749044232"><ele>3.5</ele><time>2026-04-12T14:11:08.874Z</time></trkpt><trkpt lat="53.79298874499705" lon="14.61486154510364"><ele>3.25</ele><time>2026-04-12T14:11:09.874Z</time></trkpt><trkpt lat="53.79286717102379" lon="14.614866449166207"><ele>3.0</ele><time>2026-04-12T14:11:10.874Z</time></trkpt><trkpt lat="53.79274847148662" lon="14.614863896455113"><ele>3.0</ele><time>2026-04-12T14:11:11.874Z</time></trkpt><trkpt lat="53.792661733322625" lon="14.614843686533296"><ele>3.0</ele><time>2026-04-12T14:11:12.874Z</time></trkpt><trkpt lat="53.7925440289398" lon="14.61487194272278"><ele>3.0</ele><time>2026-04-12T14:11:13.874Z</time></trkpt><trkpt lat="53.79243052935434" lon="14.614945423235294"><ele>3.0</ele><time>2026-04-12T14:11:14.874Z</time></trkpt><trkpt lat="53.792318433039625" lon="14.615006373651283"><ele>3.0</ele><time>2026-04-12T14:11:15.874Z</time></trkpt><trkpt lat="53.79219003611213" lon="14.615083720026682"><ele>3.0</ele><time>2026-04-12T14:11:16.874Z</time></trkpt><trkpt lat="53.79203603451318" lon="14.615171746493685"><ele>3.0</ele><time>2026-04-12T14:11:17.874Z</time></trkpt><trkpt lat="53.791882415854346" lon="14.615282515498397"><ele>3.0</ele><time>2026-04-12T14:11:18.874Z</time></trkpt><trkpt lat="53.79174838053086" lon="14.615388165882003"><ele>3.0</ele><time>2026-04-12T14:11:19.874Z</time></trkpt><trkpt lat="53.791595006114406" lon="14.615471139955407"><ele>3.0</ele><time>2026-04-12T14:11:20.874Z</time></trkpt><trkpt lat="53.79146895174538" lon="14.615572823598274"><ele>3.0</ele><time>2026-04-12T14:11:21.874Z</time></trkpt><trkpt lat="53.79133988791372" lon="14.615678702675604"><ele>3.0</ele><time>2026-04-12T14:11:22.874Z</time></trkpt><trkpt lat="53.79121922877589" lon="14.615789302652342"><ele>3.0</ele><time>2026-04-12T14:11:23.874Z</time></trkpt><trkpt lat="53.79108846992643" lon="14.615911083624502"><ele>3.0</ele><time>2026-04-12T14:11:24.874Z</time></trkpt><trkpt lat="53.79095562528931" lon="14.616036167158997"><ele>3.0</ele><time>2026-04-12T14:11:25.874Z</time></trkpt><trkpt lat="53.7908204363264" lon="14.61615285781693"><ele>3.0</ele><time>2026-04-12T14:11:26.874Z</time></trkpt><trkpt lat="53.79069276557033" lon="14.61623087956858"><ele>3.0</ele><time>2026-04-12T14:11:27.874Z</time></trkpt><trkpt lat="53.79054408655486" lon="14.61635683247088"><ele>3.0</ele><time>2026-04-12T14:11:28.874Z</time></trkpt><trkpt lat="53.79041538600312" lon="14.616467178598695"><ele>3.0</ele><time>2026-04-12T14:11:29.874Z</time></trkpt><trkpt lat="53.79029581501124" lon="14.616571598877778"><ele>3.0</ele><time>2026-04-12T14:11:30.874Z</time></trkpt><trkpt lat="53.79015197940613" lon="14.616698889361238"><ele>3.0</ele><time>2026-04-12T14:11:31.874Z</time></trkpt><trkpt lat="53.79002294343307" lon="14.616816180008907"><ele>3.0</ele><time>2026-04-12T14:11:32.874Z</time></trkpt><trkpt lat="53.78987986707809" lon="14.61695219414662"><ele>3.25</ele><time>2026-04-12T14:11:33.874Z</time></trkpt><trkpt lat="53.7897597127499" lon="14.617104304496072"><ele>3.5</ele><time>2026-04-12T14:11:34.874Z</time></trkpt><trkpt lat="53.78965913885501" lon="14.617199118393517"><ele>3.75</ele><time>2026-04-12T14:11:35.874Z</time></trkpt><trkpt lat="53.78954752888743" lon="14.617303008483603"><ele>4.0</ele><time>2026-04-12T14:11:36.874Z</time></trkpt><trkpt lat="53.7894401075936" lon="14.617419806796939"><ele>4.25</ele><time>2026-04-12T14:11:37.874Z</time></trkpt><trkpt lat="53.789316847032204" lon="14.61754831081422"><ele>4.5</ele><time>2026-04-12T14:11:38.874Z</time></trkpt><trkpt lat="53.78920174089226" lon="14.61768296276189"><ele>4.75</ele><time>2026-04-12T14:11:39.874Z</time></trkpt><trkpt lat="53.78907244510994" lon="14.617787600031411"><ele>5.0</ele><time>2026-04-12T14:11:40.874Z</time></trkpt><trkpt lat="53.78893974291749" lon="14.617921769428422"><ele>5.0</ele><time>2026-04-12T14:11:41.874Z</time></trkpt><trkpt lat="53.788808033293826" lon="14.61807543938057"><ele>5.0</ele><time>2026-04-12T14:11:42.874Z</time></trkpt><trkpt lat="53.7886723227864" lon="14.618188956250412"><ele>5.0</ele><time>2026-04-12T14:11:43.874Z</time></trkpt><trkpt lat="53.78855251540995" lon="14.618303656391317"><ele>5.0</ele><time>2026-04-12T14:11:44.874Z</time></trkpt><trkpt lat="53.78843783546996" lon="14.618409605151838"><ele>5.0</ele><time>2026-04-12T14:11:45.874Z</time></trkpt><trkpt lat="53.78831603164018" lon="14.618549512329057"><ele>5.0</ele><time>2026-04-12T14:11:46.874Z</time></trkpt><trkpt lat="53.78819853204313" lon="14.618610534155213"><ele>5.0</ele><time>2026-04-12T14:11:47.874Z</time></trkpt><trkpt lat="53.78810380104307" lon="14.618731158640298"><ele>5.0</ele><time>2026-04-12T14:11:48.874Z</time></trkpt><trkpt lat="53.78800634483034" lon="14.618850386031118"><ele>5.0</ele><time>2026-04-12T14:11:49.874Z</time></trkpt><trkpt lat="53.78788436008251" lon="14.61899775784432"><ele>5.0</ele><time>2026-04-12T14:11:50.874Z</time></trkpt><trkpt lat="53.78775432084718" lon="14.619110265608661"><ele>5.0</ele><time>2026-04-12T14:11:51.874Z</time></trkpt><trkpt lat="53.78762807904046" lon="14.619255006625298"><ele>5.0</ele><time>2026-04-12T14:11:52.874Z</time></trkpt><trkpt lat="53.78750515324913" lon="14.619387935182488"><ele>5.0</ele><time>2026-04-12T14:11:53.874Z</time></trkpt><trkpt lat="53.787374978943625" lon="14.619524817808463"><ele>5.0</ele><time>2026-04-12T14:11:54.874Z</time></trkpt><trkpt lat="53.7872498852645" lon="14.619655346827857"><ele>5.0</ele><time>2026-04-12T14:11:55.874Z</time></trkpt><trkpt lat="53.78712473526985" lon="14.619786078259523"><ele>5.0</ele><time>2026-04-12T14:11:56.874Z</time></trkpt><trkpt lat="53.78700549998277" lon="14.619912632388465"><ele>5.0</ele><time>2026-04-12T14:11:57.874Z</time></trkpt><trkpt lat="53.78689668472502" lon="14.620032159688739"><ele>5.0</ele><time>2026-04-12T14:11:58.874Z</time></trkpt><trkpt lat="53.78680172262302" lon="14.620142589621622"><ele>5.0</ele><time>2026-04-12T14:11:59.874Z</time></trkpt><trkpt lat="53.786708018185294" lon="14.620245912314719"><ele>5.0</ele><time>2026-04-12T14:12:00.874Z</time></trkpt><trkpt lat="53.78661704159889" lon="14.620343038797358"><ele>4.833333333333334</ele><time>2026-04-12T14:12:01.874Z</time></trkpt><trkpt lat="53.786534809177645" lon="14.620423677545418"><ele>4.666666666666667</ele><time>2026-04-12T14:12:02.874Z</time></trkpt><trkpt lat="53.78645472262019" lon="14.620506591702314"><ele>4.5</ele><time>2026-04-12T14:12:03.874Z</time></trkpt><trkpt lat="53.78638554142436" lon="14.620579649822327"><ele>4.333333333333333</ele><time>2026-04-12T14:12:04.874Z</time></trkpt><trkpt lat="53.78631594557103" lon="14.620651256646884"><ele>4.166666666666666</ele><time>2026-04-12T14:12:05.874Z</time></trkpt><trkpt lat="53.78624901272354" lon="14.620724729563454"><ele>4.0</ele><time>2026-04-12T14:12:06.874Z</time></trkpt><trkpt lat="53.78617352053324" lon="14.62080141182071"><ele>4.0</ele><time>2026-04-12T14:12:07.874Z</time></trkpt><trkpt lat="53.78609508716625" lon="14.620881644322509"><ele>4.0</ele><time>2026-04-12T14:12:08.874Z</time></trkpt><trkpt lat="53.786013769893174" lon="14.620962394413366"><ele>4.0</ele><time>2026-04-12T14:12:09.874Z</time></trkpt><trkpt lat="53.78593179613191" lon="14.621041165939948"><ele>4.0</ele><time>2026-04-12T14:12:10.874Z</time></trkpt><trkpt lat="53.78584495805782" lon="14.62112516177409"><ele>4.0</ele><time>2026-04-12T14:12:11.874Z</time></trkpt><trkpt lat="53.785758195365354" lon="14.62121705727921"><ele>3.8000000000000003</ele><time>2026-04-12T14:12:12.874Z</time></trkpt><trkpt lat="53.785664650369235" lon="14.62131081185687"><ele>3.6000000000000005</ele><time>2026-04-12T14:12:13.874Z</time></trkpt><trkpt lat="53.78556759123801" lon="14.621400254633263"><ele>3.4</ele><time>2026-04-12T14:12:14.874Z</time></trkpt><trkpt lat="53.7854748626368" lon="14.621487938377802"><ele>3.2</ele><time>2026-04-12T14:12:15.874Z</time></trkpt><trkpt lat="53.78538512993069" lon="14.621570919299023"><ele>3.0</ele><time>2026-04-12T14:12:16.874Z</time></trkpt><trkpt lat="53.78529948167688" lon="14.621652549684285"><ele>3.0</ele><time>2026-04-12T14:12:17.874Z</time></trkpt><trkpt lat="53.785213844288045" lon="14.621734489034848"><ele>3.0</ele><time>2026-04-12T14:12:18.874Z</time></trkpt><trkpt lat="53.78512301338542" lon="14.621817289086852"><ele>3.0</ele><time>2026-04-12T14:12:19.874Z</time></trkpt><trkpt lat="53.7850316500179" lon="14.621898262039966"><ele>3.0</ele><time>2026-04-12T14:12:20.874Z</time></trkpt><trkpt lat="53.78493944649125" lon="14.62198915913406"><ele>3.0</ele><time>2026-04-12T14:12:21.874Z</time></trkpt><trkpt lat="53.78484435756188" lon="14.622084030945203"><ele>3.0</ele><time>2026-04-12T14:12:22.874Z</time></trkpt><trkpt lat="53.7847412276069" lon="14.622156985076517"><ele>3.0</ele><time>2026-04-12T14:12:23.875Z</time></trkpt><trkpt lat="53.784647452203394" lon="14.62225506490573"><ele>3.0</ele><time>2026-04-12T14:12:24.875Z</time></trkpt><trkpt lat="53.7845563009517" lon="14.62235605643183"><ele>3.0</ele><time>2026-04-12T14:12:25.874Z</time></trkpt><trkpt lat="53.78446504125722" lon="14.62246434989027"><ele>3.0</ele><time>2026-04-12T14:12:26.873Z</time></trkpt><trkpt lat="53.78438270259871" lon="14.622604354179176"><ele>3.0</ele><time>2026-04-12T14:12:27.873Z</time></trkpt><trkpt lat="53.784296718871346" lon="14.622735802691336"><ele>3.0</ele><time>2026-04-12T14:12:28.874Z</time></trkpt><trkpt lat="53.7842162824007" lon="14.622888170070313"><ele>3.0</ele><time>2026-04-12T14:12:29.873Z</time></trkpt><trkpt lat="53.7841247425854" lon="14.623037553674244"><ele>3.0</ele><time>2026-04-12T14:12:30.873Z</time></trkpt><trkpt lat="53.78405161693582" lon="14.623209703039272"><ele>3.0</ele><time>2026-04-12T14:12:31.874Z</time></trkpt><trkpt lat="53.783978659055535" lon="14.623384965307258"><ele>3.0</ele><time>2026-04-12T14:12:32.873Z</time></trkpt><trkpt lat="53.783904256293305" lon="14.623566889389963"><ele>3.0</ele><time>2026-04-12T14:12:33.873Z</time></trkpt><trkpt lat="53.78383342399558" lon="14.623744967874554"><ele>3.0</ele><time>2026-04-12T14:12:34.873Z</time></trkpt><trkpt lat="53.78376074037354" lon="14.623938556763587"><ele>3.25</ele><time>2026-04-12T14:12:35.874Z</time></trkpt><trkpt lat="53.78369353473097" lon="14.624137621326412"><ele>3.5</ele><time>2026-04-12T14:12:36.874Z</time></trkpt><trkpt lat="53.78363089603701" lon="14.62434543826465"><ele>3.75</ele><time>2026-04-12T14:12:37.873Z</time></trkpt><trkpt lat="53.78358123600433" lon="14.624568474084818"><ele>4.0</ele><time>2026-04-12T14:12:38.874Z</time></trkpt><trkpt lat="53.783508666916944" lon="14.624781613903211"><ele>4.0</ele><time>2026-04-12T14:12:39.874Z</time></trkpt><trkpt lat="53.783446971909406" lon="14.624991863542528"><ele>4.0</ele><time>2026-04-12T14:12:40.874Z</time></trkpt><trkpt lat="53.78339059158231" lon="14.625207720356862"><ele>4.0</ele><time>2026-04-12T14:12:41.874Z</time></trkpt><trkpt lat="53.783307103089875" lon="14.625405917506598"><ele>4.0</ele><time>2026-04-12T14:12:42.874Z</time></trkpt><trkpt lat="53.78322401927403" lon="14.625581642566654"><ele>5.25</ele><time>2026-04-12T14:12:43.874Z</time></trkpt><trkpt lat="53.783127785147855" lon="14.62572559927083"><ele>6.5</ele><time>2026-04-12T14:12:44.874Z</time></trkpt><trkpt lat="53.78303772342461" lon="14.625873268901605"><ele>7.75</ele><time>2026-04-12T14:12:45.874Z</time></trkpt><trkpt lat="53.78294890735778" lon="14.62602532729554"><ele>9.0</ele><time>2026-04-12T14:12:46.874Z</time></trkpt><trkpt lat="53.782876672621256" lon="14.626198607550895"><ele>10.0</ele><time>2026-04-12T14:12:47.874Z</time></trkpt><trkpt lat="53.78279736288315" lon="14.626357026978228"><ele>11.0</ele><time>2026-04-12T14:12:48.874Z</time></trkpt><trkpt lat="53.7827247900958" lon="14.626515611144564"><ele>12.0</ele><time>2026-04-12T14:12:49.874Z</time></trkpt><trkpt lat="53.78265690244104" lon="14.626688272626945"><ele>13.0</ele><time>2026-04-12T14:12:50.874Z</time></trkpt><trkpt lat="53.78260104039635" lon="14.626883448266053"><ele>11.75</ele><time>2026-04-12T14:12:51.874Z</time></trkpt><trkpt lat="53.78255611719553" lon="14.62708764090163"><ele>10.5</ele><time>2026-04-12T14:12:52.874Z</time></trkpt><trkpt lat="53.78251839726499" lon="14.627303723058064"><ele>9.25</ele><time>2026-04-12T14:12:53.874Z</time></trkpt><trkpt lat="53.78246367841041" lon="14.627504390323201"><ele>8.0</ele><time>2026-04-12T14:12:54.874Z</time></trkpt><trkpt lat="53.78244020564362" lon="14.627727966655298"><ele>9.0</ele><time>2026-04-12T14:12:55.874Z</time></trkpt><trkpt lat="53.7824032713209" lon="14.627972387790455"><ele>10.0</ele><time>2026-04-12T14:12:56.874Z</time></trkpt><trkpt lat="53.7823718517923" lon="14.628241035137588"><ele>11.0</ele><time>2026-04-12T14:12:57.874Z</time></trkpt><trkpt lat="53.78235763488324" lon="14.628498651466215"><ele>11.25</ele><time>2026-04-12T14:12:58.874Z</time></trkpt><trkpt lat="53.78235038134073" lon="14.628737982713323"><ele>11.5</ele><time>2026-04-12T14:12:59.874Z</time></trkpt><trkpt lat="53.78233335741929" lon="14.628946111766252"><ele>11.75</ele><time>2026-04-12T14:13:00.874Z</time></trkpt><trkpt lat="53.782326780917344" lon="14.629154150076731"><ele>12.0</ele><time>2026-04-12T14:13:01.874Z</time></trkpt><trkpt lat="53.78232640980209" lon="14.629372861606198"><ele>12.0</ele><time>2026-04-12T14:13:02.874Z</time></trkpt><trkpt lat="53.782333708423494" lon="14.629596190521566"><ele>12.0</ele><time>2026-04-12T14:13:03.874Z</time></trkpt><trkpt lat="53.78234088825207" lon="14.629814064365943"><ele>12.0</ele><time>2026-04-12T14:13:04.874Z</time></trkpt><trkpt lat="53.78235058929867" lon="14.630027867830698"><ele>12.0</ele><time>2026-04-12T14:13:05.874Z</time></trkpt><trkpt lat="53.78236519618584" lon="14.630214155386142"><ele>12.0</ele><time>2026-04-12T14:13:06.874Z</time></trkpt><trkpt lat="53.78237116901557" lon="14.630369963224283"><ele>12.0</ele><time>2026-04-12T14:13:07.874Z</time></trkpt><trkpt lat="53.7823651026023" lon="14.630525793088617"><ele>12.0</ele><time>2026-04-12T14:13:08.874Z</time></trkpt><trkpt lat="53.78234705464086" lon="14.630689349768138"><ele>12.0</ele><time>2026-04-12T14:13:09.874Z</time></trkpt><trkpt lat="53.78233006377108" lon="14.630866643041818"><ele>12.0</ele><time>2026-04-12T14:13:10.874Z</time></trkpt><trkpt lat="53.78231070742858" lon="14.63104015929415"><ele>11.75</ele><time>2026-04-12T14:13:11.874Z</time></trkpt><trkpt lat="53.78229428299701" lon="14.631232346112583"><ele>11.5</ele><time>2026-04-12T14:13:12.874Z</time></trkpt><trkpt lat="53.78228261916529" lon="14.631423434626642"><ele>11.25</ele><time>2026-04-12T14:13:13.874Z</time></trkpt><trkpt lat="53.78227005345954" lon="14.631626316831452"><ele>11.0</ele><time>2026-04-12T14:13:14.874Z</time></trkpt><trkpt lat="53.78225953841219" lon="14.631830975944476"><ele>10.5</ele><time>2026-04-12T14:13:15.874Z</time></trkpt><trkpt lat="53.78224686027364" lon="14.632034537351828"><ele>10.0</ele><time>2026-04-12T14:13:16.874Z</time></trkpt><trkpt lat="53.78223107609984" lon="14.632242706479662"><ele>9.5</ele><time>2026-04-12T14:13:17.874Z</time></trkpt><trkpt lat="53.78221368299861" lon="14.632444818639437"><ele>9.0</ele><time>2026-04-12T14:13:18.874Z</time></trkpt><trkpt lat="53.7821678834023" lon="14.632654602732257"><ele>8.75</ele><time>2026-04-12T14:13:19.874Z</time></trkpt><trkpt lat="53.7821619441807" lon="14.63286841874152"><ele>8.5</ele><time>2026-04-12T14:13:20.874Z</time></trkpt><trkpt lat="53.78214332709528" lon="14.633083339582587"><ele>8.25</ele><time>2026-04-12T14:13:21.874Z</time></trkpt><trkpt lat="53.78212545311708" lon="14.63329705756158"><ele>8.0</ele><time>2026-04-12T14:13:22.874Z</time></trkpt><trkpt lat="53.7820875539927" lon="14.633516063329843"><ele>8.25</ele><time>2026-04-12T14:13:23.874Z</time></trkpt><trkpt lat="53.7820640851197" lon="14.63375054455034"><ele>8.5</ele><time>2026-04-12T14:13:24.874Z</time></trkpt><trkpt lat="53.782046869391394" lon="14.63397902104113"><ele>8.75</ele><time>2026-04-12T14:13:25.874Z</time></trkpt><trkpt lat="53.782032737431166" lon="14.63420009344172"><ele>9.0</ele><time>2026-04-12T14:13:26.874Z</time></trkpt><trkpt lat="53.78202829146514" lon="14.634418611822452"><ele>8.75</ele><time>2026-04-12T14:13:27.874Z</time></trkpt><trkpt lat="53.78199291191664" lon="14.634628828588143"><ele>8.5</ele><time>2026-04-12T14:13:28.874Z</time></trkpt><trkpt lat="53.78196072973573" lon="14.634844126784795"><ele>8.25</ele><time>2026-04-12T14:13:29.874Z</time></trkpt><trkpt lat="53.78192654040967" lon="14.635056491994646"><ele>8.0</ele><time>2026-04-12T14:13:30.874Z</time></trkpt><trkpt lat="53.78189229289176" lon="14.63526027404464"><ele>8.0</ele><time>2026-04-12T14:13:31.874Z</time></trkpt><trkpt lat="53.78187070899165" lon="14.635465197352612"><ele>8.0</ele><time>2026-04-12T14:13:32.874Z</time></trkpt><trkpt lat="53.78182926251083" lon="14.635660989284466"><ele>8.0</ele><time>2026-04-12T14:13:33.874Z</time></trkpt><trkpt lat="53.781782929534266" lon="14.635851024078033"><ele>8.0</ele><time>2026-04-12T14:13:34.874Z</time></trkpt><trkpt lat="53.78175606073174" lon="14.636038094025585"><ele>7.4</ele><time>2026-04-12T14:13:35.874Z</time></trkpt><trkpt lat="53.781722489522835" lon="14.636215601939751"><ele>6.800000000000001</ele><time>2026-04-12T14:13:36.874Z</time></trkpt><trkpt lat="53.781679569961575" lon="14.636384895657676"><ele>6.2</ele><time>2026-04-12T14:13:37.874Z</time></trkpt><trkpt lat="53.78163752192713" lon="14.636543900796445"><ele>5.6</ele><time>2026-04-12T14:13:38.874Z</time></trkpt><trkpt lat="53.781594843803774" lon="14.636702873367398"><ele>5.0</ele><time>2026-04-12T14:13:39.874Z</time></trkpt><trkpt lat="53.78154211778803" lon="14.636834433179999"><ele>5.0</ele><time>2026-04-12T14:13:40.874Z</time></trkpt><trkpt lat="53.781517583054125" lon="14.636968171353852"><ele>5.0</ele><time>2026-04-12T14:13:41.874Z</time></trkpt><trkpt lat="53.78148123763796" lon="14.63709570626036"><ele>5.0</ele><time>2026-04-12T14:13:42.874Z</time></trkpt><trkpt lat="53.781454256899416" lon="14.637228030649752"><ele>5.0</ele><time>2026-04-12T14:13:43.874Z</time></trkpt><trkpt lat="53.78141724475535" lon="14.637339748230056"><ele>5.0</ele><time>2026-04-12T14:13:44.874Z</time></trkpt><trkpt lat="53.781384581491075" lon="14.637467183667635"><ele>5.0</ele><time>2026-04-12T14:13:45.874Z</time></trkpt><trkpt lat="53.78134377234992" lon="14.637619645276711"><ele>5.166666666666667</ele><time>2026-04-12T14:13:46.874Z</time></trkpt><trkpt lat="53.78130721247803" lon="14.637743089339917"><ele>5.333333333333334</ele><time>2026-04-12T14:13:47.874Z</time></trkpt><trkpt lat="53.781270255061564" lon="14.637831050068709"><ele>5.5</ele><time>2026-04-12T14:13:48.874Z</time></trkpt><trkpt lat="53.78121197722217" lon="14.63789070018318"><ele>5.666666666666667</ele><time>2026-04-12T14:13:49.874Z</time></trkpt><trkpt lat="53.781124274589004" lon="14.637909941564274"><ele>5.833333333333333</ele><time>2026-04-12T14:13:50.874Z</time></trkpt><trkpt lat="53.781033998718065" lon="14.637953930959073"><ele>6.0</ele><time>2026-04-12T14:13:51.874Z</time></trkpt><trkpt lat="53.78094666213869" lon="14.638028687136728"><ele>6.0</ele><time>2026-04-12T14:13:52.874Z</time></trkpt><trkpt lat="53.78084933198822" lon="14.638079050994243"><ele>6.0</ele><time>2026-04-12T14:13:53.874Z</time></trkpt><trkpt lat="53.780730741534725" lon="14.638120586962195"><ele>6.0</ele><time>2026-04-12T14:13:54.874Z</time></trkpt><trkpt lat="53.78063110002518" lon="14.638168648859644"><ele>6.0</ele><time>2026-04-12T14:13:55.874Z</time></trkpt><trkpt lat="53.7805430784263" lon="14.638224312305715"><ele>6.0</ele><time>2026-04-12T14:13:56.874Z</time></trkpt><trkpt lat="53.7804411946651" lon="14.638251402736948"><ele>6.0</ele><time>2026-04-12T14:13:57.874Z</time></trkpt><trkpt lat="53.780347463228175" lon="14.63829658925645"><ele>6.0</ele><time>2026-04-12T14:13:58.874Z</time></trkpt><trkpt lat="53.78023554976672" lon="14.638369981928461"><ele>6.0</ele><time>2026-04-12T14:13:59.874Z</time></trkpt><trkpt lat="53.78011920146426" lon="14.63842710718332"><ele>6.0</ele><time>2026-04-12T14:14:00.874Z</time></trkpt><trkpt lat="53.780001148536584" lon="14.638487137919645"><ele>5.75</ele><time>2026-04-12T14:14:01.874Z</time></trkpt><trkpt lat="53.77987301240337" lon="14.638548272890379"><ele>5.5</ele><time>2026-04-12T14:14:02.874Z</time></trkpt><trkpt lat="53.77972937443399" lon="14.638615363535592"><ele>5.25</ele><time>2026-04-12T14:14:03.874Z</time></trkpt><trkpt lat="53.779573218698694" lon="14.638662205080916"><ele>5.0</ele><time>2026-04-12T14:14:04.874Z</time></trkpt><trkpt lat="53.77942795641251" lon="14.63873195531334"><ele>5.0</ele><time>2026-04-12T14:14:05.874Z</time></trkpt><trkpt lat="53.779265536131774" lon="14.63880681115477"><ele>5.0</ele><time>2026-04-12T14:14:06.874Z</time></trkpt><trkpt lat="53.779104426066375" lon="14.638880060692054"><ele>5.0</ele><time>2026-04-12T14:14:07.874Z</time></trkpt><trkpt lat="53.77895419402606" lon="14.638948253398969"><ele>5.0</ele><time>2026-04-12T14:14:08.874Z</time></trkpt><trkpt lat="53.778781485622545" lon="14.639027325951366"><ele>5.0</ele><time>2026-04-12T14:14:09.874Z</time></trkpt><trkpt lat="53.778630093150795" lon="14.63909625840659"><ele>5.0</ele><time>2026-04-12T14:14:10.874Z</time></trkpt><trkpt lat="53.778486201489834" lon="14.639160209853133"><ele>4.333333333333334</ele><time>2026-04-12T14:14:11.874Z</time></trkpt><trkpt lat="53.778337639967944" lon="14.639225037404556"><ele>3.666666666666667</ele><time>2026-04-12T14:14:12.874Z</time></trkpt><trkpt lat="53.77819611809163" lon="14.63928443486366"><ele>3.0</ele><time>2026-04-12T14:14:13.874Z</time></trkpt><trkpt lat="53.778038166167214" lon="14.639350353979193"><ele>3.0</ele><time>2026-04-12T14:14:14.874Z</time></trkpt><trkpt lat="53.777899941304646" lon="14.639405549056908"><ele>3.0</ele><time>2026-04-12T14:14:15.874Z</time></trkpt><trkpt lat="53.77775711439074" lon="14.639463222448779"><ele>3.0</ele><time>2026-04-12T14:14:16.874Z</time></trkpt><trkpt lat="53.77762711777794" lon="14.639515714977808"><ele>3.0</ele><time>2026-04-12T14:14:17.875Z</time></trkpt><trkpt lat="53.777499124814085" lon="14.639567898127174"><ele>3.25</ele><time>2026-04-12T14:14:18.875Z</time></trkpt><trkpt lat="53.77736320475843" lon="14.639624290473867"><ele>3.5</ele><time>2026-04-12T14:14:19.875Z</time></trkpt><trkpt lat="53.77723882360711" lon="14.639675895407269"><ele>3.75</ele><time>2026-04-12T14:14:20.875Z</time></trkpt><trkpt lat="53.77711964275588" lon="14.639724961809584"><ele>4.0</ele><time>2026-04-12T14:14:21.875Z</time></trkpt><trkpt lat="53.7769904722803" lon="14.639776102592943"><ele>4.25</ele><time>2026-04-12T14:14:22.875Z</time></trkpt><trkpt lat="53.776848211527536" lon="14.639832810481241"><ele>4.5</ele><time>2026-04-12T14:14:23.875Z</time></trkpt><trkpt lat="53.776702332620886" lon="14.639920060970082"><ele>4.75</ele><time>2026-04-12T14:14:24.875Z</time></trkpt><trkpt lat="53.776557580681015" lon="14.639976678403443"><ele>5.0</ele><time>2026-04-12T14:14:25.875Z</time></trkpt><trkpt lat="53.776406556404424" lon="14.640036049540393"><ele>5.0</ele><time>2026-04-12T14:14:26.875Z</time></trkpt><trkpt lat="53.77626858651737" lon="14.640082373912218"><ele>5.0</ele><time>2026-04-12T14:14:27.875Z</time></trkpt><trkpt lat="53.77613288047282" lon="14.640139510492583"><ele>5.0</ele><time>2026-04-12T14:14:28.875Z</time></trkpt><trkpt lat="53.77598352164812" lon="14.640206411464263"><ele>5.0</ele><time>2026-04-12T14:14:29.875Z</time></trkpt><trkpt lat="53.77583216740481" lon="14.64027479498206"><ele>5.0</ele><time>2026-04-12T14:14:30.875Z</time></trkpt><trkpt lat="53.77570242346638" lon="14.640326291503877"><ele>5.0</ele><time>2026-04-12T14:14:31.874Z</time></trkpt><trkpt lat="53.77558624524446" lon="14.640369076089165"><ele>5.0</ele><time>2026-04-12T14:14:32.873Z</time></trkpt><trkpt lat="53.77547998984373" lon="14.640418226277122"><ele>5.0</ele><time>2026-04-12T14:14:33.873Z</time></trkpt><trkpt lat="53.77537709199751" lon="14.64045933696333"><ele>5.0</ele><time>2026-04-12T14:14:34.873Z</time></trkpt><trkpt lat="53.775253133982915" lon="14.64050590451499"><ele>5.0</ele><time>2026-04-12T14:14:35.873Z</time></trkpt><trkpt lat="53.77510181269211" lon="14.640512312226862"><ele>5.0</ele><time>2026-04-12T14:14:36.873Z</time></trkpt><trkpt lat="53.7749736286386" lon="14.640531281693294"><ele>5.0</ele><time>2026-04-12T14:14:37.873Z</time></trkpt><trkpt lat="53.77485681872605" lon="14.640574051602119"><ele>6.0</ele><time>2026-04-12T14:14:38.873Z</time></trkpt><trkpt lat="53.77472284603212" lon="14.640612131789904"><ele>7.0</ele><time>2026-04-12T14:14:39.873Z</time></trkpt><trkpt lat="53.77457238472648" lon="14.64067099352939"><ele>8.0</ele><time>2026-04-12T14:14:40.873Z</time></trkpt><trkpt lat="53.77444154089655" lon="14.640720797132575"><ele>9.0</ele><time>2026-04-12T14:14:41.873Z</time></trkpt><trkpt lat="53.77430779888132" lon="14.640758791942146"><ele>9.75</ele><time>2026-04-12T14:14:42.873Z</time></trkpt><trkpt lat="53.7741849134111" lon="14.640802696527448"><ele>10.5</ele><time>2026-04-12T14:14:43.873Z</time></trkpt><trkpt lat="53.774056683641845" lon="14.64085481649162"><ele>11.25</ele><time>2026-04-12T14:14:44.873Z</time></trkpt><trkpt lat="53.773909051239734" lon="14.640936513417786"><ele>12.0</ele><time>2026-04-12T14:14:45.873Z</time></trkpt><trkpt lat="53.77378611697217" lon="14.641046563710258"><ele>12.0</ele><time>2026-04-12T14:14:46.873Z</time></trkpt><trkpt lat="53.77367905205294" lon="14.64111925288991"><ele>12.0</ele><time>2026-04-12T14:14:47.873Z</time></trkpt><trkpt lat="53.773568114483886" lon="14.64118013717334"><ele>12.0</ele><time>2026-04-12T14:14:48.873Z</time></trkpt><trkpt lat="53.773455182609524" lon="14.641244955177049"><ele>12.0</ele><time>2026-04-12T14:14:49.873Z</time></trkpt><trkpt lat="53.77334543769075" lon="14.64132792787688"><ele>12.0</ele><time>2026-04-12T14:14:50.873Z</time></trkpt><trkpt lat="53.773238583200396" lon="14.641413460833727"><ele>12.0</ele><time>2026-04-12T14:14:51.873Z</time></trkpt><trkpt lat="53.77311556617565" lon="14.64147840653698"><ele>12.0</ele><time>2026-04-12T14:14:52.873Z</time></trkpt><trkpt lat="53.77299777317493" lon="14.641538501537262"><ele>12.0</ele><time>2026-04-12T14:14:53.873Z</time></trkpt><trkpt lat="53.772899793786046" lon="14.641666901916587"><ele>12.0</ele><time>2026-04-12T14:14:54.873Z</time></trkpt><trkpt lat="53.7727835489872" lon="14.641770647734749"><ele>12.0</ele><time>2026-04-12T14:14:55.873Z</time></trkpt><trkpt lat="53.7726732186946" lon="14.641859322567447"><ele>12.0</ele><time>2026-04-12T14:14:56.873Z</time></trkpt><trkpt lat="53.77256508205271" lon="14.64195111727647"><ele>12.0</ele><time>2026-04-12T14:14:57.873Z</time></trkpt><trkpt lat="53.77245501823221" lon="14.64202872383986"><ele>13.25</ele><time>2026-04-12T14:14:58.873Z</time></trkpt><trkpt lat="53.77232775788185" lon="14.642108160748087"><ele>14.5</ele><time>2026-04-12T14:14:59.873Z</time></trkpt><trkpt lat="53.77221680259428" lon="14.642153706296911"><ele>15.75</ele><time>2026-04-12T14:15:00.873Z</time></trkpt><trkpt lat="53.772109285260655" lon="14.642214583186373"><ele>17.0</ele><time>2026-04-12T14:15:01.873Z</time></trkpt><trkpt lat="53.7719870524758" lon="14.642305701371265"><ele>17.0</ele><time>2026-04-12T14:15:02.873Z</time></trkpt><trkpt lat="53.77188117620312" lon="14.642417795752484"><ele>17.0</ele><time>2026-04-12T14:15:03.873Z</time></trkpt><trkpt lat="53.77176739293089" lon="14.642528982631298"><ele>17.0</ele><time>2026-04-12T14:15:04.873Z</time></trkpt><trkpt lat="53.77163770894985" lon="14.642634835147005"><ele>17.0</ele><time>2026-04-12T14:15:05.873Z</time></trkpt><trkpt lat="53.77150361885299" lon="14.642710204410252"><ele>16.0</ele><time>2026-04-12T14:15:06.873Z</time></trkpt><trkpt lat="53.77138860090669" lon="14.642778500167095"><ele>15.0</ele><time>2026-04-12T14:15:07.873Z</time></trkpt><trkpt lat="53.771271654625146" lon="14.642847335192286"><ele>14.0</ele><time>2026-04-12T14:15:08.873Z</time></trkpt><trkpt lat="53.7711572584402" lon="14.642954833204996"><ele>13.0</ele><time>2026-04-12T14:15:09.873Z</time></trkpt><trkpt lat="53.771019662213924" lon="14.643055172504946"><ele>13.0</ele><time>2026-04-12T14:15:10.873Z</time></trkpt><trkpt lat="53.77088838359926" lon="14.643176079546096"><ele>13.0</ele><time>2026-04-12T14:15:11.873Z</time></trkpt><trkpt lat="53.770776159461924" lon="14.643270259271622"><ele>13.0</ele><time>2026-04-12T14:15:12.873Z</time></trkpt><trkpt lat="53.77069744838043" lon="14.643381091444445"><ele>13.0</ele><time>2026-04-12T14:15:13.873Z</time></trkpt><trkpt lat="53.770594093780055" lon="14.643478851492876"><ele>13.0</ele><time>2026-04-12T14:15:14.873Z</time></trkpt><trkpt lat="53.77049290631989" lon="14.643589275071916"><ele>13.0</ele><time>2026-04-12T14:15:15.873Z</time></trkpt><trkpt lat="53.77038978371067" lon="14.643689567096862"><ele>13.0</ele><time>2026-04-12T14:15:16.873Z</time></trkpt><trkpt lat="53.77028621224998" lon="14.64378565972874"><ele>13.0</ele><time>2026-04-12T14:15:17.873Z</time></trkpt><trkpt lat="53.77017314166621" lon="14.643883951491421"><ele>13.2</ele><time>2026-04-12T14:15:18.873Z</time></trkpt><trkpt lat="53.770073521317364" lon="14.643986940051224"><ele>13.4</ele><time>2026-04-12T14:15:19.873Z</time></trkpt><trkpt lat="53.76995047439669" lon="14.644045081770866"><ele>13.599999999999998</ele><time>2026-04-12T14:15:20.873Z</time></trkpt><trkpt lat="53.769860257047064" lon="14.644088738863688"><ele>13.799999999999999</ele><time>2026-04-12T14:15:21.873Z</time></trkpt><trkpt lat="53.76977541203012" lon="14.644112394541773"><ele>14.0</ele><time>2026-04-12T14:15:22.873Z</time></trkpt><trkpt lat="53.76968087729126" lon="14.644167797736038"><ele>14.0</ele><time>2026-04-12T14:15:23.873Z</time></trkpt><trkpt lat="53.769556325228486" lon="14.644165870357813"><ele>14.0</ele><time>2026-04-12T14:15:24.873Z</time></trkpt><trkpt lat="53.76944013053557" lon="14.644193826393886"><ele>14.0</ele><time>2026-04-12T14:15:25.873Z</time></trkpt><trkpt lat="53.76929574433127" lon="14.644270623974025"><ele>14.0</ele><time>2026-04-12T14:15:26.873Z</time></trkpt><trkpt lat="53.76915254435432" lon="14.644367313468447"><ele>14.0</ele><time>2026-04-12T14:15:27.873Z</time></trkpt><trkpt lat="53.76902477934318" lon="14.644439767812326"><ele>14.0</ele><time>2026-04-12T14:15:28.873Z</time></trkpt><trkpt lat="53.76889558205532" lon="14.644532081057335"><ele>14.0</ele><time>2026-04-12T14:15:29.873Z</time></trkpt><trkpt lat="53.76876532041395" lon="14.64457294628911"><ele>14.0</ele><time>2026-04-12T14:15:30.873Z</time></trkpt><trkpt lat="53.768650802428276" lon="14.644644058052037"><ele>14.0</ele><time>2026-04-12T14:15:31.873Z</time></trkpt><trkpt lat="53.7685442954957" lon="14.644750624205184"><ele>14.0</ele><time>2026-04-12T14:15:32.873Z</time></trkpt><trkpt lat="53.768428552452704" lon="14.644836134700984"><ele>14.0</ele><time>2026-04-12T14:15:33.873Z</time></trkpt><trkpt lat="53.76832369221805" lon="14.644943062704058"><ele>14.0</ele><time>2026-04-12T14:15:34.873Z</time></trkpt><trkpt lat="53.76822776033467" lon="14.645056071893755"><ele>14.0</ele><time>2026-04-12T14:15:35.873Z</time></trkpt><trkpt lat="53.768127645401435" lon="14.645124125513265"><ele>13.999999999999998</ele><time>2026-04-12T14:15:36.873Z</time></trkpt><trkpt lat="53.76802894918849" lon="14.645178764958889"><ele>13.999999999999998</ele><time>2026-04-12T14:15:37.873Z</time></trkpt><trkpt lat="53.76793946086554" lon="14.6452283211526"><ele>14.0</ele><time>2026-04-12T14:15:38.873Z</time></trkpt><trkpt lat="53.767865137480925" lon="14.645288479797047"><ele>14.0</ele><time>2026-04-12T14:15:39.873Z</time></trkpt><trkpt lat="53.767788510415656" lon="14.645414898586763"><ele>14.0</ele><time>2026-04-12T14:15:40.873Z</time></trkpt><trkpt lat="53.767704729569644" lon="14.645570101372217"><ele>14.0</ele><time>2026-04-12T14:15:41.873Z</time></trkpt><trkpt lat="53.76760386060375" lon="14.645656668547891"><ele>14.0</ele><time>2026-04-12T14:15:42.873Z</time></trkpt><trkpt lat="53.767502885898764" lon="14.645772759663647"><ele>14.0</ele><time>2026-04-12T14:15:43.873Z</time></trkpt><trkpt lat="53.76739738933443" lon="14.645884980614575"><ele>13.0</ele><time>2026-04-12T14:15:44.873Z</time></trkpt><trkpt lat="53.767316421623626" lon="14.64601049331856"><ele>11.999999999999998</ele><time>2026-04-12T14:15:45.873Z</time></trkpt><trkpt lat="53.767216039492936" lon="14.646117209501128"><ele>11.0</ele><time>2026-04-12T14:15:46.873Z</time></trkpt><trkpt lat="53.7671204973197" lon="14.646166419988418"><ele>10.0</ele><time>2026-04-12T14:15:47.873Z</time></trkpt><trkpt lat="53.76702826609615" lon="14.646230876400319"><ele>9.0</ele><time>2026-04-12T14:15:48.873Z</time></trkpt><trkpt lat="53.76693983504539" lon="14.646350485097988"><ele>9.0</ele><time>2026-04-12T14:15:49.873Z</time></trkpt><trkpt lat="53.76686251293902" lon="14.646526737542128"><ele>9.0</ele><time>2026-04-12T14:15:50.873Z</time></trkpt><trkpt lat="53.7667620776137" lon="14.646701356364161"><ele>9.0</ele><time>2026-04-12T14:15:51.874Z</time></trkpt><trkpt lat="53.76668228654926" lon="14.646833391563002"><ele>9.0</ele><time>2026-04-12T14:15:52.874Z</time></trkpt><trkpt lat="53.766589179508415" lon="14.64692173101992"><ele>8.5</ele><time>2026-04-12T14:15:53.874Z</time></trkpt><trkpt lat="53.76648589497249" lon="14.647038154626893"><ele>8.0</ele><time>2026-04-12T14:15:54.874Z</time></trkpt><trkpt lat="53.76637172824479" lon="14.647189448770506"><ele>7.5</ele><time>2026-04-12T14:15:55.874Z</time></trkpt><trkpt lat="53.76625558645327" lon="14.6473173412138"><ele>7.0</ele><time>2026-04-12T14:15:56.874Z</time></trkpt><trkpt lat="53.76613173636977" lon="14.647447780284702"><ele>6.75</ele><time>2026-04-12T14:15:57.874Z</time></trkpt><trkpt lat="53.76602221518231" lon="14.6475663713296"><ele>6.5</ele><time>2026-04-12T14:15:58.874Z</time></trkpt><trkpt lat="53.76591981162102" lon="14.647695412190068"><ele>6.25</ele><time>2026-04-12T14:15:59.874Z</time></trkpt><trkpt lat="53.76580724832658" lon="14.647818740906489"><ele>6.0</ele><time>2026-04-12T14:16:00.874Z</time></trkpt><trkpt lat="53.76568692038361" lon="14.647925231998968"><ele>6.0</ele><time>2026-04-12T14:16:01.874Z</time></trkpt><trkpt lat="53.765581131953226" lon="14.648076688406729"><ele>6.0</ele><time>2026-04-12T14:16:02.874Z</time></trkpt><trkpt lat="53.765477140586704" lon="14.648209929099442"><ele>6.0</ele><time>2026-04-12T14:16:03.874Z</time></trkpt><trkpt lat="53.765385596032935" lon="14.648334459014023"><ele>6.0</ele><time>2026-04-12T14:16:04.874Z</time></trkpt><trkpt lat="53.76529509312021" lon="14.648455451586358"><ele>6.0</ele><time>2026-04-12T14:16:05.874Z</time></trkpt><trkpt lat="53.765207673858356" lon="14.64856982842393"><ele>6.0</ele><time>2026-04-12T14:16:06.874Z</time></trkpt><trkpt lat="53.76512207876458" lon="14.648691828910843"><ele>6.0</ele><time>2026-04-12T14:16:07.874Z</time></trkpt><trkpt lat="53.76501283282599" lon="14.648813060044864"><ele>6.0</ele><time>2026-04-12T14:16:08.874Z</time></trkpt><trkpt lat="53.764918583649546" lon="14.648948490421152"><ele>6.199999999999999</ele><time>2026-04-12T14:16:09.874Z</time></trkpt><trkpt lat="53.76483730313383" lon="14.64906528771619"><ele>6.3999999999999995</ele><time>2026-04-12T14:16:10.874Z</time></trkpt><trkpt lat="53.76478256471709" lon="14.649200833315962"><ele>6.6</ele><time>2026-04-12T14:16:11.874Z</time></trkpt><trkpt lat="53.76471342779737" lon="14.649330256849588"><ele>6.8</ele><time>2026-04-12T14:16:13.874Z</time></trkpt><trkpt lat="53.76460143636814" lon="14.649240572803228"><ele>7.0</ele><time>2026-04-12T14:16:16.874Z</time></trkpt><trkpt lat="53.76452739807573" lon="14.649164056810136"><ele>7.0</ele><time>2026-04-12T14:16:17.874Z</time></trkpt><trkpt lat="53.76445390622473" lon="14.649095451703815"><ele>7.0</ele><time>2026-04-12T14:16:18.874Z</time></trkpt><trkpt lat="53.76434899527074" lon="14.64902876047031"><ele>7.0</ele><time>2026-04-12T14:16:19.874Z</time></trkpt><trkpt lat="53.76422792094319" lon="14.648973352749488"><ele>7.0</ele><time>2026-04-12T14:16:20.874Z</time></trkpt><trkpt lat="53.764092837339895" lon="14.648910146312806"><ele>7.0</ele><time>2026-04-12T14:16:21.874Z</time></trkpt><trkpt lat="53.763962528560086" lon="14.64885379745249"><ele>7.0</ele><time>2026-04-12T14:16:22.874Z</time></trkpt><trkpt lat="53.763824169989945" lon="14.648782150207762"><ele>7.0</ele><time>2026-04-12T14:16:23.874Z</time></trkpt><trkpt lat="53.763689734902066" lon="14.648706663097421"><ele>7.0</ele><time>2026-04-12T14:16:24.874Z</time></trkpt><trkpt lat="53.763565728128064" lon="14.648631258256856"><ele>7.000000000000001</ele><time>2026-04-12T14:16:25.874Z</time></trkpt><trkpt lat="53.76345450353621" lon="14.64859119434893"><ele>7.0</ele><time>2026-04-12T14:16:26.874Z</time></trkpt><trkpt lat="53.76337213341552" lon="14.648528784176538"><ele>7.0</ele><time>2026-04-12T14:16:27.874Z</time></trkpt><trkpt lat="53.76330785204461" lon="14.648516677266588"><ele>7.0</ele><time>2026-04-12T14:16:28.874Z</time></trkpt><trkpt lat="53.76323664792514" lon="14.648553644285258"><ele>7.000000000000001</ele><time>2026-04-12T14:16:29.874Z</time></trkpt><trkpt lat="53.763177167217535" lon="14.648664769299812"><ele>7.0</ele><time>2026-04-12T14:16:30.874Z</time></trkpt><trkpt lat="53.76310134488578" lon="14.648639457322213"><ele>7.0</ele><time>2026-04-12T14:16:31.874Z</time></trkpt><trkpt lat="53.76301847558552" lon="14.648651021219234"><ele>6.999999999999999</ele><time>2026-04-12T14:16:32.874Z</time></trkpt><trkpt lat="53.76290846553642" lon="14.648697809158477"><ele>6.999999999999999</ele><time>2026-04-12T14:16:33.874Z</time></trkpt><trkpt lat="53.76282539490034" lon="14.648728349635638"><ele>7.0</ele><time>2026-04-12T14:16:34.874Z</time></trkpt><trkpt lat="53.762721997418964" lon="14.64877288268591"><ele>7.0</ele><time>2026-04-12T14:16:35.874Z</time></trkpt><trkpt lat="53.76261902707735" lon="14.648830483671667"><ele>6.75</ele><time>2026-04-12T14:16:36.874Z</time></trkpt><trkpt lat="53.76250479658893" lon="14.648855725789854"><ele>6.5</ele><time>2026-04-12T14:16:37.872Z</time></trkpt><trkpt lat="53.76239231144089" lon="14.648887584967557"><ele>6.25</ele><time>2026-04-12T14:16:38.872Z</time></trkpt><trkpt lat="53.76227895781045" lon="14.648938049238822"><ele>6.0</ele><time>2026-04-12T14:16:39.872Z</time></trkpt><trkpt lat="53.76216053539728" lon="14.648977236182906"><ele>6.0</ele><time>2026-04-12T14:16:40.873Z</time></trkpt><trkpt lat="53.76204880727895" lon="14.649010775936258"><ele>6.0</ele><time>2026-04-12T14:16:41.872Z</time></trkpt><trkpt lat="53.76192655085875" lon="14.649049740502623"><ele>6.0</ele><time>2026-04-12T14:16:42.872Z</time></trkpt><trkpt lat="53.761811013859734" lon="14.649083870292227"><ele>6.0</ele><time>2026-04-12T14:16:43.872Z</time></trkpt><trkpt lat="53.76169983211829" lon="14.64912745065596"><ele>6.25</ele><time>2026-04-12T14:16:44.872Z</time></trkpt><trkpt lat="53.76157623460573" lon="14.649167148979105"><ele>6.5</ele><time>2026-04-12T14:16:45.872Z</time></trkpt><trkpt lat="53.7614645616333" lon="14.649193797171856"><ele>6.75</ele><time>2026-04-12T14:16:46.873Z</time></trkpt><trkpt lat="53.761347611297566" lon="14.649228041951108"><ele>7.0</ele><time>2026-04-12T14:16:47.872Z</time></trkpt><trkpt lat="53.761226662619244" lon="14.649264108646932"><ele>7.0</ele><time>2026-04-12T14:16:48.872Z</time></trkpt><trkpt lat="53.76109166534601" lon="14.649282070305658"><ele>7.0</ele><time>2026-04-12T14:16:49.873Z</time></trkpt><trkpt lat="53.76097918334275" lon="14.64933923417739"><ele>7.0</ele><time>2026-04-12T14:16:50.872Z</time></trkpt><trkpt lat="53.760847039572425" lon="14.649384453701217"><ele>7.0</ele><time>2026-04-12T14:16:51.872Z</time></trkpt><trkpt lat="53.76072039708818" lon="14.649412675787172"><ele>7.5</ele><time>2026-04-12T14:16:52.872Z</time></trkpt><trkpt lat="53.760584698969225" lon="14.649461377796197"><ele>8.0</ele><time>2026-04-12T14:16:53.872Z</time></trkpt><trkpt lat="53.76045329128178" lon="14.649531879117971"><ele>8.5</ele><time>2026-04-12T14:16:54.872Z</time></trkpt><trkpt lat="53.760319319848236" lon="14.649560906237737"><ele>9.0</ele><time>2026-04-12T14:16:55.872Z</time></trkpt><trkpt lat="53.76019444086766" lon="14.649602464299617"><ele>9.0</ele><time>2026-04-12T14:16:56.872Z</time></trkpt><trkpt lat="53.76008484827011" lon="14.649639566953189"><ele>9.0</ele><time>2026-04-12T14:16:57.872Z</time></trkpt><trkpt lat="53.75995613959569" lon="14.649698045625069"><ele>9.0</ele><time>2026-04-12T14:16:58.872Z</time></trkpt><trkpt lat="53.75983904430185" lon="14.64974333213762"><ele>9.0</ele><time>2026-04-12T14:16:59.872Z</time></trkpt><trkpt lat="53.75971461559422" lon="14.6497813089084"><ele>9.0</ele><time>2026-04-12T14:17:00.872Z</time></trkpt><trkpt lat="53.75958470395718" lon="14.649801624321297"><ele>9.0</ele><time>2026-04-12T14:17:01.872Z</time></trkpt><trkpt lat="53.75946174928862" lon="14.649875226949328"><ele>9.0</ele><time>2026-04-12T14:17:02.872Z</time></trkpt><trkpt lat="53.75932171114855" lon="14.64990426477948"><ele>9.0</ele><time>2026-04-12T14:17:03.872Z</time></trkpt><trkpt lat="53.75915788981956" lon="14.649943298833406"><ele>9.25</ele><time>2026-04-12T14:17:04.872Z</time></trkpt><trkpt lat="53.759024646000576" lon="14.649980185126669"><ele>9.5</ele><time>2026-04-12T14:17:05.872Z</time></trkpt><trkpt lat="53.75889720424131" lon="14.650039870069211"><ele>9.75</ele><time>2026-04-12T14:17:06.872Z</time></trkpt><trkpt lat="53.758788278330584" lon="14.650073725804672"><ele>10.0</ele><time>2026-04-12T14:17:07.872Z</time></trkpt><trkpt lat="53.75868589463239" lon="14.650103548662758"><ele>10.0</ele><time>2026-04-12T14:17:08.872Z</time></trkpt><trkpt lat="53.75859062268891" lon="14.650138117096636"><ele>10.0</ele><time>2026-04-12T14:17:09.872Z</time></trkpt><trkpt lat="53.758525050274855" lon="14.650205239401288"><ele>10.0</ele><time>2026-04-12T14:17:10.872Z</time></trkpt><trkpt lat="53.75847301810669" lon="14.650301007843453"><ele>10.0</ele><time>2026-04-12T14:17:11.872Z</time></trkpt><trkpt lat="53.75841803158951" lon="14.650430756293472"><ele>10.0</ele><time>2026-04-12T14:17:12.872Z</time></trkpt><trkpt lat="53.758368037103345" lon="14.650593731272986"><ele>9.0</ele><time>2026-04-12T14:17:13.872Z</time></trkpt><trkpt lat="53.75830281077104" lon="14.650814602763441"><ele>8.0</ele><time>2026-04-12T14:17:14.872Z</time></trkpt><trkpt lat="53.75823884348086" lon="14.651001895696579"><ele>7.0</ele><time>2026-04-12T14:17:15.872Z</time></trkpt><trkpt lat="53.75816258871485" lon="14.651161754315043"><ele>6.0</ele><time>2026-04-12T14:17:16.872Z</time></trkpt><trkpt lat="53.75807523322888" lon="14.651338074333315"><ele>6.0</ele><time>2026-04-12T14:17:17.872Z</time></trkpt><trkpt lat="53.75799241184193" lon="14.651504803929827"><ele>6.0</ele><time>2026-04-12T14:17:18.873Z</time></trkpt><trkpt lat="53.757923436045786" lon="14.651669333635725"><ele>6.0</ele><time>2026-04-12T14:17:19.873Z</time></trkpt><trkpt lat="53.75786348666558" lon="14.651818303051495"><ele>6.0</ele><time>2026-04-12T14:17:20.873Z</time></trkpt><trkpt lat="53.757797293776896" lon="14.651934423693664"><ele>6.0</ele><time>2026-04-12T14:17:21.873Z</time></trkpt><trkpt lat="53.757732390840005" lon="14.652048779507496"><ele>6.0</ele><time>2026-04-12T14:17:22.873Z</time></trkpt><trkpt lat="53.75767341284519" lon="14.652185870191584"><ele>6.0</ele><time>2026-04-12T14:17:23.873Z</time></trkpt><trkpt lat="53.757633027845884" lon="14.652337042052416"><ele>6.0</ele><time>2026-04-12T14:17:24.873Z</time></trkpt><trkpt lat="53.757588030593666" lon="14.652539209710996"><ele>6.0</ele><time>2026-04-12T14:17:25.873Z</time></trkpt><trkpt lat="53.75753707547174" lon="14.65274059499281"><ele>6.5</ele><time>2026-04-12T14:17:26.873Z</time></trkpt><trkpt lat="53.7574776075891" lon="14.652975362747004"><ele>7.0</ele><time>2026-04-12T14:17:27.873Z</time></trkpt><trkpt lat="53.75742666390511" lon="14.653197633253532"><ele>7.5</ele><time>2026-04-12T14:17:28.873Z</time></trkpt><trkpt lat="53.75737455929404" lon="14.6534254840887"><ele>8.0</ele><time>2026-04-12T14:17:29.873Z</time></trkpt><trkpt lat="53.75732815034733" lon="14.6536553789846"><ele>8.333333333333332</ele><time>2026-04-12T14:17:30.873Z</time></trkpt><trkpt lat="53.75727411570357" lon="14.653903256218834"><ele>8.666666666666666</ele><time>2026-04-12T14:17:31.873Z</time></trkpt><trkpt lat="53.7572146907051" lon="14.654146979169813"><ele>9.0</ele><time>2026-04-12T14:17:32.873Z</time></trkpt><trkpt lat="53.75715176476897" lon="14.654407823115205"><ele>8.666666666666666</ele><time>2026-04-12T14:17:33.873Z</time></trkpt><trkpt lat="53.75708837207155" lon="14.65466785577311"><ele>8.333333333333332</ele><time>2026-04-12T14:17:34.873Z</time></trkpt><trkpt lat="53.757029413378255" lon="14.654923616129453"><ele>8.0</ele><time>2026-04-12T14:17:35.873Z</time></trkpt><trkpt lat="53.756982917452696" lon="14.655171032548406"><ele>7.666666666666666</ele><time>2026-04-12T14:17:36.873Z</time></trkpt><trkpt lat="53.75694384027413" lon="14.655412895137944"><ele>7.333333333333334</ele><time>2026-04-12T14:17:37.873Z</time></trkpt><trkpt lat="53.75690286224256" lon="14.655667846038618"><ele>7.0</ele><time>2026-04-12T14:17:38.873Z</time></trkpt><trkpt lat="53.756869648642365" lon="14.65592936177886"><ele>8.333333333333334</ele><time>2026-04-12T14:17:39.873Z</time></trkpt><trkpt lat="53.75683140403679" lon="14.656178863168098"><ele>9.666666666666666</ele><time>2026-04-12T14:17:40.873Z</time></trkpt><trkpt lat="53.75679435933646" lon="14.656460265056309"><ele>11.0</ele><time>2026-04-12T14:17:41.873Z</time></trkpt><trkpt lat="53.75676076609351" lon="14.656719693833002"><ele>11.0</ele><time>2026-04-12T14:17:42.873Z</time></trkpt><trkpt lat="53.75671466512347" lon="14.656989845447873"><ele>11.0</ele><time>2026-04-12T14:17:43.873Z</time></trkpt><trkpt lat="53.756678014421055" lon="14.657238878675857"><ele>11.0</ele><time>2026-04-12T14:17:44.873Z</time></trkpt><trkpt lat="53.75664732985518" lon="14.657482114292495"><ele>11.0</ele><time>2026-04-12T14:17:45.873Z</time></trkpt><trkpt lat="53.75662846185296" lon="14.657713897278041"><ele>11.0</ele><time>2026-04-12T14:17:46.873Z</time></trkpt><trkpt lat="53.75663119545957" lon="14.657948657832554"><ele>11.0</ele><time>2026-04-12T14:17:47.873Z</time></trkpt><trkpt lat="53.75661467927057" lon="14.658197256304137"><ele>11.0</ele><time>2026-04-12T14:17:48.873Z</time></trkpt><trkpt lat="53.75659880618727" lon="14.658426091467128"><ele>11.8</ele><time>2026-04-12T14:17:49.873Z</time></trkpt><trkpt lat="53.75659848042024" lon="14.658634914401192"><ele>12.600000000000001</ele><time>2026-04-12T14:17:50.873Z</time></trkpt><trkpt lat="53.75658003738382" lon="14.65881787356983"><ele>13.4</ele><time>2026-04-12T14:17:51.873Z</time></trkpt><trkpt lat="53.756557441808496" lon="14.65898899926228"><ele>14.2</ele><time>2026-04-12T14:17:52.873Z</time></trkpt><trkpt lat="53.75650022868079" lon="14.659089097469348"><ele>15.0</ele><time>2026-04-12T14:17:53.873Z</time></trkpt><trkpt lat="53.75642424647893" lon="14.659179889707266"><ele>15.0</ele><time>2026-04-12T14:17:54.873Z</time></trkpt><trkpt lat="53.75632210743798" lon="14.659351281782067"><ele>15.0</ele><time>2026-04-12T14:17:55.873Z</time></trkpt><trkpt lat="53.75622392840219" lon="14.659538296236748"><ele>15.0</ele><time>2026-04-12T14:17:56.873Z</time></trkpt><trkpt lat="53.75613025542702" lon="14.659750333015753"><ele>15.0</ele><time>2026-04-12T14:17:57.873Z</time></trkpt><trkpt lat="53.756031869954356" lon="14.659924498834084"><ele>14.75</ele><time>2026-04-12T14:17:58.873Z</time></trkpt><trkpt lat="53.75593930905952" lon="14.660067862817714"><ele>14.5</ele><time>2026-04-12T14:17:59.873Z</time></trkpt><trkpt lat="53.755857790643546" lon="14.660209149080403"><ele>14.25</ele><time>2026-04-12T14:18:00.873Z</time></trkpt><trkpt lat="53.755783968754116" lon="14.660360876194439"><ele>14.0</ele><time>2026-04-12T14:18:01.873Z</time></trkpt><trkpt lat="53.75568496005956" lon="14.66053429280978"><ele>14.0</ele><time>2026-04-12T14:18:02.873Z</time></trkpt><trkpt lat="53.755606324866285" lon="14.660670198879723"><ele>13.999999999999998</ele><time>2026-04-12T14:18:03.873Z</time></trkpt><trkpt lat="53.7555317146975" lon="14.660788003858512"><ele>13.999999999999998</ele><time>2026-04-12T14:18:04.873Z</time></trkpt><trkpt lat="53.75543482327597" lon="14.66086055261522"><ele>14.0</ele><time>2026-04-12T14:18:05.873Z</time></trkpt><trkpt lat="53.75535816407007" lon="14.660956100651955"><ele>14.0</ele><time>2026-04-12T14:18:06.873Z</time></trkpt><trkpt lat="53.75530174520299" lon="14.661066356883039"><ele>14.25</ele><time>2026-04-12T14:18:07.873Z</time></trkpt><trkpt lat="53.75514271760711" lon="14.661111608912284"><ele>14.5</ele><time>2026-04-12T14:18:09.873Z</time></trkpt><trkpt lat="53.75500553269248" lon="14.661093874178235"><ele>14.75</ele><time>2026-04-12T14:18:10.873Z</time></trkpt><trkpt lat="53.75486405471965" lon="14.661068378252226"><ele>15.0</ele><time>2026-04-12T14:18:11.873Z</time></trkpt><trkpt lat="53.754709710470486" lon="14.661051216990986"><ele>15.0</ele><time>2026-04-12T14:18:12.873Z</time></trkpt><trkpt lat="53.75454186686576" lon="14.661029109071205"><ele>15.0</ele><time>2026-04-12T14:18:13.873Z</time></trkpt><trkpt lat="53.754375416373215" lon="14.660999996211249"><ele>15.0</ele><time>2026-04-12T14:18:14.873Z</time></trkpt><trkpt lat="53.75421411398582" lon="14.660992250529432"><ele>14.25</ele><time>2026-04-12T14:18:15.873Z</time></trkpt><trkpt lat="53.75406612779489" lon="14.661007519600911"><ele>13.5</ele><time>2026-04-12T14:18:16.873Z</time></trkpt><trkpt lat="53.753927397750275" lon="14.66100304849646"><ele>12.75</ele><time>2026-04-12T14:18:17.873Z</time></trkpt><trkpt lat="53.75381259951978" lon="14.660964188442078"><ele>12.0</ele><time>2026-04-12T14:18:18.873Z</time></trkpt><trkpt lat="53.75371755316301" lon="14.660913183013264"><ele>12.0</ele><time>2026-04-12T14:18:19.873Z</time></trkpt><trkpt lat="53.753646377378224" lon="14.660891403032341"><ele>12.0</ele><time>2026-04-12T14:18:20.873Z</time></trkpt><trkpt lat="53.753581769370975" lon="14.6609662347704"><ele>12.0</ele><time>2026-04-12T14:18:21.873Z</time></trkpt><trkpt lat="53.75350552430756" lon="14.661000532542408"><ele>12.0</ele><time>2026-04-12T14:18:22.873Z</time></trkpt><trkpt lat="53.75340737266928" lon="14.661021448543842"><ele>12.0</ele><time>2026-04-12T14:18:23.873Z</time></trkpt><trkpt lat="53.75330435954161" lon="14.661006736583182"><ele>12.0</ele><time>2026-04-12T14:18:24.873Z</time></trkpt><trkpt lat="53.75318527322838" lon="14.660940671015931"><ele>12.5</ele><time>2026-04-12T14:18:25.873Z</time></trkpt><trkpt lat="53.753062441406364" lon="14.660900260195675"><ele>13.0</ele><time>2026-04-12T14:18:26.873Z</time></trkpt><trkpt lat="53.75293882813869" lon="14.660893847278444"><ele>13.5</ele><time>2026-04-12T14:18:27.873Z</time></trkpt><trkpt lat="53.75281602438362" lon="14.660943311281407"><ele>14.0</ele><time>2026-04-12T14:18:28.873Z</time></trkpt><trkpt lat="53.752690208571096" lon="14.660978662697492"><ele>14.5</ele><time>2026-04-12T14:18:29.873Z</time></trkpt><trkpt lat="53.75257008379869" lon="14.661027568165732"><ele>15.0</ele><time>2026-04-12T14:18:30.873Z</time></trkpt><trkpt lat="53.75245794120099" lon="14.661078681722715"><ele>15.5</ele><time>2026-04-12T14:18:31.873Z</time></trkpt><trkpt lat="53.75232597924518" lon="14.661127500727087"><ele>16.0</ele><time>2026-04-12T14:18:32.873Z</time></trkpt><trkpt lat="53.75220343569309" lon="14.661166604801439"><ele>16.0</ele><time>2026-04-12T14:18:33.873Z</time></trkpt><trkpt lat="53.752087066676566" lon="14.661257087592594"><ele>16.0</ele><time>2026-04-12T14:18:34.873Z</time></trkpt><trkpt lat="53.75197184122403" lon="14.66133842101494"><ele>16.0</ele><time>2026-04-12T14:18:35.873Z</time></trkpt><trkpt lat="53.751852863917776" lon="14.661420700625248"><ele>16.0</ele><time>2026-04-12T14:18:36.873Z</time></trkpt><trkpt lat="53.751728866912565" lon="14.661496087531248"><ele>16.0</ele><time>2026-04-12T14:18:37.873Z</time></trkpt><trkpt lat="53.75162310871881" lon="14.6615907524469"><ele>16.0</ele><time>2026-04-12T14:18:38.873Z</time></trkpt><trkpt lat="53.75151216874097" lon="14.661633172737353"><ele>16.0</ele><time>2026-04-12T14:18:39.873Z</time></trkpt><trkpt lat="53.75140514630332" lon="14.661665102464816"><ele>16.0</ele><time>2026-04-12T14:18:40.873Z</time></trkpt><trkpt lat="53.7513020476486" lon="14.661708955200659"><ele>16.0</ele><time>2026-04-12T14:18:41.873Z</time></trkpt><trkpt lat="53.751194816261375" lon="14.661758652361518"><ele>16.0</ele><time>2026-04-12T14:18:42.873Z</time></trkpt><trkpt lat="53.751094883492634" lon="14.661809739077388"><ele>16.0</ele><time>2026-04-12T14:18:43.872Z</time></trkpt><trkpt lat="53.7510034441177" lon="14.661856378824133"><ele>16.0</ele><time>2026-04-12T14:18:44.872Z</time></trkpt><trkpt lat="53.75091146493369" lon="14.661902876431082"><ele>16.0</ele><time>2026-04-12T14:18:45.872Z</time></trkpt><trkpt lat="53.75081132827674" lon="14.661962692357724"><ele>16.0</ele><time>2026-04-12T14:18:46.872Z</time></trkpt><trkpt lat="53.750712922971914" lon="14.662010437104982"><ele>16.0</ele><time>2026-04-12T14:18:47.872Z</time></trkpt><trkpt lat="53.75062060914795" lon="14.662050346542363"><ele>16.0</ele><time>2026-04-12T14:18:48.872Z</time></trkpt><trkpt lat="53.750530767920125" lon="14.662089507120003"><ele>16.0</ele><time>2026-04-12T14:18:49.872Z</time></trkpt><trkpt lat="53.75042294031729" lon="14.662118882024858"><ele>16.0</ele><time>2026-04-12T14:18:50.871Z</time></trkpt><trkpt lat="53.75032500598178" lon="14.662200417361925"><ele>16.0</ele><time>2026-04-12T14:18:51.871Z</time></trkpt><trkpt lat="53.75022146369814" lon="14.66225857534817"><ele>17.0</ele><time>2026-04-12T14:18:52.872Z</time></trkpt><trkpt lat="53.75012389723982" lon="14.662276306764905"><ele>18.0</ele><time>2026-04-12T14:18:53.872Z</time></trkpt><trkpt lat="53.750017015851846" lon="14.662344468444706"><ele>19.0</ele><time>2026-04-12T14:18:54.872Z</time></trkpt><trkpt lat="53.74989645414969" lon="14.662407229783325"><ele>20.0</ele><time>2026-04-12T14:18:55.872Z</time></trkpt><trkpt lat="53.74978341128146" lon="14.662460470682488"><ele>20.0</ele><time>2026-04-12T14:18:56.872Z</time></trkpt><trkpt lat="53.749672544410586" lon="14.662484479737172"><ele>20.0</ele><time>2026-04-12T14:18:57.872Z</time></trkpt><trkpt lat="53.74956340917801" lon="14.662533184720553"><ele>20.0</ele><time>2026-04-12T14:18:58.872Z</time></trkpt><trkpt lat="53.74944909928628" lon="14.662585506033235"><ele>20.0</ele><time>2026-04-12T14:18:59.872Z</time></trkpt><trkpt lat="53.74934122077783" lon="14.662662478725721"><ele>20.8</ele><time>2026-04-12T14:19:00.872Z</time></trkpt><trkpt lat="53.749230091832835" lon="14.662698380099771"><ele>21.6</ele><time>2026-04-12T14:19:01.872Z</time></trkpt><trkpt lat="53.74912375235262" lon="14.662752788314725"><ele>22.4</ele><time>2026-04-12T14:19:02.872Z</time></trkpt><trkpt lat="53.749015782840985" lon="14.662813383919374"><ele>23.2</ele><time>2026-04-12T14:19:03.872Z</time></trkpt><trkpt lat="53.74891875304432" lon="14.662843491140258"><ele>24.0</ele><time>2026-04-12T14:19:04.872Z</time></trkpt><trkpt lat="53.74882036859169" lon="14.662894320225053"><ele>24.75</ele><time>2026-04-12T14:19:05.872Z</time></trkpt><trkpt lat="53.748699731458665" lon="14.662956798121783"><ele>25.5</ele><time>2026-04-12T14:19:06.872Z</time></trkpt><trkpt lat="53.74859388854174" lon="14.66304592393177"><ele>26.25</ele><time>2026-04-12T14:19:07.872Z</time></trkpt><trkpt lat="53.74847731315183" lon="14.663133026299814"><ele>27.0</ele><time>2026-04-12T14:19:08.872Z</time></trkpt><trkpt lat="53.74835616018289" lon="14.663205071950603"><ele>27.200000000000003</ele><time>2026-04-12T14:19:09.872Z</time></trkpt><trkpt lat="53.74823180796713" lon="14.663282982007697"><ele>27.400000000000002</ele><time>2026-04-12T14:19:10.872Z</time></trkpt><trkpt lat="53.74811981935413" lon="14.66334045102373"><ele>27.599999999999998</ele><time>2026-04-12T14:19:11.872Z</time></trkpt><trkpt lat="53.748025974885195" lon="14.663391100644091"><ele>27.799999999999997</ele><time>2026-04-12T14:19:12.872Z</time></trkpt><trkpt lat="53.747939941214526" lon="14.663433330255947"><ele>28.0</ele><time>2026-04-12T14:19:13.872Z</time></trkpt><trkpt lat="53.74785832197118" lon="14.663480437029996"><ele>28.0</ele><time>2026-04-12T14:19:14.872Z</time></trkpt><trkpt lat="53.74773991859882" lon="14.663513487172322"><ele>28.0</ele><time>2026-04-12T14:19:15.872Z</time></trkpt><trkpt lat="53.747631885994394" lon="14.66356749647299"><ele>28.0</ele><time>2026-04-12T14:19:16.872Z</time></trkpt><trkpt lat="53.74750061585934" lon="14.663632834377944"><ele>28.0</ele><time>2026-04-12T14:19:17.872Z</time></trkpt><trkpt lat="53.74738561233463" lon="14.663716356656384"><ele>28.0</ele><time>2026-04-12T14:19:18.872Z</time></trkpt><trkpt lat="53.74726778818777" lon="14.663763700333789"><ele>28.0</ele><time>2026-04-12T14:19:19.872Z</time></trkpt><trkpt lat="53.74715591670765" lon="14.663825790756364"><ele>28.0</ele><time>2026-04-12T14:19:20.872Z</time></trkpt><trkpt lat="53.74704886924322" lon="14.663884113227615"><ele>28.0</ele><time>2026-04-12T14:19:21.872Z</time></trkpt><trkpt lat="53.746935952611764" lon="14.663943636567181"><ele>28.0</ele><time>2026-04-12T14:19:22.872Z</time></trkpt><trkpt lat="53.746832756615866" lon="14.664004120513523"><ele>28.0</ele><time>2026-04-12T14:19:23.872Z</time></trkpt><trkpt lat="53.746719550137136" lon="14.664061993744049"><ele>28.0</ele><time>2026-04-12T14:19:24.872Z</time></trkpt><trkpt lat="53.74660791051293" lon="14.66412201240957"><ele>28.0</ele><time>2026-04-12T14:19:25.872Z</time></trkpt><trkpt lat="53.74649940000284" lon="14.664149849301822"><ele>28.0</ele><time>2026-04-12T14:19:26.872Z</time></trkpt><trkpt lat="53.74640039708197" lon="14.66420182864245"><ele>28.0</ele><time>2026-04-12T14:19:27.872Z</time></trkpt><trkpt lat="53.74629435256236" lon="14.66425796789529"><ele>28.0</ele><time>2026-04-12T14:19:28.872Z</time></trkpt><trkpt lat="53.74617389039346" lon="14.664348271845249"><ele>28.0</ele><time>2026-04-12T14:19:29.872Z</time></trkpt><trkpt lat="53.74606396725264" lon="14.66439737874232"><ele>27.799999999999997</ele><time>2026-04-12T14:19:30.872Z</time></trkpt><trkpt lat="53.74594799068655" lon="14.664461646651448"><ele>27.599999999999998</ele><time>2026-04-12T14:19:31.872Z</time></trkpt><trkpt lat="53.7458363044138" lon="14.664523930707425"><ele>27.400000000000002</ele><time>2026-04-12T14:19:32.872Z</time></trkpt><trkpt lat="53.74573963644227" lon="14.664578705745138"><ele>27.200000000000003</ele><time>2026-04-12T14:19:33.872Z</time></trkpt><trkpt lat="53.74564852915592" lon="14.66462545053955"><ele>27.0</ele><time>2026-04-12T14:19:34.872Z</time></trkpt><trkpt lat="53.74554838750035" lon="14.664656388039393"><ele>27.0</ele><time>2026-04-12T14:19:35.872Z</time></trkpt><trkpt lat="53.745448645082476" lon="14.664681994637387"><ele>27.000000000000004</ele><time>2026-04-12T14:19:36.872Z</time></trkpt><trkpt lat="53.74536025894589" lon="14.664685784358682"><ele>27.000000000000004</ele><time>2026-04-12T14:19:37.872Z</time></trkpt><trkpt lat="53.745266464151214" lon="14.664690697062596"><ele>27.0</ele><time>2026-04-12T14:19:38.872Z</time></trkpt><trkpt lat="53.74516233115029" lon="14.664851180791981"><ele>27.0</ele><time>2026-04-12T14:19:39.872Z</time></trkpt><trkpt lat="53.745050259139354" lon="14.664952613110836"><ele>26.0</ele><time>2026-04-12T14:19:40.872Z</time></trkpt><trkpt lat="53.744939276748546" lon="14.665047755595294"><ele>25.0</ele><time>2026-04-12T14:19:41.872Z</time></trkpt><trkpt lat="53.74481198352354" lon="14.665109163034241"><ele>24.0</ele><time>2026-04-12T14:19:42.872Z</time></trkpt><trkpt lat="53.74469926633509" lon="14.66521690435821"><ele>23.0</ele><time>2026-04-12T14:19:43.872Z</time></trkpt><trkpt lat="53.74457408834822" lon="14.66529782097301"><ele>22.5</ele><time>2026-04-12T14:19:44.872Z</time></trkpt><trkpt lat="53.74443946027259" lon="14.665398385184792"><ele>22.0</ele><time>2026-04-12T14:19:45.872Z</time></trkpt><trkpt lat="53.74430824355769" lon="14.665469935247868"><ele>21.5</ele><time>2026-04-12T14:19:46.872Z</time></trkpt><trkpt lat="53.744172673553315" lon="14.665596834092865"><ele>21.0</ele><time>2026-04-12T14:19:47.872Z</time></trkpt><trkpt lat="53.74403598598404" lon="14.665666500238421"><ele>21.0</ele><time>2026-04-12T14:19:48.872Z</time></trkpt><trkpt lat="53.743913472762" lon="14.665756492353957"><ele>21.0</ele><time>2026-04-12T14:19:49.872Z</time></trkpt><trkpt lat="53.74378936866044" lon="14.665847811498704"><ele>21.0</ele><time>2026-04-12T14:19:50.872Z</time></trkpt><trkpt lat="53.74366762458892" lon="14.665937109095067"><ele>21.0</ele><time>2026-04-12T14:19:51.872Z</time></trkpt><trkpt lat="53.74352243104073" lon="14.666066805097083"><ele>20.666666666666668</ele><time>2026-04-12T14:19:52.872Z</time></trkpt><trkpt lat="53.743370667689874" lon="14.666186486297875"><ele>20.333333333333336</ele><time>2026-04-12T14:19:53.872Z</time></trkpt><trkpt lat="53.7431913871862" lon="14.666289240200266"><ele>20.0</ele><time>2026-04-12T14:19:54.872Z</time></trkpt><trkpt lat="53.743056871968825" lon="14.666389052215973"><ele>20.0</ele><time>2026-04-12T14:19:55.872Z</time></trkpt><trkpt lat="53.74292354549536" lon="14.666487470537907"><ele>20.0</ele><time>2026-04-12T14:19:56.872Z</time></trkpt><trkpt lat="53.74279407434109" lon="14.66658396094367"><ele>20.0</ele><time>2026-04-12T14:19:57.872Z</time></trkpt><trkpt lat="53.74266483620957" lon="14.666709383773048"><ele>20.0</ele><time>2026-04-12T14:19:58.872Z</time></trkpt><trkpt lat="53.74252294004148" lon="14.6668160023892"><ele>20.0</ele><time>2026-04-12T14:19:59.872Z</time></trkpt><trkpt lat="53.7423744706591" lon="14.666923257172886"><ele>20.0</ele><time>2026-04-12T14:20:00.872Z</time></trkpt><trkpt lat="53.74222905680769" lon="14.667016376387304"><ele>20.0</ele><time>2026-04-12T14:20:01.872Z</time></trkpt><trkpt lat="53.742085752885664" lon="14.66708486437571"><ele>20.0</ele><time>2026-04-12T14:20:02.872Z</time></trkpt><trkpt lat="53.74196230540794" lon="14.667155477220057"><ele>20.0</ele><time>2026-04-12T14:20:03.872Z</time></trkpt><trkpt lat="53.74185149818967" lon="14.667221640305065"><ele>20.0</ele><time>2026-04-12T14:20:04.872Z</time></trkpt><trkpt lat="53.741737423677755" lon="14.667359498988006"><ele>20.0</ele><time>2026-04-12T14:20:05.872Z</time></trkpt><trkpt lat="53.74162579681882" lon="14.667450920057751"><ele>19.25</ele><time>2026-04-12T14:20:06.872Z</time></trkpt><trkpt lat="53.74152817445298" lon="14.66755012673765"><ele>18.5</ele><time>2026-04-12T14:20:07.873Z</time></trkpt><trkpt lat="53.74142904763687" lon="14.66762349867387"><ele>17.75</ele><time>2026-04-12T14:20:08.873Z</time></trkpt><trkpt lat="53.74131069384299" lon="14.66768868069906"><ele>17.0</ele><time>2026-04-12T14:20:09.873Z</time></trkpt><trkpt lat="53.74119931220868" lon="14.667766574999174"><ele>17.0</ele><time>2026-04-12T14:20:10.874Z</time></trkpt><trkpt lat="53.74106521615797" lon="14.66786035425078"><ele>17.0</ele><time>2026-04-12T14:20:11.874Z</time></trkpt><trkpt lat="53.74093586153155" lon="14.667978545180171"><ele>17.0</ele><time>2026-04-12T14:20:12.874Z</time></trkpt><trkpt lat="53.7408070680229" lon="14.66806805275623"><ele>17.0</ele><time>2026-04-12T14:20:13.874Z</time></trkpt><trkpt lat="53.74067366100282" lon="14.66816570717161"><ele>16.75</ele><time>2026-04-12T14:20:14.875Z</time></trkpt><trkpt lat="53.740549832271896" lon="14.66825779522882"><ele>16.5</ele><time>2026-04-12T14:20:15.875Z</time></trkpt><trkpt lat="53.74042689144087" lon="14.668278165458112"><ele>16.25</ele><time>2026-04-12T14:20:16.875Z</time></trkpt><trkpt lat="53.740316030447644" lon="14.668345923348612"><ele>16.0</ele><time>2026-04-12T14:20:17.875Z</time></trkpt><trkpt lat="53.74021805024462" lon="14.668457465781783"><ele>16.0</ele><time>2026-04-12T14:20:18.875Z</time></trkpt><trkpt lat="53.74011382038603" lon="14.668595629171962"><ele>16.0</ele><time>2026-04-12T14:20:19.876Z</time></trkpt><trkpt lat="53.73998242103343" lon="14.668670691555791"><ele>16.0</ele><time>2026-04-12T14:20:20.876Z</time></trkpt><trkpt lat="53.73983310650244" lon="14.668816144381637"><ele>16.0</ele><time>2026-04-12T14:20:21.876Z</time></trkpt><trkpt lat="53.73966883651675" lon="14.668909641677224"><ele>16.25</ele><time>2026-04-12T14:20:22.876Z</time></trkpt><trkpt lat="53.739534934038296" lon="14.66901173579114"><ele>16.5</ele><time>2026-04-12T14:20:23.876Z</time></trkpt><trkpt lat="53.739397076996134" lon="14.66911555503145"><ele>16.75</ele><time>2026-04-12T14:20:24.876Z</time></trkpt><trkpt lat="53.739263176679955" lon="14.669215575054244"><ele>17.0</ele><time>2026-04-12T14:20:25.876Z</time></trkpt><trkpt lat="53.739118968430944" lon="14.66931921824138"><ele>17.25</ele><time>2026-04-12T14:20:26.877Z</time></trkpt><trkpt lat="53.73898783113928" lon="14.669407407968423"><ele>17.5</ele><time>2026-04-12T14:20:27.877Z</time></trkpt><trkpt lat="53.73885161667946" lon="14.669481021170474"><ele>17.75</ele><time>2026-04-12T14:20:28.877Z</time></trkpt><trkpt lat="53.73873835743282" lon="14.669549985453951"><ele>18.0</ele><time>2026-04-12T14:20:29.877Z</time></trkpt><trkpt lat="53.738633139338184" lon="14.66964778158213"><ele>18.5</ele><time>2026-04-12T14:20:30.877Z</time></trkpt><trkpt lat="53.738515495350754" lon="14.669751290246216"><ele>19.0</ele><time>2026-04-12T14:20:31.877Z</time></trkpt><trkpt lat="53.73839616502887" lon="14.669832292639724"><ele>19.5</ele><time>2026-04-12T14:20:32.877Z</time></trkpt><trkpt lat="53.73827043796015" lon="14.669919877414564"><ele>20.0</ele><time>2026-04-12T14:20:33.877Z</time></trkpt><trkpt lat="53.73816280787267" lon="14.670031962471109"><ele>20.0</ele><time>2026-04-12T14:20:34.877Z</time></trkpt><trkpt lat="53.738022755791505" lon="14.670116619911886"><ele>20.0</ele><time>2026-04-12T14:20:35.877Z</time></trkpt><trkpt lat="53.73788662196036" lon="14.670229855790277"><ele>20.0</ele><time>2026-04-12T14:20:36.877Z</time></trkpt><trkpt lat="53.73773441957293" lon="14.670341530981705"><ele>19.333333333333336</ele><time>2026-04-12T14:20:37.877Z</time></trkpt><trkpt lat="53.737576931683186" lon="14.670455121230614"><ele>18.666666666666668</ele><time>2026-04-12T14:20:38.877Z</time></trkpt><trkpt lat="53.73742814321794" lon="14.67056397482288"><ele>18.0</ele><time>2026-04-12T14:20:39.878Z</time></trkpt><trkpt lat="53.73728715854754" lon="14.670667568473833"><ele>18.0</ele><time>2026-04-12T14:20:40.878Z</time></trkpt><trkpt lat="53.73713092920626" lon="14.67078811730693"><ele>18.0</ele><time>2026-04-12T14:20:41.878Z</time></trkpt><trkpt lat="53.736981188773704" lon="14.670889772142596"><ele>18.0</ele><time>2026-04-12T14:20:42.878Z</time></trkpt><trkpt lat="53.736841869111224" lon="14.67098490540244"><ele>17.666666666666668</ele><time>2026-04-12T14:20:43.878Z</time></trkpt><trkpt lat="53.7367050304287" lon="14.671093360448527"><ele>17.333333333333336</ele><time>2026-04-12T14:20:44.878Z</time></trkpt><trkpt lat="53.73656236881068" lon="14.671199894815398"><ele>17.0</ele><time>2026-04-12T14:20:45.878Z</time></trkpt><trkpt lat="53.736430126472506" lon="14.671292755224272"><ele>17.0</ele><time>2026-04-12T14:20:46.878Z</time></trkpt><trkpt lat="53.73631853701935" lon="14.671363129249523"><ele>17.0</ele><time>2026-04-12T14:20:47.878Z</time></trkpt><trkpt lat="53.73623622867577" lon="14.671410304863816"><ele>17.0</ele><time>2026-04-12T14:20:48.878Z</time></trkpt><trkpt lat="53.736161887635596" lon="14.671428930854518"><ele>17.0</ele><time>2026-04-12T14:20:50.877Z</time></trkpt><trkpt lat="53.736151128017234" lon="14.671696053166658"><ele>17.0</ele><time>2026-04-12T14:20:53.877Z</time></trkpt><trkpt lat="53.736160569492355" lon="14.671805932049047"><ele>17.0</ele><time>2026-04-12T14:20:54.877Z</time></trkpt><trkpt lat="53.736181155206324" lon="14.671964626227863"><ele>17.0</ele><time>2026-04-12T14:20:55.877Z</time></trkpt><trkpt lat="53.736200969571044" lon="14.67212792844169"><ele>17.0</ele><time>2026-04-12T14:20:56.877Z</time></trkpt><trkpt lat="53.736223180139724" lon="14.672320995904917"><ele>17.0</ele><time>2026-04-12T14:20:57.877Z</time></trkpt><trkpt lat="53.73625760767073" lon="14.672509144881904"><ele>17.0</ele><time>2026-04-12T14:20:58.877Z</time></trkpt><trkpt lat="53.736287150920425" lon="14.672724337909122"><ele>17.0</ele><time>2026-04-12T14:20:59.877Z</time></trkpt><trkpt lat="53.73631374281932" lon="14.672954158100248"><ele>17.0</ele><time>2026-04-12T14:21:00.877Z</time></trkpt><trkpt lat="53.736343279186165" lon="14.673205881012326"><ele>17.0</ele><time>2026-04-12T14:21:01.877Z</time></trkpt><trkpt lat="53.73635830897371" lon="14.673442054705486"><ele>17.0</ele><time>2026-04-12T14:21:02.877Z</time></trkpt><trkpt lat="53.73638885788669" lon="14.673668468694663"><ele>17.0</ele><time>2026-04-12T14:21:03.877Z</time></trkpt><trkpt lat="53.73643747236713" lon="14.67387381737361"><ele>17.0</ele><time>2026-04-12T14:21:04.877Z</time></trkpt><trkpt lat="53.736465663627776" lon="14.67409130743246"><ele>17.0</ele><time>2026-04-12T14:21:05.877Z</time></trkpt><trkpt lat="53.73648291045778" lon="14.67427904678141"><ele>17.0</ele><time>2026-04-12T14:21:06.877Z</time></trkpt><trkpt lat="53.73651005568539" lon="14.674453508541292"><ele>17.0</ele><time>2026-04-12T14:21:07.877Z</time></trkpt><trkpt lat="53.736536008341545" lon="14.674656730811288"><ele>17.0</ele><time>2026-04-12T14:21:08.877Z</time></trkpt><trkpt lat="53.73655942390175" lon="14.674817639647209"><ele>17.0</ele><time>2026-04-12T14:21:09.877Z</time></trkpt><trkpt lat="53.736562392266826" lon="14.674969445333039"><ele>17.0</ele><time>2026-04-12T14:21:10.877Z</time></trkpt><trkpt lat="53.736586758152434" lon="14.67517079546229"><ele>17.0</ele><time>2026-04-12T14:21:11.877Z</time></trkpt><trkpt lat="53.736615406173335" lon="14.675356386703646"><ele>17.2</ele><time>2026-04-12T14:21:12.877Z</time></trkpt><trkpt lat="53.73664121557884" lon="14.675518917913479"><ele>17.4</ele><time>2026-04-12T14:21:13.877Z</time></trkpt><trkpt lat="53.73666293046106" lon="14.675688223547905"><ele>17.6</ele><time>2026-04-12T14:21:14.878Z</time></trkpt><trkpt lat="53.73668727525339" lon="14.675861073731209"><ele>17.8</ele><time>2026-04-12T14:21:15.878Z</time></trkpt><trkpt lat="53.73667237601541" lon="14.676002613873317"><ele>18.0</ele><time>2026-04-12T14:21:16.878Z</time></trkpt><trkpt lat="53.736705643682484" lon="14.676134208517967"><ele>18.4</ele><time>2026-04-12T14:21:17.878Z</time></trkpt><trkpt lat="53.736557063972896" lon="14.676207117048238"><ele>18.8</ele><time>2026-04-12T14:21:18.878Z</time></trkpt><trkpt lat="53.736506241831655" lon="14.676331106255338"><ele>19.2</ele><time>2026-04-12T14:21:19.878Z</time></trkpt><trkpt lat="53.73645795844254" lon="14.676453314818811"><ele>19.6</ele><time>2026-04-12T14:21:20.878Z</time></trkpt><trkpt lat="53.73641299574336" lon="14.676571039771751"><ele>20.0</ele><time>2026-04-12T14:21:21.878Z</time></trkpt><trkpt lat="53.73634708861817" lon="14.676724421469913"><ele>20.0</ele><time>2026-04-12T14:21:22.878Z</time></trkpt><trkpt lat="53.73629732186569" lon="14.676881111143082"><ele>20.0</ele><time>2026-04-12T14:21:23.878Z</time></trkpt><trkpt lat="53.73628084177776" lon="14.677030795028257"><ele>20.0</ele><time>2026-04-12T14:21:24.878Z</time></trkpt><trkpt lat="53.736285681915305" lon="14.677210543114397"><ele>20.0</ele><time>2026-04-12T14:21:25.878Z</time></trkpt><trkpt lat="53.7362878048969" lon="14.677405901665164"><ele>20.0</ele><time>2026-04-12T14:21:26.878Z</time></trkpt><trkpt lat="53.73629083163707" lon="14.677635400056449"><ele>20.5</ele><time>2026-04-12T14:21:27.878Z</time></trkpt><trkpt lat="53.736290001884754" lon="14.67783880722721"><ele>21.0</ele><time>2026-04-12T14:21:28.878Z</time></trkpt><trkpt lat="53.73628528143785" lon="14.678028767713412"><ele>21.5</ele><time>2026-04-12T14:21:29.878Z</time></trkpt><trkpt lat="53.73628915171691" lon="14.67822644126115"><ele>22.0</ele><time>2026-04-12T14:21:30.878Z</time></trkpt><trkpt lat="53.73628621930729" lon="14.678436625651976"><ele>21.75</ele><time>2026-04-12T14:21:31.878Z</time></trkpt><trkpt lat="53.736266765289706" lon="14.67867963437982"><ele>21.5</ele><time>2026-04-12T14:21:32.878Z</time></trkpt><trkpt lat="53.73627512293733" lon="14.678930510237224"><ele>21.25</ele><time>2026-04-12T14:21:33.878Z</time></trkpt><trkpt lat="53.73625451138153" lon="14.679151563038957"><ele>21.0</ele><time>2026-04-12T14:21:34.878Z</time></trkpt><trkpt lat="53.73625748463706" lon="14.679386262380108"><ele>21.0</ele><time>2026-04-12T14:21:35.878Z</time></trkpt><trkpt lat="53.736271753157254" lon="14.679622005759962"><ele>21.0</ele><time>2026-04-12T14:21:36.878Z</time></trkpt><trkpt lat="53.7362771657659" lon="14.679840785734639"><ele>21.0</ele><time>2026-04-12T14:21:37.878Z</time></trkpt><trkpt lat="53.73626088363941" lon="14.680086263259033"><ele>21.0</ele><time>2026-04-12T14:21:38.878Z</time></trkpt><trkpt lat="53.73624546597283" lon="14.680284279667209"><ele>21.0</ele><time>2026-04-12T14:21:39.878Z</time></trkpt><trkpt lat="53.73621255048066" lon="14.680436335029428"><ele>21.0</ele><time>2026-04-12T14:21:40.878Z</time></trkpt><trkpt lat="53.73616478652864" lon="14.680585002717082"><ele>21.0</ele><time>2026-04-12T14:21:41.878Z</time></trkpt><trkpt lat="53.736101729030004" lon="14.680773892698081"><ele>21.0</ele><time>2026-04-12T14:21:42.878Z</time></trkpt><trkpt lat="53.736059895905676" lon="14.680928601707587"><ele>21.0</ele><time>2026-04-12T14:21:43.878Z</time></trkpt><trkpt lat="53.7359964067441" lon="14.681123982648533"><ele>22.5</ele><time>2026-04-12T14:21:44.878Z</time></trkpt><trkpt lat="53.735918059913146" lon="14.681311774878038"><ele>24.0</ele><time>2026-04-12T14:21:45.878Z</time></trkpt><trkpt lat="53.73585876947536" lon="14.68147876762248"><ele>25.5</ele><time>2026-04-12T14:21:46.878Z</time></trkpt><trkpt lat="53.73579952822439" lon="14.68163850644724"><ele>27.0</ele><time>2026-04-12T14:21:47.878Z</time></trkpt><trkpt lat="53.73573795830874" lon="14.681799606195696"><ele>26.25</ele><time>2026-04-12T14:21:48.878Z</time></trkpt><trkpt lat="53.73568634128552" lon="14.681979070371064"><ele>25.5</ele><time>2026-04-12T14:21:49.878Z</time></trkpt><trkpt lat="53.73560857999782" lon="14.682139814207105"><ele>24.75</ele><time>2026-04-12T14:21:50.878Z</time></trkpt><trkpt lat="53.735556100565155" lon="14.682332552412054"><ele>24.0</ele><time>2026-04-12T14:21:51.878Z</time></trkpt><trkpt lat="53.7354933904473" lon="14.682506028686193"><ele>24.0</ele><time>2026-04-12T14:21:52.878Z</time></trkpt><trkpt lat="53.735421093865355" lon="14.682704464711447"><ele>24.0</ele><time>2026-04-12T14:21:53.878Z</time></trkpt><trkpt lat="53.735372588625324" lon="14.682879212840977"><ele>24.0</ele><time>2026-04-12T14:21:54.878Z</time></trkpt><trkpt lat="53.735346599673406" lon="14.683039035915815"><ele>24.0</ele><time>2026-04-12T14:21:55.878Z</time></trkpt><trkpt lat="53.73531968713865" lon="14.683223479964484"><ele>22.75</ele><time>2026-04-12T14:21:56.878Z</time></trkpt><trkpt lat="53.73527505879553" lon="14.68341616720669"><ele>21.5</ele><time>2026-04-12T14:21:57.878Z</time></trkpt><trkpt lat="53.73522975804913" lon="14.683643046053412"><ele>20.25</ele><time>2026-04-12T14:21:58.878Z</time></trkpt><trkpt lat="53.73516864654966" lon="14.683870295803152"><ele>19.0</ele><time>2026-04-12T14:21:59.878Z</time></trkpt><trkpt lat="53.73509221763267" lon="14.684093228244583"><ele>19.0</ele><time>2026-04-12T14:22:00.878Z</time></trkpt><trkpt lat="53.73503928662736" lon="14.684292723901496"><ele>19.0</ele><time>2026-04-12T14:22:01.878Z</time></trkpt><trkpt lat="53.735007869121326" lon="14.68449892270574"><ele>19.0</ele><time>2026-04-12T14:22:02.878Z</time></trkpt><trkpt lat="53.734986106222145" lon="14.68472447817194"><ele>19.0</ele><time>2026-04-12T14:22:03.878Z</time></trkpt><trkpt lat="53.73495720626604" lon="14.68497310907586"><ele>19.0</ele><time>2026-04-12T14:22:04.878Z</time></trkpt><trkpt lat="53.734932931139504" lon="14.685211919065125"><ele>19.0</ele><time>2026-04-12T14:22:05.878Z</time></trkpt><trkpt lat="53.73488937318135" lon="14.685436488537713"><ele>19.0</ele><time>2026-04-12T14:22:06.878Z</time></trkpt><trkpt lat="53.73485576460289" lon="14.685668519965"><ele>19.0</ele><time>2026-04-12T14:22:07.878Z</time></trkpt><trkpt lat="53.73481842675429" lon="14.685865011674466"><ele>19.0</ele><time>2026-04-12T14:22:08.878Z</time></trkpt><trkpt lat="53.734788671924456" lon="14.686063880935114"><ele>19.0</ele><time>2026-04-12T14:22:09.878Z</time></trkpt><trkpt lat="53.73473532356067" lon="14.686279887352478"><ele>19.0</ele><time>2026-04-12T14:22:10.878Z</time></trkpt><trkpt lat="53.73466326218788" lon="14.686431034970282"><ele>19.0</ele><time>2026-04-12T14:22:11.878Z</time></trkpt><trkpt lat="53.73459885295828" lon="14.686601955330612"><ele>19.799999999999997</ele><time>2026-04-12T14:22:12.878Z</time></trkpt><trkpt lat="53.73455538505869" lon="14.686751418752051"><ele>20.599999999999998</ele><time>2026-04-12T14:22:13.878Z</time></trkpt><trkpt lat="53.734494329395375" lon="14.686893642749059"><ele>21.4</ele><time>2026-04-12T14:22:14.878Z</time></trkpt><trkpt lat="53.734433023587776" lon="14.687056582498688"><ele>22.2</ele><time>2026-04-12T14:22:15.878Z</time></trkpt><trkpt lat="53.734367486739096" lon="14.687224990752881"><ele>23.0</ele><time>2026-04-12T14:22:16.878Z</time></trkpt><trkpt lat="53.73429462532734" lon="14.68739334455282"><ele>25.25</ele><time>2026-04-12T14:22:17.878Z</time></trkpt><trkpt lat="53.7342090570265" lon="14.687555838213893"><ele>27.5</ele><time>2026-04-12T14:22:18.878Z</time></trkpt><trkpt lat="53.734132495812915" lon="14.687732769957476"><ele>29.75</ele><time>2026-04-12T14:22:19.878Z</time></trkpt><trkpt lat="53.73406260152715" lon="14.687886538251146"><ele>32.0</ele><time>2026-04-12T14:22:20.878Z</time></trkpt><trkpt lat="53.734004173928035" lon="14.688006874829767"><ele>32.4</ele><time>2026-04-12T14:22:21.878Z</time></trkpt><trkpt lat="53.733940170000984" lon="14.688126379487894"><ele>32.800000000000004</ele><time>2026-04-12T14:22:22.878Z</time></trkpt><trkpt lat="53.73387323349687" lon="14.688226832997428"><ele>33.2</ele><time>2026-04-12T14:22:23.878Z</time></trkpt><trkpt lat="53.73379431547233" lon="14.688318473070902"><ele>33.6</ele><time>2026-04-12T14:22:24.878Z</time></trkpt><trkpt lat="53.73368123541123" lon="14.68835921305994"><ele>34.0</ele><time>2026-04-12T14:22:25.878Z</time></trkpt><trkpt lat="53.733557072700435" lon="14.68841551724659"><ele>33.8</ele><time>2026-04-12T14:22:26.878Z</time></trkpt><trkpt lat="53.733453153805385" lon="14.688474843338392"><ele>33.599999999999994</ele><time>2026-04-12T14:22:27.878Z</time></trkpt><trkpt lat="53.73338811818031" lon="14.688585586081663"><ele>33.4</ele><time>2026-04-12T14:22:28.878Z</time></trkpt><trkpt lat="53.73333136479962" lon="14.688756802349955"><ele>33.199999999999996</ele><time>2026-04-12T14:22:30.878Z</time></trkpt><trkpt lat="53.733293901487826" lon="14.688935019487653"><ele>33.0</ele><time>2026-04-12T14:22:32.878Z</time></trkpt><trkpt lat="53.733268567401915" lon="14.689085858837997"><ele>33.0</ele><time>2026-04-12T14:23:38.877Z</time></trkpt><trkpt lat="53.73325405745118" lon="14.689233535360225"><ele>33.0</ele><time>2026-04-12T14:23:40.877Z</time></trkpt><trkpt lat="53.733247385377496" lon="14.689441698216587"><ele>33.0</ele><time>2026-04-12T14:23:42.877Z</time></trkpt><trkpt lat="53.73325362371376" lon="14.689550330712134"><ele>33.0</ele><time>2026-04-12T14:23:43.877Z</time></trkpt><trkpt lat="53.73326639754309" lon="14.689740519186204"><ele>33.0</ele><time>2026-04-12T14:23:45.877Z</time></trkpt><trkpt lat="53.73329120869062" lon="14.689922261738113"><ele>32.833333333333336</ele><time>2026-04-12T14:23:47.877Z</time></trkpt><trkpt lat="53.73329340189775" lon="14.690052893332833"><ele>32.666666666666664</ele><time>2026-04-12T14:23:48.877Z</time></trkpt><trkpt lat="53.73331021952357" lon="14.690183264661036"><ele>32.5</ele><time>2026-04-12T14:23:49.877Z</time></trkpt><trkpt lat="53.73329314908363" lon="14.690300853770616"><ele>32.33333333333333</ele><time>2026-04-12T14:23:50.877Z</time></trkpt><trkpt lat="53.7332903783485" lon="14.690441746012132"><ele>32.166666666666664</ele><time>2026-04-12T14:23:51.877Z</time></trkpt><trkpt lat="53.733305053937215" lon="14.690570270229758"><ele>32.0</ele><time>2026-04-12T14:23:52.877Z</time></trkpt><trkpt lat="53.73329979546467" lon="14.690694464702732"><ele>32.0</ele><time>2026-04-12T14:23:53.877Z</time></trkpt><trkpt lat="53.73330646949494" lon="14.69080764906191"><ele>32.0</ele><time>2026-04-12T14:23:54.877Z</time></trkpt><trkpt lat="53.733098245075084" lon="14.690945062152743"><ele>32.0</ele><time>2026-04-12T14:23:56.877Z</time></trkpt><trkpt lat="53.7329798151549" lon="14.691082041816149"><ele>32.0</ele><time>2026-04-12T14:23:57.877Z</time></trkpt><trkpt lat="53.73286629999091" lon="14.691211135808262"><ele>32.5</ele><time>2026-04-12T14:23:58.877Z</time></trkpt><trkpt lat="53.732749952093585" lon="14.691337023341665"><ele>33.0</ele><time>2026-04-12T14:23:59.877Z</time></trkpt><trkpt lat="53.73262565911995" lon="14.691453870740416"><ele>33.5</ele><time>2026-04-12T14:24:00.877Z</time></trkpt><trkpt lat="53.73249704065214" lon="14.691558482768553"><ele>34.0</ele><time>2026-04-12T14:24:01.877Z</time></trkpt><trkpt lat="53.732373003100804" lon="14.691645227525232"><ele>34.0</ele><time>2026-04-12T14:24:02.877Z</time></trkpt><trkpt lat="53.73222930699855" lon="14.691743325481454"><ele>34.0</ele><time>2026-04-12T14:24:03.877Z</time></trkpt><trkpt lat="53.732096292619715" lon="14.691837347722277"><ele>34.0</ele><time>2026-04-12T14:24:04.877Z</time></trkpt><trkpt lat="53.731971052891566" lon="14.691935727255196"><ele>34.0</ele><time>2026-04-12T14:24:05.877Z</time></trkpt><trkpt lat="53.7318489696229" lon="14.692059372073679"><ele>34.0</ele><time>2026-04-12T14:24:06.877Z</time></trkpt><trkpt lat="53.73171830192086" lon="14.692170682129754"><ele>34.0</ele><time>2026-04-12T14:24:07.877Z</time></trkpt><trkpt lat="53.73157499653546" lon="14.69227998761207"><ele>34.0</ele><time>2026-04-12T14:24:08.877Z</time></trkpt><trkpt lat="53.73142539860581" lon="14.692396357187956"><ele>34.0</ele><time>2026-04-12T14:24:09.877Z</time></trkpt><trkpt lat="53.73126507748264" lon="14.692515247946966"><ele>34.0</ele><time>2026-04-12T14:24:10.877Z</time></trkpt><trkpt lat="53.73110593826522" lon="14.692631962894275"><ele>34.0</ele><time>2026-04-12T14:24:11.877Z</time></trkpt><trkpt lat="53.7309437279633" lon="14.692750222578749"><ele>33.66666666666667</ele><time>2026-04-12T14:24:12.877Z</time></trkpt><trkpt lat="53.73077509405338" lon="14.692873880588126"><ele>33.333333333333336</ele><time>2026-04-12T14:24:13.877Z</time></trkpt><trkpt lat="53.73060405573585" lon="14.693014469816159"><ele>33.0</ele><time>2026-04-12T14:24:14.877Z</time></trkpt><trkpt lat="53.730431457080606" lon="14.693123400139198"><ele>33.0</ele><time>2026-04-12T14:24:15.877Z</time></trkpt><trkpt lat="53.730258692582446" lon="14.693262164297197"><ele>33.0</ele><time>2026-04-12T14:24:16.877Z</time></trkpt><trkpt lat="53.730088538699995" lon="14.693397953437787"><ele>33.0</ele><time>2026-04-12T14:24:17.877Z</time></trkpt><trkpt lat="53.729933639260935" lon="14.6935347309788"><ele>33.333333333333336</ele><time>2026-04-12T14:24:18.877Z</time></trkpt><trkpt lat="53.72976971673307" lon="14.693629539578767"><ele>33.66666666666667</ele><time>2026-04-12T14:24:19.877Z</time></trkpt><trkpt lat="53.72961753927577" lon="14.69374511279037"><ele>34.0</ele><time>2026-04-12T14:24:20.877Z</time></trkpt><trkpt lat="53.72946983375566" lon="14.693858465495795"><ele>33.333333333333336</ele><time>2026-04-12T14:24:21.877Z</time></trkpt><trkpt lat="53.7293129232913" lon="14.693980199870447"><ele>32.666666666666664</ele><time>2026-04-12T14:24:22.877Z</time></trkpt><trkpt lat="53.72916821624829" lon="14.694094491364226"><ele>32.0</ele><time>2026-04-12T14:24:23.877Z</time></trkpt><trkpt lat="53.72902470889595" lon="14.694210608732556"><ele>32.0</ele><time>2026-04-12T14:24:24.877Z</time></trkpt><trkpt lat="53.72888437028967" lon="14.694350527931332"><ele>32.0</ele><time>2026-04-12T14:24:25.877Z</time></trkpt><trkpt lat="53.72877203006686" lon="14.694442876091589"><ele>32.0</ele><time>2026-04-12T14:24:26.877Z</time></trkpt><trkpt lat="53.72867356092287" lon="14.694519717014641"><ele>32.0</ele><time>2026-04-12T14:24:27.877Z</time></trkpt><trkpt lat="53.728580946137065" lon="14.694588257221433"><ele>32.0</ele><time>2026-04-12T14:24:28.877Z</time></trkpt><trkpt lat="53.728477482517" lon="14.694445836544546"><ele>32.0</ele><time>2026-04-12T14:24:29.877Z</time></trkpt><trkpt lat="53.728357282661065" lon="14.69436580554568"><ele>32.0</ele><time>2026-04-12T14:24:30.877Z</time></trkpt><trkpt lat="53.72821255258152" lon="14.694270646016442"><ele>32.0</ele><time>2026-04-12T14:24:31.877Z</time></trkpt><trkpt lat="53.72806046882261" lon="14.694196622513108"><ele>32.0</ele><time>2026-04-12T14:24:32.877Z</time></trkpt><trkpt lat="53.727920180800986" lon="14.694107337058448"><ele>32.0</ele><time>2026-04-12T14:24:33.877Z</time></trkpt><trkpt lat="53.72778889779268" lon="14.694017350904982"><ele>32.0</ele><time>2026-04-12T14:24:34.877Z</time></trkpt><trkpt lat="53.7276563108769" lon="14.693905512947818"><ele>32.0</ele><time>2026-04-12T14:24:35.877Z</time></trkpt><trkpt lat="53.72750757019349" lon="14.693834799642282"><ele>32.0</ele><time>2026-04-12T14:24:36.877Z</time></trkpt><trkpt lat="53.72734043905932" lon="14.693725684721015"><ele>32.0</ele><time>2026-04-12T14:24:37.877Z</time></trkpt><trkpt lat="53.727169343087475" lon="14.69361796241012"><ele>32.0</ele><time>2026-04-12T14:24:38.877Z</time></trkpt><trkpt lat="53.726992026173654" lon="14.69350762004357"><ele>32.666666666666664</ele><time>2026-04-12T14:24:39.877Z</time></trkpt><trkpt lat="53.72680430867291" lon="14.693398269557846"><ele>33.333333333333336</ele><time>2026-04-12T14:24:40.877Z</time></trkpt><trkpt lat="53.7266146117228" lon="14.693254833916983"><ele>34.0</ele><time>2026-04-12T14:24:41.877Z</time></trkpt><trkpt lat="53.726418215056555" lon="14.693161096068957"><ele>34.0</ele><time>2026-04-12T14:24:42.877Z</time></trkpt><trkpt lat="53.72623304458949" lon="14.693044633094924"><ele>34.0</ele><time>2026-04-12T14:24:43.877Z</time></trkpt><trkpt lat="53.726052511345614" lon="14.692926578110526"><ele>34.0</ele><time>2026-04-12T14:24:44.877Z</time></trkpt><trkpt lat="53.725868392709415" lon="14.692787299763705"><ele>33.66666666666667</ele><time>2026-04-12T14:24:45.877Z</time></trkpt><trkpt lat="53.72566864897037" lon="14.692661616047678"><ele>33.333333333333336</ele><time>2026-04-12T14:24:46.877Z</time></trkpt><trkpt lat="53.72548339856703" lon="14.692546370121244"><ele>33.0</ele><time>2026-04-12T14:24:47.877Z</time></trkpt><trkpt lat="53.72529496053305" lon="14.692430111616515"><ele>32.666666666666664</ele><time>2026-04-12T14:24:48.877Z</time></trkpt><trkpt lat="53.725102114743784" lon="14.69231354187762"><ele>32.33333333333333</ele><time>2026-04-12T14:24:49.877Z</time></trkpt><trkpt lat="53.72490770814109" lon="14.692198645725767"><ele>32.0</ele><time>2026-04-12T14:24:50.877Z</time></trkpt><trkpt lat="53.72470768851562" lon="14.692081452929163"><ele>32.0</ele><time>2026-04-12T14:24:51.877Z</time></trkpt><trkpt lat="53.72452738383544" lon="14.691973281439056"><ele>32.0</ele><time>2026-04-12T14:24:52.877Z</time></trkpt><trkpt lat="53.7243546150781" lon="14.691864629905679"><ele>32.0</ele><time>2026-04-12T14:24:53.877Z</time></trkpt><trkpt lat="53.72418993672338" lon="14.691756916871004"><ele>32.0</ele><time>2026-04-12T14:24:54.877Z</time></trkpt><trkpt lat="53.72400752336917" lon="14.691634820149886"><ele>32.0</ele><time>2026-04-12T14:24:55.877Z</time></trkpt><trkpt lat="53.72382448487053" lon="14.691511097121552"><ele>32.0</ele><time>2026-04-12T14:24:56.877Z</time></trkpt><trkpt lat="53.723633506597984" lon="14.691392401748729"><ele>32.0</ele><time>2026-04-12T14:24:57.877Z</time></trkpt><trkpt lat="53.7234215774781" lon="14.691260205287936"><ele>32.0</ele><time>2026-04-12T14:24:58.877Z</time></trkpt><trkpt lat="53.7232421694415" lon="14.69114792595191"><ele>32.0</ele><time>2026-04-12T14:24:59.878Z</time></trkpt><trkpt lat="53.72305892544567" lon="14.691033007123051"><ele>32.0</ele><time>2026-04-12T14:25:00.878Z</time></trkpt><trkpt lat="53.72287843053899" lon="14.690920189660117"><ele>32.0</ele><time>2026-04-12T14:25:01.877Z</time></trkpt><trkpt lat="53.72270561645206" lon="14.690812386085181"><ele>32.0</ele><time>2026-04-12T14:25:02.877Z</time></trkpt><trkpt lat="53.72254015001042" lon="14.690708989403214"><ele>31.666666666666664</ele><time>2026-04-12T14:25:03.877Z</time></trkpt><trkpt lat="53.722374720523526" lon="14.690605470704119"><ele>31.333333333333336</ele><time>2026-04-12T14:25:04.876Z</time></trkpt><trkpt lat="53.72221669288223" lon="14.690502974183392"><ele>31.0</ele><time>2026-04-12T14:25:05.876Z</time></trkpt><trkpt lat="53.72207568065605" lon="14.690374332825872"><ele>31.666666666666668</ele><time>2026-04-12T14:25:06.876Z</time></trkpt><trkpt lat="53.72194226683998" lon="14.690212980784644"><ele>32.333333333333336</ele><time>2026-04-12T14:25:07.877Z</time></trkpt><trkpt lat="53.72180686037424" lon="14.690005189924161"><ele>33.0</ele><time>2026-04-12T14:25:08.877Z</time></trkpt><trkpt lat="53.7216563704066" lon="14.689777681231996"><ele>33.333333333333336</ele><time>2026-04-12T14:25:09.877Z</time></trkpt><trkpt lat="53.72151726359184" lon="14.68958763341762"><ele>33.66666666666667</ele><time>2026-04-12T14:25:10.877Z</time></trkpt><trkpt lat="53.721392546028596" lon="14.689404831636907"><ele>34.0</ele><time>2026-04-12T14:25:11.876Z</time></trkpt><trkpt lat="53.72127826703521" lon="14.689217611115172"><ele>34.0</ele><time>2026-04-12T14:25:12.876Z</time></trkpt><trkpt lat="53.72115590376474" lon="14.689008974605281"><ele>34.0</ele><time>2026-04-12T14:25:13.877Z</time></trkpt><trkpt lat="53.721018891035484" lon="14.688772206677807"><ele>34.0</ele><time>2026-04-12T14:25:14.877Z</time></trkpt><trkpt lat="53.72087823859614" lon="14.688531584191873"><ele>33.0</ele><time>2026-04-12T14:25:15.877Z</time></trkpt><trkpt lat="53.72072669641571" lon="14.688315428209997"><ele>32.0</ele><time>2026-04-12T14:25:16.877Z</time></trkpt><trkpt lat="53.72058320716781" lon="14.688115094492707"><ele>31.0</ele><time>2026-04-12T14:25:17.877Z</time></trkpt><trkpt lat="53.720487287606716" lon="14.687902344544716"><ele>31.0</ele><time>2026-04-12T14:25:18.877Z</time></trkpt><trkpt lat="53.72037644823243" lon="14.68773436551761"><ele>31.0</ele><time>2026-04-12T14:25:19.877Z</time></trkpt><trkpt lat="53.720246199114946" lon="14.687543962209741"><ele>31.0</ele><time>2026-04-12T14:25:20.877Z</time></trkpt><trkpt lat="53.720116839938974" lon="14.687354708504063"><ele>30.333333333333336</ele><time>2026-04-12T14:25:21.877Z</time></trkpt><trkpt lat="53.719976572832586" lon="14.687141474612389"><ele>29.666666666666664</ele><time>2026-04-12T14:25:22.877Z</time></trkpt><trkpt lat="53.719826418132676" lon="14.686945890542574"><ele>29.0</ele><time>2026-04-12T14:25:23.877Z</time></trkpt><trkpt lat="53.71967932365957" lon="14.686745724518884"><ele>28.666666666666664</ele><time>2026-04-12T14:25:24.877Z</time></trkpt><trkpt lat="53.71953526453478" lon="14.686556775377287"><ele>28.333333333333336</ele><time>2026-04-12T14:25:25.877Z</time></trkpt><trkpt lat="53.71939224433019" lon="14.686348484139659"><ele>28.0</ele><time>2026-04-12T14:25:26.877Z</time></trkpt><trkpt lat="53.71923320855399" lon="14.686152000080913"><ele>28.333333333333336</ele><time>2026-04-12T14:25:27.877Z</time></trkpt><trkpt lat="53.719105858061496" lon="14.685963333855817"><ele>28.666666666666664</ele><time>2026-04-12T14:25:28.877Z</time></trkpt><trkpt lat="53.718964266037126" lon="14.685817396153816"><ele>29.0</ele><time>2026-04-12T14:25:29.877Z</time></trkpt><trkpt lat="53.71884895959983" lon="14.68564634432039"><ele>29.0</ele><time>2026-04-12T14:25:30.877Z</time></trkpt><trkpt lat="53.7187212563957" lon="14.685506252690434"><ele>29.0</ele><time>2026-04-12T14:25:31.877Z</time></trkpt><trkpt lat="53.71856655872605" lon="14.685379295019729"><ele>29.0</ele><time>2026-04-12T14:25:32.877Z</time></trkpt><trkpt lat="53.71841218742023" lon="14.685265117868138"><ele>29.666666666666664</ele><time>2026-04-12T14:25:33.877Z</time></trkpt><trkpt lat="53.71824436457868" lon="14.685155929811225"><ele>30.333333333333336</ele><time>2026-04-12T14:25:34.877Z</time></trkpt><trkpt lat="53.71806651133661" lon="14.685023161392614"><ele>31.0</ele><time>2026-04-12T14:25:35.877Z</time></trkpt><trkpt lat="53.717886578581414" lon="14.684848282691936"><ele>31.0</ele><time>2026-04-12T14:25:36.877Z</time></trkpt><trkpt lat="53.71769566011325" lon="14.684700374274948"><ele>31.0</ele><time>2026-04-12T14:25:37.877Z</time></trkpt><trkpt lat="53.717514061826584" lon="14.684562871611849"><ele>31.0</ele><time>2026-04-12T14:25:38.877Z</time></trkpt><trkpt lat="53.71733051714457" lon="14.684426767880778"><ele>31.0</ele><time>2026-04-12T14:25:39.877Z</time></trkpt><trkpt lat="53.717154497601975" lon="14.684303755983796"><ele>31.0</ele><time>2026-04-12T14:25:40.877Z</time></trkpt><trkpt lat="53.71698653767008" lon="14.68418083920481"><ele>31.0</ele><time>2026-04-12T14:25:41.877Z</time></trkpt><trkpt lat="53.71683302263732" lon="14.684036445596181"><ele>31.333333333333336</ele><time>2026-04-12T14:25:42.877Z</time></trkpt><trkpt lat="53.716673035857504" lon="14.68386920281394"><ele>31.666666666666664</ele><time>2026-04-12T14:25:43.877Z</time></trkpt><trkpt lat="53.7165276406204" lon="14.683743971973579"><ele>32.0</ele><time>2026-04-12T14:25:44.877Z</time></trkpt><trkpt lat="53.716373521442335" lon="14.683627323457472"><ele>31.666666666666664</ele><time>2026-04-12T14:25:45.877Z</time></trkpt><trkpt lat="53.71622012934575" lon="14.683527026840963"><ele>31.333333333333336</ele><time>2026-04-12T14:25:46.877Z</time></trkpt><trkpt lat="53.71607955552145" lon="14.683443614016673"><ele>31.0</ele><time>2026-04-12T14:25:47.877Z</time></trkpt><trkpt lat="53.71593599363227" lon="14.683369031562327"><ele>30.666666666666668</ele><time>2026-04-12T14:25:48.877Z</time></trkpt><trkpt lat="53.71579745123286" lon="14.68329848262199"><ele>30.333333333333336</ele><time>2026-04-12T14:25:49.877Z</time></trkpt><trkpt lat="53.715638780666104" lon="14.683216989595062"><ele>30.0</ele><time>2026-04-12T14:25:50.877Z</time></trkpt><trkpt lat="53.715470619385314" lon="14.683127301372846"><ele>30.0</ele><time>2026-04-12T14:25:51.877Z</time></trkpt><trkpt lat="53.71531100563266" lon="14.68303987971366"><ele>30.0</ele><time>2026-04-12T14:25:52.877Z</time></trkpt><trkpt lat="53.71515296499017" lon="14.682955013073515"><ele>30.0</ele><time>2026-04-12T14:25:53.877Z</time></trkpt><trkpt lat="53.71500516063821" lon="14.682877445014464"><ele>29.75</ele><time>2026-04-12T14:25:54.877Z</time></trkpt><trkpt lat="53.71487638263157" lon="14.682810492047981"><ele>29.5</ele><time>2026-04-12T14:25:55.877Z</time></trkpt><trkpt lat="53.71474307488756" lon="14.682744439226461"><ele>29.25</ele><time>2026-04-12T14:25:56.877Z</time></trkpt><trkpt lat="53.714600808226606" lon="14.68267386122975"><ele>29.0</ele><time>2026-04-12T14:25:57.877Z</time></trkpt><trkpt lat="53.71445063449388" lon="14.682600397716678"><ele>27.666666666666664</ele><time>2026-04-12T14:25:58.877Z</time></trkpt><trkpt lat="53.714298716228484" lon="14.682528859843291"><ele>26.333333333333336</ele><time>2026-04-12T14:25:59.877Z</time></trkpt><trkpt lat="53.71413906576269" lon="14.682490792238353"><ele>25.0</ele><time>2026-04-12T14:26:00.877Z</time></trkpt><trkpt lat="53.713996019081705" lon="14.68242373433079"><ele>25.0</ele><time>2026-04-12T14:26:01.877Z</time></trkpt><trkpt lat="53.713856450647505" lon="14.68234923351156"><ele>25.0</ele><time>2026-04-12T14:26:02.877Z</time></trkpt><trkpt lat="53.713713143759044" lon="14.68228822883962"><ele>25.0</ele><time>2026-04-12T14:26:03.877Z</time></trkpt><trkpt lat="53.713565118544345" lon="14.68222552103717"><ele>25.0</ele><time>2026-04-12T14:26:04.877Z</time></trkpt><trkpt lat="53.71342966933011" lon="14.682168176712436"><ele>26.0</ele><time>2026-04-12T14:26:05.877Z</time></trkpt><trkpt lat="53.71328007562634" lon="14.682104210465267"><ele>27.0</ele><time>2026-04-12T14:26:06.877Z</time></trkpt><trkpt lat="53.71311788751197" lon="14.682035956613518"><ele>28.0</ele><time>2026-04-12T14:26:07.877Z</time></trkpt><trkpt lat="53.71294710032639" lon="14.681965744890574"><ele>27.333333333333336</ele><time>2026-04-12T14:26:08.877Z</time></trkpt><trkpt lat="53.71277310549321" lon="14.681899848648998"><ele>26.666666666666664</ele><time>2026-04-12T14:26:09.877Z</time></trkpt><trkpt lat="53.71258576173242" lon="14.68182883646052"><ele>26.0</ele><time>2026-04-12T14:26:10.877Z</time></trkpt><trkpt lat="53.71239126300473" lon="14.681753656499305"><ele>26.0</ele><time>2026-04-12T14:26:11.877Z</time></trkpt><trkpt lat="53.71219999186587" lon="14.681673187506338"><ele>26.0</ele><time>2026-04-12T14:26:12.877Z</time></trkpt><trkpt lat="53.71201191245985" lon="14.681581532922607"><ele>26.0</ele><time>2026-04-12T14:26:13.877Z</time></trkpt><trkpt lat="53.71182562514475" lon="14.681482001521784"><ele>26.666666666666664</ele><time>2026-04-12T14:26:14.877Z</time></trkpt><trkpt lat="53.71160936314645" lon="14.681376313937166"><ele>27.333333333333336</ele><time>2026-04-12T14:26:15.877Z</time></trkpt><trkpt lat="53.71140041743868" lon="14.68129538719558"><ele>28.0</ele><time>2026-04-12T14:26:16.877Z</time></trkpt><trkpt lat="53.711195522760704" lon="14.681228720087834"><ele>28.333333333333336</ele><time>2026-04-12T14:26:17.877Z</time></trkpt><trkpt lat="53.71099479644354" lon="14.68116365741405"><ele>28.666666666666664</ele><time>2026-04-12T14:26:18.877Z</time></trkpt><trkpt lat="53.710801397724396" lon="14.681096731964631"><ele>29.0</ele><time>2026-04-12T14:26:19.877Z</time></trkpt><trkpt lat="53.71059042675204" lon="14.681013586066227"><ele>28.0</ele><time>2026-04-12T14:26:20.877Z</time></trkpt><trkpt lat="53.710396083688366" lon="14.680936391677099"><ele>27.0</ele><time>2026-04-12T14:26:21.877Z</time></trkpt><trkpt lat="53.710195994144364" lon="14.680861379495104"><ele>26.0</ele><time>2026-04-12T14:26:22.877Z</time></trkpt><trkpt lat="53.71000262841865" lon="14.680792752185456"><ele>26.0</ele><time>2026-04-12T14:26:23.877Z</time></trkpt><trkpt lat="53.70982808852815" lon="14.680730082043114"><ele>26.0</ele><time>2026-04-12T14:26:24.877Z</time></trkpt><trkpt lat="53.70966825296211" lon="14.680669816583986"><ele>26.0</ele><time>2026-04-12T14:26:25.877Z</time></trkpt><trkpt lat="53.709513904815736" lon="14.680609073145718"><ele>26.333333333333332</ele><time>2026-04-12T14:26:26.877Z</time></trkpt><trkpt lat="53.70934659616831" lon="14.680538147605297"><ele>26.666666666666664</ele><time>2026-04-12T14:26:27.877Z</time></trkpt><trkpt lat="53.7091808048112" lon="14.68046581694133"><ele>27.0</ele><time>2026-04-12T14:26:28.877Z</time></trkpt><trkpt lat="53.709011926208106" lon="14.68039054792249"><ele>27.0</ele><time>2026-04-12T14:26:29.877Z</time></trkpt><trkpt lat="53.70884716075846" lon="14.680319238186474"><ele>27.0</ele><time>2026-04-12T14:26:30.877Z</time></trkpt><trkpt lat="53.70867341109143" lon="14.680244353812373"><ele>27.0</ele><time>2026-04-12T14:26:31.877Z</time></trkpt><trkpt lat="53.70848632451338" lon="14.680167398212426"><ele>28.333333333333336</ele><time>2026-04-12T14:26:32.877Z</time></trkpt><trkpt lat="53.708301365765415" lon="14.680094346484138"><ele>29.666666666666668</ele><time>2026-04-12T14:26:33.877Z</time></trkpt><trkpt lat="53.708129065108345" lon="14.680031450458449"><ele>31.0</ele><time>2026-04-12T14:26:34.877Z</time></trkpt><trkpt lat="53.707976647909035" lon="14.679970841665682"><ele>31.0</ele><time>2026-04-12T14:26:35.877Z</time></trkpt><trkpt lat="53.707813461834604" lon="14.679893274048352"><ele>31.0</ele><time>2026-04-12T14:26:36.877Z</time></trkpt><trkpt lat="53.70764745407768" lon="14.679788473861963"><ele>31.0</ele><time>2026-04-12T14:26:37.877Z</time></trkpt><trkpt lat="53.707503837015985" lon="14.679656362210828"><ele>31.666666666666668</ele><time>2026-04-12T14:26:38.877Z</time></trkpt><trkpt lat="53.70736402241812" lon="14.679506394368259"><ele>32.333333333333336</ele><time>2026-04-12T14:26:39.877Z</time></trkpt><trkpt lat="53.70722821477166" lon="14.679354237509838"><ele>33.0</ele><time>2026-04-12T14:26:40.877Z</time></trkpt><trkpt lat="53.707081635681114" lon="14.679196310076048"><ele>33.0</ele><time>2026-04-12T14:26:41.877Z</time></trkpt><trkpt lat="53.70693956273507" lon="14.679049451157438"><ele>33.0</ele><time>2026-04-12T14:26:42.877Z</time></trkpt><trkpt lat="53.706827468924686" lon="14.678931278170714"><ele>33.0</ele><time>2026-04-12T14:26:43.877Z</time></trkpt><trkpt lat="53.70673078849797" lon="14.67882610050038"><ele>33.0</ele><time>2026-04-12T14:26:44.877Z</time></trkpt><trkpt lat="53.70664208399133" lon="14.678727757284499"><ele>33.0</ele><time>2026-04-12T14:26:45.877Z</time></trkpt><trkpt lat="53.706556266049" lon="14.678626409847093"><ele>33.0</ele><time>2026-04-12T14:26:47.877Z</time></trkpt><trkpt lat="53.70647900749659" lon="14.678533962538712"><ele>33.0</ele><time>2026-04-12T14:26:50.877Z</time></trkpt><trkpt lat="53.70641859848104" lon="14.67846065282024"><ele>33.0</ele><time>2026-04-12T14:26:51.877Z</time></trkpt><trkpt lat="53.70635768469802" lon="14.67838742910952"><ele>33.0</ele><time>2026-04-12T14:26:52.877Z</time></trkpt><trkpt lat="53.70627826233246" lon="14.678293320932461"><ele>33.0</ele><time>2026-04-12T14:26:53.877Z</time></trkpt><trkpt lat="53.70591151074303" lon="14.67889470924205"><ele>32.5</ele><time>2026-04-12T14:26:55.878Z</time></trkpt><trkpt lat="53.7057995828277" lon="14.67895538576967"><ele>32.0</ele><time>2026-04-12T14:26:56.878Z</time></trkpt><trkpt lat="53.70566129211225" lon="14.679042796095741"><ele>31.5</ele><time>2026-04-12T14:26:57.878Z</time></trkpt><trkpt lat="53.70551713813881" lon="14.679121218183418"><ele>31.0</ele><time>2026-04-12T14:26:58.878Z</time></trkpt><trkpt lat="53.705399536088" lon="14.679199133203692"><ele>31.0</ele><time>2026-04-12T14:26:59.878Z</time></trkpt><trkpt lat="53.705268058548384" lon="14.679283200978682"><ele>31.0</ele><time>2026-04-12T14:27:00.878Z</time></trkpt><trkpt lat="53.705141665552" lon="14.679365059061126"><ele>31.0</ele><time>2026-04-12T14:27:01.878Z</time></trkpt><trkpt lat="53.705029627863894" lon="14.67942689815375"><ele>31.0</ele><time>2026-04-12T14:27:02.878Z</time></trkpt><trkpt lat="53.704929888350456" lon="14.679505471871868"><ele>31.25</ele><time>2026-04-12T14:27:03.878Z</time></trkpt><trkpt lat="53.70481178207187" lon="14.679583938047262"><ele>31.5</ele><time>2026-04-12T14:27:04.878Z</time></trkpt><trkpt lat="53.704683126514844" lon="14.679643147830863"><ele>31.75</ele><time>2026-04-12T14:27:05.878Z</time></trkpt><trkpt lat="53.70455334121612" lon="14.679722936149098"><ele>32.0</ele><time>2026-04-12T14:27:06.878Z</time></trkpt><trkpt lat="53.70442169104837" lon="14.679808803850214"><ele>32.0</ele><time>2026-04-12T14:27:07.876Z</time></trkpt><trkpt lat="53.70429246472791" lon="14.679866313607711"><ele>32.0</ele><time>2026-04-12T14:27:08.876Z</time></trkpt><trkpt lat="53.70417530858899" lon="14.679935737013327"><ele>32.0</ele><time>2026-04-12T14:27:09.876Z</time></trkpt><trkpt lat="53.70407454111879" lon="14.680000521471067"><ele>32.0</ele><time>2026-04-12T14:27:10.876Z</time></trkpt><trkpt lat="53.70400084362243" lon="14.680031428048293"><ele>32.0</ele><time>2026-04-12T14:27:11.876Z</time></trkpt><trkpt lat="53.70392439215118" lon="14.680056446870402"><ele>32.0</ele><time>2026-04-12T14:27:12.876Z</time></trkpt><trkpt lat="53.70382491066782" lon="14.68012179027298"><ele>32.0</ele><time>2026-04-12T14:27:13.876Z</time></trkpt><trkpt lat="53.70371114305151" lon="14.680186128678086"><ele>32.0</ele><time>2026-04-12T14:27:14.876Z</time></trkpt><trkpt lat="53.7035908178976" lon="14.680252930299703"><ele>32.0</ele><time>2026-04-12T14:27:15.876Z</time></trkpt><trkpt lat="53.70347261092788" lon="14.680313909217276"><ele>31.8</ele><time>2026-04-12T14:27:16.876Z</time></trkpt><trkpt lat="53.70336373671128" lon="14.68036840969744"><ele>31.6</ele><time>2026-04-12T14:27:17.876Z</time></trkpt><trkpt lat="53.70325594976116" lon="14.680422974979212"><ele>31.400000000000002</ele><time>2026-04-12T14:27:18.876Z</time></trkpt><trkpt lat="53.703154341260024" lon="14.680486432728278"><ele>31.200000000000003</ele><time>2026-04-12T14:27:19.876Z</time></trkpt><trkpt lat="53.70305632281122" lon="14.68055366100315"><ele>31.0</ele><time>2026-04-12T14:27:20.876Z</time></trkpt><trkpt lat="53.70295063067347" lon="14.68061497339569"><ele>31.0</ele><time>2026-04-12T14:27:21.876Z</time></trkpt><trkpt lat="53.702846421127894" lon="14.680688603907395"><ele>31.0</ele><time>2026-04-12T14:27:22.876Z</time></trkpt><trkpt lat="53.70274638001369" lon="14.680730526617513"><ele>31.0</ele><time>2026-04-12T14:27:23.876Z</time></trkpt><trkpt lat="53.70264008117222" lon="14.680773898744812"><ele>31.0</ele><time>2026-04-12T14:27:24.876Z</time></trkpt><trkpt lat="53.702524395200264" lon="14.680819306906908"><ele>31.0</ele><time>2026-04-12T14:27:25.876Z</time></trkpt><trkpt lat="53.70240285821066" lon="14.68088087864646"><ele>30.75</ele><time>2026-04-12T14:27:26.876Z</time></trkpt><trkpt lat="53.70228794463518" lon="14.68093798290249"><ele>30.5</ele><time>2026-04-12T14:27:27.876Z</time></trkpt><trkpt lat="53.7021882274696" lon="14.681009255520275"><ele>30.25</ele><time>2026-04-12T14:27:28.876Z</time></trkpt><trkpt lat="53.702076142375525" lon="14.681086240627492"><ele>30.0</ele><time>2026-04-12T14:27:29.876Z</time></trkpt><trkpt lat="53.70196214930053" lon="14.681146660875536"><ele>29.0</ele><time>2026-04-12T14:27:30.876Z</time></trkpt><trkpt lat="53.70183156265179" lon="14.68120203021741"><ele>28.0</ele><time>2026-04-12T14:27:31.876Z</time></trkpt><trkpt lat="53.7017224515552" lon="14.68125767822299"><ele>27.0</ele><time>2026-04-12T14:27:32.876Z</time></trkpt><trkpt lat="53.70162307603286" lon="14.681295287088544"><ele>26.0</ele><time>2026-04-12T14:27:33.876Z</time></trkpt><trkpt lat="53.70151075590534" lon="14.681352938897346"><ele>26.0</ele><time>2026-04-12T14:27:34.876Z</time></trkpt><trkpt lat="53.701390409533396" lon="14.68140308180558"><ele>26.0</ele><time>2026-04-12T14:27:35.876Z</time></trkpt><trkpt lat="53.701280052812365" lon="14.68146592925568"><ele>26.0</ele><time>2026-04-12T14:27:36.876Z</time></trkpt><trkpt lat="53.70117689715588" lon="14.681524623809885"><ele>26.0</ele><time>2026-04-12T14:27:37.876Z</time></trkpt><trkpt lat="53.701073350964954" lon="14.681596647351776"><ele>25.0</ele><time>2026-04-12T14:27:38.876Z</time></trkpt><trkpt lat="53.700974514789586" lon="14.68165505459017"><ele>24.0</ele><time>2026-04-12T14:27:39.876Z</time></trkpt><trkpt lat="53.700864839143705" lon="14.681695529952876"><ele>23.0</ele><time>2026-04-12T14:27:40.876Z</time></trkpt><trkpt lat="53.700759954507866" lon="14.681747674247303"><ele>22.0</ele><time>2026-04-12T14:27:41.876Z</time></trkpt><trkpt lat="53.70065414150967" lon="14.681809901881206"><ele>21.0</ele><time>2026-04-12T14:27:42.876Z</time></trkpt><trkpt lat="53.700530920125225" lon="14.681882427091487"><ele>21.25</ele><time>2026-04-12T14:27:43.876Z</time></trkpt><trkpt lat="53.700407637138646" lon="14.681939669206912"><ele>21.5</ele><time>2026-04-12T14:27:44.876Z</time></trkpt><trkpt lat="53.700286239998945" lon="14.682017700748602"><ele>21.75</ele><time>2026-04-12T14:27:45.876Z</time></trkpt><trkpt lat="53.700170126689414" lon="14.682081012254276"><ele>22.0</ele><time>2026-04-12T14:27:46.876Z</time></trkpt><trkpt lat="53.7000461027656" lon="14.682142407470248"><ele>22.0</ele><time>2026-04-12T14:27:47.876Z</time></trkpt><trkpt lat="53.699927878225715" lon="14.682197252561544"><ele>22.0</ele><time>2026-04-12T14:27:48.876Z</time></trkpt><trkpt lat="53.699818280429334" lon="14.682237586815958"><ele>22.0</ele><time>2026-04-12T14:27:49.876Z</time></trkpt><trkpt lat="53.6997005789803" lon="14.682299377951614"><ele>22.0</ele><time>2026-04-12T14:27:50.876Z</time></trkpt><trkpt lat="53.69959139114998" lon="14.682351315775175"><ele>22.0</ele><time>2026-04-12T14:27:51.876Z</time></trkpt><trkpt lat="53.69949114112932" lon="14.682396028071743"><ele>22.0</ele><time>2026-04-12T14:27:52.876Z</time></trkpt><trkpt lat="53.69938116739968" lon="14.682442964976575"><ele>22.0</ele><time>2026-04-12T14:27:53.876Z</time></trkpt><trkpt lat="53.69926906922981" lon="14.682490194832619"><ele>22.0</ele><time>2026-04-12T14:27:54.876Z</time></trkpt><trkpt lat="53.69914163732962" lon="14.682548479166902"><ele>21.5</ele><time>2026-04-12T14:27:55.876Z</time></trkpt><trkpt lat="53.69899832586413" lon="14.682607978948838"><ele>21.0</ele><time>2026-04-12T14:27:56.876Z</time></trkpt><trkpt lat="53.698833245925016" lon="14.682681911660378"><ele>20.5</ele><time>2026-04-12T14:27:57.876Z</time></trkpt><trkpt lat="53.698712460632656" lon="14.68273692910663"><ele>20.0</ele><time>2026-04-12T14:27:58.876Z</time></trkpt><trkpt lat="53.69859122385925" lon="14.68280336029982"><ele>21.0</ele><time>2026-04-12T14:27:59.876Z</time></trkpt><trkpt lat="53.698473982625735" lon="14.682866389490833"><ele>22.0</ele><time>2026-04-12T14:28:00.876Z</time></trkpt><trkpt lat="53.69836868057102" lon="14.68290831329288"><ele>23.0</ele><time>2026-04-12T14:28:01.876Z</time></trkpt><trkpt lat="53.69826916135469" lon="14.68295173024585"><ele>24.0</ele><time>2026-04-12T14:28:02.876Z</time></trkpt><trkpt lat="53.69819129340229" lon="14.682946650969264"><ele>25.0</ele><time>2026-04-12T14:28:03.876Z</time></trkpt><trkpt lat="53.69803144704255" lon="14.682866958352186"><ele>25.0</ele><time>2026-04-12T14:28:05.876Z</time></trkpt><trkpt lat="53.69791825865441" lon="14.68280589821297"><ele>25.0</ele><time>2026-04-12T14:28:06.877Z</time></trkpt><trkpt lat="53.69779435085795" lon="14.682737510260425"><ele>25.0</ele><time>2026-04-12T14:28:07.877Z</time></trkpt><trkpt lat="53.69765979821885" lon="14.682666136953538"><ele>25.0</ele><time>2026-04-12T14:28:08.877Z</time></trkpt><trkpt lat="53.697538970386205" lon="14.682609981277324"><ele>23.6</ele><time>2026-04-12T14:28:09.877Z</time></trkpt><trkpt lat="53.69742511309056" lon="14.682557926859964"><ele>22.2</ele><time>2026-04-12T14:28:10.877Z</time></trkpt><trkpt lat="53.69732634651383" lon="14.682517845979971"><ele>20.8</ele><time>2026-04-12T14:28:11.877Z</time></trkpt><trkpt lat="53.69721612737056" lon="14.682470293284645"><ele>19.4</ele><time>2026-04-12T14:28:12.877Z</time></trkpt><trkpt lat="53.69710813114344" lon="14.682446276559546"><ele>18.0</ele><time>2026-04-12T14:28:13.877Z</time></trkpt><trkpt lat="53.69698107807177" lon="14.682407181649202"><ele>17.75</ele><time>2026-04-12T14:28:14.877Z</time></trkpt><trkpt lat="53.69684990677139" lon="14.682349621742638"><ele>17.5</ele><time>2026-04-12T14:28:15.877Z</time></trkpt><trkpt lat="53.69673068529709" lon="14.68229332105369"><ele>17.25</ele><time>2026-04-12T14:28:16.877Z</time></trkpt><trkpt lat="53.69661584419451" lon="14.682248001441073"><ele>17.0</ele><time>2026-04-12T14:28:17.877Z</time></trkpt><trkpt lat="53.696503095171096" lon="14.682195456727314"><ele>17.0</ele><time>2026-04-12T14:28:18.877Z</time></trkpt><trkpt lat="53.696411457163485" lon="14.682140544886192"><ele>17.0</ele><time>2026-04-12T14:28:19.877Z</time></trkpt><trkpt lat="53.69632532957781" lon="14.682115722606554"><ele>17.0</ele><time>2026-04-12T14:28:20.877Z</time></trkpt><trkpt lat="53.6962391143726" lon="14.682091363990029"><ele>17.0</ele><time>2026-04-12T14:28:21.877Z</time></trkpt><trkpt lat="53.696156269544716" lon="14.682051800992694"><ele>17.0</ele><time>2026-04-12T14:28:22.877Z</time></trkpt><trkpt lat="53.6960831693173" lon="14.682017857075353"><ele>17.0</ele><time>2026-04-12T14:28:23.877Z</time></trkpt><trkpt lat="53.69600761825899" lon="14.681979975046769"><ele>16.6</ele><time>2026-04-12T14:28:24.877Z</time></trkpt><trkpt lat="53.69592389135861" lon="14.681942407645685"><ele>16.2</ele><time>2026-04-12T14:28:25.877Z</time></trkpt><trkpt lat="53.695835773481335" lon="14.681907718542615"><ele>15.8</ele><time>2026-04-12T14:28:26.877Z</time></trkpt><trkpt lat="53.69573578668228" lon="14.681857776522083"><ele>15.4</ele><time>2026-04-12T14:28:27.877Z</time></trkpt><trkpt lat="53.69563567928907" lon="14.681818451973868"><ele>15.0</ele><time>2026-04-12T14:28:28.877Z</time></trkpt><trkpt lat="53.69554119542244" lon="14.681788373784594"><ele>15.0</ele><time>2026-04-12T14:28:29.877Z</time></trkpt><trkpt lat="53.69545898919369" lon="14.68172641526235"><ele>15.0</ele><time>2026-04-12T14:28:30.877Z</time></trkpt><trkpt lat="53.69536399473331" lon="14.681678274962886"><ele>15.0</ele><time>2026-04-12T14:28:31.877Z</time></trkpt><trkpt lat="53.695269389125684" lon="14.681627706208635"><ele>15.0</ele><time>2026-04-12T14:28:32.877Z</time></trkpt><trkpt lat="53.695162135668724" lon="14.681573208215577"><ele>15.0</ele><time>2026-04-12T14:28:33.877Z</time></trkpt><trkpt lat="53.69509525709717" lon="14.681562488858711"><ele>14.833333333333334</ele><time>2026-04-12T14:28:34.877Z</time></trkpt><trkpt lat="53.69502003016804" lon="14.6815263207118"><ele>14.666666666666668</ele><time>2026-04-12T14:28:36.877Z</time></trkpt><trkpt lat="53.69493806685253" lon="14.681558174086556"><ele>14.5</ele><time>2026-04-12T14:28:38.877Z</time></trkpt><trkpt lat="53.694875147521316" lon="14.681622994793937"><ele>14.333333333333334</ele><time>2026-04-12T14:28:39.877Z</time></trkpt><trkpt lat="53.69482239559081" lon="14.681749624001357"><ele>14.166666666666668</ele><time>2026-04-12T14:28:40.877Z</time></trkpt><trkpt lat="53.69473470915745" lon="14.681885213216532"><ele>14.0</ele><time>2026-04-12T14:28:41.877Z</time></trkpt><trkpt lat="53.694640808222125" lon="14.68206302865387"><ele>14.0</ele><time>2026-04-12T14:28:42.877Z</time></trkpt><trkpt lat="53.6945441105885" lon="14.682246513929831"><ele>14.0</ele><time>2026-04-12T14:28:43.877Z</time></trkpt><trkpt lat="53.694431234158195" lon="14.682463060815804"><ele>14.0</ele><time>2026-04-12T14:28:44.877Z</time></trkpt><trkpt lat="53.694319489626736" lon="14.68267721858287"><ele>14.0</ele><time>2026-04-12T14:28:45.877Z</time></trkpt><trkpt lat="53.69422120917192" lon="14.682898923447077"><ele>14.0</ele><time>2026-04-12T14:28:46.877Z</time></trkpt><trkpt lat="53.69411292838262" lon="14.683071189217392"><ele>14.0</ele><time>2026-04-12T14:28:47.877Z</time></trkpt><trkpt lat="53.69403111912673" lon="14.683250126335016"><ele>14.0</ele><time>2026-04-12T14:28:48.877Z</time></trkpt><trkpt lat="53.693960991280754" lon="14.683404904594472"><ele>14.0</ele><time>2026-04-12T14:28:49.877Z</time></trkpt><trkpt lat="53.69392019032484" lon="14.683507606774466"><ele>13.999999999999998</ele><time>2026-04-12T14:28:50.877Z</time></trkpt><trkpt lat="53.69389169222683" lon="14.683606162758705"><ele>13.999999999999998</ele><time>2026-04-12T14:28:51.877Z</time></trkpt><trkpt lat="53.69385183617386" lon="14.683741945428093"><ele>14.0</ele><time>2026-04-12T14:28:52.877Z</time></trkpt><trkpt lat="53.693779656393126" lon="14.683899472038453"><ele>14.0</ele><time>2026-04-12T14:28:53.877Z</time></trkpt><trkpt lat="53.69370701751265" lon="14.684110747475724"><ele>14.666666666666668</ele><time>2026-04-12T14:28:54.877Z</time></trkpt><trkpt lat="53.69363670736705" lon="14.684316451404976"><ele>15.333333333333332</ele><time>2026-04-12T14:28:55.877Z</time></trkpt><trkpt lat="53.69354885823171" lon="14.684573468521206"><ele>16.0</ele><time>2026-04-12T14:28:56.877Z</time></trkpt><trkpt lat="53.6934757655859" lon="14.684785706114097"><ele>17.4</ele><time>2026-04-12T14:28:57.877Z</time></trkpt><trkpt lat="53.69340925319458" lon="14.68497704068143"><ele>18.8</ele><time>2026-04-12T14:28:58.877Z</time></trkpt><trkpt lat="53.6933451099815" lon="14.685161291996147"><ele>20.2</ele><time>2026-04-12T14:28:59.877Z</time></trkpt><trkpt lat="53.69329102764526" lon="14.685316947947337"><ele>21.599999999999998</ele><time>2026-04-12T14:29:00.877Z</time></trkpt><trkpt lat="53.69324985301764" lon="14.685429744410152"><ele>23.0</ele><time>2026-04-12T14:29:01.877Z</time></trkpt><trkpt lat="53.69319861492194" lon="14.685494834513797"><ele>23.25</ele><time>2026-04-12T14:29:02.877Z</time></trkpt><trkpt lat="53.693141238692746" lon="14.685687152987857"><ele>23.5</ele><time>2026-04-12T14:29:04.877Z</time></trkpt><trkpt lat="53.693102676400386" lon="14.685799845120172"><ele>23.75</ele><time>2026-04-12T14:29:05.877Z</time></trkpt><trkpt lat="53.69303663632405" lon="14.685942132172828"><ele>24.0</ele><time>2026-04-12T14:29:07.877Z</time></trkpt><trkpt lat="53.69269130753252" lon="14.68574579562049"><ele>24.0</ele><time>2026-04-12T14:29:08.877Z</time></trkpt><trkpt lat="53.692589232446906" lon="14.685788035626056"><ele>24.0</ele><time>2026-04-12T14:29:09.877Z</time></trkpt><trkpt lat="53.69248503216909" lon="14.685847540161616"><ele>24.0</ele><time>2026-04-12T14:29:10.877Z</time></trkpt><trkpt lat="53.692373709836275" lon="14.68590218496088"><ele>24.0</ele><time>2026-04-12T14:29:11.877Z</time></trkpt><trkpt lat="53.69229291584677" lon="14.685945053087595"><ele>24.0</ele><time>2026-04-12T14:29:12.877Z</time></trkpt><trkpt lat="53.69219749926962" lon="14.685997525910954"><ele>24.0</ele><time>2026-04-12T14:29:13.875Z</time></trkpt><trkpt lat="53.692095303445626" lon="14.68605857436184"><ele>24.0</ele><time>2026-04-12T14:29:14.875Z</time></trkpt><trkpt lat="53.691994715026624" lon="14.686112180846935"><ele>24.0</ele><time>2026-04-12T14:29:15.875Z</time></trkpt><trkpt lat="53.69187686800396" lon="14.68615993618312"><ele>24.0</ele><time>2026-04-12T14:29:16.875Z</time></trkpt><trkpt lat="53.69175529011208" lon="14.686216793676838"><ele>24.0</ele><time>2026-04-12T14:29:17.875Z</time></trkpt><trkpt lat="53.691644464554244" lon="14.68627893203411"><ele>24.0</ele><time>2026-04-12T14:29:18.875Z</time></trkpt><trkpt lat="53.69154019357763" lon="14.68633259422796"><ele>24.0</ele><time>2026-04-12T14:29:19.875Z</time></trkpt><trkpt lat="53.69145220806052" lon="14.686383554589847"><ele>24.0</ele><time>2026-04-12T14:29:20.876Z</time></trkpt><trkpt lat="53.69135710667162" lon="14.686416681348208"><ele>24.0</ele><time>2026-04-12T14:29:21.876Z</time></trkpt><trkpt lat="53.691297533283986" lon="14.686456072645342"><ele>24.0</ele><time>2026-04-12T14:29:22.876Z</time></trkpt><trkpt lat="53.69120056131873" lon="14.686495306471933"><ele>24.0</ele><time>2026-04-12T14:29:23.876Z</time></trkpt><trkpt lat="53.6911088242193" lon="14.68653902200788"><ele>24.0</ele><time>2026-04-12T14:29:24.876Z</time></trkpt><trkpt lat="53.69100545688215" lon="14.686582200996497"><ele>24.0</ele><time>2026-04-12T14:29:25.875Z</time></trkpt><trkpt lat="53.69089619247755" lon="14.686630832129943"><ele>24.0</ele><time>2026-04-12T14:29:26.875Z</time></trkpt><trkpt lat="53.690808221566286" lon="14.686688739252961"><ele>24.0</ele><time>2026-04-12T14:29:27.875Z</time></trkpt><trkpt lat="53.69069362469583" lon="14.686733491822014"><ele>24.0</ele><time>2026-04-12T14:29:28.875Z</time></trkpt><trkpt lat="53.69059845478285" lon="14.686777916683628"><ele>24.0</ele><time>2026-04-12T14:29:29.875Z</time></trkpt><trkpt lat="53.690529549757706" lon="14.686830652570253"><ele>24.0</ele><time>2026-04-12T14:29:30.875Z</time></trkpt><trkpt lat="53.69042545910057" lon="14.686882727885461"><ele>24.0</ele><time>2026-04-12T14:29:31.875Z</time></trkpt><trkpt lat="53.69032373107561" lon="14.686932050055718"><ele>24.4</ele><time>2026-04-12T14:29:32.875Z</time></trkpt><trkpt lat="53.690221301880364" lon="14.686988668271876"><ele>24.799999999999997</ele><time>2026-04-12T14:29:33.875Z</time></trkpt><trkpt lat="53.69012170508489" lon="14.687037399907705"><ele>25.200000000000003</ele><time>2026-04-12T14:29:34.875Z</time></trkpt><trkpt lat="53.69000740113324" lon="14.687077797380303"><ele>25.6</ele><time>2026-04-12T14:29:35.875Z</time></trkpt><trkpt lat="53.68989520324318" lon="14.687118678831386"><ele>26.0</ele><time>2026-04-12T14:29:36.875Z</time></trkpt><trkpt lat="53.68980275990826" lon="14.687179282397127"><ele>26.0</ele><time>2026-04-12T14:29:37.875Z</time></trkpt><trkpt lat="53.68970837177713" lon="14.68723642590748"><ele>26.0</ele><time>2026-04-12T14:29:38.875Z</time></trkpt><trkpt lat="53.68959758832935" lon="14.687290275559821"><ele>26.0</ele><time>2026-04-12T14:29:39.875Z</time></trkpt><trkpt lat="53.689491052283536" lon="14.687342374426112"><ele>26.0</ele><time>2026-04-12T14:29:40.875Z</time></trkpt><trkpt lat="53.68937365425562" lon="14.687395137964451"><ele>26.0</ele><time>2026-04-12T14:29:41.875Z</time></trkpt><trkpt lat="53.689275422178476" lon="14.68743574455558"><ele>26.0</ele><time>2026-04-12T14:29:42.875Z</time></trkpt><trkpt lat="53.68915528077107" lon="14.687483632853434"><ele>26.0</ele><time>2026-04-12T14:29:43.875Z</time></trkpt><trkpt lat="53.68903019892391" lon="14.68755813509982"><ele>26.0</ele><time>2026-04-12T14:29:44.875Z</time></trkpt><trkpt lat="53.688891448887375" lon="14.687631147016562"><ele>26.0</ele><time>2026-04-12T14:29:45.875Z</time></trkpt><trkpt lat="53.68873853607835" lon="14.687700072420595"><ele>26.0</ele><time>2026-04-12T14:29:46.875Z</time></trkpt><trkpt lat="53.688603771978066" lon="14.687761742922827"><ele>26.0</ele><time>2026-04-12T14:29:47.875Z</time></trkpt><trkpt lat="53.68848798444107" lon="14.687830005124535"><ele>26.0</ele><time>2026-04-12T14:29:48.875Z</time></trkpt><trkpt lat="53.688367333125385" lon="14.687881347864655"><ele>26.0</ele><time>2026-04-12T14:29:49.875Z</time></trkpt><trkpt lat="53.68823678121322" lon="14.687939924212012"><ele>25.5</ele><time>2026-04-12T14:29:50.875Z</time></trkpt><trkpt lat="53.688103548414986" lon="14.688001787726549"><ele>25.0</ele><time>2026-04-12T14:29:51.875Z</time></trkpt><trkpt lat="53.68797340881127" lon="14.688065248641653"><ele>24.5</ele><time>2026-04-12T14:29:52.875Z</time></trkpt><trkpt lat="53.68785274487548" lon="14.688126211160123"><ele>24.0</ele><time>2026-04-12T14:29:53.875Z</time></trkpt><trkpt lat="53.68771103668768" lon="14.688205306042478"><ele>23.5</ele><time>2026-04-12T14:29:54.875Z</time></trkpt><trkpt lat="53.68757847386821" lon="14.688268067154423"><ele>23.0</ele><time>2026-04-12T14:29:55.875Z</time></trkpt><trkpt lat="53.68745530767682" lon="14.688331418633096"><ele>22.5</ele><time>2026-04-12T14:29:56.875Z</time></trkpt><trkpt lat="53.68730957725738" lon="14.688405706801719"><ele>22.0</ele><time>2026-04-12T14:29:57.875Z</time></trkpt><trkpt lat="53.687158068211176" lon="14.688476360762618"><ele>22.0</ele><time>2026-04-12T14:29:58.875Z</time></trkpt><trkpt lat="53.68701290241533" lon="14.688542744299378"><ele>22.0</ele><time>2026-04-12T14:29:59.875Z</time></trkpt><trkpt lat="53.68687803864785" lon="14.688613036938353"><ele>22.0</ele><time>2026-04-12T14:30:00.875Z</time></trkpt><trkpt lat="53.68674992027979" lon="14.688679026220818"><ele>22.0</ele><time>2026-04-12T14:30:01.876Z</time></trkpt><trkpt lat="53.68662085529918" lon="14.688746720866042"><ele>21.75</ele><time>2026-04-12T14:30:02.876Z</time></trkpt><trkpt lat="53.686482121491615" lon="14.688824761392985"><ele>21.5</ele><time>2026-04-12T14:30:03.876Z</time></trkpt><trkpt lat="53.686350963075256" lon="14.688877974838778"><ele>21.25</ele><time>2026-04-12T14:30:04.876Z</time></trkpt><trkpt lat="53.686228105310036" lon="14.68894702472097"><ele>21.0</ele><time>2026-04-12T14:30:05.876Z</time></trkpt><trkpt lat="53.68609813543694" lon="14.689007272822211"><ele>19.0</ele><time>2026-04-12T14:30:06.876Z</time></trkpt><trkpt lat="53.68598339057253" lon="14.689055183726449"><ele>17.0</ele><time>2026-04-12T14:30:07.876Z</time></trkpt><trkpt lat="53.685852896816236" lon="14.689126176043635"><ele>15.0</ele><time>2026-04-12T14:30:08.876Z</time></trkpt><trkpt lat="53.685706296471075" lon="14.689203443952744"><ele>13.0</ele><time>2026-04-12T14:30:09.876Z</time></trkpt><trkpt lat="53.68555237908992" lon="14.689294280903308"><ele>13.0</ele><time>2026-04-12T14:30:10.876Z</time></trkpt><trkpt lat="53.685382936444654" lon="14.689372539600392"><ele>13.0</ele><time>2026-04-12T14:30:11.876Z</time></trkpt><trkpt lat="53.685209201870734" lon="14.68945120053918"><ele>13.0</ele><time>2026-04-12T14:30:12.876Z</time></trkpt><trkpt lat="53.68508336946585" lon="14.6895152324633"><ele>12.5</ele><time>2026-04-12T14:30:13.876Z</time></trkpt><trkpt lat="53.68495152173496" lon="14.689594778837892"><ele>12.0</ele><time>2026-04-12T14:30:14.876Z</time></trkpt><trkpt lat="53.684818140056485" lon="14.689640832401684"><ele>11.5</ele><time>2026-04-12T14:30:15.876Z</time></trkpt><trkpt lat="53.68467305712677" lon="14.689718986573325"><ele>11.0</ele><time>2026-04-12T14:30:16.876Z</time></trkpt><trkpt lat="53.684507516380584" lon="14.689794799751459"><ele>12.333333333333332</ele><time>2026-04-12T14:30:17.876Z</time></trkpt><trkpt lat="53.68435986947867" lon="14.68987623263161"><ele>13.666666666666666</ele><time>2026-04-12T14:30:18.876Z</time></trkpt><trkpt lat="53.68422155857792" lon="14.689949592323458"><ele>15.0</ele><time>2026-04-12T14:30:19.876Z</time></trkpt><trkpt lat="53.68407681380645" lon="14.690026288561096"><ele>15.0</ele><time>2026-04-12T14:30:20.876Z</time></trkpt><trkpt lat="53.68394232633796" lon="14.690082794194531"><ele>15.0</ele><time>2026-04-12T14:30:21.876Z</time></trkpt><trkpt lat="53.683788417449485" lon="14.69016385356484"><ele>15.0</ele><time>2026-04-12T14:30:22.876Z</time></trkpt><trkpt lat="53.683638533585196" lon="14.690223511393"><ele>14.0</ele><time>2026-04-12T14:30:23.876Z</time></trkpt><trkpt lat="53.6835185203321" lon="14.690298319755875"><ele>13.0</ele><time>2026-04-12T14:30:24.876Z</time></trkpt><trkpt lat="53.68338201582423" lon="14.690358748712345"><ele>12.0</ele><time>2026-04-12T14:30:25.876Z</time></trkpt><trkpt lat="53.68321391128779" lon="14.690424920263293"><ele>11.0</ele><time>2026-04-12T14:30:26.876Z</time></trkpt><trkpt lat="53.68307718608718" lon="14.690500181892581"><ele>11.0</ele><time>2026-04-12T14:30:27.876Z</time></trkpt><trkpt lat="53.682911251176236" lon="14.690567427559413"><ele>11.0</ele><time>2026-04-12T14:30:28.876Z</time></trkpt><trkpt lat="53.682764278939295" lon="14.690655252998548"><ele>11.0</ele><time>2026-04-12T14:30:29.876Z</time></trkpt><trkpt lat="53.68261170363891" lon="14.690732356611932"><ele>11.666666666666666</ele><time>2026-04-12T14:30:30.876Z</time></trkpt><trkpt lat="53.68247830682428" lon="14.690800116818835"><ele>12.333333333333332</ele><time>2026-04-12T14:30:31.876Z</time></trkpt><trkpt lat="53.682323168524164" lon="14.690866166006511"><ele>13.0</ele><time>2026-04-12T14:30:32.876Z</time></trkpt><trkpt lat="53.682173818302836" lon="14.690918254036799"><ele>13.0</ele><time>2026-04-12T14:30:33.876Z</time></trkpt><trkpt lat="53.68202840914267" lon="14.690987469743604"><ele>13.0</ele><time>2026-04-12T14:30:34.876Z</time></trkpt><trkpt lat="53.68187907210404" lon="14.691058266209867"><ele>13.0</ele><time>2026-04-12T14:30:35.876Z</time></trkpt><trkpt lat="53.68173209245218" lon="14.691140979192017"><ele>12.75</ele><time>2026-04-12T14:30:36.876Z</time></trkpt><trkpt lat="53.68158898768145" lon="14.69121334411387"><ele>12.5</ele><time>2026-04-12T14:30:37.876Z</time></trkpt><trkpt lat="53.68144916692867" lon="14.691274795135097"><ele>12.25</ele><time>2026-04-12T14:30:38.876Z</time></trkpt><trkpt lat="53.681331286930394" lon="14.691342407930259"><ele>12.0</ele><time>2026-04-12T14:30:39.876Z</time></trkpt><trkpt lat="53.6812051605898" lon="14.691408625231318"><ele>12.25</ele><time>2026-04-12T14:30:40.876Z</time></trkpt><trkpt lat="53.681086756181415" lon="14.691485657273908"><ele>12.5</ele><time>2026-04-12T14:30:41.876Z</time></trkpt><trkpt lat="53.68096173162307" lon="14.691539347695041"><ele>12.75</ele><time>2026-04-12T14:30:42.876Z</time></trkpt><trkpt lat="53.68084498562643" lon="14.691607308825557"><ele>13.0</ele><time>2026-04-12T14:30:43.876Z</time></trkpt><trkpt lat="53.6807205866012" lon="14.69166211951215"><ele>13.0</ele><time>2026-04-12T14:30:44.876Z</time></trkpt><trkpt lat="53.68057593965846" lon="14.691727505732295"><ele>13.0</ele><time>2026-04-12T14:30:45.876Z</time></trkpt><trkpt lat="53.68043384675754" lon="14.691809645122461"><ele>13.0</ele><time>2026-04-12T14:30:46.876Z</time></trkpt><trkpt lat="53.68030159313756" lon="14.691905687513191"><ele>13.0</ele><time>2026-04-12T14:30:47.876Z</time></trkpt><trkpt lat="53.68017015605793" lon="14.691953934177253"><ele>12.25</ele><time>2026-04-12T14:30:48.876Z</time></trkpt><trkpt lat="53.68004534653584" lon="14.692000047548392"><ele>11.5</ele><time>2026-04-12T14:30:49.876Z</time></trkpt><trkpt lat="53.6799383195874" lon="14.692036151093637"><ele>10.75</ele><time>2026-04-12T14:30:50.876Z</time></trkpt><trkpt lat="53.679817898446146" lon="14.692072997035668"><ele>10.0</ele><time>2026-04-12T14:30:51.876Z</time></trkpt><trkpt lat="53.679712857853566" lon="14.692123876193005"><ele>10.0</ele><time>2026-04-12T14:30:52.876Z</time></trkpt><trkpt lat="53.67959290188832" lon="14.692193844135348"><ele>10.0</ele><time>2026-04-12T14:30:53.876Z</time></trkpt><trkpt lat="53.67947489218404" lon="14.69226902058127"><ele>10.0</ele><time>2026-04-12T14:30:54.876Z</time></trkpt><trkpt lat="53.679359567851044" lon="14.69233390753295"><ele>10.0</ele><time>2026-04-12T14:30:55.876Z</time></trkpt><trkpt lat="53.679218784951985" lon="14.692402466499782"><ele>10.5</ele><time>2026-04-12T14:30:56.876Z</time></trkpt><trkpt lat="53.679111207481995" lon="14.692455521702856"><ele>11.0</ele><time>2026-04-12T14:30:57.876Z</time></trkpt><trkpt lat="53.678982590651714" lon="14.692509287747768"><ele>11.5</ele><time>2026-04-12T14:30:58.876Z</time></trkpt><trkpt lat="53.67886247242405" lon="14.692558419029567"><ele>12.0</ele><time>2026-04-12T14:30:59.876Z</time></trkpt><trkpt lat="53.67873464424694" lon="14.692622651383504"><ele>12.0</ele><time>2026-04-12T14:31:00.876Z</time></trkpt><trkpt lat="53.67861535940744" lon="14.692673956387184"><ele>12.0</ele><time>2026-04-12T14:31:01.876Z</time></trkpt><trkpt lat="53.67849975449254" lon="14.692716734069782"><ele>12.0</ele><time>2026-04-12T14:31:02.876Z</time></trkpt><trkpt lat="53.67840704615792" lon="14.692752831280414"><ele>12.0</ele><time>2026-04-12T14:31:03.876Z</time></trkpt><trkpt lat="53.6783095595434" lon="14.692791436272604"><ele>12.0</ele><time>2026-04-12T14:31:04.876Z</time></trkpt><trkpt lat="53.678223393808366" lon="14.692840044099123"><ele>11.428571428571427</ele><time>2026-04-12T14:31:05.876Z</time></trkpt><trkpt lat="53.678146947388576" lon="14.69288311831921"><ele>10.857142857142858</ele><time>2026-04-12T14:31:06.876Z</time></trkpt><trkpt lat="53.67808666945343" lon="14.69292325301114"><ele>10.285714285714285</ele><time>2026-04-12T14:31:07.876Z</time></trkpt><trkpt lat="53.67802577883445" lon="14.692954116999367"><ele>9.714285714285714</ele><time>2026-04-12T14:31:09.876Z</time></trkpt><trkpt lat="53.677962750191504" lon="14.692977212122065"><ele>9.142857142857142</ele><time>2026-04-12T14:31:12.876Z</time></trkpt><trkpt lat="53.678021835283154" lon="14.693034898310357"><ele>8.571428571428571</ele><time>2026-04-12T14:31:19.875Z</time></trkpt><trkpt lat="53.6780959730419" lon="14.692939448465822"><ele>8.0</ele><time>2026-04-12T14:31:21.875Z</time></trkpt><trkpt lat="53.67814719302708" lon="14.692876224184419"><ele>8.0</ele><time>2026-04-12T14:31:22.875Z</time></trkpt><trkpt lat="53.678254140758355" lon="14.69280549948108"><ele>8.0</ele><time>2026-04-12T14:31:24.876Z</time></trkpt><trkpt lat="53.67837964018658" lon="14.692740969160504"><ele>8.0</ele><time>2026-04-12T14:31:26.875Z</time></trkpt><trkpt lat="53.67849939672289" lon="14.692699077988568"><ele>8.0</ele><time>2026-04-12T14:31:28.876Z</time></trkpt><trkpt lat="53.678597079204586" lon="14.692653847446008"><ele>8.8</ele><time>2026-04-12T14:31:30.875Z</time></trkpt><trkpt lat="53.67871231077473" lon="14.692602493050279"><ele>9.600000000000001</ele><time>2026-04-12T14:31:32.875Z</time></trkpt><trkpt lat="53.67879318930872" lon="14.692557979824905"><ele>10.399999999999999</ele><time>2026-04-12T14:31:33.875Z</time></trkpt><trkpt lat="53.67886442724968" lon="14.692526975486304"><ele>11.2</ele><time>2026-04-12T14:31:34.875Z</time></trkpt><trkpt lat="53.6789470276966" lon="14.692483146578253"><ele>12.0</ele><time>2026-04-12T14:31:35.875Z</time></trkpt><trkpt lat="53.67904312012002" lon="14.692440267596403"><ele>12.0</ele><time>2026-04-12T14:31:36.875Z</time></trkpt><trkpt lat="53.679126058858365" lon="14.69239937156007"><ele>12.0</ele><time>2026-04-12T14:31:37.875Z</time></trkpt><trkpt lat="53.67920598016051" lon="14.692374507980169"><ele>12.0</ele><time>2026-04-12T14:31:38.875Z</time></trkpt><trkpt lat="53.67928850228621" lon="14.692314821793511"><ele>12.0</ele><time>2026-04-12T14:31:39.875Z</time></trkpt><trkpt lat="53.67935665882806" lon="14.6922684824215"><ele>12.0</ele><time>2026-04-12T14:31:40.875Z</time></trkpt><trkpt lat="53.679455843421" lon="14.69221198843869"><ele>12.0</ele><time>2026-04-12T14:31:41.875Z</time></trkpt><trkpt lat="53.67956308484945" lon="14.69217573371899"><ele>11.6</ele><time>2026-04-12T14:31:43.875Z</time></trkpt><trkpt lat="53.67966940464096" lon="14.692105365166059"><ele>11.2</ele><time>2026-04-12T14:31:45.875Z</time></trkpt><trkpt lat="53.67978595933342" lon="14.692044227101574"><ele>10.8</ele><time>2026-04-12T14:31:47.875Z</time></trkpt><trkpt lat="53.67988276157539" lon="14.692061964859178"><ele>10.4</ele><time>2026-04-12T14:31:49.875Z</time></trkpt><trkpt lat="53.679921368458636" lon="14.692151758660456"><ele>10.0</ele><time>2026-04-12T14:31:50.875Z</time></trkpt><trkpt lat="53.67995425929816" lon="14.692303230719164"><ele>10.0</ele><time>2026-04-12T14:31:51.875Z</time></trkpt><trkpt lat="53.679968842217484" lon="14.69248690772164"><ele>10.0</ele><time>2026-04-12T14:31:52.875Z</time></trkpt><trkpt lat="53.68000013797721" lon="14.692719854610454"><ele>10.0</ele><time>2026-04-12T14:31:53.875Z</time></trkpt><trkpt lat="53.680021104396864" lon="14.692928055163572"><ele>10.0</ele><time>2026-04-12T14:31:54.875Z</time></trkpt><trkpt lat="53.680046714938115" lon="14.693105737060009"><ele>10.0</ele><time>2026-04-12T14:31:55.875Z</time></trkpt><trkpt lat="53.680074129842275" lon="14.693266134327283"><ele>10.0</ele><time>2026-04-12T14:31:56.875Z</time></trkpt><trkpt lat="53.68010645681807" lon="14.693441457136847"><ele>10.0</ele><time>2026-04-12T14:31:57.875Z</time></trkpt><trkpt lat="53.68013830276062" lon="14.693615209425115"><ele>10.0</ele><time>2026-04-12T14:31:58.875Z</time></trkpt><trkpt lat="53.68017483155325" lon="14.693795479256796"><ele>10.0</ele><time>2026-04-12T14:31:59.875Z</time></trkpt><trkpt lat="53.6802189554888" lon="14.693962613455511"><ele>10.0</ele><time>2026-04-12T14:32:00.875Z</time></trkpt><trkpt lat="53.680254482814284" lon="14.694114231624006"><ele>10.0</ele><time>2026-04-12T14:32:01.875Z</time></trkpt><trkpt lat="53.68028955182039" lon="14.694316090284367"><ele>10.0</ele><time>2026-04-12T14:32:02.875Z</time></trkpt><trkpt lat="53.680336122705306" lon="14.694529588994488"><ele>10.0</ele><time>2026-04-12T14:32:03.875Z</time></trkpt><trkpt lat="53.68037458430439" lon="14.694740638606662"><ele>10.0</ele><time>2026-04-12T14:32:04.875Z</time></trkpt><trkpt lat="53.68040736524209" lon="14.694929380244009"><ele>10.0</ele><time>2026-04-12T14:32:05.875Z</time></trkpt><trkpt lat="53.68044670297322" lon="14.695142817976185"><ele>10.0</ele><time>2026-04-12T14:32:06.875Z</time></trkpt><trkpt lat="53.680483414836274" lon="14.695359544956677"><ele>10.0</ele><time>2026-04-12T14:32:07.875Z</time></trkpt><trkpt lat="53.68053471030872" lon="14.695576736053425"><ele>10.5</ele><time>2026-04-12T14:32:08.875Z</time></trkpt><trkpt lat="53.68056777263509" lon="14.695806118449878"><ele>11.0</ele><time>2026-04-12T14:32:09.875Z</time></trkpt><trkpt lat="53.680599839428595" lon="14.696055288123747"><ele>11.5</ele><time>2026-04-12T14:32:10.875Z</time></trkpt><trkpt lat="53.68063480403174" lon="14.69626467029036"><ele>12.0</ele><time>2026-04-12T14:32:11.875Z</time></trkpt><trkpt lat="53.68067376133094" lon="14.696443514262565"><ele>12.399999999999999</ele><time>2026-04-12T14:32:12.875Z</time></trkpt><trkpt lat="53.68071588768092" lon="14.696616035635452"><ele>12.799999999999999</ele><time>2026-04-12T14:32:13.875Z</time></trkpt><trkpt lat="53.680752990916204" lon="14.69680412286222"><ele>13.2</ele><time>2026-04-12T14:32:14.875Z</time></trkpt><trkpt lat="53.6807872592986" lon="14.696974649301144"><ele>13.6</ele><time>2026-04-12T14:32:15.875Z</time></trkpt><trkpt lat="53.6808156454934" lon="14.697146491231532"><ele>14.0</ele><time>2026-04-12T14:32:16.875Z</time></trkpt><trkpt lat="53.68084516863554" lon="14.697318398104963"><ele>14.2</ele><time>2026-04-12T14:32:17.875Z</time></trkpt><trkpt lat="53.68087022853341" lon="14.697478271125666"><ele>14.399999999999999</ele><time>2026-04-12T14:32:18.875Z</time></trkpt><trkpt lat="53.68088277189908" lon="14.697620442438573"><ele>14.6</ele><time>2026-04-12T14:32:19.875Z</time></trkpt><trkpt lat="53.68091035384001" lon="14.697773490738014"><ele>14.8</ele><time>2026-04-12T14:32:20.875Z</time></trkpt><trkpt lat="53.680937680010715" lon="14.697926379830447"><ele>15.0</ele><time>2026-04-12T14:32:21.875Z</time></trkpt><trkpt lat="53.680959005158805" lon="14.698080132626814"><ele>15.0</ele><time>2026-04-12T14:32:22.875Z</time></trkpt><trkpt lat="53.68097577740232" lon="14.698222352548056"><ele>15.0</ele><time>2026-04-12T14:32:23.875Z</time></trkpt><trkpt lat="53.68100200131648" lon="14.698395619929347"><ele>15.0</ele><time>2026-04-12T14:32:24.875Z</time></trkpt><trkpt lat="53.68103283346376" lon="14.698548469613522"><ele>15.0</ele><time>2026-04-12T14:32:25.875Z</time></trkpt><trkpt lat="53.68108108375044" lon="14.698719845160234"><ele>15.0</ele><time>2026-04-12T14:32:26.875Z</time></trkpt><trkpt lat="53.68112372240437" lon="14.698910801700144"><ele>15.0</ele><time>2026-04-12T14:32:27.875Z</time></trkpt><trkpt lat="53.68115090857022" lon="14.699117741753053"><ele>15.0</ele><time>2026-04-12T14:32:28.875Z</time></trkpt><trkpt lat="53.681182351239116" lon="14.699293989284062"><ele>15.0</ele><time>2026-04-12T14:32:29.875Z</time></trkpt><trkpt lat="53.681216869029065" lon="14.699463769875502"><ele>15.0</ele><time>2026-04-12T14:32:30.875Z</time></trkpt><trkpt lat="53.6802189554888" lon="14.693962613455511"><ele>14.5</ele><time>2026-04-12T14:32:00.875Z</time></trkpt><trkpt lat="53.680254482814284" lon="14.694114231624006"><ele>14.0</ele><time>2026-04-12T14:32:01.875Z</time></trkpt><trkpt lat="53.68028955182039" lon="14.694316090284367"><ele>13.5</ele><time>2026-04-12T14:32:02.875Z</time></trkpt><trkpt lat="53.680336122705306" lon="14.694529588994488"><ele>13.0</ele><time>2026-04-12T14:32:03.875Z</time></trkpt><trkpt lat="53.68037458430439" lon="14.694740638606662"><ele>12.75</ele><time>2026-04-12T14:32:04.875Z</time></trkpt><trkpt lat="53.68040736524209" lon="14.694929380244009"><ele>12.5</ele><time>2026-04-12T14:32:05.875Z</time></trkpt><trkpt lat="53.68044670297322" lon="14.695142817976185"><ele>12.25</ele><time>2026-04-12T14:32:06.875Z</time></trkpt><trkpt lat="53.680483414836274" lon="14.695359544956677"><ele>12.0</ele><time>2026-04-12T14:32:07.875Z</time></trkpt><trkpt lat="53.68053471030872" lon="14.695576736053425"><ele>12.0</ele><time>2026-04-12T14:32:08.875Z</time></trkpt><trkpt lat="53.68056777263509" lon="14.695806118449878"><ele>12.0</ele><time>2026-04-12T14:32:09.875Z</time></trkpt><trkpt lat="53.680599839428595" lon="14.696055288123747"><ele>12.0</ele><time>2026-04-12T14:32:10.875Z</time></trkpt><trkpt lat="53.68063480403174" lon="14.69626467029036"><ele>12.0</ele><time>2026-04-12T14:32:11.875Z</time></trkpt><trkpt lat="53.68067376133094" lon="14.696443514262565"><ele>12.399999999999999</ele><time>2026-04-12T14:32:12.875Z</time></trkpt><trkpt lat="53.68071588768092" lon="14.696616035635452"><ele>12.799999999999999</ele><time>2026-04-12T14:32:13.875Z</time></trkpt><trkpt lat="53.680752990916204" lon="14.69680412286222"><ele>13.2</ele><time>2026-04-12T14:32:14.875Z</time></trkpt><trkpt lat="53.6807872592986" lon="14.696974649301144"><ele>13.6</ele><time>2026-04-12T14:32:15.875Z</time></trkpt><trkpt lat="53.6808156454934" lon="14.697146491231532"><ele>14.0</ele><time>2026-04-12T14:32:16.875Z</time></trkpt><trkpt lat="53.68084516863554" lon="14.697318398104963"><ele>14.2</ele><time>2026-04-12T14:32:17.875Z</time></trkpt><trkpt lat="53.68087022853341" lon="14.697478271125666"><ele>14.399999999999999</ele><time>2026-04-12T14:32:18.875Z</time></trkpt><trkpt lat="53.68088277189908" lon="14.697620442438573"><ele>14.6</ele><time>2026-04-12T14:32:19.875Z</time></trkpt><trkpt lat="53.68091035384001" lon="14.697773490738014"><ele>14.8</ele><time>2026-04-12T14:32:20.875Z</time></trkpt><trkpt lat="53.680937680010715" lon="14.697926379830447"><ele>15.0</ele><time>2026-04-12T14:32:21.875Z</time></trkpt><trkpt lat="53.680959005158805" lon="14.698080132626814"><ele>15.0</ele><time>2026-04-12T14:32:22.875Z</time></trkpt><trkpt lat="53.68097577740232" lon="14.698222352548056"><ele>15.0</ele><time>2026-04-12T14:32:23.875Z</time></trkpt><trkpt lat="53.68100200131648" lon="14.698395619929347"><ele>15.0</ele><time>2026-04-12T14:32:24.875Z</time></trkpt><trkpt lat="53.68103283346376" lon="14.698548469613522"><ele>15.0</ele><time>2026-04-12T14:32:25.875Z</time></trkpt><trkpt lat="53.68108108375044" lon="14.698719845160234"><ele>15.0</ele><time>2026-04-12T14:32:26.875Z</time></trkpt><trkpt lat="53.68112372240437" lon="14.698910801700144"><ele>15.0</ele><time>2026-04-12T14:32:27.875Z</time></trkpt><trkpt lat="53.68115090857022" lon="14.699117741753053"><ele>15.0</ele><time>2026-04-12T14:32:28.875Z</time></trkpt><trkpt lat="53.681182351239116" lon="14.699293989284062"><ele>15.0</ele><time>2026-04-12T14:32:29.875Z</time></trkpt><trkpt lat="53.681216869029065" lon="14.699463769875502"><ele>15.0</ele><time>2026-04-12T14:32:30.875Z</time></trkpt><trkpt lat="53.681244099185" lon="14.69962891572456"><ele>15.0</ele><time>2026-04-12T14:32:31.875Z</time></trkpt><trkpt lat="53.68127095252768" lon="14.699787756697537"><ele>14.833333333333334</ele><time>2026-04-12T14:32:32.875Z</time></trkpt><trkpt lat="53.68128904396931" lon="14.699915181378683"><ele>14.666666666666668</ele><time>2026-04-12T14:32:33.875Z</time></trkpt><trkpt lat="53.68131765400412" lon="14.70004577536198"><ele>14.5</ele><time>2026-04-12T14:32:34.875Z</time></trkpt><trkpt lat="53.681341143610304" lon="14.700170007740505"><ele>14.333333333333334</ele><time>2026-04-12T14:32:35.875Z</time></trkpt><trkpt lat="53.68136377933027" lon="14.700313850974153"><ele>14.166666666666668</ele><time>2026-04-12T14:32:36.875Z</time></trkpt><trkpt lat="53.68140291177185" lon="14.7004745744844"><ele>14.0</ele><time>2026-04-12T14:32:37.875Z</time></trkpt><trkpt lat="53.681433873158156" lon="14.70066723692938"><ele>13.5</ele><time>2026-04-12T14:32:38.875Z</time></trkpt><trkpt lat="53.68146711884418" lon="14.70088749071736"><ele>13.0</ele><time>2026-04-12T14:32:39.875Z</time></trkpt><trkpt lat="53.68149823164478" lon="14.70108259073952"><ele>12.5</ele><time>2026-04-12T14:32:40.875Z</time></trkpt><trkpt lat="53.68152283502902" lon="14.701239270814133"><ele>12.0</ele><time>2026-04-12T14:32:41.875Z</time></trkpt><trkpt lat="53.68154445676359" lon="14.7014048401661"><ele>11.8</ele><time>2026-04-12T14:32:42.875Z</time></trkpt><trkpt lat="53.681571438165356" lon="14.701586567895427"><ele>11.6</ele><time>2026-04-12T14:32:43.875Z</time></trkpt><trkpt lat="53.681612118231484" lon="14.70177729621086"><ele>11.4</ele><time>2026-04-12T14:32:44.875Z</time></trkpt><trkpt lat="53.68164220289363" lon="14.701922251175091"><ele>11.200000000000001</ele><time>2026-04-12T14:32:45.875Z</time></trkpt><trkpt lat="53.68167251835752" lon="14.702091885614479"><ele>11.0</ele><time>2026-04-12T14:32:46.875Z</time></trkpt><trkpt lat="53.68169412220762" lon="14.702279248453296"><ele>11.0</ele><time>2026-04-12T14:32:47.875Z</time></trkpt><trkpt lat="53.68171892006009" lon="14.702469976664458"><ele>11.0</ele><time>2026-04-12T14:32:48.875Z</time></trkpt><trkpt lat="53.68175480131999" lon="14.702655698414635"><ele>11.0</ele><time>2026-04-12T14:32:49.875Z</time></trkpt><trkpt lat="53.681793717800666" lon="14.702833878669484"><ele>11.0</ele><time>2026-04-12T14:32:50.875Z</time></trkpt><trkpt lat="53.68182554408197" lon="14.703025203952688"><ele>11.200000000000001</ele><time>2026-04-12T14:32:51.875Z</time></trkpt><trkpt lat="53.681855335256635" lon="14.703213394120105"><ele>11.4</ele><time>2026-04-12T14:32:52.875Z</time></trkpt><trkpt lat="53.68189370722001" lon="14.703404430442681"><ele>11.6</ele><time>2026-04-12T14:32:53.875Z</time></trkpt><trkpt lat="53.681918589467834" lon="14.703584166765602"><ele>11.8</ele><time>2026-04-12T14:32:54.875Z</time></trkpt><trkpt lat="53.68193498937761" lon="14.703735612512238"><ele>12.0</ele><time>2026-04-12T14:32:55.875Z</time></trkpt><trkpt lat="53.68195609689653" lon="14.703894110172303"><ele>13.5</ele><time>2026-04-12T14:32:56.875Z</time></trkpt><trkpt lat="53.681992871621965" lon="14.704077054024882"><ele>15.0</ele><time>2026-04-12T14:32:57.875Z</time></trkpt><trkpt lat="53.68201735695541" lon="14.704265800109306"><ele>16.5</ele><time>2026-04-12T14:32:58.875Z</time></trkpt><trkpt lat="53.68205152646897" lon="14.70445836275106"><ele>18.0</ele><time>2026-04-12T14:32:59.875Z</time></trkpt><trkpt lat="53.682077546605605" lon="14.70464562108688"><ele>18.25</ele><time>2026-04-12T14:33:00.875Z</time></trkpt><trkpt lat="53.682116818673045" lon="14.704845719364053"><ele>18.5</ele><time>2026-04-12T14:33:01.875Z</time></trkpt><trkpt lat="53.68214887906984" lon="14.705035504895038"><ele>18.75</ele><time>2026-04-12T14:33:02.875Z</time></trkpt><trkpt lat="53.68218834962804" lon="14.705235051301424"><ele>19.0</ele><time>2026-04-12T14:33:03.875Z</time></trkpt><trkpt lat="53.68222209298286" lon="14.705433683676315"><ele>19.25</ele><time>2026-04-12T14:33:04.875Z</time></trkpt><trkpt lat="53.682258251861704" lon="14.705643976551173"><ele>19.5</ele><time>2026-04-12T14:33:05.875Z</time></trkpt><trkpt lat="53.68231811614295" lon="14.705904444298891"><ele>19.75</ele><time>2026-04-12T14:33:06.875Z</time></trkpt><trkpt lat="53.68235398759551" lon="14.706131712138914"><ele>20.0</ele><time>2026-04-12T14:33:07.875Z</time></trkpt><trkpt lat="53.68239098421949" lon="14.706355509286102"><ele>20.25</ele><time>2026-04-12T14:33:08.875Z</time></trkpt><trkpt lat="53.682430886423425" lon="14.706584633900713"><ele>20.5</ele><time>2026-04-12T14:33:09.875Z</time></trkpt><trkpt lat="53.68246584846434" lon="14.706796119124508"><ele>20.75</ele><time>2026-04-12T14:33:10.875Z</time></trkpt><trkpt lat="53.68250413150767" lon="14.70701223162535"><ele>21.0</ele><time>2026-04-12T14:33:11.875Z</time></trkpt><trkpt lat="53.68254466745039" lon="14.707251462424292"><ele>21.0</ele><time>2026-04-12T14:33:12.875Z</time></trkpt><trkpt lat="53.6825884234045" lon="14.707486530399724"><ele>21.0</ele><time>2026-04-12T14:33:13.875Z</time></trkpt><trkpt lat="53.682615868225575" lon="14.707690188451899"><ele>21.0</ele><time>2026-04-12T14:33:14.875Z</time></trkpt><trkpt lat="53.682650833507594" lon="14.70789027674083"><ele>21.0</ele><time>2026-04-12T14:33:15.875Z</time></trkpt><trkpt lat="53.68268303048191" lon="14.708048320986233"><ele>21.0</ele><time>2026-04-12T14:33:16.875Z</time></trkpt><trkpt lat="53.68272034614914" lon="14.708204496606056"><ele>21.0</ele><time>2026-04-12T14:33:17.875Z</time></trkpt><trkpt lat="53.68274494538858" lon="14.708326018584353"><ele>21.0</ele><time>2026-04-12T14:33:18.875Z</time></trkpt><trkpt lat="53.682757601227976" lon="14.708487437950774"><ele>21.0</ele><time>2026-04-12T14:33:20.875Z</time></trkpt><trkpt lat="53.68275999397637" lon="14.708618571912668"><ele>21.0</ele><time>2026-04-12T14:33:21.876Z</time></trkpt><trkpt lat="53.68271675482399" lon="14.708757472859432"><ele>21.0</ele><time>2026-04-12T14:33:22.876Z</time></trkpt><trkpt lat="53.68258418183179" lon="14.70888261630941"><ele>21.333333333333332</ele><time>2026-04-12T14:33:23.876Z</time></trkpt><trkpt lat="53.68250293906862" lon="14.709108549156111"><ele>21.666666666666664</ele><time>2026-04-12T14:33:24.876Z</time></trkpt><trkpt lat="53.682422956406825" lon="14.709341595017532"><ele>22.0</ele><time>2026-04-12T14:33:25.874Z</time></trkpt><trkpt lat="53.68234455242808" lon="14.709610933693156"><ele>22.333333333333332</ele><time>2026-04-12T14:33:26.875Z</time></trkpt><trkpt lat="53.68224097089939" lon="14.70986244437932"><ele>22.666666666666668</ele><time>2026-04-12T14:33:27.875Z</time></trkpt><trkpt lat="53.68214232417256" lon="14.710129938353672"><ele>23.0</ele><time>2026-04-12T14:33:28.874Z</time></trkpt><trkpt lat="53.6820346139057" lon="14.710435842195054"><ele>22.666666666666668</ele><time>2026-04-12T14:33:29.874Z</time></trkpt><trkpt lat="53.681927344826235" lon="14.71075645500399"><ele>22.333333333333332</ele><time>2026-04-12T14:33:30.874Z</time></trkpt><trkpt lat="53.681836421222236" lon="14.711068174920214"><ele>22.0</ele><time>2026-04-12T14:33:31.874Z</time></trkpt><trkpt lat="53.68176481934914" lon="14.711370574040183"><ele>21.666666666666664</ele><time>2026-04-12T14:33:32.874Z</time></trkpt><trkpt lat="53.68169388797699" lon="14.71170373469638"><ele>21.333333333333332</ele><time>2026-04-12T14:33:33.874Z</time></trkpt><trkpt lat="53.68159831700286" lon="14.712073234977161"><ele>21.0</ele><time>2026-04-12T14:33:34.874Z</time></trkpt><trkpt lat="53.681519607869966" lon="14.712396862723534"><ele>21.333333333333332</ele><time>2026-04-12T14:33:35.874Z</time></trkpt><trkpt lat="53.681432951310626" lon="14.712770799666831"><ele>21.666666666666664</ele><time>2026-04-12T14:33:36.874Z</time></trkpt><trkpt lat="53.6813621801764" lon="14.713096430323985"><ele>22.0</ele><time>2026-04-12T14:33:37.874Z</time></trkpt><trkpt lat="53.681302556979304" lon="14.713406395387652"><ele>21.333333333333332</ele><time>2026-04-12T14:33:38.875Z</time></trkpt><trkpt lat="53.68125383455244" lon="14.713720918708125"><ele>20.666666666666668</ele><time>2026-04-12T14:33:39.875Z</time></trkpt><trkpt lat="53.68120563286946" lon="14.714027056675816"><ele>20.0</ele><time>2026-04-12T14:33:40.875Z</time></trkpt><trkpt lat="53.68115408750751" lon="14.714295133747335"><ele>17.666666666666668</ele><time>2026-04-12T14:33:41.875Z</time></trkpt><trkpt lat="53.68108702118665" lon="14.71453031106715"><ele>15.333333333333332</ele><time>2026-04-12T14:33:42.875Z</time></trkpt><trkpt lat="53.680994760400395" lon="14.714760726776094"><ele>13.0</ele><time>2026-04-12T14:33:43.875Z</time></trkpt><trkpt lat="53.68090344698952" lon="14.714950273374695"><ele>13.0</ele><time>2026-04-12T14:33:44.875Z</time></trkpt><trkpt lat="53.68078628556987" lon="14.715138967232939"><ele>13.0</ele><time>2026-04-12T14:33:45.875Z</time></trkpt><trkpt lat="53.68066274191082" lon="14.715302196366643"><ele>13.0</ele><time>2026-04-12T14:33:46.875Z</time></trkpt><trkpt lat="53.6805265746827" lon="14.715477147832102"><ele>12.333333333333332</ele><time>2026-04-12T14:33:47.875Z</time></trkpt><trkpt lat="53.68040687761076" lon="14.715630476804028"><ele>11.666666666666666</ele><time>2026-04-12T14:33:48.875Z</time></trkpt><trkpt lat="53.680259567752884" lon="14.715824143844861"><ele>11.0</ele><time>2026-04-12T14:33:49.875Z</time></trkpt><trkpt lat="53.680143875640724" lon="14.715976553413375"><ele>10.0</ele><time>2026-04-12T14:33:50.875Z</time></trkpt><trkpt lat="53.68003507749989" lon="14.716119881057809"><ele>9.0</ele><time>2026-04-12T14:33:51.875Z</time></trkpt><trkpt lat="53.67999825121594" lon="14.716383638283537"><ele>8.0</ele><time>2026-04-12T14:33:52.875Z</time></trkpt><trkpt lat="53.679956263075105" lon="14.716592276561787"><ele>7.0</ele><time>2026-04-12T14:33:53.875Z</time></trkpt><trkpt lat="53.679925698841856" lon="14.71679361858333"><ele>6.75</ele><time>2026-04-12T14:33:54.875Z</time></trkpt><trkpt lat="53.67989465368177" lon="14.716998917444045"><ele>6.5</ele><time>2026-04-12T14:33:55.875Z</time></trkpt><trkpt lat="53.679866745856536" lon="14.717200755771334"><ele>6.25</ele><time>2026-04-12T14:33:56.875Z</time></trkpt><trkpt lat="53.67983534566241" lon="14.71740904458173"><ele>6.0</ele><time>2026-04-12T14:33:57.875Z</time></trkpt><trkpt lat="53.679799294014956" lon="14.717611330404395"><ele>6.5</ele><time>2026-04-12T14:33:58.875Z</time></trkpt><trkpt lat="53.67976299798928" lon="14.71781943310357"><ele>7.0</ele><time>2026-04-12T14:33:59.875Z</time></trkpt><trkpt lat="53.67971951545449" lon="14.718040376940717"><ele>7.5</ele><time>2026-04-12T14:34:00.875Z</time></trkpt><trkpt lat="53.67965836554407" lon="14.718259203261816"><ele>8.0</ele><time>2026-04-12T14:34:01.875Z</time></trkpt><trkpt lat="53.67957845473334" lon="14.718439398424458"><ele>8.200000000000001</ele><time>2026-04-12T14:34:02.875Z</time></trkpt><trkpt lat="53.67948488625545" lon="14.718599246795057"><ele>8.4</ele><time>2026-04-12T14:34:03.875Z</time></trkpt><trkpt lat="53.67939789624537" lon="14.718757859794614"><ele>8.600000000000001</ele><time>2026-04-12T14:34:04.875Z</time></trkpt><trkpt lat="53.67931510687509" lon="14.718857420878212"><ele>8.8</ele><time>2026-04-12T14:34:05.875Z</time></trkpt><trkpt lat="53.67924687695343" lon="14.718901523960211"><ele>9.0</ele><time>2026-04-12T14:34:06.875Z</time></trkpt><trkpt lat="53.67917346128246" lon="14.718894617059986"><ele>9.4</ele><time>2026-04-12T14:34:07.875Z</time></trkpt><trkpt lat="53.67908487539272" lon="14.718905666138445"><ele>9.8</ele><time>2026-04-12T14:34:08.875Z</time></trkpt><trkpt lat="53.678987880434406" lon="14.71895191992163"><ele>10.200000000000001</ele><time>2026-04-12T14:34:09.875Z</time></trkpt><trkpt lat="53.678871353988896" lon="14.719035037749427"><ele>10.600000000000001</ele><time>2026-04-12T14:34:10.875Z</time></trkpt><trkpt lat="53.67875029577534" lon="14.719084845590908"><ele>11.0</ele><time>2026-04-12T14:34:11.875Z</time></trkpt><trkpt lat="53.67863290494827" lon="14.719113486872589"><ele>11.0</ele><time>2026-04-12T14:34:12.875Z</time></trkpt><trkpt lat="53.67851143946118" lon="14.719154480957231"><ele>11.0</ele><time>2026-04-12T14:34:13.875Z</time></trkpt><trkpt lat="53.67838147786135" lon="14.719183696354094"><ele>11.0</ele><time>2026-04-12T14:34:14.875Z</time></trkpt><trkpt lat="53.67825795810383" lon="14.719238414162515"><ele>11.0</ele><time>2026-04-12T14:34:15.875Z</time></trkpt><trkpt lat="53.6781197842219" lon="14.719299048499014"><ele>11.0</ele><time>2026-04-12T14:34:16.875Z</time></trkpt><trkpt lat="53.67799656960956" lon="14.71934903372568"><ele>11.0</ele><time>2026-04-12T14:34:17.875Z</time></trkpt><trkpt lat="53.6778767376988" lon="14.719391662869931"><ele>11.0</ele><time>2026-04-12T14:34:18.875Z</time></trkpt><trkpt lat="53.677768013069084" lon="14.719436786955487"><ele>11.0</ele><time>2026-04-12T14:34:19.875Z</time></trkpt><trkpt lat="53.67767517999546" lon="14.719474679453612"><ele>11.25</ele><time>2026-04-12T14:34:20.875Z</time></trkpt><trkpt lat="53.67758502255971" lon="14.71948682135479"><ele>11.5</ele><time>2026-04-12T14:34:21.875Z</time></trkpt><trkpt lat="53.677442314037464" lon="14.719439537835129"><ele>11.75</ele><time>2026-04-12T14:34:22.875Z</time></trkpt><trkpt lat="53.67729889828189" lon="14.71936022948093"><ele>12.0</ele><time>2026-04-12T14:34:23.875Z</time></trkpt><trkpt lat="53.677139480019264" lon="14.719241422494854"><ele>12.0</ele><time>2026-04-12T14:34:24.875Z</time></trkpt><trkpt lat="53.67699264344378" lon="14.7191176900189"><ele>12.0</ele><time>2026-04-12T14:34:25.875Z</time></trkpt><trkpt lat="53.67686335486162" lon="14.719002709039826"><ele>12.0</ele><time>2026-04-12T14:34:26.875Z</time></trkpt><trkpt lat="53.676721689050055" lon="14.71888835179816"><ele>12.0</ele><time>2026-04-12T14:34:27.875Z</time></trkpt><trkpt lat="53.67660598984419" lon="14.718803666261685"><ele>12.0</ele><time>2026-04-12T14:34:28.875Z</time></trkpt><trkpt lat="53.676469971694466" lon="14.718688440985046"><ele>12.0</ele><time>2026-04-12T14:34:29.875Z</time></trkpt><trkpt lat="53.67635456055811" lon="14.718591232661028"><ele>12.0</ele><time>2026-04-12T14:34:30.875Z</time></trkpt><trkpt lat="53.67622925066177" lon="14.718481790576554"><ele>12.0</ele><time>2026-04-12T14:34:31.875Z</time></trkpt><trkpt lat="53.67607765990722" lon="14.718332354353608"><ele>12.0</ele><time>2026-04-12T14:34:32.875Z</time></trkpt><trkpt lat="53.6759443169964" lon="14.71821297054832"><ele>12.0</ele><time>2026-04-12T14:34:33.875Z</time></trkpt><trkpt lat="53.67580509916839" lon="14.718118828793346"><ele>12.0</ele><time>2026-04-12T14:34:34.875Z</time></trkpt><trkpt lat="53.67568161939217" lon="14.718040656654662"><ele>12.0</ele><time>2026-04-12T14:34:35.875Z</time></trkpt><trkpt lat="53.6755484235537" lon="14.717963939833634"><ele>12.0</ele><time>2026-04-12T14:34:36.875Z</time></trkpt><trkpt lat="53.675423601549284" lon="14.71789942235945"><ele>12.0</ele><time>2026-04-12T14:34:37.875Z</time></trkpt><trkpt lat="53.67530800664038" lon="14.717802187666955"><ele>12.25</ele><time>2026-04-12T14:34:38.875Z</time></trkpt><trkpt lat="53.67519362969563" lon="14.717704903173486"><ele>12.5</ele><time>2026-04-12T14:34:39.875Z</time></trkpt><trkpt lat="53.675089109627145" lon="14.717594898647688"><ele>12.75</ele><time>2026-04-12T14:34:40.876Z</time></trkpt><trkpt lat="53.67497507756827" lon="14.717495458151014"><ele>13.0</ele><time>2026-04-12T14:34:41.876Z</time></trkpt><trkpt lat="53.67487440340218" lon="14.717392624840214"><ele>13.0</ele><time>2026-04-12T14:34:42.876Z</time></trkpt><trkpt lat="53.674766218644805" lon="14.717321759419113"><ele>13.0</ele><time>2026-04-12T14:34:43.876Z</time></trkpt><trkpt lat="53.67466319059261" lon="14.717234655174018"><ele>13.0</ele><time>2026-04-12T14:34:44.876Z</time></trkpt><trkpt lat="53.6745705189192" lon="14.717131144846977"><ele>13.0</ele><time>2026-04-12T14:34:45.876Z</time></trkpt><trkpt lat="53.674494576803454" lon="14.717030239358214"><ele>13.0</ele><time>2026-04-12T14:34:46.876Z</time></trkpt><trkpt lat="53.674412824352565" lon="14.716924853006299"><ele>12.5</ele><time>2026-04-12T14:34:47.876Z</time></trkpt><trkpt lat="53.67429750285844" lon="14.716833372036218"><ele>12.0</ele><time>2026-04-12T14:34:48.876Z</time></trkpt><trkpt lat="53.67418703886495" lon="14.71672290907556"><ele>11.5</ele><time>2026-04-12T14:34:49.876Z</time></trkpt><trkpt lat="53.6740936136122" lon="14.716644871455953"><ele>11.0</ele><time>2026-04-12T14:34:50.876Z</time></trkpt><trkpt lat="53.67400304806244" lon="14.716563424040778"><ele>11.0</ele><time>2026-04-12T14:34:51.876Z</time></trkpt><trkpt lat="53.67393895286668" lon="14.716487905079745"><ele>11.0</ele><time>2026-04-12T14:34:52.876Z</time></trkpt><trkpt lat="53.67386983175863" lon="14.716415887815515"><ele>11.0</ele><time>2026-04-12T14:34:53.876Z</time></trkpt><trkpt lat="53.67381335959887" lon="14.716359238600209"><ele>11.0</ele><time>2026-04-12T14:34:54.876Z</time></trkpt><trkpt lat="53.67372003106109" lon="14.716254129715443"><ele>11.0</ele><time>2026-04-12T14:34:56.876Z</time></trkpt><trkpt lat="53.673649330297216" lon="14.7162718694175"><ele>11.0</ele><time>2026-04-12T14:35:02.876Z</time></trkpt><trkpt lat="53.67367976162932" lon="14.716476754000203"><ele>11.0</ele><time>2026-04-12T14:35:05.876Z</time></trkpt><trkpt lat="53.673710160898004" lon="14.716577664832254"><ele>11.0</ele><time>2026-04-12T14:35:06.876Z</time></trkpt><trkpt lat="53.67374994845716" lon="14.71671523064329"><ele>11.0</ele><time>2026-04-12T14:35:08.876Z</time></trkpt><trkpt lat="53.67376428008318" lon="14.716836288334669"><ele>11.0</ele><time>2026-04-12T14:35:09.876Z</time></trkpt><trkpt lat="53.673798645025244" lon="14.71698538118932"><ele>11.0</ele><time>2026-04-12T14:35:10.876Z</time></trkpt><trkpt lat="53.673800886356844" lon="14.717095924840033"><ele>11.0</ele><time>2026-04-12T14:35:11.876Z</time></trkpt><trkpt lat="53.67381192747398" lon="14.717235834053586"><ele>11.8</ele><time>2026-04-12T14:35:12.876Z</time></trkpt><trkpt lat="53.67384058601736" lon="14.717399418259662"><ele>12.600000000000001</ele><time>2026-04-12T14:35:13.876Z</time></trkpt><trkpt lat="53.673837891586146" lon="14.717527419184545"><ele>13.4</ele><time>2026-04-12T14:35:14.876Z</time></trkpt><trkpt lat="53.67384327454102" lon="14.717667505503751"><ele>14.2</ele><time>2026-04-12T14:35:15.876Z</time></trkpt><trkpt lat="53.67385301112106" lon="14.71783918768038"><ele>15.0</ele><time>2026-04-12T14:35:16.876Z</time></trkpt><trkpt lat="53.67388308738259" lon="14.718013140660139"><ele>15.6</ele><time>2026-04-12T14:35:17.876Z</time></trkpt><trkpt lat="53.67389316078731" lon="14.71819276240537"><ele>16.2</ele><time>2026-04-12T14:35:18.876Z</time></trkpt><trkpt lat="53.673900072335464" lon="14.718359471433558"><ele>16.8</ele><time>2026-04-12T14:35:19.876Z</time></trkpt><trkpt lat="53.67392279700559" lon="14.718551316721765"><ele>17.4</ele><time>2026-04-12T14:35:20.876Z</time></trkpt><trkpt lat="53.67396169476292" lon="14.718726186028602"><ele>18.0</ele><time>2026-04-12T14:35:21.876Z</time></trkpt><trkpt lat="53.6739682888504" lon="14.718879903616296"><ele>18.25</ele><time>2026-04-12T14:35:22.876Z</time></trkpt><trkpt lat="53.67395656560458" lon="14.719075840087939"><ele>18.5</ele><time>2026-04-12T14:35:23.876Z</time></trkpt><trkpt lat="53.673957819639675" lon="14.719285116183688"><ele>18.75</ele><time>2026-04-12T14:35:24.876Z</time></trkpt><trkpt lat="53.67395977486527" lon="14.719486133329111"><ele>19.0</ele><time>2026-04-12T14:35:25.876Z</time></trkpt><trkpt lat="53.67397404963817" lon="14.7196908796871"><ele>19.0</ele><time>2026-04-12T14:35:26.876Z</time></trkpt><trkpt lat="53.673992834311896" lon="14.71988424545488"><ele>19.0</ele><time>2026-04-12T14:35:27.876Z</time></trkpt><trkpt lat="53.67399538754989" lon="14.720065143854844"><ele>19.0</ele><time>2026-04-12T14:35:28.876Z</time></trkpt><trkpt lat="53.673991086602996" lon="14.72023246726979"><ele>19.0</ele><time>2026-04-12T14:35:29.876Z</time></trkpt><trkpt lat="53.6739679039669" lon="14.720454881195026"><ele>19.0</ele><time>2026-04-12T14:35:30.876Z</time></trkpt><trkpt lat="53.67395019361281" lon="14.7206572734182"><ele>19.0</ele><time>2026-04-12T14:35:31.873Z</time></trkpt><trkpt lat="53.673919697841995" lon="14.720828554532375"><ele>19.0</ele><time>2026-04-12T14:35:32.874Z</time></trkpt><trkpt lat="53.67389668264463" lon="14.721007654809952"><ele>19.0</ele><time>2026-04-12T14:35:33.874Z</time></trkpt><trkpt lat="53.67387482586362" lon="14.721117513578804"><ele>19.0</ele><time>2026-04-12T14:35:34.873Z</time></trkpt><trkpt lat="53.67386678915284" lon="14.72123399093858"><ele>18.666666666666664</ele><time>2026-04-12T14:35:36.873Z</time></trkpt><trkpt lat="53.67386084033819" lon="14.721382890836676"><ele>18.333333333333332</ele><time>2026-04-12T14:35:39.873Z</time></trkpt><trkpt lat="53.673847777754965" lon="14.721595571006645"><ele>18.0</ele><time>2026-04-12T14:35:41.873Z</time></trkpt><trkpt lat="53.67383934671658" lon="14.721715010767744"><ele>17.666666666666668</ele><time>2026-04-12T14:35:42.873Z</time></trkpt><trkpt lat="53.67383295969406" lon="14.721862531368435"><ele>17.333333333333336</ele><time>2026-04-12T14:35:43.874Z</time></trkpt><trkpt lat="53.67381942846449" lon="14.72198222431195"><ele>17.0</ele><time>2026-04-12T14:35:44.873Z</time></trkpt><trkpt lat="53.67381642438516" lon="14.722163456566134"><ele>16.8</ele><time>2026-04-12T14:35:45.873Z</time></trkpt><trkpt lat="53.67381478590275" lon="14.722326300443223"><ele>16.6</ele><time>2026-04-12T14:35:46.873Z</time></trkpt><trkpt lat="53.67380688864307" lon="14.72248820481755"><ele>16.400000000000002</ele><time>2026-04-12T14:35:47.873Z</time></trkpt><trkpt lat="53.673799939745145" lon="14.722685475837583"><ele>16.2</ele><time>2026-04-12T14:35:48.873Z</time></trkpt><trkpt lat="53.67379866782584" lon="14.722836058996938"><ele>16.0</ele><time>2026-04-12T14:35:49.873Z</time></trkpt><trkpt lat="53.673790778856684" lon="14.722950342377654"><ele>16.5</ele><time>2026-04-12T14:35:50.873Z</time></trkpt><trkpt lat="53.673785768357476" lon="14.723061400036688"><ele>17.0</ele><time>2026-04-12T14:35:51.873Z</time></trkpt><trkpt lat="53.67375863313974" lon="14.723168924247856"><ele>17.5</ele><time>2026-04-12T14:35:52.873Z</time></trkpt><trkpt lat="53.67374617048626" lon="14.723335304785918"><ele>18.0</ele><time>2026-04-12T14:35:53.873Z</time></trkpt><trkpt lat="53.67371452975295" lon="14.723496467748422"><ele>18.5</ele><time>2026-04-12T14:35:54.873Z</time></trkpt><trkpt lat="53.67366780881259" lon="14.723650417627091"><ele>19.0</ele><time>2026-04-12T14:35:55.873Z</time></trkpt><trkpt lat="53.67362052315793" lon="14.723792780367607"><ele>19.5</ele><time>2026-04-12T14:35:56.873Z</time></trkpt><trkpt lat="53.673550158840186" lon="14.723943022866063"><ele>20.0</ele><time>2026-04-12T14:35:57.873Z</time></trkpt><trkpt lat="53.67348226136463" lon="14.724095830945037"><ele>20.5</ele><time>2026-04-12T14:35:58.873Z</time></trkpt><trkpt lat="53.67341009327156" lon="14.72426559326191"><ele>21.0</ele><time>2026-04-12T14:35:59.873Z</time></trkpt><trkpt lat="53.6733457189644" lon="14.724436766969095"><ele>21.25</ele><time>2026-04-12T14:36:00.873Z</time></trkpt><trkpt lat="53.673280929954" lon="14.724586707472133"><ele>21.5</ele><time>2026-04-12T14:36:01.873Z</time></trkpt><trkpt lat="53.67320716826901" lon="14.72472611949106"><ele>21.75</ele><time>2026-04-12T14:36:02.873Z</time></trkpt><trkpt lat="53.67311563354913" lon="14.724845439197288"><ele>22.0</ele><time>2026-04-12T14:36:03.873Z</time></trkpt><trkpt lat="53.67302005976884" lon="14.724981455786377"><ele>22.0</ele><time>2026-04-12T14:36:04.873Z</time></trkpt><trkpt lat="53.67289985846156" lon="14.725142844034137"><ele>22.0</ele><time>2026-04-12T14:36:05.873Z</time></trkpt><trkpt lat="53.67280118434788" lon="14.725272172483166"><ele>22.0</ele><time>2026-04-12T14:36:06.873Z</time></trkpt><trkpt lat="53.67270449303595" lon="14.725421473908392"><ele>22.0</ele><time>2026-04-12T14:36:07.873Z</time></trkpt><trkpt lat="53.672611315905684" lon="14.725598245454204"><ele>22.0</ele><time>2026-04-12T14:36:08.872Z</time></trkpt><trkpt lat="53.67254132970539" lon="14.725768233681181"><ele>22.0</ele><time>2026-04-12T14:36:09.872Z</time></trkpt><trkpt lat="53.67246239394454" lon="14.725946616297401"><ele>22.0</ele><time>2026-04-12T14:36:10.872Z</time></trkpt><trkpt lat="53.672365389380175" lon="14.726137176926276"><ele>22.0</ele><time>2026-04-12T14:36:11.872Z</time></trkpt><trkpt lat="53.67228892274247" lon="14.726279259802219"><ele>21.75</ele><time>2026-04-12T14:36:12.872Z</time></trkpt><trkpt lat="53.67220434636663" lon="14.726426477929188"><ele>21.5</ele><time>2026-04-12T14:36:13.872Z</time></trkpt><trkpt lat="53.67211595527201" lon="14.726572067425973"><ele>21.25</ele><time>2026-04-12T14:36:14.872Z</time></trkpt><trkpt lat="53.67204342008352" lon="14.726726188206152"><ele>21.0</ele><time>2026-04-12T14:36:15.872Z</time></trkpt><trkpt lat="53.671974863796386" lon="14.72690048168273"><ele>20.75</ele><time>2026-04-12T14:36:16.872Z</time></trkpt><trkpt lat="53.67191109294082" lon="14.727081950914469"><ele>20.5</ele><time>2026-04-12T14:36:17.871Z</time></trkpt><trkpt lat="53.67184249653059" lon="14.727267590731051"><ele>20.25</ele><time>2026-04-12T14:36:18.871Z</time></trkpt><trkpt lat="53.6717904088076" lon="14.727429733224746"><ele>20.0</ele><time>2026-04-12T14:36:19.871Z</time></trkpt><trkpt lat="53.67173086715284" lon="14.727618145892853"><ele>19.75</ele><time>2026-04-12T14:36:20.871Z</time></trkpt><trkpt lat="53.67166401615855" lon="14.727818713783117"><ele>19.5</ele><time>2026-04-12T14:36:21.871Z</time></trkpt><trkpt lat="53.67158366981581" lon="14.728018243142019"><ele>19.25</ele><time>2026-04-12T14:36:22.871Z</time></trkpt><trkpt lat="53.6715097327792" lon="14.728225398122396"><ele>19.0</ele><time>2026-04-12T14:36:23.871Z</time></trkpt><trkpt lat="53.671406609081906" lon="14.7284310848608"><ele>19.25</ele><time>2026-04-12T14:36:24.871Z</time></trkpt><trkpt lat="53.67132405350546" lon="14.728612591694413"><ele>19.5</ele><time>2026-04-12T14:36:25.871Z</time></trkpt><trkpt lat="53.67124672027347" lon="14.728806353871029"><ele>19.75</ele><time>2026-04-12T14:36:26.871Z</time></trkpt><trkpt lat="53.67117971369923" lon="14.729006306114343"><ele>20.0</ele><time>2026-04-12T14:36:27.871Z</time></trkpt><trkpt lat="53.67109128665338" lon="14.72923009670549"><ele>19.75</ele><time>2026-04-12T14:36:28.871Z</time></trkpt><trkpt lat="53.67101224637879" lon="14.729424183439546"><ele>19.5</ele><time>2026-04-12T14:36:29.871Z</time></trkpt><trkpt lat="53.67095866066771" lon="14.729616219386223"><ele>19.25</ele><time>2026-04-12T14:36:30.871Z</time></trkpt><trkpt lat="53.67088070198792" lon="14.729835998414417"><ele>19.0</ele><time>2026-04-12T14:36:31.871Z</time></trkpt><trkpt lat="53.67081926104785" lon="14.729976663522251"><ele>19.0</ele><time>2026-04-12T14:36:32.871Z</time></trkpt><trkpt lat="53.67075794709554" lon="14.730130379042288"><ele>19.0</ele><time>2026-04-12T14:36:33.871Z</time></trkpt><trkpt lat="53.670708703806675" lon="14.730298789428025"><ele>19.0</ele><time>2026-04-12T14:36:34.871Z</time></trkpt><trkpt lat="53.670671618904635" lon="14.73050903456497"><ele>19.0</ele><time>2026-04-12T14:36:35.871Z</time></trkpt><trkpt lat="53.670652690167906" lon="14.730729027474208"><ele>19.5</ele><time>2026-04-12T14:36:36.871Z</time></trkpt><trkpt lat="53.67063332295583" lon="14.731002572756827"><ele>20.0</ele><time>2026-04-12T14:36:37.871Z</time></trkpt><trkpt lat="53.670623086900385" lon="14.731201850654031"><ele>20.5</ele><time>2026-04-12T14:36:38.871Z</time></trkpt><trkpt lat="53.670615475715984" lon="14.731393215427785"><ele>21.0</ele><time>2026-04-12T14:36:39.871Z</time></trkpt><trkpt lat="53.67061308690135" lon="14.731567694339288"><ele>21.0</ele><time>2026-04-12T14:36:40.871Z</time></trkpt><trkpt lat="53.670632402704584" lon="14.731717921658122"><ele>21.0</ele><time>2026-04-12T14:36:41.871Z</time></trkpt><trkpt lat="53.67066491077854" lon="14.731906489328574"><ele>21.0</ele><time>2026-04-12T14:36:42.871Z</time></trkpt><trkpt lat="53.67071671069373" lon="14.732089194971602"><ele>21.0</ele><time>2026-04-12T14:36:43.871Z</time></trkpt><trkpt lat="53.67075684452521" lon="14.73223779139934"><ele>21.0</ele><time>2026-04-12T14:36:44.871Z</time></trkpt><trkpt lat="53.670800540493325" lon="14.732401662881639"><ele>21.75</ele><time>2026-04-12T14:36:45.871Z</time></trkpt><trkpt lat="53.670839597083756" lon="14.732582998207933"><ele>22.5</ele><time>2026-04-12T14:36:46.871Z</time></trkpt><trkpt lat="53.670874376363166" lon="14.732750720145761"><ele>23.25</ele><time>2026-04-12T14:36:47.871Z</time></trkpt><trkpt lat="53.67092933903868" lon="14.732948485103998"><ele>24.0</ele><time>2026-04-12T14:36:48.871Z</time></trkpt><trkpt lat="53.6709700250392" lon="14.733134300461158"><ele>24.0</ele><time>2026-04-12T14:36:49.871Z</time></trkpt><trkpt lat="53.67100587442009" lon="14.73330611935228"><ele>24.0</ele><time>2026-04-12T14:36:50.871Z</time></trkpt><trkpt lat="53.67103520193219" lon="14.733438520951333"><ele>24.0</ele><time>2026-04-12T14:36:51.871Z</time></trkpt><trkpt lat="53.671075083938675" lon="14.733548769658537"><ele>24.0</ele><time>2026-04-12T14:36:52.871Z</time></trkpt><trkpt lat="53.67110924170488" lon="14.733708021605075"><ele>24.0</ele><time>2026-04-12T14:36:53.871Z</time></trkpt><trkpt lat="53.67114297546258" lon="14.73389096700936"><ele>23.799999999999997</ele><time>2026-04-12T14:36:54.871Z</time></trkpt><trkpt lat="53.67118815582123" lon="14.734076394620281"><ele>23.599999999999998</ele><time>2026-04-12T14:36:55.871Z</time></trkpt><trkpt lat="53.67125805164261" lon="14.734218832365173"><ele>23.4</ele><time>2026-04-12T14:36:56.871Z</time></trkpt><trkpt lat="53.671312676933894" lon="14.734327040993108"><ele>23.2</ele><time>2026-04-12T14:36:57.871Z</time></trkpt><trkpt lat="53.67125549251781" lon="14.734483851572044"><ele>23.0</ele><time>2026-04-12T14:37:00.871Z</time></trkpt><trkpt lat="53.67117807033759" lon="14.73461028708366"><ele>22.0</ele><time>2026-04-12T14:37:01.871Z</time></trkpt><trkpt lat="53.67107246479759" lon="14.734771063947683"><ele>21.0</ele><time>2026-04-12T14:37:02.871Z</time></trkpt><trkpt lat="53.67096501490803" lon="14.734979694052198"><ele>20.0</ele><time>2026-04-12T14:37:03.871Z</time></trkpt><trkpt lat="53.67086792449105" lon="14.735193028011777"><ele>20.0</ele><time>2026-04-12T14:37:04.871Z</time></trkpt><trkpt lat="53.67077300123506" lon="14.735434230175926"><ele>20.0</ele><time>2026-04-12T14:37:05.871Z</time></trkpt><trkpt lat="53.670668175698324" lon="14.735714787020903"><ele>20.0</ele><time>2026-04-12T14:37:06.871Z</time></trkpt><trkpt lat="53.670563006317515" lon="14.735983531748872"><ele>20.0</ele><time>2026-04-12T14:37:07.871Z</time></trkpt><trkpt lat="53.67045924173994" lon="14.736297495504024"><ele>20.0</ele><time>2026-04-12T14:37:08.871Z</time></trkpt><trkpt lat="53.67034643959203" lon="14.736576654834973"><ele>20.0</ele><time>2026-04-12T14:37:09.871Z</time></trkpt><trkpt lat="53.670239637339634" lon="14.736827948297185"><ele>19.333333333333336</ele><time>2026-04-12T14:37:10.871Z</time></trkpt><trkpt lat="53.67012806816639" lon="14.737109134874094"><ele>18.666666666666668</ele><time>2026-04-12T14:37:11.871Z</time></trkpt><trkpt lat="53.670022211993434" lon="14.7373806915328"><ele>18.0</ele><time>2026-04-12T14:37:12.871Z</time></trkpt><trkpt lat="53.66991817555445" lon="14.737644208461125"><ele>17.666666666666668</ele><time>2026-04-12T14:37:13.871Z</time></trkpt><trkpt lat="53.66981575908913" lon="14.737899481448869"><ele>17.333333333333336</ele><time>2026-04-12T14:37:14.871Z</time></trkpt><trkpt lat="53.669724806478065" lon="14.738148985414185"><ele>17.0</ele><time>2026-04-12T14:37:15.871Z</time></trkpt><trkpt lat="53.66963770595597" lon="14.7383808375399"><ele>17.0</ele><time>2026-04-12T14:37:16.871Z</time></trkpt><trkpt lat="53.66954880836752" lon="14.73862021143776"><ele>17.0</ele><time>2026-04-12T14:37:17.871Z</time></trkpt><trkpt lat="53.669475342409704" lon="14.738846939317122"><ele>17.0</ele><time>2026-04-12T14:37:18.871Z</time></trkpt><trkpt lat="53.66940415707294" lon="14.739046795345716"><ele>16.0</ele><time>2026-04-12T14:37:19.871Z</time></trkpt><trkpt lat="53.66932239406701" lon="14.739268162294517"><ele>15.0</ele><time>2026-04-12T14:37:20.871Z</time></trkpt><trkpt lat="53.66925039509238" lon="14.739460039927447"><ele>14.0</ele><time>2026-04-12T14:37:21.871Z</time></trkpt><trkpt lat="53.66917197902771" lon="14.739708598797222"><ele>14.0</ele><time>2026-04-12T14:37:22.871Z</time></trkpt><trkpt lat="53.66909368778889" lon="14.739959759408764"><ele>14.0</ele><time>2026-04-12T14:37:23.871Z</time></trkpt><trkpt lat="53.66902997725663" lon="14.740196420972046"><ele>14.0</ele><time>2026-04-12T14:37:24.871Z</time></trkpt><trkpt lat="53.66896538664447" lon="14.74043998793244"><ele>14.0</ele><time>2026-04-12T14:37:25.871Z</time></trkpt><trkpt lat="53.668910079349764" lon="14.740645876330623"><ele>14.0</ele><time>2026-04-12T14:37:26.871Z</time></trkpt><trkpt lat="53.66885036783698" lon="14.740896369340419"><ele>14.0</ele><time>2026-04-12T14:37:27.871Z</time></trkpt><trkpt lat="53.66880653351366" lon="14.741132563927364"><ele>14.0</ele><time>2026-04-12T14:37:28.871Z</time></trkpt><trkpt lat="53.668757079079654" lon="14.741355904649444"><ele>14.25</ele><time>2026-04-12T14:37:29.871Z</time></trkpt><trkpt lat="53.66869954475694" lon="14.74158280135622"><ele>14.5</ele><time>2026-04-12T14:37:30.871Z</time></trkpt><trkpt lat="53.66864359565763" lon="14.741816944670681"><ele>14.75</ele><time>2026-04-12T14:37:31.871Z</time></trkpt><trkpt lat="53.66859413781884" lon="14.74204763091103"><ele>15.0</ele><time>2026-04-12T14:37:32.871Z</time></trkpt><trkpt lat="53.66853836338795" lon="14.742287624549942"><ele>14.333333333333332</ele><time>2026-04-12T14:37:33.871Z</time></trkpt><trkpt lat="53.66848044622491" lon="14.742520422080956"><ele>13.666666666666666</ele><time>2026-04-12T14:37:34.871Z</time></trkpt><trkpt lat="53.66840838178616" lon="14.742762119746352"><ele>13.0</ele><time>2026-04-12T14:37:35.871Z</time></trkpt><trkpt lat="53.66834535964666" lon="14.74299410948313"><ele>13.0</ele><time>2026-04-12T14:37:36.871Z</time></trkpt><trkpt lat="53.66826605772961" lon="14.743221591755455"><ele>13.0</ele><time>2026-04-12T14:37:37.869Z</time></trkpt><trkpt lat="53.668184086269434" lon="14.743422294094781"><ele>13.0</ele><time>2026-04-12T14:37:38.87Z</time></trkpt><trkpt lat="53.668091963075554" lon="14.743614202921986"><ele>13.0</ele><time>2026-04-12T14:37:39.87Z</time></trkpt><trkpt lat="53.66798451862422" lon="14.743811460636016"><ele>13.0</ele><time>2026-04-12T14:37:40.869Z</time></trkpt><trkpt lat="53.667872712909016" lon="14.74401195645432"><ele>13.0</ele><time>2026-04-12T14:37:41.87Z</time></trkpt><trkpt lat="53.66775657057904" lon="14.744189517740505"><ele>13.0</ele><time>2026-04-12T14:37:42.87Z</time></trkpt><trkpt lat="53.66763938423493" lon="14.744322594683327"><ele>13.0</ele><time>2026-04-12T14:37:43.869Z</time></trkpt><trkpt lat="53.6675188052795" lon="14.744421794542827"><ele>13.0</ele><time>2026-04-12T14:37:44.869Z</time></trkpt><trkpt lat="53.66738762396613" lon="14.744494618628979"><ele>13.0</ele><time>2026-04-12T14:37:45.869Z</time></trkpt><trkpt lat="53.667233279872946" lon="14.744482828705674"><ele>13.0</ele><time>2026-04-12T14:37:46.869Z</time></trkpt><trkpt lat="53.66708846185113" lon="14.744506014897011"><ele>13.0</ele><time>2026-04-12T14:37:47.869Z</time></trkpt><trkpt lat="53.666967287440784" lon="14.744590218914508"><ele>13.0</ele><time>2026-04-12T14:37:48.869Z</time></trkpt><trkpt lat="53.66688027046593" lon="14.744698257957833"><ele>13.0</ele><time>2026-04-12T14:37:49.87Z</time></trkpt><trkpt lat="53.666784590611755" lon="14.744867433796609"><ele>13.0</ele><time>2026-04-12T14:37:50.869Z</time></trkpt><trkpt lat="53.666698068608426" lon="14.745055702655774"><ele>12.5</ele><time>2026-04-12T14:37:51.869Z</time></trkpt><trkpt lat="53.66660488676726" lon="14.745233490822391"><ele>12.0</ele><time>2026-04-12T14:37:52.869Z</time></trkpt><trkpt lat="53.66650517406614" lon="14.74541243447733"><ele>11.5</ele><time>2026-04-12T14:37:53.869Z</time></trkpt><trkpt lat="53.66641418956439" lon="14.745592897449015"><ele>11.0</ele><time>2026-04-12T14:37:54.869Z</time></trkpt><trkpt lat="53.66632763492362" lon="14.745749673548268"><ele>11.0</ele><time>2026-04-12T14:37:55.869Z</time></trkpt><trkpt lat="53.66624734056593" lon="14.745916631190791"><ele>11.0</ele><time>2026-04-12T14:37:56.869Z</time></trkpt><trkpt lat="53.66615836543171" lon="14.746075308383073"><ele>11.0</ele><time>2026-04-12T14:37:57.869Z</time></trkpt><trkpt lat="53.66606990823667" lon="14.746223497813304"><ele>11.0</ele><time>2026-04-12T14:37:58.869Z</time></trkpt><trkpt lat="53.66598476930761" lon="14.74635036837443"><ele>12.25</ele><time>2026-04-12T14:37:59.869Z</time></trkpt><trkpt lat="53.665887522904896" lon="14.74646984268775"><ele>13.5</ele><time>2026-04-12T14:38:00.869Z</time></trkpt><trkpt lat="53.665768258150756" lon="14.746593626366788"><ele>14.75</ele><time>2026-04-12T14:38:01.869Z</time></trkpt><trkpt lat="53.665653677520964" lon="14.746712961675332"><ele>16.0</ele><time>2026-04-12T14:38:02.869Z</time></trkpt><trkpt lat="53.665534801749" lon="14.746813111678353"><ele>16.25</ele><time>2026-04-12T14:38:03.869Z</time></trkpt><trkpt lat="53.66540182175043" lon="14.746881215961642"><ele>16.5</ele><time>2026-04-12T14:38:04.869Z</time></trkpt><trkpt lat="53.66528077126158" lon="14.7469397310706"><ele>16.75</ele><time>2026-04-12T14:38:05.869Z</time></trkpt><trkpt lat="53.665147686875436" lon="14.747002995277287"><ele>17.0</ele><time>2026-04-12T14:38:06.869Z</time></trkpt><trkpt lat="53.66501716227767" lon="14.747071100163991"><ele>16.5</ele><time>2026-04-12T14:38:07.869Z</time></trkpt><trkpt lat="53.66490810360632" lon="14.74714580667676"><ele>16.0</ele><time>2026-04-12T14:38:08.869Z</time></trkpt><trkpt lat="53.66479351922125" lon="14.747216092498201"><ele>15.5</ele><time>2026-04-12T14:38:09.869Z</time></trkpt><trkpt lat="53.664689305164266" lon="14.747283236154923"><ele>15.0</ele><time>2026-04-12T14:38:10.869Z</time></trkpt><trkpt lat="53.664596325753095" lon="14.747341374874324"><ele>15.0</ele><time>2026-04-12T14:38:11.869Z</time></trkpt><trkpt lat="53.66452050304852" lon="14.747404936045513"><ele>15.0</ele><time>2026-04-12T14:38:12.869Z</time></trkpt><trkpt lat="53.66444726230915" lon="14.747445993706553"><ele>15.0</ele><time>2026-04-12T14:38:13.869Z</time></trkpt><trkpt lat="53.664376696907794" lon="14.747422602283176"><ele>15.0</ele><time>2026-04-12T14:38:14.869Z</time></trkpt><trkpt lat="53.664306348535725" lon="14.74742687810617"><ele>15.0</ele><time>2026-04-12T14:38:16.869Z</time></trkpt><trkpt lat="53.66426670851238" lon="14.747334937022908"><ele>15.0</ele><time>2026-04-12T14:38:17.869Z</time></trkpt><trkpt lat="53.66423920286337" lon="14.747182854345368"><ele>15.0</ele><time>2026-04-12T14:38:18.869Z</time></trkpt><trkpt lat="53.6642126670983" lon="14.74705782096882"><ele>15.0</ele><time>2026-04-12T14:38:19.869Z</time></trkpt><trkpt lat="53.6642416014934" lon="14.746907075035272"><ele>15.0</ele><time>2026-04-12T14:38:20.869Z</time></trkpt><trkpt lat="53.664257714939694" lon="14.746749752569105"><ele>15.0</ele><time>2026-04-12T14:38:21.869Z</time></trkpt><trkpt lat="53.66427032934023" lon="14.746548773578702"><ele>15.0</ele><time>2026-04-12T14:38:22.869Z</time></trkpt><trkpt lat="53.66429125129824" lon="14.746369031024733"><ele>15.0</ele><time>2026-04-12T14:38:23.869Z</time></trkpt><trkpt lat="53.66430764743791" lon="14.746211578593785"><ele>15.0</ele><time>2026-04-12T14:38:24.869Z</time></trkpt><trkpt lat="53.66432307662466" lon="14.74602630841363"><ele>15.0</ele><time>2026-04-12T14:38:25.869Z</time></trkpt><trkpt lat="53.66434721667397" lon="14.74583257140155"><ele>15.0</ele><time>2026-04-12T14:38:26.869Z</time></trkpt><trkpt lat="53.664360209599586" lon="14.745637218037864"><ele>15.0</ele><time>2026-04-12T14:38:27.869Z</time></trkpt><trkpt lat="53.66438460217557" lon="14.745416833571372"><ele>15.0</ele><time>2026-04-12T14:38:28.869Z</time></trkpt><trkpt lat="53.664413942553146" lon="14.745219960164663"><ele>15.0</ele><time>2026-04-12T14:38:29.869Z</time></trkpt><trkpt lat="53.664433969961564" lon="14.744996193108623"><ele>15.0</ele><time>2026-04-12T14:38:30.869Z</time></trkpt><trkpt lat="53.66444705164478" lon="14.744782398172847"><ele>15.0</ele><time>2026-04-12T14:38:31.869Z</time></trkpt><trkpt lat="53.66446867668286" lon="14.74455173433325"><ele>14.5</ele><time>2026-04-12T14:38:32.869Z</time></trkpt><trkpt lat="53.66448780975692" lon="14.744362140003664"><ele>14.0</ele><time>2026-04-12T14:38:33.869Z</time></trkpt><trkpt lat="53.66449989334588" lon="14.744159773545634"><ele>13.5</ele><time>2026-04-12T14:38:34.869Z</time></trkpt><trkpt lat="53.66450068459248" lon="14.743940289068817"><ele>13.0</ele><time>2026-04-12T14:38:35.869Z</time></trkpt><trkpt lat="53.66449835126294" lon="14.74370497805995"><ele>13.0</ele><time>2026-04-12T14:38:36.869Z</time></trkpt><trkpt lat="53.664479367184306" lon="14.743446038362485"><ele>13.0</ele><time>2026-04-12T14:38:37.869Z</time></trkpt><trkpt lat="53.66446132598213" lon="14.743173147320915"><ele>13.0</ele><time>2026-04-12T14:38:38.869Z</time></trkpt><trkpt lat="53.66442993046163" lon="14.742912873700034"><ele>14.0</ele><time>2026-04-12T14:38:39.869Z</time></trkpt><trkpt lat="53.664395686031924" lon="14.742633370455597"><ele>15.0</ele><time>2026-04-12T14:38:40.869Z</time></trkpt><trkpt lat="53.66436765619392" lon="14.74236927156576"><ele>16.0</ele><time>2026-04-12T14:38:41.869Z</time></trkpt><trkpt lat="53.66434214084773" lon="14.742129268612954"><ele>17.666666666666664</ele><time>2026-04-12T14:38:42.869Z</time></trkpt><trkpt lat="53.664316193738905" lon="14.74187806370306"><ele>19.333333333333332</ele><time>2026-04-12T14:38:43.869Z</time></trkpt><trkpt lat="53.66429020595497" lon="14.741606814985753"><ele>21.0</ele><time>2026-04-12T14:38:44.869Z</time></trkpt><trkpt lat="53.66425185758785" lon="14.741315178928842"><ele>20.333333333333332</ele><time>2026-04-12T14:38:45.869Z</time></trkpt><trkpt lat="53.6642178985491" lon="14.741032271185206"><ele>19.666666666666664</ele><time>2026-04-12T14:38:46.869Z</time></trkpt><trkpt lat="53.66418947235756" lon="14.740778617223437"><ele>19.0</ele><time>2026-04-12T14:38:47.869Z</time></trkpt><trkpt lat="53.66414737257622" lon="14.740498125749166"><ele>18.0</ele><time>2026-04-12T14:38:48.869Z</time></trkpt><trkpt lat="53.66410224372447" lon="14.740213239276562"><ele>17.0</ele><time>2026-04-12T14:38:49.869Z</time></trkpt><trkpt lat="53.66405586788043" lon="14.73992303683012"><ele>16.0</ele><time>2026-04-12T14:38:50.869Z</time></trkpt><trkpt lat="53.66400586512536" lon="14.739636849574737"><ele>16.0</ele><time>2026-04-12T14:38:51.869Z</time></trkpt><trkpt lat="53.66396613380518" lon="14.739402437795471"><ele>16.0</ele><time>2026-04-12T14:38:52.869Z</time></trkpt><trkpt lat="53.663929102716516" lon="14.739145401555596"><ele>16.0</ele><time>2026-04-12T14:38:53.869Z</time></trkpt><trkpt lat="53.66388915939843" lon="14.738896142274026"><ele>14.666666666666666</ele><time>2026-04-12T14:38:54.869Z</time></trkpt><trkpt lat="53.663844111151256" lon="14.738644205789718"><ele>13.333333333333332</ele><time>2026-04-12T14:38:55.869Z</time></trkpt><trkpt lat="53.66379356806559" lon="14.738373880647954"><ele>12.0</ele><time>2026-04-12T14:38:56.869Z</time></trkpt><trkpt lat="53.663757093080456" lon="14.738140270478068"><ele>12.0</ele><time>2026-04-12T14:38:57.869Z</time></trkpt><trkpt lat="53.6637236350297" lon="14.737911280525772"><ele>12.0</ele><time>2026-04-12T14:38:58.869Z</time></trkpt><trkpt lat="53.663692648686045" lon="14.737695856342658"><ele>12.0</ele><time>2026-04-12T14:38:59.869Z</time></trkpt><trkpt lat="53.66365123491686" lon="14.737485018507918"><ele>12.0</ele><time>2026-04-12T14:39:00.869Z</time></trkpt><trkpt lat="53.66361745547781" lon="14.73733712946424"><ele>14.0</ele><time>2026-04-12T14:39:01.869Z</time></trkpt><trkpt lat="53.66359242006708" lon="14.737172564530594"><ele>16.0</ele><time>2026-04-12T14:39:03.869Z</time></trkpt><trkpt lat="53.66356924412576" lon="14.73706113220687"><ele>18.0</ele><time>2026-04-12T14:39:06.869Z</time></trkpt><trkpt lat="53.66338992139824" lon="14.73708308462245"><ele>20.0</ele><time>2026-04-12T14:39:08.869Z</time></trkpt><trkpt lat="53.66326995086996" lon="14.737131750316589"><ele>20.0</ele><time>2026-04-12T14:39:09.869Z</time></trkpt><trkpt lat="53.663152774187715" lon="14.737207418084967"><ele>20.0</ele><time>2026-04-12T14:39:10.869Z</time></trkpt><trkpt lat="53.66304190933024" lon="14.73728920667603"><ele>20.0</ele><time>2026-04-12T14:39:11.869Z</time></trkpt><trkpt lat="53.662943361888" lon="14.737337800981038"><ele>20.0</ele><time>2026-04-12T14:39:12.869Z</time></trkpt><trkpt lat="53.66284333103556" lon="14.737388133439056"><ele>20.8</ele><time>2026-04-12T14:39:13.869Z</time></trkpt><trkpt lat="53.66272431643031" lon="14.737427925487735"><ele>21.6</ele><time>2026-04-12T14:39:14.869Z</time></trkpt><trkpt lat="53.66261890665761" lon="14.737468824030817"><ele>22.4</ele><time>2026-04-12T14:39:15.869Z</time></trkpt><trkpt lat="53.66253704772747" lon="14.737509109355539"><ele>23.2</ele><time>2026-04-12T14:39:16.869Z</time></trkpt><trkpt lat="53.66244482865117" lon="14.737556031626003"><ele>24.0</ele><time>2026-04-12T14:39:17.869Z</time></trkpt><trkpt lat="53.6623663764039" lon="14.737578080983514"><ele>24.0</ele><time>2026-04-12T14:39:18.869Z</time></trkpt><trkpt lat="53.66227319631722" lon="14.73761898669593"><ele>24.0</ele><time>2026-04-12T14:39:19.869Z</time></trkpt><trkpt lat="53.66218511669333" lon="14.737640090363717"><ele>24.0</ele><time>2026-04-12T14:39:20.869Z</time></trkpt><trkpt lat="53.66210335376947" lon="14.737676901922685"><ele>24.0</ele><time>2026-04-12T14:39:21.869Z</time></trkpt><trkpt lat="53.66203901353499" lon="14.737704278413249"><ele>24.0</ele><time>2026-04-12T14:39:22.87Z</time></trkpt><trkpt lat="53.661972351129855" lon="14.737737466485811"><ele>24.0</ele><time>2026-04-12T14:39:24.87Z</time></trkpt><trkpt lat="53.661885591839024" lon="14.737746317569535"><ele>23.6</ele><time>2026-04-12T14:39:32.87Z</time></trkpt><trkpt lat="53.661768709638366" lon="14.737788507297152"><ele>23.2</ele><time>2026-04-12T14:39:35.87Z</time></trkpt><trkpt lat="53.661665442872575" lon="14.737840580768285"><ele>22.8</ele><time>2026-04-12T14:39:37.87Z</time></trkpt><trkpt lat="53.661575262701234" lon="14.737913119390157"><ele>22.400000000000002</ele><time>2026-04-12T14:39:39.87Z</time></trkpt><trkpt lat="53.66151070978404" lon="14.738020240371656"><ele>22.0</ele><time>2026-04-12T14:39:41.87Z</time></trkpt><trkpt lat="53.661480557477624" lon="14.738219169897498"><ele>22.0</ele><time>2026-04-12T14:39:43.869Z</time></trkpt><trkpt lat="53.6614800688694" lon="14.738349276640426"><ele>22.0</ele><time>2026-04-12T14:39:44.869Z</time></trkpt><trkpt lat="53.66147745354554" lon="14.738506731282545"><ele>22.0</ele><time>2026-04-12T14:39:45.869Z</time></trkpt><trkpt lat="53.661467905479206" lon="14.738667238938588"><ele>22.0</ele><time>2026-04-12T14:39:46.869Z</time></trkpt><trkpt lat="53.66146958380107" lon="14.738821764005213"><ele>22.0</ele><time>2026-04-12T14:39:47.868Z</time></trkpt><trkpt lat="53.66145700936328" lon="14.738994712746258"><ele>22.5</ele><time>2026-04-12T14:39:48.868Z</time></trkpt><trkpt lat="53.66144427378888" lon="14.739117747542132"><ele>23.0</ele><time>2026-04-12T14:39:49.868Z</time></trkpt><trkpt lat="53.66144514633596" lon="14.739292595011353"><ele>23.5</ele><time>2026-04-12T14:39:50.868Z</time></trkpt><trkpt lat="53.661440665797045" lon="14.739428934028501"><ele>24.0</ele><time>2026-04-12T14:39:51.868Z</time></trkpt><trkpt lat="53.66145047959801" lon="14.739573215759476"><ele>24.500000000000004</ele><time>2026-04-12T14:39:52.868Z</time></trkpt><trkpt lat="53.66145587897635" lon="14.739731707390987"><ele>25.0</ele><time>2026-04-12T14:39:53.868Z</time></trkpt><trkpt lat="53.66147354968792" lon="14.739867696261422"><ele>25.2</ele><time>2026-04-12T14:39:54.868Z</time></trkpt><trkpt lat="53.66148528060034" lon="14.739998603724938"><ele>25.4</ele><time>2026-04-12T14:39:55.868Z</time></trkpt><trkpt lat="53.661485630505695" lon="14.740198604836234"><ele>25.6</ele><time>2026-04-12T14:39:56.869Z</time></trkpt><trkpt lat="53.66150666996571" lon="14.740382864235285"><ele>25.8</ele><time>2026-04-12T14:39:57.869Z</time></trkpt><trkpt lat="53.66152494434966" lon="14.740574709252117"><ele>26.0</ele><time>2026-04-12T14:39:58.869Z</time></trkpt><trkpt lat="53.66154337602761" lon="14.740708854999792"><ele>26.0</ele><time>2026-04-12T14:39:59.869Z</time></trkpt><trkpt lat="53.661558179574925" lon="14.74083339916212"><ele>26.0</ele><time>2026-04-12T14:40:00.869Z</time></trkpt><trkpt lat="53.66157627671221" lon="14.740973943428202"><ele>26.0</ele><time>2026-04-12T14:40:01.869Z</time></trkpt><trkpt lat="53.66159149674786" lon="14.741147711270798"><ele>26.0</ele><time>2026-04-12T14:40:02.869Z</time></trkpt><trkpt lat="53.661606721067024" lon="14.741330693889681"><ele>26.0</ele><time>2026-04-12T14:40:03.869Z</time></trkpt><trkpt lat="53.66160125756188" lon="14.74150505033797"><ele>26.200000000000003</ele><time>2026-04-12T14:40:04.869Z</time></trkpt><trkpt lat="53.6615989773225" lon="14.74168132343304"><ele>26.400000000000002</ele><time>2026-04-12T14:40:05.869Z</time></trkpt><trkpt lat="53.66160268967777" lon="14.741835095833009"><ele>26.6</ele><time>2026-04-12T14:40:06.869Z</time></trkpt><trkpt lat="53.661618903912895" lon="14.742018223231867"><ele>26.8</ele><time>2026-04-12T14:40:07.869Z</time></trkpt><trkpt lat="53.6616283249096" lon="14.74218019531957"><ele>27.0</ele><time>2026-04-12T14:40:08.869Z</time></trkpt><trkpt lat="53.66163530140456" lon="14.742304875881796"><ele>27.200000000000003</ele><time>2026-04-12T14:40:09.869Z</time></trkpt><trkpt lat="53.66164878045061" lon="14.742502858787006"><ele>27.400000000000002</ele><time>2026-04-12T14:40:10.869Z</time></trkpt><trkpt lat="53.661657797305665" lon="14.74268270934352"><ele>27.599999999999998</ele><time>2026-04-12T14:40:11.869Z</time></trkpt><trkpt lat="53.66167196780069" lon="14.742830373513097"><ele>27.799999999999997</ele><time>2026-04-12T14:40:12.869Z</time></trkpt><trkpt lat="53.66167604896547" lon="14.74296134113041"><ele>28.0</ele><time>2026-04-12T14:40:13.869Z</time></trkpt><trkpt lat="53.6617215923497" lon="14.743227240548148"><ele>27.799999999999997</ele><time>2026-04-12T14:40:15.869Z</time></trkpt><trkpt lat="53.66172649590366" lon="14.743337355125508"><ele>27.599999999999998</ele><time>2026-04-12T14:40:16.869Z</time></trkpt><trkpt lat="53.66171301045526" lon="14.743543766623189"><ele>27.400000000000002</ele><time>2026-04-12T14:40:18.869Z</time></trkpt><trkpt lat="53.6616334252741" lon="14.743588745433723"><ele>27.200000000000003</ele><time>2026-04-12T14:40:19.869Z</time></trkpt><trkpt lat="53.66154566494307" lon="14.7436036606851"><ele>27.0</ele><time>2026-04-12T14:40:20.869Z</time></trkpt><trkpt lat="53.66140328939746" lon="14.74365160147199"><ele>27.0</ele><time>2026-04-12T14:40:21.869Z</time></trkpt><trkpt lat="53.66129311431815" lon="14.743700319330049"><ele>27.0</ele><time>2026-04-12T14:40:22.869Z</time></trkpt><trkpt lat="53.6611484207113" lon="14.743769206471452"><ele>27.0</ele><time>2026-04-12T14:40:23.869Z</time></trkpt><trkpt lat="53.6609994667648" lon="14.743821129599002"><ele>27.0</ele><time>2026-04-12T14:40:24.869Z</time></trkpt><trkpt lat="53.66083899165692" lon="14.743894331814989"><ele>25.5</ele><time>2026-04-12T14:40:25.869Z</time></trkpt><trkpt lat="53.66069443148608" lon="14.74397367928466"><ele>24.0</ele><time>2026-04-12T14:40:26.869Z</time></trkpt><trkpt lat="53.66057080082088" lon="14.744038699817303"><ele>22.5</ele><time>2026-04-12T14:40:27.869Z</time></trkpt><trkpt lat="53.66045188713352" lon="14.744100990154399"><ele>21.0</ele><time>2026-04-12T14:40:28.869Z</time></trkpt><trkpt lat="53.660341247389844" lon="14.744144346843449"><ele>19.25</ele><time>2026-04-12T14:40:29.869Z</time></trkpt><trkpt lat="53.66021296968278" lon="14.744188389035207"><ele>17.5</ele><time>2026-04-12T14:40:30.869Z</time></trkpt><trkpt lat="53.660110642115455" lon="14.744213139019536"><ele>15.75</ele><time>2026-04-12T14:40:31.869Z</time></trkpt><trkpt lat="53.660000978450746" lon="14.744255502948572"><ele>14.0</ele><time>2026-04-12T14:40:32.869Z</time></trkpt><trkpt lat="53.659890688652766" lon="14.744306337317992"><ele>14.0</ele><time>2026-04-12T14:40:33.869Z</time></trkpt><trkpt lat="53.659772798304665" lon="14.74436297256686"><ele>14.0</ele><time>2026-04-12T14:40:34.869Z</time></trkpt><trkpt lat="53.65964691290069" lon="14.74441119149005"><ele>14.0</ele><time>2026-04-12T14:40:35.869Z</time></trkpt><trkpt lat="53.65954009539673" lon="14.744458831909222"><ele>14.0</ele><time>2026-04-12T14:40:36.869Z</time></trkpt><trkpt lat="53.65942873836074" lon="14.744501197231578"><ele>14.399999999999999</ele><time>2026-04-12T14:40:37.869Z</time></trkpt><trkpt lat="53.65934055507203" lon="14.74454440266056"><ele>14.799999999999999</ele><time>2026-04-12T14:40:38.869Z</time></trkpt><trkpt lat="53.65925320704715" lon="14.744582209275762"><ele>15.200000000000001</ele><time>2026-04-12T14:40:39.869Z</time></trkpt><trkpt lat="53.659150123594074" lon="14.744617761502939"><ele>15.600000000000001</ele><time>2026-04-12T14:40:40.869Z</time></trkpt><trkpt lat="53.65905851752103" lon="14.744655887108047"><ele>16.0</ele><time>2026-04-12T14:40:41.869Z</time></trkpt><trkpt lat="53.65895151615041" lon="14.744712452751822"><ele>16.0</ele><time>2026-04-12T14:40:42.869Z</time></trkpt><trkpt lat="53.65882618051375" lon="14.744778826133167"><ele>16.0</ele><time>2026-04-12T14:40:43.869Z</time></trkpt><trkpt lat="53.65871540404499" lon="14.744836701567205"><ele>16.0</ele><time>2026-04-12T14:40:44.869Z</time></trkpt><trkpt lat="53.658603737508564" lon="14.744886707928272"><ele>16.0</ele><time>2026-04-12T14:40:45.869Z</time></trkpt><trkpt lat="53.658495975900124" lon="14.744932329379703"><ele>15.5</ele><time>2026-04-12T14:40:46.869Z</time></trkpt><trkpt lat="53.65837846395923" lon="14.744991832173929"><ele>15.0</ele><time>2026-04-12T14:40:47.869Z</time></trkpt><trkpt lat="53.65826868369728" lon="14.745028741048582"><ele>14.5</ele><time>2026-04-12T14:40:48.869Z</time></trkpt><trkpt lat="53.658148798748456" lon="14.745077143544693"><ele>14.0</ele><time>2026-04-12T14:40:49.869Z</time></trkpt><trkpt lat="53.65801901836028" lon="14.745147353494657"><ele>14.0</ele><time>2026-04-12T14:40:50.869Z</time></trkpt><trkpt lat="53.657886889132484" lon="14.74520432240585"><ele>14.0</ele><time>2026-04-12T14:40:51.869Z</time></trkpt><trkpt lat="53.657768471035965" lon="14.745262266617813"><ele>14.0</ele><time>2026-04-12T14:40:52.869Z</time></trkpt><trkpt lat="53.65764513709435" lon="14.74530821763141"><ele>14.0</ele><time>2026-04-12T14:40:53.869Z</time></trkpt><trkpt lat="53.65754707515532" lon="14.745355173167603"><ele>13.333333333333334</ele><time>2026-04-12T14:40:54.869Z</time></trkpt><trkpt lat="53.65740021707692" lon="14.74541471659389"><ele>12.666666666666668</ele><time>2026-04-12T14:40:55.869Z</time></trkpt><trkpt lat="53.657239149019176" lon="14.74546995658088"><ele>12.0</ele><time>2026-04-12T14:40:56.869Z</time></trkpt><trkpt lat="53.65708628099637" lon="14.745526662310217"><ele>12.0</ele><time>2026-04-12T14:40:57.869Z</time></trkpt><trkpt lat="53.65693757650276" lon="14.745581653289939"><ele>12.0</ele><time>2026-04-12T14:40:58.869Z</time></trkpt><trkpt lat="53.65680723433801" lon="14.745632108318691"><ele>12.0</ele><time>2026-04-12T14:40:59.869Z</time></trkpt><trkpt lat="53.65665863058147" lon="14.745711037600643"><ele>12.0</ele><time>2026-04-12T14:41:00.869Z</time></trkpt><trkpt lat="53.65651580667709" lon="14.745773591122157"><ele>12.0</ele><time>2026-04-12T14:41:01.869Z</time></trkpt><trkpt lat="53.656383570143404" lon="14.745844822713611"><ele>12.0</ele><time>2026-04-12T14:41:02.869Z</time></trkpt><trkpt lat="53.65625211496365" lon="14.745914415820163"><ele>12.0</ele><time>2026-04-12T14:41:03.869Z</time></trkpt><trkpt lat="53.656105130119144" lon="14.745978717275397"><ele>12.0</ele><time>2026-04-12T14:41:04.869Z</time></trkpt><trkpt lat="53.65594997383701" lon="14.746044468430206"><ele>11.333333333333334</ele><time>2026-04-12T14:41:05.869Z</time></trkpt><trkpt lat="53.65580831754769" lon="14.74611366569792"><ele>10.666666666666668</ele><time>2026-04-12T14:41:06.869Z</time></trkpt><trkpt lat="53.655666915410066" lon="14.746169846362832"><ele>10.0</ele><time>2026-04-12T14:41:07.869Z</time></trkpt><trkpt lat="53.65551311022242" lon="14.74622947114737"><ele>10.0</ele><time>2026-04-12T14:41:08.869Z</time></trkpt><trkpt lat="53.655357866801204" lon="14.746297058204828"><ele>10.0</ele><time>2026-04-12T14:41:09.869Z</time></trkpt><trkpt lat="53.655214753217514" lon="14.746351880693505"><ele>10.0</ele><time>2026-04-12T14:41:10.869Z</time></trkpt><trkpt lat="53.6550430717179" lon="14.746422098130132"><ele>10.333333333333334</ele><time>2026-04-12T14:41:11.869Z</time></trkpt><trkpt lat="53.654880309851215" lon="14.746495406823067"><ele>10.666666666666666</ele><time>2026-04-12T14:41:12.869Z</time></trkpt><trkpt lat="53.65472713753903" lon="14.746565491972985"><ele>11.0</ele><time>2026-04-12T14:41:13.869Z</time></trkpt><trkpt lat="53.6545795939575" lon="14.74662276870947"><ele>11.0</ele><time>2026-04-12T14:41:14.869Z</time></trkpt><trkpt lat="53.65444559870245" lon="14.74668401029836"><ele>11.0</ele><time>2026-04-12T14:41:15.869Z</time></trkpt><trkpt lat="53.654317247598925" lon="14.746739186005268"><ele>11.0</ele><time>2026-04-12T14:41:16.869Z</time></trkpt><trkpt lat="53.654185325661615" lon="14.746800138596615"><ele>11.0</ele><time>2026-04-12T14:41:17.869Z</time></trkpt><trkpt lat="53.654045286064644" lon="14.746869405150171"><ele>11.0</ele><time>2026-04-12T14:41:18.869Z</time></trkpt><trkpt lat="53.6539254893216" lon="14.746928141435683"><ele>11.0</ele><time>2026-04-12T14:41:19.869Z</time></trkpt><trkpt lat="53.653807587494256" lon="14.746974237346313"><ele>11.0</ele><time>2026-04-12T14:41:20.869Z</time></trkpt><trkpt lat="53.6536839730483" lon="14.747019931245065"><ele>11.0</ele><time>2026-04-12T14:41:21.869Z</time></trkpt><trkpt lat="53.65354780795231" lon="14.747079285344594"><ele>10.666666666666666</ele><time>2026-04-12T14:41:22.869Z</time></trkpt><trkpt lat="53.65340437171379" lon="14.747154850842232"><ele>10.333333333333334</ele><time>2026-04-12T14:41:23.869Z</time></trkpt><trkpt lat="53.65324563120412" lon="14.747216828095242"><ele>10.0</ele><time>2026-04-12T14:41:24.869Z</time></trkpt><trkpt lat="53.65310884160216" lon="14.74726467688296"><ele>10.0</ele><time>2026-04-12T14:41:25.869Z</time></trkpt><trkpt lat="53.65298440025868" lon="14.747312568004249"><ele>10.0</ele><time>2026-04-12T14:41:26.869Z</time></trkpt><trkpt lat="53.65283462075578" lon="14.747379498362536"><ele>10.0</ele><time>2026-04-12T14:41:27.869Z</time></trkpt><trkpt lat="53.65270529782596" lon="14.747444682180854"><ele>10.0</ele><time>2026-04-12T14:41:28.869Z</time></trkpt><trkpt lat="53.65256390929868" lon="14.7475088602649"><ele>10.75</ele><time>2026-04-12T14:41:29.869Z</time></trkpt><trkpt lat="53.652433201525525" lon="14.747564255736718"><ele>11.5</ele><time>2026-04-12T14:41:30.869Z</time></trkpt><trkpt lat="53.6523070453636" lon="14.747620931572287"><ele>12.25</ele><time>2026-04-12T14:41:31.869Z</time></trkpt><trkpt lat="53.652170965156635" lon="14.747671654283774"><ele>13.0</ele><time>2026-04-12T14:41:32.869Z</time></trkpt><trkpt lat="53.652019205911415" lon="14.747715077563871"><ele>16.333333333333332</ele><time>2026-04-12T14:41:33.869Z</time></trkpt><trkpt lat="53.651878299515175" lon="14.74778812289054"><ele>19.666666666666668</ele><time>2026-04-12T14:41:34.87Z</time></trkpt><trkpt lat="53.651720961818164" lon="14.74786094073138"><ele>23.0</ele><time>2026-04-12T14:41:35.87Z</time></trkpt><trkpt lat="53.65157593790012" lon="14.747939103145294"><ele>23.0</ele><time>2026-04-12T14:41:36.87Z</time></trkpt><trkpt lat="53.651413716208474" lon="14.748000779184684"><ele>23.0</ele><time>2026-04-12T14:41:37.87Z</time></trkpt><trkpt lat="53.65127909398918" lon="14.748065325340022"><ele>23.0</ele><time>2026-04-12T14:41:38.87Z</time></trkpt><trkpt lat="53.651159239482176" lon="14.748132468901789"><ele>23.0</ele><time>2026-04-12T14:41:39.87Z</time></trkpt><trkpt lat="53.651028167298186" lon="14.748198872482405"><ele>22.666666666666668</ele><time>2026-04-12T14:41:40.87Z</time></trkpt><trkpt lat="53.65086243177718" lon="14.748278541189835"><ele>22.333333333333332</ele><time>2026-04-12T14:41:41.87Z</time></trkpt><trkpt lat="53.65068292164761" lon="14.748339844510998"><ele>22.0</ele><time>2026-04-12T14:41:42.87Z</time></trkpt><trkpt lat="53.65052428565372" lon="14.748415689279286"><ele>22.0</ele><time>2026-04-12T14:41:43.87Z</time></trkpt><trkpt lat="53.65036740766852" lon="14.74847693431618"><ele>22.0</ele><time>2026-04-12T14:41:44.87Z</time></trkpt><trkpt lat="53.65020680777782" lon="14.748533744186746"><ele>22.0</ele><time>2026-04-12T14:41:45.87Z</time></trkpt><trkpt lat="53.65005259358966" lon="14.748600330168786"><ele>22.666666666666664</ele><time>2026-04-12T14:41:46.87Z</time></trkpt><trkpt lat="53.649917027412414" lon="14.748668121055974"><ele>23.333333333333332</ele><time>2026-04-12T14:41:47.87Z</time></trkpt><trkpt lat="53.64978009161712" lon="14.74874337021374"><ele>24.0</ele><time>2026-04-12T14:41:48.87Z</time></trkpt><trkpt lat="53.64961270134281" lon="14.748806491503682"><ele>23.333333333333332</ele><time>2026-04-12T14:41:49.868Z</time></trkpt><trkpt lat="53.64944972750947" lon="14.74886914909263"><ele>22.666666666666664</ele><time>2026-04-12T14:41:50.867Z</time></trkpt><trkpt lat="53.64931926225847" lon="14.748934827181758"><ele>22.0</ele><time>2026-04-12T14:41:51.867Z</time></trkpt><trkpt lat="53.64916467410478" lon="14.749003331683639"><ele>22.0</ele><time>2026-04-12T14:41:52.868Z</time></trkpt><trkpt lat="53.64900456483567" lon="14.74906923016812"><ele>22.0</ele><time>2026-04-12T14:41:53.868Z</time></trkpt><trkpt lat="53.64884812283464" lon="14.749137448277251"><ele>22.0</ele><time>2026-04-12T14:41:54.868Z</time></trkpt><trkpt lat="53.64870165404713" lon="14.749206613160514"><ele>22.666666666666664</ele><time>2026-04-12T14:41:55.867Z</time></trkpt><trkpt lat="53.648558506924466" lon="14.749264974853892"><ele>23.333333333333332</ele><time>2026-04-12T14:41:56.867Z</time></trkpt><trkpt lat="53.64839222105565" lon="14.749316080284586"><ele>24.0</ele><time>2026-04-12T14:41:57.867Z</time></trkpt><trkpt lat="53.64825481993787" lon="14.749385716192503"><ele>24.25</ele><time>2026-04-12T14:41:58.867Z</time></trkpt><trkpt lat="53.64810492306351" lon="14.749445791678406"><ele>24.5</ele><time>2026-04-12T14:41:59.868Z</time></trkpt><trkpt lat="53.647982480413035" lon="14.749519018177873"><ele>24.75</ele><time>2026-04-12T14:42:00.868Z</time></trkpt><trkpt lat="53.647830360227445" lon="14.7495928382717"><ele>25.0</ele><time>2026-04-12T14:42:01.867Z</time></trkpt><trkpt lat="53.64767045146951" lon="14.749649784933652"><ele>24.0</ele><time>2026-04-12T14:42:02.868Z</time></trkpt><trkpt lat="53.64752043987301" lon="14.7496957541254"><ele>23.0</ele><time>2026-04-12T14:42:03.868Z</time></trkpt><trkpt lat="53.64734635718949" lon="14.749777885709873"><ele>22.0</ele><time>2026-04-12T14:42:04.868Z</time></trkpt><trkpt lat="53.647212406314466" lon="14.749852865822117"><ele>22.0</ele><time>2026-04-12T14:42:05.868Z</time></trkpt><trkpt lat="53.64704543368056" lon="14.74990436100136"><ele>22.0</ele><time>2026-04-12T14:42:06.868Z</time></trkpt><trkpt lat="53.64689051910781" lon="14.749960492619826"><ele>22.0</ele><time>2026-04-12T14:42:07.868Z</time></trkpt><trkpt lat="53.64675147579508" lon="14.750023266161582"><ele>21.75</ele><time>2026-04-12T14:42:08.868Z</time></trkpt><trkpt lat="53.6466395242691" lon="14.750090551358564"><ele>21.5</ele><time>2026-04-12T14:42:09.868Z</time></trkpt><trkpt lat="53.64649041726279" lon="14.750168840863637"><ele>21.25</ele><time>2026-04-12T14:42:10.868Z</time></trkpt><trkpt lat="53.646357468412646" lon="14.75022193885417"><ele>21.0</ele><time>2026-04-12T14:42:11.868Z</time></trkpt><trkpt lat="53.64619426330475" lon="14.750295669125922"><ele>21.333333333333332</ele><time>2026-04-12T14:42:12.868Z</time></trkpt><trkpt lat="53.64603166612152" lon="14.750360438310011"><ele>21.666666666666664</ele><time>2026-04-12T14:42:13.868Z</time></trkpt><trkpt lat="53.64587119631404" lon="14.750409830892638"><ele>22.0</ele><time>2026-04-12T14:42:14.868Z</time></trkpt><trkpt lat="53.645707986138895" lon="14.750448821058121"><ele>22.0</ele><time>2026-04-12T14:42:15.868Z</time></trkpt><trkpt lat="53.64553066933158" lon="14.750553261083624"><ele>22.0</ele><time>2026-04-12T14:42:16.868Z</time></trkpt><trkpt lat="53.64535210157607" lon="14.750641867958674"><ele>22.0</ele><time>2026-04-12T14:42:17.868Z</time></trkpt><trkpt lat="53.64518437036975" lon="14.750697100101197"><ele>22.0</ele><time>2026-04-12T14:42:18.868Z</time></trkpt><trkpt lat="53.64502184831632" lon="14.750755975087168"><ele>22.0</ele><time>2026-04-12T14:42:19.868Z</time></trkpt><trkpt lat="53.64485556444778" lon="14.750833751747654"><ele>22.0</ele><time>2026-04-12T14:42:20.868Z</time></trkpt><trkpt lat="53.64469647682465" lon="14.750894782322879"><ele>22.0</ele><time>2026-04-12T14:42:21.868Z</time></trkpt><trkpt lat="53.644531816601905" lon="14.750970789008509"><ele>22.0</ele><time>2026-04-12T14:42:22.868Z</time></trkpt><trkpt lat="53.64436315943654" lon="14.751053210719306"><ele>22.0</ele><time>2026-04-12T14:42:23.868Z</time></trkpt><trkpt lat="53.64418684871935" lon="14.751121070493872"><ele>21.666666666666664</ele><time>2026-04-12T14:42:24.868Z</time></trkpt><trkpt lat="53.64403354031245" lon="14.751185902070292"><ele>21.333333333333332</ele><time>2026-04-12T14:42:25.868Z</time></trkpt><trkpt lat="53.643867539733975" lon="14.751256708021502"><ele>21.0</ele><time>2026-04-12T14:42:26.868Z</time></trkpt><trkpt lat="53.64369412949482" lon="14.751318796843588"><ele>21.0</ele><time>2026-04-12T14:42:27.868Z</time></trkpt><trkpt lat="53.64354846828485" lon="14.751372432702105"><ele>21.0</ele><time>2026-04-12T14:42:28.868Z</time></trkpt><trkpt lat="53.64343858091648" lon="14.751416872869147"><ele>21.0</ele><time>2026-04-12T14:42:29.868Z</time></trkpt><trkpt lat="53.64332397934577" lon="14.751460596047476"><ele>21.0</ele><time>2026-04-12T14:42:30.868Z</time></trkpt><trkpt lat="53.64321934502808" lon="14.751533810899828"><ele>21.0</ele><time>2026-04-12T14:42:31.868Z</time></trkpt><trkpt lat="53.643101152699955" lon="14.751615927914113"><ele>21.0</ele><time>2026-04-12T14:42:32.868Z</time></trkpt><trkpt lat="53.64299288181759" lon="14.751691463882644"><ele>21.0</ele><time>2026-04-12T14:42:33.868Z</time></trkpt><trkpt lat="53.64289819328758" lon="14.75174745648741"><ele>21.0</ele><time>2026-04-12T14:42:34.868Z</time></trkpt><trkpt lat="53.642792507313" lon="14.751778832432318"><ele>21.0</ele><time>2026-04-12T14:42:35.868Z</time></trkpt><trkpt lat="53.64266440447187" lon="14.751802683565721"><ele>21.0</ele><time>2026-04-12T14:42:36.868Z</time></trkpt><trkpt lat="53.64252571938076" lon="14.751853156055782"><ele>21.0</ele><time>2026-04-12T14:42:37.868Z</time></trkpt><trkpt lat="53.6423938048393" lon="14.751921085425423"><ele>21.0</ele><time>2026-04-12T14:42:38.868Z</time></trkpt><trkpt lat="53.64224906620512" lon="14.751986845113294"><ele>21.0</ele><time>2026-04-12T14:42:39.868Z</time></trkpt><trkpt lat="53.642095372108926" lon="14.752070415663113"><ele>21.0</ele><time>2026-04-12T14:42:40.868Z</time></trkpt><trkpt lat="53.64194295238029" lon="14.752127589664475"><ele>21.0</ele><time>2026-04-12T14:42:41.868Z</time></trkpt><trkpt lat="53.64180271544376" lon="14.752187451002312"><ele>21.333333333333332</ele><time>2026-04-12T14:42:42.868Z</time></trkpt><trkpt lat="53.64166020656449" lon="14.75225438617554"><ele>21.666666666666664</ele><time>2026-04-12T14:42:43.868Z</time></trkpt><trkpt lat="53.64150659429622" lon="14.752318389107518"><ele>22.0</ele><time>2026-04-12T14:42:44.868Z</time></trkpt><trkpt lat="53.64136050736964" lon="14.752387356375802"><ele>22.0</ele><time>2026-04-12T14:42:45.868Z</time></trkpt><trkpt lat="53.64121712111997" lon="14.752447510445366"><ele>22.0</ele><time>2026-04-12T14:42:46.868Z</time></trkpt><trkpt lat="53.64106076961468" lon="14.752522167147788"><ele>22.0</ele><time>2026-04-12T14:42:47.868Z</time></trkpt><trkpt lat="53.64090699921863" lon="14.752569411483977"><ele>22.25</ele><time>2026-04-12T14:42:48.868Z</time></trkpt><trkpt lat="53.64076852872608" lon="14.752633448269991"><ele>22.5</ele><time>2026-04-12T14:42:49.868Z</time></trkpt><trkpt lat="53.64063034193868" lon="14.752698476537784"><ele>22.75</ele><time>2026-04-12T14:42:50.868Z</time></trkpt><trkpt lat="53.64048740182261" lon="14.75277205850149"><ele>23.0</ele><time>2026-04-12T14:42:51.868Z</time></trkpt><trkpt lat="53.64033451369572" lon="14.752845460172669"><ele>21.75</ele><time>2026-04-12T14:42:52.868Z</time></trkpt><trkpt lat="53.64021302505445" lon="14.752892750237177"><ele>20.5</ele><time>2026-04-12T14:42:53.868Z</time></trkpt><trkpt lat="53.640083095988075" lon="14.752956556816676"><ele>19.25</ele><time>2026-04-12T14:42:54.868Z</time></trkpt><trkpt lat="53.639957732119555" lon="14.753006676905095"><ele>18.0</ele><time>2026-04-12T14:42:55.868Z</time></trkpt><trkpt lat="53.63985108388883" lon="14.753064042802249"><ele>18.0</ele><time>2026-04-12T14:42:56.868Z</time></trkpt><trkpt lat="53.63972788087101" lon="14.753136419600608"><ele>18.0</ele><time>2026-04-12T14:42:57.868Z</time></trkpt><trkpt lat="53.639615464336266" lon="14.753180172938468"><ele>18.0</ele><time>2026-04-12T14:42:58.868Z</time></trkpt><trkpt lat="53.6395038277186" lon="14.753233611655832"><ele>18.0</ele><time>2026-04-12T14:42:59.868Z</time></trkpt><trkpt lat="53.63939746450441" lon="14.753262186235991"><ele>17.75</ele><time>2026-04-12T14:43:00.868Z</time></trkpt><trkpt lat="53.63927130567906" lon="14.753315830691937"><ele>17.5</ele><time>2026-04-12T14:43:01.868Z</time></trkpt><trkpt lat="53.639136136825904" lon="14.753360778691306"><ele>17.25</ele><time>2026-04-12T14:43:02.868Z</time></trkpt><trkpt lat="53.63902776045953" lon="14.75342058304912"><ele>17.0</ele><time>2026-04-12T14:43:03.868Z</time></trkpt><trkpt lat="53.63891765281259" lon="14.753465063055792"><ele>16.75</ele><time>2026-04-12T14:43:04.868Z</time></trkpt><trkpt lat="53.63880449009278" lon="14.753543365579501"><ele>16.5</ele><time>2026-04-12T14:43:05.869Z</time></trkpt><trkpt lat="53.63870838414858" lon="14.753606093878764"><ele>16.25</ele><time>2026-04-12T14:43:06.869Z</time></trkpt><trkpt lat="53.638597492015734" lon="14.75365680012637"><ele>16.0</ele><time>2026-04-12T14:43:07.869Z</time></trkpt><trkpt lat="53.63847466409858" lon="14.753693219186356"><ele>16.0</ele><time>2026-04-12T14:43:08.869Z</time></trkpt><trkpt lat="53.63835362040392" lon="14.753741737308903"><ele>16.0</ele><time>2026-04-12T14:43:09.869Z</time></trkpt><trkpt lat="53.63823421531964" lon="14.753799361738151"><ele>16.0</ele><time>2026-04-12T14:43:10.869Z</time></trkpt><trkpt lat="53.63809877707409" lon="14.753856554662418"><ele>16.0</ele><time>2026-04-12T14:43:11.869Z</time></trkpt><trkpt lat="53.63798107313265" lon="14.753925405346543"><ele>16.0</ele><time>2026-04-12T14:43:12.869Z</time></trkpt><trkpt lat="53.63785582258924" lon="14.753994966702095"><ele>16.0</ele><time>2026-04-12T14:43:13.869Z</time></trkpt><trkpt lat="53.63772072655499" lon="14.754058709557686"><ele>16.0</ele><time>2026-04-12T14:43:14.869Z</time></trkpt><trkpt lat="53.63758708237841" lon="14.754119884554196"><ele>16.0</ele><time>2026-04-12T14:43:15.869Z</time></trkpt><trkpt lat="53.637445470799086" lon="14.754176057974805"><ele>16.25</ele><time>2026-04-12T14:43:16.869Z</time></trkpt><trkpt lat="53.637314529594725" lon="14.754244278408414"><ele>16.5</ele><time>2026-04-12T14:43:17.869Z</time></trkpt><trkpt lat="53.63718199020175" lon="14.754296151895055"><ele>16.75</ele><time>2026-04-12T14:43:18.869Z</time></trkpt><trkpt lat="53.63704971541393" lon="14.754338439715296"><ele>17.0</ele><time>2026-04-12T14:43:19.869Z</time></trkpt><trkpt lat="53.63690117838377" lon="14.754396524967476"><ele>17.5</ele><time>2026-04-12T14:43:20.869Z</time></trkpt><trkpt lat="53.63675028555219" lon="14.754473233307944"><ele>18.0</ele><time>2026-04-12T14:43:21.869Z</time></trkpt><trkpt lat="53.636611579956025" lon="14.754552691585946"><ele>18.5</ele><time>2026-04-12T14:43:22.869Z</time></trkpt><trkpt lat="53.636498049477964" lon="14.754596672854458"><ele>19.0</ele><time>2026-04-12T14:43:23.869Z</time></trkpt><trkpt lat="53.636387046718376" lon="14.754647404400046"><ele>19.0</ele><time>2026-04-12T14:43:24.869Z</time></trkpt><trkpt lat="53.636268578106744" lon="14.754702267639463"><ele>19.0</ele><time>2026-04-12T14:43:25.869Z</time></trkpt><trkpt lat="53.63612961491699" lon="14.754746142323329"><ele>19.0</ele><time>2026-04-12T14:43:26.869Z</time></trkpt><trkpt lat="53.63598037410782" lon="14.754799934642282"><ele>19.0</ele><time>2026-04-12T14:43:27.869Z</time></trkpt><trkpt lat="53.63584186629808" lon="14.754873338898657"><ele>20.333333333333332</ele><time>2026-04-12T14:43:28.869Z</time></trkpt><trkpt lat="53.63570151734899" lon="14.754947428937022"><ele>21.666666666666668</ele><time>2026-04-12T14:43:29.869Z</time></trkpt><trkpt lat="53.63555803335991" lon="14.755011507144705"><ele>23.0</ele><time>2026-04-12T14:43:30.869Z</time></trkpt><trkpt lat="53.63540396597007" lon="14.75507275825205"><ele>22.666666666666668</ele><time>2026-04-12T14:43:31.869Z</time></trkpt><trkpt lat="53.635260998635935" lon="14.755115408325244"><ele>22.333333333333332</ele><time>2026-04-12T14:43:32.869Z</time></trkpt><trkpt lat="53.63510678820866" lon="14.755179467779431"><ele>22.0</ele><time>2026-04-12T14:43:33.869Z</time></trkpt><trkpt lat="53.63495569995297" lon="14.755258995410607"><ele>22.0</ele><time>2026-04-12T14:43:34.869Z</time></trkpt><trkpt lat="53.634835174457194" lon="14.755310686657854"><ele>22.0</ele><time>2026-04-12T14:43:35.869Z</time></trkpt><trkpt lat="53.63473023338222" lon="14.755356921481752"><ele>22.0</ele><time>2026-04-12T14:43:36.869Z</time></trkpt><trkpt lat="53.634628890127665" lon="14.755410787250621"><ele>22.0</ele><time>2026-04-12T14:43:37.869Z</time></trkpt><trkpt lat="53.63450686465345" lon="14.755474396195373"><ele>20.5</ele><time>2026-04-12T14:43:38.869Z</time></trkpt><trkpt lat="53.63436690644732" lon="14.755525138614642"><ele>19.0</ele><time>2026-04-12T14:43:39.869Z</time></trkpt><trkpt lat="53.63423427094611" lon="14.755578347322032"><ele>17.5</ele><time>2026-04-12T14:43:40.869Z</time></trkpt><trkpt lat="53.63408916282907" lon="14.75563610776396"><ele>16.0</ele><time>2026-04-12T14:43:41.869Z</time></trkpt><trkpt lat="53.63394868995662" lon="14.755711052375245"><ele>16.0</ele><time>2026-04-12T14:43:42.869Z</time></trkpt><trkpt lat="53.63382448640842" lon="14.75575568212162"><ele>16.0</ele><time>2026-04-12T14:43:43.869Z</time></trkpt><trkpt lat="53.6337124150685" lon="14.755822209559264"><ele>16.0</ele><time>2026-04-12T14:43:44.869Z</time></trkpt><trkpt lat="53.63358845917641" lon="14.755889427368844"><ele>16.0</ele><time>2026-04-12T14:43:45.869Z</time></trkpt><trkpt lat="53.63345764149887" lon="14.755971581569838"><ele>16.0</ele><time>2026-04-12T14:43:46.869Z</time></trkpt><trkpt lat="53.633322314202076" lon="14.756038953432169"><ele>16.0</ele><time>2026-04-12T14:43:47.869Z</time></trkpt><trkpt lat="53.63317148692272" lon="14.756123100911976"><ele>16.0</ele><time>2026-04-12T14:43:48.869Z</time></trkpt><trkpt lat="53.63303340551589" lon="14.756150542315645"><ele>16.0</ele><time>2026-04-12T14:43:49.869Z</time></trkpt><trkpt lat="53.63291511696888" lon="14.756195174790516"><ele>16.5</ele><time>2026-04-12T14:43:50.869Z</time></trkpt><trkpt lat="53.632777387474846" lon="14.7562725805295"><ele>17.0</ele><time>2026-04-12T14:43:51.869Z</time></trkpt><trkpt lat="53.63264496546912" lon="14.756327517643697"><ele>17.5</ele><time>2026-04-12T14:43:52.869Z</time></trkpt><trkpt lat="53.63249819742654" lon="14.756388268739284"><ele>18.0</ele><time>2026-04-12T14:43:53.869Z</time></trkpt><trkpt lat="53.63234603526488" lon="14.756471340878713"><ele>18.0</ele><time>2026-04-12T14:43:54.869Z</time></trkpt><trkpt lat="53.632208677968734" lon="14.75652350366318"><ele>18.0</ele><time>2026-04-12T14:43:55.867Z</time></trkpt><trkpt lat="53.6320843279431" lon="14.756578403960921"><ele>18.0</ele><time>2026-04-12T14:43:56.867Z</time></trkpt><trkpt lat="53.63196971684825" lon="14.756625186340628"><ele>18.0</ele><time>2026-04-12T14:43:57.867Z</time></trkpt><trkpt lat="53.63185025298277" lon="14.756685048012493"><ele>18.0</ele><time>2026-04-12T14:43:58.866Z</time></trkpt><trkpt lat="53.63170437365906" lon="14.756741635422257"><ele>18.0</ele><time>2026-04-12T14:43:59.867Z</time></trkpt><trkpt lat="53.63159008519313" lon="14.756778415190297"><ele>18.0</ele><time>2026-04-12T14:44:00.867Z</time></trkpt><trkpt lat="53.631471611188665" lon="14.756803956612321"><ele>18.0</ele><time>2026-04-12T14:44:01.866Z</time></trkpt><trkpt lat="53.631373791644656" lon="14.756867870484072"><ele>18.75</ele><time>2026-04-12T14:44:02.867Z</time></trkpt><trkpt lat="53.63126552816516" lon="14.756929325881737"><ele>19.5</ele><time>2026-04-12T14:44:03.867Z</time></trkpt><trkpt lat="53.63116519436497" lon="14.756997811939732"><ele>20.25</ele><time>2026-04-12T14:44:04.867Z</time></trkpt><trkpt lat="53.63105237791804" lon="14.757044481596733"><ele>21.0</ele><time>2026-04-12T14:44:05.866Z</time></trkpt><trkpt lat="53.630931553965574" lon="14.757079961615833"><ele>21.4</ele><time>2026-04-12T14:44:06.866Z</time></trkpt><trkpt lat="53.630814751086284" lon="14.757112587149802"><ele>21.8</ele><time>2026-04-12T14:44:07.866Z</time></trkpt><trkpt lat="53.630719012881634" lon="14.7571568483909"><ele>22.2</ele><time>2026-04-12T14:44:08.866Z</time></trkpt><trkpt lat="53.63062287485504" lon="14.757206116736842"><ele>22.599999999999998</ele><time>2026-04-12T14:44:09.866Z</time></trkpt><trkpt lat="53.63053213044283" lon="14.757242004613278"><ele>23.0</ele><time>2026-04-12T14:44:10.866Z</time></trkpt><trkpt lat="53.630453383441576" lon="14.757276247213342"><ele>23.0</ele><time>2026-04-12T14:44:11.866Z</time></trkpt><trkpt lat="53.63036233915181" lon="14.757322116238253"><ele>23.0</ele><time>2026-04-12T14:44:12.866Z</time></trkpt><trkpt lat="53.63024133122488" lon="14.757379050804383"><ele>23.0</ele><time>2026-04-12T14:44:13.867Z</time></trkpt><trkpt lat="53.63010598842081" lon="14.757443030952187"><ele>23.0</ele><time>2026-04-12T14:44:14.867Z</time></trkpt><trkpt lat="53.629977256171145" lon="14.757505807965684"><ele>23.5</ele><time>2026-04-12T14:44:15.867Z</time></trkpt><trkpt lat="53.629838709139875" lon="14.757567911608696"><ele>24.0</ele><time>2026-04-12T14:44:16.867Z</time></trkpt><trkpt lat="53.629710477617714" lon="14.75761935638317"><ele>24.5</ele><time>2026-04-12T14:44:17.867Z</time></trkpt><trkpt lat="53.62959624533559" lon="14.757669005257029"><ele>25.0</ele><time>2026-04-12T14:44:18.867Z</time></trkpt><trkpt lat="53.6294829838052" lon="14.757719364463695"><ele>24.75</ele><time>2026-04-12T14:44:19.867Z</time></trkpt><trkpt lat="53.62936976830237" lon="14.757777686013492"><ele>24.5</ele><time>2026-04-12T14:44:20.867Z</time></trkpt><trkpt lat="53.629240411923234" lon="14.75783568427704"><ele>24.25</ele><time>2026-04-12T14:44:21.867Z</time></trkpt><trkpt lat="53.62912265331766" lon="14.757880574432262"><ele>24.0</ele><time>2026-04-12T14:44:22.867Z</time></trkpt><trkpt lat="53.629009815708855" lon="14.757937457763452"><ele>24.0</ele><time>2026-04-12T14:44:23.867Z</time></trkpt><trkpt lat="53.62889584556604" lon="14.757994532644387"><ele>24.0</ele><time>2026-04-12T14:44:24.867Z</time></trkpt><trkpt lat="53.62879290756447" lon="14.758057694801469"><ele>24.0</ele><time>2026-04-12T14:44:25.867Z</time></trkpt><trkpt lat="53.62869116693774" lon="14.758118295881294"><ele>24.0</ele><time>2026-04-12T14:44:26.867Z</time></trkpt><trkpt lat="53.62858392527793" lon="14.758175217274452"><ele>24.0</ele><time>2026-04-12T14:44:28.867Z</time></trkpt><trkpt lat="53.62850839882338" lon="14.758220380762735"><ele>23.5</ele><time>2026-04-12T14:44:29.867Z</time></trkpt><trkpt lat="53.62841130764552" lon="14.758255773174907"><ele>23.0</ele><time>2026-04-12T14:44:31.867Z</time></trkpt><trkpt lat="53.62835977725355" lon="14.758193224942977"><ele>22.5</ele><time>2026-04-12T14:57:20.843Z</time></trkpt><trkpt lat="53.62833106022003" lon="14.758296471673209"><ele>22.0</ele><time>2026-04-12T14:59:01.841Z</time></trkpt><trkpt lat="53.62824095462887" lon="14.758334687593644"><ele>21.5</ele><time>2026-04-12T14:59:03.841Z</time></trkpt><trkpt lat="53.628179285337055" lon="14.758374622535293"><ele>21.0</ele><time>2026-04-12T14:59:04.841Z</time></trkpt><trkpt lat="53.62807224211813" lon="14.758422573717425"><ele>21.0</ele><time>2026-04-12T14:59:06.841Z</time></trkpt><trkpt lat="53.62793101693789" lon="14.758524792942563"><ele>21.0</ele><time>2026-04-12T14:59:08.841Z</time></trkpt><trkpt lat="53.627850074349986" lon="14.758569414085315"><ele>21.0</ele><time>2026-04-12T14:59:09.841Z</time></trkpt><trkpt lat="53.6276980982132" lon="14.75861480383244"><ele>21.0</ele><time>2026-04-12T14:59:11.841Z</time></trkpt><trkpt lat="53.62759344226059" lon="14.758657517240335"><ele>20.8</ele><time>2026-04-12T14:59:12.841Z</time></trkpt><trkpt lat="53.62750141417637" lon="14.758682509366519"><ele>20.6</ele><time>2026-04-12T14:59:13.841Z</time></trkpt><trkpt lat="53.62740937833471" lon="14.758724581814418"><ele>20.4</ele><time>2026-04-12T14:59:14.841Z</time></trkpt><trkpt lat="53.62732672213717" lon="14.758765477297581"><ele>20.2</ele><time>2026-04-12T14:59:15.841Z</time></trkpt><trkpt lat="53.62722764552023" lon="14.758806390862162"><ele>20.0</ele><time>2026-04-12T14:59:16.841Z</time></trkpt><trkpt lat="53.62711429115221" lon="14.758872403627917"><ele>20.0</ele><time>2026-04-12T14:59:17.841Z</time></trkpt><trkpt lat="53.62702171674954" lon="14.758922075869279"><ele>20.0</ele><time>2026-04-12T14:59:18.841Z</time></trkpt><trkpt lat="53.62693572569754" lon="14.758947812506793"><ele>20.0</ele><time>2026-04-12T14:59:19.841Z</time></trkpt><trkpt lat="53.62683517903801" lon="14.758978846419383"><ele>20.0</ele><time>2026-04-12T14:59:20.841Z</time></trkpt><trkpt lat="53.62675388674978" lon="14.758998384801208"><ele>20.0</ele><time>2026-04-12T14:59:21.841Z</time></trkpt><trkpt lat="53.626666260141086" lon="14.759050448055552"><ele>19.8</ele><time>2026-04-12T14:59:22.841Z</time></trkpt><trkpt lat="53.62657654704833" lon="14.759110014665064"><ele>19.6</ele><time>2026-04-12T14:59:23.841Z</time></trkpt><trkpt lat="53.62645667237319" lon="14.759188699081696"><ele>19.4</ele><time>2026-04-12T14:59:25.841Z</time></trkpt><trkpt lat="53.62638514754241" lon="14.759209328193066"><ele>19.2</ele><time>2026-04-12T14:59:26.842Z</time></trkpt><trkpt lat="53.626303686635886" lon="14.759341799532388"><ele>19.0</ele><time>2026-04-12T14:59:28.842Z</time></trkpt><trkpt lat="53.62632561117786" lon="14.759499691023882"><ele>19.0</ele><time>2026-04-12T14:59:30.842Z</time></trkpt><trkpt lat="53.62636366391246" lon="14.759642026190853"><ele>19.0</ele><time>2026-04-12T14:59:31.842Z</time></trkpt><trkpt lat="53.62640186317191" lon="14.759828789033628"><ele>19.0</ele><time>2026-04-12T14:59:32.842Z</time></trkpt><trkpt lat="53.626456021129684" lon="14.760052290260678"><ele>19.0</ele><time>2026-04-12T14:59:33.842Z</time></trkpt><trkpt lat="53.62648239561618" lon="14.76032690119723"><ele>19.2</ele><time>2026-04-12T14:59:35.842Z</time></trkpt><trkpt lat="53.62650935639976" lon="14.760491788544696"><ele>19.4</ele><time>2026-04-12T14:59:36.842Z</time></trkpt><trkpt lat="53.62653988753063" lon="14.760635087182857"><ele>19.6</ele><time>2026-04-12T14:59:37.842Z</time></trkpt><trkpt lat="53.62655023541341" lon="14.760778222214038"><ele>19.8</ele><time>2026-04-12T14:59:38.842Z</time></trkpt><trkpt lat="53.62654429277917" lon="14.760962725144713"><ele>20.0</ele><time>2026-04-12T14:59:40.842Z</time></trkpt><trkpt lat="53.62649653578154" lon="14.761037255604158"><ele>20.0</ele><time>2026-04-12T14:59:41.842Z</time></trkpt><trkpt lat="53.62642871202291" lon="14.76107152059871"><ele>20.0</ele><time>2026-04-12T14:59:42.842Z</time></trkpt><trkpt lat="53.626338981113406" lon="14.761109522886354"><ele>20.0</ele><time>2026-04-12T14:59:43.842Z</time></trkpt><trkpt lat="53.62622851809526" lon="14.761145931295554"><ele>20.0</ele><time>2026-04-12T14:59:44.842Z</time></trkpt><trkpt lat="53.626103420941064" lon="14.761224909209904"><ele>20.0</ele><time>2026-04-12T14:59:45.842Z</time></trkpt><trkpt lat="53.625973568970416" lon="14.761286222261722"><ele>19.75</ele><time>2026-04-12T14:59:46.842Z</time></trkpt><trkpt lat="53.625847023239736" lon="14.761334835581982"><ele>19.5</ele><time>2026-04-12T14:59:47.842Z</time></trkpt><trkpt lat="53.62571787300121" lon="14.76140349952328"><ele>19.25</ele><time>2026-04-12T14:59:48.842Z</time></trkpt><trkpt lat="53.62559692111127" lon="14.761460300804288"><ele>19.0</ele><time>2026-04-12T14:59:49.842Z</time></trkpt><trkpt lat="53.62546359940197" lon="14.761515951116658"><ele>19.0</ele><time>2026-04-12T14:59:50.842Z</time></trkpt><trkpt lat="53.62532810660158" lon="14.761586825744034"><ele>19.0</ele><time>2026-04-12T14:59:51.842Z</time></trkpt><trkpt lat="53.625195925250296" lon="14.761648201899849"><ele>19.0</ele><time>2026-04-12T14:59:52.842Z</time></trkpt><trkpt lat="53.62506358696307" lon="14.76171346946619"><ele>19.0</ele><time>2026-04-12T14:59:53.842Z</time></trkpt><trkpt lat="53.62493221292199" lon="14.761782753807623"><ele>19.5</ele><time>2026-04-12T14:59:54.842Z</time></trkpt><trkpt lat="53.62480976297577" lon="14.761833103601331"><ele>20.0</ele><time>2026-04-12T14:59:55.842Z</time></trkpt><trkpt lat="53.62469179054587" lon="14.761877899039353"><ele>20.5</ele><time>2026-04-12T14:59:56.842Z</time></trkpt><trkpt lat="53.62458056239196" lon="14.761945828117177"><ele>21.0</ele><time>2026-04-12T14:59:57.842Z</time></trkpt><trkpt lat="53.62448278366451" lon="14.761983875370177"><ele>21.0</ele><time>2026-04-12T14:59:58.842Z</time></trkpt><trkpt lat="53.624373957878916" lon="14.76203508228308"><ele>21.0</ele><time>2026-04-12T14:59:59.842Z</time></trkpt><trkpt lat="53.62423847348019" lon="14.762082668251871"><ele>21.0</ele><time>2026-04-12T15:00:00.842Z</time></trkpt><trkpt lat="53.62411352599126" lon="14.762160703262953"><ele>21.0</ele><time>2026-04-12T15:00:01.842Z</time></trkpt><trkpt lat="53.62399053800469" lon="14.762236822169305"><ele>21.0</ele><time>2026-04-12T15:00:02.842Z</time></trkpt><trkpt lat="53.62386302475975" lon="14.762282169218931"><ele>21.0</ele><time>2026-04-12T15:00:03.842Z</time></trkpt><trkpt lat="53.623729849289504" lon="14.762354422082206"><ele>21.0</ele><time>2026-04-12T15:00:04.842Z</time></trkpt><trkpt lat="53.62359068556896" lon="14.762414338835516"><ele>21.0</ele><time>2026-04-12T15:00:05.842Z</time></trkpt><trkpt lat="53.62346725522526" lon="14.762467770511385"><ele>21.25</ele><time>2026-04-12T15:00:06.842Z</time></trkpt><trkpt lat="53.62334343787415" lon="14.762517654070884"><ele>21.5</ele><time>2026-04-12T15:00:07.842Z</time></trkpt><trkpt lat="53.62320891076446" lon="14.762572245054566"><ele>21.75</ele><time>2026-04-12T15:00:08.842Z</time></trkpt><trkpt lat="53.623091681585" lon="14.76262394313502"><ele>22.0</ele><time>2026-04-12T15:00:09.842Z</time></trkpt><trkpt lat="53.622967820204416" lon="14.762678749795429"><ele>22.0</ele><time>2026-04-12T15:00:10.842Z</time></trkpt><trkpt lat="53.622843355992046" lon="14.762752247087862"><ele>22.0</ele><time>2026-04-12T15:00:11.842Z</time></trkpt><trkpt lat="53.62272278068678" lon="14.76281403877478"><ele>22.0</ele><time>2026-04-12T15:00:12.842Z</time></trkpt><trkpt lat="53.62260172069977" lon="14.762870563657234"><ele>22.0</ele><time>2026-04-12T15:00:13.842Z</time></trkpt><trkpt lat="53.62247260714339" lon="14.762926487313331"><ele>21.75</ele><time>2026-04-12T15:00:14.842Z</time></trkpt><trkpt lat="53.622351788845286" lon="14.763001066636823"><ele>21.5</ele><time>2026-04-12T15:00:15.842Z</time></trkpt><trkpt lat="53.62222799497005" lon="14.763054610454045"><ele>21.25</ele><time>2026-04-12T15:00:16.842Z</time></trkpt><trkpt lat="53.62211542973939" lon="14.76311027908304"><ele>21.0</ele><time>2026-04-12T15:00:17.842Z</time></trkpt><trkpt lat="53.62199777655669" lon="14.763180589662834"><ele>20.75</ele><time>2026-04-12T15:00:18.842Z</time></trkpt><trkpt lat="53.621873179332944" lon="14.763224055337416"><ele>20.5</ele><time>2026-04-12T15:00:19.842Z</time></trkpt><trkpt lat="53.621744247748545" lon="14.763272048986828"><ele>20.25</ele><time>2026-04-12T15:00:20.842Z</time></trkpt><trkpt lat="53.62162584297148" lon="14.763344796835666"><ele>20.0</ele><time>2026-04-12T15:00:21.842Z</time></trkpt><trkpt lat="53.62149630177349" lon="14.763402351744192"><ele>20.0</ele><time>2026-04-12T15:00:22.842Z</time></trkpt><trkpt lat="53.62135626828351" lon="14.763469755106405"><ele>20.0</ele><time>2026-04-12T15:00:23.842Z</time></trkpt><trkpt lat="53.621219604838565" lon="14.763542857156255"><ele>20.0</ele><time>2026-04-12T15:00:24.842Z</time></trkpt><trkpt lat="53.621087127481786" lon="14.763620725115473"><ele>20.0</ele><time>2026-04-12T15:00:25.842Z</time></trkpt><trkpt lat="53.620943281653965" lon="14.763680704018684"><ele>19.333333333333336</ele><time>2026-04-12T15:00:26.842Z</time></trkpt><trkpt lat="53.62079524118583" lon="14.763739723127221"><ele>18.666666666666668</ele><time>2026-04-12T15:00:27.842Z</time></trkpt><trkpt lat="53.620647686488596" lon="14.763821138612188"><ele>18.0</ele><time>2026-04-12T15:00:28.842Z</time></trkpt><trkpt lat="53.62049244542051" lon="14.7639011419093"><ele>18.0</ele><time>2026-04-12T15:00:29.842Z</time></trkpt><trkpt lat="53.620336534754834" lon="14.763968906447294"><ele>18.0</ele><time>2026-04-12T15:00:30.842Z</time></trkpt><trkpt lat="53.620177558276936" lon="14.76403442980012"><ele>18.0</ele><time>2026-04-12T15:00:31.842Z</time></trkpt><trkpt lat="53.620034752367765" lon="14.764110917989907"><ele>18.75</ele><time>2026-04-12T15:00:32.842Z</time></trkpt><trkpt lat="53.619910605004186" lon="14.764167531031212"><ele>19.5</ele><time>2026-04-12T15:00:33.842Z</time></trkpt><trkpt lat="53.61978171901949" lon="14.764253542506482"><ele>20.25</ele><time>2026-04-12T15:00:34.842Z</time></trkpt><trkpt lat="53.61962093452449" lon="14.76432338035614"><ele>21.0</ele><time>2026-04-12T15:00:35.842Z</time></trkpt><trkpt lat="53.61947503866803" lon="14.76438421131496"><ele>21.25</ele><time>2026-04-12T15:00:36.842Z</time></trkpt><trkpt lat="53.61934722376793" lon="14.764470213332622"><ele>21.5</ele><time>2026-04-12T15:00:37.842Z</time></trkpt><trkpt lat="53.619220199347076" lon="14.76453132804588"><ele>21.75</ele><time>2026-04-12T15:00:38.842Z</time></trkpt><trkpt lat="53.61910750817044" lon="14.764594896054952"><ele>22.0</ele><time>2026-04-12T15:00:39.842Z</time></trkpt><trkpt lat="53.61898655455815" lon="14.764654624906504"><ele>22.0</ele><time>2026-04-12T15:00:40.842Z</time></trkpt><trkpt lat="53.618869899962604" lon="14.76470144283435"><ele>22.0</ele><time>2026-04-12T15:00:41.842Z</time></trkpt><trkpt lat="53.61876169525372" lon="14.76471788185262"><ele>22.0</ele><time>2026-04-12T15:00:42.842Z</time></trkpt><trkpt lat="53.6186688197965" lon="14.764730040382403"><ele>22.0</ele><time>2026-04-12T15:00:43.84Z</time></trkpt><trkpt lat="53.61860552240624" lon="14.764767814060518"><ele>22.0</ele><time>2026-04-12T15:00:44.84Z</time></trkpt><trkpt lat="53.61853869031919" lon="14.76484678639169"><ele>22.25</ele><time>2026-04-12T15:00:45.84Z</time></trkpt><trkpt lat="53.61847462354308" lon="14.764958245039567"><ele>22.5</ele><time>2026-04-12T15:00:46.84Z</time></trkpt><trkpt lat="53.61839462589337" lon="14.765086059094166"><ele>22.75</ele><time>2026-04-12T15:00:47.84Z</time></trkpt><trkpt lat="53.61829036343438" lon="14.76521779665706"><ele>23.0</ele><time>2026-04-12T15:00:48.84Z</time></trkpt><trkpt lat="53.61819850192278" lon="14.765353959654878"><ele>23.5</ele><time>2026-04-12T15:00:49.839Z</time></trkpt><trkpt lat="53.618097642771616" lon="14.76549596154825"><ele>24.0</ele><time>2026-04-12T15:00:50.839Z</time></trkpt><trkpt lat="53.61798330015219" lon="14.765637060930052"><ele>24.5</ele><time>2026-04-12T15:00:51.839Z</time></trkpt><trkpt lat="53.61787882442753" lon="14.76578805354671"><ele>25.0</ele><time>2026-04-12T15:00:52.84Z</time></trkpt><trkpt lat="53.6177896242069" lon="14.765913217380609"><ele>25.25</ele><time>2026-04-12T15:00:53.84Z</time></trkpt><trkpt lat="53.61768606143594" lon="14.766050792493544"><ele>25.5</ele><time>2026-04-12T15:00:54.84Z</time></trkpt><trkpt lat="53.61757089423086" lon="14.76619362316812"><ele>25.75</ele><time>2026-04-12T15:00:55.84Z</time></trkpt><trkpt lat="53.61746133669597" lon="14.766337617162494"><ele>26.0</ele><time>2026-04-12T15:00:56.84Z</time></trkpt><trkpt lat="53.61735290402306" lon="14.76649261648712"><ele>26.0</ele><time>2026-04-12T15:00:57.84Z</time></trkpt><trkpt lat="53.6172468655028" lon="14.766645042444857"><ele>26.0</ele><time>2026-04-12T15:00:58.84Z</time></trkpt><trkpt lat="53.6171494008531" lon="14.766786542576085"><ele>26.0</ele><time>2026-04-12T15:00:59.84Z</time></trkpt><trkpt lat="53.61704985740365" lon="14.766927785943642"><ele>26.0</ele><time>2026-04-12T15:01:00.84Z</time></trkpt><trkpt lat="53.616949398014576" lon="14.76707214597585"><ele>26.25</ele><time>2026-04-12T15:01:01.84Z</time></trkpt><trkpt lat="53.61684263083446" lon="14.767225775936886"><ele>26.5</ele><time>2026-04-12T15:01:02.84Z</time></trkpt><trkpt lat="53.61674618446809" lon="14.767341823708794"><ele>26.75</ele><time>2026-04-12T15:01:03.84Z</time></trkpt><trkpt lat="53.616651157494665" lon="14.767446915391375"><ele>27.0</ele><time>2026-04-12T15:01:04.84Z</time></trkpt><trkpt lat="53.61657164725403" lon="14.767565003687873"><ele>27.0</ele><time>2026-04-12T15:01:05.84Z</time></trkpt><trkpt lat="53.616484365078485" lon="14.767706557261281"><ele>27.0</ele><time>2026-04-12T15:01:06.84Z</time></trkpt><trkpt lat="53.616394414625354" lon="14.76783238009012"><ele>27.0</ele><time>2026-04-12T15:01:07.84Z</time></trkpt><trkpt lat="53.61629693334269" lon="14.76797844604903"><ele>27.0</ele><time>2026-04-12T15:01:08.84Z</time></trkpt><trkpt lat="53.616196785409976" lon="14.768106576412476"><ele>27.0</ele><time>2026-04-12T15:01:09.84Z</time></trkpt><trkpt lat="53.616101345036455" lon="14.768228989128207"><ele>27.0</ele><time>2026-04-12T15:01:10.84Z</time></trkpt><trkpt lat="53.61599984991981" lon="14.768346573315505"><ele>27.0</ele><time>2026-04-12T15:01:11.84Z</time></trkpt><trkpt lat="53.61589207190637" lon="14.768484629493656"><ele>27.0</ele><time>2026-04-12T15:01:12.84Z</time></trkpt><trkpt lat="53.61578217179966" lon="14.768632822478773"><ele>26.75</ele><time>2026-04-12T15:01:13.84Z</time></trkpt><trkpt lat="53.61567924214176" lon="14.768778416510592"><ele>26.5</ele><time>2026-04-12T15:01:14.84Z</time></trkpt><trkpt lat="53.61557931940887" lon="14.768915794432424"><ele>26.25</ele><time>2026-04-12T15:01:15.84Z</time></trkpt><trkpt lat="53.615480864002876" lon="14.769064657183046"><ele>26.0</ele><time>2026-04-12T15:01:16.84Z</time></trkpt><trkpt lat="53.615377035999515" lon="14.769208892027672"><ele>26.25</ele><time>2026-04-12T15:01:17.84Z</time></trkpt><trkpt lat="53.61528134617624" lon="14.769347932715265"><ele>26.5</ele><time>2026-04-12T15:01:18.84Z</time></trkpt><trkpt lat="53.615186490002806" lon="14.769485305275595"><ele>26.75</ele><time>2026-04-12T15:01:19.84Z</time></trkpt><trkpt lat="53.61509118025307" lon="14.769620773887885"><ele>27.0</ele><time>2026-04-12T15:01:20.84Z</time></trkpt><trkpt lat="53.61498886670801" lon="14.769757023369124"><ele>26.5</ele><time>2026-04-12T15:01:21.84Z</time></trkpt><trkpt lat="53.61488685072616" lon="14.769888227137747"><ele>26.0</ele><time>2026-04-12T15:01:22.84Z</time></trkpt><trkpt lat="53.614772214238315" lon="14.770002244885333"><ele>25.5</ele><time>2026-04-12T15:01:23.84Z</time></trkpt><trkpt lat="53.614646768888235" lon="14.77011415534522"><ele>25.0</ele><time>2026-04-12T15:01:24.84Z</time></trkpt><trkpt lat="53.61452291320515" lon="14.770221872254867"><ele>23.75</ele><time>2026-04-12T15:01:25.84Z</time></trkpt><trkpt lat="53.61440020453599" lon="14.770313557261924"><ele>22.5</ele><time>2026-04-12T15:01:26.84Z</time></trkpt><trkpt lat="53.61430042829035" lon="14.770388601636467"><ele>21.25</ele><time>2026-04-12T15:01:27.84Z</time></trkpt><trkpt lat="53.61419535995547" lon="14.770478333439335"><ele>20.0</ele><time>2026-04-12T15:01:28.84Z</time></trkpt><trkpt lat="53.614098227552105" lon="14.770574935566339"><ele>20.0</ele><time>2026-04-12T15:01:29.84Z</time></trkpt><trkpt lat="53.613992532290624" lon="14.770635530127407"><ele>20.0</ele><time>2026-04-12T15:01:30.84Z</time></trkpt><trkpt lat="53.61389778423914" lon="14.770702545296743"><ele>20.0</ele><time>2026-04-12T15:01:31.84Z</time></trkpt><trkpt lat="53.61379913246714" lon="14.770743272139715"><ele>20.0</ele><time>2026-04-12T15:01:32.84Z</time></trkpt><trkpt lat="53.613716784569654" lon="14.770780359884515"><ele>20.0</ele><time>2026-04-12T15:01:33.84Z</time></trkpt><trkpt lat="53.61362330865156" lon="14.770846914193237"><ele>19.75</ele><time>2026-04-12T15:01:34.84Z</time></trkpt><trkpt lat="53.61353305301008" lon="14.77092001748995"><ele>19.5</ele><time>2026-04-12T15:01:35.84Z</time></trkpt><trkpt lat="53.613429429468376" lon="14.770996359591487"><ele>19.25</ele><time>2026-04-12T15:01:36.84Z</time></trkpt><trkpt lat="53.61332468788549" lon="14.771099467834482"><ele>19.0</ele><time>2026-04-12T15:01:37.84Z</time></trkpt><trkpt lat="53.61323605038432" lon="14.771234016287108"><ele>19.0</ele><time>2026-04-12T15:01:38.84Z</time></trkpt><trkpt lat="53.61314254267745" lon="14.771366619354039"><ele>19.0</ele><time>2026-04-12T15:01:39.84Z</time></trkpt><trkpt lat="53.61304953013597" lon="14.771522544969235"><ele>19.0</ele><time>2026-04-12T15:01:40.84Z</time></trkpt><trkpt lat="53.612961154336354" lon="14.771712370538461"><ele>19.0</ele><time>2026-04-12T15:01:41.84Z</time></trkpt><trkpt lat="53.612889739704435" lon="14.771912320653492"><ele>19.0</ele><time>2026-04-12T15:01:42.84Z</time></trkpt><trkpt lat="53.61283255398516" lon="14.772117635465106"><ele>19.0</ele><time>2026-04-12T15:01:43.84Z</time></trkpt><trkpt lat="53.61277943209484" lon="14.772330541534496"><ele>19.0</ele><time>2026-04-12T15:01:44.84Z</time></trkpt><trkpt lat="53.61273799760012" lon="14.77251362937494"><ele>19.0</ele><time>2026-04-12T15:01:45.84Z</time></trkpt><trkpt lat="53.61267595633471" lon="14.77272455146854"><ele>19.5</ele><time>2026-04-12T15:01:46.84Z</time></trkpt><trkpt lat="53.612598682845984" lon="14.772924562746656"><ele>20.0</ele><time>2026-04-12T15:01:47.84Z</time></trkpt><trkpt lat="53.6125443306524" lon="14.773125885375762"><ele>20.5</ele><time>2026-04-12T15:01:48.84Z</time></trkpt><trkpt lat="53.61249460918318" lon="14.773300803797182"><ele>21.0</ele><time>2026-04-12T15:01:49.84Z</time></trkpt><trkpt lat="53.61243612297428" lon="14.773487401987209"><ele>20.75</ele><time>2026-04-12T15:01:50.84Z</time></trkpt><trkpt lat="53.61235965317939" lon="14.77369866017722"><ele>20.5</ele><time>2026-04-12T15:01:51.84Z</time></trkpt><trkpt lat="53.61229765226348" lon="14.773889477002458"><ele>20.25</ele><time>2026-04-12T15:01:52.84Z</time></trkpt><trkpt lat="53.61224176151792" lon="14.774095497512523"><ele>20.0</ele><time>2026-04-12T15:01:53.84Z</time></trkpt><trkpt lat="53.612193936847945" lon="14.774301476762412"><ele>20.25</ele><time>2026-04-12T15:01:54.84Z</time></trkpt><trkpt lat="53.61214449669694" lon="14.774511762617847"><ele>20.5</ele><time>2026-04-12T15:01:55.84Z</time></trkpt><trkpt lat="53.612093341030175" lon="14.774745763932904"><ele>20.75</ele><time>2026-04-12T15:01:56.84Z</time></trkpt><trkpt lat="53.61204491118469" lon="14.774942175181058"><ele>21.0</ele><time>2026-04-12T15:01:57.84Z</time></trkpt><trkpt lat="53.611986999291375" lon="14.775128776028101"><ele>22.0</ele><time>2026-04-12T15:01:58.84Z</time></trkpt><trkpt lat="53.61193114474202" lon="14.775313624114343"><ele>23.0</ele><time>2026-04-12T15:01:59.84Z</time></trkpt><trkpt lat="53.6118702267034" lon="14.775514847584516"><ele>24.0</ele><time>2026-04-12T15:02:00.84Z</time></trkpt><trkpt lat="53.611824586687916" lon="14.775706330324981"><ele>25.0</ele><time>2026-04-12T15:02:01.84Z</time></trkpt><trkpt lat="53.61177546054332" lon="14.775901790926456"><ele>25.25</ele><time>2026-04-12T15:02:02.84Z</time></trkpt><trkpt lat="53.611732202564255" lon="14.776105253919125"><ele>25.5</ele><time>2026-04-12T15:02:03.84Z</time></trkpt><trkpt lat="53.61168541205938" lon="14.776309941284644"><ele>25.75</ele><time>2026-04-12T15:02:04.84Z</time></trkpt><trkpt lat="53.611635706100536" lon="14.776523770907021"><ele>26.0</ele><time>2026-04-12T15:02:05.84Z</time></trkpt><trkpt lat="53.61157605169445" lon="14.776733234313895"><ele>26.25</ele><time>2026-04-12T15:02:06.84Z</time></trkpt><trkpt lat="53.61150213007016" lon="14.776963822505477"><ele>26.5</ele><time>2026-04-12T15:02:07.84Z</time></trkpt><trkpt lat="53.61143526439005" lon="14.7771807260686"><ele>26.75</ele><time>2026-04-12T15:02:08.84Z</time></trkpt><trkpt lat="53.61137330572179" lon="14.777396916449579"><ele>27.0</ele><time>2026-04-12T15:02:09.84Z</time></trkpt><trkpt lat="53.61125130765992" lon="14.777567598585625"><ele>27.0</ele><time>2026-04-12T15:02:10.84Z</time></trkpt><trkpt lat="53.6111792575653" lon="14.77779203302533"><ele>27.0</ele><time>2026-04-12T15:02:11.84Z</time></trkpt><trkpt lat="53.611114902317986" lon="14.77798913961407"><ele>27.0</ele><time>2026-04-12T15:02:12.84Z</time></trkpt><trkpt lat="53.61104232477441" lon="14.778211194744484"><ele>27.0</ele><time>2026-04-12T15:02:13.84Z</time></trkpt><trkpt lat="53.610967246330695" lon="14.778439520682628"><ele>27.0</ele><time>2026-04-12T15:02:14.84Z</time></trkpt><trkpt lat="53.61089733006595" lon="14.778651043870878"><ele>27.0</ele><time>2026-04-12T15:02:15.84Z</time></trkpt><trkpt lat="53.61082955430116" lon="14.778856091230594"><ele>27.0</ele><time>2026-04-12T15:02:16.84Z</time></trkpt><trkpt lat="53.610758590697564" lon="14.779070763884878"><ele>27.0</ele><time>2026-04-12T15:02:17.84Z</time></trkpt><trkpt lat="53.61069114395576" lon="14.779274551515307"><ele>26.666666666666664</ele><time>2026-04-12T15:02:18.84Z</time></trkpt><trkpt lat="53.610612533512004" lon="14.77950965354854"><ele>26.333333333333332</ele><time>2026-04-12T15:02:19.84Z</time></trkpt><trkpt lat="53.61053107817736" lon="14.779737955984727"><ele>26.0</ele><time>2026-04-12T15:02:20.84Z</time></trkpt><trkpt lat="53.61043673523161" lon="14.779953504471438"><ele>26.0</ele><time>2026-04-12T15:02:21.84Z</time></trkpt><trkpt lat="53.610369057807894" lon="14.780171022991293"><ele>26.0</ele><time>2026-04-12T15:02:22.84Z</time></trkpt><trkpt lat="53.61030364837279" lon="14.780402299001848"><ele>26.0</ele><time>2026-04-12T15:02:23.84Z</time></trkpt><trkpt lat="53.61024650536916" lon="14.78061424607033"><ele>26.0</ele><time>2026-04-12T15:02:24.84Z</time></trkpt><trkpt lat="53.61019322476819" lon="14.780812639242006"><ele>25.25</ele><time>2026-04-12T15:02:25.84Z</time></trkpt><trkpt lat="53.61014868454322" lon="14.781006846882246"><ele>24.5</ele><time>2026-04-12T15:02:26.84Z</time></trkpt><trkpt lat="53.61009325378932" lon="14.781224567933783"><ele>23.75</ele><time>2026-04-12T15:02:27.84Z</time></trkpt><trkpt lat="53.61003913691365" lon="14.781454297037289"><ele>23.0</ele><time>2026-04-12T15:02:28.84Z</time></trkpt><trkpt lat="53.60999205949435" lon="14.781680298108316"><ele>20.333333333333336</ele><time>2026-04-12T15:02:29.84Z</time></trkpt><trkpt lat="53.60994144665301" lon="14.781901868529742"><ele>17.666666666666668</ele><time>2026-04-12T15:02:30.84Z</time></trkpt><trkpt lat="53.60987929437911" lon="14.782143233246531"><ele>15.0</ele><time>2026-04-12T15:02:31.84Z</time></trkpt><trkpt lat="53.609831544279835" lon="14.78239991345404"><ele>15.0</ele><time>2026-04-12T15:02:32.84Z</time></trkpt><trkpt lat="53.609782357047735" lon="14.782637095944025"><ele>15.0</ele><time>2026-04-12T15:02:33.84Z</time></trkpt><trkpt lat="53.60972201700969" lon="14.782853848626434"><ele>15.0</ele><time>2026-04-12T15:02:34.84Z</time></trkpt><trkpt lat="53.60967423047351" lon="14.783107808568888"><ele>15.0</ele><time>2026-04-12T15:02:35.84Z</time></trkpt><trkpt lat="53.609627653771675" lon="14.783353316165062"><ele>14.75</ele><time>2026-04-12T15:02:36.84Z</time></trkpt><trkpt lat="53.609585251357345" lon="14.783570567297877"><ele>14.5</ele><time>2026-04-12T15:02:37.84Z</time></trkpt><trkpt lat="53.60954223595808" lon="14.783775105507129"><ele>14.25</ele><time>2026-04-12T15:02:38.84Z</time></trkpt><trkpt lat="53.60949342891091" lon="14.783983483546368"><ele>14.0</ele><time>2026-04-12T15:02:39.84Z</time></trkpt><trkpt lat="53.609431610547674" lon="14.784205972143594"><ele>15.5</ele><time>2026-04-12T15:02:40.84Z</time></trkpt><trkpt lat="53.60936564275517" lon="14.784411423879593"><ele>17.0</ele><time>2026-04-12T15:02:41.84Z</time></trkpt><trkpt lat="53.60928788604544" lon="14.784621739635126"><ele>18.5</ele><time>2026-04-12T15:02:42.84Z</time></trkpt><trkpt lat="53.60920933235601" lon="14.784822140661559"><ele>20.0</ele><time>2026-04-12T15:02:43.84Z</time></trkpt><trkpt lat="53.60913589459076" lon="14.785005481901496"><ele>21.0</ele><time>2026-04-12T15:02:44.84Z</time></trkpt><trkpt lat="53.60906800200833" lon="14.785192499179422"><ele>22.0</ele><time>2026-04-12T15:02:45.84Z</time></trkpt><trkpt lat="53.60901457430489" lon="14.785408108547173"><ele>23.0</ele><time>2026-04-12T15:02:46.84Z</time></trkpt><trkpt lat="53.608929594143554" lon="14.78555825077578"><ele>24.0</ele><time>2026-04-12T15:02:47.84Z</time></trkpt><trkpt lat="53.60885091532178" lon="14.785684215899819"><ele>24.0</ele><time>2026-04-12T15:02:48.84Z</time></trkpt><trkpt lat="53.608767995871496" lon="14.785802562400805"><ele>24.0</ele><time>2026-04-12T15:02:49.839Z</time></trkpt><trkpt lat="53.60868774418452" lon="14.78591012453909"><ele>24.0</ele><time>2026-04-12T15:02:50.839Z</time></trkpt><trkpt lat="53.60860803390263" lon="14.78601213099886"><ele>24.0</ele><time>2026-04-12T15:02:51.839Z</time></trkpt><trkpt lat="53.608503795733434" lon="14.786141604884225"><ele>24.0</ele><time>2026-04-12T15:02:52.839Z</time></trkpt><trkpt lat="53.60840578384698" lon="14.786261845081716"><ele>23.75</ele><time>2026-04-12T15:02:53.838Z</time></trkpt><trkpt lat="53.60831392658152" lon="14.786414567358376"><ele>23.5</ele><time>2026-04-12T15:02:54.838Z</time></trkpt><trkpt lat="53.608214945658325" lon="14.786556936537885"><ele>23.25</ele><time>2026-04-12T15:02:55.839Z</time></trkpt><trkpt lat="53.60811615348236" lon="14.786687628588608"><ele>23.0</ele><time>2026-04-12T15:02:56.838Z</time></trkpt><trkpt lat="53.60803646559269" lon="14.786800013324077"><ele>22.5</ele><time>2026-04-12T15:02:57.838Z</time></trkpt><trkpt lat="53.607923234392146" lon="14.786893436033283"><ele>22.0</ele><time>2026-04-12T15:02:58.838Z</time></trkpt><trkpt lat="53.607810199666986" lon="14.786997786083433"><ele>21.5</ele><time>2026-04-12T15:02:59.838Z</time></trkpt><trkpt lat="53.6076864791555" lon="14.787131218980676"><ele>21.0</ele><time>2026-04-12T15:03:00.838Z</time></trkpt><trkpt lat="53.607585075427494" lon="14.787252296060707"><ele>20.0</ele><time>2026-04-12T15:03:01.838Z</time></trkpt><trkpt lat="53.60747289665646" lon="14.787389399883663"><ele>19.0</ele><time>2026-04-12T15:03:02.838Z</time></trkpt><trkpt lat="53.60734766844447" lon="14.787529244097637"><ele>18.0</ele><time>2026-04-12T15:03:03.838Z</time></trkpt><trkpt lat="53.60722881044795" lon="14.787671648191285"><ele>17.0</ele><time>2026-04-12T15:03:04.838Z</time></trkpt><trkpt lat="53.607117880098755" lon="14.787823474596834"><ele>16.75</ele><time>2026-04-12T15:03:05.838Z</time></trkpt><trkpt lat="53.60700758788896" lon="14.787961753763684"><ele>16.5</ele><time>2026-04-12T15:03:06.838Z</time></trkpt><trkpt lat="53.60689063397329" lon="14.788111523592063"><ele>16.25</ele><time>2026-04-12T15:03:07.838Z</time></trkpt><trkpt lat="53.60678994748077" lon="14.788246015996274"><ele>16.0</ele><time>2026-04-12T15:03:08.838Z</time></trkpt><trkpt lat="53.60669069298106" lon="14.788380154368221"><ele>15.75</ele><time>2026-04-12T15:03:09.838Z</time></trkpt><trkpt lat="53.60658180195066" lon="14.788502717086187"><ele>15.5</ele><time>2026-04-12T15:03:10.838Z</time></trkpt><trkpt lat="53.60646663319222" lon="14.788641455327598"><ele>15.25</ele><time>2026-04-12T15:03:11.838Z</time></trkpt><trkpt lat="53.60636429234767" lon="14.788772881080922"><ele>15.0</ele><time>2026-04-12T15:03:12.838Z</time></trkpt><trkpt lat="53.60625140696427" lon="14.78889802071333"><ele>15.0</ele><time>2026-04-12T15:03:13.838Z</time></trkpt><trkpt lat="53.606149283284495" lon="14.789014114068342"><ele>15.0</ele><time>2026-04-12T15:03:14.838Z</time></trkpt><trkpt lat="53.60604824858887" lon="14.789112509056027"><ele>15.0</ele><time>2026-04-12T15:03:15.838Z</time></trkpt><trkpt lat="53.60593454240227" lon="14.789209321302167"><ele>15.0</ele><time>2026-04-12T15:03:16.838Z</time></trkpt><trkpt lat="53.60581325493122" lon="14.789313111909832"><ele>15.0</ele><time>2026-04-12T15:03:17.838Z</time></trkpt><trkpt lat="53.605687379867334" lon="14.789423259133306"><ele>15.0</ele><time>2026-04-12T15:03:18.838Z</time></trkpt><trkpt lat="53.605577060483746" lon="14.789540657037895"><ele>15.0</ele><time>2026-04-12T15:03:19.838Z</time></trkpt><trkpt lat="53.60546388823072" lon="14.789663709930208"><ele>15.0</ele><time>2026-04-12T15:03:20.838Z</time></trkpt><trkpt lat="53.60536018766376" lon="14.789783317602884"><ele>14.8</ele><time>2026-04-12T15:03:21.838Z</time></trkpt><trkpt lat="53.60526361129953" lon="14.789894028938017"><ele>14.6</ele><time>2026-04-12T15:03:22.838Z</time></trkpt><trkpt lat="53.60518849938141" lon="14.78999323307737"><ele>14.399999999999999</ele><time>2026-04-12T15:03:23.838Z</time></trkpt><trkpt lat="53.60510301105531" lon="14.790095475984629"><ele>14.2</ele><time>2026-04-12T15:03:24.838Z</time></trkpt><trkpt lat="53.60499780674279" lon="14.790180046717003"><ele>14.0</ele><time>2026-04-12T15:03:25.838Z</time></trkpt><trkpt lat="53.604888535148355" lon="14.790282378611252"><ele>13.75</ele><time>2026-04-12T15:03:26.838Z</time></trkpt><trkpt lat="53.604776553375274" lon="14.790392169023422"><ele>13.5</ele><time>2026-04-12T15:03:27.838Z</time></trkpt><trkpt lat="53.60463938626795" lon="14.790493392252362"><ele>13.25</ele><time>2026-04-12T15:03:28.838Z</time></trkpt><trkpt lat="53.60451467848826" lon="14.790588794279083"><ele>13.0</ele><time>2026-04-12T15:03:29.838Z</time></trkpt><trkpt lat="53.60438710673179" lon="14.790689415593043"><ele>13.0</ele><time>2026-04-12T15:03:30.838Z</time></trkpt><trkpt lat="53.604273757474736" lon="14.790776483147882"><ele>13.0</ele><time>2026-04-12T15:03:31.838Z</time></trkpt><trkpt lat="53.604160640533514" lon="14.790889822877986"><ele>13.0</ele><time>2026-04-12T15:03:32.838Z</time></trkpt><trkpt lat="53.60404849950131" lon="14.791030781326635"><ele>13.0</ele><time>2026-04-12T15:03:33.838Z</time></trkpt><trkpt lat="53.60392855280891" lon="14.79114174023196"><ele>13.0</ele><time>2026-04-12T15:03:34.838Z</time></trkpt><trkpt lat="53.603806602742964" lon="14.791258969186869"><ele>13.0</ele><time>2026-04-12T15:03:35.838Z</time></trkpt><trkpt lat="53.60369534181537" lon="14.791376229804452"><ele>13.0</ele><time>2026-04-12T15:03:36.838Z</time></trkpt><trkpt lat="53.6036011426218" lon="14.791491803905501"><ele>13.0</ele><time>2026-04-12T15:03:37.838Z</time></trkpt><trkpt lat="53.60350919004457" lon="14.791634716334373"><ele>13.499999999999998</ele><time>2026-04-12T15:03:38.838Z</time></trkpt><trkpt lat="53.603419821671466" lon="14.791744324403098"><ele>14.0</ele><time>2026-04-12T15:03:39.838Z</time></trkpt><trkpt lat="53.603341909022824" lon="14.791817005927637"><ele>14.5</ele><time>2026-04-12T15:03:40.838Z</time></trkpt><trkpt lat="53.60328905404457" lon="14.791887790218892"><ele>15.0</ele><time>2026-04-12T15:03:41.838Z</time></trkpt><trkpt lat="53.603227745815964" lon="14.791963454528025"><ele>15.499999999999998</ele><time>2026-04-12T15:03:42.838Z</time></trkpt><trkpt lat="53.603164312927895" lon="14.792060536837818"><ele>16.0</ele><time>2026-04-12T15:03:43.838Z</time></trkpt><trkpt lat="53.60308804662776" lon="14.792156788072475"><ele>16.75</ele><time>2026-04-12T15:03:44.838Z</time></trkpt><trkpt lat="53.602990270124664" lon="14.792264002379772"><ele>17.5</ele><time>2026-04-12T15:03:45.838Z</time></trkpt><trkpt lat="53.60289554409128" lon="14.79238390890372"><ele>18.25</ele><time>2026-04-12T15:03:46.838Z</time></trkpt><trkpt lat="53.602776676704096" lon="14.792528592691474"><ele>19.0</ele><time>2026-04-12T15:03:47.838Z</time></trkpt><trkpt lat="53.60267372144831" lon="14.792634791212473"><ele>21.5</ele><time>2026-04-12T15:03:48.838Z</time></trkpt><trkpt lat="53.60257172553194" lon="14.792750374142722"><ele>24.0</ele><time>2026-04-12T15:03:49.838Z</time></trkpt><trkpt lat="53.60245657796503" lon="14.792868729410795"><ele>26.5</ele><time>2026-04-12T15:03:50.838Z</time></trkpt><trkpt lat="53.60233868462427" lon="14.792993069055166"><ele>29.0</ele><time>2026-04-12T15:03:51.838Z</time></trkpt><trkpt lat="53.602212429159835" lon="14.79312220110542"><ele>29.0</ele><time>2026-04-12T15:03:52.838Z</time></trkpt><trkpt lat="53.602087286618094" lon="14.7932807634274"><ele>29.0</ele><time>2026-04-12T15:03:53.838Z</time></trkpt><trkpt lat="53.60196199562361" lon="14.793443283607758"><ele>29.0</ele><time>2026-04-12T15:03:54.838Z</time></trkpt><trkpt lat="53.601838362113114" lon="14.793594831638975"><ele>29.666666666666664</ele><time>2026-04-12T15:03:55.838Z</time></trkpt><trkpt lat="53.601703050808936" lon="14.793748391354983"><ele>30.333333333333336</ele><time>2026-04-12T15:03:56.838Z</time></trkpt><trkpt lat="53.601574235416884" lon="14.793903418773686"><ele>31.0</ele><time>2026-04-12T15:03:57.838Z</time></trkpt><trkpt lat="53.601448669268805" lon="14.79407106028905"><ele>31.0</ele><time>2026-04-12T15:03:58.838Z</time></trkpt><trkpt lat="53.601326268973175" lon="14.794234367759962"><ele>31.0</ele><time>2026-04-12T15:03:59.838Z</time></trkpt><trkpt lat="53.601197583866885" lon="14.794394050842971"><ele>31.0</ele><time>2026-04-12T15:04:00.838Z</time></trkpt><trkpt lat="53.60108912593896" lon="14.794565641028782"><ele>31.0</ele><time>2026-04-12T15:04:01.838Z</time></trkpt><trkpt lat="53.60097861140259" lon="14.794712872897554"><ele>31.0</ele><time>2026-04-12T15:04:02.838Z</time></trkpt><trkpt lat="53.60086421873158" lon="14.794861213417397"><ele>31.0</ele><time>2026-04-12T15:04:03.838Z</time></trkpt><trkpt lat="53.600754331881944" lon="14.795039618803319"><ele>31.0</ele><time>2026-04-12T15:04:04.838Z</time></trkpt><trkpt lat="53.600650413442104" lon="14.795175701207095"><ele>31.0</ele><time>2026-04-12T15:04:05.838Z</time></trkpt><trkpt lat="53.60054800132862" lon="14.795318842171271"><ele>31.0</ele><time>2026-04-12T15:04:06.838Z</time></trkpt><trkpt lat="53.60045166438411" lon="14.795462262333018"><ele>31.0</ele><time>2026-04-12T15:04:07.838Z</time></trkpt><trkpt lat="53.60035012148153" lon="14.795627399729028"><ele>31.0</ele><time>2026-04-12T15:04:08.838Z</time></trkpt><trkpt lat="53.60025528984392" lon="14.795793105207462"><ele>30.75</ele><time>2026-04-12T15:04:09.838Z</time></trkpt><trkpt lat="53.60014834297734" lon="14.795942106483402"><ele>30.5</ele><time>2026-04-12T15:04:10.838Z</time></trkpt><trkpt lat="53.60004024416627" lon="14.796093028448679"><ele>30.25</ele><time>2026-04-12T15:04:11.838Z</time></trkpt><trkpt lat="53.59993290373262" lon="14.796231200807593"><ele>30.0</ele><time>2026-04-12T15:04:12.838Z</time></trkpt><trkpt lat="53.599814838708056" lon="14.79637983708969"><ele>30.25</ele><time>2026-04-12T15:04:13.838Z</time></trkpt><trkpt lat="53.59970850525674" lon="14.796512916474692"><ele>30.5</ele><time>2026-04-12T15:04:14.838Z</time></trkpt><trkpt lat="53.59958543696354" lon="14.796661813764363"><ele>30.75</ele><time>2026-04-12T15:04:15.838Z</time></trkpt><trkpt lat="53.599475277633076" lon="14.796827829044423"><ele>31.0</ele><time>2026-04-12T15:04:16.838Z</time></trkpt><trkpt lat="53.59936655118313" lon="14.796992678756132"><ele>31.25</ele><time>2026-04-12T15:04:17.838Z</time></trkpt><trkpt lat="53.599253200483005" lon="14.797141953747053"><ele>31.5</ele><time>2026-04-12T15:04:18.838Z</time></trkpt><trkpt lat="53.599147427082194" lon="14.797308053318481"><ele>31.75</ele><time>2026-04-12T15:04:19.838Z</time></trkpt><trkpt lat="53.59903402692722" lon="14.79747155377618"><ele>32.0</ele><time>2026-04-12T15:04:20.838Z</time></trkpt><trkpt lat="53.59893122582075" lon="14.797611792870892"><ele>31.666666666666664</ele><time>2026-04-12T15:04:21.838Z</time></trkpt><trkpt lat="53.59881564548569" lon="14.797764119232767"><ele>31.333333333333336</ele><time>2026-04-12T15:04:22.838Z</time></trkpt><trkpt lat="53.59867980131804" lon="14.797913615361605"><ele>31.0</ele><time>2026-04-12T15:04:23.838Z</time></trkpt><trkpt lat="53.59855656568134" lon="14.798055509172775"><ele>31.0</ele><time>2026-04-12T15:04:24.838Z</time></trkpt><trkpt lat="53.59842832543664" lon="14.79820324075386"><ele>31.0</ele><time>2026-04-12T15:04:25.838Z</time></trkpt><trkpt lat="53.59831549841104" lon="14.798338567655373"><ele>31.0</ele><time>2026-04-12T15:04:26.838Z</time></trkpt><trkpt lat="53.59817761767911" lon="14.79845527068664"><ele>31.0</ele><time>2026-04-12T15:04:27.838Z</time></trkpt><trkpt lat="53.59806081409834" lon="14.798572145758836"><ele>31.75</ele><time>2026-04-12T15:04:28.838Z</time></trkpt><trkpt lat="53.59794456658434" lon="14.79868194623986"><ele>32.5</ele><time>2026-04-12T15:04:29.838Z</time></trkpt><trkpt lat="53.59783987339451" lon="14.798778994953718"><ele>33.25</ele><time>2026-04-12T15:04:30.838Z</time></trkpt><trkpt lat="53.59773112193038" lon="14.798883825513569"><ele>34.0</ele><time>2026-04-12T15:04:31.838Z</time></trkpt><trkpt lat="53.59762586685935" lon="14.799007713025658"><ele>33.8</ele><time>2026-04-12T15:04:32.838Z</time></trkpt><trkpt lat="53.59753567647665" lon="14.79913127720126"><ele>33.599999999999994</ele><time>2026-04-12T15:04:33.838Z</time></trkpt><trkpt lat="53.59745809706521" lon="14.799255310896687"><ele>33.4</ele><time>2026-04-12T15:04:34.838Z</time></trkpt><trkpt lat="53.59738192616278" lon="14.799382827596979"><ele>33.199999999999996</ele><time>2026-04-12T15:04:35.838Z</time></trkpt><trkpt lat="53.597299959638285" lon="14.799523570605375"><ele>33.0</ele><time>2026-04-12T15:04:36.838Z</time></trkpt><trkpt lat="53.597220791709965" lon="14.799663458867782"><ele>33.0</ele><time>2026-04-12T15:04:37.838Z</time></trkpt><trkpt lat="53.59714521009821" lon="14.799787815317734"><ele>33.0</ele><time>2026-04-12T15:04:38.838Z</time></trkpt><trkpt lat="53.597060877125955" lon="14.799931165118018"><ele>33.0</ele><time>2026-04-12T15:04:39.838Z</time></trkpt><trkpt lat="53.596990957355096" lon="14.80004487337051"><ele>33.0</ele><time>2026-04-12T15:04:40.838Z</time></trkpt><trkpt lat="53.59692734486175" lon="14.80017817281394"><ele>33.0</ele><time>2026-04-12T15:04:41.838Z</time></trkpt><trkpt lat="53.596853816203" lon="14.800317328558126"><ele>32.0</ele><time>2026-04-12T15:04:42.838Z</time></trkpt><trkpt lat="53.59678043277528" lon="14.800459562592435"><ele>31.0</ele><time>2026-04-12T15:04:43.838Z</time></trkpt><trkpt lat="53.59670141918788" lon="14.800599020645858"><ele>30.0</ele><time>2026-04-12T15:04:44.838Z</time></trkpt><trkpt lat="53.59662198460202" lon="14.800741566116097"><ele>29.0</ele><time>2026-04-12T15:04:45.838Z</time></trkpt><trkpt lat="53.5965426546767" lon="14.800910144656308"><ele>29.799999999999997</ele><time>2026-04-12T15:04:46.838Z</time></trkpt><trkpt lat="53.596463060620486" lon="14.801074129004036"><ele>30.599999999999998</ele><time>2026-04-12T15:04:47.838Z</time></trkpt><trkpt lat="53.5963934005732" lon="14.80123311033781"><ele>31.4</ele><time>2026-04-12T15:04:48.838Z</time></trkpt><trkpt lat="53.59632672745643" lon="14.801374226030504"><ele>32.199999999999996</ele><time>2026-04-12T15:04:49.838Z</time></trkpt><trkpt lat="53.59627713584661" lon="14.801503261879253"><ele>33.0</ele><time>2026-04-12T15:04:50.838Z</time></trkpt><trkpt lat="53.59620688324474" lon="14.801656229277851"><ele>31.799999999999997</ele><time>2026-04-12T15:04:51.838Z</time></trkpt><trkpt lat="53.59613891225375" lon="14.801799468348738"><ele>30.599999999999998</ele><time>2026-04-12T15:04:52.838Z</time></trkpt><trkpt lat="53.59609040525932" lon="14.801931214233173"><ele>29.400000000000002</ele><time>2026-04-12T15:04:53.838Z</time></trkpt><trkpt lat="53.59604532786276" lon="14.802043577208295"><ele>28.200000000000003</ele><time>2026-04-12T15:04:54.838Z</time></trkpt><trkpt lat="53.59600609294961" lon="14.802156197950739"><ele>27.0</ele><time>2026-04-12T15:04:55.838Z</time></trkpt><trkpt lat="53.59596179674107" lon="14.80230323458989"><ele>27.0</ele><time>2026-04-12T15:04:56.837Z</time></trkpt><trkpt lat="53.59591283960242" lon="14.802465046039137"><ele>27.000000000000004</ele><time>2026-04-12T15:04:57.837Z</time></trkpt><trkpt lat="53.59587792363915" lon="14.80260161700785"><ele>27.000000000000004</ele><time>2026-04-12T15:04:58.837Z</time></trkpt><trkpt lat="53.59583810085909" lon="14.802725014131909"><ele>27.0</ele><time>2026-04-12T15:04:59.838Z</time></trkpt><trkpt lat="53.59577386288271" lon="14.802891559425971"><ele>27.0</ele><time>2026-04-12T15:05:01.837Z</time></trkpt><trkpt lat="53.595721448994006" lon="14.802992972518256"><ele>27.0</ele><time>2026-04-12T15:05:03.837Z</time></trkpt><trkpt lat="53.59565712631745" lon="14.802984812488269"><ele>27.0</ele><time>2026-04-12T15:05:25.837Z</time></trkpt><trkpt lat="53.59556925206947" lon="14.803041782377532"><ele>27.0</ele><time>2026-04-12T15:05:27.837Z</time></trkpt><trkpt lat="53.59549061024448" lon="14.803108386934493"><ele>27.0</ele><time>2026-04-12T15:05:28.837Z</time></trkpt><trkpt lat="53.59542517430137" lon="14.80317597174831"><ele>27.0</ele><time>2026-04-12T15:05:29.837Z</time></trkpt><trkpt lat="53.59535491967335" lon="14.80323907732839"><ele>27.0</ele><time>2026-04-12T15:05:30.837Z</time></trkpt><trkpt lat="53.59528482663441" lon="14.80328669108482"><ele>26.833333333333332</ele><time>2026-04-12T15:05:31.837Z</time></trkpt><trkpt lat="53.59520510780128" lon="14.80333889179771"><ele>26.666666666666664</ele><time>2026-04-12T15:05:32.837Z</time></trkpt><trkpt lat="53.59513028696143" lon="14.803396747128005"><ele>26.5</ele><time>2026-04-12T15:05:33.837Z</time></trkpt><trkpt lat="53.5950504585953" lon="14.80344537113964"><ele>26.333333333333332</ele><time>2026-04-12T15:05:34.837Z</time></trkpt><trkpt lat="53.59496869840965" lon="14.80348785688482"><ele>26.166666666666664</ele><time>2026-04-12T15:05:35.837Z</time></trkpt><trkpt lat="53.59490021226526" lon="14.803533512920234"><ele>26.0</ele><time>2026-04-12T15:05:36.837Z</time></trkpt><trkpt lat="53.59481846223061" lon="14.803565200410976"><ele>25.8</ele><time>2026-04-12T15:05:37.837Z</time></trkpt><trkpt lat="53.594723594019" lon="14.80360467640288"><ele>25.6</ele><time>2026-04-12T15:05:38.837Z</time></trkpt><trkpt lat="53.59463146351391" lon="14.803649719042706"><ele>25.4</ele><time>2026-04-12T15:05:39.837Z</time></trkpt><trkpt lat="53.59454070082077" lon="14.803700916765159"><ele>25.2</ele><time>2026-04-12T15:05:40.837Z</time></trkpt><trkpt lat="53.59444331280153" lon="14.803753026966655"><ele>25.0</ele><time>2026-04-12T15:05:41.837Z</time></trkpt><trkpt lat="53.59434870056589" lon="14.803804028028841"><ele>24.8</ele><time>2026-04-12T15:05:42.837Z</time></trkpt><trkpt lat="53.594253197705456" lon="14.803853873454917"><ele>24.6</ele><time>2026-04-12T15:05:43.837Z</time></trkpt><trkpt lat="53.59414713681732" lon="14.803903342820048"><ele>24.4</ele><time>2026-04-12T15:05:44.837Z</time></trkpt><trkpt lat="53.59404811374867" lon="14.80395193845979"><ele>24.2</ele><time>2026-04-12T15:05:45.837Z</time></trkpt><trkpt lat="53.59396487465956" lon="14.804010038586062"><ele>24.0</ele><time>2026-04-12T15:05:46.837Z</time></trkpt><trkpt lat="53.59387487222871" lon="14.80405545258176"><ele>24.0</ele><time>2026-04-12T15:05:47.837Z</time></trkpt><trkpt lat="53.59379717680455" lon="14.804096911751948"><ele>24.0</ele><time>2026-04-12T15:05:48.837Z</time></trkpt><trkpt lat="53.59372942923993" lon="14.804131080941673"><ele>24.0</ele><time>2026-04-12T15:05:49.837Z</time></trkpt><trkpt lat="53.59365999268186" lon="14.804179225025337"><ele>24.0</ele><time>2026-04-12T15:05:51.837Z</time></trkpt><trkpt lat="53.593562977388856" lon="14.804146968856985"><ele>24.0</ele><time>2026-04-12T15:05:59.837Z</time></trkpt><trkpt lat="53.59348061289915" lon="14.804007368670606"><ele>24.0</ele><time>2026-04-12T15:06:01.837Z</time></trkpt><trkpt lat="53.5934141325417" lon="14.803951459235972"><ele>23.6</ele><time>2026-04-12T15:06:02.837Z</time></trkpt><trkpt lat="53.593336758402685" lon="14.803903951138548"><ele>23.2</ele><time>2026-04-12T15:06:03.837Z</time></trkpt><trkpt lat="53.59326251453362" lon="14.803869984471037"><ele>22.8</ele><time>2026-04-12T15:06:04.837Z</time></trkpt><trkpt lat="53.593149659353486" lon="14.803819619356704"><ele>22.400000000000002</ele><time>2026-04-12T15:06:06.837Z</time></trkpt><trkpt lat="53.59302167100068" lon="14.803776382852558"><ele>22.0</ele><time>2026-04-12T15:06:08.837Z</time></trkpt><trkpt lat="53.5928978258793" lon="14.8037363868841"><ele>21.333333333333332</ele><time>2026-04-12T15:06:10.837Z</time></trkpt><trkpt lat="53.59278001803892" lon="14.803709833767158"><ele>20.666666666666664</ele><time>2026-04-12T15:06:12.837Z</time></trkpt><trkpt lat="53.59271729998572" lon="14.803688827727713"><ele>20.0</ele><time>2026-04-12T15:06:13.837Z</time></trkpt><trkpt lat="53.5926402118335" lon="14.80366734862682"><ele>19.333333333333332</ele><time>2026-04-12T15:06:15.837Z</time></trkpt><trkpt lat="53.59257763390246" lon="14.803654308830371"><ele>18.666666666666668</ele><time>2026-04-12T15:06:21.837Z</time></trkpt><trkpt lat="53.592496330518514" lon="14.803653630072512"><ele>18.0</ele><time>2026-04-12T15:06:30.837Z</time></trkpt><trkpt lat="53.59246654098714" lon="14.803753920348392"><ele>18.0</ele><time>2026-04-12T15:06:32.837Z</time></trkpt><trkpt lat="53.59242874430802" lon="14.803843117262785"><ele>18.0</ele><time>2026-04-12T15:06:33.837Z</time></trkpt><trkpt lat="53.59240802878213" lon="14.80396449398812"><ele>18.0</ele><time>2026-04-12T15:06:34.837Z</time></trkpt><trkpt lat="53.59238478781676" lon="14.804102210234504"><ele>18.0</ele><time>2026-04-12T15:06:35.836Z</time></trkpt><trkpt lat="53.59236176811907" lon="14.804237156944183"><ele>18.0</ele><time>2026-04-12T15:06:36.835Z</time></trkpt><trkpt lat="53.592338988269034" lon="14.804369903820128"><ele>18.0</ele><time>2026-04-12T15:06:37.835Z</time></trkpt><trkpt lat="53.59231462913938" lon="14.804511853765474"><ele>18.333333333333332</ele><time>2026-04-12T15:06:38.834Z</time></trkpt><trkpt lat="53.59228868525852" lon="14.804663038665872"><ele>18.666666666666668</ele><time>2026-04-12T15:06:39.833Z</time></trkpt><trkpt lat="53.592286216032136" lon="14.80481289786366"><ele>19.0</ele><time>2026-04-12T15:06:40.832Z</time></trkpt><trkpt lat="53.592263396224894" lon="14.804959788626448"><ele>19.333333333333336</ele><time>2026-04-12T15:06:41.832Z</time></trkpt><trkpt lat="53.59223806210078" lon="14.805100740481747"><ele>19.666666666666668</ele><time>2026-04-12T15:06:42.831Z</time></trkpt><trkpt lat="53.59221807868471" lon="14.805208178957955"><ele>20.0</ele><time>2026-04-12T15:06:43.831Z</time></trkpt><trkpt lat="53.59219431646002" lon="14.80533969141237"><ele>20.6</ele><time>2026-04-12T15:06:44.83Z</time></trkpt><trkpt lat="53.592165220759725" lon="14.805440027360614"><ele>21.2</ele><time>2026-04-12T15:06:45.83Z</time></trkpt><trkpt lat="53.59211005858907" lon="14.80558252569666"><ele>21.799999999999997</ele><time>2026-04-12T15:06:46.829Z</time></trkpt><trkpt lat="53.59203576011346" lon="14.805712324531058"><ele>22.4</ele><time>2026-04-12T15:06:47.829Z</time></trkpt><trkpt lat="53.59194529932859" lon="14.805819433549638"><ele>23.0</ele><time>2026-04-12T15:06:48.828Z</time></trkpt><trkpt lat="53.59186832328487" lon="14.805886303495528"><ele>23.0</ele><time>2026-04-12T15:06:49.828Z</time></trkpt><trkpt lat="53.591784121060535" lon="14.805920413158358"><ele>23.0</ele><time>2026-04-12T15:06:50.828Z</time></trkpt><trkpt lat="53.591689343709184" lon="14.805971574292899"><ele>23.0</ele><time>2026-04-12T15:06:51.827Z</time></trkpt><trkpt lat="53.59161237805639" lon="14.806004937337862"><ele>23.0</ele><time>2026-04-12T15:06:52.827Z</time></trkpt><trkpt lat="53.591539942799564" lon="14.806038430497464"><ele>23.0</ele><time>2026-04-12T15:06:53.827Z</time></trkpt><trkpt lat="53.59147189475253" lon="14.806061028464233"><ele>23.0</ele><time>2026-04-12T15:06:54.827Z</time></trkpt><trkpt lat="53.59140942999566" lon="14.806105299199322"><ele>22.833333333333336</ele><time>2026-04-12T15:06:55.826Z</time></trkpt><trkpt lat="53.59133042041955" lon="14.80614120776103"><ele>22.666666666666668</ele><time>2026-04-12T15:06:56.826Z</time></trkpt><trkpt lat="53.5912591017393" lon="14.80614551697274"><ele>22.5</ele><time>2026-04-12T15:06:57.826Z</time></trkpt><trkpt lat="53.59118424323627" lon="14.806124825783197"><ele>22.333333333333332</ele><time>2026-04-12T15:06:58.826Z</time></trkpt><trkpt lat="53.59109252070223" lon="14.806121487957178"><ele>22.166666666666664</ele><time>2026-04-12T15:06:59.825Z</time></trkpt><trkpt lat="53.590983346864995" lon="14.806139159197997"><ele>22.0</ele><time>2026-04-12T15:07:00.825Z</time></trkpt><trkpt lat="53.59088794359674" lon="14.806146239527262"><ele>22.0</ele><time>2026-04-12T15:07:01.824Z</time></trkpt><trkpt lat="53.59081280289284" lon="14.80613148814199"><ele>22.0</ele><time>2026-04-12T15:07:02.823Z</time></trkpt><trkpt lat="53.5907109440956" lon="14.806084652022653"><ele>22.0</ele><time>2026-04-12T15:07:03.823Z</time></trkpt><trkpt lat="53.590595937432866" lon="14.806091863446975"><ele>22.0</ele><time>2026-04-12T15:07:04.824Z</time></trkpt><trkpt lat="53.59049039960646" lon="14.806153318890344"><ele>22.0</ele><time>2026-04-12T15:07:05.823Z</time></trkpt><trkpt lat="53.59036410767203" lon="14.806222479698514"><ele>20.75</ele><time>2026-04-12T15:07:06.823Z</time></trkpt><trkpt lat="53.59023725023026" lon="14.806273386452823"><ele>19.5</ele><time>2026-04-12T15:07:07.823Z</time></trkpt><trkpt lat="53.590107110667844" lon="14.80632438013032"><ele>18.25</ele><time>2026-04-12T15:07:08.823Z</time></trkpt><trkpt lat="53.58998495922621" lon="14.806377357297977"><ele>17.0</ele><time>2026-04-12T15:07:09.822Z</time></trkpt><trkpt lat="53.58988360098963" lon="14.80644415619266"><ele>17.0</ele><time>2026-04-12T15:07:10.822Z</time></trkpt><trkpt lat="53.58978287908524" lon="14.806531142839573"><ele>17.0</ele><time>2026-04-12T15:07:11.823Z</time></trkpt><trkpt lat="53.58968095924611" lon="14.806616018022192"><ele>17.0</ele><time>2026-04-12T15:07:12.823Z</time></trkpt><trkpt lat="53.58958802872031" lon="14.80668763315794"><ele>17.0</ele><time>2026-04-12T15:07:13.822Z</time></trkpt><trkpt lat="53.58948955210119" lon="14.806758812358455"><ele>17.0</ele><time>2026-04-12T15:07:14.822Z</time></trkpt><trkpt lat="53.58940598231959" lon="14.80686336067463"><ele>16.0</ele><time>2026-04-12T15:07:15.822Z</time></trkpt><trkpt lat="53.58931975915655" lon="14.806975068465075"><ele>15.0</ele><time>2026-04-12T15:07:16.822Z</time></trkpt><trkpt lat="53.589230941862574" lon="14.807060058353215"><ele>14.0</ele><time>2026-04-12T15:07:17.822Z</time></trkpt><trkpt lat="53.58912991176681" lon="14.807134908643485"><ele>13.0</ele><time>2026-04-12T15:07:18.822Z</time></trkpt><trkpt lat="53.58901841985593" lon="14.807158483199137"><ele>12.0</ele><time>2026-04-12T15:07:19.822Z</time></trkpt><trkpt lat="53.588889877483794" lon="14.807195829452073"><ele>12.0</ele><time>2026-04-12T15:07:20.822Z</time></trkpt><trkpt lat="53.5887641150297" lon="14.80724126332597"><ele>12.0</ele><time>2026-04-12T15:07:21.822Z</time></trkpt><trkpt lat="53.5886488410041" lon="14.807298130729077"><ele>12.0</ele><time>2026-04-12T15:07:22.822Z</time></trkpt><trkpt lat="53.5885448340696" lon="14.807367181618343"><ele>12.0</ele><time>2026-04-12T15:07:23.822Z</time></trkpt><trkpt lat="53.58843189195372" lon="14.807438637425737"><ele>12.2</ele><time>2026-04-12T15:07:24.822Z</time></trkpt><trkpt lat="53.58831163991813" lon="14.807480882070582"><ele>12.399999999999999</ele><time>2026-04-12T15:07:25.822Z</time></trkpt><trkpt lat="53.58819735285751" lon="14.807528796664835"><ele>12.600000000000001</ele><time>2026-04-12T15:07:26.822Z</time></trkpt><trkpt lat="53.58809366208324" lon="14.807582580722439"><ele>12.8</ele><time>2026-04-12T15:07:27.822Z</time></trkpt><trkpt lat="53.58799979148384" lon="14.807621950674362"><ele>13.0</ele><time>2026-04-12T15:07:28.822Z</time></trkpt><trkpt lat="53.587883962049375" lon="14.807671694316827"><ele>13.5</ele><time>2026-04-12T15:07:29.822Z</time></trkpt><trkpt lat="53.58776771371479" lon="14.80772466320394"><ele>14.0</ele><time>2026-04-12T15:07:30.822Z</time></trkpt><trkpt lat="53.58762870497184" lon="14.807779351589545"><ele>14.5</ele><time>2026-04-12T15:07:31.822Z</time></trkpt><trkpt lat="53.5875001166226" lon="14.807834931144924"><ele>15.0</ele><time>2026-04-12T15:07:32.821Z</time></trkpt><trkpt lat="53.587396716658326" lon="14.807887574660697"><ele>15.0</ele><time>2026-04-12T15:07:33.821Z</time></trkpt><trkpt lat="53.58730052776172" lon="14.807942142950345"><ele>15.0</ele><time>2026-04-12T15:07:34.821Z</time></trkpt><trkpt lat="53.58721760817204" lon="14.80801888767704"><ele>15.0</ele><time>2026-04-12T15:07:35.821Z</time></trkpt><trkpt lat="53.587114074734544" lon="14.808082009008542"><ele>15.0</ele><time>2026-04-12T15:07:36.821Z</time></trkpt><trkpt lat="53.587019432782824" lon="14.808128813676824"><ele>15.0</ele><time>2026-04-12T15:07:37.821Z</time></trkpt><trkpt lat="53.586936291459736" lon="14.808176636424657"><ele>16.5</ele><time>2026-04-12T15:07:38.821Z</time></trkpt><trkpt lat="53.58683176598653" lon="14.808243986758745"><ele>18.0</ele><time>2026-04-12T15:07:39.821Z</time></trkpt><trkpt lat="53.586718225532856" lon="14.808295012415511"><ele>19.5</ele><time>2026-04-12T15:07:40.821Z</time></trkpt><trkpt lat="53.586603639823096" lon="14.80834466269361"><ele>21.0</ele><time>2026-04-12T15:07:41.821Z</time></trkpt><trkpt lat="53.58648640469081" lon="14.8083837561971"><ele>21.0</ele><time>2026-04-12T15:07:42.821Z</time></trkpt><trkpt lat="53.58636992381553" lon="14.80841494549122"><ele>21.0</ele><time>2026-04-12T15:07:43.821Z</time></trkpt><trkpt lat="53.58625066140264" lon="14.808440106275627"><ele>21.0</ele><time>2026-04-12T15:07:44.821Z</time></trkpt><trkpt lat="53.586130927154045" lon="14.808478889876222"><ele>21.0</ele><time>2026-04-12T15:07:45.821Z</time></trkpt><trkpt lat="53.58600288091262" lon="14.808538568013024"><ele>22.0</ele><time>2026-04-12T15:07:46.821Z</time></trkpt><trkpt lat="53.58587366497977" lon="14.808593092363497"><ele>23.0</ele><time>2026-04-12T15:07:47.821Z</time></trkpt><trkpt lat="53.58573783424626" lon="14.808652523961182"><ele>24.0</ele><time>2026-04-12T15:07:48.821Z</time></trkpt><trkpt lat="53.585589091717736" lon="14.80872780619208"><ele>25.0</ele><time>2026-04-12T15:07:49.821Z</time></trkpt><trkpt lat="53.58545122981044" lon="14.808789896604837"><ele>24.25</ele><time>2026-04-12T15:07:50.821Z</time></trkpt><trkpt lat="53.58529739136811" lon="14.808858783059076"><ele>23.5</ele><time>2026-04-12T15:07:51.821Z</time></trkpt><trkpt lat="53.58515466895153" lon="14.808920552840826"><ele>22.75</ele><time>2026-04-12T15:07:52.821Z</time></trkpt><trkpt lat="53.58502079534988" lon="14.808986233760953"><ele>22.0</ele><time>2026-04-12T15:07:53.821Z</time></trkpt><trkpt lat="53.58488117540239" lon="14.809080067910806"><ele>22.0</ele><time>2026-04-12T15:07:54.821Z</time></trkpt><trkpt lat="53.58474222394619" lon="14.80919013774472"><ele>22.0</ele><time>2026-04-12T15:07:55.821Z</time></trkpt><trkpt lat="53.58460146070979" lon="14.80926992315702"><ele>22.0</ele><time>2026-04-12T15:07:56.821Z</time></trkpt><trkpt lat="53.58445849739981" lon="14.809332361403161"><ele>22.5</ele><time>2026-04-12T15:07:57.821Z</time></trkpt><trkpt lat="53.584331161525114" lon="14.809396257976042"><ele>23.0</ele><time>2026-04-12T15:07:58.821Z</time></trkpt><trkpt lat="53.584208983414726" lon="14.809471109520958"><ele>23.5</ele><time>2026-04-12T15:07:59.821Z</time></trkpt><trkpt lat="53.584075740804884" lon="14.80952573280739"><ele>24.0</ele><time>2026-04-12T15:08:00.821Z</time></trkpt><trkpt lat="53.58395161231682" lon="14.809591055920553"><ele>24.0</ele><time>2026-04-12T15:08:01.821Z</time></trkpt><trkpt lat="53.58383639351062" lon="14.809637000486475"><ele>24.0</ele><time>2026-04-12T15:08:02.821Z</time></trkpt><trkpt lat="53.583734567098276" lon="14.809668272856394"><ele>24.0</ele><time>2026-04-12T15:08:03.821Z</time></trkpt><trkpt lat="53.583603281432985" lon="14.809726140762896"><ele>24.0</ele><time>2026-04-12T15:08:04.821Z</time></trkpt><trkpt lat="53.583455219620035" lon="14.809776225899606"><ele>24.5</ele><time>2026-04-12T15:08:05.821Z</time></trkpt><trkpt lat="53.583323250823824" lon="14.80981755484674"><ele>25.0</ele><time>2026-04-12T15:08:06.821Z</time></trkpt><trkpt lat="53.583193136820604" lon="14.809890134910423"><ele>25.5</ele><time>2026-04-12T15:08:07.821Z</time></trkpt><trkpt lat="53.58311226726432" lon="14.809936716830611"><ele>26.0</ele><time>2026-04-12T15:08:08.821Z</time></trkpt><trkpt lat="53.58301999425544" lon="14.809979030659136"><ele>26.0</ele><time>2026-04-12T15:08:09.821Z</time></trkpt><trkpt lat="53.58292763600163" lon="14.810017851472221"><ele>26.0</ele><time>2026-04-12T15:08:10.821Z</time></trkpt><trkpt lat="53.58282939377333" lon="14.810053834572381"><ele>26.0</ele><time>2026-04-12T15:08:11.821Z</time></trkpt><trkpt lat="53.58273437250008" lon="14.810097360988417"><ele>26.0</ele><time>2026-04-12T15:08:12.821Z</time></trkpt><trkpt lat="53.58263398455171" lon="14.810147948736892"><ele>26.0</ele><time>2026-04-12T15:08:13.821Z</time></trkpt><trkpt lat="53.58252735078151" lon="14.81021905865135"><ele>25.4</ele><time>2026-04-12T15:08:14.821Z</time></trkpt><trkpt lat="53.58239162611299" lon="14.810295567150462"><ele>24.8</ele><time>2026-04-12T15:08:15.821Z</time></trkpt><trkpt lat="53.58229800720329" lon="14.810346572736881"><ele>24.2</ele><time>2026-04-12T15:08:16.821Z</time></trkpt><trkpt lat="53.5821935474015" lon="14.810391621406604"><ele>23.599999999999998</ele><time>2026-04-12T15:08:17.821Z</time></trkpt><trkpt lat="53.58212358820284" lon="14.810419048958515"><ele>23.0</ele><time>2026-04-12T15:08:19.821Z</time></trkpt><trkpt lat="53.58202665756504" lon="14.81043680155776"><ele>22.0</ele><time>2026-04-12T15:08:21.821Z</time></trkpt><trkpt lat="53.58192850418343" lon="14.810474700082093"><ele>21.0</ele><time>2026-04-12T15:08:23.821Z</time></trkpt><trkpt lat="53.58183443286384" lon="14.81052981271203"><ele>20.0</ele><time>2026-04-12T15:08:25.821Z</time></trkpt><trkpt lat="53.58173739413442" lon="14.810564108272432"><ele>19.0</ele><time>2026-04-12T15:08:27.821Z</time></trkpt><trkpt lat="53.581671020076534" lon="14.810673739838796"><ele>18.0</ele><time>2026-04-12T15:08:35.821Z</time></trkpt><trkpt lat="53.58159605495641" lon="14.810687949703286"><ele>18.000000000000004</ele><time>2026-04-12T15:08:37.821Z</time></trkpt><trkpt lat="53.581538876977085" lon="14.810740226004603"><ele>18.0</ele><time>2026-04-12T15:08:40.821Z</time></trkpt><trkpt lat="53.58148873209764" lon="14.810821569832706"><ele>18.0</ele><time>2026-04-12T15:08:44.821Z</time></trkpt><trkpt lat="53.58152747149103" lon="14.810940688881375"><ele>18.0</ele><time>2026-04-12T15:08:48.821Z</time></trkpt><trkpt lat="53.58160750313923" lon="14.811026279357321"><ele>18.0</ele><time>2026-04-12T15:08:51.821Z</time></trkpt><trkpt lat="53.58166792566906" lon="14.811079703134942"><ele>18.000000000000004</ele><time>2026-04-12T15:08:54.821Z</time></trkpt><trkpt lat="53.58172734007743" lon="14.811019439207705"><ele>18.0</ele><time>2026-04-12T15:08:58.821Z</time></trkpt><trkpt lat="53.58168853660547" lon="14.810925616062525"><ele>18.0</ele><time>2026-04-12T15:09:01.821Z</time></trkpt><trkpt lat="53.58166136400615" lon="14.810810093671757"><ele>18.0</ele><time>2026-04-12T15:09:05.821Z</time></trkpt><trkpt lat="53.58169793694211" lon="14.810722597113049"><ele>18.0</ele><time>2026-04-12T15:09:09.82Z</time></trkpt><trkpt lat="53.581738183449836" lon="14.810629827268265"><ele>18.0</ele><time>2026-04-12T15:09:12.819Z</time></trkpt><trkpt lat="53.581788341570174" lon="14.810554418473112"><ele>18.0</ele><time>2026-04-12T15:09:13.82Z</time></trkpt><trkpt lat="53.58188290101952" lon="14.8105269731683"><ele>18.0</ele><time>2026-04-12T15:09:15.819Z</time></trkpt><trkpt lat="53.58208288895375" lon="14.810391172139196"><ele>19.0</ele><time>2026-04-12T15:09:17.82Z</time></trkpt><trkpt lat="53.5821678182878" lon="14.810351433690531"><ele>20.0</ele><time>2026-04-12T15:09:18.82Z</time></trkpt><trkpt lat="53.582260784506666" lon="14.810301117257914"><ele>21.0</ele><time>2026-04-12T15:09:19.819Z</time></trkpt><trkpt lat="53.58235480115565" lon="14.810262423208963"><ele>22.0</ele><time>2026-04-12T15:09:20.819Z</time></trkpt><trkpt lat="53.582444649251876" lon="14.810213355960302"><ele>23.0</ele><time>2026-04-12T15:09:21.819Z</time></trkpt><trkpt lat="53.58252666577497" lon="14.81016878301828"><ele>23.166666666666668</ele><time>2026-04-12T15:09:22.819Z</time></trkpt><trkpt lat="53.58259444235122" lon="14.810139268037112"><ele>23.333333333333336</ele><time>2026-04-12T15:09:23.819Z</time></trkpt><trkpt lat="53.58266224846485" lon="14.810099505607408"><ele>23.5</ele><time>2026-04-12T15:09:24.819Z</time></trkpt><trkpt lat="53.5827322455243" lon="14.810047607274942"><ele>23.666666666666668</ele><time>2026-04-12T15:09:25.819Z</time></trkpt><trkpt lat="53.58280298468535" lon="14.810009386667659"><ele>23.833333333333332</ele><time>2026-04-12T15:09:26.819Z</time></trkpt><trkpt lat="53.582886076078964" lon="14.809975419532304"><ele>24.0</ele><time>2026-04-12T15:09:27.819Z</time></trkpt><trkpt lat="53.58295959083365" lon="14.809937247478912"><ele>24.4</ele><time>2026-04-12T15:09:28.819Z</time></trkpt><trkpt lat="53.58302957656077" lon="14.809931935750654"><ele>24.799999999999997</ele><time>2026-04-12T15:09:29.819Z</time></trkpt><trkpt lat="53.58315365668144" lon="14.809868877665744"><ele>25.200000000000003</ele><time>2026-04-12T15:09:31.819Z</time></trkpt><trkpt lat="53.583216981382435" lon="14.809837792708825"><ele>25.6</ele><time>2026-04-12T15:09:32.819Z</time></trkpt><trkpt lat="53.583327900821224" lon="14.809785741815132"><ele>26.0</ele><time>2026-04-12T15:09:34.819Z</time></trkpt><trkpt lat="53.58339933042563" lon="14.809693857541715"><ele>26.0</ele><time>2026-04-12T15:09:36.819Z</time></trkpt><trkpt lat="53.58343826858088" lon="14.809571907171158"><ele>26.0</ele><time>2026-04-12T15:09:38.819Z</time></trkpt><trkpt lat="53.58343137408582" lon="14.809455016001468"><ele>26.0</ele><time>2026-04-12T15:09:41.819Z</time></trkpt><trkpt lat="53.58346818718072" lon="14.809313897502232"><ele>26.0</ele><time>2026-04-12T15:09:43.819Z</time></trkpt><trkpt lat="53.58349713480056" lon="14.809172712990522"><ele>26.0</ele><time>2026-04-12T15:09:46.819Z</time></trkpt><trkpt lat="53.58355099804321" lon="14.808946467911444"><ele>25.8</ele><time>2026-04-12T15:09:48.819Z</time></trkpt><trkpt lat="53.583586204291954" lon="14.808835953785692"><ele>25.6</ele><time>2026-04-12T15:09:49.819Z</time></trkpt><trkpt lat="53.583632017289986" lon="14.808748501658616"><ele>25.4</ele><time>2026-04-12T15:09:50.819Z</time></trkpt><trkpt lat="53.58368123888356" lon="14.808590001057803"><ele>25.2</ele><time>2026-04-12T15:09:51.819Z</time></trkpt><trkpt lat="53.58374948737365" lon="14.808422513515596"><ele>25.0</ele><time>2026-04-12T15:09:52.819Z</time></trkpt><trkpt lat="53.58380995115151" lon="14.808223550028737"><ele>24.75</ele><time>2026-04-12T15:09:53.819Z</time></trkpt><trkpt lat="53.58385798053885" lon="14.80806005228058"><ele>24.5</ele><time>2026-04-12T15:09:54.819Z</time></trkpt><trkpt lat="53.58390736350318" lon="14.807908687153185"><ele>24.25</ele><time>2026-04-12T15:09:56.819Z</time></trkpt><trkpt lat="53.58394470342866" lon="14.807718372038611"><ele>24.0</ele><time>2026-04-12T15:09:57.819Z</time></trkpt><trkpt lat="53.583966771805486" lon="14.807519697507251"><ele>24.0</ele><time>2026-04-12T15:09:58.819Z</time></trkpt><trkpt lat="53.58399406689096" lon="14.807320529974403"><ele>24.0</ele><time>2026-04-12T15:09:59.819Z</time></trkpt><trkpt lat="53.584040222234464" lon="14.807122857309677"><ele>24.0</ele><time>2026-04-12T15:10:00.819Z</time></trkpt><trkpt lat="53.5840849473403" lon="14.806946166432716"><ele>24.0</ele><time>2026-04-12T15:10:01.819Z</time></trkpt><trkpt lat="53.584117042753995" lon="14.806784931601563"><ele>24.0</ele><time>2026-04-12T15:10:02.819Z</time></trkpt><trkpt lat="53.584161761611966" lon="14.806646574219142"><ele>24.0</ele><time>2026-04-12T15:10:03.819Z</time></trkpt><trkpt lat="53.5842003583055" lon="14.806482224015832"><ele>24.0</ele><time>2026-04-12T15:10:04.819Z</time></trkpt><trkpt lat="53.58423901748125" lon="14.80631602626131"><ele>24.0</ele><time>2026-04-12T15:10:05.819Z</time></trkpt><trkpt lat="53.58428553345864" lon="14.80614901537532"><ele>24.0</ele><time>2026-04-12T15:10:06.819Z</time></trkpt><trkpt lat="53.584336436085984" lon="14.805998182204831"><ele>23.6</ele><time>2026-04-12T15:10:07.819Z</time></trkpt><trkpt lat="53.58438460950744" lon="14.805865342434137"><ele>23.2</ele><time>2026-04-12T15:10:08.819Z</time></trkpt><trkpt lat="53.584447021864406" lon="14.805719701519827"><ele>22.8</ele><time>2026-04-12T15:10:09.819Z</time></trkpt><trkpt lat="53.584514046055475" lon="14.805548972333385"><ele>22.400000000000002</ele><time>2026-04-12T15:10:10.819Z</time></trkpt><trkpt lat="53.58457959552728" lon="14.805378370235497"><ele>22.0</ele><time>2026-04-12T15:10:11.819Z</time></trkpt><trkpt lat="53.5846607293429" lon="14.805194687635877"><ele>21.400000000000002</ele><time>2026-04-12T15:10:12.819Z</time></trkpt><trkpt lat="53.58471085382923" lon="14.805029065227329"><ele>20.8</ele><time>2026-04-12T15:10:13.819Z</time></trkpt><trkpt lat="53.58476840491673" lon="14.80488506563459"><ele>20.2</ele><time>2026-04-12T15:10:14.819Z</time></trkpt><trkpt lat="53.584818691119104" lon="14.804710947175195"><ele>19.6</ele><time>2026-04-12T15:10:15.819Z</time></trkpt><trkpt lat="53.584868151332614" lon="14.804545873365907"><ele>19.0</ele><time>2026-04-12T15:10:16.819Z</time></trkpt><trkpt lat="53.58491211598952" lon="14.804353987845795"><ele>18.8</ele><time>2026-04-12T15:10:17.819Z</time></trkpt><trkpt lat="53.58494565730848" lon="14.804166184199078"><ele>18.599999999999998</ele><time>2026-04-12T15:10:18.819Z</time></trkpt><trkpt lat="53.58497824600117" lon="14.80401585082033"><ele>18.4</ele><time>2026-04-12T15:10:19.819Z</time></trkpt><trkpt lat="53.58501559197241" lon="14.803882965241584"><ele>18.2</ele><time>2026-04-12T15:10:20.819Z</time></trkpt><trkpt lat="53.58503238291078" lon="14.803776960578183"><ele>18.0</ele><time>2026-04-12T15:10:21.819Z</time></trkpt><trkpt lat="53.58506316280471" lon="14.803620216937682"><ele>18.2</ele><time>2026-04-12T15:10:22.819Z</time></trkpt><trkpt lat="53.585102749328016" lon="14.803469661473198"><ele>18.4</ele><time>2026-04-12T15:10:23.819Z</time></trkpt><trkpt lat="53.585151479904376" lon="14.803338470303569"><ele>18.599999999999998</ele><time>2026-04-12T15:10:24.819Z</time></trkpt><trkpt lat="53.58519507971494" lon="14.803178565821787"><ele>18.8</ele><time>2026-04-12T15:10:25.819Z</time></trkpt><trkpt lat="53.58522743251347" lon="14.80302096799781"><ele>19.0</ele><time>2026-04-12T15:10:26.819Z</time></trkpt><trkpt lat="53.58527951095952" lon="14.802896264755086"><ele>19.0</ele><time>2026-04-12T15:10:27.819Z</time></trkpt><trkpt lat="53.58533750513914" lon="14.802779995626619"><ele>19.0</ele><time>2026-04-12T15:10:28.819Z</time></trkpt><trkpt lat="53.58539614919277" lon="14.802602464723142"><ele>19.0</ele><time>2026-04-12T15:10:29.819Z</time></trkpt><trkpt lat="53.5854399828464" lon="14.80243566509868"><ele>19.0</ele><time>2026-04-12T15:10:30.819Z</time></trkpt><trkpt lat="53.58548608528002" lon="14.8022489976829"><ele>19.0</ele><time>2026-04-12T15:10:31.819Z</time></trkpt><trkpt lat="53.585512268641104" lon="14.8021033000608"><ele>18.4</ele><time>2026-04-12T15:10:32.819Z</time></trkpt><trkpt lat="53.58555026039377" lon="14.801953345938292"><ele>17.799999999999997</ele><time>2026-04-12T15:10:33.819Z</time></trkpt><trkpt lat="53.58559839660665" lon="14.801830987752751"><ele>17.200000000000003</ele><time>2026-04-12T15:10:34.819Z</time></trkpt><trkpt lat="53.585696814475604" lon="14.801666047268697"><ele>16.6</ele><time>2026-04-12T15:10:36.819Z</time></trkpt><trkpt lat="53.58572081105594" lon="14.801543283349261"><ele>16.0</ele><time>2026-04-12T15:10:38.819Z</time></trkpt><trkpt lat="53.5856470372633" lon="14.8014876299966"><ele>15.499999999999998</ele><time>2026-04-12T15:10:40.819Z</time></trkpt><trkpt lat="53.58558353794002" lon="14.801506378297217"><ele>15.0</ele><time>2026-04-12T15:10:41.819Z</time></trkpt><trkpt lat="53.58551038536717" lon="14.801550660876845"><ele>14.5</ele><time>2026-04-12T15:10:42.819Z</time></trkpt><trkpt lat="53.58543688986599" lon="14.801603282048207"><ele>14.0</ele><time>2026-04-12T15:10:43.819Z</time></trkpt><trkpt lat="53.58533816938919" lon="14.801655084971873"><ele>13.499999999999998</ele><time>2026-04-12T15:10:44.819Z</time></trkpt><trkpt lat="53.58523103136747" lon="14.801722433086486"><ele>13.0</ele><time>2026-04-12T15:10:45.819Z</time></trkpt><trkpt lat="53.5851400473721" lon="14.801757952347431"><ele>13.0</ele><time>2026-04-12T15:10:46.819Z</time></trkpt><trkpt lat="53.58501426171564" lon="14.801789679662871"><ele>13.0</ele><time>2026-04-12T15:10:48.819Z</time></trkpt><trkpt lat="53.584939103479684" lon="14.801754338382798"><ele>13.0</ele><time>2026-04-12T15:10:49.819Z</time></trkpt><trkpt lat="53.584887202601706" lon="14.801651854704938"><ele>13.0</ele><time>2026-04-12T15:10:50.819Z</time></trkpt><trkpt lat="53.58484641457776" lon="14.801499678283498"><ele>13.0</ele><time>2026-04-12T15:10:51.819Z</time></trkpt><trkpt lat="53.58481841551583" lon="14.801358278303585"><ele>13.0</ele><time>2026-04-12T15:10:52.819Z</time></trkpt><trkpt lat="53.58478367366095" lon="14.801151930859126"><ele>13.0</ele><time>2026-04-12T15:10:53.819Z</time></trkpt><trkpt lat="53.58474994436343" lon="14.800965047292193"><ele>13.0</ele><time>2026-04-12T15:10:54.819Z</time></trkpt><trkpt lat="53.58472222212124" lon="14.800783252653522"><ele>13.0</ele><time>2026-04-12T15:10:55.819Z</time></trkpt><trkpt lat="53.58469089514897" lon="14.800609348341686"><ele>12.200000000000001</ele><time>2026-04-12T15:10:56.819Z</time></trkpt><trkpt lat="53.58465690414906" lon="14.800441623413962"><ele>11.4</ele><time>2026-04-12T15:10:57.819Z</time></trkpt><trkpt lat="53.5846141925805" lon="14.80026663737404"><ele>10.600000000000001</ele><time>2026-04-12T15:10:58.819Z</time></trkpt><trkpt lat="53.58457849973792" lon="14.80010223221352"><ele>9.8</ele><time>2026-04-12T15:10:59.819Z</time></trkpt><trkpt lat="53.58454282266968" lon="14.799935333288765"><ele>9.0</ele><time>2026-04-12T15:11:00.819Z</time></trkpt><trkpt lat="53.58451514333245" lon="14.79978157856041"><ele>9.0</ele><time>2026-04-12T15:11:01.819Z</time></trkpt><trkpt lat="53.58447817056893" lon="14.799611393466824"><ele>9.0</ele><time>2026-04-12T15:11:02.819Z</time></trkpt><trkpt lat="53.584441786841246" lon="14.799461720982302"><ele>9.0</ele><time>2026-04-12T15:11:03.819Z</time></trkpt><trkpt lat="53.58440054546964" lon="14.799353934400518"><ele>9.0</ele><time>2026-04-12T15:11:04.819Z</time></trkpt><trkpt lat="53.58436097566334" lon="14.799255077294308"><ele>9.0</ele><time>2026-04-12T15:11:05.819Z</time></trkpt><trkpt lat="53.58427430987594" lon="14.799189098641966"><ele>9.0</ele><time>2026-04-12T15:11:06.819Z</time></trkpt><trkpt lat="53.584216314400905" lon="14.799030832551564"><ele>9.0</ele><time>2026-04-12T15:11:07.819Z</time></trkpt><trkpt lat="53.58415217705357" lon="14.798881571023536"><ele>9.0</ele><time>2026-04-12T15:11:08.819Z</time></trkpt><trkpt lat="53.5840685334366" lon="14.79872760065905"><ele>9.0</ele><time>2026-04-12T15:11:09.819Z</time></trkpt><trkpt lat="53.58399822282926" lon="14.79856006804031"><ele>9.0</ele><time>2026-04-12T15:11:10.819Z</time></trkpt><trkpt lat="53.5839224941616" lon="14.798393496977402"><ele>9.0</ele><time>2026-04-12T15:11:11.819Z</time></trkpt><trkpt lat="53.58384160526255" lon="14.798200456299954"><ele>9.0</ele><time>2026-04-12T15:11:12.819Z</time></trkpt><trkpt lat="53.58375685654276" lon="14.797998553226037"><ele>9.0</ele><time>2026-04-12T15:11:13.819Z</time></trkpt><trkpt lat="53.58366790785782" lon="14.79779288452613"><ele>9.0</ele><time>2026-04-12T15:11:14.819Z</time></trkpt><trkpt lat="53.583582828933935" lon="14.797596343300153"><ele>9.0</ele><time>2026-04-12T15:11:15.819Z</time></trkpt><trkpt lat="53.58349718451846" lon="14.797398158018295"><ele>9.0</ele><time>2026-04-12T15:11:16.818Z</time></trkpt><trkpt lat="53.58340811185011" lon="14.797203262111065"><ele>9.0</ele><time>2026-04-12T15:11:17.818Z</time></trkpt><trkpt lat="53.583331844512024" lon="14.797024040886503"><ele>9.0</ele><time>2026-04-12T15:11:18.818Z</time></trkpt><trkpt lat="53.583259129656824" lon="14.796861542987836"><ele>9.2</ele><time>2026-04-12T15:11:19.819Z</time></trkpt><trkpt lat="53.58319381678416" lon="14.796709847109826"><ele>9.4</ele><time>2026-04-12T15:11:20.818Z</time></trkpt><trkpt lat="53.58312995010282" lon="14.796576416564841"><ele>9.6</ele><time>2026-04-12T15:11:21.818Z</time></trkpt><trkpt lat="53.58307347819058" lon="14.796463043828592"><ele>9.8</ele><time>2026-04-12T15:11:22.819Z</time></trkpt><trkpt lat="53.58302497239836" lon="14.796383298825178"><ele>10.0</ele><time>2026-04-12T15:11:23.818Z</time></trkpt><trkpt lat="53.5829712939435" lon="14.79628065704019"><ele>10.0</ele><time>2026-04-12T15:11:25.818Z</time></trkpt><trkpt lat="53.58288604582937" lon="14.796272916139083"><ele>10.0</ele><time>2026-04-12T15:11:28.818Z</time></trkpt><trkpt lat="53.582808775252225" lon="14.796428317379071"><ele>10.0</ele><time>2026-04-12T15:11:30.818Z</time></trkpt><trkpt lat="53.58276527768646" lon="14.796518956321348"><ele>10.0</ele><time>2026-04-12T15:11:31.818Z</time></trkpt><trkpt lat="53.58272081751549" lon="14.7966044380713"><ele>10.0</ele><time>2026-04-12T15:11:32.818Z</time></trkpt><trkpt lat="53.58265324487653" lon="14.796684276905918"><ele>10.0</ele><time>2026-04-12T15:11:33.818Z</time></trkpt><trkpt lat="53.58257905183359" lon="14.796815887573715"><ele>9.5</ele><time>2026-04-12T15:11:34.818Z</time></trkpt><trkpt lat="53.58250381193331" lon="14.796948543162763"><ele>9.0</ele><time>2026-04-12T15:11:35.818Z</time></trkpt><trkpt lat="53.582425598299274" lon="14.79708606332442"><ele>8.5</ele><time>2026-04-12T15:11:36.818Z</time></trkpt><trkpt lat="53.58232676552081" lon="14.79726913427025"><ele>8.0</ele><time>2026-04-12T15:11:37.818Z</time></trkpt><trkpt lat="53.58223038097355" lon="14.797465571522945"><ele>8.0</ele><time>2026-04-12T15:11:38.818Z</time></trkpt><trkpt lat="53.582130707552025" lon="14.797629653994012"><ele>8.0</ele><time>2026-04-12T15:11:39.818Z</time></trkpt><trkpt lat="53.58202922461864" lon="14.797810512489356"><ele>8.0</ele><time>2026-04-12T15:11:40.818Z</time></trkpt><trkpt lat="53.58192861711976" lon="14.798000712483978"><ele>8.0</ele><time>2026-04-12T15:11:41.818Z</time></trkpt><trkpt lat="53.58181606258165" lon="14.798181359049158"><ele>8.25</ele><time>2026-04-12T15:11:42.818Z</time></trkpt><trkpt lat="53.58171914259933" lon="14.798354935440997"><ele>8.5</ele><time>2026-04-12T15:11:43.818Z</time></trkpt><trkpt lat="53.581632002644035" lon="14.798520158359237"><ele>8.75</ele><time>2026-04-12T15:11:44.818Z</time></trkpt><trkpt lat="53.581550067791525" lon="14.798661741222782"><ele>9.0</ele><time>2026-04-12T15:11:45.818Z</time></trkpt><trkpt lat="53.581458439973815" lon="14.798825332508677"><ele>9.0</ele><time>2026-04-12T15:11:46.818Z</time></trkpt><trkpt lat="53.58135392904964" lon="14.799002832126376"><ele>9.0</ele><time>2026-04-12T15:11:47.818Z</time></trkpt><trkpt lat="53.581246193167985" lon="14.799187830680339"><ele>9.0</ele><time>2026-04-12T15:11:48.818Z</time></trkpt><trkpt lat="53.58114054465192" lon="14.799387937841866"><ele>9.0</ele><time>2026-04-12T15:11:49.818Z</time></trkpt><trkpt lat="53.581032974526885" lon="14.799555675643935"><ele>9.0</ele><time>2026-04-12T15:11:50.818Z</time></trkpt><trkpt lat="53.58094121402396" lon="14.799725733689828"><ele>9.0</ele><time>2026-04-12T15:11:51.818Z</time></trkpt><trkpt lat="53.580859656458074" lon="14.799885115113668"><ele>9.0</ele><time>2026-04-12T15:11:52.818Z</time></trkpt><trkpt lat="53.58076982565903" lon="14.800011041282534"><ele>9.0</ele><time>2026-04-12T15:11:53.818Z</time></trkpt><trkpt lat="53.5806841332155" lon="14.800117934318397"><ele>9.0</ele><time>2026-04-12T15:11:54.818Z</time></trkpt><trkpt lat="53.580620848765726" lon="14.800237422797943"><ele>9.0</ele><time>2026-04-12T15:11:55.818Z</time></trkpt><trkpt lat="53.58046621596096" lon="14.800115068876764"><ele>9.0</ele><time>2026-04-12T15:11:56.818Z</time></trkpt><trkpt lat="53.58033716595417" lon="14.800045226380142"><ele>9.0</ele><time>2026-04-12T15:11:57.818Z</time></trkpt><trkpt lat="53.580200819862476" lon="14.799989782184253"><ele>9.0</ele><time>2026-04-12T15:11:58.818Z</time></trkpt><trkpt lat="53.58006094368063" lon="14.799953917521197"><ele>9.0</ele><time>2026-04-12T15:11:59.818Z</time></trkpt><trkpt lat="53.579905984461156" lon="14.799943222027276"><ele>9.0</ele><time>2026-04-12T15:12:00.818Z</time></trkpt><trkpt lat="53.579746924508704" lon="14.799947323615173"><ele>9.0</ele><time>2026-04-12T15:12:01.818Z</time></trkpt><trkpt lat="53.57958525996381" lon="14.79995712931731"><ele>9.0</ele><time>2026-04-12T15:12:02.818Z</time></trkpt><trkpt lat="53.579411801973556" lon="14.79999867451506"><ele>9.0</ele><time>2026-04-12T15:12:03.818Z</time></trkpt><trkpt lat="53.57925141516875" lon="14.800011899634756"><ele>8.333333333333334</ele><time>2026-04-12T15:12:04.818Z</time></trkpt><trkpt lat="53.57908555079419" lon="14.800026094848072"><ele>7.666666666666667</ele><time>2026-04-12T15:12:05.818Z</time></trkpt><trkpt lat="53.578928506030564" lon="14.800035633349554"><ele>7.0</ele><time>2026-04-12T15:12:06.818Z</time></trkpt><trkpt lat="53.578773608587504" lon="14.800045178711546"><ele>7.0</ele><time>2026-04-12T15:12:07.818Z</time></trkpt><trkpt lat="53.57862226604334" lon="14.800061985070116"><ele>7.0</ele><time>2026-04-12T15:12:08.818Z</time></trkpt><trkpt lat="53.57846979988655" lon="14.800061571672503"><ele>7.0</ele><time>2026-04-12T15:12:09.818Z</time></trkpt><trkpt lat="53.57831711386468" lon="14.800067509585755"><ele>7.0</ele><time>2026-04-12T15:12:10.818Z</time></trkpt><trkpt lat="53.57816505647826" lon="14.800076326514287"><ele>7.0</ele><time>2026-04-12T15:12:11.818Z</time></trkpt><trkpt lat="53.57801139674962" lon="14.800093615731326"><ele>7.0</ele><time>2026-04-12T15:12:12.818Z</time></trkpt><trkpt lat="53.57767648749645" lon="14.800123095738416"><ele>7.333333333333334</ele><time>2026-04-12T15:12:14.818Z</time></trkpt><trkpt lat="53.57750137481737" lon="14.800163015595691"><ele>7.666666666666666</ele><time>2026-04-12T15:12:15.818Z</time></trkpt><trkpt lat="53.577310068669426" lon="14.800248214903798"><ele>8.0</ele><time>2026-04-12T15:12:16.818Z</time></trkpt><trkpt lat="53.57711583049613" lon="14.800350733722867"><ele>9.666666666666666</ele><time>2026-04-12T15:12:17.818Z</time></trkpt><trkpt lat="53.57691611119967" lon="14.800447294871404"><ele>11.333333333333332</ele><time>2026-04-12T15:12:18.818Z</time></trkpt><trkpt lat="53.57673770595501" lon="14.800556205356123"><ele>13.0</ele><time>2026-04-12T15:12:19.818Z</time></trkpt><trkpt lat="53.57654401577825" lon="14.800675661801673"><ele>13.0</ele><time>2026-04-12T15:12:20.818Z</time></trkpt><trkpt lat="53.576355640416104" lon="14.800792247269989"><ele>13.0</ele><time>2026-04-12T15:12:21.818Z</time></trkpt><trkpt lat="53.57618100345511" lon="14.800899634874003"><ele>13.0</ele><time>2026-04-12T15:12:22.818Z</time></trkpt><trkpt lat="53.57602740691463" lon="14.800993672565266"><ele>12.5</ele><time>2026-04-12T15:12:23.818Z</time></trkpt><trkpt lat="53.57588862371901" lon="14.801104531700561"><ele>12.0</ele><time>2026-04-12T15:12:24.818Z</time></trkpt><trkpt lat="53.57575587218596" lon="14.801182921004141"><ele>11.5</ele><time>2026-04-12T15:12:25.818Z</time></trkpt><trkpt lat="53.57563233977565" lon="14.80126265817505"><ele>11.0</ele><time>2026-04-12T15:12:26.818Z</time></trkpt><trkpt lat="53.57552042180748" lon="14.801330523436583"><ele>11.0</ele><time>2026-04-12T15:12:27.818Z</time></trkpt><trkpt lat="53.575402038717385" lon="14.801400791765209"><ele>11.0</ele><time>2026-04-12T15:12:28.818Z</time></trkpt><trkpt lat="53.57527442205305" lon="14.801472174747838"><ele>11.0</ele><time>2026-04-12T15:12:29.818Z</time></trkpt><trkpt lat="53.57514240061725" lon="14.8015538433546"><ele>11.0</ele><time>2026-04-12T15:12:30.818Z</time></trkpt><trkpt lat="53.575008147612415" lon="14.8016470235576"><ele>11.5</ele><time>2026-04-12T15:12:31.818Z</time></trkpt><trkpt lat="53.5748758048972" lon="14.801728136137527"><ele>12.0</ele><time>2026-04-12T15:12:32.818Z</time></trkpt><trkpt lat="53.57474472615323" lon="14.801791948809946"><ele>12.5</ele><time>2026-04-12T15:12:33.818Z</time></trkpt><trkpt lat="53.57460832553683" lon="14.801796155485775"><ele>13.0</ele><time>2026-04-12T15:12:34.818Z</time></trkpt><trkpt lat="53.57447292788298" lon="14.801792639582363"><ele>13.666666666666666</ele><time>2026-04-12T15:12:35.818Z</time></trkpt><trkpt lat="53.57433220464051" lon="14.801761488596375"><ele>14.333333333333332</ele><time>2026-04-12T15:12:36.818Z</time></trkpt><trkpt lat="53.57418570173641" lon="14.801679806240553"><ele>15.0</ele><time>2026-04-12T15:12:37.818Z</time></trkpt><trkpt lat="53.57402468431518" lon="14.801547117561286"><ele>15.0</ele><time>2026-04-12T15:12:38.818Z</time></trkpt><trkpt lat="53.57385627232013" lon="14.8013968331521"><ele>15.0</ele><time>2026-04-12T15:12:39.818Z</time></trkpt><trkpt lat="53.573668374975654" lon="14.801227990445337"><ele>15.0</ele><time>2026-04-12T15:12:40.818Z</time></trkpt><trkpt lat="53.57347127264428" lon="14.801050550072144"><ele>16.0</ele><time>2026-04-12T15:12:41.818Z</time></trkpt><trkpt lat="53.57327431207657" lon="14.800873081957329"><ele>17.0</ele><time>2026-04-12T15:12:42.818Z</time></trkpt><trkpt lat="53.57306801618387" lon="14.80068614755772"><ele>17.0</ele><time>2026-04-12T15:12:43.818Z</time></trkpt><trkpt lat="53.5728632217891" lon="14.800497763260411"><ele>17.0</ele><time>2026-04-12T15:12:44.818Z</time></trkpt><trkpt lat="53.57267800436361" lon="14.800320010361405"><ele>17.0</ele><time>2026-04-12T15:12:45.818Z</time></trkpt><trkpt lat="53.57251640626956" lon="14.800116903279669"><ele>16.666666666666668</ele><time>2026-04-12T15:12:46.818Z</time></trkpt><trkpt lat="53.57239081288384" lon="14.799862755163355"><ele>16.333333333333332</ele><time>2026-04-12T15:12:47.818Z</time></trkpt><trkpt lat="53.572299910592605" lon="14.799565520903043"><ele>16.0</ele><time>2026-04-12T15:12:48.818Z</time></trkpt><trkpt lat="53.5722425714792" lon="14.799237800361983"><ele>15.333333333333332</ele><time>2026-04-12T15:12:49.818Z</time></trkpt><trkpt lat="53.57222801845919" lon="14.798880369951613"><ele>14.666666666666668</ele><time>2026-04-12T15:12:50.818Z</time></trkpt><trkpt lat="53.57223279535664" lon="14.798505768879846"><ele>14.0</ele><time>2026-04-12T15:12:51.818Z</time></trkpt><trkpt lat="53.57223011526019" lon="14.798130765603561"><ele>13.0</ele><time>2026-04-12T15:12:52.818Z</time></trkpt><trkpt lat="53.57224315105753" lon="14.797771721958288"><ele>12.0</ele><time>2026-04-12T15:12:53.818Z</time></trkpt><trkpt lat="53.572254044540095" lon="14.797434345130513"><ele>11.0</ele><time>2026-04-12T15:12:54.818Z</time></trkpt><trkpt lat="53.57225474675125" lon="14.797141468016415"><ele>11.0</ele><time>2026-04-12T15:12:55.818Z</time></trkpt><trkpt lat="53.57223056845594" lon="14.796892114537476"><ele>11.0</ele><time>2026-04-12T15:12:56.818Z</time></trkpt><trkpt lat="53.57217799477097" lon="14.79666690647659"><ele>11.0</ele><time>2026-04-12T15:12:57.818Z</time></trkpt><trkpt lat="53.572068652000326" lon="14.796494904099564"><ele>11.0</ele><time>2026-04-12T15:12:58.818Z</time></trkpt><trkpt lat="53.57194486550923" lon="14.796415105993352"><ele>12.200000000000001</ele><time>2026-04-12T15:12:59.818Z</time></trkpt><trkpt lat="53.57185280068982" lon="14.796347364800761"><ele>13.4</ele><time>2026-04-12T15:13:00.818Z</time></trkpt><trkpt lat="53.571787499092885" lon="14.796291265394743"><ele>14.6</ele><time>2026-04-12T15:13:01.818Z</time></trkpt><trkpt lat="53.57173263958611" lon="14.796218306920778"><ele>15.8</ele><time>2026-04-12T15:13:03.818Z</time></trkpt><trkpt lat="53.57166916830333" lon="14.7961303007623"><ele>17.0</ele><time>2026-04-12T15:13:34.816Z</time></trkpt><trkpt lat="53.571746456695514" lon="14.795895491433035"><ele>17.0</ele><time>2026-04-12T15:13:35.816Z</time></trkpt><trkpt lat="53.57178474999909" lon="14.795740788405242"><ele>17.0</ele><time>2026-04-12T15:13:36.816Z</time></trkpt><trkpt lat="53.571828752084784" lon="14.795563082836722"><ele>17.0</ele><time>2026-04-12T15:13:37.816Z</time></trkpt><trkpt lat="53.57185602736572" lon="14.795382053334192"><ele>17.0</ele><time>2026-04-12T15:13:38.816Z</time></trkpt><trkpt lat="53.57190713228926" lon="14.795177790612954"><ele>17.666666666666668</ele><time>2026-04-12T15:13:39.816Z</time></trkpt><trkpt lat="53.57196963993106" lon="14.794945042439831"><ele>18.333333333333332</ele><time>2026-04-12T15:13:40.816Z</time></trkpt><trkpt lat="53.57203538799685" lon="14.794712418626396"><ele>19.0</ele><time>2026-04-12T15:13:41.816Z</time></trkpt><trkpt lat="53.57209065088623" lon="14.794479823931226"><ele>18.75</ele><time>2026-04-12T15:13:42.816Z</time></trkpt><trkpt lat="53.5721373945325" lon="14.794270578609368"><ele>18.5</ele><time>2026-04-12T15:13:43.816Z</time></trkpt><trkpt lat="53.57218758319754" lon="14.794059047034446"><ele>18.25</ele><time>2026-04-12T15:13:44.816Z</time></trkpt><trkpt lat="53.572264532840194" lon="14.793815390434144"><ele>18.0</ele><time>2026-04-12T15:13:45.816Z</time></trkpt><trkpt lat="53.57234018799284" lon="14.793508654718424"><ele>17.333333333333332</ele><time>2026-04-12T15:13:46.816Z</time></trkpt><trkpt lat="53.57241663673397" lon="14.793201386353942"><ele>16.666666666666664</ele><time>2026-04-12T15:13:47.816Z</time></trkpt><trkpt lat="53.572492492139865" lon="14.792896346508785"><ele>16.0</ele><time>2026-04-12T15:13:48.816Z</time></trkpt><trkpt lat="53.572561207690335" lon="14.792616392287007"><ele>16.0</ele><time>2026-04-12T15:13:49.816Z</time></trkpt><trkpt lat="53.57262875793872" lon="14.792343394267103"><ele>16.0</ele><time>2026-04-12T15:13:50.816Z</time></trkpt><trkpt lat="53.57269713482422" lon="14.792066045041881"><ele>16.0</ele><time>2026-04-12T15:13:51.816Z</time></trkpt><trkpt lat="53.572765170682636" lon="14.791788396992066"><ele>15.666666666666666</ele><time>2026-04-12T15:13:52.816Z</time></trkpt><trkpt lat="53.5728302138359" lon="14.791527842873432"><ele>15.333333333333332</ele><time>2026-04-12T15:13:53.816Z</time></trkpt><trkpt lat="53.57288923805986" lon="14.791293901446139"><ele>15.0</ele><time>2026-04-12T15:13:54.816Z</time></trkpt><trkpt lat="53.57294039013716" lon="14.791089732583075"><ele>16.0</ele><time>2026-04-12T15:13:55.816Z</time></trkpt><trkpt lat="53.572985308765055" lon="14.790906657797239"><ele>17.0</ele><time>2026-04-12T15:13:56.816Z</time></trkpt><trkpt lat="53.57302478188104" lon="14.7907454828033"><ele>18.0</ele><time>2026-04-12T15:13:57.816Z</time></trkpt><trkpt lat="53.57305955670745" lon="14.790603546754735"><ele>19.0</ele><time>2026-04-12T15:13:58.816Z</time></trkpt><trkpt lat="53.57309361489724" lon="14.790464535617982"><ele>20.0</ele><time>2026-04-12T15:13:59.816Z</time></trkpt><trkpt lat="53.5731311975151" lon="14.790309485455406"><ele>20.0</ele><time>2026-04-12T15:14:00.816Z</time></trkpt><trkpt lat="53.57316204470785" lon="14.790179633805469"><ele>20.0</ele><time>2026-04-12T15:14:01.816Z</time></trkpt><trkpt lat="53.573186239972756" lon="14.790071105238415"><ele>20.0</ele><time>2026-04-12T15:14:02.816Z</time></trkpt><trkpt lat="53.57306297388905" lon="14.789844424305443"><ele>20.0</ele><time>2026-04-12T15:14:04.816Z</time></trkpt><trkpt lat="53.57294912307104" lon="14.789797716439367"><ele>19.75</ele><time>2026-04-12T15:14:05.816Z</time></trkpt><trkpt lat="53.572888907275434" lon="14.789691379763177"><ele>19.5</ele><time>2026-04-12T15:14:06.816Z</time></trkpt><trkpt lat="53.57274489450689" lon="14.789614712627438"><ele>19.25</ele><time>2026-04-12T15:14:07.816Z</time></trkpt><trkpt lat="53.57259108419755" lon="14.78951134598074"><ele>19.0</ele><time>2026-04-12T15:14:08.816Z</time></trkpt><trkpt lat="53.57243111714402" lon="14.789401017750151"><ele>18.666666666666664</ele><time>2026-04-12T15:14:09.816Z</time></trkpt><trkpt lat="53.57227181808729" lon="14.789294305113645"><ele>18.333333333333332</ele><time>2026-04-12T15:14:10.816Z</time></trkpt><trkpt lat="53.57210585523071" lon="14.78918395289683"><ele>18.0</ele><time>2026-04-12T15:14:11.816Z</time></trkpt><trkpt lat="53.57193574985506" lon="14.789073614041527"><ele>18.0</ele><time>2026-04-12T15:14:12.816Z</time></trkpt><trkpt lat="53.571762095051874" lon="14.788957597140653"><ele>18.0</ele><time>2026-04-12T15:14:13.816Z</time></trkpt><trkpt lat="53.57158821081585" lon="14.788836372518697"><ele>18.0</ele><time>2026-04-12T15:14:14.816Z</time></trkpt><trkpt lat="53.57141132394173" lon="14.788712774090177"><ele>18.0</ele><time>2026-04-12T15:14:15.816Z</time></trkpt><trkpt lat="53.57123124162935" lon="14.788590001438173"><ele>18.0</ele><time>2026-04-12T15:14:16.816Z</time></trkpt><trkpt lat="53.571045386104544" lon="14.78846363536213"><ele>18.0</ele><time>2026-04-12T15:14:17.816Z</time></trkpt><trkpt lat="53.570859312294715" lon="14.788336127735164"><ele>17.333333333333332</ele><time>2026-04-12T15:14:18.816Z</time></trkpt><trkpt lat="53.57066957706564" lon="14.788198780832836"><ele>16.666666666666664</ele><time>2026-04-12T15:14:19.816Z</time></trkpt><trkpt lat="53.5704741663726" lon="14.788057750354772"><ele>16.0</ele><time>2026-04-12T15:14:20.816Z</time></trkpt><trkpt lat="53.57027946307746" lon="14.787920469782483"><ele>15.0</ele><time>2026-04-12T15:14:21.816Z</time></trkpt><trkpt lat="53.57008646717792" lon="14.787789007278432"><ele>14.0</ele><time>2026-04-12T15:14:22.816Z</time></trkpt><trkpt lat="53.56989515165664" lon="14.787663556869514"><ele>13.0</ele><time>2026-04-12T15:14:23.816Z</time></trkpt><trkpt lat="53.56971038941598" lon="14.787542369417041"><ele>13.0</ele><time>2026-04-12T15:14:24.816Z</time></trkpt><trkpt lat="53.56953600242137" lon="14.787419290552556"><ele>13.0</ele><time>2026-04-12T15:14:25.816Z</time></trkpt><trkpt lat="53.56935389095384" lon="14.787304583142452"><ele>13.0</ele><time>2026-04-12T15:14:26.816Z</time></trkpt><trkpt lat="53.56916890086044" lon="14.787179733397807"><ele>12.666666666666666</ele><time>2026-04-12T15:14:27.816Z</time></trkpt><trkpt lat="53.568977259026376" lon="14.787061052115215"><ele>12.333333333333332</ele><time>2026-04-12T15:14:28.816Z</time></trkpt><trkpt lat="53.568794067647076" lon="14.786895375417267"><ele>12.0</ele><time>2026-04-12T15:14:29.816Z</time></trkpt><trkpt lat="53.56860634334261" lon="14.786745010989002"><ele>9.0</ele><time>2026-04-12T15:14:30.816Z</time></trkpt><trkpt lat="53.56842546671062" lon="14.786592609589547"><ele>6.0</ele><time>2026-04-12T15:14:31.816Z</time></trkpt><trkpt lat="53.56827131698675" lon="14.786452236098011"><ele>3.0</ele><time>2026-04-12T15:14:32.816Z</time></trkpt><trkpt lat="53.568120678175006" lon="14.786336269383582"><ele>3.0</ele><time>2026-04-12T15:14:33.816Z</time></trkpt><trkpt lat="53.56795933290687" lon="14.786161171434548"><ele>3.0</ele><time>2026-04-12T15:14:34.816Z</time></trkpt><trkpt lat="53.56774716593237" lon="14.785992377650308"><ele>3.0</ele><time>2026-04-12T15:14:35.816Z</time></trkpt><trkpt lat="53.56757537651866" lon="14.785833255971509"><ele>2.0</ele><time>2026-04-12T15:14:36.816Z</time></trkpt><trkpt lat="53.5673916170186" lon="14.7856836690948"><ele>1.0</ele><time>2026-04-12T15:14:37.816Z</time></trkpt><trkpt lat="53.56720004041478" lon="14.785541662031335"><ele>0.0</ele><time>2026-04-12T15:14:38.816Z</time></trkpt><trkpt lat="53.56700372715703" lon="14.785403877718563"><ele>0.0</ele><time>2026-04-12T15:14:39.816Z</time></trkpt><trkpt lat="53.56681559841652" lon="14.785253205328832"><ele>0.0</ele><time>2026-04-12T15:14:40.816Z</time></trkpt><trkpt lat="53.56661771255773" lon="14.7851342912516"><ele>0.0</ele><time>2026-04-12T15:14:41.816Z</time></trkpt><trkpt lat="53.56642173850198" lon="14.7850197292549"><ele>0.0</ele><time>2026-04-12T15:14:42.816Z</time></trkpt><trkpt lat="53.56622600401133" lon="14.784902319839645"><ele>0.0</ele><time>2026-04-12T15:14:43.816Z</time></trkpt><trkpt lat="53.56602107136923" lon="14.78479800094602"><ele>0.0</ele><time>2026-04-12T15:14:44.816Z</time></trkpt><trkpt lat="53.56580555364553" lon="14.784699664449214"><ele>0.3333333333333333</ele><time>2026-04-12T15:14:45.816Z</time></trkpt><trkpt lat="53.56560494484539" lon="14.784588820392031"><ele>0.6666666666666666</ele><time>2026-04-12T15:14:46.816Z</time></trkpt><trkpt lat="53.56540487793854" lon="14.784461566852482"><ele>1.0</ele><time>2026-04-12T15:14:47.816Z</time></trkpt><trkpt lat="53.56519727151323" lon="14.784348792865195"><ele>0.6666666666666666</ele><time>2026-04-12T15:14:48.816Z</time></trkpt><trkpt lat="53.56498456780289" lon="14.784235845135399"><ele>0.3333333333333333</ele><time>2026-04-12T15:14:49.816Z</time></trkpt><trkpt lat="53.564769305144544" lon="14.784127252236734"><ele>0.0</ele><time>2026-04-12T15:14:50.816Z</time></trkpt><trkpt lat="53.56455486644788" lon="14.784022247043255"><ele>-0.5</ele><time>2026-04-12T15:14:51.816Z</time></trkpt><trkpt lat="53.56433793553568" lon="14.783924961004939"><ele>-1.0</ele><time>2026-04-12T15:14:52.816Z</time></trkpt><trkpt lat="53.564116749024215" lon="14.783831353440922"><ele>-1.0</ele><time>2026-04-12T15:14:53.816Z</time></trkpt><trkpt lat="53.56389228730381" lon="14.783760712674122"><ele>-1.0</ele><time>2026-04-12T15:14:54.816Z</time></trkpt><trkpt lat="53.56366592152015" lon="14.783714666192799"><ele>0.5</ele><time>2026-04-12T15:14:55.816Z</time></trkpt><trkpt lat="53.563436206705646" lon="14.78368590290542"><ele>2.0</ele><time>2026-04-12T15:14:56.816Z</time></trkpt><trkpt lat="53.563194755589485" lon="14.783672108236575"><ele>2.0</ele><time>2026-04-12T15:14:57.816Z</time></trkpt><trkpt lat="53.56296246819952" lon="14.783683654306014"><ele>2.0</ele><time>2026-04-12T15:14:58.816Z</time></trkpt><trkpt lat="53.562727272338485" lon="14.783711259920636"><ele>5.5</ele><time>2026-04-12T15:14:59.816Z</time></trkpt><trkpt lat="53.56249905896658" lon="14.783744947444026"><ele>9.0</ele><time>2026-04-12T15:15:00.816Z</time></trkpt><trkpt lat="53.56227190870423" lon="14.783799276168049"><ele>9.0</ele><time>2026-04-12T15:15:01.816Z</time></trkpt><trkpt lat="53.56206964067714" lon="14.783883793910313"><ele>9.0</ele><time>2026-04-12T15:15:02.816Z</time></trkpt><trkpt lat="53.56186500734337" lon="14.78399047922718"><ele>9.0</ele><time>2026-04-12T15:15:03.816Z</time></trkpt><trkpt lat="53.56165793763961" lon="14.784090717621805"><ele>11.5</ele><time>2026-04-12T15:15:04.816Z</time></trkpt><trkpt lat="53.56145063113684" lon="14.784225062735828"><ele>14.0</ele><time>2026-04-12T15:15:05.816Z</time></trkpt><trkpt lat="53.56123605376863" lon="14.784381454218927"><ele>14.333333333333334</ele><time>2026-04-12T15:15:06.816Z</time></trkpt><trkpt lat="53.56103636437384" lon="14.784559213158499"><ele>14.666666666666668</ele><time>2026-04-12T15:15:07.816Z</time></trkpt><trkpt lat="53.56084278634097" lon="14.784740435725526"><ele>15.0</ele><time>2026-04-12T15:15:08.816Z</time></trkpt><trkpt lat="53.5606535880173" lon="14.784927681665119"><ele>15.0</ele><time>2026-04-12T15:15:09.816Z</time></trkpt><trkpt lat="53.560465419177014" lon="14.785132239824087"><ele>15.0</ele><time>2026-04-12T15:15:10.816Z</time></trkpt><trkpt lat="53.56027870075673" lon="14.785341753588323"><ele>15.0</ele><time>2026-04-12T15:15:11.816Z</time></trkpt><trkpt lat="53.56008902624118" lon="14.785565021551951"><ele>14.0</ele><time>2026-04-12T15:15:12.816Z</time></trkpt><trkpt lat="53.55989445702873" lon="14.785784990327418"><ele>13.0</ele><time>2026-04-12T15:15:13.816Z</time></trkpt><trkpt lat="53.559693811961594" lon="14.786008017904129"><ele>13.5</ele><time>2026-04-12T15:15:14.816Z</time></trkpt><trkpt lat="53.55949340040681" lon="14.786223393380626"><ele>14.0</ele><time>2026-04-12T15:15:15.816Z</time></trkpt><trkpt lat="53.55930092226659" lon="14.786444940188103"><ele>14.0</ele><time>2026-04-12T15:15:16.816Z</time></trkpt><trkpt lat="53.55910816965688" lon="14.78666772357957"><ele>14.0</ele><time>2026-04-12T15:15:17.816Z</time></trkpt><trkpt lat="53.5589163791485" lon="14.786884188185349"><ele>14.0</ele><time>2026-04-12T15:15:18.816Z</time></trkpt><trkpt lat="53.558725007447975" lon="14.787092035458807"><ele>14.0</ele><time>2026-04-12T15:15:19.816Z</time></trkpt><trkpt lat="53.55854244826584" lon="14.787300939313981"><ele>14.0</ele><time>2026-04-12T15:15:20.816Z</time></trkpt><trkpt lat="53.558345569524135" lon="14.787475039464931"><ele>14.0</ele><time>2026-04-12T15:15:21.816Z</time></trkpt><trkpt lat="53.55814931361726" lon="14.787663063933978"><ele>14.0</ele><time>2026-04-12T15:15:22.816Z</time></trkpt><trkpt lat="53.557944237173665" lon="14.787849588955469"><ele>14.0</ele><time>2026-04-12T15:15:23.816Z</time></trkpt><trkpt lat="53.557736821614895" lon="14.78802548186858"><ele>14.0</ele><time>2026-04-12T15:15:24.816Z</time></trkpt><trkpt lat="53.55753428110996" lon="14.788212234443574"><ele>14.0</ele><time>2026-04-12T15:15:25.815Z</time></trkpt><trkpt lat="53.55731829622758" lon="14.788363704108724"><ele>14.0</ele><time>2026-04-12T15:15:26.815Z</time></trkpt><trkpt lat="53.5571063251412" lon="14.78851459066375"><ele>13.333333333333334</ele><time>2026-04-12T15:15:27.815Z</time></trkpt><trkpt lat="53.55689914005878" lon="14.78864679064869"><ele>12.666666666666668</ele><time>2026-04-12T15:15:28.815Z</time></trkpt><trkpt lat="53.55669108386259" lon="14.788768823059405"><ele>12.0</ele><time>2026-04-12T15:15:29.815Z</time></trkpt><trkpt lat="53.55647698767655" lon="14.788882887177895"><ele>12.0</ele><time>2026-04-12T15:15:30.815Z</time></trkpt><trkpt lat="53.55626981197691" lon="14.788980739056196"><ele>12.0</ele><time>2026-04-12T15:15:31.815Z</time></trkpt><trkpt lat="53.556085535517184" lon="14.789065447295945"><ele>12.0</ele><time>2026-04-12T15:15:32.815Z</time></trkpt><trkpt lat="53.55591963547355" lon="14.789162565220863"><ele>12.666666666666668</ele><time>2026-04-12T15:15:33.815Z</time></trkpt><trkpt lat="53.55574234825846" lon="14.789248989421797"><ele>13.333333333333334</ele><time>2026-04-12T15:15:34.815Z</time></trkpt><trkpt lat="53.555581600400785" lon="14.789348866391062"><ele>14.0</ele><time>2026-04-12T15:15:35.815Z</time></trkpt><trkpt lat="53.55542968880569" lon="14.789426818095107"><ele>13.2</ele><time>2026-04-12T15:15:36.815Z</time></trkpt><trkpt lat="53.55529513439265" lon="14.789483687910181"><ele>12.399999999999999</ele><time>2026-04-12T15:15:37.815Z</time></trkpt><trkpt lat="53.55518513862614" lon="14.789540624889124"><ele>11.6</ele><time>2026-04-12T15:15:38.815Z</time></trkpt><trkpt lat="53.55509131728649" lon="14.789593116828739"><ele>10.8</ele><time>2026-04-12T15:15:39.815Z</time></trkpt><trkpt lat="53.555020728672815" lon="14.789625265419795"><ele>10.0</ele><time>2026-04-12T15:15:40.815Z</time></trkpt><trkpt lat="53.55493801290449" lon="14.789680457272834"><ele>10.0</ele><time>2026-04-12T15:15:42.815Z</time></trkpt><trkpt lat="53.55486584783844" lon="14.789699489533772"><ele>10.0</ele><time>2026-04-12T15:15:44.815Z</time></trkpt><trkpt lat="53.554755611583126" lon="14.789772132101426"><ele>10.0</ele><time>2026-04-12T15:15:47.815Z</time></trkpt><trkpt lat="53.55466815663211" lon="14.789834609571056"><ele>10.0</ele><time>2026-04-12T15:15:48.815Z</time></trkpt><trkpt lat="53.55457039008667" lon="14.789909974650245"><ele>10.0</ele><time>2026-04-12T15:15:49.815Z</time></trkpt><trkpt lat="53.554461090254186" lon="14.790005531691026"><ele>7.666666666666667</ele><time>2026-04-12T15:15:50.815Z</time></trkpt><trkpt lat="53.554334477534866" lon="14.790113958510423"><ele>5.333333333333334</ele><time>2026-04-12T15:15:51.815Z</time></trkpt><trkpt lat="53.55420723957164" lon="14.790219052742813"><ele>3.0</ele><time>2026-04-12T15:15:52.815Z</time></trkpt><trkpt lat="53.55402848669076" lon="14.790348861205748"><ele>3.0</ele><time>2026-04-12T15:15:53.815Z</time></trkpt><trkpt lat="53.5538514036366" lon="14.790467117559622"><ele>3.0</ele><time>2026-04-12T15:15:54.815Z</time></trkpt><trkpt lat="53.55365593818317" lon="14.790575930642998"><ele>3.0</ele><time>2026-04-12T15:15:55.815Z</time></trkpt><trkpt lat="53.55345823134232" lon="14.790676521999409"><ele>3.0</ele><time>2026-04-12T15:15:56.815Z</time></trkpt><trkpt lat="53.553264161993326" lon="14.790760138790352"><ele>3.0</ele><time>2026-04-12T15:15:57.815Z</time></trkpt><trkpt lat="53.553066835165104" lon="14.790855596427905"><ele>3.0</ele><time>2026-04-12T15:15:58.815Z</time></trkpt><trkpt lat="53.55286526586596" lon="14.79095949994792"><ele>3.333333333333333</ele><time>2026-04-12T15:15:59.815Z</time></trkpt><trkpt lat="53.552662180244816" lon="14.791065263148385"><ele>3.6666666666666665</ele><time>2026-04-12T15:16:00.815Z</time></trkpt><trkpt lat="53.55245526621203" lon="14.791167094979647"><ele>4.0</ele><time>2026-04-12T15:16:01.815Z</time></trkpt><trkpt lat="53.55224377398073" lon="14.79124905291176"><ele>4.0</ele><time>2026-04-12T15:16:02.815Z</time></trkpt><trkpt lat="53.552036272626026" lon="14.791359221695558"><ele>4.0</ele><time>2026-04-12T15:16:03.815Z</time></trkpt><trkpt lat="53.551823164770646" lon="14.791468591418433"><ele>4.0</ele><time>2026-04-12T15:16:04.815Z</time></trkpt><trkpt lat="53.55161395093821" lon="14.791577612867323"><ele>4.0</ele><time>2026-04-12T15:16:05.815Z</time></trkpt><trkpt lat="53.551399778275055" lon="14.791689632819315"><ele>4.0</ele><time>2026-04-12T15:16:06.815Z</time></trkpt><trkpt lat="53.55118616447968" lon="14.79179560979087"><ele>4.0</ele><time>2026-04-12T15:16:07.815Z</time></trkpt><trkpt lat="53.55096888792749" lon="14.791902839418064"><ele>4.0</ele><time>2026-04-12T15:16:08.815Z</time></trkpt><trkpt lat="53.5507580013091" lon="14.792013659632042"><ele>4.0</ele><time>2026-04-12T15:16:09.815Z</time></trkpt><trkpt lat="53.55054809773231" lon="14.792120232224425"><ele>4.0</ele><time>2026-04-12T15:16:10.815Z</time></trkpt><trkpt lat="53.55033565056748" lon="14.792231105274261"><ele>4.0</ele><time>2026-04-12T15:16:11.815Z</time></trkpt><trkpt lat="53.55013076632694" lon="14.792333801853937"><ele>4.0</ele><time>2026-04-12T15:16:12.815Z</time></trkpt><trkpt lat="53.549924845789455" lon="14.79243869896245"><ele>4.0</ele><time>2026-04-12T15:16:13.815Z</time></trkpt><trkpt lat="53.54971772696959" lon="14.792546311660606"><ele>4.0</ele><time>2026-04-12T15:16:14.815Z</time></trkpt><trkpt lat="53.54951194459269" lon="14.792650928686196"><ele>4.0</ele><time>2026-04-12T15:16:15.815Z</time></trkpt><trkpt lat="53.54931258550705" lon="14.792755156226441"><ele>4.0</ele><time>2026-04-12T15:16:16.815Z</time></trkpt><trkpt lat="53.54910447241742" lon="14.792830754274409"><ele>3.6666666666666665</ele><time>2026-04-12T15:16:17.815Z</time></trkpt><trkpt lat="53.54890659443607" lon="14.792957601851851"><ele>3.333333333333333</ele><time>2026-04-12T15:16:18.815Z</time></trkpt><trkpt lat="53.54870266057244" lon="14.793058753035561"><ele>3.0</ele><time>2026-04-12T15:16:19.815Z</time></trkpt><trkpt lat="53.54849774678639" lon="14.793162606285382"><ele>3.0</ele><time>2026-04-12T15:16:20.815Z</time></trkpt><trkpt lat="53.54829018920175" lon="14.793266292297227"><ele>3.0</ele><time>2026-04-12T15:16:21.815Z</time></trkpt><trkpt lat="53.548079471521646" lon="14.79337266190342"><ele>3.0</ele><time>2026-04-12T15:16:22.815Z</time></trkpt><trkpt lat="53.54786739080127" lon="14.793479412019726"><ele>2.5</ele><time>2026-04-12T15:16:23.815Z</time></trkpt><trkpt lat="53.54764917318572" lon="14.793588482330653"><ele>2.0</ele><time>2026-04-12T15:16:24.815Z</time></trkpt><trkpt lat="53.54742818615692" lon="14.793700627434694"><ele>2.0</ele><time>2026-04-12T15:16:25.815Z</time></trkpt><trkpt lat="53.547215129228675" lon="14.79380521281667"><ele>2.0</ele><time>2026-04-12T15:16:26.815Z</time></trkpt><trkpt lat="53.547003640090814" lon="14.793911134806413"><ele>2.0</ele><time>2026-04-12T15:16:27.815Z</time></trkpt><trkpt lat="53.54679294498233" lon="14.794013973724311"><ele>2.5</ele><time>2026-04-12T15:16:28.815Z</time></trkpt><trkpt lat="53.54657450261177" lon="14.794123956038101"><ele>3.0</ele><time>2026-04-12T15:16:29.815Z</time></trkpt><trkpt lat="53.546352857879484" lon="14.79423247143778"><ele>3.0</ele><time>2026-04-12T15:16:30.815Z</time></trkpt><trkpt lat="53.546125984549946" lon="14.794345085999831"><ele>3.0</ele><time>2026-04-12T15:16:31.815Z</time></trkpt><trkpt lat="53.5459052514312" lon="14.794454707682249"><ele>3.0</ele><time>2026-04-12T15:16:32.815Z</time></trkpt><trkpt lat="53.545685518066264" lon="14.794578168509608"><ele>3.0</ele><time>2026-04-12T15:16:33.815Z</time></trkpt><trkpt lat="53.54546308730443" lon="14.794684600081084"><ele>3.5</ele><time>2026-04-12T15:16:34.815Z</time></trkpt><trkpt lat="53.54523822148217" lon="14.794793882261084"><ele>4.0</ele><time>2026-04-12T15:16:35.815Z</time></trkpt><trkpt lat="53.545012340433736" lon="14.794904994666389"><ele>4.0</ele><time>2026-04-12T15:16:36.815Z</time></trkpt><trkpt lat="53.54479142952211" lon="14.795017391433495"><ele>4.0</ele><time>2026-04-12T15:16:37.815Z</time></trkpt><trkpt lat="53.544569134466066" lon="14.795125188390466"><ele>3.5</ele><time>2026-04-12T15:16:38.815Z</time></trkpt><trkpt lat="53.544348531919624" lon="14.795237652582598"><ele>3.0</ele><time>2026-04-12T15:16:39.815Z</time></trkpt><trkpt lat="53.54412727395792" lon="14.795351685716737"><ele>3.0</ele><time>2026-04-12T15:16:40.815Z</time></trkpt><trkpt lat="53.54390805113437" lon="14.795461608451824"><ele>3.0</ele><time>2026-04-12T15:16:41.815Z</time></trkpt><trkpt lat="53.543679838603055" lon="14.795577645038918"><ele>2.3333333333333335</ele><time>2026-04-12T15:16:42.815Z</time></trkpt><trkpt lat="53.54346386866168" lon="14.795684158783391"><ele>1.6666666666666665</ele><time>2026-04-12T15:16:43.815Z</time></trkpt><trkpt lat="53.54325712801039" lon="14.79577772905631"><ele>1.0</ele><time>2026-04-12T15:16:44.815Z</time></trkpt><trkpt lat="53.54304660591616" lon="14.795891921271709"><ele>1.3333333333333333</ele><time>2026-04-12T15:16:45.815Z</time></trkpt><trkpt lat="53.542835622048074" lon="14.796003227132775"><ele>1.6666666666666665</ele><time>2026-04-12T15:16:46.815Z</time></trkpt><trkpt lat="53.54262384222489" lon="14.79611057634913"><ele>2.0</ele><time>2026-04-12T15:16:47.815Z</time></trkpt><trkpt lat="53.54240838919307" lon="14.79621161873144"><ele>2.0</ele><time>2026-04-12T15:16:48.815Z</time></trkpt><trkpt lat="53.54218674137391" lon="14.796317889656283"><ele>2.0</ele><time>2026-04-12T15:16:49.815Z</time></trkpt><trkpt lat="53.541966876163485" lon="14.79642580780035"><ele>2.5</ele><time>2026-04-12T15:16:50.815Z</time></trkpt><trkpt lat="53.541746059339815" lon="14.796538937884915"><ele>3.0</ele><time>2026-04-12T15:16:51.815Z</time></trkpt><trkpt lat="53.541528620696745" lon="14.796645240916163"><ele>3.0</ele><time>2026-04-12T15:16:52.815Z</time></trkpt><trkpt lat="53.5413093319101" lon="14.796752173046347"><ele>3.0</ele><time>2026-04-12T15:16:53.815Z</time></trkpt><trkpt lat="53.54108893252834" lon="14.796858360632067"><ele>3.0</ele><time>2026-04-12T15:16:54.815Z</time></trkpt><trkpt lat="53.54086913059346" lon="14.79696740522708"><ele>3.0</ele><time>2026-04-12T15:16:55.815Z</time></trkpt><trkpt lat="53.54064913767704" lon="14.797074928750538"><ele>3.0</ele><time>2026-04-12T15:16:56.815Z</time></trkpt><trkpt lat="53.54042815807919" lon="14.797193912366044"><ele>3.0</ele><time>2026-04-12T15:16:57.815Z</time></trkpt><trkpt lat="53.54021160224415" lon="14.797301076154687"><ele>3.0</ele><time>2026-04-12T15:16:58.815Z</time></trkpt><trkpt lat="53.539991183046844" lon="14.79741176615641"><ele>3.0</ele><time>2026-04-12T15:16:59.815Z</time></trkpt><trkpt lat="53.53977667748153" lon="14.797522040971877"><ele>3.0</ele><time>2026-04-12T15:17:00.815Z</time></trkpt><trkpt lat="53.53955772746097" lon="14.797635086517287"><ele>3.0</ele><time>2026-04-12T15:17:01.815Z</time></trkpt><trkpt lat="53.5393372786322" lon="14.797747085772844"><ele>3.0</ele><time>2026-04-12T15:17:02.815Z</time></trkpt><trkpt lat="53.539118380149866" lon="14.79785628441049"><ele>3.0</ele><time>2026-04-12T15:17:03.815Z</time></trkpt><trkpt lat="53.53890839074319" lon="14.79795286794607"><ele>3.0</ele><time>2026-04-12T15:17:04.815Z</time></trkpt><trkpt lat="53.53869002673657" lon="14.798069671130825"><ele>3.0</ele><time>2026-04-12T15:17:05.815Z</time></trkpt><trkpt lat="53.538477067132725" lon="14.798181179804374"><ele>3.0</ele><time>2026-04-12T15:17:06.815Z</time></trkpt><trkpt lat="53.53827404000143" lon="14.798287172351818"><ele>3.0</ele><time>2026-04-12T15:17:07.815Z</time></trkpt><trkpt lat="53.53807259712113" lon="14.79839939936188"><ele>3.0</ele><time>2026-04-12T15:17:08.815Z</time></trkpt><trkpt lat="53.537865766017404" lon="14.798511765306243"><ele>3.0</ele><time>2026-04-12T15:17:09.815Z</time></trkpt><trkpt lat="53.53765318077533" lon="14.798617073429225"><ele>3.0</ele><time>2026-04-12T15:17:10.815Z</time></trkpt><trkpt lat="53.53743772232871" lon="14.798725060119832"><ele>3.0</ele><time>2026-04-12T15:17:11.815Z</time></trkpt><trkpt lat="53.53722131815445" lon="14.798833146750894"><ele>3.0</ele><time>2026-04-12T15:17:12.815Z</time></trkpt><trkpt lat="53.53700550749453" lon="14.798941361272327"><ele>3.0</ele><time>2026-04-12T15:17:13.815Z</time></trkpt><trkpt lat="53.5367913904467" lon="14.79904762955996"><ele>3.0</ele><time>2026-04-12T15:17:14.815Z</time></trkpt><trkpt lat="53.53657794062377" lon="14.799155981833666"><ele>3.0</ele><time>2026-04-12T15:17:15.815Z</time></trkpt><trkpt lat="53.53636689913455" lon="14.79926438769562"><ele>2.5</ele><time>2026-04-12T15:17:16.815Z</time></trkpt><trkpt lat="53.53615351129965" lon="14.799373443382512"><ele>2.0</ele><time>2026-04-12T15:17:17.815Z</time></trkpt><trkpt lat="53.53593370611989" lon="14.799484885897208"><ele>2.0</ele><time>2026-04-12T15:17:18.815Z</time></trkpt><trkpt lat="53.53571266137823" lon="14.79959630541485"><ele>2.0</ele><time>2026-04-12T15:17:19.815Z</time></trkpt><trkpt lat="53.535492394491456" lon="14.799705395103707"><ele>2.5</ele><time>2026-04-12T15:17:20.815Z</time></trkpt><trkpt lat="53.535267453306226" lon="14.799818149333783"><ele>3.0</ele><time>2026-04-12T15:17:21.815Z</time></trkpt><trkpt lat="53.53504748341581" lon="14.799928599902433"><ele>3.0</ele><time>2026-04-12T15:17:22.815Z</time></trkpt><trkpt lat="53.534829144860986" lon="14.800037452983902"><ele>3.0</ele><time>2026-04-12T15:17:23.815Z</time></trkpt><trkpt lat="53.534609247879956" lon="14.800151253186755"><ele>2.5</ele><time>2026-04-12T15:17:24.815Z</time></trkpt><trkpt lat="53.53438758157381" lon="14.800264018768141"><ele>2.0</ele><time>2026-04-12T15:17:25.815Z</time></trkpt><trkpt lat="53.534169390271224" lon="14.800374801971003"><ele>2.0</ele><time>2026-04-12T15:17:26.815Z</time></trkpt><trkpt lat="53.53394265310807" lon="14.800470160412"><ele>2.0</ele><time>2026-04-12T15:17:27.815Z</time></trkpt><trkpt lat="53.53372423285418" lon="14.800585205485877"><ele>2.5</ele><time>2026-04-12T15:17:28.815Z</time></trkpt><trkpt lat="53.533498629439656" lon="14.800706364565231"><ele>3.0</ele><time>2026-04-12T15:17:29.815Z</time></trkpt><trkpt lat="53.53328499719441" lon="14.800815933617002"><ele>3.0</ele><time>2026-04-12T15:17:30.815Z</time></trkpt><trkpt lat="53.533064554247346" lon="14.80092877556638"><ele>3.0</ele><time>2026-04-12T15:17:31.814Z</time></trkpt><trkpt lat="53.53284353604957" lon="14.80104489035133"><ele>3.0</ele><time>2026-04-12T15:17:32.813Z</time></trkpt><trkpt lat="53.53262034444079" lon="14.801145280685303"><ele>3.0</ele><time>2026-04-12T15:17:33.813Z</time></trkpt><trkpt lat="53.53239708060793" lon="14.801261815079387"><ele>3.0</ele><time>2026-04-12T15:17:34.813Z</time></trkpt><trkpt lat="53.532176595114926" lon="14.801369988148078"><ele>3.0</ele><time>2026-04-12T15:17:35.813Z</time></trkpt><trkpt lat="53.53195791994629" lon="14.801479086551058"><ele>3.5</ele><time>2026-04-12T15:17:36.813Z</time></trkpt><trkpt lat="53.531740429718916" lon="14.801589170134015"><ele>4.0</ele><time>2026-04-12T15:17:37.813Z</time></trkpt><trkpt lat="53.53152481224251" lon="14.80170046235811"><ele>4.0</ele><time>2026-04-12T15:17:38.814Z</time></trkpt><trkpt lat="53.53130485583886" lon="14.801813208385958"><ele>4.0</ele><time>2026-04-12T15:17:39.814Z</time></trkpt><trkpt lat="53.53108581784255" lon="14.801924775679094"><ele>4.5</ele><time>2026-04-12T15:17:40.814Z</time></trkpt><trkpt lat="53.53086796844554" lon="14.802033952460304"><ele>5.0</ele><time>2026-04-12T15:17:41.813Z</time></trkpt><trkpt lat="53.530646337026006" lon="14.802143666933294"><ele>5.0</ele><time>2026-04-12T15:17:42.813Z</time></trkpt><trkpt lat="53.530435370810814" lon="14.802247250972547"><ele>5.0</ele><time>2026-04-12T15:17:43.814Z</time></trkpt><trkpt lat="53.530225328646935" lon="14.80235679921912"><ele>5.0</ele><time>2026-04-12T15:17:44.813Z</time></trkpt><trkpt lat="53.5300271741278" lon="14.802455713997556"><ele>5.0</ele><time>2026-04-12T15:17:45.813Z</time></trkpt><trkpt lat="53.5298460086462" lon="14.802541238607844"><ele>5.0</ele><time>2026-04-12T15:17:46.813Z</time></trkpt><trkpt lat="53.52967528889668" lon="14.802618073187016"><ele>5.0</ele><time>2026-04-12T15:17:47.813Z</time></trkpt><trkpt lat="53.52951287124175" lon="14.80269378489033"><ele>5.0</ele><time>2026-04-12T15:17:48.813Z</time></trkpt><trkpt lat="53.52936089219666" lon="14.802760402965635"><ele>5.0</ele><time>2026-04-12T15:17:49.813Z</time></trkpt><trkpt lat="53.529218241503095" lon="14.80282350900305"><ele>5.0</ele><time>2026-04-12T15:17:50.813Z</time></trkpt><trkpt lat="53.52909386982284" lon="14.80287951840397"><ele>5.0</ele><time>2026-04-12T15:17:51.813Z</time></trkpt><trkpt lat="53.528974490090064" lon="14.802932275680863"><ele>5.0</ele><time>2026-04-12T15:17:52.813Z</time></trkpt><trkpt lat="53.52887075853298" lon="14.802977042947349"><ele>5.0</ele><time>2026-04-12T15:17:53.813Z</time></trkpt><trkpt lat="53.52877974323159" lon="14.803015597800439"><ele>5.0</ele><time>2026-04-12T15:17:54.813Z</time></trkpt><trkpt lat="53.528707381487116" lon="14.803045713026957"><ele>5.0</ele><time>2026-04-12T15:17:55.813Z</time></trkpt><trkpt lat="53.528617576037" lon="14.80308979691554"><ele>5.0</ele><time>2026-04-12T15:17:57.813Z</time></trkpt><trkpt lat="53.52853531650707" lon="14.803087954473774"><ele>5.666666666666667</ele><time>2026-04-12T15:20:21.812Z</time></trkpt><trkpt lat="53.52846994338257" lon="14.803129594461135"><ele>6.333333333333334</ele><time>2026-04-12T15:21:05.812Z</time></trkpt><trkpt lat="53.5283839810987" lon="14.803063025281899"><ele>7.0</ele><time>2026-04-12T15:38:41.834Z</time></trkpt><trkpt lat="53.5283373620001" lon="14.802966504443436"><ele>7.666666666666667</ele><time>2026-04-12T15:38:43.835Z</time></trkpt><trkpt lat="53.52829892316432" lon="14.802872783326148"><ele>8.333333333333334</ele><time>2026-04-12T15:38:44.835Z</time></trkpt><trkpt lat="53.52824480152081" lon="14.802760277878845"><ele>9.0</ele><time>2026-04-12T15:38:45.835Z</time></trkpt><trkpt lat="53.52819226466947" lon="14.802649461678586"><ele>9.0</ele><time>2026-04-12T15:38:46.835Z</time></trkpt><trkpt lat="53.52812102725169" lon="14.802518168979264"><ele>9.0</ele><time>2026-04-12T15:38:47.835Z</time></trkpt><trkpt lat="53.52807057896561" lon="14.802371839155454"><ele>9.0</ele><time>2026-04-12T15:38:48.835Z</time></trkpt><trkpt lat="53.52799458730368" lon="14.80225463853081"><ele>9.0</ele><time>2026-04-12T15:38:49.835Z</time></trkpt><trkpt lat="53.52793059882011" lon="14.802085732038506"><ele>9.0</ele><time>2026-04-12T15:38:50.835Z</time></trkpt><trkpt lat="53.52784702696096" lon="14.801944569483574"><ele>9.25</ele><time>2026-04-12T15:38:51.835Z</time></trkpt><trkpt lat="53.52776545702661" lon="14.801781141228341"><ele>9.5</ele><time>2026-04-12T15:38:52.835Z</time></trkpt><trkpt lat="53.52767637115103" lon="14.801617125118979"><ele>9.75</ele><time>2026-04-12T15:38:53.835Z</time></trkpt><trkpt lat="53.527588950504516" lon="14.801429426939007"><ele>10.0</ele><time>2026-04-12T15:38:54.835Z</time></trkpt><trkpt lat="53.5274990089323" lon="14.801246016115574"><ele>10.0</ele><time>2026-04-12T15:38:55.835Z</time></trkpt><trkpt lat="53.527407198907916" lon="14.801050441392036"><ele>10.0</ele><time>2026-04-12T15:38:56.835Z</time></trkpt><trkpt lat="53.52730226683242" lon="14.80084043200308"><ele>10.0</ele><time>2026-04-12T15:38:57.835Z</time></trkpt><trkpt lat="53.52719208720815" lon="14.800625520789957"><ele>9.666666666666668</ele><time>2026-04-12T15:38:58.835Z</time></trkpt><trkpt lat="53.52707921351949" lon="14.800385146927505"><ele>9.333333333333334</ele><time>2026-04-12T15:38:59.835Z</time></trkpt><trkpt lat="53.52696508300259" lon="14.80015477585991"><ele>9.0</ele><time>2026-04-12T15:39:00.835Z</time></trkpt><trkpt lat="53.52686037058369" lon="14.799936742207185"><ele>9.0</ele><time>2026-04-12T15:39:01.835Z</time></trkpt><trkpt lat="53.52675963315272" lon="14.799728454114401"><ele>9.0</ele><time>2026-04-12T15:39:02.835Z</time></trkpt><trkpt lat="53.52665275801685" lon="14.799513602085542"><ele>9.0</ele><time>2026-04-12T15:39:03.835Z</time></trkpt><trkpt lat="53.526545431603324" lon="14.799291851355745"><ele>8.666666666666666</ele><time>2026-04-12T15:39:04.835Z</time></trkpt><trkpt lat="53.526436302592245" lon="14.799071394119478"><ele>8.333333333333332</ele><time>2026-04-12T15:39:05.835Z</time></trkpt><trkpt lat="53.52633367440374" lon="14.798854700635511"><ele>8.0</ele><time>2026-04-12T15:39:06.835Z</time></trkpt><trkpt lat="53.52622730079303" lon="14.798635641658592"><ele>8.333333333333332</ele><time>2026-04-12T15:39:07.835Z</time></trkpt><trkpt lat="53.52612272523213" lon="14.798426514754658"><ele>8.666666666666666</ele><time>2026-04-12T15:39:08.835Z</time></trkpt><trkpt lat="53.526015537304396" lon="14.798211479265634"><ele>9.0</ele><time>2026-04-12T15:39:09.835Z</time></trkpt><trkpt lat="53.52591451057808" lon="14.798005048725301"><ele>9.0</ele><time>2026-04-12T15:39:10.835Z</time></trkpt><trkpt lat="53.525809331279014" lon="14.79778887005981"><ele>9.0</ele><time>2026-04-12T15:39:11.835Z</time></trkpt><trkpt lat="53.52571170001617" lon="14.797583589685368"><ele>9.0</ele><time>2026-04-12T15:39:12.835Z</time></trkpt><trkpt lat="53.52560972059849" lon="14.797371585934863"><ele>8.666666666666666</ele><time>2026-04-12T15:39:13.835Z</time></trkpt><trkpt lat="53.52550080534926" lon="14.797156292522326"><ele>8.333333333333332</ele><time>2026-04-12T15:39:14.835Z</time></trkpt><trkpt lat="53.52539570937986" lon="14.796945527226693"><ele>8.0</ele><time>2026-04-12T15:39:15.835Z</time></trkpt><trkpt lat="53.525293680644914" lon="14.796742071164816"><ele>9.0</ele><time>2026-04-12T15:39:16.835Z</time></trkpt><trkpt lat="53.52519781429449" lon="14.796548379251783"><ele>10.0</ele><time>2026-04-12T15:39:17.835Z</time></trkpt><trkpt lat="53.5251002119539" lon="14.796352528037744"><ele>11.0</ele><time>2026-04-12T15:39:18.835Z</time></trkpt><trkpt lat="53.52500752357544" lon="14.796165752693806"><ele>12.0</ele><time>2026-04-12T15:39:19.835Z</time></trkpt><trkpt lat="53.52491707774102" lon="14.795990397821933"><ele>12.0</ele><time>2026-04-12T15:39:20.835Z</time></trkpt><trkpt lat="53.52485596035841" lon="14.795814339794898"><ele>12.0</ele><time>2026-04-12T15:39:21.835Z</time></trkpt><trkpt lat="53.524784089645955" lon="14.795665321836005"><ele>12.0</ele><time>2026-04-12T15:39:22.835Z</time></trkpt><trkpt lat="53.52472204380087" lon="14.79555100325961"><ele>12.0</ele><time>2026-04-12T15:39:23.835Z</time></trkpt><trkpt lat="53.52466854573666" lon="14.795451969361531"><ele>12.0</ele><time>2026-04-12T15:39:24.835Z</time></trkpt><trkpt lat="53.524609137367335" lon="14.79538429533004"><ele>12.0</ele><time>2026-04-12T15:39:25.835Z</time></trkpt><trkpt lat="53.524578669189744" lon="14.795287603668946"><ele>12.0</ele><time>2026-04-12T15:39:26.835Z</time></trkpt><trkpt lat="53.52444175739542" lon="14.795273272949602"><ele>12.0</ele><time>2026-04-12T15:39:27.835Z</time></trkpt><trkpt lat="53.524350893939015" lon="14.795313975923703"><ele>12.0</ele><time>2026-04-12T15:39:28.835Z</time></trkpt><trkpt lat="53.52424059880714" lon="14.795363543960583"><ele>12.0</ele><time>2026-04-12T15:39:29.835Z</time></trkpt><trkpt lat="53.52410706839418" lon="14.795428743660851"><ele>13.0</ele><time>2026-04-12T15:39:30.835Z</time></trkpt><trkpt lat="53.523968752347095" lon="14.795520995231284"><ele>14.0</ele><time>2026-04-12T15:39:31.835Z</time></trkpt><trkpt lat="53.52383828473412" lon="14.795591379900076"><ele>15.0</ele><time>2026-04-12T15:39:32.835Z</time></trkpt><trkpt lat="53.52371090586611" lon="14.795662439482397"><ele>16.0</ele><time>2026-04-12T15:39:33.835Z</time></trkpt><trkpt lat="53.52357842464971" lon="14.79574973429324"><ele>16.0</ele><time>2026-04-12T15:39:34.835Z</time></trkpt><trkpt lat="53.5234519158779" lon="14.795790695588353"><ele>16.0</ele><time>2026-04-12T15:39:35.835Z</time></trkpt><trkpt lat="53.52331947160621" lon="14.795849555157377"><ele>16.0</ele><time>2026-04-12T15:39:36.835Z</time></trkpt><trkpt lat="53.52317071214461" lon="14.795913300506417"><ele>16.0</ele><time>2026-04-12T15:39:37.835Z</time></trkpt><trkpt lat="53.52306346384965" lon="14.795998978459453"><ele>16.25</ele><time>2026-04-12T15:39:38.835Z</time></trkpt><trkpt lat="53.522950231907885" lon="14.79607014285466"><ele>16.5</ele><time>2026-04-12T15:39:39.835Z</time></trkpt><trkpt lat="53.52284129188915" lon="14.796142037018372"><ele>16.75</ele><time>2026-04-12T15:39:40.835Z</time></trkpt><trkpt lat="53.52271850944722" lon="14.796206331072813"><ele>17.0</ele><time>2026-04-12T15:39:41.835Z</time></trkpt><trkpt lat="53.5226008152242" lon="14.796313236045785"><ele>17.0</ele><time>2026-04-12T15:39:42.835Z</time></trkpt><trkpt lat="53.522489220340184" lon="14.796412053449648"><ele>17.0</ele><time>2026-04-12T15:39:43.835Z</time></trkpt><trkpt lat="53.522384880242896" lon="14.796492460822233"><ele>17.0</ele><time>2026-04-12T15:39:44.835Z</time></trkpt><trkpt lat="53.522276927274234" lon="14.796538569041315"><ele>17.0</ele><time>2026-04-12T15:39:45.835Z</time></trkpt><trkpt lat="53.522166207172795" lon="14.79651670653991"><ele>16.0</ele><time>2026-04-12T15:39:46.835Z</time></trkpt><trkpt lat="53.522056905237875" lon="14.796555306906459"><ele>15.0</ele><time>2026-04-12T15:39:47.835Z</time></trkpt><trkpt lat="53.52194509240133" lon="14.796565189551655"><ele>14.0</ele><time>2026-04-12T15:39:48.835Z</time></trkpt><trkpt lat="53.52182654348475" lon="14.796645518764437"><ele>13.0</ele><time>2026-04-12T15:39:49.835Z</time></trkpt><trkpt lat="53.52173040690419" lon="14.79670454560218"><ele>13.0</ele><time>2026-04-12T15:39:50.835Z</time></trkpt><trkpt lat="53.52163463698979" lon="14.796754417843768"><ele>13.0</ele><time>2026-04-12T15:39:51.835Z</time></trkpt><trkpt lat="53.52153477374119" lon="14.79681888571935"><ele>13.0</ele><time>2026-04-12T15:39:52.835Z</time></trkpt><trkpt lat="53.521430583910515" lon="14.796878344168977"><ele>13.0</ele><time>2026-04-12T15:39:53.835Z</time></trkpt><trkpt lat="53.52131828338252" lon="14.796940455479824"><ele>13.0</ele><time>2026-04-12T15:39:54.835Z</time></trkpt><trkpt lat="53.52119018608498" lon="14.797012517087083"><ele>13.2</ele><time>2026-04-12T15:39:55.835Z</time></trkpt><trkpt lat="53.52108676615263" lon="14.797062954175527"><ele>13.4</ele><time>2026-04-12T15:39:56.835Z</time></trkpt><trkpt lat="53.52099381126809" lon="14.797122410935637"><ele>13.599999999999998</ele><time>2026-04-12T15:39:57.835Z</time></trkpt><trkpt lat="53.520913880087896" lon="14.797184904598158"><ele>13.799999999999999</ele><time>2026-04-12T15:39:58.835Z</time></trkpt><trkpt lat="53.520833628763086" lon="14.79726460556904"><ele>14.0</ele><time>2026-04-12T15:39:59.835Z</time></trkpt><trkpt lat="53.520755252087326" lon="14.797392865496965"><ele>14.0</ele><time>2026-04-12T15:40:00.835Z</time></trkpt><trkpt lat="53.52065650880487" lon="14.797462871115375"><ele>13.999999999999998</ele><time>2026-04-12T15:40:01.835Z</time></trkpt><trkpt lat="53.52056303996611" lon="14.797502729042659"><ele>13.999999999999998</ele><time>2026-04-12T15:40:02.835Z</time></trkpt><trkpt lat="53.5204685829059" lon="14.797535125371144"><ele>14.0</ele><time>2026-04-12T15:40:03.835Z</time></trkpt><trkpt lat="53.5203570797296" lon="14.797554055728327"><ele>14.0</ele><time>2026-04-12T15:40:04.835Z</time></trkpt><trkpt lat="53.52021886702039" lon="14.797570888462275"><ele>14.25</ele><time>2026-04-12T15:40:05.835Z</time></trkpt><trkpt lat="53.52009231319725" lon="14.797584179128012"><ele>14.5</ele><time>2026-04-12T15:40:06.835Z</time></trkpt><trkpt lat="53.519953566415914" lon="14.797597022569871"><ele>14.75</ele><time>2026-04-12T15:40:07.835Z</time></trkpt><trkpt lat="53.519840247058156" lon="14.797636847486165"><ele>15.0</ele><time>2026-04-12T15:40:08.835Z</time></trkpt><trkpt lat="53.51974101549483" lon="14.797719196168117"><ele>15.0</ele><time>2026-04-12T15:40:09.835Z</time></trkpt><trkpt lat="53.5196261689632" lon="14.79778521400342"><ele>15.0</ele><time>2026-04-12T15:40:10.835Z</time></trkpt><trkpt lat="53.519488268880174" lon="14.797857962531763"><ele>15.0</ele><time>2026-04-12T15:40:11.835Z</time></trkpt><trkpt lat="53.51936043922969" lon="14.797922176035673"><ele>15.0</ele><time>2026-04-12T15:40:12.835Z</time></trkpt><trkpt lat="53.51923119861135" lon="14.797984403066907"><ele>15.0</ele><time>2026-04-12T15:40:13.835Z</time></trkpt><trkpt lat="53.519112736798775" lon="14.798065557304247"><ele>15.0</ele><time>2026-04-12T15:40:14.835Z</time></trkpt><trkpt lat="53.51899081589844" lon="14.798122986364788"><ele>15.0</ele><time>2026-04-12T15:40:15.835Z</time></trkpt><trkpt lat="53.518850016593014" lon="14.798194525475699"><ele>15.0</ele><time>2026-04-12T15:40:16.835Z</time></trkpt><trkpt lat="53.51870006797551" lon="14.798272159308798"><ele>17.666666666666668</ele><time>2026-04-12T15:40:17.835Z</time></trkpt><trkpt lat="53.51855189110101" lon="14.798314497813903"><ele>20.333333333333336</ele><time>2026-04-12T15:40:18.835Z</time></trkpt><trkpt lat="53.518388174830285" lon="14.798386762226237"><ele>23.0</ele><time>2026-04-12T15:40:19.835Z</time></trkpt><trkpt lat="53.51821678264713" lon="14.798467754373823"><ele>22.666666666666668</ele><time>2026-04-12T15:40:20.835Z</time></trkpt><trkpt lat="53.518061083149625" lon="14.798546461433704"><ele>22.333333333333332</ele><time>2026-04-12T15:40:21.835Z</time></trkpt><trkpt lat="53.517908120871" lon="14.798625242328736"><ele>22.0</ele><time>2026-04-12T15:40:22.835Z</time></trkpt><trkpt lat="53.51776682242342" lon="14.798698256982066"><ele>22.0</ele><time>2026-04-12T15:40:23.835Z</time></trkpt><trkpt lat="53.517616030948396" lon="14.798776375159541"><ele>22.0</ele><time>2026-04-12T15:40:24.835Z</time></trkpt><trkpt lat="53.51745232936122" lon="14.798860240833614"><ele>22.0</ele><time>2026-04-12T15:40:25.835Z</time></trkpt><trkpt lat="53.51728838761674" lon="14.798944535098764"><ele>22.0</ele><time>2026-04-12T15:40:26.835Z</time></trkpt><trkpt lat="53.517118079944616" lon="14.799031478367299"><ele>22.0</ele><time>2026-04-12T15:40:27.835Z</time></trkpt><trkpt lat="53.51694646308247" lon="14.799119319092128"><ele>22.0</ele><time>2026-04-12T15:40:28.835Z</time></trkpt><trkpt lat="53.516777512532045" lon="14.799206043608216"><ele>22.333333333333332</ele><time>2026-04-12T15:40:29.835Z</time></trkpt><trkpt lat="53.5166144547367" lon="14.799289797106558"><ele>22.666666666666668</ele><time>2026-04-12T15:40:30.835Z</time></trkpt><trkpt lat="53.51643710616298" lon="14.799380520389583"><ele>23.0</ele><time>2026-04-12T15:40:31.835Z</time></trkpt><trkpt lat="53.516292131047756" lon="14.799453763191368"><ele>21.5</ele><time>2026-04-12T15:40:32.835Z</time></trkpt><trkpt lat="53.516165548652765" lon="14.799537617756197"><ele>20.0</ele><time>2026-04-12T15:40:33.835Z</time></trkpt><trkpt lat="53.51602437713176" lon="14.799608727224363"><ele>18.5</ele><time>2026-04-12T15:40:34.835Z</time></trkpt><trkpt lat="53.5158909354321" lon="14.799683901608391"><ele>17.0</ele><time>2026-04-12T15:40:35.835Z</time></trkpt><trkpt lat="53.51577295172427" lon="14.79971969089027"><ele>17.0</ele><time>2026-04-12T15:40:36.835Z</time></trkpt><trkpt lat="53.51567305563024" lon="14.799842369991303"><ele>17.0</ele><time>2026-04-12T15:40:37.834Z</time></trkpt><trkpt lat="53.51556485739039" lon="14.799889508776827"><ele>17.0</ele><time>2026-04-12T15:40:38.834Z</time></trkpt><trkpt lat="53.515481943212464" lon="14.79982582419853"><ele>17.0</ele><time>2026-04-12T15:40:39.834Z</time></trkpt><trkpt lat="53.51537698022613" lon="14.79980720870475"><ele>17.0</ele><time>2026-04-12T15:40:40.834Z</time></trkpt><trkpt lat="53.515254543090045" lon="14.799785189958671"><ele>16.5</ele><time>2026-04-12T15:40:41.834Z</time></trkpt><trkpt lat="53.51512788663006" lon="14.799781987478829"><ele>16.0</ele><time>2026-04-12T15:40:42.834Z</time></trkpt><trkpt lat="53.514984323358746" lon="14.799768158136908"><ele>15.5</ele><time>2026-04-12T15:40:43.833Z</time></trkpt><trkpt lat="53.51484620111896" lon="14.799734866740671"><ele>15.0</ele><time>2026-04-12T15:40:44.834Z</time></trkpt><trkpt lat="53.51471056616546" lon="14.799716082075713"><ele>15.0</ele><time>2026-04-12T15:40:45.834Z</time></trkpt><trkpt lat="53.51459669229386" lon="14.799708651564783"><ele>15.0</ele><time>2026-04-12T15:40:46.833Z</time></trkpt><trkpt lat="53.51450662093856" lon="14.799686083275063"><ele>15.0</ele><time>2026-04-12T15:40:47.834Z</time></trkpt><trkpt lat="53.5144073872537" lon="14.799660090936715"><ele>15.0</ele><time>2026-04-12T15:40:48.834Z</time></trkpt><trkpt lat="53.514325263399925" lon="14.799610449030558"><ele>15.0</ele><time>2026-04-12T15:40:49.834Z</time></trkpt><trkpt lat="53.514246996860436" lon="14.799526334498161"><ele>15.5</ele><time>2026-04-12T15:40:50.834Z</time></trkpt><trkpt lat="53.5141345696688" lon="14.799392712269984"><ele>16.0</ele><time>2026-04-12T15:40:51.834Z</time></trkpt><trkpt lat="53.514011598885624" lon="14.799315986237636"><ele>16.5</ele><time>2026-04-12T15:40:52.834Z</time></trkpt><trkpt lat="53.51387082422031" lon="14.799237736132715"><ele>17.0</ele><time>2026-04-12T15:40:53.834Z</time></trkpt><trkpt lat="53.51373339818509" lon="14.799149457647912"><ele>17.25</ele><time>2026-04-12T15:40:54.834Z</time></trkpt><trkpt lat="53.51359882636554" lon="14.799034093796378"><ele>17.5</ele><time>2026-04-12T15:40:55.834Z</time></trkpt><trkpt lat="53.51348904155748" lon="14.798941130673144"><ele>17.75</ele><time>2026-04-12T15:40:56.834Z</time></trkpt><trkpt lat="53.51340030103617" lon="14.798838111188873"><ele>18.0</ele><time>2026-04-12T15:40:57.834Z</time></trkpt><trkpt lat="53.51329755596518" lon="14.79870191796688"><ele>18.0</ele><time>2026-04-12T15:40:58.834Z</time></trkpt><trkpt lat="53.51320325136611" lon="14.798560454564672"><ele>18.0</ele><time>2026-04-12T15:40:59.834Z</time></trkpt><trkpt lat="53.513099025302935" lon="14.798429380547068"><ele>18.0</ele><time>2026-04-12T15:41:00.834Z</time></trkpt><trkpt lat="53.512989263224604" lon="14.798240102338015"><ele>18.0</ele><time>2026-04-12T15:41:01.834Z</time></trkpt><trkpt lat="53.51288698055415" lon="14.798060281948032"><ele>18.25</ele><time>2026-04-12T15:41:02.834Z</time></trkpt><trkpt lat="53.51279171533863" lon="14.797884730386977"><ele>18.5</ele><time>2026-04-12T15:41:03.834Z</time></trkpt><trkpt lat="53.51271991781638" lon="14.797739008642939"><ele>18.75</ele><time>2026-04-12T15:41:04.834Z</time></trkpt><trkpt lat="53.512645759533186" lon="14.797582324608152"><ele>19.0</ele><time>2026-04-12T15:41:05.834Z</time></trkpt><trkpt lat="53.51256212922353" lon="14.797400119232037"><ele>20.666666666666664</ele><time>2026-04-12T15:41:06.834Z</time></trkpt><trkpt lat="53.51247459071742" lon="14.797205712331516"><ele>22.333333333333332</ele><time>2026-04-12T15:41:07.834Z</time></trkpt><trkpt lat="53.512381430814" lon="14.796995724612627"><ele>24.0</ele><time>2026-04-12T15:41:08.834Z</time></trkpt><trkpt lat="53.51228704712281" lon="14.796779258140678"><ele>25.666666666666664</ele><time>2026-04-12T15:41:09.834Z</time></trkpt><trkpt lat="53.5121917114185" lon="14.796559855275905"><ele>27.333333333333332</ele><time>2026-04-12T15:41:10.834Z</time></trkpt><trkpt lat="53.512108139120734" lon="14.796365380726966"><ele>29.0</ele><time>2026-04-12T15:41:11.834Z</time></trkpt><trkpt lat="53.512021155612224" lon="14.79616296825067"><ele>28.75</ele><time>2026-04-12T15:41:12.834Z</time></trkpt><trkpt lat="53.511940537502916" lon="14.795971908070172"><ele>28.5</ele><time>2026-04-12T15:41:13.834Z</time></trkpt><trkpt lat="53.51185364305631" lon="14.795794164844681"><ele>28.25</ele><time>2026-04-12T15:41:14.834Z</time></trkpt><trkpt lat="53.51178539708434" lon="14.795618828382425"><ele>28.0</ele><time>2026-04-12T15:41:15.834Z</time></trkpt><trkpt lat="53.51169738448213" lon="14.795427806322698"><ele>28.0</ele><time>2026-04-12T15:41:16.834Z</time></trkpt><trkpt lat="53.51162227604555" lon="14.795203427810579"><ele>28.0</ele><time>2026-04-12T15:41:17.834Z</time></trkpt><trkpt lat="53.511539807045665" lon="14.794998469922476"><ele>28.0</ele><time>2026-04-12T15:41:18.834Z</time></trkpt><trkpt lat="53.51145805806531" lon="14.794793622732188"><ele>28.0</ele><time>2026-04-12T15:41:19.834Z</time></trkpt><trkpt lat="53.51137681955656" lon="14.794592510983234"><ele>27.0</ele><time>2026-04-12T15:41:20.834Z</time></trkpt><trkpt lat="53.51128024140638" lon="14.794393670989901"><ele>26.0</ele><time>2026-04-12T15:41:21.834Z</time></trkpt><trkpt lat="53.511207680087956" lon="14.794170164033897"><ele>25.0</ele><time>2026-04-12T15:41:22.834Z</time></trkpt><trkpt lat="53.511116174269304" lon="14.793944633379667"><ele>24.333333333333336</ele><time>2026-04-12T15:41:23.834Z</time></trkpt><trkpt lat="53.511027806433304" lon="14.79372791868131"><ele>23.666666666666668</ele><time>2026-04-12T15:41:24.834Z</time></trkpt><trkpt lat="53.510936403015435" lon="14.793507215980593"><ele>23.0</ele><time>2026-04-12T15:41:25.834Z</time></trkpt><trkpt lat="53.51084633378451" lon="14.793326895860579"><ele>22.5</ele><time>2026-04-12T15:41:26.834Z</time></trkpt><trkpt lat="53.51076221595282" lon="14.793131988691348"><ele>22.0</ele><time>2026-04-12T15:41:27.834Z</time></trkpt><trkpt lat="53.51069209982413" lon="14.792960653099524"><ele>21.5</ele><time>2026-04-12T15:41:28.834Z</time></trkpt><trkpt lat="53.51063810437304" lon="14.792806559891924"><ele>21.0</ele><time>2026-04-12T15:41:29.834Z</time></trkpt><trkpt lat="53.510588420182295" lon="14.79269954386474"><ele>21.0</ele><time>2026-04-12T15:41:30.834Z</time></trkpt><trkpt lat="53.51054243002613" lon="14.792562786599238"><ele>21.0</ele><time>2026-04-12T15:41:32.834Z</time></trkpt><trkpt lat="53.5104735504333" lon="14.792398438128787"><ele>21.0</ele><time>2026-04-12T15:41:35.834Z</time></trkpt><trkpt lat="53.51043439165858" lon="14.79230500430603"><ele>21.0</ele><time>2026-04-12T15:41:36.834Z</time></trkpt><trkpt lat="53.510397964815986" lon="14.79221813705714"><ele>21.0</ele><time>2026-04-12T15:41:37.834Z</time></trkpt><trkpt lat="53.510015630347695" lon="14.792559940172339"><ele>21.200000000000003</ele><time>2026-04-12T15:41:39.834Z</time></trkpt><trkpt lat="53.509915640187614" lon="14.792611185836906"><ele>21.400000000000002</ele><time>2026-04-12T15:41:40.834Z</time></trkpt><trkpt lat="53.50980177045452" lon="14.792656362296814"><ele>21.6</ele><time>2026-04-12T15:41:41.834Z</time></trkpt><trkpt lat="53.5096910473218" lon="14.792693222436355"><ele>21.8</ele><time>2026-04-12T15:41:42.834Z</time></trkpt><trkpt lat="53.5095900029659" lon="14.792733207271512"><ele>22.0</ele><time>2026-04-12T15:41:43.834Z</time></trkpt><trkpt lat="53.509474733185876" lon="14.792778156109836"><ele>22.6</ele><time>2026-04-12T15:41:44.834Z</time></trkpt><trkpt lat="53.5093604126198" lon="14.79279976400695"><ele>23.200000000000003</ele><time>2026-04-12T15:41:45.834Z</time></trkpt><trkpt lat="53.50925901644744" lon="14.792818446721933"><ele>23.8</ele><time>2026-04-12T15:41:46.834Z</time></trkpt><trkpt lat="53.509164457608605" lon="14.792861782518164"><ele>24.4</ele><time>2026-04-12T15:41:47.834Z</time></trkpt><trkpt lat="53.50907036571552" lon="14.792913738841705"><ele>25.0</ele><time>2026-04-12T15:41:48.834Z</time></trkpt><trkpt lat="53.508979726401144" lon="14.79293390913503"><ele>25.0</ele><time>2026-04-12T15:41:49.834Z</time></trkpt><trkpt lat="53.508878409052556" lon="14.792958475651963"><ele>25.0</ele><time>2026-04-12T15:41:50.834Z</time></trkpt><trkpt lat="53.508763295433205" lon="14.79299646473782"><ele>25.0</ele><time>2026-04-12T15:41:51.834Z</time></trkpt><trkpt lat="53.508660662888595" lon="14.793029833233133"><ele>25.0</ele><time>2026-04-12T15:41:52.834Z</time></trkpt><trkpt lat="53.50853768209393" lon="14.79308839566684"><ele>24.5</ele><time>2026-04-12T15:41:53.834Z</time></trkpt><trkpt lat="53.5084088078211" lon="14.793149266358371"><ele>24.0</ele><time>2026-04-12T15:41:54.834Z</time></trkpt><trkpt lat="53.5082693829174" lon="14.793197104239105"><ele>23.5</ele><time>2026-04-12T15:41:55.834Z</time></trkpt><trkpt lat="53.50811597919885" lon="14.79323429962257"><ele>23.0</ele><time>2026-04-12T15:41:56.834Z</time></trkpt><trkpt lat="53.507964742271774" lon="14.79329270809684"><ele>22.75</ele><time>2026-04-12T15:41:57.834Z</time></trkpt><trkpt lat="53.50782374722853" lon="14.79334922947719"><ele>22.5</ele><time>2026-04-12T15:41:58.834Z</time></trkpt><trkpt lat="53.5076775947182" lon="14.793398582990417"><ele>22.25</ele><time>2026-04-12T15:41:59.834Z</time></trkpt><trkpt lat="53.50754484455884" lon="14.793434138665676"><ele>22.0</ele><time>2026-04-12T15:42:00.834Z</time></trkpt><trkpt lat="53.50740498707883" lon="14.793485601692634"><ele>22.25</ele><time>2026-04-12T15:42:01.834Z</time></trkpt><trkpt lat="53.507268461986314" lon="14.793533935630176"><ele>22.5</ele><time>2026-04-12T15:42:02.834Z</time></trkpt><trkpt lat="53.50712281374602" lon="14.793585850693923"><ele>22.75</ele><time>2026-04-12T15:42:03.834Z</time></trkpt><trkpt lat="53.506988380245666" lon="14.79364012578048"><ele>23.0</ele><time>2026-04-12T15:42:04.834Z</time></trkpt><trkpt lat="53.50685559189852" lon="14.793686101038768"><ele>23.0</ele><time>2026-04-12T15:42:05.834Z</time></trkpt><trkpt lat="53.50672789065435" lon="14.79372839907031"><ele>23.0</ele><time>2026-04-12T15:42:06.834Z</time></trkpt><trkpt lat="53.50658999551997" lon="14.793770693993487"><ele>23.0</ele><time>2026-04-12T15:42:07.834Z</time></trkpt><trkpt lat="53.50646689364684" lon="14.79383159984404"><ele>23.0</ele><time>2026-04-12T15:42:08.834Z</time></trkpt><trkpt lat="53.50633035745042" lon="14.793870565125891"><ele>23.5</ele><time>2026-04-12T15:42:09.834Z</time></trkpt><trkpt lat="53.50620379319673" lon="14.793913102124346"><ele>24.0</ele><time>2026-04-12T15:42:10.834Z</time></trkpt><trkpt lat="53.50606201026061" lon="14.793968472043963"><ele>24.5</ele><time>2026-04-12T15:42:11.834Z</time></trkpt><trkpt lat="53.50592027748908" lon="14.794016992089015"><ele>25.0</ele><time>2026-04-12T15:42:12.834Z</time></trkpt><trkpt lat="53.50578179350029" lon="14.794067017089002"><ele>25.0</ele><time>2026-04-12T15:42:13.834Z</time></trkpt><trkpt lat="53.50565429809112" lon="14.79411084655224"><ele>25.0</ele><time>2026-04-12T15:42:14.834Z</time></trkpt><trkpt lat="53.50552050899649" lon="14.7941712007681"><ele>25.0</ele><time>2026-04-12T15:42:15.834Z</time></trkpt><trkpt lat="53.5053964899156" lon="14.794200993948715"><ele>25.0</ele><time>2026-04-12T15:42:16.834Z</time></trkpt><trkpt lat="53.50528871041889" lon="14.794227413493672"><ele>25.25</ele><time>2026-04-12T15:42:17.834Z</time></trkpt><trkpt lat="53.505177657049636" lon="14.794251668605996"><ele>25.5</ele><time>2026-04-12T15:42:18.834Z</time></trkpt><trkpt lat="53.50505936581534" lon="14.794278309915981"><ele>25.75</ele><time>2026-04-12T15:42:19.834Z</time></trkpt><trkpt lat="53.50493766004497" lon="14.79432073137443"><ele>26.0</ele><time>2026-04-12T15:42:20.834Z</time></trkpt><trkpt lat="53.504803700780116" lon="14.79435753347655"><ele>26.0</ele><time>2026-04-12T15:42:21.834Z</time></trkpt><trkpt lat="53.50468009246079" lon="14.794396225226647"><ele>26.0</ele><time>2026-04-12T15:42:22.834Z</time></trkpt><trkpt lat="53.504546520733335" lon="14.794449940333859"><ele>26.0</ele><time>2026-04-12T15:42:23.834Z</time></trkpt><trkpt lat="53.50441689171975" lon="14.79451123080923"><ele>26.0</ele><time>2026-04-12T15:42:24.834Z</time></trkpt><trkpt lat="53.50429123853597" lon="14.794566480970992"><ele>24.25</ele><time>2026-04-12T15:42:25.834Z</time></trkpt><trkpt lat="53.50416634143279" lon="14.79460578162655"><ele>22.5</ele><time>2026-04-12T15:42:26.834Z</time></trkpt><trkpt lat="53.504039219677" lon="14.794646830823087"><ele>20.75</ele><time>2026-04-12T15:42:27.834Z</time></trkpt><trkpt lat="53.50389681868115" lon="14.794680330215222"><ele>19.0</ele><time>2026-04-12T15:42:28.834Z</time></trkpt><trkpt lat="53.50374452569424" lon="14.794713206633592"><ele>18.666666666666664</ele><time>2026-04-12T15:42:29.834Z</time></trkpt><trkpt lat="53.5035852818251" lon="14.794762436643097"><ele>18.333333333333332</ele><time>2026-04-12T15:42:30.834Z</time></trkpt><trkpt lat="53.50342587736344" lon="14.794802675111908"><ele>18.0</ele><time>2026-04-12T15:42:31.834Z</time></trkpt><trkpt lat="53.50324862298263" lon="14.794870025855964"><ele>18.0</ele><time>2026-04-12T15:42:32.834Z</time></trkpt><trkpt lat="53.50308931957022" lon="14.794901344312422"><ele>18.0</ele><time>2026-04-12T15:42:33.834Z</time></trkpt><trkpt lat="53.502914864361294" lon="14.794967936862802"><ele>18.0</ele><time>2026-04-12T15:42:34.834Z</time></trkpt><trkpt lat="53.5027391334166" lon="14.795024631240809"><ele>18.0</ele><time>2026-04-12T15:42:35.834Z</time></trkpt><trkpt lat="53.50255992475217" lon="14.79506834523906"><ele>18.0</ele><time>2026-04-12T15:42:36.834Z</time></trkpt><trkpt lat="53.50237087984692" lon="14.795128806365204"><ele>18.0</ele><time>2026-04-12T15:42:37.834Z</time></trkpt><trkpt lat="53.502195920309184" lon="14.795180544431787"><ele>17.0</ele><time>2026-04-12T15:42:38.834Z</time></trkpt><trkpt lat="53.50201041669088" lon="14.795247024597357"><ele>16.0</ele><time>2026-04-12T15:42:39.834Z</time></trkpt><trkpt lat="53.50184067212031" lon="14.795308859702914"><ele>15.0</ele><time>2026-04-12T15:42:40.834Z</time></trkpt><trkpt lat="53.501680933528476" lon="14.795362976517834"><ele>15.0</ele><time>2026-04-12T15:42:41.834Z</time></trkpt><trkpt lat="53.501524672049165" lon="14.795410764217186"><ele>15.0</ele><time>2026-04-12T15:42:42.834Z</time></trkpt><trkpt lat="53.501369300455096" lon="14.795453439427664"><ele>15.0</ele><time>2026-04-12T15:42:43.833Z</time></trkpt><trkpt lat="53.50122749111153" lon="14.795496689621903"><ele>14.5</ele><time>2026-04-12T15:42:44.832Z</time></trkpt><trkpt lat="53.50109214489173" lon="14.795520275897212"><ele>14.0</ele><time>2026-04-12T15:42:45.832Z</time></trkpt><trkpt lat="53.50094501515938" lon="14.795576521582898"><ele>13.5</ele><time>2026-04-12T15:42:46.832Z</time></trkpt><trkpt lat="53.50081796287678" lon="14.795601760642336"><ele>13.0</ele><time>2026-04-12T15:42:47.833Z</time></trkpt><trkpt lat="53.50067861866446" lon="14.79566398822643"><ele>13.0</ele><time>2026-04-12T15:42:48.833Z</time></trkpt><trkpt lat="53.50052765765944" lon="14.795721851959486"><ele>13.0</ele><time>2026-04-12T15:42:49.832Z</time></trkpt><trkpt lat="53.50036933003023" lon="14.795766152543521"><ele>13.0</ele><time>2026-04-12T15:42:50.833Z</time></trkpt><trkpt lat="53.50020742325674" lon="14.795812045542853"><ele>13.666666666666666</ele><time>2026-04-12T15:42:51.833Z</time></trkpt><trkpt lat="53.50007147280021" lon="14.795855212356335"><ele>14.333333333333332</ele><time>2026-04-12T15:42:52.832Z</time></trkpt><trkpt lat="53.499920522208356" lon="14.795920222852148"><ele>15.0</ele><time>2026-04-12T15:42:53.832Z</time></trkpt><trkpt lat="53.49976618614321" lon="14.795966909065365"><ele>15.0</ele><time>2026-04-12T15:42:54.832Z</time></trkpt><trkpt lat="53.49961955964667" lon="14.796012115932133"><ele>15.0</ele><time>2026-04-12T15:42:55.832Z</time></trkpt><trkpt lat="53.49945335300508" lon="14.79607074600542"><ele>15.0</ele><time>2026-04-12T15:42:56.833Z</time></trkpt><trkpt lat="53.4992904844146" lon="14.796135805376966"><ele>14.666666666666668</ele><time>2026-04-12T15:42:57.833Z</time></trkpt><trkpt lat="53.4991423337835" lon="14.796187703586048"><ele>14.333333333333334</ele><time>2026-04-12T15:42:58.833Z</time></trkpt><trkpt lat="53.498973466293435" lon="14.796238065829513"><ele>14.0</ele><time>2026-04-12T15:42:59.833Z</time></trkpt><trkpt lat="53.49881104635738" lon="14.796287101050588"><ele>14.25</ele><time>2026-04-12T15:43:00.833Z</time></trkpt><trkpt lat="53.498663622247555" lon="14.796344518681655"><ele>14.5</ele><time>2026-04-12T15:43:01.833Z</time></trkpt><trkpt lat="53.49850933957416" lon="14.796409583304131"><ele>14.75</ele><time>2026-04-12T15:43:02.833Z</time></trkpt><trkpt lat="53.49837324979531" lon="14.796455744944868"><ele>15.0</ele><time>2026-04-12T15:43:03.833Z</time></trkpt><trkpt lat="53.49823976889856" lon="14.796500810839643"><ele>15.0</ele><time>2026-04-12T15:43:04.833Z</time></trkpt><trkpt lat="53.49811646931924" lon="14.796525969774015"><ele>15.0</ele><time>2026-04-12T15:43:05.833Z</time></trkpt><trkpt lat="53.49798858649243" lon="14.796564655537138"><ele>15.0</ele><time>2026-04-12T15:43:06.833Z</time></trkpt><trkpt lat="53.497864155839146" lon="14.796613593872781"><ele>15.0</ele><time>2026-04-12T15:43:07.833Z</time></trkpt><trkpt lat="53.49773253635291" lon="14.796641488142466"><ele>15.2</ele><time>2026-04-12T15:43:08.833Z</time></trkpt><trkpt lat="53.497624890176155" lon="14.796682370955747"><ele>15.4</ele><time>2026-04-12T15:43:09.833Z</time></trkpt><trkpt lat="53.49754667579328" lon="14.796739709453371"><ele>15.600000000000001</ele><time>2026-04-12T15:43:10.833Z</time></trkpt><trkpt lat="53.49746643964015" lon="14.796799008419052"><ele>15.8</ele><time>2026-04-12T15:43:11.833Z</time></trkpt><trkpt lat="53.49736005679604" lon="14.79681785050005"><ele>16.0</ele><time>2026-04-12T15:43:12.833Z</time></trkpt><trkpt lat="53.49722827856135" lon="14.796792309812455"><ele>16.0</ele><time>2026-04-12T15:43:13.833Z</time></trkpt><trkpt lat="53.49710689458659" lon="14.796729413679886"><ele>16.0</ele><time>2026-04-12T15:43:14.833Z</time></trkpt><trkpt lat="53.49699446426783" lon="14.796678153771504"><ele>16.0</ele><time>2026-04-12T15:43:15.833Z</time></trkpt><trkpt lat="53.49686988720612" lon="14.796621890996272"><ele>16.0</ele><time>2026-04-12T15:43:16.833Z</time></trkpt><trkpt lat="53.49672723710547" lon="14.796557304056977"><ele>15.666666666666666</ele><time>2026-04-12T15:43:17.833Z</time></trkpt><trkpt lat="53.496578790809835" lon="14.79649268225011"><ele>15.333333333333332</ele><time>2026-04-12T15:43:18.833Z</time></trkpt><trkpt lat="53.496424155377746" lon="14.79642701081308"><ele>15.0</ele><time>2026-04-12T15:43:19.833Z</time></trkpt><trkpt lat="53.496283234700186" lon="14.796374492902835"><ele>14.75</ele><time>2026-04-12T15:43:20.833Z</time></trkpt><trkpt lat="53.49614915206076" lon="14.796343846240154"><ele>14.5</ele><time>2026-04-12T15:43:21.833Z</time></trkpt><trkpt lat="53.49601782050434" lon="14.796307463491523"><ele>14.25</ele><time>2026-04-12T15:43:22.833Z</time></trkpt><trkpt lat="53.49587745836683" lon="14.796255731556844"><ele>14.0</ele><time>2026-04-12T15:43:23.833Z</time></trkpt><trkpt lat="53.49572698299787" lon="14.796190380667326"><ele>14.0</ele><time>2026-04-12T15:43:24.833Z</time></trkpt><trkpt lat="53.49557047100595" lon="14.796146103556556"><ele>14.0</ele><time>2026-04-12T15:43:25.833Z</time></trkpt><trkpt lat="53.49540554106986" lon="14.796106368883981"><ele>14.0</ele><time>2026-04-12T15:43:26.833Z</time></trkpt><trkpt lat="53.495253594722115" lon="14.796043827106589"><ele>14.5</ele><time>2026-04-12T15:43:27.833Z</time></trkpt><trkpt lat="53.495105689439356" lon="14.795985319170756"><ele>15.0</ele><time>2026-04-12T15:43:28.833Z</time></trkpt><trkpt lat="53.49495621446773" lon="14.795927778865913"><ele>15.5</ele><time>2026-04-12T15:43:29.833Z</time></trkpt><trkpt lat="53.49482067337466" lon="14.795879427812359"><ele>16.0</ele><time>2026-04-12T15:43:30.833Z</time></trkpt><trkpt lat="53.49468669799465" lon="14.795819556356784"><ele>15.0</ele><time>2026-04-12T15:43:31.833Z</time></trkpt><trkpt lat="53.49456072117044" lon="14.79576750406015"><ele>14.0</ele><time>2026-04-12T15:43:32.833Z</time></trkpt><trkpt lat="53.49443289824283" lon="14.795721107575437"><ele>13.0</ele><time>2026-04-12T15:43:33.833Z</time></trkpt><trkpt lat="53.49429184743132" lon="14.795672271601523"><ele>12.0</ele><time>2026-04-12T15:43:34.833Z</time></trkpt><trkpt lat="53.49418224213842" lon="14.79562609391693"><ele>12.0</ele><time>2026-04-12T15:43:35.833Z</time></trkpt><trkpt lat="53.494074769243596" lon="14.795583580430074"><ele>12.0</ele><time>2026-04-12T15:43:36.833Z</time></trkpt><trkpt lat="53.49396276635528" lon="14.795548617473118"><ele>12.0</ele><time>2026-04-12T15:43:37.833Z</time></trkpt><trkpt lat="53.49387875485848" lon="14.795493782406508"><ele>12.0</ele><time>2026-04-12T15:43:38.833Z</time></trkpt><trkpt lat="53.493797797580825" lon="14.795436530628333"><ele>12.0</ele><time>2026-04-12T15:43:39.833Z</time></trkpt><trkpt lat="53.49372089701983" lon="14.795410490024127"><ele>11.8</ele><time>2026-04-12T15:43:40.833Z</time></trkpt><trkpt lat="53.493656854002275" lon="14.795415870674951"><ele>11.6</ele><time>2026-04-12T15:43:41.833Z</time></trkpt><trkpt lat="53.49357336639484" lon="14.79544981031226"><ele>11.4</ele><time>2026-04-12T15:43:42.833Z</time></trkpt><trkpt lat="53.49347567137033" lon="14.795494628516732"><ele>11.200000000000001</ele><time>2026-04-12T15:43:43.833Z</time></trkpt><trkpt lat="53.49334147711288" lon="14.795523578464854"><ele>11.0</ele><time>2026-04-12T15:43:44.833Z</time></trkpt><trkpt lat="53.49322776231584" lon="14.795499447356974"><ele>11.0</ele><time>2026-04-12T15:43:45.833Z</time></trkpt><trkpt lat="53.49310487180156" lon="14.795461430891564"><ele>11.0</ele><time>2026-04-12T15:43:46.833Z</time></trkpt><trkpt lat="53.49297806297003" lon="14.79544700651626"><ele>11.0</ele><time>2026-04-12T15:43:47.833Z</time></trkpt><trkpt lat="53.49284841843507" lon="14.795429962349282"><ele>11.0</ele><time>2026-04-12T15:43:48.833Z</time></trkpt><trkpt lat="53.49272299003244" lon="14.795401426935852"><ele>11.0</ele><time>2026-04-12T15:43:49.833Z</time></trkpt><trkpt lat="53.49259589042506" lon="14.795366787822513"><ele>11.0</ele><time>2026-04-12T15:43:50.833Z</time></trkpt><trkpt lat="53.492465281879625" lon="14.795311860147091"><ele>11.0</ele><time>2026-04-12T15:43:51.833Z</time></trkpt><trkpt lat="53.492339642036534" lon="14.795266533177745"><ele>11.0</ele><time>2026-04-12T15:43:52.833Z</time></trkpt><trkpt lat="53.49221149767212" lon="14.795207320341577"><ele>10.5</ele><time>2026-04-12T15:43:53.833Z</time></trkpt><trkpt lat="53.4920879810368" lon="14.795145730748882"><ele>10.0</ele><time>2026-04-12T15:43:54.833Z</time></trkpt><trkpt lat="53.49196079809481" lon="14.795099370155608"><ele>9.5</ele><time>2026-04-12T15:43:55.833Z</time></trkpt><trkpt lat="53.49183228244215" lon="14.795048225256778"><ele>9.0</ele><time>2026-04-12T15:43:56.833Z</time></trkpt><trkpt lat="53.49170870325375" lon="14.794992410162664"><ele>9.0</ele><time>2026-04-12T15:43:57.833Z</time></trkpt><trkpt lat="53.49159814109745" lon="14.794946711163425"><ele>9.0</ele><time>2026-04-12T15:43:58.833Z</time></trkpt><trkpt lat="53.4914999958438" lon="14.794917263769277"><ele>9.0</ele><time>2026-04-12T15:43:59.833Z</time></trkpt><trkpt lat="53.49140976329105" lon="14.794885301990435"><ele>9.0</ele><time>2026-04-12T15:44:00.833Z</time></trkpt><trkpt lat="53.491338287201" lon="14.79484381180582"><ele>9.0</ele><time>2026-04-12T15:44:01.833Z</time></trkpt><trkpt lat="53.49127967575148" lon="14.794771239239621"><ele>9.0</ele><time>2026-04-12T15:44:02.833Z</time></trkpt><trkpt lat="53.49125934180849" lon="14.794596839427093"><ele>9.0</ele><time>2026-04-12T15:44:04.833Z</time></trkpt><trkpt lat="53.49126355311655" lon="14.794444273461364"><ele>9.0</ele><time>2026-04-12T15:44:05.833Z</time></trkpt><trkpt lat="53.49128612429416" lon="14.79424569946446"><ele>9.0</ele><time>2026-04-12T15:44:06.833Z</time></trkpt><trkpt lat="53.49133147034435" lon="14.794015758711053"><ele>9.0</ele><time>2026-04-12T15:44:07.833Z</time></trkpt><trkpt lat="53.49136985671899" lon="14.793827287737649"><ele>9.0</ele><time>2026-04-12T15:44:08.833Z</time></trkpt><trkpt lat="53.49139264881288" lon="14.793670855495682"><ele>9.0</ele><time>2026-04-12T15:44:09.833Z</time></trkpt><trkpt lat="53.49139400750364" lon="14.793532293563892"><ele>9.0</ele><time>2026-04-12T15:44:10.833Z</time></trkpt><trkpt lat="53.49137130967038" lon="14.793414410432392"><ele>9.0</ele><time>2026-04-12T15:44:11.833Z</time></trkpt><trkpt lat="53.49132848987884" lon="14.793329733585747"><ele>9.0</ele><time>2026-04-12T15:44:12.833Z</time></trkpt><trkpt lat="53.49126538610045" lon="14.79328190155049"><ele>9.75</ele><time>2026-04-12T15:44:13.833Z</time></trkpt><trkpt lat="53.49117658720747" lon="14.793273887253617"><ele>10.5</ele><time>2026-04-12T15:44:14.833Z</time></trkpt><trkpt lat="53.49105031036104" lon="14.793313902195658"><ele>11.25</ele><time>2026-04-12T15:44:15.833Z</time></trkpt><trkpt lat="53.49091088448715" lon="14.793375075938231"><ele>12.0</ele><time>2026-04-12T15:44:16.833Z</time></trkpt><trkpt lat="53.49076936136638" lon="14.793437382874087"><ele>12.0</ele><time>2026-04-12T15:44:17.833Z</time></trkpt><trkpt lat="53.49063358335167" lon="14.79349033236308"><ele>12.0</ele><time>2026-04-12T15:44:18.833Z</time></trkpt><trkpt lat="53.490495037989255" lon="14.793535656226412"><ele>12.0</ele><time>2026-04-12T15:44:19.833Z</time></trkpt><trkpt lat="53.49038318114707" lon="14.793541833764888"><ele>12.0</ele><time>2026-04-12T15:44:20.833Z</time></trkpt><trkpt lat="53.49031338608949" lon="14.793560356350739"><ele>12.333333333333334</ele><time>2026-04-12T15:44:21.833Z</time></trkpt><trkpt lat="53.490229276551375" lon="14.793582756110984"><ele>12.666666666666668</ele><time>2026-04-12T15:44:23.833Z</time></trkpt><trkpt lat="53.49012903043505" lon="14.793549127415769"><ele>13.0</ele><time>2026-04-12T15:44:25.833Z</time></trkpt><trkpt lat="53.49006080143797" lon="14.793465933182745"><ele>13.333333333333334</ele><time>2026-04-12T15:44:27.833Z</time></trkpt><trkpt lat="53.48999896632855" lon="14.793442036842508"><ele>13.666666666666668</ele><time>2026-04-12T15:44:28.833Z</time></trkpt><trkpt lat="53.48993415645753" lon="14.793431190553909"><ele>14.0</ele><time>2026-04-12T15:44:29.833Z</time></trkpt><trkpt lat="53.489731757634765" lon="14.793973960008802"><ele>14.0</ele><time>2026-04-12T15:44:31.833Z</time></trkpt><trkpt lat="53.48966758502292" lon="14.793953876164474"><ele>13.999999999999998</ele><time>2026-04-12T15:44:32.833Z</time></trkpt><trkpt lat="53.48957321560512" lon="14.793901047513348"><ele>13.999999999999998</ele><time>2026-04-12T15:44:33.833Z</time></trkpt><trkpt lat="53.48948915801796" lon="14.793860109822552"><ele>14.0</ele><time>2026-04-12T15:44:34.833Z</time></trkpt><trkpt lat="53.489366631213464" lon="14.793793694052289"><ele>14.0</ele><time>2026-04-12T15:44:35.833Z</time></trkpt><trkpt lat="53.489285811888465" lon="14.793776339484882"><ele>14.0</ele><time>2026-04-12T15:44:36.833Z</time></trkpt><trkpt lat="53.48919179455153" lon="14.793749532873044"><ele>13.999999999999998</ele><time>2026-04-12T15:44:37.833Z</time></trkpt><trkpt lat="53.489085435842426" lon="14.793710717430757"><ele>13.999999999999998</ele><time>2026-04-12T15:44:38.833Z</time></trkpt><trkpt lat="53.48899743559904" lon="14.793680186244769"><ele>14.0</ele><time>2026-04-12T15:44:39.833Z</time></trkpt><trkpt lat="53.48889003233062" lon="14.793651976781664"><ele>14.0</ele><time>2026-04-12T15:44:40.833Z</time></trkpt><trkpt lat="53.488781821327734" lon="14.793616020774365"><ele>14.0</ele><time>2026-04-12T15:44:41.833Z</time></trkpt><trkpt lat="53.48867672084046" lon="14.79357232059965"><ele>13.999999999999998</ele><time>2026-04-12T15:44:42.833Z</time></trkpt><trkpt lat="53.488568708816715" lon="14.793527678508712"><ele>13.999999999999998</ele><time>2026-04-12T15:44:43.833Z</time></trkpt><trkpt lat="53.488475118489774" lon="14.793502967188687"><ele>14.0</ele><time>2026-04-12T15:44:44.833Z</time></trkpt><trkpt lat="53.48837873316679" lon="14.79347642609448"><ele>14.0</ele><time>2026-04-12T15:44:45.833Z</time></trkpt><trkpt lat="53.488273731729265" lon="14.793439925471812"><ele>14.500000000000002</ele><time>2026-04-12T15:44:46.833Z</time></trkpt><trkpt lat="53.48818521816064" lon="14.79340695786614"><ele>15.0</ele><time>2026-04-12T15:44:47.833Z</time></trkpt><trkpt lat="53.48810183996078" lon="14.793372317715273"><ele>15.5</ele><time>2026-04-12T15:44:48.833Z</time></trkpt><trkpt lat="53.48802321994559" lon="14.793342556985928"><ele>16.0</ele><time>2026-04-12T15:44:49.831Z</time></trkpt><trkpt lat="53.48793491362671" lon="14.793310856492564"><ele>16.5</ele><time>2026-04-12T15:44:50.831Z</time></trkpt><trkpt lat="53.487850984516726" lon="14.793274480128755"><ele>17.0</ele><time>2026-04-12T15:44:51.831Z</time></trkpt><trkpt lat="53.48774892332021" lon="14.7932501167241"><ele>17.0</ele><time>2026-04-12T15:44:52.831Z</time></trkpt><trkpt lat="53.48767007743628" lon="14.79322339581189"><ele>17.0</ele><time>2026-04-12T15:44:53.832Z</time></trkpt><trkpt lat="53.487603142888865" lon="14.793189431741492"><ele>17.0</ele><time>2026-04-12T15:44:54.832Z</time></trkpt><trkpt lat="53.487517084569106" lon="14.793169377396916"><ele>17.0</ele><time>2026-04-12T15:44:55.831Z</time></trkpt><trkpt lat="53.48742063503398" lon="14.793138119027816"><ele>17.0</ele><time>2026-04-12T15:44:56.831Z</time></trkpt><trkpt lat="53.487303963081395" lon="14.793107109921726"><ele>17.0</ele><time>2026-04-12T15:44:57.831Z</time></trkpt><trkpt lat="53.48720554190344" lon="14.793068908977265"><ele>17.0</ele><time>2026-04-12T15:44:58.831Z</time></trkpt><trkpt lat="53.48708605919448" lon="14.793037793693195"><ele>17.0</ele><time>2026-04-12T15:44:59.831Z</time></trkpt><trkpt lat="53.486962981984" lon="14.792991362424862"><ele>17.0</ele><time>2026-04-12T15:45:00.831Z</time></trkpt><trkpt lat="53.486844761510994" lon="14.792933542357032"><ele>16.5</ele><time>2026-04-12T15:45:01.832Z</time></trkpt><trkpt lat="53.48671600967822" lon="14.792887780303344"><ele>16.0</ele><time>2026-04-12T15:45:02.831Z</time></trkpt><trkpt lat="53.48659592273864" lon="14.792840698817479"><ele>15.5</ele><time>2026-04-12T15:45:03.831Z</time></trkpt><trkpt lat="53.48648086549023" lon="14.792797556143508"><ele>15.0</ele><time>2026-04-12T15:45:04.831Z</time></trkpt><trkpt lat="53.486357467867464" lon="14.79275208661667"><ele>14.75</ele><time>2026-04-12T15:45:05.831Z</time></trkpt><trkpt lat="53.48623000204632" lon="14.792706815082633"><ele>14.5</ele><time>2026-04-12T15:45:06.831Z</time></trkpt><trkpt lat="53.486101592079585" lon="14.792668325023252"><ele>14.25</ele><time>2026-04-12T15:45:07.831Z</time></trkpt><trkpt lat="53.48597322013077" lon="14.792628718654358"><ele>14.0</ele><time>2026-04-12T15:45:08.831Z</time></trkpt><trkpt lat="53.48583243588413" lon="14.792589159313822"><ele>14.5</ele><time>2026-04-12T15:45:09.831Z</time></trkpt><trkpt lat="53.48570963420342" lon="14.792551416076083"><ele>15.0</ele><time>2026-04-12T15:45:10.831Z</time></trkpt><trkpt lat="53.485588070133964" lon="14.792510729189077"><ele>15.5</ele><time>2026-04-12T15:45:11.831Z</time></trkpt><trkpt lat="53.48547191758191" lon="14.792453511838882"><ele>16.0</ele><time>2026-04-12T15:45:12.831Z</time></trkpt><trkpt lat="53.48534776123113" lon="14.792404530939988"><ele>16.0</ele><time>2026-04-12T15:45:13.831Z</time></trkpt><trkpt lat="53.485218241186544" lon="14.792348584836686"><ele>16.0</ele><time>2026-04-12T15:45:14.831Z</time></trkpt><trkpt lat="53.48508531079284" lon="14.792306229004083"><ele>16.0</ele><time>2026-04-12T15:45:15.831Z</time></trkpt><trkpt lat="53.484952771816054" lon="14.792246954530995"><ele>16.0</ele><time>2026-04-12T15:45:16.831Z</time></trkpt><trkpt lat="53.48482278903976" lon="14.792219478039332"><ele>16.0</ele><time>2026-04-12T15:45:17.831Z</time></trkpt><trkpt lat="53.48469227703445" lon="14.792179252511652"><ele>16.0</ele><time>2026-04-12T15:45:18.831Z</time></trkpt><trkpt lat="53.484553613404245" lon="14.792126595539488"><ele>16.0</ele><time>2026-04-12T15:45:19.831Z</time></trkpt><trkpt lat="53.48441804523509" lon="14.792069014908048"><ele>16.0</ele><time>2026-04-12T15:45:20.831Z</time></trkpt><trkpt lat="53.48427365204217" lon="14.792023299445503"><ele>16.333333333333332</ele><time>2026-04-12T15:45:21.831Z</time></trkpt><trkpt lat="53.484135863350964" lon="14.791961621286102"><ele>16.666666666666668</ele><time>2026-04-12T15:45:22.831Z</time></trkpt><trkpt lat="53.48397831804465" lon="14.791923087455277"><ele>17.0</ele><time>2026-04-12T15:45:23.831Z</time></trkpt><trkpt lat="53.48383342149194" lon="14.791870001269988"><ele>17.0</ele><time>2026-04-12T15:45:24.831Z</time></trkpt><trkpt lat="53.483667141583794" lon="14.79181511699043"><ele>17.0</ele><time>2026-04-12T15:45:25.831Z</time></trkpt><trkpt lat="53.48353001371438" lon="14.791762420466693"><ele>17.0</ele><time>2026-04-12T15:45:26.831Z</time></trkpt><trkpt lat="53.48338131473868" lon="14.791706360429023"><ele>17.0</ele><time>2026-04-12T15:45:27.831Z</time></trkpt><trkpt lat="53.483238665179314" lon="14.79165481588289"><ele>17.0</ele><time>2026-04-12T15:45:28.831Z</time></trkpt><trkpt lat="53.48309949540236" lon="14.791609382071494"><ele>17.0</ele><time>2026-04-12T15:45:29.831Z</time></trkpt><trkpt lat="53.48297988612785" lon="14.79156783262331"><ele>17.0</ele><time>2026-04-12T15:45:30.831Z</time></trkpt><trkpt lat="53.48286957553528" lon="14.791535928286434"><ele>16.75</ele><time>2026-04-12T15:45:31.831Z</time></trkpt><trkpt lat="53.482762683388" lon="14.791485044330196"><ele>16.5</ele><time>2026-04-12T15:45:32.831Z</time></trkpt><trkpt lat="53.48264817094317" lon="14.791426203090714"><ele>16.25</ele><time>2026-04-12T15:45:33.831Z</time></trkpt><trkpt lat="53.48252280543317" lon="14.791385494470752"><ele>16.0</ele><time>2026-04-12T15:45:34.831Z</time></trkpt><trkpt lat="53.48241236133438" lon="14.79134707902619"><ele>16.0</ele><time>2026-04-12T15:45:35.831Z</time></trkpt><trkpt lat="53.48229133545792" lon="14.79130118609248"><ele>16.0</ele><time>2026-04-12T15:45:36.831Z</time></trkpt><trkpt lat="53.4821488349769" lon="14.791247260223367"><ele>16.0</ele><time>2026-04-12T15:45:37.831Z</time></trkpt><trkpt lat="53.48199974360985" lon="14.791181025069443"><ele>16.0</ele><time>2026-04-12T15:45:38.831Z</time></trkpt><trkpt lat="53.48186578712932" lon="14.79112360366945"><ele>16.0</ele><time>2026-04-12T15:45:39.831Z</time></trkpt><trkpt lat="53.48174632877121" lon="14.791077113884104"><ele>16.0</ele><time>2026-04-12T15:45:40.831Z</time></trkpt><trkpt lat="53.48161086895599" lon="14.791032285958165"><ele>16.0</ele><time>2026-04-12T15:45:41.831Z</time></trkpt><trkpt lat="53.48147607449631" lon="14.790974172998638"><ele>16.0</ele><time>2026-04-12T15:45:42.831Z</time></trkpt><trkpt lat="53.48135506856532" lon="14.790915114347175"><ele>16.0</ele><time>2026-04-12T15:45:43.831Z</time></trkpt><trkpt lat="53.481236826619224" lon="14.790867382033005"><ele>16.0</ele><time>2026-04-12T15:45:44.831Z</time></trkpt><trkpt lat="53.481124629134044" lon="14.790818412012364"><ele>16.0</ele><time>2026-04-12T15:45:45.831Z</time></trkpt><trkpt lat="53.481009828866" lon="14.790777277090658"><ele>16.0</ele><time>2026-04-12T15:45:46.831Z</time></trkpt><trkpt lat="53.48091537926787" lon="14.790724681161542"><ele>16.0</ele><time>2026-04-12T15:45:47.831Z</time></trkpt><trkpt lat="53.48082016237742" lon="14.790712433255647"><ele>16.0</ele><time>2026-04-12T15:45:48.831Z</time></trkpt><trkpt lat="53.4807065506081" lon="14.790669672701359"><ele>16.0</ele><time>2026-04-12T15:45:49.832Z</time></trkpt><trkpt lat="53.48057606296184" lon="14.79061420184461"><ele>16.0</ele><time>2026-04-12T15:45:50.832Z</time></trkpt><trkpt lat="53.48045834715404" lon="14.790569032217613"><ele>15.600000000000001</ele><time>2026-04-12T15:45:51.832Z</time></trkpt><trkpt lat="53.48035998561186" lon="14.790533698774302"><ele>15.200000000000001</ele><time>2026-04-12T15:45:52.832Z</time></trkpt><trkpt lat="53.48026767268782" lon="14.79050395667411"><ele>14.799999999999999</ele><time>2026-04-12T15:45:53.832Z</time></trkpt><trkpt lat="53.480191037681514" lon="14.790468829255541"><ele>14.399999999999999</ele><time>2026-04-12T15:45:54.832Z</time></trkpt><trkpt lat="53.48007016684078" lon="14.790430865733887"><ele>14.0</ele><time>2026-04-12T15:45:55.832Z</time></trkpt><trkpt lat="53.47995308708791" lon="14.790393352326864"><ele>14.0</ele><time>2026-04-12T15:45:56.832Z</time></trkpt><trkpt lat="53.47983081561781" lon="14.790361513880104"><ele>14.0</ele><time>2026-04-12T15:45:57.832Z</time></trkpt><trkpt lat="53.47971632108667" lon="14.79032027432963"><ele>14.0</ele><time>2026-04-12T15:45:58.832Z</time></trkpt><trkpt lat="53.47959725097161" lon="14.790272946933664"><ele>14.0</ele><time>2026-04-12T15:45:59.832Z</time></trkpt><trkpt lat="53.479493962333095" lon="14.79023977732859"><ele>14.399999999999999</ele><time>2026-04-12T15:46:00.832Z</time></trkpt><trkpt lat="53.47938741020564" lon="14.79019543171418"><ele>14.799999999999999</ele><time>2026-04-12T15:46:01.832Z</time></trkpt><trkpt lat="53.479290221263916" lon="14.790149974828292"><ele>15.200000000000001</ele><time>2026-04-12T15:46:02.832Z</time></trkpt><trkpt lat="53.479183043588094" lon="14.79010326778398"><ele>15.600000000000001</ele><time>2026-04-12T15:46:03.832Z</time></trkpt><trkpt lat="53.47907424238986" lon="14.790058767490798"><ele>16.0</ele><time>2026-04-12T15:46:04.832Z</time></trkpt><trkpt lat="53.478991335903956" lon="14.790031788142803"><ele>15.999999999999998</ele><time>2026-04-12T15:46:05.832Z</time></trkpt><trkpt lat="53.478899591946124" lon="14.789998197544751"><ele>16.0</ele><time>2026-04-12T15:46:06.832Z</time></trkpt><trkpt lat="53.47882418604831" lon="14.789969885870558"><ele>16.0</ele><time>2026-04-12T15:46:07.832Z</time></trkpt><trkpt lat="53.47875483057223" lon="14.789964503562544"><ele>16.0</ele><time>2026-04-12T15:46:08.832Z</time></trkpt><trkpt lat="53.478642864570574" lon="14.789911203933496"><ele>15.999999999999998</ele><time>2026-04-12T15:46:10.832Z</time></trkpt><trkpt lat="53.47859461105348" lon="14.789802955807188"><ele>16.0</ele><time>2026-04-12T15:46:17.832Z</time></trkpt><trkpt lat="53.47852027030689" lon="14.789832076429626"><ele>16.166666666666664</ele><time>2026-04-12T15:46:25.832Z</time></trkpt><trkpt lat="53.47843855023664" lon="14.789851409860027"><ele>16.333333333333332</ele><time>2026-04-12T15:46:27.832Z</time></trkpt><trkpt lat="53.47837359467926" lon="14.789819590743601"><ele>16.5</ele><time>2026-04-12T15:46:28.832Z</time></trkpt><trkpt lat="53.47829444236914" lon="14.789786783550952"><ele>16.666666666666668</ele><time>2026-04-12T15:46:29.832Z</time></trkpt><trkpt lat="53.47819212230664" lon="14.789744847672708"><ele>16.833333333333336</ele><time>2026-04-12T15:46:30.832Z</time></trkpt><trkpt lat="53.47809167441156" lon="14.789706900980525"><ele>17.0</ele><time>2026-04-12T15:46:31.832Z</time></trkpt><trkpt lat="53.47799163576067" lon="14.789669479232469"><ele>17.0</ele><time>2026-04-12T15:46:32.832Z</time></trkpt><trkpt lat="53.477925943721566" lon="14.789637331600142"><ele>17.0</ele><time>2026-04-12T15:46:33.832Z</time></trkpt><trkpt lat="53.47782419804857" lon="14.789595325544171"><ele>17.0</ele><time>2026-04-12T15:46:34.832Z</time></trkpt><trkpt lat="53.477715040277815" lon="14.789567158495158"><ele>17.0</ele><time>2026-04-12T15:46:35.832Z</time></trkpt><trkpt lat="53.47760595790811" lon="14.78951933678243"><ele>17.0</ele><time>2026-04-12T15:46:36.832Z</time></trkpt><trkpt lat="53.4775288612549" lon="14.789494605615838"><ele>17.0</ele><time>2026-04-12T15:46:37.832Z</time></trkpt><trkpt lat="53.47746149577383" lon="14.789467422126119"><ele>17.0</ele><time>2026-04-12T15:46:38.832Z</time></trkpt><trkpt lat="53.477372010054104" lon="14.789447123618078"><ele>17.0</ele><time>2026-04-12T15:46:40.832Z</time></trkpt><trkpt lat="53.47731857816575" lon="14.789544839901312"><ele>17.0</ele><time>2026-04-12T15:46:42.832Z</time></trkpt><trkpt lat="53.47727543129644" lon="14.789641193087752"><ele>17.0</ele><time>2026-04-12T15:46:43.832Z</time></trkpt><trkpt lat="53.477213674324794" lon="14.78972029078449"><ele>17.0</ele><time>2026-04-12T15:46:44.832Z</time></trkpt><trkpt lat="53.4771555060484" lon="14.789765696650736"><ele>17.0</ele><time>2026-04-12T15:46:45.832Z</time></trkpt><trkpt lat="53.477090411954975" lon="14.789785504560292"><ele>17.0</ele><time>2026-04-12T15:46:46.832Z</time></trkpt><trkpt lat="53.47701120200773" lon="14.789773042058108"><ele>17.0</ele><time>2026-04-12T15:46:47.832Z</time></trkpt><trkpt lat="53.476933549180124" lon="14.78973527313654"><ele>17.0</ele><time>2026-04-12T15:46:48.832Z</time></trkpt><trkpt lat="53.476857134018296" lon="14.78967811274777"><ele>17.0</ele><time>2026-04-12T15:46:49.832Z</time></trkpt><trkpt lat="53.476760595093694" lon="14.7896337184157"><ele>17.0</ele><time>2026-04-12T15:46:50.832Z</time></trkpt><trkpt lat="53.476657965083234" lon="14.789599386052709"><ele>17.0</ele><time>2026-04-12T15:46:51.832Z</time></trkpt><trkpt lat="53.47655014050788" lon="14.789558243072035"><ele>17.0</ele><time>2026-04-12T15:46:52.832Z</time></trkpt><trkpt lat="53.47644844509074" lon="14.7895256305582"><ele>17.0</ele><time>2026-04-12T15:46:53.832Z</time></trkpt><trkpt lat="53.47634549013644" lon="14.789481665405392"><ele>17.0</ele><time>2026-04-12T15:46:54.832Z</time></trkpt><trkpt lat="53.47625269028478" lon="14.789446633065817"><ele>17.0</ele><time>2026-04-12T15:46:55.831Z</time></trkpt><trkpt lat="53.47616609869211" lon="14.789401396364275"><ele>16.8</ele><time>2026-04-12T15:46:56.83Z</time></trkpt><trkpt lat="53.47606936549571" lon="14.789368793095445"><ele>16.6</ele><time>2026-04-12T15:46:57.83Z</time></trkpt><trkpt lat="53.47596715226101" lon="14.789325964049882"><ele>16.400000000000002</ele><time>2026-04-12T15:46:58.831Z</time></trkpt><trkpt lat="53.47585896811618" lon="14.789287489970372"><ele>16.2</ele><time>2026-04-12T15:46:59.831Z</time></trkpt><trkpt lat="53.47574978896859" lon="14.789242078119482"><ele>16.0</ele><time>2026-04-12T15:47:00.831Z</time></trkpt><trkpt lat="53.47563584868534" lon="14.789213962703247"><ele>15.8</ele><time>2026-04-12T15:47:01.831Z</time></trkpt><trkpt lat="53.47552674189158" lon="14.789170490630728"><ele>15.600000000000001</ele><time>2026-04-12T15:47:02.831Z</time></trkpt><trkpt lat="53.47542869820462" lon="14.78912731540726"><ele>15.4</ele><time>2026-04-12T15:47:03.831Z</time></trkpt><trkpt lat="53.4753309415728" lon="14.789087787192969"><ele>15.2</ele><time>2026-04-12T15:47:04.831Z</time></trkpt><trkpt lat="53.47522995932998" lon="14.78904492198806"><ele>15.0</ele><time>2026-04-12T15:47:05.831Z</time></trkpt><trkpt lat="53.47511851738801" lon="14.78899180783475"><ele>15.0</ele><time>2026-04-12T15:47:06.831Z</time></trkpt><trkpt lat="53.47502637669318" lon="14.788953712875552"><ele>15.0</ele><time>2026-04-12T15:47:07.83Z</time></trkpt><trkpt lat="53.47490725261127" lon="14.788907462026268"><ele>15.0</ele><time>2026-04-12T15:47:08.831Z</time></trkpt><trkpt lat="53.47478238603661" lon="14.788854025427838"><ele>15.0</ele><time>2026-04-12T15:47:09.831Z</time></trkpt><trkpt lat="53.47464165848633" lon="14.788799410932404"><ele>14.0</ele><time>2026-04-12T15:47:10.831Z</time></trkpt><trkpt lat="53.47449356048288" lon="14.788741846725166"><ele>13.0</ele><time>2026-04-12T15:47:11.831Z</time></trkpt><trkpt lat="53.474333185963246" lon="14.788679983306174"><ele>12.0</ele><time>2026-04-12T15:47:12.831Z</time></trkpt><trkpt lat="53.47417158126922" lon="14.788618132742913"><ele>12.0</ele><time>2026-04-12T15:47:13.831Z</time></trkpt><trkpt lat="53.474023719666974" lon="14.788566922646888"><ele>12.0</ele><time>2026-04-12T15:47:14.831Z</time></trkpt><trkpt lat="53.47384906646172" lon="14.788517632950288"><ele>12.0</ele><time>2026-04-12T15:47:15.831Z</time></trkpt><trkpt lat="53.47370319853997" lon="14.78847197581513"><ele>13.25</ele><time>2026-04-12T15:47:16.831Z</time></trkpt><trkpt lat="53.473563879304216" lon="14.788425182005588"><ele>14.5</ele><time>2026-04-12T15:47:17.831Z</time></trkpt><trkpt lat="53.47342306324643" lon="14.788378420517155"><ele>15.75</ele><time>2026-04-12T15:47:18.831Z</time></trkpt><trkpt lat="53.473282835586076" lon="14.788328092478654"><ele>17.0</ele><time>2026-04-12T15:47:19.831Z</time></trkpt><trkpt lat="53.47313294058161" lon="14.788276714689344"><ele>17.0</ele><time>2026-04-12T15:47:20.831Z</time></trkpt><trkpt lat="53.47295405496101" lon="14.78822175867668"><ele>17.0</ele><time>2026-04-12T15:47:21.831Z</time></trkpt><trkpt lat="53.47279780287304" lon="14.788160334068678"><ele>17.0</ele><time>2026-04-12T15:47:22.831Z</time></trkpt><trkpt lat="53.472611906994985" lon="14.78839147067877"><ele>16.75</ele><time>2026-04-12T15:47:23.831Z</time></trkpt><trkpt lat="53.47247770046909" lon="14.788343366268514"><ele>16.5</ele><time>2026-04-12T15:47:24.831Z</time></trkpt><trkpt lat="53.472327575810475" lon="14.788289007753367"><ele>16.25</ele><time>2026-04-12T15:47:25.831Z</time></trkpt><trkpt lat="53.4721826585302" lon="14.78823714756074"><ele>16.0</ele><time>2026-04-12T15:47:26.831Z</time></trkpt><trkpt lat="53.47202456858947" lon="14.78818056035768"><ele>16.0</ele><time>2026-04-12T15:47:27.831Z</time></trkpt><trkpt lat="53.471861898418204" lon="14.78812252713045"><ele>16.0</ele><time>2026-04-12T15:47:28.831Z</time></trkpt><trkpt lat="53.4717107634464" lon="14.788068695038856"><ele>16.0</ele><time>2026-04-12T15:47:29.831Z</time></trkpt><trkpt lat="53.47156369878477" lon="14.788016312730443"><ele>16.0</ele><time>2026-04-12T15:47:30.831Z</time></trkpt><trkpt lat="53.47141437875199" lon="14.787962926859187"><ele>16.0</ele><time>2026-04-12T15:47:31.831Z</time></trkpt><trkpt lat="53.4712597781979" lon="14.787907597149308"><ele>16.0</ele><time>2026-04-12T15:47:32.831Z</time></trkpt><trkpt lat="53.47109335382511" lon="14.787851342532642"><ele>17.0</ele><time>2026-04-12T15:47:33.831Z</time></trkpt><trkpt lat="53.47092234548585" lon="14.78779526820307"><ele>18.0</ele><time>2026-04-12T15:47:34.831Z</time></trkpt><trkpt lat="53.47073970852767" lon="14.787736219817583"><ele>19.0</ele><time>2026-04-12T15:47:35.831Z</time></trkpt><trkpt lat="53.470568252532836" lon="14.787686423633566"><ele>18.25</ele><time>2026-04-12T15:47:36.831Z</time></trkpt><trkpt lat="53.47042463926347" lon="14.787645694468566"><ele>17.5</ele><time>2026-04-12T15:47:37.831Z</time></trkpt><trkpt lat="53.47027928877424" lon="14.78760788718637"><ele>16.75</ele><time>2026-04-12T15:47:38.831Z</time></trkpt><trkpt lat="53.470127943639866" lon="14.787571052814117"><ele>16.0</ele><time>2026-04-12T15:47:39.831Z</time></trkpt><trkpt lat="53.46998242888128" lon="14.787539896667285"><ele>16.0</ele><time>2026-04-12T15:47:40.831Z</time></trkpt><trkpt lat="53.469822010678335" lon="14.787507494567674"><ele>16.0</ele><time>2026-04-12T15:47:41.831Z</time></trkpt><trkpt lat="53.469660017205186" lon="14.787479478500268"><ele>16.0</ele><time>2026-04-12T15:47:42.831Z</time></trkpt><trkpt lat="53.469523998243645" lon="14.786950553810996"><ele>15.666666666666666</ele><time>2026-04-12T15:47:43.831Z</time></trkpt><trkpt lat="53.469359347247156" lon="14.786888606002677"><ele>15.333333333333332</ele><time>2026-04-12T15:47:44.831Z</time></trkpt><trkpt lat="53.469206447762" lon="14.786833092004075"><ele>15.0</ele><time>2026-04-12T15:47:45.831Z</time></trkpt><trkpt lat="53.46904860797925" lon="14.786776237099414"><ele>15.0</ele><time>2026-04-12T15:47:46.831Z</time></trkpt><trkpt lat="53.46888990334185" lon="14.786724716845322"><ele>15.0</ele><time>2026-04-12T15:47:47.831Z</time></trkpt><trkpt lat="53.468725926318854" lon="14.786674663714095"><ele>15.0</ele><time>2026-04-12T15:47:48.831Z</time></trkpt><trkpt lat="53.46856386954801" lon="14.786622313818372"><ele>14.666666666666668</ele><time>2026-04-12T15:47:49.831Z</time></trkpt><trkpt lat="53.46840002278479" lon="14.786566066574979"><ele>14.333333333333334</ele><time>2026-04-12T15:47:50.831Z</time></trkpt><trkpt lat="53.468224387402124" lon="14.786498019649859"><ele>14.0</ele><time>2026-04-12T15:47:51.831Z</time></trkpt><trkpt lat="53.468062619283074" lon="14.786434280814902"><ele>14.0</ele><time>2026-04-12T15:47:52.831Z</time></trkpt><trkpt lat="53.46791625777685" lon="14.78638493684765"><ele>14.0</ele><time>2026-04-12T15:47:53.831Z</time></trkpt><trkpt lat="53.46778821582701" lon="14.786338307902152"><ele>14.0</ele><time>2026-04-12T15:47:54.831Z</time></trkpt><trkpt lat="53.46764866723512" lon="14.786282812240922"><ele>14.0</ele><time>2026-04-12T15:47:55.831Z</time></trkpt><trkpt lat="53.46750418539786" lon="14.786222649515429"><ele>14.0</ele><time>2026-04-12T15:47:56.831Z</time></trkpt><trkpt lat="53.46735614667718" lon="14.786165356121861"><ele>14.0</ele><time>2026-04-12T15:47:57.831Z</time></trkpt><trkpt lat="53.46719069352878" lon="14.786112519702941"><ele>14.0</ele><time>2026-04-12T15:47:58.831Z</time></trkpt><trkpt lat="53.46702471048989" lon="14.786055414504126"><ele>14.5</ele><time>2026-04-12T15:47:59.831Z</time></trkpt><trkpt lat="53.46687983258395" lon="14.78600398572119"><ele>15.0</ele><time>2026-04-12T15:48:00.831Z</time></trkpt><trkpt lat="53.46674625603374" lon="14.785950717966465"><ele>15.5</ele><time>2026-04-12T15:48:01.831Z</time></trkpt><trkpt lat="53.46661393539389" lon="14.785913287323618"><ele>16.0</ele><time>2026-04-12T15:48:02.831Z</time></trkpt><trkpt lat="53.466466141348576" lon="14.785843211506476"><ele>16.0</ele><time>2026-04-12T15:48:03.831Z</time></trkpt><trkpt lat="53.46630339155803" lon="14.78579663300845"><ele>16.0</ele><time>2026-04-12T15:48:04.831Z</time></trkpt><trkpt lat="53.46613964968788" lon="14.785747608704277"><ele>16.0</ele><time>2026-04-12T15:48:05.831Z</time></trkpt><trkpt lat="53.46600249657502" lon="14.785702687794181"><ele>16.333333333333332</ele><time>2026-04-12T15:48:06.831Z</time></trkpt><trkpt lat="53.46586711315849" lon="14.785652241207018"><ele>16.666666666666668</ele><time>2026-04-12T15:48:07.831Z</time></trkpt><trkpt lat="53.46570002858785" lon="14.785591220835604"><ele>17.0</ele><time>2026-04-12T15:48:08.831Z</time></trkpt><trkpt lat="53.46554345453827" lon="14.785529589027632"><ele>16.0</ele><time>2026-04-12T15:48:09.831Z</time></trkpt><trkpt lat="53.46537842876033" lon="14.785466142960004"><ele>15.0</ele><time>2026-04-12T15:48:10.831Z</time></trkpt><trkpt lat="53.465217846862295" lon="14.785395758893314"><ele>14.0</ele><time>2026-04-12T15:48:11.831Z</time></trkpt><trkpt lat="53.46506359499154" lon="14.785339893530228"><ele>14.0</ele><time>2026-04-12T15:48:12.831Z</time></trkpt><trkpt lat="53.46486600085663" lon="14.785515983905096"><ele>14.0</ele><time>2026-04-12T15:48:13.831Z</time></trkpt><trkpt lat="53.46468053944641" lon="14.785447744496105"><ele>14.0</ele><time>2026-04-12T15:48:14.831Z</time></trkpt><trkpt lat="53.464524647795464" lon="14.785384659526992"><ele>13.666666666666668</ele><time>2026-04-12T15:48:15.831Z</time></trkpt><trkpt lat="53.464372767203606" lon="14.785318432676931"><ele>13.333333333333332</ele><time>2026-04-12T15:48:16.831Z</time></trkpt><trkpt lat="53.464251745104335" lon="14.785072992087088"><ele>13.0</ele><time>2026-04-12T15:48:17.831Z</time></trkpt><trkpt lat="53.464085092346096" lon="14.785023246347022"><ele>13.0</ele><time>2026-04-12T15:48:18.831Z</time></trkpt><trkpt lat="53.46390481095633" lon="14.785144573241086"><ele>13.0</ele><time>2026-04-12T15:48:19.831Z</time></trkpt><trkpt lat="53.46374655486879" lon="14.785092865259353"><ele>13.0</ele><time>2026-04-12T15:48:20.831Z</time></trkpt><trkpt lat="53.46357383185446" lon="14.7850372961178"><ele>12.333333333333332</ele><time>2026-04-12T15:48:21.831Z</time></trkpt><trkpt lat="53.46343981429742" lon="14.78479068826765"><ele>11.666666666666666</ele><time>2026-04-12T15:48:22.831Z</time></trkpt><trkpt lat="53.46329869925607" lon="14.784719464365521"><ele>11.0</ele><time>2026-04-12T15:48:23.831Z</time></trkpt><trkpt lat="53.463144067313095" lon="14.784663453685589"><ele>11.0</ele><time>2026-04-12T15:48:24.831Z</time></trkpt><trkpt lat="53.462987148915296" lon="14.784610738703664"><ele>11.0</ele><time>2026-04-12T15:48:25.831Z</time></trkpt><trkpt lat="53.462862731418994" lon="14.784571960515155"><ele>11.0</ele><time>2026-04-12T15:48:26.831Z</time></trkpt><trkpt lat="53.46276150721229" lon="14.784557636919253"><ele>11.0</ele><time>2026-04-12T15:48:27.831Z</time></trkpt><trkpt lat="53.46267298868466" lon="14.784539475914713"><ele>10.75</ele><time>2026-04-12T15:48:28.831Z</time></trkpt><trkpt lat="53.46256616998715" lon="14.784491268228997"><ele>10.5</ele><time>2026-04-12T15:48:29.831Z</time></trkpt><trkpt lat="53.46244338572432" lon="14.784435712172446"><ele>10.25</ele><time>2026-04-12T15:48:30.831Z</time></trkpt><trkpt lat="53.46230773008983" lon="14.784375100648719"><ele>10.0</ele><time>2026-04-12T15:48:31.831Z</time></trkpt><trkpt lat="53.46217837067849" lon="14.784328378842767"><ele>9.8</ele><time>2026-04-12T15:48:32.831Z</time></trkpt><trkpt lat="53.462058296638126" lon="14.7842866328213"><ele>9.6</ele><time>2026-04-12T15:48:33.831Z</time></trkpt><trkpt lat="53.46195318842117" lon="14.784251733091654"><ele>9.4</ele><time>2026-04-12T15:48:34.831Z</time></trkpt><trkpt lat="53.46187680095478" lon="14.7842297199613"><ele>9.2</ele><time>2026-04-12T15:48:35.831Z</time></trkpt><trkpt lat="53.46178401933118" lon="14.78419915738576"><ele>9.0</ele><time>2026-04-12T15:48:37.831Z</time></trkpt><trkpt lat="53.46172900957844" lon="14.784071978699222"><ele>9.0</ele><time>2026-04-12T15:48:43.831Z</time></trkpt><trkpt lat="53.461676632526896" lon="14.783914024548134"><ele>9.0</ele><time>2026-04-12T15:48:45.831Z</time></trkpt><trkpt lat="53.46160998373748" lon="14.783863702340627"><ele>9.0</ele><time>2026-04-12T15:48:46.831Z</time></trkpt><trkpt lat="53.461500716645915" lon="14.783826773286124"><ele>9.0</ele><time>2026-04-12T15:48:47.831Z</time></trkpt><trkpt lat="53.46135249717319" lon="14.783772213773776"><ele>9.0</ele><time>2026-04-12T15:48:48.831Z</time></trkpt><trkpt lat="53.461210411394205" lon="14.783713097556479"><ele>9.333333333333334</ele><time>2026-04-12T15:48:49.831Z</time></trkpt><trkpt lat="53.461051675545065" lon="14.783642039013895"><ele>9.666666666666668</ele><time>2026-04-12T15:48:50.831Z</time></trkpt><trkpt lat="53.460878089431546" lon="14.783591584630237"><ele>10.0</ele><time>2026-04-12T15:48:51.831Z</time></trkpt><trkpt lat="53.460707957210396" lon="14.78354620187646"><ele>10.0</ele><time>2026-04-12T15:48:52.831Z</time></trkpt><trkpt lat="53.460563122813646" lon="14.783508588856003"><ele>10.0</ele><time>2026-04-12T15:48:53.831Z</time></trkpt><trkpt lat="53.46043252042952" lon="14.783470501493358"><ele>10.0</ele><time>2026-04-12T15:48:54.831Z</time></trkpt><trkpt lat="53.460313952656" lon="14.783415119902946"><ele>10.0</ele><time>2026-04-12T15:48:55.831Z</time></trkpt><trkpt lat="53.46020491224928" lon="14.783369860462843"><ele>10.0</ele><time>2026-04-12T15:48:56.831Z</time></trkpt><trkpt lat="53.46009382382968" lon="14.783333404356151"><ele>10.0</ele><time>2026-04-12T15:48:57.831Z</time></trkpt><trkpt lat="53.4599757311001" lon="14.78328169803161"><ele>10.0</ele><time>2026-04-12T15:48:58.831Z</time></trkpt><trkpt lat="53.459860055775415" lon="14.783222956611263"><ele>10.0</ele><time>2026-04-12T15:48:59.831Z</time></trkpt><trkpt lat="53.45975611955045" lon="14.783165874930333"><ele>10.0</ele><time>2026-04-12T15:49:00.831Z</time></trkpt><trkpt lat="53.45965668509792" lon="14.783125622799474"><ele>10.0</ele><time>2026-04-12T15:49:01.83Z</time></trkpt><trkpt lat="53.459560717055474" lon="14.783110541051299"><ele>10.0</ele><time>2026-04-12T15:49:02.83Z</time></trkpt><trkpt lat="53.45947160347115" lon="14.783114390325457"><ele>10.0</ele><time>2026-04-12T15:49:03.83Z</time></trkpt><trkpt lat="53.45938818107711" lon="14.78309550675966"><ele>10.0</ele><time>2026-04-12T15:49:04.83Z</time></trkpt><trkpt lat="53.459308154205495" lon="14.783077266829164"><ele>10.0</ele><time>2026-04-12T15:49:05.829Z</time></trkpt><trkpt lat="53.4592171972065" lon="14.78305662103378"><ele>10.0</ele><time>2026-04-12T15:49:06.829Z</time></trkpt><trkpt lat="53.45911526104711" lon="14.783031864095758"><ele>10.0</ele><time>2026-04-12T15:49:07.83Z</time></trkpt><trkpt lat="53.45900456807426" lon="14.782999903194197"><ele>10.0</ele><time>2026-04-12T15:49:08.83Z</time></trkpt><trkpt lat="53.45889266975669" lon="14.782963095022234"><ele>10.0</ele><time>2026-04-12T15:49:09.83Z</time></trkpt><trkpt lat="53.458782108438704" lon="14.782948027094791"><ele>10.0</ele><time>2026-04-12T15:49:10.829Z</time></trkpt><trkpt lat="53.458677454113456" lon="14.782901076879465"><ele>10.0</ele><time>2026-04-12T15:49:11.83Z</time></trkpt><trkpt lat="53.458557160869574" lon="14.782851973241458"><ele>10.0</ele><time>2026-04-12T15:49:12.83Z</time></trkpt><trkpt lat="53.45844180231816" lon="14.782812185237297"><ele>10.0</ele><time>2026-04-12T15:49:13.83Z</time></trkpt><trkpt lat="53.458330791519806" lon="14.782769109397456"><ele>10.0</ele><time>2026-04-12T15:49:14.83Z</time></trkpt><trkpt lat="53.45822133126552" lon="14.782727063324614"><ele>10.0</ele><time>2026-04-12T15:49:15.83Z</time></trkpt><trkpt lat="53.458116230607494" lon="14.782688335204266"><ele>10.0</ele><time>2026-04-12T15:49:16.83Z</time></trkpt><trkpt lat="53.45801029307678" lon="14.782649731454367"><ele>10.0</ele><time>2026-04-12T15:49:17.83Z</time></trkpt><trkpt lat="53.45790628750541" lon="14.782607992506684"><ele>10.0</ele><time>2026-04-12T15:49:18.83Z</time></trkpt><trkpt lat="53.45780191332047" lon="14.782570050067658"><ele>10.0</ele><time>2026-04-12T15:49:19.83Z</time></trkpt><trkpt lat="53.45769919854936" lon="14.782536451453604"><ele>10.0</ele><time>2026-04-12T15:49:20.83Z</time></trkpt><trkpt lat="53.45759317172454" lon="14.782499977504855"><ele>10.0</ele><time>2026-04-12T15:49:21.83Z</time></trkpt><trkpt lat="53.457490819531834" lon="14.782468417782434"><ele>10.0</ele><time>2026-04-12T15:49:22.83Z</time></trkpt><trkpt lat="53.457393557557495" lon="14.782430692045828"><ele>10.0</ele><time>2026-04-12T15:49:23.83Z</time></trkpt><trkpt lat="53.45729344542086" lon="14.782401071444943"><ele>10.0</ele><time>2026-04-12T15:49:24.83Z</time></trkpt><trkpt lat="53.45721248119441" lon="14.782344298039488"><ele>10.0</ele><time>2026-04-12T15:49:25.83Z</time></trkpt><trkpt lat="53.45713369471177" lon="14.782315844429926"><ele>10.0</ele><time>2026-04-12T15:49:26.83Z</time></trkpt><trkpt lat="53.45698837687925" lon="14.78226299792379"><ele>10.0</ele><time>2026-04-12T15:49:28.83Z</time></trkpt><trkpt lat="53.45688196300644" lon="14.782228884817886"><ele>10.0</ele><time>2026-04-12T15:49:29.83Z</time></trkpt><trkpt lat="53.45677061144767" lon="14.782193946718282"><ele>10.0</ele><time>2026-04-12T15:49:30.83Z</time></trkpt><trkpt lat="53.45665305532586" lon="14.782156453589785"><ele>10.0</ele><time>2026-04-12T15:49:31.83Z</time></trkpt><trkpt lat="53.456559456313045" lon="14.782126601291147"><ele>10.0</ele><time>2026-04-12T15:49:32.83Z</time></trkpt><trkpt lat="53.45648328618163" lon="14.782101431164746"><ele>10.0</ele><time>2026-04-12T15:49:33.83Z</time></trkpt><trkpt lat="53.456412741295594" lon="14.782105515750532"><ele>10.0</ele><time>2026-04-12T15:49:34.83Z</time></trkpt><trkpt lat="53.456328365184724" lon="14.78205983364347"><ele>10.333333333333334</ele><time>2026-04-12T15:49:35.83Z</time></trkpt><trkpt lat="53.45623686498982" lon="14.782036087089008"><ele>10.666666666666668</ele><time>2026-04-12T15:49:36.83Z</time></trkpt><trkpt lat="53.45615482487564" lon="14.782016090590918"><ele>11.0</ele><time>2026-04-12T15:49:37.83Z</time></trkpt><trkpt lat="53.45608353474426" lon="14.781963973337366"><ele>11.333333333333334</ele><time>2026-04-12T15:49:38.83Z</time></trkpt><trkpt lat="53.45598142475548" lon="14.781945586078956"><ele>11.666666666666666</ele><time>2026-04-12T15:49:40.83Z</time></trkpt><trkpt lat="53.45591024078812" lon="14.781920131552633"><ele>12.0</ele><time>2026-04-12T15:49:42.83Z</time></trkpt><trkpt lat="53.45583623930171" lon="14.781894358315"><ele>11.833333333333334</ele><time>2026-04-12T15:49:44.83Z</time></trkpt><trkpt lat="53.45576040397133" lon="14.781846104571676"><ele>11.666666666666666</ele><time>2026-04-12T15:49:46.83Z</time></trkpt><trkpt lat="53.45568290467109" lon="14.781837040615638"><ele>11.5</ele><time>2026-04-12T15:49:48.83Z</time></trkpt><trkpt lat="53.455613925748786" lon="14.78179250891058"><ele>11.333333333333332</ele><time>2026-04-12T15:49:50.83Z</time></trkpt><trkpt lat="53.45552656982625" lon="14.78175957930402"><ele>11.166666666666666</ele><time>2026-04-12T15:49:52.83Z</time></trkpt><trkpt lat="53.455432469794665" lon="14.781742293130876"><ele>11.0</ele><time>2026-04-12T15:49:54.83Z</time></trkpt><trkpt lat="53.45534559102746" lon="14.781710838496748"><ele>11.0</ele><time>2026-04-12T15:49:56.83Z</time></trkpt><trkpt lat="53.45525152867823" lon="14.781673136799043"><ele>11.0</ele><time>2026-04-12T15:49:58.83Z</time></trkpt><trkpt lat="53.45517620048155" lon="14.781635464400173"><ele>11.0</ele><time>2026-04-12T15:50:00.83Z</time></trkpt><trkpt lat="53.455097344771275" lon="14.781601623114307"><ele>11.0</ele><time>2026-04-12T15:50:02.83Z</time></trkpt><trkpt lat="53.45497356258563" lon="14.781550374258973"><ele>11.0</ele><time>2026-04-12T15:50:04.83Z</time></trkpt><trkpt lat="53.45491169682422" lon="14.781521337823028"><ele>11.0</ele><time>2026-04-12T15:50:05.83Z</time></trkpt><trkpt lat="53.4548553312282" lon="14.781468614289896"><ele>11.0</ele><time>2026-04-12T15:50:06.83Z</time></trkpt><trkpt lat="53.45478436915777" lon="14.781433428373157"><ele>11.0</ele><time>2026-04-12T15:50:07.83Z</time></trkpt><trkpt lat="53.4547101707146" lon="14.78141822187023"><ele>11.0</ele><time>2026-04-12T15:50:08.83Z</time></trkpt><trkpt lat="53.45463452341309" lon="14.78137918096452"><ele>11.0</ele><time>2026-04-12T15:50:09.83Z</time></trkpt><trkpt lat="53.45454521599152" lon="14.781310323022058"><ele>11.0</ele><time>2026-04-12T15:50:10.83Z</time></trkpt><trkpt lat="53.45447215686846" lon="14.78127044591655"><ele>11.0</ele><time>2026-04-12T15:50:11.83Z</time></trkpt><trkpt lat="53.45439114979575" lon="14.781222583493525"><ele>11.200000000000001</ele><time>2026-04-12T15:50:12.83Z</time></trkpt><trkpt lat="53.45429990136807" lon="14.78116673713703"><ele>11.4</ele><time>2026-04-12T15:50:13.83Z</time></trkpt><trkpt lat="53.454224354952025" lon="14.781117030727783"><ele>11.6</ele><time>2026-04-12T15:50:14.83Z</time></trkpt><trkpt lat="53.454145951217725" lon="14.781062677112876"><ele>11.8</ele><time>2026-04-12T15:50:15.83Z</time></trkpt><trkpt lat="53.4540490938006" lon="14.781022303000267"><ele>12.0</ele><time>2026-04-12T15:50:16.83Z</time></trkpt><trkpt lat="53.45395047791737" lon="14.780945393309796"><ele>12.0</ele><time>2026-04-12T15:50:17.83Z</time></trkpt><trkpt lat="53.4538579382736" lon="14.780872706911836"><ele>12.0</ele><time>2026-04-12T15:50:18.83Z</time></trkpt><trkpt lat="53.45378529962182" lon="14.780802054170788"><ele>12.0</ele><time>2026-04-12T15:50:19.83Z</time></trkpt><trkpt lat="53.453702359523675" lon="14.780744133515611"><ele>12.0</ele><time>2026-04-12T15:50:20.83Z</time></trkpt><trkpt lat="53.45361976692845" lon="14.780647337904883"><ele>12.0</ele><time>2026-04-12T15:50:21.83Z</time></trkpt><trkpt lat="53.453524191575596" lon="14.780565902065907"><ele>13.5</ele><time>2026-04-12T15:50:22.83Z</time></trkpt><trkpt lat="53.453425524385764" lon="14.780480643404768"><ele>15.0</ele><time>2026-04-12T15:50:23.83Z</time></trkpt><trkpt lat="53.45333468867995" lon="14.78039860297654"><ele>16.5</ele><time>2026-04-12T15:50:24.83Z</time></trkpt><trkpt lat="53.45323019681219" lon="14.780334127940316"><ele>18.0</ele><time>2026-04-12T15:50:25.83Z</time></trkpt><trkpt lat="53.453114345636266" lon="14.780238263787457"><ele>18.75</ele><time>2026-04-12T15:50:26.83Z</time></trkpt><trkpt lat="53.45301955989961" lon="14.780135639587495"><ele>19.5</ele><time>2026-04-12T15:50:27.83Z</time></trkpt><trkpt lat="53.452910375218984" lon="14.78002964548993"><ele>20.25</ele><time>2026-04-12T15:50:28.83Z</time></trkpt><trkpt lat="53.45280735002879" lon="14.779922289809544"><ele>21.0</ele><time>2026-04-12T15:50:29.83Z</time></trkpt><trkpt lat="53.45269951265048" lon="14.779812838041464"><ele>21.25</ele><time>2026-04-12T15:50:30.83Z</time></trkpt><trkpt lat="53.45259744974988" lon="14.779701661059736"><ele>21.5</ele><time>2026-04-12T15:50:31.83Z</time></trkpt><trkpt lat="53.45249690043386" lon="14.779581307250618"><ele>21.75</ele><time>2026-04-12T15:50:32.83Z</time></trkpt><trkpt lat="53.45240767430969" lon="14.779455293970766"><ele>22.0</ele><time>2026-04-12T15:50:33.83Z</time></trkpt><trkpt lat="53.452290996723015" lon="14.779330802833902"><ele>22.25</ele><time>2026-04-12T15:50:34.83Z</time></trkpt><trkpt lat="53.45217715205923" lon="14.779186989528423"><ele>22.5</ele><time>2026-04-12T15:50:35.83Z</time></trkpt><trkpt lat="53.45207137726795" lon="14.77904239703786"><ele>22.75</ele><time>2026-04-12T15:50:36.83Z</time></trkpt><trkpt lat="53.45195000481124" lon="14.778875603935422"><ele>23.0</ele><time>2026-04-12T15:50:37.83Z</time></trkpt><trkpt lat="53.451833501143895" lon="14.778710735386307"><ele>22.333333333333336</ele><time>2026-04-12T15:50:38.83Z</time></trkpt><trkpt lat="53.45172225647588" lon="14.77854508996001"><ele>21.666666666666668</ele><time>2026-04-12T15:50:39.83Z</time></trkpt><trkpt lat="53.451609462711836" lon="14.778372214163156"><ele>21.0</ele><time>2026-04-12T15:50:40.83Z</time></trkpt><trkpt lat="53.451496442046995" lon="14.778200029814787"><ele>21.0</ele><time>2026-04-12T15:50:41.83Z</time></trkpt><trkpt lat="53.45138523201234" lon="14.778023539437786"><ele>21.0</ele><time>2026-04-12T15:50:42.83Z</time></trkpt><trkpt lat="53.45125615794441" lon="14.777826833480757"><ele>21.0</ele><time>2026-04-12T15:50:43.83Z</time></trkpt><trkpt lat="53.45112035481515" lon="14.777636620945335"><ele>20.0</ele><time>2026-04-12T15:50:44.83Z</time></trkpt><trkpt lat="53.45101553019714" lon="14.77743722599705"><ele>19.0</ele><time>2026-04-12T15:50:45.83Z</time></trkpt><trkpt lat="53.45090792873454" lon="14.77724697254512"><ele>18.0</ele><time>2026-04-12T15:50:46.83Z</time></trkpt><trkpt lat="53.45079496560022" lon="14.777095704035691"><ele>18.0</ele><time>2026-04-12T15:50:47.83Z</time></trkpt><trkpt lat="53.45067186814921" lon="14.776927287065003"><ele>18.0</ele><time>2026-04-12T15:50:48.83Z</time></trkpt><trkpt lat="53.45056456663308" lon="14.776761390402294"><ele>18.0</ele><time>2026-04-12T15:50:49.83Z</time></trkpt><trkpt lat="53.45045650163795" lon="14.776595476387227"><ele>18.333333333333332</ele><time>2026-04-12T15:50:50.83Z</time></trkpt><trkpt lat="53.45034547469566" lon="14.77642071470929"><ele>18.666666666666664</ele><time>2026-04-12T15:50:51.83Z</time></trkpt><trkpt lat="53.45023233378283" lon="14.776238774660873"><ele>19.0</ele><time>2026-04-12T15:50:52.83Z</time></trkpt><trkpt lat="53.45012310425419" lon="14.776060916020032"><ele>18.333333333333332</ele><time>2026-04-12T15:50:53.83Z</time></trkpt><trkpt lat="53.45000811043957" lon="14.775891957779624"><ele>17.666666666666668</ele><time>2026-04-12T15:50:54.83Z</time></trkpt><trkpt lat="53.449886414598225" lon="14.77570972934197"><ele>17.0</ele><time>2026-04-12T15:50:55.83Z</time></trkpt><trkpt lat="53.4497675783383" lon="14.775530504333313"><ele>17.0</ele><time>2026-04-12T15:50:56.83Z</time></trkpt><trkpt lat="53.44965455449102" lon="14.775355622070162"><ele>17.0</ele><time>2026-04-12T15:50:57.83Z</time></trkpt><trkpt lat="53.44954157256832" lon="14.775179817139762"><ele>17.0</ele><time>2026-04-12T15:50:58.83Z</time></trkpt><trkpt lat="53.449423343664115" lon="14.774983023594716"><ele>17.0</ele><time>2026-04-12T15:50:59.83Z</time></trkpt><trkpt lat="53.44931276593387" lon="14.774802705142674"><ele>17.0</ele><time>2026-04-12T15:51:00.83Z</time></trkpt><trkpt lat="53.449197772731786" lon="14.774631821447812"><ele>17.0</ele><time>2026-04-12T15:51:01.83Z</time></trkpt><trkpt lat="53.44910715857223" lon="14.774485202242458"><ele>17.0</ele><time>2026-04-12T15:51:02.83Z</time></trkpt><trkpt lat="53.449029231721795" lon="14.7743419621031"><ele>17.0</ele><time>2026-04-12T15:51:03.83Z</time></trkpt><trkpt lat="53.4489480409354" lon="14.774195293636119"><ele>17.0</ele><time>2026-04-12T15:51:04.83Z</time></trkpt><trkpt lat="53.4488428622086" lon="14.77404690143367"><ele>17.0</ele><time>2026-04-12T15:51:05.83Z</time></trkpt><trkpt lat="53.44872832802344" lon="14.773896170272987"><ele>17.0</ele><time>2026-04-12T15:51:06.83Z</time></trkpt><trkpt lat="53.44860999179256" lon="14.77372850213577"><ele>17.333333333333336</ele><time>2026-04-12T15:51:07.829Z</time></trkpt><trkpt lat="53.448489019974" lon="14.773554931458559"><ele>17.666666666666668</ele><time>2026-04-12T15:51:08.829Z</time></trkpt><trkpt lat="53.44836654300033" lon="14.773364065942422"><ele>18.0</ele><time>2026-04-12T15:51:09.829Z</time></trkpt><trkpt lat="53.44825914316579" lon="14.773204713465878"><ele>17.75</ele><time>2026-04-12T15:51:10.829Z</time></trkpt><trkpt lat="53.44816810721544" lon="14.773047220692405"><ele>17.5</ele><time>2026-04-12T15:51:11.829Z</time></trkpt><trkpt lat="53.44806506656351" lon="14.772882765991119"><ele>17.25</ele><time>2026-04-12T15:51:12.829Z</time></trkpt><trkpt lat="53.447962257135806" lon="14.772729453707868"><ele>17.0</ele><time>2026-04-12T15:51:13.829Z</time></trkpt><trkpt lat="53.4478581426747" lon="14.772572524572057"><ele>17.0</ele><time>2026-04-12T15:51:14.829Z</time></trkpt><trkpt lat="53.447764284514946" lon="14.77242271756348"><ele>17.0</ele><time>2026-04-12T15:51:15.829Z</time></trkpt><trkpt lat="53.447665828039696" lon="14.772275111520349"><ele>17.0</ele><time>2026-04-12T15:51:16.829Z</time></trkpt><trkpt lat="53.44757261266912" lon="14.772128585181012"><ele>17.0</ele><time>2026-04-12T15:51:17.829Z</time></trkpt><trkpt lat="53.44747151077292" lon="14.771976213205164"><ele>17.0</ele><time>2026-04-12T15:51:18.829Z</time></trkpt><trkpt lat="53.44736449009743" lon="14.771810252838888"><ele>17.0</ele><time>2026-04-12T15:51:19.829Z</time></trkpt><trkpt lat="53.44725311107959" lon="14.77163809989859"><ele>17.0</ele><time>2026-04-12T15:51:20.829Z</time></trkpt><trkpt lat="53.44714067478445" lon="14.771458716950814"><ele>16.666666666666668</ele><time>2026-04-12T15:51:21.829Z</time></trkpt><trkpt lat="53.44701945718295" lon="14.771278243585451"><ele>16.333333333333332</ele><time>2026-04-12T15:51:22.829Z</time></trkpt><trkpt lat="53.4469037092168" lon="14.771105138166863"><ele>16.0</ele><time>2026-04-12T15:51:23.829Z</time></trkpt><trkpt lat="53.44677825297455" lon="14.770918190322641"><ele>16.0</ele><time>2026-04-12T15:51:24.829Z</time></trkpt><trkpt lat="53.44665917529021" lon="14.770730882991092"><ele>16.0</ele><time>2026-04-12T15:51:25.829Z</time></trkpt><trkpt lat="53.446539381606186" lon="14.770546565883897"><ele>16.0</ele><time>2026-04-12T15:51:26.829Z</time></trkpt><trkpt lat="53.44642871819309" lon="14.77035490409674"><ele>15.666666666666666</ele><time>2026-04-12T15:51:27.829Z</time></trkpt><trkpt lat="53.446321277970334" lon="14.770170171138362"><ele>15.333333333333332</ele><time>2026-04-12T15:51:28.829Z</time></trkpt><trkpt lat="53.446204312977294" lon="14.769980957704261"><ele>15.0</ele><time>2026-04-12T15:51:29.829Z</time></trkpt><trkpt lat="53.44608053079762" lon="14.769793448339549"><ele>14.666666666666668</ele><time>2026-04-12T15:51:30.829Z</time></trkpt><trkpt lat="53.445968350885266" lon="14.769628109979887"><ele>14.333333333333334</ele><time>2026-04-12T15:51:31.829Z</time></trkpt><trkpt lat="53.445868788380686" lon="14.769447391999627"><ele>14.0</ele><time>2026-04-12T15:51:32.829Z</time></trkpt><trkpt lat="53.44573961747558" lon="14.769242260512993"><ele>14.0</ele><time>2026-04-12T15:51:33.829Z</time></trkpt><trkpt lat="53.44561844268406" lon="14.769047251571015"><ele>14.0</ele><time>2026-04-12T15:51:34.829Z</time></trkpt><trkpt lat="53.44550854565297" lon="14.768849959087582"><ele>14.0</ele><time>2026-04-12T15:51:35.829Z</time></trkpt><trkpt lat="53.44538659051359" lon="14.76866244192919"><ele>13.666666666666668</ele><time>2026-04-12T15:51:36.829Z</time></trkpt><trkpt lat="53.445252759695336" lon="14.768467627953873"><ele>13.333333333333332</ele><time>2026-04-12T15:51:37.829Z</time></trkpt><trkpt lat="53.44510389499665" lon="14.768260015443254"><ele>13.0</ele><time>2026-04-12T15:51:38.829Z</time></trkpt><trkpt lat="53.44496493997086" lon="14.768055066028554"><ele>13.0</ele><time>2026-04-12T15:51:39.829Z</time></trkpt><trkpt lat="53.44484333524194" lon="14.767865181366071"><ele>13.0</ele><time>2026-04-12T15:51:40.829Z</time></trkpt><trkpt lat="53.44474767244116" lon="14.767706874349711"><ele>13.0</ele><time>2026-04-12T15:51:41.829Z</time></trkpt><trkpt lat="53.44463624618177" lon="14.767513713390334"><ele>13.0</ele><time>2026-04-12T15:51:42.829Z</time></trkpt><trkpt lat="53.444526572195215" lon="14.767287020535935"><ele>13.0</ele><time>2026-04-12T15:51:43.829Z</time></trkpt><trkpt lat="53.44440378100252" lon="14.767094684006691"><ele>13.0</ele><time>2026-04-12T15:51:44.829Z</time></trkpt><trkpt lat="53.444272733756904" lon="14.766889017912442"><ele>11.666666666666666</ele><time>2026-04-12T15:51:45.829Z</time></trkpt><trkpt lat="53.444143777413444" lon="14.766686430997133"><ele>10.333333333333332</ele><time>2026-04-12T15:51:46.829Z</time></trkpt><trkpt lat="53.44401831941638" lon="14.766490520371988"><ele>9.0</ele><time>2026-04-12T15:51:47.829Z</time></trkpt><trkpt lat="53.44388245903272" lon="14.766321693065793"><ele>9.333333333333334</ele><time>2026-04-12T15:51:48.829Z</time></trkpt><trkpt lat="53.443762810011854" lon="14.766135048760002"><ele>9.666666666666668</ele><time>2026-04-12T15:51:49.829Z</time></trkpt><trkpt lat="53.44363551685811" lon="14.765937412438811"><ele>10.0</ele><time>2026-04-12T15:51:50.829Z</time></trkpt><trkpt lat="53.44350438886209" lon="14.765721442019611"><ele>10.0</ele><time>2026-04-12T15:51:51.829Z</time></trkpt><trkpt lat="53.44337352705835" lon="14.765519791964417"><ele>10.0</ele><time>2026-04-12T15:51:52.829Z</time></trkpt><trkpt lat="53.44324326625613" lon="14.765323790033726"><ele>10.0</ele><time>2026-04-12T15:51:53.829Z</time></trkpt><trkpt lat="53.44311414258083" lon="14.765132637562003"><ele>10.333333333333334</ele><time>2026-04-12T15:51:54.829Z</time></trkpt><trkpt lat="53.44298682005174" lon="14.764934133878773"><ele>10.666666666666666</ele><time>2026-04-12T15:51:55.829Z</time></trkpt><trkpt lat="53.442862281381316" lon="14.764733591550678"><ele>11.0</ele><time>2026-04-12T15:51:56.829Z</time></trkpt><trkpt lat="53.44274079532461" lon="14.764538367934822"><ele>10.5</ele><time>2026-04-12T15:51:57.829Z</time></trkpt><trkpt lat="53.442620681866856" lon="14.764347274222596"><ele>10.0</ele><time>2026-04-12T15:51:58.829Z</time></trkpt><trkpt lat="53.442512295517844" lon="14.76418916972512"><ele>9.5</ele><time>2026-04-12T15:51:59.829Z</time></trkpt><trkpt lat="53.44241032996981" lon="14.764059144112926"><ele>9.0</ele><time>2026-04-12T15:52:00.829Z</time></trkpt><trkpt lat="53.4423023178891" lon="14.763911231489251"><ele>9.0</ele><time>2026-04-12T15:52:01.829Z</time></trkpt><trkpt lat="53.44217698631551" lon="14.763714515877723"><ele>9.0</ele><time>2026-04-12T15:52:02.829Z</time></trkpt><trkpt lat="53.442066568662185" lon="14.76353207977865"><ele>9.0</ele><time>2026-04-12T15:52:03.829Z</time></trkpt><trkpt lat="53.441957662182034" lon="14.763357381488094"><ele>10.666666666666668</ele><time>2026-04-12T15:52:04.829Z</time></trkpt><trkpt lat="53.44184631760615" lon="14.763177402317567"><ele>12.333333333333334</ele><time>2026-04-12T15:52:05.829Z</time></trkpt><trkpt lat="53.44172902591351" lon="14.762984544059401"><ele>14.0</ele><time>2026-04-12T15:52:06.829Z</time></trkpt><trkpt lat="53.44159830421566" lon="14.762772492171704"><ele>13.333333333333334</ele><time>2026-04-12T15:52:07.829Z</time></trkpt><trkpt lat="53.441463557407346" lon="14.76255792476009"><ele>12.666666666666668</ele><time>2026-04-12T15:52:08.829Z</time></trkpt><trkpt lat="53.441318809680645" lon="14.762341432895612"><ele>12.0</ele><time>2026-04-12T15:52:09.829Z</time></trkpt><trkpt lat="53.441200299729665" lon="14.762155901838874"><ele>12.0</ele><time>2026-04-12T15:52:10.829Z</time></trkpt><trkpt lat="53.441098142583776" lon="14.761993674340633"><ele>12.0</ele><time>2026-04-12T15:52:11.829Z</time></trkpt><trkpt lat="53.44099266442019" lon="14.761815743451209"><ele>12.0</ele><time>2026-04-12T15:52:12.829Z</time></trkpt><trkpt lat="53.44087972114695" lon="14.761621030967218"><ele>11.75</ele><time>2026-04-12T15:52:13.829Z</time></trkpt><trkpt lat="53.440793594867976" lon="14.761463469192059"><ele>11.5</ele><time>2026-04-12T15:52:14.829Z</time></trkpt><trkpt lat="53.44071415621076" lon="14.761304057297181"><ele>11.25</ele><time>2026-04-12T15:52:15.829Z</time></trkpt><trkpt lat="53.440631788509364" lon="14.761179032095416"><ele>11.0</ele><time>2026-04-12T15:52:16.829Z</time></trkpt><trkpt lat="53.44055079104714" lon="14.761073383882318"><ele>11.0</ele><time>2026-04-12T15:52:17.829Z</time></trkpt><trkpt lat="53.44047740778299" lon="14.760954212416287"><ele>11.0</ele><time>2026-04-12T15:52:18.829Z</time></trkpt><trkpt lat="53.44040488375492" lon="14.76086461831173"><ele>11.0</ele><time>2026-04-12T15:52:19.829Z</time></trkpt><trkpt lat="53.44034911451286" lon="14.76080223723051"><ele>11.0</ele><time>2026-04-12T15:52:20.829Z</time></trkpt><trkpt lat="53.44029645036492" lon="14.760737975788414"><ele>11.0</ele><time>2026-04-12T15:52:21.829Z</time></trkpt><trkpt lat="53.44020306072449" lon="14.76059359429402"><ele>11.200000000000001</ele><time>2026-04-12T15:52:23.829Z</time></trkpt><trkpt lat="53.44014569673168" lon="14.760507178815207"><ele>11.4</ele><time>2026-04-12T15:52:24.829Z</time></trkpt><trkpt lat="53.4400849275565" lon="14.760409273476368"><ele>11.6</ele><time>2026-04-12T15:52:25.829Z</time></trkpt><trkpt lat="53.44001736547722" lon="14.760301129709287"><ele>11.8</ele><time>2026-04-12T15:52:26.829Z</time></trkpt><trkpt lat="53.4399457588077" lon="14.760188025530907"><ele>12.0</ele><time>2026-04-12T15:52:27.829Z</time></trkpt><trkpt lat="53.4398723980976" lon="14.760077692624034"><ele>12.0</ele><time>2026-04-12T15:52:28.829Z</time></trkpt><trkpt lat="53.439797157480925" lon="14.759964082336094"><ele>12.0</ele><time>2026-04-12T15:52:29.829Z</time></trkpt><trkpt lat="53.43972520802446" lon="14.75985579351953"><ele>12.0</ele><time>2026-04-12T15:52:30.829Z</time></trkpt><trkpt lat="53.439648519194506" lon="14.759724983610575"><ele>12.0</ele><time>2026-04-12T15:52:31.829Z</time></trkpt><trkpt lat="53.439565642253044" lon="14.759589220933782"><ele>12.0</ele><time>2026-04-12T15:52:32.829Z</time></trkpt><trkpt lat="53.439484660790306" lon="14.759453720518785"><ele>12.25</ele><time>2026-04-12T15:52:33.829Z</time></trkpt><trkpt lat="53.43942227558184" lon="14.75928299405125"><ele>12.5</ele><time>2026-04-12T15:52:34.829Z</time></trkpt><trkpt lat="53.439327680351056" lon="14.75913921493383"><ele>12.75</ele><time>2026-04-12T15:52:35.829Z</time></trkpt><trkpt lat="53.43923173589198" lon="14.758995542863767"><ele>13.0</ele><time>2026-04-12T15:52:36.829Z</time></trkpt><trkpt lat="53.43913691110544" lon="14.758851894065147"><ele>13.0</ele><time>2026-04-12T15:52:37.829Z</time></trkpt><trkpt lat="53.43904194874094" lon="14.75869927691778"><ele>13.0</ele><time>2026-04-12T15:52:38.829Z</time></trkpt><trkpt lat="53.43895866396448" lon="14.758563032816598"><ele>13.0</ele><time>2026-04-12T15:52:39.829Z</time></trkpt><trkpt lat="53.438881247890286" lon="14.758434637147593"><ele>13.0</ele><time>2026-04-12T15:52:40.829Z</time></trkpt><trkpt lat="53.43880690635155" lon="14.75830989585194"><ele>12.4</ele><time>2026-04-12T15:52:41.829Z</time></trkpt><trkpt lat="53.43874312560787" lon="14.758191125543128"><ele>11.8</ele><time>2026-04-12T15:52:42.829Z</time></trkpt><trkpt lat="53.43869317938718" lon="14.758071578229485"><ele>11.2</ele><time>2026-04-12T15:52:43.829Z</time></trkpt><trkpt lat="53.43866145865447" lon="14.757952338128447"><ele>10.6</ele><time>2026-04-12T15:52:44.829Z</time></trkpt><trkpt lat="53.43858970514949" lon="14.757813383199256"><ele>10.0</ele><time>2026-04-12T15:52:45.829Z</time></trkpt><trkpt lat="53.43852019556668" lon="14.757677192345083"><ele>9.0</ele><time>2026-04-12T15:52:46.829Z</time></trkpt><trkpt lat="53.438393766790675" lon="14.757499611279549"><ele>8.0</ele><time>2026-04-12T15:52:47.829Z</time></trkpt><trkpt lat="53.43826794692779" lon="14.757350719319387"><ele>7.0</ele><time>2026-04-12T15:52:48.829Z</time></trkpt><trkpt lat="53.43815060216811" lon="14.757206274646167"><ele>7.0</ele><time>2026-04-12T15:52:49.829Z</time></trkpt><trkpt lat="53.438042754960634" lon="14.757028358058498"><ele>7.0</ele><time>2026-04-12T15:52:50.829Z</time></trkpt><trkpt lat="53.437933764111214" lon="14.756811789078858"><ele>7.0</ele><time>2026-04-12T15:52:51.829Z</time></trkpt><trkpt lat="53.43780770807378" lon="14.75659675587295"><ele>7.0</ele><time>2026-04-12T15:52:52.829Z</time></trkpt><trkpt lat="53.437695175578845" lon="14.756399719880966"><ele>7.0</ele><time>2026-04-12T15:52:53.829Z</time></trkpt><trkpt lat="53.437586576803234" lon="14.75621503378248"><ele>7.0</ele><time>2026-04-12T15:52:54.829Z</time></trkpt><trkpt lat="53.437470867135474" lon="14.756031340809407"><ele>7.0</ele><time>2026-04-12T15:52:55.829Z</time></trkpt><trkpt lat="53.437367042954214" lon="14.755838529633097"><ele>7.0</ele><time>2026-04-12T15:52:56.829Z</time></trkpt><trkpt lat="53.43727578632012" lon="14.755672376233452"><ele>7.0</ele><time>2026-04-12T15:52:57.829Z</time></trkpt><trkpt lat="53.43716003451837" lon="14.755466608771721"><ele>7.0</ele><time>2026-04-12T15:52:58.829Z</time></trkpt><trkpt lat="53.437030495115444" lon="14.75532087492892"><ele>7.0</ele><time>2026-04-12T15:52:59.829Z</time></trkpt><trkpt lat="53.43691555030852" lon="14.755200335253663"><ele>7.0</ele><time>2026-04-12T15:53:00.829Z</time></trkpt><trkpt lat="53.43682654597075" lon="14.755074005470298"><ele>7.0</ele><time>2026-04-12T15:53:01.829Z</time></trkpt><trkpt lat="53.43674055609493" lon="14.754914731186553"><ele>7.0</ele><time>2026-04-12T15:53:02.829Z</time></trkpt><trkpt lat="53.43666716967109" lon="14.754718526182964"><ele>7.0</ele><time>2026-04-12T15:53:03.829Z</time></trkpt><trkpt lat="53.436574537042354" lon="14.754540082797591"><ele>7.0</ele><time>2026-04-12T15:53:04.829Z</time></trkpt><trkpt lat="53.436456310200256" lon="14.754363740808255"><ele>7.0</ele><time>2026-04-12T15:53:05.829Z</time></trkpt><trkpt lat="53.436352172558166" lon="14.754216345106304"><ele>7.3999999999999995</ele><time>2026-04-12T15:53:06.829Z</time></trkpt><trkpt lat="53.43625314557088" lon="14.754079790484235"><ele>7.799999999999999</ele><time>2026-04-12T15:53:07.829Z</time></trkpt><trkpt lat="53.43617412538767" lon="14.753966266693087"><ele>8.2</ele><time>2026-04-12T15:53:08.829Z</time></trkpt><trkpt lat="53.436104816423786" lon="14.753867920802271"><ele>8.6</ele><time>2026-04-12T15:53:09.829Z</time></trkpt><trkpt lat="53.43604035801057" lon="14.753775933583634"><ele>9.0</ele><time>2026-04-12T15:53:10.829Z</time></trkpt><trkpt lat="53.43596373882549" lon="14.753714263348177"><ele>9.0</ele><time>2026-04-12T15:53:11.829Z</time></trkpt><trkpt lat="53.43587454458603" lon="14.753682258885675"><ele>9.0</ele><time>2026-04-12T15:53:12.829Z</time></trkpt><trkpt lat="53.43580499070538" lon="14.753647667624977"><ele>9.0</ele><time>2026-04-12T15:53:13.828Z</time></trkpt><trkpt lat="53.43574992609548" lon="14.753540457079918"><ele>9.0</ele><time>2026-04-12T15:53:14.828Z</time></trkpt><trkpt lat="53.4356705292383" lon="14.753420580803747"><ele>9.0</ele><time>2026-04-12T15:53:15.828Z</time></trkpt><trkpt lat="53.43557650636177" lon="14.75327318710033"><ele>9.0</ele><time>2026-04-12T15:53:16.827Z</time></trkpt><trkpt lat="53.435481910024436" lon="14.753141926222373"><ele>9.0</ele><time>2026-04-12T15:53:17.828Z</time></trkpt><trkpt lat="53.435381070820625" lon="14.752995768030424"><ele>9.0</ele><time>2026-04-12T15:53:18.828Z</time></trkpt><trkpt lat="53.43529397840621" lon="14.752831291102552"><ele>9.0</ele><time>2026-04-12T15:53:19.828Z</time></trkpt><trkpt lat="53.43519152495891" lon="14.752671774688892"><ele>9.0</ele><time>2026-04-12T15:53:20.828Z</time></trkpt><trkpt lat="53.43510399495908" lon="14.752573206988881"><ele>9.0</ele><time>2026-04-12T15:53:21.828Z</time></trkpt><trkpt lat="53.435041181505795" lon="14.752437191893302"><ele>9.0</ele><time>2026-04-12T15:53:22.828Z</time></trkpt><trkpt lat="53.43498414679398" lon="14.752348094646452"><ele>9.0</ele><time>2026-04-12T15:53:23.827Z</time></trkpt><trkpt lat="53.434882153080004" lon="14.752182305900883"><ele>9.0</ele><time>2026-04-12T15:53:25.828Z</time></trkpt><trkpt lat="53.43492190423569" lon="14.75191646022118"><ele>8.75</ele><time>2026-04-12T15:53:26.828Z</time></trkpt><trkpt lat="53.43490220305781" lon="14.751794145480154"><ele>8.5</ele><time>2026-04-12T15:53:27.828Z</time></trkpt><trkpt lat="53.43477643897" lon="14.751719485872375"><ele>8.25</ele><time>2026-04-12T15:53:28.828Z</time></trkpt><trkpt lat="53.43466626394862" lon="14.751589037812769"><ele>8.0</ele><time>2026-04-12T15:53:29.828Z</time></trkpt><trkpt lat="53.434567349960815" lon="14.751441168943924"><ele>8.5</ele><time>2026-04-12T15:53:30.828Z</time></trkpt><trkpt lat="53.43447778345627" lon="14.751315716636793"><ele>9.0</ele><time>2026-04-12T15:53:31.828Z</time></trkpt><trkpt lat="53.43433775167722" lon="14.75131178737766"><ele>9.5</ele><time>2026-04-12T15:53:32.828Z</time></trkpt><trkpt lat="53.43430653348367" lon="14.751131457544316"><ele>10.0</ele><time>2026-04-12T15:53:33.828Z</time></trkpt><trkpt lat="53.43418276225442" lon="14.751059999701138"><ele>9.4</ele><time>2026-04-12T15:53:34.828Z</time></trkpt><trkpt lat="53.43408397903061" lon="14.750976502846228"><ele>8.8</ele><time>2026-04-12T15:53:35.828Z</time></trkpt><trkpt lat="53.43402525896493" lon="14.75087485053768"><ele>8.2</ele><time>2026-04-12T15:53:36.828Z</time></trkpt><trkpt lat="53.43395089891069" lon="14.750741896972388"><ele>7.6</ele><time>2026-04-12T15:53:38.828Z</time></trkpt><trkpt lat="53.43386726351199" lon="14.750604455534672"><ele>7.0</ele><time>2026-04-12T15:53:40.828Z</time></trkpt><trkpt lat="53.43381169433078" lon="14.75052641589413"><ele>7.199999999999999</ele><time>2026-04-12T15:53:41.828Z</time></trkpt><trkpt lat="53.43375745535702" lon="14.75045136292139"><ele>7.3999999999999995</ele><time>2026-04-12T15:53:42.828Z</time></trkpt><trkpt lat="53.433706540342" lon="14.7503408597829"><ele>7.6000000000000005</ele><time>2026-04-12T15:53:43.828Z</time></trkpt><trkpt lat="53.43361862702505" lon="14.750276227589678"><ele>7.800000000000001</ele><time>2026-04-12T15:53:44.828Z</time></trkpt><trkpt lat="53.43358094443192" lon="14.750189284964184"><ele>8.0</ele><time>2026-04-12T15:53:45.828Z</time></trkpt><trkpt lat="53.43348007718554" lon="14.750031421303074"><ele>7.999999999999999</ele><time>2026-04-12T15:53:47.828Z</time></trkpt><trkpt lat="53.43342686658586" lon="14.74995624176582"><ele>8.0</ele><time>2026-04-12T15:53:48.828Z</time></trkpt><trkpt lat="53.43334906742125" lon="14.74982126005161"><ele>8.0</ele><time>2026-04-12T15:53:50.828Z</time></trkpt><trkpt lat="53.433275369015426" lon="14.74971772157446"><ele>8.0</ele><time>2026-04-12T15:53:52.828Z</time></trkpt><trkpt lat="53.43322748985991" lon="14.749644727644545"><ele>7.999999999999999</ele><time>2026-04-12T15:53:53.828Z</time></trkpt><trkpt lat="53.433177276329005" lon="14.749573476903604"><ele>8.0</ele><time>2026-04-12T15:53:54.828Z</time></trkpt><trkpt lat="53.4331251286712" lon="14.749493767798674"><ele>7.999999999999999</ele><time>2026-04-12T15:53:55.828Z</time></trkpt><trkpt lat="53.433069828099875" lon="14.749406556129378"><ele>8.0</ele><time>2026-04-12T15:53:56.828Z</time></trkpt><trkpt lat="53.43301245906711" lon="14.749317762645667"><ele>8.0</ele><time>2026-04-12T15:53:57.828Z</time></trkpt><trkpt lat="53.432949448265056" lon="14.749196351262333"><ele>8.0</ele><time>2026-04-12T15:53:58.828Z</time></trkpt><trkpt lat="53.43289311406873" lon="14.749103250540108"><ele>7.999999999999999</ele><time>2026-04-12T15:53:59.828Z</time></trkpt><trkpt lat="53.43283413217445" lon="14.749024201676963"><ele>8.0</ele><time>2026-04-12T15:54:00.828Z</time></trkpt><trkpt lat="53.43278250592798" lon="14.74894357287099"><ele>7.666666666666666</ele><time>2026-04-12T15:54:01.828Z</time></trkpt><trkpt lat="53.43273858357684" lon="14.748865275069472"><ele>7.333333333333333</ele><time>2026-04-12T15:54:02.828Z</time></trkpt><trkpt lat="53.432670472999924" lon="14.748768941877517"><ele>7.0</ele><time>2026-04-12T15:54:03.828Z</time></trkpt><trkpt lat="53.432621593874174" lon="14.748690205671277"><ele>6.666666666666666</ele><time>2026-04-12T15:54:04.828Z</time></trkpt><trkpt lat="53.432558138172965" lon="14.748598447177791"><ele>6.333333333333333</ele><time>2026-04-12T15:54:05.828Z</time></trkpt><trkpt lat="53.43249101547339" lon="14.748500463646767"><ele>6.0</ele><time>2026-04-12T15:54:06.828Z</time></trkpt><trkpt lat="53.432396755173905" lon="14.748358435552891"><ele>6.0</ele><time>2026-04-12T15:54:07.828Z</time></trkpt><trkpt lat="53.43231286857201" lon="14.748225153841709"><ele>6.0</ele><time>2026-04-12T15:54:08.828Z</time></trkpt><trkpt lat="53.432234619446426" lon="14.748084754069833"><ele>6.0</ele><time>2026-04-12T15:54:09.828Z</time></trkpt><trkpt lat="53.43216024118791" lon="14.74795198269118"><ele>6.0</ele><time>2026-04-12T15:54:10.828Z</time></trkpt><trkpt lat="53.432082487850224" lon="14.747837961351127"><ele>6.0</ele><time>2026-04-12T15:54:11.828Z</time></trkpt><trkpt lat="53.431998745592274" lon="14.747744572698904"><ele>7.0</ele><time>2026-04-12T15:54:12.828Z</time></trkpt><trkpt lat="53.43190294549531" lon="14.747630112227432"><ele>8.0</ele><time>2026-04-12T15:54:13.828Z</time></trkpt><trkpt lat="53.43181278006382" lon="14.747487374006417"><ele>9.0</ele><time>2026-04-12T15:54:14.828Z</time></trkpt><trkpt lat="53.43172850079575" lon="14.747342688021075"><ele>10.0</ele><time>2026-04-12T15:54:15.828Z</time></trkpt><trkpt lat="53.43164155707858" lon="14.747185700167416"><ele>10.0</ele><time>2026-04-12T15:54:16.828Z</time></trkpt><trkpt lat="53.431547525434944" lon="14.747037272757586"><ele>10.0</ele><time>2026-04-12T15:54:17.828Z</time></trkpt><trkpt lat="53.431460560923405" lon="14.746896117768594"><ele>10.0</ele><time>2026-04-12T15:54:18.828Z</time></trkpt><trkpt lat="53.4313692662017" lon="14.746746034578429"><ele>10.0</ele><time>2026-04-12T15:54:19.828Z</time></trkpt><trkpt lat="53.43127420236599" lon="14.746576330024102"><ele>10.5</ele><time>2026-04-12T15:54:20.828Z</time></trkpt><trkpt lat="53.43115622783426" lon="14.746394442782833"><ele>11.0</ele><time>2026-04-12T15:54:21.828Z</time></trkpt><trkpt lat="53.431074102058915" lon="14.746237006256449"><ele>11.5</ele><time>2026-04-12T15:54:22.828Z</time></trkpt><trkpt lat="53.43099252572523" lon="14.746089198740233"><ele>12.0</ele><time>2026-04-12T15:54:23.828Z</time></trkpt><trkpt lat="53.43090479651885" lon="14.745949688560412"><ele>12.25</ele><time>2026-04-12T15:54:24.828Z</time></trkpt><trkpt lat="53.43081687900533" lon="14.745802448460305"><ele>12.5</ele><time>2026-04-12T15:54:25.828Z</time></trkpt><trkpt lat="53.43072813715371" lon="14.745664806257984"><ele>12.75</ele><time>2026-04-12T15:54:26.828Z</time></trkpt><trkpt lat="53.43064204204204" lon="14.745538004396467"><ele>13.0</ele><time>2026-04-12T15:54:27.828Z</time></trkpt><trkpt lat="53.43055315325599" lon="14.745415013709497"><ele>12.75</ele><time>2026-04-12T15:54:28.828Z</time></trkpt><trkpt lat="53.43046077658088" lon="14.745294018601456"><ele>12.5</ele><time>2026-04-12T15:54:29.828Z</time></trkpt><trkpt lat="53.43037957537321" lon="14.745141981431956"><ele>12.25</ele><time>2026-04-12T15:54:30.828Z</time></trkpt><trkpt lat="53.43029918749683" lon="14.744986698225977"><ele>12.0</ele><time>2026-04-12T15:54:31.828Z</time></trkpt><trkpt lat="53.43023332575814" lon="14.744847826123644"><ele>12.0</ele><time>2026-04-12T15:54:32.828Z</time></trkpt><trkpt lat="53.43015867930949" lon="14.744722432848105"><ele>12.0</ele><time>2026-04-12T15:54:33.828Z</time></trkpt><trkpt lat="53.43007196404083" lon="14.744596442331241"><ele>12.0</ele><time>2026-04-12T15:54:34.828Z</time></trkpt><trkpt lat="53.429984143014615" lon="14.744475988040094"><ele>12.0</ele><time>2026-04-12T15:54:35.828Z</time></trkpt><trkpt lat="53.42988620348851" lon="14.744339284534874"><ele>12.25</ele><time>2026-04-12T15:54:36.828Z</time></trkpt><trkpt lat="53.42978092754487" lon="14.744179937586548"><ele>12.5</ele><time>2026-04-12T15:54:37.828Z</time></trkpt><trkpt lat="53.42969102957067" lon="14.744037318359178"><ele>12.75</ele><time>2026-04-12T15:54:38.828Z</time></trkpt><trkpt lat="53.42961332521364" lon="14.743909026378246"><ele>13.0</ele><time>2026-04-12T15:54:39.828Z</time></trkpt><trkpt lat="53.429539504312" lon="14.743791377279697"><ele>13.4</ele><time>2026-04-12T15:54:40.828Z</time></trkpt><trkpt lat="53.4294644877286" lon="14.743674769892099"><ele>13.8</ele><time>2026-04-12T15:54:41.828Z</time></trkpt><trkpt lat="53.429378901306364" lon="14.743541254434946"><ele>14.2</ele><time>2026-04-12T15:54:42.828Z</time></trkpt><trkpt lat="53.429297644626125" lon="14.743425443963462"><ele>14.6</ele><time>2026-04-12T15:54:43.828Z</time></trkpt><trkpt lat="53.42922813383082" lon="14.743316261552186"><ele>15.0</ele><time>2026-04-12T15:54:44.828Z</time></trkpt><trkpt lat="53.42916607810492" lon="14.743194889995312"><ele>14.833333333333334</ele><time>2026-04-12T15:54:45.828Z</time></trkpt><trkpt lat="53.42912925849752" lon="14.743059498083932"><ele>14.666666666666668</ele><time>2026-04-12T15:54:46.828Z</time></trkpt><trkpt lat="53.42907378346744" lon="14.742895069195994"><ele>14.5</ele><time>2026-04-12T15:54:47.828Z</time></trkpt><trkpt lat="53.42904624682987" lon="14.74273515849884"><ele>14.333333333333334</ele><time>2026-04-12T15:54:48.828Z</time></trkpt><trkpt lat="53.42900882272672" lon="14.742620976135486"><ele>14.166666666666668</ele><time>2026-04-12T15:54:49.828Z</time></trkpt><trkpt lat="53.428964632818264" lon="14.742530275552237"><ele>14.0</ele><time>2026-04-12T15:54:50.828Z</time></trkpt><trkpt lat="53.428922579536305" lon="14.742444650597395"><ele>14.0</ele><time>2026-04-12T15:54:51.828Z</time></trkpt><trkpt lat="53.42881238135417" lon="14.742340115031162"><ele>13.999999999999998</ele><time>2026-04-12T15:54:53.828Z</time></trkpt><trkpt lat="53.428721805719455" lon="14.742319812331072"><ele>13.999999999999998</ele><time>2026-04-12T15:54:54.828Z</time></trkpt><trkpt lat="53.42871065075523" lon="14.742111407604423"><ele>14.0</ele><time>2026-04-12T15:54:55.828Z</time></trkpt><trkpt lat="53.42863996315051" lon="14.742007506798068"><ele>14.0</ele><time>2026-04-12T15:54:56.828Z</time></trkpt><trkpt lat="53.428574039392956" lon="14.741912960058665"><ele>13.0</ele><time>2026-04-12T15:54:57.828Z</time></trkpt><trkpt lat="53.42847266776353" lon="14.741947846069447"><ele>11.999999999999998</ele><time>2026-04-12T15:54:58.828Z</time></trkpt><trkpt lat="53.42847704806393" lon="14.741756520551274"><ele>11.0</ele><time>2026-04-12T15:55:00.828Z</time></trkpt><trkpt lat="53.42839055042815" lon="14.74163316390291"><ele>10.0</ele><time>2026-04-12T15:55:02.828Z</time></trkpt><trkpt lat="53.42830951710973" lon="14.74156364293599"><ele>9.0</ele><time>2026-04-12T15:55:03.828Z</time></trkpt><trkpt lat="53.42826037429753" lon="14.741453284826356"><ele>9.0</ele><time>2026-04-12T15:55:04.828Z</time></trkpt><trkpt lat="53.42820850291981" lon="14.741280251539914"><ele>9.0</ele><time>2026-04-12T15:55:05.828Z</time></trkpt><trkpt lat="53.42814604804038" lon="14.741136665762312"><ele>9.0</ele><time>2026-04-12T15:55:06.828Z</time></trkpt><trkpt lat="53.428052396735936" lon="14.741005237843378"><ele>9.0</ele><time>2026-04-12T15:55:07.828Z</time></trkpt><trkpt lat="53.427955661963516" lon="14.740872926618199"><ele>9.75</ele><time>2026-04-12T15:55:08.828Z</time></trkpt><trkpt lat="53.427869118235364" lon="14.74073127992992"><ele>10.5</ele><time>2026-04-12T15:55:09.828Z</time></trkpt><trkpt lat="53.42778172263517" lon="14.74061365800186"><ele>11.25</ele><time>2026-04-12T15:55:10.828Z</time></trkpt><trkpt lat="53.42769943678397" lon="14.740499212817666"><ele>12.0</ele><time>2026-04-12T15:55:11.828Z</time></trkpt><trkpt lat="53.4276206794683" lon="14.740364365280842"><ele>12.0</ele><time>2026-04-12T15:55:12.828Z</time></trkpt><trkpt lat="53.427546148622575" lon="14.740256504440937"><ele>12.0</ele><time>2026-04-12T15:55:13.828Z</time></trkpt><trkpt lat="53.427461637849284" lon="14.740138071917055"><ele>12.0</ele><time>2026-04-12T15:55:14.828Z</time></trkpt><trkpt lat="53.42737694447622" lon="14.740000288565689"><ele>12.0</ele><time>2026-04-12T15:55:15.828Z</time></trkpt><trkpt lat="53.42729765687228" lon="14.739851648593913"><ele>12.0</ele><time>2026-04-12T15:55:16.828Z</time></trkpt><trkpt lat="53.42721333820481" lon="14.739726389196319"><ele>12.2</ele><time>2026-04-12T15:55:17.828Z</time></trkpt><trkpt lat="53.427120893176976" lon="14.73961463342611"><ele>12.399999999999999</ele><time>2026-04-12T15:55:18.828Z</time></trkpt><trkpt lat="53.427052996149655" lon="14.739479487039045"><ele>12.600000000000001</ele><time>2026-04-12T15:55:19.827Z</time></trkpt><trkpt lat="53.42697843187792" lon="14.739350829508844"><ele>12.8</ele><time>2026-04-12T15:55:20.827Z</time></trkpt><trkpt lat="53.42689176212399" lon="14.7392410665672"><ele>13.0</ele><time>2026-04-12T15:55:21.827Z</time></trkpt><trkpt lat="53.42683600586823" lon="14.739176995497777"><ele>12.666666666666666</ele><time>2026-04-12T15:55:22.827Z</time></trkpt><trkpt lat="53.42678781289955" lon="14.739098593516367"><ele>12.333333333333332</ele><time>2026-04-12T15:55:23.827Z</time></trkpt><trkpt lat="53.426729483472506" lon="14.73899956540125"><ele>12.0</ele><time>2026-04-12T15:55:25.827Z</time></trkpt><trkpt lat="53.426643050186776" lon="14.738874081322178"><ele>11.666666666666666</ele><time>2026-04-12T15:55:27.827Z</time></trkpt><trkpt lat="53.426559593294144" lon="14.738847144332711"><ele>11.333333333333332</ele><time>2026-04-12T15:55:28.827Z</time></trkpt><trkpt lat="53.42647342226236" lon="14.738887396373562"><ele>11.0</ele><time>2026-04-12T15:55:29.827Z</time></trkpt><trkpt lat="53.42639660123849" lon="14.738973737503851"><ele>11.0</ele><time>2026-04-12T15:55:30.827Z</time></trkpt><trkpt lat="53.42632331581968" lon="14.73908516574284"><ele>11.0</ele><time>2026-04-12T15:55:31.827Z</time></trkpt><trkpt lat="53.42622870473439" lon="14.739169317930722"><ele>11.0</ele><time>2026-04-12T15:55:32.827Z</time></trkpt><trkpt lat="53.426115855737635" lon="14.739257914482804"><ele>11.0</ele><time>2026-04-12T15:55:33.828Z</time></trkpt><trkpt lat="53.426005494941435" lon="14.739362771491106"><ele>12.25</ele><time>2026-04-12T15:55:34.828Z</time></trkpt><trkpt lat="53.42589609740575" lon="14.739470523404654"><ele>13.5</ele><time>2026-04-12T15:55:35.828Z</time></trkpt><trkpt lat="53.42578445323233" lon="14.739576819386794"><ele>14.75</ele><time>2026-04-12T15:55:36.828Z</time></trkpt><trkpt lat="53.42567030511035" lon="14.739689235030278"><ele>16.0</ele><time>2026-04-12T15:55:37.828Z</time></trkpt><trkpt lat="53.425549670620825" lon="14.739800143181423"><ele>16.666666666666664</ele><time>2026-04-12T15:55:38.828Z</time></trkpt><trkpt lat="53.42541498542295" lon="14.7399131539181"><ele>17.333333333333332</ele><time>2026-04-12T15:55:39.828Z</time></trkpt><trkpt lat="53.425272826859995" lon="14.740047500756374"><ele>18.0</ele><time>2026-04-12T15:55:40.828Z</time></trkpt><trkpt lat="53.42513948662416" lon="14.740168265259124"><ele>17.333333333333332</ele><time>2026-04-12T15:55:41.828Z</time></trkpt><trkpt lat="53.425001635844474" lon="14.740304250384778"><ele>16.666666666666664</ele><time>2026-04-12T15:55:42.828Z</time></trkpt><trkpt lat="53.42486639345067" lon="14.74042961975267"><ele>16.0</ele><time>2026-04-12T15:55:43.828Z</time></trkpt><trkpt lat="53.42473136602554" lon="14.740565718904058"><ele>16.25</ele><time>2026-04-12T15:55:44.828Z</time></trkpt><trkpt lat="53.424597150529245" lon="14.740683257250295"><ele>16.5</ele><time>2026-04-12T15:55:45.828Z</time></trkpt><trkpt lat="53.42446397822768" lon="14.740798214632019"><ele>16.75</ele><time>2026-04-12T15:55:46.828Z</time></trkpt><trkpt lat="53.42434137147619" lon="14.74091236243893"><ele>17.0</ele><time>2026-04-12T15:55:47.828Z</time></trkpt><trkpt lat="53.42420680116317" lon="14.741035087609328"><ele>17.0</ele><time>2026-04-12T15:55:48.828Z</time></trkpt><trkpt lat="53.42407894401182" lon="14.741150533391203"><ele>17.0</ele><time>2026-04-12T15:55:49.828Z</time></trkpt><trkpt lat="53.42395602326464" lon="14.741265566555413"><ele>17.0</ele><time>2026-04-12T15:55:50.828Z</time></trkpt><trkpt lat="53.42385178394534" lon="14.741362667485031"><ele>17.0</ele><time>2026-04-12T15:55:51.828Z</time></trkpt><trkpt lat="53.42374989033171" lon="14.741452090360834"><ele>17.0</ele><time>2026-04-12T15:55:52.828Z</time></trkpt><trkpt lat="53.423656392739616" lon="14.741548757899993"><ele>17.0</ele><time>2026-04-12T15:55:53.828Z</time></trkpt><trkpt lat="53.423563127446734" lon="14.741637927477838"><ele>17.0</ele><time>2026-04-12T15:55:54.828Z</time></trkpt><trkpt lat="53.423463995737436" lon="14.741723706270538"><ele>17.0</ele><time>2026-04-12T15:55:55.828Z</time></trkpt><trkpt lat="53.423363471339464" lon="14.741805803718584"><ele>17.0</ele><time>2026-04-12T15:55:56.828Z</time></trkpt><trkpt lat="53.42327419015398" lon="14.741879257604907"><ele>16.833333333333336</ele><time>2026-04-12T15:55:57.828Z</time></trkpt><trkpt lat="53.423188832347016" lon="14.741938942064865"><ele>16.666666666666668</ele><time>2026-04-12T15:55:58.828Z</time></trkpt><trkpt lat="53.42311179520211" lon="14.741995648768427"><ele>16.5</ele><time>2026-04-12T15:55:59.828Z</time></trkpt><trkpt lat="53.42304576920744" lon="14.742080100140189"><ele>16.333333333333332</ele><time>2026-04-12T15:56:00.828Z</time></trkpt><trkpt lat="53.42298154814965" lon="14.742116173950656"><ele>16.166666666666664</ele><time>2026-04-12T15:56:01.828Z</time></trkpt><trkpt lat="53.422908659602456" lon="14.742192037159521"><ele>16.0</ele><time>2026-04-12T15:56:03.828Z</time></trkpt><trkpt lat="53.42283504120615" lon="14.742287437024087"><ele>16.0</ele><time>2026-04-12T15:57:56.827Z</time></trkpt><trkpt lat="53.42271550750019" lon="14.742074450141047"><ele>16.0</ele><time>2026-04-12T15:57:59.827Z</time></trkpt><trkpt lat="53.4226650244085" lon="14.741940240388661"><ele>16.0</ele><time>2026-04-12T15:58:00.827Z</time></trkpt><trkpt lat="53.422589781144445" lon="14.741765751283571"><ele>16.0</ele><time>2026-04-12T15:58:01.827Z</time></trkpt><trkpt lat="53.42250352870769" lon="14.741576079009512"><ele>15.666666666666666</ele><time>2026-04-12T15:58:02.827Z</time></trkpt><trkpt lat="53.42241011464618" lon="14.741369714226137"><ele>15.333333333333332</ele><time>2026-04-12T15:58:03.827Z</time></trkpt><trkpt lat="53.422301481409725" lon="14.741153126044402"><ele>15.0</ele><time>2026-04-12T15:58:04.827Z</time></trkpt><trkpt lat="53.42218288732399" lon="14.740928449419547"><ele>14.333333333333332</ele><time>2026-04-12T15:58:05.827Z</time></trkpt><trkpt lat="53.422047400576176" lon="14.740672063213172"><ele>13.666666666666666</ele><time>2026-04-12T15:58:06.827Z</time></trkpt><trkpt lat="53.421896925025294" lon="14.740371831363497"><ele>13.0</ele><time>2026-04-12T15:58:07.827Z</time></trkpt><trkpt lat="53.421747314244534" lon="14.740066596698405"><ele>15.0</ele><time>2026-04-12T15:58:08.827Z</time></trkpt><trkpt lat="53.4215898054589" lon="14.739741479835043"><ele>17.0</ele><time>2026-04-12T15:58:09.827Z</time></trkpt><trkpt lat="53.42142606496182" lon="14.739421184907334"><ele>18.0</ele><time>2026-04-12T15:58:10.827Z</time></trkpt><trkpt lat="53.42125381749341" lon="14.73906931390329"><ele>19.0</ele><time>2026-04-12T15:58:11.827Z</time></trkpt><trkpt lat="53.421084873337996" lon="14.73871359016838"><ele>19.0</ele><time>2026-04-12T15:58:12.827Z</time></trkpt><trkpt lat="53.420919968402856" lon="14.738366325267329"><ele>19.0</ele><time>2026-04-12T15:58:13.827Z</time></trkpt><trkpt lat="53.42075139283575" lon="14.738022692512802"><ele>18.0</ele><time>2026-04-12T15:58:14.827Z</time></trkpt><trkpt lat="53.420579535406205" lon="14.737683988744267"><ele>17.0</ele><time>2026-04-12T15:58:15.827Z</time></trkpt><trkpt lat="53.42040821048363" lon="14.73734346755653"><ele>16.5</ele><time>2026-04-12T15:58:16.827Z</time></trkpt><trkpt lat="53.42023363379458" lon="14.736989910161329"><ele>16.0</ele><time>2026-04-12T15:58:17.827Z</time></trkpt><trkpt lat="53.420059941686645" lon="14.736654081098969"><ele>16.0</ele><time>2026-04-12T15:58:18.827Z</time></trkpt><trkpt lat="53.41989231391145" lon="14.73630987059975"><ele>16.0</ele><time>2026-04-12T15:58:19.827Z</time></trkpt><trkpt lat="53.419721011217966" lon="14.73597155400254"><ele>14.5</ele><time>2026-04-12T15:58:20.827Z</time></trkpt><trkpt lat="53.41954311808153" lon="14.735629217401852"><ele>13.0</ele><time>2026-04-12T15:58:21.827Z</time></trkpt><trkpt lat="53.419367420085166" lon="14.735273939628895"><ele>14.5</ele><time>2026-04-12T15:58:22.827Z</time></trkpt><trkpt lat="53.419188070702496" lon="14.734917067579739"><ele>16.0</ele><time>2026-04-12T15:58:23.827Z</time></trkpt><trkpt lat="53.4190049457751" lon="14.734561544979407"><ele>16.5</ele><time>2026-04-12T15:58:24.827Z</time></trkpt><trkpt lat="53.41883173157411" lon="14.734217513242005"><ele>17.0</ele><time>2026-04-12T15:58:25.827Z</time></trkpt><trkpt lat="53.418658613840954" lon="14.733878957773307"><ele>15.0</ele><time>2026-04-12T15:58:26.827Z</time></trkpt><trkpt lat="53.41848827787304" lon="14.733544080806123"><ele>13.0</ele><time>2026-04-12T15:58:27.827Z</time></trkpt><trkpt lat="53.41831442279216" lon="14.733204154743117"><ele>13.0</ele><time>2026-04-12T15:58:28.827Z</time></trkpt><trkpt lat="53.418145260609855" lon="14.732865107789525"><ele>13.0</ele><time>2026-04-12T15:58:29.827Z</time></trkpt><trkpt lat="53.41797425209788" lon="14.73251412849447"><ele>14.0</ele><time>2026-04-12T15:58:30.827Z</time></trkpt><trkpt lat="53.4178049071695" lon="14.732131371726632"><ele>15.0</ele><time>2026-04-12T15:58:31.827Z</time></trkpt><trkpt lat="53.41764399356376" lon="14.73175867701008"><ele>15.0</ele><time>2026-04-12T15:58:32.827Z</time></trkpt><trkpt lat="53.41750325047351" lon="14.73136659389032"><ele>15.0</ele><time>2026-04-12T15:58:33.827Z</time></trkpt><trkpt lat="53.41738697456798" lon="14.730950834685233"><ele>15.0</ele><time>2026-04-12T15:58:34.827Z</time></trkpt><trkpt lat="53.41725388409185" lon="14.730545722099285"><ele>15.0</ele><time>2026-04-12T15:58:35.827Z</time></trkpt><trkpt lat="53.4171471832613" lon="14.730142126720928"><ele>15.5</ele><time>2026-04-12T15:58:36.827Z</time></trkpt><trkpt lat="53.417029528216155" lon="14.729730329089714"><ele>16.0</ele><time>2026-04-12T15:58:37.827Z</time></trkpt><trkpt lat="53.41690856255992" lon="14.729315024611683"><ele>16.0</ele><time>2026-04-12T15:58:38.827Z</time></trkpt><trkpt lat="53.41679226025839" lon="14.728914324118318"><ele>16.0</ele><time>2026-04-12T15:58:39.827Z</time></trkpt><trkpt lat="53.41667934246695" lon="14.728530877921541"><ele>15.5</ele><time>2026-04-12T15:58:40.827Z</time></trkpt><trkpt lat="53.4165576785186" lon="14.72811795138097"><ele>15.0</ele><time>2026-04-12T15:58:41.827Z</time></trkpt><trkpt lat="53.41644422575221" lon="14.72771361263652"><ele>15.0</ele><time>2026-04-12T15:58:42.827Z</time></trkpt><trkpt lat="53.416330212789426" lon="14.7273151968738"><ele>15.0</ele><time>2026-04-12T15:58:43.827Z</time></trkpt><trkpt lat="53.41620800687179" lon="14.72690793485065"><ele>16.5</ele><time>2026-04-12T15:58:44.827Z</time></trkpt><trkpt lat="53.41609197047692" lon="14.726528550316416"><ele>18.0</ele><time>2026-04-12T15:58:45.827Z</time></trkpt><trkpt lat="53.41597962804637" lon="14.726142809725866"><ele>18.0</ele><time>2026-04-12T15:58:46.827Z</time></trkpt><trkpt lat="53.415873148309316" lon="14.725752973217075"><ele>18.0</ele><time>2026-04-12T15:58:47.827Z</time></trkpt><trkpt lat="53.415769744900466" lon="14.725381569518857"><ele>17.0</ele><time>2026-04-12T15:58:48.827Z</time></trkpt><trkpt lat="53.415655805169344" lon="14.724994016971381"><ele>16.0</ele><time>2026-04-12T15:58:49.827Z</time></trkpt><trkpt lat="53.415540165237445" lon="14.724602202530344"><ele>15.5</ele><time>2026-04-12T15:58:50.827Z</time></trkpt><trkpt lat="53.41543310446397" lon="14.72424063326797"><ele>15.0</ele><time>2026-04-12T15:58:51.827Z</time></trkpt><trkpt lat="53.41533302130518" lon="14.72388806487598"><ele>15.0</ele><time>2026-04-12T15:58:52.827Z</time></trkpt><trkpt lat="53.41523679770912" lon="14.72356891220789"><ele>15.0</ele><time>2026-04-12T15:58:53.827Z</time></trkpt><trkpt lat="53.41514897382992" lon="14.72326790459967"><ele>15.0</ele><time>2026-04-12T15:58:54.827Z</time></trkpt><trkpt lat="53.41506762746784" lon="14.722981200286446"><ele>12.666666666666666</ele><time>2026-04-12T15:58:55.827Z</time></trkpt><trkpt lat="53.4149868465657" lon="14.722705157392614"><ele>10.333333333333332</ele><time>2026-04-12T15:58:56.827Z</time></trkpt><trkpt lat="53.41491680232608" lon="14.722442111991954"><ele>8.0</ele><time>2026-04-12T15:58:57.827Z</time></trkpt><trkpt lat="53.414839837407534" lon="14.722210437839017"><ele>8.0</ele><time>2026-04-12T15:58:58.827Z</time></trkpt><trkpt lat="53.41476921334231" lon="14.721979806265558"><ele>8.0</ele><time>2026-04-12T15:58:59.827Z</time></trkpt><trkpt lat="53.41470195971476" lon="14.721752882318983"><ele>8.0</ele><time>2026-04-12T15:59:00.827Z</time></trkpt><trkpt lat="53.41463669761274" lon="14.721504039422978"><ele>7.666666666666666</ele><time>2026-04-12T15:59:01.827Z</time></trkpt><trkpt lat="53.41455367415217" lon="14.721234840849403"><ele>7.333333333333334</ele><time>2026-04-12T15:59:02.827Z</time></trkpt><trkpt lat="53.41447762757289" lon="14.7209534085826"><ele>7.0</ele><time>2026-04-12T15:59:03.827Z</time></trkpt><trkpt lat="53.41439667012164" lon="14.720685055838205"><ele>7.0</ele><time>2026-04-12T15:59:04.827Z</time></trkpt><trkpt lat="53.41428000173303" lon="14.720479716510498"><ele>7.0</ele><time>2026-04-12T15:59:05.827Z</time></trkpt><trkpt lat="53.41420601340624" lon="14.720258162599213"><ele>7.0</ele><time>2026-04-12T15:59:06.827Z</time></trkpt><trkpt lat="53.41415344227394" lon="14.720008127847615"><ele>6.666666666666667</ele><time>2026-04-12T15:59:07.827Z</time></trkpt><trkpt lat="53.41411963905811" lon="14.719721002122508"><ele>6.333333333333334</ele><time>2026-04-12T15:59:08.827Z</time></trkpt><trkpt lat="53.414079082336485" lon="14.719386555027452"><ele>6.0</ele><time>2026-04-12T15:59:09.827Z</time></trkpt><trkpt lat="53.41401012380083" lon="14.719076004553003"><ele>5.0</ele><time>2026-04-12T15:59:10.827Z</time></trkpt><trkpt lat="53.4138986206175" lon="14.718741106823236"><ele>4.0</ele><time>2026-04-12T15:59:11.827Z</time></trkpt><trkpt lat="53.41378771510316" lon="14.718396108454208"><ele>3.5</ele><time>2026-04-12T15:59:12.827Z</time></trkpt><trkpt lat="53.413680785120704" lon="14.718032438262238"><ele>3.0</ele><time>2026-04-12T15:59:13.827Z</time></trkpt><trkpt lat="53.41358807070063" lon="14.717653497677501"><ele>3.0</ele><time>2026-04-12T15:59:14.827Z</time></trkpt><trkpt lat="53.413504086190684" lon="14.717272805159274"><ele>3.0</ele><time>2026-04-12T15:59:15.827Z</time></trkpt><trkpt lat="53.413425657159266" lon="14.716889837364743"><ele>2.5</ele><time>2026-04-12T15:59:16.827Z</time></trkpt><trkpt lat="53.413344233441315" lon="14.716481593576932"><ele>2.0</ele><time>2026-04-12T15:59:17.827Z</time></trkpt><trkpt lat="53.4132709036502" lon="14.716072542237011"><ele>1.5</ele><time>2026-04-12T15:59:18.827Z</time></trkpt><trkpt lat="53.41320580387644" lon="14.715656765457934"><ele>1.0</ele><time>2026-04-12T15:59:19.827Z</time></trkpt><trkpt lat="53.41313937286047" lon="14.715249576348898"><ele>1.0</ele><time>2026-04-12T15:59:20.827Z</time></trkpt><trkpt lat="53.413071149342386" lon="14.714850392657086"><ele>1.0</ele><time>2026-04-12T15:59:21.827Z</time></trkpt><trkpt lat="53.41300330381658" lon="14.71446576760651"><ele>1.0</ele><time>2026-04-12T15:59:22.827Z</time></trkpt><trkpt lat="53.41294011159002" lon="14.714084801394181"><ele>1.0</ele><time>2026-04-12T15:59:23.827Z</time></trkpt><trkpt lat="53.41287626350506" lon="14.713709741769069"><ele>1.0</ele><time>2026-04-12T15:59:24.827Z</time></trkpt><trkpt lat="53.41281953896989" lon="14.713367589137926"><ele>1.0</ele><time>2026-04-12T15:59:25.827Z</time></trkpt><trkpt lat="53.41275572673909" lon="14.71299696267661"><ele>1.0</ele><time>2026-04-12T15:59:26.827Z</time></trkpt><trkpt lat="53.4126934753992" lon="14.712656505705297"><ele>1.0</ele><time>2026-04-12T15:59:27.827Z</time></trkpt><trkpt lat="53.412634544421756" lon="14.712309714929336"><ele>1.0</ele><time>2026-04-12T15:59:28.827Z</time></trkpt><trkpt lat="53.41257755444847" lon="14.711962745277495"><ele>1.0</ele><time>2026-04-12T15:59:29.827Z</time></trkpt><trkpt lat="53.41252475739942" lon="14.71162433905741"><ele>0.6666666666666666</ele><time>2026-04-12T15:59:30.826Z</time></trkpt><trkpt lat="53.412459675443195" lon="14.711276314353606"><ele>0.3333333333333333</ele><time>2026-04-12T15:59:31.826Z</time></trkpt><trkpt lat="53.41239734279296" lon="14.710944536619055"><ele>0.0</ele><time>2026-04-12T15:59:32.826Z</time></trkpt><trkpt lat="53.412321503064625" lon="14.710611203974032"><ele>0.0</ele><time>2026-04-12T15:59:33.826Z</time></trkpt><trkpt lat="53.412232349392426" lon="14.710288974308302"><ele>0.0</ele><time>2026-04-12T15:59:34.826Z</time></trkpt><trkpt lat="53.412134546492915" lon="14.709962662386298"><ele>0.0</ele><time>2026-04-12T15:59:35.826Z</time></trkpt><trkpt lat="53.41204227862494" lon="14.709647492418068"><ele>0.3333333333333333</ele><time>2026-04-12T15:59:36.826Z</time></trkpt><trkpt lat="53.41194633136605" lon="14.70933914481251"><ele>0.6666666666666666</ele><time>2026-04-12T15:59:37.826Z</time></trkpt><trkpt lat="53.41185364483335" lon="14.709040985134097"><ele>1.0</ele><time>2026-04-12T15:59:38.826Z</time></trkpt><trkpt lat="53.411754472580384" lon="14.708734988787366"><ele>0.6666666666666666</ele><time>2026-04-12T15:59:39.826Z</time></trkpt><trkpt lat="53.411665351271395" lon="14.708429817558427"><ele>0.3333333333333333</ele><time>2026-04-12T15:59:40.826Z</time></trkpt><trkpt lat="53.411581426360165" lon="14.708146909777232"><ele>0.0</ele><time>2026-04-12T15:59:41.826Z</time></trkpt><trkpt lat="53.411484279278085" lon="14.707839956817185"><ele>0.0</ele><time>2026-04-12T15:59:42.825Z</time></trkpt><trkpt lat="53.41139504152453" lon="14.707536414536419"><ele>0.0</ele><time>2026-04-12T15:59:43.826Z</time></trkpt><trkpt lat="53.411306822078004" lon="14.707238203883541"><ele>0.0</ele><time>2026-04-12T15:59:44.826Z</time></trkpt><trkpt lat="53.411213221799656" lon="14.706950183399575"><ele>0.0</ele><time>2026-04-12T15:59:45.826Z</time></trkpt><trkpt lat="53.41111512480207" lon="14.70664264816691"><ele>0.0</ele><time>2026-04-12T15:59:46.826Z</time></trkpt><trkpt lat="53.411022371741865" lon="14.706334585318498"><ele>0.0</ele><time>2026-04-12T15:59:47.826Z</time></trkpt><trkpt lat="53.41093362620591" lon="14.706022911767919"><ele>0.0</ele><time>2026-04-12T15:59:48.826Z</time></trkpt><trkpt lat="53.41083811081" lon="14.705697674235761"><ele>0.0</ele><time>2026-04-12T15:59:49.826Z</time></trkpt><trkpt lat="53.41073473267062" lon="14.705365567407485"><ele>0.0</ele><time>2026-04-12T15:59:50.826Z</time></trkpt><trkpt lat="53.41062264547086" lon="14.705034951836927"><ele>0.0</ele><time>2026-04-12T15:59:51.826Z</time></trkpt><trkpt lat="53.41051697349433" lon="14.704689123754225"><ele>0.0</ele><time>2026-04-12T15:59:52.826Z</time></trkpt><trkpt lat="53.410425204616104" lon="14.704361846319234"><ele>0.0</ele><time>2026-04-12T15:59:53.826Z</time></trkpt><trkpt lat="53.41032856881912" lon="14.704048987372266"><ele>1.6666666666666667</ele><time>2026-04-12T15:59:54.826Z</time></trkpt><trkpt lat="53.41023487986872" lon="14.703750022218046"><ele>3.3333333333333335</ele><time>2026-04-12T15:59:55.826Z</time></trkpt><trkpt lat="53.41015059040971" lon="14.703478851395044"><ele>5.0</ele><time>2026-04-12T15:59:56.826Z</time></trkpt><trkpt lat="53.410067522113984" lon="14.703205726531738"><ele>5.0</ele><time>2026-04-12T15:59:57.826Z</time></trkpt><trkpt lat="53.40997781736162" lon="14.702925303785356"><ele>5.0</ele><time>2026-04-12T15:59:58.826Z</time></trkpt><trkpt lat="53.40987729970054" lon="14.702639544623032"><ele>5.0</ele><time>2026-04-12T15:59:59.826Z</time></trkpt><trkpt lat="53.40976920239437" lon="14.70236208597328"><ele>5.666666666666667</ele><time>2026-04-12T16:00:00.826Z</time></trkpt><trkpt lat="53.40965243987694" lon="14.70209103325735"><ele>6.333333333333334</ele><time>2026-04-12T16:00:01.826Z</time></trkpt><trkpt lat="53.409527532649655" lon="14.701844019466487"><ele>7.0</ele><time>2026-04-12T16:00:02.826Z</time></trkpt><trkpt lat="53.40940207330329" lon="14.70162501564827"><ele>7.0</ele><time>2026-04-12T16:00:03.826Z</time></trkpt><trkpt lat="53.40928864184421" lon="14.701422759672857"><ele>7.0</ele><time>2026-04-12T16:00:04.826Z</time></trkpt><trkpt lat="53.409186928531" lon="14.701238669787326"><ele>7.0</ele><time>2026-04-12T16:00:05.826Z</time></trkpt><trkpt lat="53.409094078808536" lon="14.701058224783914"><ele>6.0</ele><time>2026-04-12T16:00:06.826Z</time></trkpt><trkpt lat="53.40900267135466" lon="14.700903330841705"><ele>5.0</ele><time>2026-04-12T16:00:07.826Z</time></trkpt><trkpt lat="53.40893254239334" lon="14.700736976167445"><ele>4.0</ele><time>2026-04-12T16:00:08.826Z</time></trkpt><trkpt lat="53.408900024459136" lon="14.700561979583833"><ele>3.0</ele><time>2026-04-12T16:00:09.826Z</time></trkpt><trkpt lat="53.40892413226287" lon="14.700386959385893"><ele>3.0</ele><time>2026-04-12T16:00:10.826Z</time></trkpt><trkpt lat="53.40899846354148" lon="14.700262958512475"><ele>3.0</ele><time>2026-04-12T16:00:11.826Z</time></trkpt><trkpt lat="53.40908009325471" lon="14.700179139069162"><ele>3.0</ele><time>2026-04-12T16:00:12.827Z</time></trkpt><trkpt lat="53.40918032943213" lon="14.700155606319923"><ele>3.0</ele><time>2026-04-12T16:00:13.827Z</time></trkpt><trkpt lat="53.4092850143703" lon="14.700124782380916"><ele>3.0</ele><time>2026-04-12T16:00:14.827Z</time></trkpt><trkpt lat="53.409393726201635" lon="14.700076130968935"><ele>2.25</ele><time>2026-04-12T16:00:15.827Z</time></trkpt><trkpt lat="53.40952235543781" lon="14.700058784027458"><ele>1.5</ele><time>2026-04-12T16:00:16.827Z</time></trkpt><trkpt lat="53.40965935661398" lon="14.700043180553457"><ele>0.75</ele><time>2026-04-12T16:00:17.827Z</time></trkpt><trkpt lat="53.40977461645191" lon="14.700036006512288"><ele>0.0</ele><time>2026-04-12T16:00:18.827Z</time></trkpt><trkpt lat="53.40988120455803" lon="14.70002755641911"><ele>-0.2</ele><time>2026-04-12T16:00:19.827Z</time></trkpt><trkpt lat="53.409982552935844" lon="14.700017833191518"><ele>-0.4</ele><time>2026-04-12T16:00:20.827Z</time></trkpt><trkpt lat="53.41007340590673" lon="14.700015440943085"><ele>-0.6000000000000001</ele><time>2026-04-12T16:00:21.827Z</time></trkpt><trkpt lat="53.41016377640946" lon="14.700020623455979"><ele>-0.8</ele><time>2026-04-12T16:00:22.827Z</time></trkpt><trkpt lat="53.41026971845822" lon="14.700021646419492"><ele>-1.0</ele><time>2026-04-12T16:00:23.827Z</time></trkpt><trkpt lat="53.41036756128261" lon="14.70002396489273"><ele>-1.0</ele><time>2026-04-12T16:00:24.827Z</time></trkpt><trkpt lat="53.410458966359776" lon="14.700018260030626"><ele>-1.0</ele><time>2026-04-12T16:00:25.827Z</time></trkpt><trkpt lat="53.41056207870819" lon="14.699952458757501"><ele>-1.0</ele><time>2026-04-12T16:00:27.827Z</time></trkpt><trkpt lat="53.41061234482435" lon="14.699803177933463"><ele>-1.0</ele><time>2026-04-12T16:00:29.827Z</time></trkpt><trkpt lat="53.410668150092576" lon="14.699637201455909"><ele>-1.0</ele><time>2026-04-12T16:00:31.827Z</time></trkpt><trkpt lat="53.410588277988786" lon="14.69949468426909"><ele>-1.0</ele><time>2026-04-12T16:00:32.827Z</time></trkpt><trkpt lat="53.4105152851526" lon="14.699383559701925"><ele>-1.0</ele><time>2026-04-12T16:00:33.827Z</time></trkpt><trkpt lat="53.410420068102944" lon="14.699259542590907"><ele>-1.0</ele><time>2026-04-12T16:00:34.827Z</time></trkpt><trkpt lat="53.41031694434166" lon="14.699122197463055"><ele>-1.0</ele><time>2026-04-12T16:00:35.827Z</time></trkpt><trkpt lat="53.41022099490172" lon="14.698993470804497"><ele>-1.0</ele><time>2026-04-12T16:00:36.827Z</time></trkpt><trkpt lat="53.4101193314884" lon="14.698853652727246"><ele>-1.0</ele><time>2026-04-12T16:00:37.827Z</time></trkpt><trkpt lat="53.41002501560803" lon="14.698722836774401"><ele>-1.0</ele><time>2026-04-12T16:00:38.827Z</time></trkpt><trkpt lat="53.40993982118214" lon="14.698608526958374"><ele>-1.0</ele><time>2026-04-12T16:00:39.827Z</time></trkpt><trkpt lat="53.409863167188064" lon="14.698504437333288"><ele>-1.0</ele><time>2026-04-12T16:00:40.827Z</time></trkpt><trkpt lat="53.409799240075515" lon="14.698399448925647"><ele>-1.0</ele><time>2026-04-12T16:00:41.827Z</time></trkpt><trkpt lat="53.409735668753754" lon="14.698326695603654"><ele>-1.0</ele><time>2026-04-12T16:00:42.827Z</time></trkpt><trkpt lat="53.40975128229257" lon="14.698131211460037"><ele>-1.0</ele><time>2026-04-12T16:00:43.827Z</time></trkpt><trkpt lat="53.409754033250174" lon="14.69797424972696"><ele>-1.0</ele><time>2026-04-12T16:00:44.827Z</time></trkpt><trkpt lat="53.40974680867826" lon="14.697816999427394"><ele>-1.0</ele><time>2026-04-12T16:00:45.827Z</time></trkpt><trkpt lat="53.409712319967994" lon="14.69766536069318"><ele>-1.0</ele><time>2026-04-12T16:00:46.827Z</time></trkpt><trkpt lat="53.40965086807158" lon="14.69752793086819"><ele>-1.0</ele><time>2026-04-12T16:00:47.827Z</time></trkpt><trkpt lat="53.40956909166993" lon="14.697423103402844"><ele>-1.0</ele><time>2026-04-12T16:00:48.827Z</time></trkpt><trkpt lat="53.4094709178285" lon="14.697361331648818"><ele>-1.0</ele><time>2026-04-12T16:00:49.827Z</time></trkpt><trkpt lat="53.40936281697797" lon="14.697344162669996"><ele>-1.0</ele><time>2026-04-12T16:00:50.827Z</time></trkpt><trkpt lat="53.40925638727531" lon="14.697380319242885"><ele>-1.0</ele><time>2026-04-12T16:00:51.827Z</time></trkpt><trkpt lat="53.409166864940346" lon="14.697462060526135"><ele>-1.0</ele><time>2026-04-12T16:00:52.827Z</time></trkpt><trkpt lat="53.40909941701548" lon="14.697567432128304"><ele>-1.0</ele><time>2026-04-12T16:00:53.827Z</time></trkpt><trkpt lat="53.40904632078702" lon="14.697696592057657"><ele>-1.0</ele><time>2026-04-12T16:00:54.827Z</time></trkpt><trkpt lat="53.40902015121154" lon="14.697851155270431"><ele>-1.0</ele><time>2026-04-12T16:00:55.827Z</time></trkpt><trkpt lat="53.408935048733994" lon="14.697929402386412"><ele>-1.0</ele><time>2026-04-12T16:00:56.827Z</time></trkpt><trkpt lat="53.40885811477686" lon="14.697982424701221"><ele>-1.0</ele><time>2026-04-12T16:00:57.827Z</time></trkpt><trkpt lat="53.40878050848401" lon="14.698051420379146"><ele>-1.0</ele><time>2026-04-12T16:00:58.827Z</time></trkpt><trkpt lat="53.40865319551762" lon="14.698012065274629"><ele>-1.0</ele><time>2026-04-12T16:00:59.827Z</time></trkpt><trkpt lat="53.40853164124267" lon="14.698030980043209"><ele>-0.5</ele><time>2026-04-12T16:01:00.827Z</time></trkpt><trkpt lat="53.40840172575898" lon="14.698044269827703"><ele>0.0</ele><time>2026-04-12T16:01:01.827Z</time></trkpt><trkpt lat="53.408274004940665" lon="14.6980525048403"><ele>0.5</ele><time>2026-04-12T16:01:02.827Z</time></trkpt><trkpt lat="53.408151562763244" lon="14.698052117629379"><ele>1.0</ele><time>2026-04-12T16:01:03.827Z</time></trkpt><trkpt lat="53.40803030390763" lon="14.698045669710977"><ele>2.0</ele><time>2026-04-12T16:01:04.827Z</time></trkpt><trkpt lat="53.40791081373131" lon="14.69802296891816"><ele>3.0</ele><time>2026-04-12T16:01:05.827Z</time></trkpt><trkpt lat="53.407794278492695" lon="14.69797977150207"><ele>4.0</ele><time>2026-04-12T16:01:06.827Z</time></trkpt><trkpt lat="53.40767745637824" lon="14.697918760934929"><ele>5.0</ele><time>2026-04-12T16:01:07.827Z</time></trkpt><trkpt lat="53.40755411895273" lon="14.697845169596429"><ele>5.0</ele><time>2026-04-12T16:01:08.827Z</time></trkpt><trkpt lat="53.40742169262429" lon="14.697744297152179"><ele>5.0</ele><time>2026-04-12T16:01:09.827Z</time></trkpt><trkpt lat="53.40728579708201" lon="14.697616067379936"><ele>5.0</ele><time>2026-04-12T16:01:10.827Z</time></trkpt><trkpt lat="53.407158396391296" lon="14.697468014932637"><ele>6.666666666666667</ele><time>2026-04-12T16:01:11.827Z</time></trkpt><trkpt lat="53.407035677855234" lon="14.697294261315815"><ele>8.333333333333334</ele><time>2026-04-12T16:01:12.827Z</time></trkpt><trkpt lat="53.40693375443508" lon="14.697074715944545"><ele>10.0</ele><time>2026-04-12T16:01:13.827Z</time></trkpt><trkpt lat="53.40681051251637" lon="14.69687784752151"><ele>10.0</ele><time>2026-04-12T16:01:14.827Z</time></trkpt><trkpt lat="53.40669540508844" lon="14.696647542090318"><ele>10.0</ele><time>2026-04-12T16:01:15.827Z</time></trkpt><trkpt lat="53.406577699870006" lon="14.69642023214012"><ele>10.0</ele><time>2026-04-12T16:01:16.827Z</time></trkpt><trkpt lat="53.40646421218559" lon="14.696203101033818"><ele>9.0</ele><time>2026-04-12T16:01:17.827Z</time></trkpt><trkpt lat="53.40635354641251" lon="14.695992113172755"><ele>8.0</ele><time>2026-04-12T16:01:18.827Z</time></trkpt><trkpt lat="53.4062396998412" lon="14.69578577673756"><ele>7.0</ele><time>2026-04-12T16:01:19.827Z</time></trkpt><trkpt lat="53.40612308737964" lon="14.695567411710039"><ele>7.666666666666667</ele><time>2026-04-12T16:01:20.827Z</time></trkpt><trkpt lat="53.4060090839824" lon="14.695352412287175"><ele>8.333333333333334</ele><time>2026-04-12T16:01:21.827Z</time></trkpt><trkpt lat="53.405882444349956" lon="14.695137958822803"><ele>9.0</ele><time>2026-04-12T16:01:22.827Z</time></trkpt><trkpt lat="53.40577017318092" lon="14.694917802676459"><ele>9.0</ele><time>2026-04-12T16:01:23.827Z</time></trkpt><trkpt lat="53.40565425000398" lon="14.69469731244307"><ele>9.0</ele><time>2026-04-12T16:01:24.827Z</time></trkpt><trkpt lat="53.405536022516365" lon="14.694484580595914"><ele>9.0</ele><time>2026-04-12T16:01:25.827Z</time></trkpt><trkpt lat="53.405422824714904" lon="14.694279258929889"><ele>10.0</ele><time>2026-04-12T16:01:26.827Z</time></trkpt><trkpt lat="53.40530881564426" lon="14.69407536243063"><ele>11.0</ele><time>2026-04-12T16:01:27.827Z</time></trkpt><trkpt lat="53.405200443626214" lon="14.693872258239445"><ele>12.0</ele><time>2026-04-12T16:01:28.827Z</time></trkpt><trkpt lat="53.405096806740964" lon="14.693664264702031"><ele>10.25</ele><time>2026-04-12T16:01:29.827Z</time></trkpt><trkpt lat="53.404991286313205" lon="14.693473403685184"><ele>8.5</ele><time>2026-04-12T16:01:30.827Z</time></trkpt><trkpt lat="53.40489765242288" lon="14.69329629617241"><ele>6.75</ele><time>2026-04-12T16:01:31.827Z</time></trkpt><trkpt lat="53.40480889866984" lon="14.693132966930381"><ele>5.0</ele><time>2026-04-12T16:01:32.827Z</time></trkpt><trkpt lat="53.404721636795905" lon="14.692962161604791"><ele>6.0</ele><time>2026-04-12T16:01:33.827Z</time></trkpt><trkpt lat="53.404627469076765" lon="14.69278781148213"><ele>7.0</ele><time>2026-04-12T16:01:34.827Z</time></trkpt><trkpt lat="53.40453387070497" lon="14.692607474348039"><ele>8.0</ele><time>2026-04-12T16:01:35.827Z</time></trkpt><trkpt lat="53.404435645268805" lon="14.692428080242166"><ele>9.0</ele><time>2026-04-12T16:01:36.825Z</time></trkpt><trkpt lat="53.40433687578811" lon="14.69224390516926"><ele>9.0</ele><time>2026-04-12T16:01:37.825Z</time></trkpt><trkpt lat="53.40424115766938" lon="14.69207192036507"><ele>9.0</ele><time>2026-04-12T16:01:38.825Z</time></trkpt><trkpt lat="53.40413678144764" lon="14.6918824208147"><ele>9.0</ele><time>2026-04-12T16:01:39.825Z</time></trkpt><trkpt lat="53.40403434110764" lon="14.691694988230214"><ele>9.0</ele><time>2026-04-12T16:01:40.825Z</time></trkpt><trkpt lat="53.40392920694171" lon="14.691510709925964"><ele>8.333333333333334</ele><time>2026-04-12T16:01:41.825Z</time></trkpt><trkpt lat="53.40382542657121" lon="14.691315149179037"><ele>7.666666666666667</ele><time>2026-04-12T16:01:42.825Z</time></trkpt><trkpt lat="53.403726255455055" lon="14.69111464205051"><ele>7.0</ele><time>2026-04-12T16:01:43.825Z</time></trkpt><trkpt lat="53.40362825105864" lon="14.69091099249711"><ele>6.333333333333334</ele><time>2026-04-12T16:01:44.825Z</time></trkpt><trkpt lat="53.403530170835495" lon="14.690709593046497"><ele>5.666666666666667</ele><time>2026-04-12T16:01:45.825Z</time></trkpt><trkpt lat="53.40342297684498" lon="14.690504126579716"><ele>5.0</ele><time>2026-04-12T16:01:46.825Z</time></trkpt><trkpt lat="53.403313968370206" lon="14.690308869542358"><ele>4.666666666666667</ele><time>2026-04-12T16:01:47.825Z</time></trkpt><trkpt lat="53.40320291788155" lon="14.690124107084644"><ele>4.333333333333333</ele><time>2026-04-12T16:01:48.825Z</time></trkpt><trkpt lat="53.403095490604116" lon="14.689940090619874"><ele>4.0</ele><time>2026-04-12T16:01:49.824Z</time></trkpt><trkpt lat="53.402984803002475" lon="14.689751070932305"><ele>3.6666666666666665</ele><time>2026-04-12T16:01:50.824Z</time></trkpt><trkpt lat="53.40287097496834" lon="14.6895524410978"><ele>3.333333333333333</ele><time>2026-04-12T16:01:51.825Z</time></trkpt><trkpt lat="53.40275831767417" lon="14.689354110994442"><ele>3.0</ele><time>2026-04-12T16:01:52.825Z</time></trkpt><trkpt lat="53.40264989711681" lon="14.689158582433816"><ele>3.0</ele><time>2026-04-12T16:01:53.825Z</time></trkpt><trkpt lat="53.402544779157374" lon="14.688963094454373"><ele>3.0</ele><time>2026-04-12T16:01:54.825Z</time></trkpt><trkpt lat="53.40243927982046" lon="14.688778847145054"><ele>3.0</ele><time>2026-04-12T16:01:55.825Z</time></trkpt><trkpt lat="53.402338103092625" lon="14.688592377774235"><ele>3.0</ele><time>2026-04-12T16:01:56.825Z</time></trkpt><trkpt lat="53.402238406915956" lon="14.688406664199503"><ele>3.0</ele><time>2026-04-12T16:01:57.825Z</time></trkpt><trkpt lat="53.40213500990445" lon="14.688216870536479"><ele>3.0</ele><time>2026-04-12T16:01:58.825Z</time></trkpt><trkpt lat="53.4020342661955" lon="14.688041707554364"><ele>3.0</ele><time>2026-04-12T16:01:59.825Z</time></trkpt><trkpt lat="53.401935705599286" lon="14.687856687023952"><ele>2.75</ele><time>2026-04-12T16:02:00.825Z</time></trkpt><trkpt lat="53.4018404048222" lon="14.687681707267078"><ele>2.5</ele><time>2026-04-12T16:02:01.825Z</time></trkpt><trkpt lat="53.40174293592623" lon="14.687504107682432"><ele>2.25</ele><time>2026-04-12T16:02:02.825Z</time></trkpt><trkpt lat="53.401651511712075" lon="14.687343737732666"><ele>2.0</ele><time>2026-04-12T16:02:03.825Z</time></trkpt><trkpt lat="53.40156220090901" lon="14.687193819773578"><ele>2.0</ele><time>2026-04-12T16:02:04.825Z</time></trkpt><trkpt lat="53.401488189080055" lon="14.687024606163313"><ele>2.0</ele><time>2026-04-12T16:02:05.825Z</time></trkpt><trkpt lat="53.40140705735403" lon="14.686875687144349"><ele>2.0</ele><time>2026-04-12T16:02:06.825Z</time></trkpt><trkpt lat="53.40132932539363" lon="14.686732436367507"><ele>2.0</ele><time>2026-04-12T16:02:07.825Z</time></trkpt><trkpt lat="53.40125156802443" lon="14.686585754486355"><ele>2.5</ele><time>2026-04-12T16:02:08.825Z</time></trkpt><trkpt lat="53.401173625682404" lon="14.68643877668472"><ele>3.0</ele><time>2026-04-12T16:02:09.825Z</time></trkpt><trkpt lat="53.40109526713447" lon="14.686291014044588"><ele>3.5</ele><time>2026-04-12T16:02:10.825Z</time></trkpt><trkpt lat="53.40101686442222" lon="14.68614316812584"><ele>4.0</ele><time>2026-04-12T16:02:11.825Z</time></trkpt><trkpt lat="53.40093817840835" lon="14.685992959137515"><ele>4.0</ele><time>2026-04-12T16:02:12.825Z</time></trkpt><trkpt lat="53.400858888439934" lon="14.685839963785437"><ele>4.0</ele><time>2026-04-12T16:02:13.825Z</time></trkpt><trkpt lat="53.40078157279803" lon="14.685690004082502"><ele>4.0</ele><time>2026-04-12T16:02:14.825Z</time></trkpt><trkpt lat="53.40071398927806" lon="14.685551321220766"><ele>4.0</ele><time>2026-04-12T16:02:15.825Z</time></trkpt><trkpt lat="53.400628864486826" lon="14.685448308480032"><ele>4.0</ele><time>2026-04-12T16:02:16.825Z</time></trkpt><trkpt lat="53.400573600045966" lon="14.685315769435528"><ele>4.0</ele><time>2026-04-12T16:02:17.825Z</time></trkpt><trkpt lat="53.4005208526097" lon="14.685180160821641"><ele>4.0</ele><time>2026-04-12T16:02:18.825Z</time></trkpt><trkpt lat="53.40046934412881" lon="14.685038517600903"><ele>4.0</ele><time>2026-04-12T16:02:19.825Z</time></trkpt><trkpt lat="53.400421134267475" lon="14.684889747194164"><ele>4.0</ele><time>2026-04-12T16:02:20.825Z</time></trkpt><trkpt lat="53.40036838711507" lon="14.68473723353724"><ele>4.4</ele><time>2026-04-12T16:02:21.825Z</time></trkpt><trkpt lat="53.400315033592136" lon="14.684581634539258"><ele>4.800000000000001</ele><time>2026-04-12T16:02:22.825Z</time></trkpt><trkpt lat="53.40026064104618" lon="14.684423852962995"><ele>5.199999999999999</ele><time>2026-04-12T16:02:23.825Z</time></trkpt><trkpt lat="53.400204594245935" lon="14.684281047114295"><ele>5.6</ele><time>2026-04-12T16:02:24.825Z</time></trkpt><trkpt lat="53.400151074219565" lon="14.684139910965527"><ele>6.0</ele><time>2026-04-12T16:02:25.825Z</time></trkpt><trkpt lat="53.40010333432" lon="14.684001232062569"><ele>5.999999999999999</ele><time>2026-04-12T16:02:26.825Z</time></trkpt><trkpt lat="53.40006164099729" lon="14.683885439718585"><ele>6.0</ele><time>2026-04-12T16:02:27.825Z</time></trkpt><trkpt lat="53.40002673309428" lon="14.683780089542429"><ele>6.0</ele><time>2026-04-12T16:02:28.825Z</time></trkpt><trkpt lat="53.399991698849995" lon="14.683678984950625"><ele>6.0</ele><time>2026-04-12T16:02:29.825Z</time></trkpt><trkpt lat="53.39995300113069" lon="14.68357367200264"><ele>6.0</ele><time>2026-04-12T16:02:30.825Z</time></trkpt><trkpt lat="53.399919353201355" lon="14.683469274977519"><ele>5.999999999999999</ele><time>2026-04-12T16:02:31.825Z</time></trkpt><trkpt lat="53.3998866328322" lon="14.683372922984471"><ele>6.0</ele><time>2026-04-12T16:02:32.825Z</time></trkpt><trkpt lat="53.39984440820752" lon="14.683263474912033"><ele>5.833333333333333</ele><time>2026-04-12T16:02:33.825Z</time></trkpt><trkpt lat="53.39979858924672" lon="14.683137700449997"><ele>5.666666666666667</ele><time>2026-04-12T16:02:34.825Z</time></trkpt><trkpt lat="53.399749917452866" lon="14.68301935419737"><ele>5.5</ele><time>2026-04-12T16:02:35.825Z</time></trkpt><trkpt lat="53.39970856251867" lon="14.682908715532768"><ele>5.333333333333334</ele><time>2026-04-12T16:02:36.825Z</time></trkpt><trkpt lat="53.39967109790786" lon="14.68279001081459"><ele>5.166666666666667</ele><time>2026-04-12T16:02:37.825Z</time></trkpt><trkpt lat="53.399631441571444" lon="14.682679183080015"><ele>5.0</ele><time>2026-04-12T16:02:38.825Z</time></trkpt><trkpt lat="53.399612930234646" lon="14.682555802634466"><ele>5.0</ele><time>2026-04-12T16:02:39.825Z</time></trkpt><trkpt lat="53.39956985048951" lon="14.682434314376348"><ele>5.0</ele><time>2026-04-12T16:02:41.825Z</time></trkpt><trkpt lat="53.39951541275481" lon="14.682265435820202"><ele>5.0</ele><time>2026-04-12T16:02:44.825Z</time></trkpt><trkpt lat="53.39944942096985" lon="14.682098645134515"><ele>5.0</ele><time>2026-04-12T16:02:46.825Z</time></trkpt><trkpt lat="53.39938601425511" lon="14.681920163893775"><ele>5.0</ele><time>2026-04-12T16:02:48.825Z</time></trkpt><trkpt lat="53.399333588340326" lon="14.681761194283222"><ele>4.666666666666667</ele><time>2026-04-12T16:02:49.825Z</time></trkpt><trkpt lat="53.39926596406047" lon="14.681551597016933"><ele>4.333333333333333</ele><time>2026-04-12T16:02:50.825Z</time></trkpt><trkpt lat="53.39919048010389" lon="14.681312278571939"><ele>4.0</ele><time>2026-04-12T16:02:51.825Z</time></trkpt><trkpt lat="53.39909945082944" lon="14.68105453522323"><ele>3.6666666666666665</ele><time>2026-04-12T16:02:52.825Z</time></trkpt><trkpt lat="53.39900449673161" lon="14.680788677647534"><ele>3.333333333333333</ele><time>2026-04-12T16:02:53.825Z</time></trkpt><trkpt lat="53.39890104434618" lon="14.680496809956848"><ele>3.0</ele><time>2026-04-12T16:02:54.825Z</time></trkpt><trkpt lat="53.39879644718188" lon="14.680213376213828"><ele>3.0</ele><time>2026-04-12T16:02:55.825Z</time></trkpt><trkpt lat="53.39869470227967" lon="14.679924304704379"><ele>3.0</ele><time>2026-04-12T16:02:56.825Z</time></trkpt><trkpt lat="53.39859362863289" lon="14.67961574808398"><ele>3.0</ele><time>2026-04-12T16:02:57.825Z</time></trkpt><trkpt lat="53.398499902108696" lon="14.679317988207858"><ele>2.6666666666666665</ele><time>2026-04-12T16:02:58.825Z</time></trkpt><trkpt lat="53.39839841296869" lon="14.67903516204402"><ele>2.333333333333333</ele><time>2026-04-12T16:02:59.825Z</time></trkpt><trkpt lat="53.39829784472866" lon="14.678758559470332"><ele>2.0</ele><time>2026-04-12T16:03:00.825Z</time></trkpt><trkpt lat="53.398186937290376" lon="14.678479030728665"><ele>2.0</ele><time>2026-04-12T16:03:01.825Z</time></trkpt><trkpt lat="53.39808794039117" lon="14.678240424491124"><ele>2.0</ele><time>2026-04-12T16:03:02.825Z</time></trkpt><trkpt lat="53.39799136254458" lon="14.678008967582763"><ele>2.0</ele><time>2026-04-12T16:03:03.825Z</time></trkpt><trkpt lat="53.397903759349006" lon="14.677758886934821"><ele>2.0</ele><time>2026-04-12T16:03:04.825Z</time></trkpt><trkpt lat="53.39781749228534" lon="14.677544830367435"><ele>2.0</ele><time>2026-04-12T16:03:05.825Z</time></trkpt><trkpt lat="53.397738567453615" lon="14.67733051442525"><ele>2.0</ele><time>2026-04-12T16:03:06.825Z</time></trkpt><trkpt lat="53.3976703197752" lon="14.677140421623658"><ele>2.0</ele><time>2026-04-12T16:03:07.825Z</time></trkpt><trkpt lat="53.39759470071519" lon="14.676915997503954"><ele>2.0</ele><time>2026-04-12T16:03:08.825Z</time></trkpt><trkpt lat="53.39749872012854" lon="14.676647748545998"><ele>2.0</ele><time>2026-04-12T16:03:09.825Z</time></trkpt><trkpt lat="53.39739252580292" lon="14.676344981664341"><ele>2.0</ele><time>2026-04-12T16:03:10.825Z</time></trkpt><trkpt lat="53.39729344947291" lon="14.676025660878421"><ele>2.0</ele><time>2026-04-12T16:03:11.825Z</time></trkpt><trkpt lat="53.397196336374066" lon="14.675719700696462"><ele>2.0</ele><time>2026-04-12T16:03:12.825Z</time></trkpt><trkpt lat="53.39709793676299" lon="14.675421703581364"><ele>2.0</ele><time>2026-04-12T16:03:13.825Z</time></trkpt><trkpt lat="53.39698964755345" lon="14.675131661402487"><ele>2.0</ele><time>2026-04-12T16:03:14.825Z</time></trkpt><trkpt lat="53.39688344606911" lon="14.674856263698217"><ele>2.0</ele><time>2026-04-12T16:03:15.825Z</time></trkpt><trkpt lat="53.39678250852372" lon="14.674598126778129"><ele>2.0</ele><time>2026-04-12T16:03:16.825Z</time></trkpt><trkpt lat="53.396680514797694" lon="14.674367028254697"><ele>2.0</ele><time>2026-04-12T16:03:17.825Z</time></trkpt><trkpt lat="53.39657622796685" lon="14.674173010927547"><ele>2.0</ele><time>2026-04-12T16:03:18.825Z</time></trkpt><trkpt lat="53.39645582361016" lon="14.674011860168187"><ele>2.0</ele><time>2026-04-12T16:03:19.825Z</time></trkpt><trkpt lat="53.3963438231102" lon="14.67385001109611"><ele>2.5</ele><time>2026-04-12T16:03:20.825Z</time></trkpt><trkpt lat="53.3962391250398" lon="14.67370252094637"><ele>3.0</ele><time>2026-04-12T16:03:21.825Z</time></trkpt><trkpt lat="53.39614610733686" lon="14.67355649934296"><ele>3.5</ele><time>2026-04-12T16:03:22.825Z</time></trkpt><trkpt lat="53.3960571581725" lon="14.673421469681141"><ele>4.0</ele><time>2026-04-12T16:03:23.825Z</time></trkpt><trkpt lat="53.39598082621089" lon="14.673295104014505"><ele>3.9999999999999996</ele><time>2026-04-12T16:03:24.825Z</time></trkpt><trkpt lat="53.39590725124256" lon="14.673192847319507"><ele>4.0</ele><time>2026-04-12T16:03:25.825Z</time></trkpt><trkpt lat="53.395836799506775" lon="14.67308944146113"><ele>4.0</ele><time>2026-04-12T16:03:26.825Z</time></trkpt><trkpt lat="53.395776370496904" lon="14.6730042665655"><ele>4.0</ele><time>2026-04-12T16:03:27.825Z</time></trkpt><trkpt lat="53.395720471128016" lon="14.672932354401766"><ele>3.9999999999999996</ele><time>2026-04-12T16:03:29.825Z</time></trkpt><trkpt lat="53.39568038641384" lon="14.672841759467259"><ele>4.0</ele><time>2026-04-12T16:03:33.825Z</time></trkpt><trkpt lat="53.39560491983605" lon="14.67273213117257"><ele>4.0</ele><time>2026-04-12T16:03:34.825Z</time></trkpt><trkpt lat="53.39553632366423" lon="14.672635433559233"><ele>4.0</ele><time>2026-04-12T16:03:35.825Z</time></trkpt><trkpt lat="53.395452668805866" lon="14.672510036516265"><ele>4.0</ele><time>2026-04-12T16:03:36.825Z</time></trkpt><trkpt lat="53.39536518239051" lon="14.67237461998596"><ele>4.0</ele><time>2026-04-12T16:03:37.825Z</time></trkpt><trkpt lat="53.39527330310217" lon="14.6722455231487"><ele>4.0</ele><time>2026-04-12T16:03:38.825Z</time></trkpt><trkpt lat="53.395181931090754" lon="14.672110135395783"><ele>4.0</ele><time>2026-04-12T16:03:39.825Z</time></trkpt><trkpt lat="53.395084528702476" lon="14.67197695342791"><ele>4.0</ele><time>2026-04-12T16:03:40.825Z</time></trkpt><trkpt lat="53.39499674011661" lon="14.671842599116891"><ele>4.0</ele><time>2026-04-12T16:03:41.825Z</time></trkpt><trkpt lat="53.394915296108614" lon="14.671723417117086"><ele>4.0</ele><time>2026-04-12T16:03:42.824Z</time></trkpt><trkpt lat="53.3948351631387" lon="14.671620975704618"><ele>4.0</ele><time>2026-04-12T16:03:43.824Z</time></trkpt><trkpt lat="53.39477114000027" lon="14.671511807434756"><ele>4.0</ele><time>2026-04-12T16:03:44.824Z</time></trkpt><trkpt lat="53.39471742292606" lon="14.67140871423239"><ele>4.0</ele><time>2026-04-12T16:03:45.824Z</time></trkpt><trkpt lat="53.39466737080238" lon="14.671313604424295"><ele>4.0</ele><time>2026-04-12T16:03:46.824Z</time></trkpt><trkpt lat="53.39458897027175" lon="14.671243589340264"><ele>4.0</ele><time>2026-04-12T16:03:48.824Z</time></trkpt><trkpt lat="53.39451345060471" lon="14.671383377806432"><ele>4.0</ele><time>2026-04-12T16:03:50.824Z</time></trkpt><trkpt lat="53.39443484134593" lon="14.67147559233588"><ele>4.0</ele><time>2026-04-12T16:03:51.824Z</time></trkpt><trkpt lat="53.394349934319735" lon="14.6715965730837"><ele>4.0</ele><time>2026-04-12T16:03:52.824Z</time></trkpt><trkpt lat="53.3942346774739" lon="14.671756746191832"><ele>4.0</ele><time>2026-04-12T16:03:53.824Z</time></trkpt><trkpt lat="53.39412137758246" lon="14.67191426826223"><ele>4.0</ele><time>2026-04-12T16:03:54.824Z</time></trkpt><trkpt lat="53.394011669372176" lon="14.672066766071822"><ele>4.0</ele><time>2026-04-12T16:03:55.824Z</time></trkpt><trkpt lat="53.393908493250294" lon="14.672286861452209"><ele>4.0</ele><time>2026-04-12T16:03:56.824Z</time></trkpt><trkpt lat="53.39378245689584" lon="14.672447701883618"><ele>4.0</ele><time>2026-04-12T16:03:57.824Z</time></trkpt><trkpt lat="53.39366633811675" lon="14.672606685534634"><ele>4.0</ele><time>2026-04-12T16:03:58.824Z</time></trkpt><trkpt lat="53.39354844163784" lon="14.672770092189344"><ele>4.0</ele><time>2026-04-12T16:03:59.824Z</time></trkpt><trkpt lat="53.39342186799391" lon="14.672934914435684"><ele>3.6666666666666665</ele><time>2026-04-12T16:04:00.824Z</time></trkpt><trkpt lat="53.39329637673475" lon="14.673088050694435"><ele>3.333333333333333</ele><time>2026-04-12T16:04:01.824Z</time></trkpt><trkpt lat="53.393159333652854" lon="14.673218260147276"><ele>3.0</ele><time>2026-04-12T16:04:02.824Z</time></trkpt><trkpt lat="53.393016095478046" lon="14.673335150290933"><ele>3.0</ele><time>2026-04-12T16:04:03.824Z</time></trkpt><trkpt lat="53.392871086870315" lon="14.673469001250341"><ele>3.0</ele><time>2026-04-12T16:04:04.824Z</time></trkpt><trkpt lat="53.392721800075435" lon="14.673563894023818"><ele>3.0</ele><time>2026-04-12T16:04:05.824Z</time></trkpt><trkpt lat="53.39257739130818" lon="14.67366781567508"><ele>2.75</ele><time>2026-04-12T16:04:06.824Z</time></trkpt><trkpt lat="53.392444735270566" lon="14.673769451636579"><ele>2.5</ele><time>2026-04-12T16:04:07.824Z</time></trkpt><trkpt lat="53.39232021187473" lon="14.673855456277144"><ele>2.25</ele><time>2026-04-12T16:04:08.824Z</time></trkpt><trkpt lat="53.39221585713384" lon="14.673927360051016"><ele>2.0</ele><time>2026-04-12T16:04:09.824Z</time></trkpt><trkpt lat="53.392117874040736" lon="14.673989976610141"><ele>2.0</ele><time>2026-04-12T16:04:10.824Z</time></trkpt><trkpt lat="53.39203788345187" lon="14.674042035744476"><ele>2.0</ele><time>2026-04-12T16:04:11.824Z</time></trkpt><trkpt lat="53.39194337655734" lon="14.674105592576126"><ele>2.0</ele><time>2026-04-12T16:04:13.824Z</time></trkpt><trkpt lat="53.39184439736009" lon="14.674151311941054"><ele>2.0</ele><time>2026-04-12T16:10:50.818Z</time></trkpt><trkpt lat="53.391770614454494" lon="14.674209341103424"><ele>2.0</ele><time>2026-04-12T16:10:51.818Z</time></trkpt><trkpt lat="53.39167716481494" lon="14.67427646137671"><ele>2.0</ele><time>2026-04-12T16:10:52.818Z</time></trkpt><trkpt lat="53.39157703818027" lon="14.674343419106751"><ele>2.0</ele><time>2026-04-12T16:10:53.818Z</time></trkpt><trkpt lat="53.39147337493402" lon="14.67442475174905"><ele>2.0</ele><time>2026-04-12T16:10:54.818Z</time></trkpt><trkpt lat="53.3913532955215" lon="14.674510683824698"><ele>2.0</ele><time>2026-04-12T16:10:55.818Z</time></trkpt><trkpt lat="53.39122940039849" lon="14.674594149505005"><ele>1.75</ele><time>2026-04-12T16:10:56.818Z</time></trkpt><trkpt lat="53.39110131318851" lon="14.67470312037142"><ele>1.5</ele><time>2026-04-12T16:10:57.818Z</time></trkpt><trkpt lat="53.39097275237745" lon="14.674789075012374"><ele>1.25</ele><time>2026-04-12T16:10:58.818Z</time></trkpt><trkpt lat="53.39084222847697" lon="14.674874967476681"><ele>1.0</ele><time>2026-04-12T16:10:59.818Z</time></trkpt><trkpt lat="53.39071251766027" lon="14.674959000930878"><ele>1.0</ele><time>2026-04-12T16:11:00.818Z</time></trkpt><trkpt lat="53.390562463317984" lon="14.675067978589242"><ele>1.0</ele><time>2026-04-12T16:11:01.818Z</time></trkpt><trkpt lat="53.39041223092955" lon="14.675177411857002"><ele>1.0</ele><time>2026-04-12T16:11:02.818Z</time></trkpt><trkpt lat="53.390257917099895" lon="14.67529406459606"><ele>1.6666666666666665</ele><time>2026-04-12T16:11:03.818Z</time></trkpt><trkpt lat="53.390099931034584" lon="14.675412305506978"><ele>2.3333333333333335</ele><time>2026-04-12T16:11:04.818Z</time></trkpt><trkpt lat="53.38994745704858" lon="14.675516658992342"><ele>3.0</ele><time>2026-04-12T16:11:05.818Z</time></trkpt><trkpt lat="53.38979398273815" lon="14.675629126234844"><ele>3.666666666666667</ele><time>2026-04-12T16:11:06.818Z</time></trkpt><trkpt lat="53.389626486270565" lon="14.675756647666667"><ele>4.333333333333334</ele><time>2026-04-12T16:11:07.818Z</time></trkpt><trkpt lat="53.38945643039672" lon="14.675889828606522"><ele>5.0</ele><time>2026-04-12T16:11:08.818Z</time></trkpt><trkpt lat="53.389265199421416" lon="14.676029592740333"><ele>5.0</ele><time>2026-04-12T16:11:09.818Z</time></trkpt><trkpt lat="53.38907593517815" lon="14.676170550068079"><ele>5.0</ele><time>2026-04-12T16:11:10.818Z</time></trkpt><trkpt lat="53.38888058358159" lon="14.676310701043828"><ele>5.0</ele><time>2026-04-12T16:11:11.818Z</time></trkpt><trkpt lat="53.38868919961693" lon="14.676451161930432"><ele>5.0</ele><time>2026-04-12T16:11:12.818Z</time></trkpt><trkpt lat="53.38848433925362" lon="14.676595562045149"><ele>5.0</ele><time>2026-04-12T16:11:13.818Z</time></trkpt><trkpt lat="53.38827979885653" lon="14.676747253574241"><ele>5.0</ele><time>2026-04-12T16:11:14.818Z</time></trkpt><trkpt lat="53.38807217020838" lon="14.676899926197203"><ele>5.333333333333334</ele><time>2026-04-12T16:11:15.818Z</time></trkpt><trkpt lat="53.38786516712223" lon="14.677051488143594"><ele>5.666666666666667</ele><time>2026-04-12T16:11:16.818Z</time></trkpt><trkpt lat="53.3876643343247" lon="14.677194884493325"><ele>6.0</ele><time>2026-04-12T16:11:17.818Z</time></trkpt><trkpt lat="53.38745617834385" lon="14.67734046509828"><ele>6.0</ele><time>2026-04-12T16:11:18.818Z</time></trkpt><trkpt lat="53.38726220149862" lon="14.677482079709549"><ele>6.0</ele><time>2026-04-12T16:11:19.818Z</time></trkpt><trkpt lat="53.387069678571535" lon="14.677620962803424"><ele>6.0</ele><time>2026-04-12T16:11:20.818Z</time></trkpt><trkpt lat="53.38688006945704" lon="14.677761230054223"><ele>6.0</ele><time>2026-04-12T16:11:21.818Z</time></trkpt><trkpt lat="53.3866940773909" lon="14.67789623944623"><ele>6.0</ele><time>2026-04-12T16:11:22.818Z</time></trkpt><trkpt lat="53.38652847535984" lon="14.678015333370228"><ele>6.0</ele><time>2026-04-12T16:11:23.818Z</time></trkpt><trkpt lat="53.386377414636144" lon="14.678132878971866"><ele>6.166666666666667</ele><time>2026-04-12T16:11:24.818Z</time></trkpt><trkpt lat="53.38625224034203" lon="14.67822389494315"><ele>6.333333333333334</ele><time>2026-04-12T16:11:25.818Z</time></trkpt><trkpt lat="53.38616388300017" lon="14.678277877153219"><ele>6.5</ele><time>2026-04-12T16:11:26.818Z</time></trkpt><trkpt lat="53.386098863134656" lon="14.678300578793605"><ele>6.666666666666667</ele><time>2026-04-12T16:11:27.818Z</time></trkpt><trkpt lat="53.386034107828536" lon="14.678309629978507"><ele>6.833333333333334</ele><time>2026-04-12T16:11:29.818Z</time></trkpt><trkpt lat="53.3860444529434" lon="14.678434392344158"><ele>7.0</ele><time>2026-04-12T16:12:32.817Z</time></trkpt><trkpt lat="53.38595133101106" lon="14.678481567363315"><ele>7.0</ele><time>2026-04-12T16:13:37.817Z</time></trkpt><trkpt lat="53.385832461388" lon="14.67861424678051"><ele>7.0</ele><time>2026-04-12T16:13:39.817Z</time></trkpt><trkpt lat="53.38572960885142" lon="14.678721810659717"><ele>7.0</ele><time>2026-04-12T16:13:40.817Z</time></trkpt><trkpt lat="53.38563865770676" lon="14.678805323188767"><ele>7.0</ele><time>2026-04-12T16:13:41.817Z</time></trkpt><trkpt lat="53.38554411846025" lon="14.678908932927202"><ele>7.0</ele><time>2026-04-12T16:13:42.817Z</time></trkpt><trkpt lat="53.38543787270947" lon="14.679052466446205"><ele>7.0</ele><time>2026-04-12T16:13:43.817Z</time></trkpt><trkpt lat="53.38532920832784" lon="14.679208709347268"><ele>7.0</ele><time>2026-04-12T16:13:44.817Z</time></trkpt><trkpt lat="53.385189898647596" lon="14.67938411485696"><ele>6.666666666666667</ele><time>2026-04-12T16:13:45.817Z</time></trkpt><trkpt lat="53.38503981261278" lon="14.67958030417047"><ele>6.333333333333334</ele><time>2026-04-12T16:13:46.817Z</time></trkpt><trkpt lat="53.38488068352688" lon="14.6797897464418"><ele>6.0</ele><time>2026-04-12T16:13:47.817Z</time></trkpt><trkpt lat="53.38472650325002" lon="14.679973382534628"><ele>6.666666666666666</ele><time>2026-04-12T16:13:48.817Z</time></trkpt><trkpt lat="53.38457814148296" lon="14.680176800402334"><ele>7.333333333333333</ele><time>2026-04-12T16:13:49.817Z</time></trkpt><trkpt lat="53.38443386616564" lon="14.680375208688918"><ele>8.0</ele><time>2026-04-12T16:13:50.817Z</time></trkpt><trkpt lat="53.384287923819535" lon="14.680578457211524"><ele>8.333333333333332</ele><time>2026-04-12T16:13:51.817Z</time></trkpt><trkpt lat="53.384149392698966" lon="14.680778977934244"><ele>8.666666666666666</ele><time>2026-04-12T16:13:52.817Z</time></trkpt><trkpt lat="53.384008959137425" lon="14.680995275711522"><ele>9.0</ele><time>2026-04-12T16:13:53.817Z</time></trkpt><trkpt lat="53.383863039297815" lon="14.681194379227929"><ele>9.666666666666666</ele><time>2026-04-12T16:13:54.817Z</time></trkpt><trkpt lat="53.3837251871135" lon="14.681377948201659"><ele>10.333333333333332</ele><time>2026-04-12T16:13:55.817Z</time></trkpt><trkpt lat="53.3835904941049" lon="14.681561415410592"><ele>11.0</ele><time>2026-04-12T16:13:56.817Z</time></trkpt><trkpt lat="53.38347125913368" lon="14.681733235386496"><ele>11.0</ele><time>2026-04-12T16:13:57.817Z</time></trkpt><trkpt lat="53.383342520151665" lon="14.681890136599408"><ele>11.0</ele><time>2026-04-12T16:13:58.817Z</time></trkpt><trkpt lat="53.38320933594608" lon="14.682055876738522"><ele>11.0</ele><time>2026-04-12T16:13:59.817Z</time></trkpt><trkpt lat="53.38307670217413" lon="14.682230538368229"><ele>10.666666666666666</ele><time>2026-04-12T16:14:00.817Z</time></trkpt><trkpt lat="53.38294549739169" lon="14.682431580048956"><ele>10.333333333333334</ele><time>2026-04-12T16:14:01.817Z</time></trkpt><trkpt lat="53.382824037434496" lon="14.682621420747184"><ele>10.0</ele><time>2026-04-12T16:14:02.817Z</time></trkpt><trkpt lat="53.38270840452094" lon="14.682792667680149"><ele>10.5</ele><time>2026-04-12T16:14:03.817Z</time></trkpt><trkpt lat="53.38259521880708" lon="14.68295775133735"><ele>11.0</ele><time>2026-04-12T16:14:04.817Z</time></trkpt><trkpt lat="53.38247977782092" lon="14.68310936588493"><ele>11.5</ele><time>2026-04-12T16:14:05.817Z</time></trkpt><trkpt lat="53.382366555434096" lon="14.683233771604497"><ele>12.0</ele><time>2026-04-12T16:14:06.817Z</time></trkpt><trkpt lat="53.38224242511628" lon="14.683305659380672"><ele>11.8</ele><time>2026-04-12T16:14:07.817Z</time></trkpt><trkpt lat="53.38212230239778" lon="14.683325499195952"><ele>11.6</ele><time>2026-04-12T16:14:08.817Z</time></trkpt><trkpt lat="53.38201278028689" lon="14.68329332288465"><ele>11.4</ele><time>2026-04-12T16:14:09.817Z</time></trkpt><trkpt lat="53.38191655677919" lon="14.68322715954346"><ele>11.200000000000001</ele><time>2026-04-12T16:14:10.817Z</time></trkpt><trkpt lat="53.381841691286155" lon="14.683128690462146"><ele>11.0</ele><time>2026-04-12T16:14:11.817Z</time></trkpt><trkpt lat="53.38180066469344" lon="14.682998659145115"><ele>11.0</ele><time>2026-04-12T16:14:12.817Z</time></trkpt><trkpt lat="53.38176613590108" lon="14.682832557751132"><ele>11.0</ele><time>2026-04-12T16:14:13.816Z</time></trkpt><trkpt lat="53.38171083840476" lon="14.682707782931107"><ele>11.0</ele><time>2026-04-12T16:14:14.816Z</time></trkpt><trkpt lat="53.3816533233809" lon="14.682628221531575"><ele>11.0</ele><time>2026-04-12T16:14:15.816Z</time></trkpt><trkpt lat="53.38157805281409" lon="14.682579529056955"><ele>11.0</ele><time>2026-04-12T16:14:16.817Z</time></trkpt><trkpt lat="53.38149221861338" lon="14.68255789265441"><ele>11.0</ele><time>2026-04-12T16:14:17.817Z</time></trkpt><trkpt lat="53.38139243700712" lon="14.682546561873721"><ele>12.4</ele><time>2026-04-12T16:14:18.817Z</time></trkpt><trkpt lat="53.38130152659783" lon="14.68266132314753"><ele>13.8</ele><time>2026-04-12T16:14:19.817Z</time></trkpt><trkpt lat="53.381242796247996" lon="14.68275563715593"><ele>15.200000000000001</ele><time>2026-04-12T16:14:20.817Z</time></trkpt><trkpt lat="53.38117572174441" lon="14.682725912872677"><ele>16.6</ele><time>2026-04-12T16:14:21.817Z</time></trkpt><trkpt lat="53.38110908554575" lon="14.682617183371583"><ele>18.0</ele><time>2026-04-12T16:14:22.817Z</time></trkpt><trkpt lat="53.38106377839021" lon="14.682460819162142"><ele>18.0</ele><time>2026-04-12T16:14:23.817Z</time></trkpt><trkpt lat="53.381033392209126" lon="14.68226913486296"><ele>18.0</ele><time>2026-04-12T16:14:24.817Z</time></trkpt><trkpt lat="53.38101754753694" lon="14.682045136658601"><ele>18.0</ele><time>2026-04-12T16:14:25.817Z</time></trkpt><trkpt lat="53.38101787294029" lon="14.68181402660534"><ele>18.0</ele><time>2026-04-12T16:14:26.817Z</time></trkpt><trkpt lat="53.38103804735034" lon="14.681605378400167"><ele>17.8</ele><time>2026-04-12T16:14:27.817Z</time></trkpt><trkpt lat="53.38107004956903" lon="14.681431277064126"><ele>17.6</ele><time>2026-04-12T16:14:28.817Z</time></trkpt><trkpt lat="53.381088634232675" lon="14.681277914246492"><ele>17.4</ele><time>2026-04-12T16:14:29.817Z</time></trkpt><trkpt lat="53.38109678904926" lon="14.68114789163893"><ele>17.2</ele><time>2026-04-12T16:14:30.817Z</time></trkpt><trkpt lat="53.38106820947069" lon="14.6810227900253"><ele>17.0</ele><time>2026-04-12T16:14:31.817Z</time></trkpt><trkpt lat="53.381000069871" lon="14.68092305818719"><ele>16.0</ele><time>2026-04-12T16:14:32.817Z</time></trkpt><trkpt lat="53.38089227210729" lon="14.680863297624846"><ele>15.0</ele><time>2026-04-12T16:14:33.817Z</time></trkpt><trkpt lat="53.38077089379758" lon="14.680781274655699"><ele>14.0</ele><time>2026-04-12T16:14:34.817Z</time></trkpt><trkpt lat="53.38065466105484" lon="14.680669569314427"><ele>13.0</ele><time>2026-04-12T16:14:35.817Z</time></trkpt><trkpt lat="53.38055362700623" lon="14.68050547111099"><ele>14.0</ele><time>2026-04-12T16:14:36.817Z</time></trkpt><trkpt lat="53.380461072689066" lon="14.680326135102906"><ele>15.0</ele><time>2026-04-12T16:14:37.817Z</time></trkpt><trkpt lat="53.38035317562242" lon="14.680129785439112"><ele>16.0</ele><time>2026-04-12T16:14:38.817Z</time></trkpt><trkpt lat="53.380238109915" lon="14.679933136236828"><ele>16.0</ele><time>2026-04-12T16:14:39.817Z</time></trkpt><trkpt lat="53.380120320873125" lon="14.67972455775695"><ele>16.0</ele><time>2026-04-12T16:14:40.817Z</time></trkpt><trkpt lat="53.379995173094066" lon="14.67950941926375"><ele>16.0</ele><time>2026-04-12T16:14:41.817Z</time></trkpt><trkpt lat="53.37986819875109" lon="14.679287120101735"><ele>15.666666666666666</ele><time>2026-04-12T16:14:42.817Z</time></trkpt><trkpt lat="53.379730043048745" lon="14.67905607250071"><ele>15.333333333333332</ele><time>2026-04-12T16:14:43.817Z</time></trkpt><trkpt lat="53.37959592696101" lon="14.678816479011818"><ele>15.0</ele><time>2026-04-12T16:14:44.817Z</time></trkpt><trkpt lat="53.379450022200835" lon="14.67857477896749"><ele>15.0</ele><time>2026-04-12T16:14:45.817Z</time></trkpt><trkpt lat="53.37931129425467" lon="14.678325655638545"><ele>15.0</ele><time>2026-04-12T16:14:46.817Z</time></trkpt><trkpt lat="53.37917345912833" lon="14.678078741676861"><ele>15.0</ele><time>2026-04-12T16:14:47.817Z</time></trkpt><trkpt lat="53.379037686539235" lon="14.67783424121111"><ele>14.0</ele><time>2026-04-12T16:14:48.817Z</time></trkpt><trkpt lat="53.37889022220244" lon="14.677597093363483"><ele>13.0</ele><time>2026-04-12T16:14:49.817Z</time></trkpt><trkpt lat="53.37874833335724" lon="14.677358962715905"><ele>12.0</ele><time>2026-04-12T16:14:50.817Z</time></trkpt><trkpt lat="53.37859910589065" lon="14.677124242021838"><ele>13.0</ele><time>2026-04-12T16:14:51.817Z</time></trkpt><trkpt lat="53.378452287401544" lon="14.676883299671639"><ele>14.0</ele><time>2026-04-12T16:14:52.817Z</time></trkpt><trkpt lat="53.37830150421998" lon="14.676634955426847"><ele>15.0</ele><time>2026-04-12T16:14:53.817Z</time></trkpt><trkpt lat="53.378155610895334" lon="14.676383262823672"><ele>15.333333333333332</ele><time>2026-04-12T16:14:54.817Z</time></trkpt><trkpt lat="53.378008099659496" lon="14.67613299282213"><ele>15.666666666666666</ele><time>2026-04-12T16:14:55.817Z</time></trkpt><trkpt lat="53.37785733405911" lon="14.675883885707604"><ele>16.0</ele><time>2026-04-12T16:14:56.817Z</time></trkpt><trkpt lat="53.37770724174905" lon="14.675633407273557"><ele>16.0</ele><time>2026-04-12T16:14:57.817Z</time></trkpt><trkpt lat="53.377561677279296" lon="14.675377805305189"><ele>16.0</ele><time>2026-04-12T16:14:58.817Z</time></trkpt><trkpt lat="53.3774159068424" lon="14.67511341101428"><ele>16.0</ele><time>2026-04-12T16:14:59.817Z</time></trkpt><trkpt lat="53.37726989495172" lon="14.674843332112221"><ele>15.333333333333332</ele><time>2026-04-12T16:15:00.817Z</time></trkpt><trkpt lat="53.37712647153993" lon="14.674571513696264"><ele>14.666666666666668</ele><time>2026-04-12T16:15:01.817Z</time></trkpt><trkpt lat="53.37698467669161" lon="14.674297680528893"><ele>14.0</ele><time>2026-04-12T16:15:02.817Z</time></trkpt><trkpt lat="53.37684465357108" lon="14.674023402303245"><ele>13.0</ele><time>2026-04-12T16:15:03.817Z</time></trkpt><trkpt lat="53.37670444979818" lon="14.673738089859315"><ele>12.0</ele><time>2026-04-12T16:15:04.817Z</time></trkpt><trkpt lat="53.37655755941716" lon="14.673458127640062"><ele>11.0</ele><time>2026-04-12T16:15:05.817Z</time></trkpt><trkpt lat="53.37640791235078" lon="14.673179894038986"><ele>11.0</ele><time>2026-04-12T16:15:06.817Z</time></trkpt><trkpt lat="53.37625994344248" lon="14.672901189621937"><ele>11.0</ele><time>2026-04-12T16:15:07.817Z</time></trkpt><trkpt lat="53.37611301883884" lon="14.672627468211227"><ele>11.0</ele><time>2026-04-12T16:15:08.817Z</time></trkpt><trkpt lat="53.3759731137883" lon="14.672368172261383"><ele>10.666666666666666</ele><time>2026-04-12T16:15:09.817Z</time></trkpt><trkpt lat="53.375841011531485" lon="14.672123064078827"><ele>10.333333333333334</ele><time>2026-04-12T16:15:10.817Z</time></trkpt><trkpt lat="53.37571810372499" lon="14.671890409361009"><ele>10.0</ele><time>2026-04-12T16:15:11.817Z</time></trkpt><trkpt lat="53.375613479863894" lon="14.671661957363765"><ele>10.0</ele><time>2026-04-12T16:15:12.817Z</time></trkpt><trkpt lat="53.37553840852338" lon="14.671434028654584"><ele>10.0</ele><time>2026-04-12T16:15:13.817Z</time></trkpt><trkpt lat="53.375496179341525" lon="14.671177821175087"><ele>10.0</ele><time>2026-04-12T16:15:14.817Z</time></trkpt><trkpt lat="53.37547642410107" lon="14.670906185683084"><ele>11.666666666666668</ele><time>2026-04-12T16:15:15.817Z</time></trkpt><trkpt lat="53.37548308300565" lon="14.670618768943852"><ele>13.333333333333334</ele><time>2026-04-12T16:15:16.817Z</time></trkpt><trkpt lat="53.375501737818865" lon="14.670319228003226"><ele>15.0</ele><time>2026-04-12T16:15:17.817Z</time></trkpt><trkpt lat="53.37551748100672" lon="14.670008965286511"><ele>15.0</ele><time>2026-04-12T16:15:18.817Z</time></trkpt><trkpt lat="53.37552268798632" lon="14.669692560711585"><ele>15.0</ele><time>2026-04-12T16:15:19.817Z</time></trkpt><trkpt lat="53.37552504653352" lon="14.669370942870229"><ele>15.0</ele><time>2026-04-12T16:15:20.817Z</time></trkpt><trkpt lat="53.375526005307634" lon="14.669066955721593"><ele>15.0</ele><time>2026-04-12T16:15:21.817Z</time></trkpt><trkpt lat="53.37552711327116" lon="14.668791835626836"><ele>15.0</ele><time>2026-04-12T16:15:22.817Z</time></trkpt><trkpt lat="53.37553036499348" lon="14.668542787534456"><ele>15.0</ele><time>2026-04-12T16:15:23.817Z</time></trkpt><trkpt lat="53.37553820877905" lon="14.66831878277539"><ele>15.0</ele><time>2026-04-12T16:15:24.817Z</time></trkpt><trkpt lat="53.375544266643494" lon="14.668132321920293"><ele>15.166666666666666</ele><time>2026-04-12T16:15:25.817Z</time></trkpt><trkpt lat="53.37554164757642" lon="14.668006236642018"><ele>15.333333333333332</ele><time>2026-04-12T16:15:26.817Z</time></trkpt><trkpt lat="53.37554546303288" lon="14.667888383497269"><ele>15.5</ele><time>2026-04-12T16:15:28.817Z</time></trkpt><trkpt lat="53.375528373877394" lon="14.667780258255426"><ele>15.666666666666666</ele><time>2026-04-12T16:15:36.817Z</time></trkpt><trkpt lat="53.3754617569663" lon="14.667734339003502"><ele>15.833333333333332</ele><time>2026-04-12T16:15:37.817Z</time></trkpt><trkpt lat="53.375373079038994" lon="14.6677272813233"><ele>16.0</ele><time>2026-04-12T16:15:38.817Z</time></trkpt><trkpt lat="53.37526834553604" lon="14.667725266292182"><ele>16.2</ele><time>2026-04-12T16:15:39.817Z</time></trkpt><trkpt lat="53.37516404416653" lon="14.667719467035994"><ele>16.400000000000002</ele><time>2026-04-12T16:15:40.817Z</time></trkpt><trkpt lat="53.37506540479838" lon="14.667712919627933"><ele>16.6</ele><time>2026-04-12T16:15:41.817Z</time></trkpt><trkpt lat="53.37500041954584" lon="14.66771241192945"><ele>16.8</ele><time>2026-04-12T16:15:42.817Z</time></trkpt><trkpt lat="53.37494025630882" lon="14.667674958130597"><ele>17.0</ele><time>2026-04-12T16:15:45.817Z</time></trkpt><trkpt lat="53.37491002778906" lon="14.668056428634483"><ele>17.0</ele><time>2026-04-12T16:17:35.816Z</time></trkpt><trkpt lat="53.37488315308635" lon="14.668242292864866"><ele>17.0</ele><time>2026-04-12T16:17:37.816Z</time></trkpt><trkpt lat="53.37486080173534" lon="14.668405095800486"><ele>17.0</ele><time>2026-04-12T16:17:38.816Z</time></trkpt><trkpt lat="53.37485291442564" lon="14.668510089455209"><ele>17.0</ele><time>2026-04-12T16:17:39.816Z</time></trkpt><trkpt lat="53.37483917096275" lon="14.668658993163112"><ele>17.0</ele><time>2026-04-12T16:17:41.816Z</time></trkpt><trkpt lat="53.37481622806528" lon="14.66878040599287"><ele>17.0</ele><time>2026-04-12T16:17:42.816Z</time></trkpt><trkpt lat="53.37480711243173" lon="14.66890101292198"><ele>16.8</ele><time>2026-04-12T16:17:43.816Z</time></trkpt><trkpt lat="53.37481195261127" lon="14.669044462939853"><ele>16.6</ele><time>2026-04-12T16:17:44.816Z</time></trkpt><trkpt lat="53.3747954200134" lon="14.669261436702815"><ele>16.400000000000002</ele><time>2026-04-12T16:17:45.816Z</time></trkpt><trkpt lat="53.37477481372805" lon="14.669411272952331"><ele>16.2</ele><time>2026-04-12T16:17:46.816Z</time></trkpt><trkpt lat="53.374767776173506" lon="14.669534207997497"><ele>16.0</ele><time>2026-04-12T16:17:48.817Z</time></trkpt><trkpt lat="53.37461580578254" lon="14.669464746589318"><ele>16.333333333333332</ele><time>2026-04-12T16:17:50.817Z</time></trkpt><trkpt lat="53.37451308780428" lon="14.669471049592673"><ele>16.666666666666664</ele><time>2026-04-12T16:17:51.817Z</time></trkpt><trkpt lat="53.37440215393156" lon="14.66942299187623"><ele>17.0</ele><time>2026-04-12T16:17:52.817Z</time></trkpt><trkpt lat="53.37433196367001" lon="14.66942906493197"><ele>17.333333333333332</ele><time>2026-04-12T16:17:53.817Z</time></trkpt><trkpt lat="53.3742652334873" lon="14.66942156038464"><ele>17.666666666666668</ele><time>2026-04-12T16:17:55.817Z</time></trkpt><trkpt lat="53.37434553387517" lon="14.66943436876747"><ele>18.0</ele><time>2026-04-12T16:18:02.817Z</time></trkpt><trkpt lat="53.37441546915168" lon="14.669447877148396"><ele>18.0</ele><time>2026-04-12T16:18:05.817Z</time></trkpt><trkpt lat="53.37448602555552" lon="14.66951513857611"><ele>18.0</ele><time>2026-04-12T16:20:51.815Z</time></trkpt><trkpt lat="53.3744161617695" lon="14.669496338338908"><ele>18.0</ele><time>2026-04-12T16:21:13.815Z</time></trkpt></trkseg></trk></gpx>